<?xml version="1.0" encoding="UTF-8" standalone="no" ?>
<gpx xmlns="http://www.topografix.com/GPX/1/1" xmlns:xsi="http://www.w3.org/2001/XMLSchema-instance" xsi:schemaLocation="http://www.topografix.com/GPX/1/1 http://www.topografix.com/GPX/1/1/gpx.xsd" version="1.1" creator="VisuGPX - https://www.visugpx.com">
  <metadata>
    <name>TEPEY</name>
    <desc><![CDATA[Merci]]></desc>
  </metadata>
  <trk>
    <name><![CDATA[TEPEY_1]]></name>
    <trkseg>
      <trkpt lat="45.29029" lon="6.21709">
        <ele>1149.6</ele>
        <time>2021-12-17T07:26:04Z</time>
      </trkpt>
      <trkpt lat="45.29033" lon="6.21707">
        <ele>1149.6</ele>
        <time>2021-12-17T07:26:07Z</time>
      </trkpt>
      <trkpt lat="45.29039" lon="6.21706">
        <ele>1149.6</ele>
        <time>2021-12-17T07:26:11Z</time>
      </trkpt>
      <trkpt lat="45.29049" lon="6.217">
        <ele>1150.2</ele>
        <time>2021-12-17T07:26:18Z</time>
      </trkpt>
      <trkpt lat="45.29055" lon="6.21698">
        <ele>1150.8</ele>
        <time>2021-12-17T07:26:22Z</time>
      </trkpt>
      <trkpt lat="45.29061" lon="6.21694">
        <ele>1151.4</ele>
        <time>2021-12-17T07:26:27Z</time>
      </trkpt>
      <trkpt lat="45.29063" lon="6.21693">
        <ele>1151.8</ele>
        <time>2021-12-17T07:26:29Z</time>
      </trkpt>
      <trkpt lat="45.29069" lon="6.21687">
        <ele>1152.2</ele>
        <time>2021-12-17T07:26:34Z</time>
      </trkpt>
      <trkpt lat="45.29075" lon="6.2168">
        <ele>1152.8</ele>
        <time>2021-12-17T07:26:40Z</time>
      </trkpt>
      <trkpt lat="45.29075" lon="6.21679">
        <ele>1152.8</ele>
        <time>2021-12-17T07:26:41Z</time>
      </trkpt>
      <trkpt lat="45.29079" lon="6.21676">
        <ele>1153.2</ele>
        <time>2021-12-17T07:26:47Z</time>
      </trkpt>
      <trkpt lat="45.2908" lon="6.21674">
        <ele>1153.4</ele>
        <time>2021-12-17T07:26:49Z</time>
      </trkpt>
      <trkpt lat="45.29081" lon="6.21672">
        <ele>1153.4</ele>
        <time>2021-12-17T07:26:52Z</time>
      </trkpt>
      <trkpt lat="45.29083" lon="6.21669">
        <ele>1153.8</ele>
        <time>2021-12-17T07:27:00Z</time>
      </trkpt>
      <trkpt lat="45.29081" lon="6.21672">
        <ele>1153.4</ele>
        <time>2021-12-17T07:27:07Z</time>
      </trkpt>
      <trkpt lat="45.29081" lon="6.21673">
        <ele>1153.4</ele>
        <time>2021-12-17T07:27:12Z</time>
      </trkpt>
      <trkpt lat="45.29081" lon="6.21673">
        <ele>1153.6</ele>
        <time>2021-12-17T07:27:16Z</time>
      </trkpt>
      <trkpt lat="45.29082" lon="6.21669">
        <ele>1153.8</ele>
        <time>2021-12-17T07:28:51Z</time>
      </trkpt>
      <trkpt lat="45.29084" lon="6.21666">
        <ele>1153.8</ele>
        <time>2021-12-17T07:28:54Z</time>
      </trkpt>
      <trkpt lat="45.29086" lon="6.21664">
        <ele>1153.8</ele>
        <time>2021-12-17T07:29:00Z</time>
      </trkpt>
      <trkpt lat="45.29088" lon="6.21659">
        <ele>1153.8</ele>
        <time>2021-12-17T07:29:06Z</time>
      </trkpt>
      <trkpt lat="45.29091" lon="6.21653">
        <ele>1154.8</ele>
        <time>2021-12-17T07:29:12Z</time>
      </trkpt>
      <trkpt lat="45.29092" lon="6.21653">
        <ele>1155</ele>
        <time>2021-12-17T07:29:13Z</time>
      </trkpt>
      <trkpt lat="45.29095" lon="6.21651">
        <ele>1156.2</ele>
        <time>2021-12-17T07:29:17Z</time>
      </trkpt>
      <trkpt lat="45.29096" lon="6.21648">
        <ele>1156.6</ele>
        <time>2021-12-17T07:29:19Z</time>
      </trkpt>
      <trkpt lat="45.29098" lon="6.21644">
        <ele>1157.4</ele>
        <time>2021-12-17T07:29:22Z</time>
      </trkpt>
      <trkpt lat="45.291" lon="6.21642">
        <ele>1157.8</ele>
        <time>2021-12-17T07:29:24Z</time>
      </trkpt>
      <trkpt lat="45.29101" lon="6.2164">
        <ele>1158.4</ele>
        <time>2021-12-17T07:29:26Z</time>
      </trkpt>
      <trkpt lat="45.29104" lon="6.21635">
        <ele>1159.4</ele>
        <time>2021-12-17T07:29:30Z</time>
      </trkpt>
      <trkpt lat="45.29105" lon="6.21635">
        <ele>1159.8</ele>
        <time>2021-12-17T07:29:31Z</time>
      </trkpt>
      <trkpt lat="45.29105" lon="6.21632">
        <ele>1160.8</ele>
        <time>2021-12-17T07:29:35Z</time>
      </trkpt>
      <trkpt lat="45.29104" lon="6.21632">
        <ele>1161</ele>
        <time>2021-12-17T07:29:36Z</time>
      </trkpt>
      <trkpt lat="45.29103" lon="6.21629">
        <ele>1162</ele>
        <time>2021-12-17T07:29:40Z</time>
      </trkpt>
      <trkpt lat="45.29104" lon="6.21626">
        <ele>1162.6</ele>
        <time>2021-12-17T07:29:43Z</time>
      </trkpt>
      <trkpt lat="45.29105" lon="6.21623">
        <ele>1163</ele>
        <time>2021-12-17T07:29:45Z</time>
      </trkpt>
      <trkpt lat="45.29105" lon="6.21621">
        <ele>1163.2</ele>
        <time>2021-12-17T07:29:46Z</time>
      </trkpt>
      <trkpt lat="45.29106" lon="6.21612">
        <ele>1164.4</ele>
        <time>2021-12-17T07:29:51Z</time>
      </trkpt>
      <trkpt lat="45.29106" lon="6.21607">
        <ele>1165.6</ele>
        <time>2021-12-17T07:29:56Z</time>
      </trkpt>
      <trkpt lat="45.2911" lon="6.21601">
        <ele>1166.4</ele>
        <time>2021-12-17T07:30:01Z</time>
      </trkpt>
      <trkpt lat="45.2911" lon="6.216">
        <ele>1166.6</ele>
        <time>2021-12-17T07:30:02Z</time>
      </trkpt>
      <trkpt lat="45.29111" lon="6.21598">
        <ele>1166.6</ele>
        <time>2021-12-17T07:30:03Z</time>
      </trkpt>
      <trkpt lat="45.29113" lon="6.21593">
        <ele>1167.6</ele>
        <time>2021-12-17T07:30:08Z</time>
      </trkpt>
      <trkpt lat="45.29114" lon="6.2159">
        <ele>1168.4</ele>
        <time>2021-12-17T07:30:10Z</time>
      </trkpt>
      <trkpt lat="45.29114" lon="6.21587">
        <ele>1168.6</ele>
        <time>2021-12-17T07:30:12Z</time>
      </trkpt>
      <trkpt lat="45.29114" lon="6.21582">
        <ele>1169</ele>
        <time>2021-12-17T07:30:14Z</time>
      </trkpt>
      <trkpt lat="45.29115" lon="6.21581">
        <ele>1169.2</ele>
        <time>2021-12-17T07:30:15Z</time>
      </trkpt>
      <trkpt lat="45.29115" lon="6.2158">
        <ele>1169.4</ele>
        <time>2021-12-17T07:30:16Z</time>
      </trkpt>
      <trkpt lat="45.29117" lon="6.21579">
        <ele>1169.8</ele>
        <time>2021-12-17T07:30:17Z</time>
      </trkpt>
      <trkpt lat="45.29118" lon="6.21576">
        <ele>1170.2</ele>
        <time>2021-12-17T07:30:19Z</time>
      </trkpt>
      <trkpt lat="45.29119" lon="6.21575">
        <ele>1170.6</ele>
        <time>2021-12-17T07:30:20Z</time>
      </trkpt>
      <trkpt lat="45.29119" lon="6.21574">
        <ele>1170.8</ele>
        <time>2021-12-17T07:30:21Z</time>
      </trkpt>
      <trkpt lat="45.2912" lon="6.21574">
        <ele>1171.4</ele>
        <time>2021-12-17T07:30:23Z</time>
      </trkpt>
      <trkpt lat="45.2912" lon="6.21573">
        <ele>1171.6</ele>
        <time>2021-12-17T07:30:24Z</time>
      </trkpt>
      <trkpt lat="45.2912" lon="6.21573">
        <ele>1171.6</ele>
        <time>2021-12-17T07:30:25Z</time>
      </trkpt>
      <trkpt lat="45.29121" lon="6.21574">
        <ele>1172</ele>
        <time>2021-12-17T07:30:28Z</time>
      </trkpt>
      <trkpt lat="45.29123" lon="6.21573">
        <ele>1172</ele>
        <time>2021-12-17T07:30:31Z</time>
      </trkpt>
      <trkpt lat="45.29126" lon="6.21571">
        <ele>1172.2</ele>
        <time>2021-12-17T07:30:39Z</time>
      </trkpt>
      <trkpt lat="45.29125" lon="6.21571">
        <ele>1172.2</ele>
        <time>2021-12-17T07:31:05Z</time>
      </trkpt>
      <trkpt lat="45.29126" lon="6.21566">
        <ele>1173</ele>
        <time>2021-12-17T07:31:28Z</time>
      </trkpt>
      <trkpt lat="45.29126" lon="6.21562">
        <ele>1174</ele>
        <time>2021-12-17T07:31:33Z</time>
      </trkpt>
      <trkpt lat="45.29127" lon="6.21559">
        <ele>1174.6</ele>
        <time>2021-12-17T07:31:35Z</time>
      </trkpt>
      <trkpt lat="45.29128" lon="6.21554">
        <ele>1175.2</ele>
        <time>2021-12-17T07:31:38Z</time>
      </trkpt>
      <trkpt lat="45.29131" lon="6.21551">
        <ele>1176.4</ele>
        <time>2021-12-17T07:31:41Z</time>
      </trkpt>
      <trkpt lat="45.29133" lon="6.2155">
        <ele>1177.4</ele>
        <time>2021-12-17T07:31:45Z</time>
      </trkpt>
      <trkpt lat="45.29133" lon="6.21547">
        <ele>1178.4</ele>
        <time>2021-12-17T07:31:49Z</time>
      </trkpt>
      <trkpt lat="45.29134" lon="6.21545">
        <ele>1179</ele>
        <time>2021-12-17T07:31:51Z</time>
      </trkpt>
      <trkpt lat="45.29135" lon="6.21543">
        <ele>1179.4</ele>
        <time>2021-12-17T07:31:54Z</time>
      </trkpt>
      <trkpt lat="45.29135" lon="6.21542">
        <ele>1179.6</ele>
        <time>2021-12-17T07:31:55Z</time>
      </trkpt>
      <trkpt lat="45.29137" lon="6.21539">
        <ele>1180.6</ele>
        <time>2021-12-17T07:31:59Z</time>
      </trkpt>
      <trkpt lat="45.29138" lon="6.21533">
        <ele>1181.6</ele>
        <time>2021-12-17T07:32:04Z</time>
      </trkpt>
      <trkpt lat="45.29138" lon="6.21531">
        <ele>1181.8</ele>
        <time>2021-12-17T07:32:05Z</time>
      </trkpt>
      <trkpt lat="45.29139" lon="6.2153">
        <ele>1182</ele>
        <time>2021-12-17T07:32:06Z</time>
      </trkpt>
      <trkpt lat="45.29141" lon="6.21526">
        <ele>1182.8</ele>
        <time>2021-12-17T07:32:10Z</time>
      </trkpt>
      <trkpt lat="45.29142" lon="6.21525">
        <ele>1183</ele>
        <time>2021-12-17T07:32:11Z</time>
      </trkpt>
      <trkpt lat="45.29144" lon="6.21523">
        <ele>1184</ele>
        <time>2021-12-17T07:32:15Z</time>
      </trkpt>
      <trkpt lat="45.29144" lon="6.21522">
        <ele>1184.6</ele>
        <time>2021-12-17T07:32:17Z</time>
      </trkpt>
      <trkpt lat="45.29146" lon="6.21521">
        <ele>1185.2</ele>
        <time>2021-12-17T07:32:19Z</time>
      </trkpt>
      <trkpt lat="45.29148" lon="6.21518">
        <ele>1185.8</ele>
        <time>2021-12-17T07:32:23Z</time>
      </trkpt>
      <trkpt lat="45.2915" lon="6.21514">
        <ele>1186.4</ele>
        <time>2021-12-17T07:32:26Z</time>
      </trkpt>
      <trkpt lat="45.29153" lon="6.2151">
        <ele>1187.4</ele>
        <time>2021-12-17T07:32:30Z</time>
      </trkpt>
      <trkpt lat="45.29153" lon="6.21505">
        <ele>1188.6</ele>
        <time>2021-12-17T07:32:35Z</time>
      </trkpt>
      <trkpt lat="45.29153" lon="6.21504">
        <ele>1189</ele>
        <time>2021-12-17T07:32:36Z</time>
      </trkpt>
      <trkpt lat="45.29155" lon="6.21501">
        <ele>1189.8</ele>
        <time>2021-12-17T07:32:39Z</time>
      </trkpt>
      <trkpt lat="45.29157" lon="6.21498">
        <ele>1190.6</ele>
        <time>2021-12-17T07:32:43Z</time>
      </trkpt>
      <trkpt lat="45.29157" lon="6.21497">
        <ele>1191</ele>
        <time>2021-12-17T07:32:44Z</time>
      </trkpt>
      <trkpt lat="45.29161" lon="6.21494">
        <ele>1192</ele>
        <time>2021-12-17T07:32:48Z</time>
      </trkpt>
      <trkpt lat="45.29163" lon="6.21491">
        <ele>1192.6</ele>
        <time>2021-12-17T07:32:51Z</time>
      </trkpt>
      <trkpt lat="45.29164" lon="6.21489">
        <ele>1193.2</ele>
        <time>2021-12-17T07:32:54Z</time>
      </trkpt>
      <trkpt lat="45.29167" lon="6.21487">
        <ele>1194.2</ele>
        <time>2021-12-17T07:32:58Z</time>
      </trkpt>
      <trkpt lat="45.29168" lon="6.21486">
        <ele>1194.4</ele>
        <time>2021-12-17T07:32:59Z</time>
      </trkpt>
      <trkpt lat="45.29172" lon="6.21482">
        <ele>1195.6</ele>
        <time>2021-12-17T07:33:03Z</time>
      </trkpt>
      <trkpt lat="45.29172" lon="6.21481">
        <ele>1196.2</ele>
        <time>2021-12-17T07:33:06Z</time>
      </trkpt>
      <trkpt lat="45.29172" lon="6.2148">
        <ele>1196.6</ele>
        <time>2021-12-17T07:33:07Z</time>
      </trkpt>
      <trkpt lat="45.29175" lon="6.21477">
        <ele>1197.8</ele>
        <time>2021-12-17T07:33:12Z</time>
      </trkpt>
      <trkpt lat="45.29178" lon="6.21474">
        <ele>1198.8</ele>
        <time>2021-12-17T07:33:16Z</time>
      </trkpt>
      <trkpt lat="45.2918" lon="6.2147">
        <ele>1199.4</ele>
        <time>2021-12-17T07:33:19Z</time>
      </trkpt>
      <trkpt lat="45.29182" lon="6.21467">
        <ele>1200</ele>
        <time>2021-12-17T07:33:22Z</time>
      </trkpt>
      <trkpt lat="45.29184" lon="6.21465">
        <ele>1200.6</ele>
        <time>2021-12-17T07:33:25Z</time>
      </trkpt>
      <trkpt lat="45.29185" lon="6.21464">
        <ele>1201.2</ele>
        <time>2021-12-17T07:33:28Z</time>
      </trkpt>
      <trkpt lat="45.29187" lon="6.21463">
        <ele>1202</ele>
        <time>2021-12-17T07:33:32Z</time>
      </trkpt>
      <trkpt lat="45.29188" lon="6.21463">
        <ele>1202.2</ele>
        <time>2021-12-17T07:33:34Z</time>
      </trkpt>
      <trkpt lat="45.29189" lon="6.21463">
        <ele>1202.4</ele>
        <time>2021-12-17T07:33:38Z</time>
      </trkpt>
      <trkpt lat="45.2919" lon="6.2146">
        <ele>1202.8</ele>
        <time>2021-12-17T07:33:45Z</time>
      </trkpt>
      <trkpt lat="45.29192" lon="6.21457">
        <ele>1203.4</ele>
        <time>2021-12-17T07:33:49Z</time>
      </trkpt>
      <trkpt lat="45.29193" lon="6.21453">
        <ele>1204</ele>
        <time>2021-12-17T07:33:52Z</time>
      </trkpt>
      <trkpt lat="45.29194" lon="6.21452">
        <ele>1204.6</ele>
        <time>2021-12-17T07:33:54Z</time>
      </trkpt>
      <trkpt lat="45.29197" lon="6.2145">
        <ele>1205.4</ele>
        <time>2021-12-17T07:34:00Z</time>
      </trkpt>
      <trkpt lat="45.29198" lon="6.21451">
        <ele>1205.6</ele>
        <time>2021-12-17T07:34:04Z</time>
      </trkpt>
      <trkpt lat="45.29198" lon="6.2145">
        <ele>1205.6</ele>
        <time>2021-12-17T07:34:07Z</time>
      </trkpt>
      <trkpt lat="45.29199" lon="6.21451">
        <ele>1205.6</ele>
        <time>2021-12-17T07:34:11Z</time>
      </trkpt>
      <trkpt lat="45.29198" lon="6.21452">
        <ele>1205.8</ele>
        <time>2021-12-17T07:34:31Z</time>
      </trkpt>
      <trkpt lat="45.29198" lon="6.21452">
        <ele>1206.8</ele>
        <time>2021-12-17T07:34:40Z</time>
      </trkpt>
      <trkpt lat="45.29198" lon="6.21452">
        <ele>1208.2</ele>
        <time>2021-12-17T07:34:45Z</time>
      </trkpt>
      <trkpt lat="45.29198" lon="6.21452">
        <ele>1209.4</ele>
        <time>2021-12-17T07:34:50Z</time>
      </trkpt>
      <trkpt lat="45.292" lon="6.21446">
        <ele>1210.6</ele>
        <time>2021-12-17T07:34:55Z</time>
      </trkpt>
      <trkpt lat="45.29202" lon="6.2144">
        <ele>1211</ele>
        <time>2021-12-17T07:34:57Z</time>
      </trkpt>
      <trkpt lat="45.29203" lon="6.21435">
        <ele>1211.8</ele>
        <time>2021-12-17T07:34:59Z</time>
      </trkpt>
      <trkpt lat="45.29207" lon="6.21427">
        <ele>1212.6</ele>
        <time>2021-12-17T07:35:03Z</time>
      </trkpt>
      <trkpt lat="45.29208" lon="6.21427">
        <ele>1212.8</ele>
        <time>2021-12-17T07:35:04Z</time>
      </trkpt>
      <trkpt lat="45.2921" lon="6.21424">
        <ele>1214</ele>
        <time>2021-12-17T07:35:07Z</time>
      </trkpt>
      <trkpt lat="45.29211" lon="6.21424">
        <ele>1214.4</ele>
        <time>2021-12-17T07:35:09Z</time>
      </trkpt>
      <trkpt lat="45.29213" lon="6.21421">
        <ele>1215</ele>
        <time>2021-12-17T07:35:11Z</time>
      </trkpt>
      <trkpt lat="45.29215" lon="6.21418">
        <ele>1216</ele>
        <time>2021-12-17T07:35:14Z</time>
      </trkpt>
      <trkpt lat="45.29215" lon="6.21416">
        <ele>1216.6</ele>
        <time>2021-12-17T07:35:17Z</time>
      </trkpt>
      <trkpt lat="45.29217" lon="6.21415">
        <ele>1217</ele>
        <time>2021-12-17T07:35:20Z</time>
      </trkpt>
      <trkpt lat="45.29218" lon="6.21414">
        <ele>1218.2</ele>
        <time>2021-12-17T07:35:23Z</time>
      </trkpt>
      <trkpt lat="45.29218" lon="6.21414">
        <ele>1218.6</ele>
        <time>2021-12-17T07:35:24Z</time>
      </trkpt>
      <trkpt lat="45.29222" lon="6.21412">
        <ele>1219.6</ele>
        <time>2021-12-17T07:35:28Z</time>
      </trkpt>
      <trkpt lat="45.29222" lon="6.21411">
        <ele>1220.2</ele>
        <time>2021-12-17T07:35:30Z</time>
      </trkpt>
      <trkpt lat="45.29223" lon="6.21409">
        <ele>1221</ele>
        <time>2021-12-17T07:35:32Z</time>
      </trkpt>
      <trkpt lat="45.29225" lon="6.21408">
        <ele>1222</ele>
        <time>2021-12-17T07:35:35Z</time>
      </trkpt>
      <trkpt lat="45.29228" lon="6.21406">
        <ele>1223</ele>
        <time>2021-12-17T07:35:39Z</time>
      </trkpt>
      <trkpt lat="45.2923" lon="6.21405">
        <ele>1223.4</ele>
        <time>2021-12-17T07:35:40Z</time>
      </trkpt>
      <trkpt lat="45.29231" lon="6.21404">
        <ele>1224.4</ele>
        <time>2021-12-17T07:35:43Z</time>
      </trkpt>
      <trkpt lat="45.29232" lon="6.21403">
        <ele>1224.6</ele>
        <time>2021-12-17T07:35:45Z</time>
      </trkpt>
      <trkpt lat="45.2923" lon="6.21402">
        <ele>1225.6</ele>
        <time>2021-12-17T07:35:48Z</time>
      </trkpt>
      <trkpt lat="45.2923" lon="6.21403">
        <ele>1225.8</ele>
        <time>2021-12-17T07:35:49Z</time>
      </trkpt>
      <trkpt lat="45.29233" lon="6.21399">
        <ele>1226.6</ele>
        <time>2021-12-17T07:35:53Z</time>
      </trkpt>
      <trkpt lat="45.29234" lon="6.21399">
        <ele>1227.6</ele>
        <time>2021-12-17T07:35:56Z</time>
      </trkpt>
      <trkpt lat="45.29235" lon="6.21398">
        <ele>1227.8</ele>
        <time>2021-12-17T07:35:57Z</time>
      </trkpt>
      <trkpt lat="45.29237" lon="6.21393">
        <ele>1229</ele>
        <time>2021-12-17T07:36:01Z</time>
      </trkpt>
      <trkpt lat="45.29237" lon="6.21393">
        <ele>1229</ele>
        <time>2021-12-17T07:36:02Z</time>
      </trkpt>
      <trkpt lat="45.29237" lon="6.21386">
        <ele>1230</ele>
        <time>2021-12-17T07:36:06Z</time>
      </trkpt>
      <trkpt lat="45.29238" lon="6.21383">
        <ele>1231</ele>
        <time>2021-12-17T07:36:10Z</time>
      </trkpt>
      <trkpt lat="45.29238" lon="6.21383">
        <ele>1231.2</ele>
        <time>2021-12-17T07:36:11Z</time>
      </trkpt>
      <trkpt lat="45.29238" lon="6.21383">
        <ele>1232.4</ele>
        <time>2021-12-17T07:36:14Z</time>
      </trkpt>
      <trkpt lat="45.29238" lon="6.21382">
        <ele>1232.8</ele>
        <time>2021-12-17T07:36:15Z</time>
      </trkpt>
      <trkpt lat="45.29237" lon="6.21382">
        <ele>1233.6</ele>
        <time>2021-12-17T07:36:19Z</time>
      </trkpt>
      <trkpt lat="45.29236" lon="6.2138">
        <ele>1233.8</ele>
        <time>2021-12-17T07:36:20Z</time>
      </trkpt>
      <trkpt lat="45.29235" lon="6.21378">
        <ele>1234.6</ele>
        <time>2021-12-17T07:36:23Z</time>
      </trkpt>
      <trkpt lat="45.29235" lon="6.21375">
        <ele>1235.6</ele>
        <time>2021-12-17T07:36:26Z</time>
      </trkpt>
      <trkpt lat="45.29234" lon="6.21374">
        <ele>1236</ele>
        <time>2021-12-17T07:36:27Z</time>
      </trkpt>
      <trkpt lat="45.29234" lon="6.21372">
        <ele>1236.6</ele>
        <time>2021-12-17T07:36:30Z</time>
      </trkpt>
      <trkpt lat="45.29232" lon="6.21368">
        <ele>1238</ele>
        <time>2021-12-17T07:36:35Z</time>
      </trkpt>
      <trkpt lat="45.29234" lon="6.21363">
        <ele>1239</ele>
        <time>2021-12-17T07:36:39Z</time>
      </trkpt>
      <trkpt lat="45.29236" lon="6.2136">
        <ele>1239.4</ele>
        <time>2021-12-17T07:36:41Z</time>
      </trkpt>
      <trkpt lat="45.29237" lon="6.21356">
        <ele>1240</ele>
        <time>2021-12-17T07:36:44Z</time>
      </trkpt>
      <trkpt lat="45.29237" lon="6.21354">
        <ele>1240.8</ele>
        <time>2021-12-17T07:36:46Z</time>
      </trkpt>
      <trkpt lat="45.29236" lon="6.21352">
        <ele>1241</ele>
        <time>2021-12-17T07:36:47Z</time>
      </trkpt>
      <trkpt lat="45.29237" lon="6.21347">
        <ele>1242</ele>
        <time>2021-12-17T07:36:51Z</time>
      </trkpt>
      <trkpt lat="45.29237" lon="6.21346">
        <ele>1242.2</ele>
        <time>2021-12-17T07:36:52Z</time>
      </trkpt>
      <trkpt lat="45.29239" lon="6.21343">
        <ele>1243.4</ele>
        <time>2021-12-17T07:36:57Z</time>
      </trkpt>
      <trkpt lat="45.2924" lon="6.21339">
        <ele>1244.4</ele>
        <time>2021-12-17T07:37:01Z</time>
      </trkpt>
      <trkpt lat="45.29243" lon="6.21333">
        <ele>1245.6</ele>
        <time>2021-12-17T07:37:07Z</time>
      </trkpt>
      <trkpt lat="45.29243" lon="6.21333">
        <ele>1245.6</ele>
        <time>2021-12-17T07:37:08Z</time>
      </trkpt>
      <trkpt lat="45.29246" lon="6.21326">
        <ele>1246.6</ele>
        <time>2021-12-17T07:37:13Z</time>
      </trkpt>
      <trkpt lat="45.29249" lon="6.21319">
        <ele>1247.8</ele>
        <time>2021-12-17T07:37:19Z</time>
      </trkpt>
      <trkpt lat="45.29253" lon="6.21314">
        <ele>1249</ele>
        <time>2021-12-17T07:37:23Z</time>
      </trkpt>
      <trkpt lat="45.29256" lon="6.21312">
        <ele>1249.6</ele>
        <time>2021-12-17T07:37:26Z</time>
      </trkpt>
      <trkpt lat="45.29257" lon="6.21311">
        <ele>1250</ele>
        <time>2021-12-17T07:37:28Z</time>
      </trkpt>
      <trkpt lat="45.29262" lon="6.21307">
        <ele>1250.6</ele>
        <time>2021-12-17T07:37:32Z</time>
      </trkpt>
      <trkpt lat="45.29264" lon="6.21304">
        <ele>1251</ele>
        <time>2021-12-17T07:37:35Z</time>
      </trkpt>
      <trkpt lat="45.29264" lon="6.21303">
        <ele>1251.2</ele>
        <time>2021-12-17T07:37:37Z</time>
      </trkpt>
      <trkpt lat="45.29269" lon="6.21299">
        <ele>1252.2</ele>
        <time>2021-12-17T07:37:42Z</time>
      </trkpt>
      <trkpt lat="45.29269" lon="6.21298">
        <ele>1252.4</ele>
        <time>2021-12-17T07:37:43Z</time>
      </trkpt>
      <trkpt lat="45.29272" lon="6.21293">
        <ele>1253.4</ele>
        <time>2021-12-17T07:37:48Z</time>
      </trkpt>
      <trkpt lat="45.29273" lon="6.21291">
        <ele>1253.8</ele>
        <time>2021-12-17T07:37:50Z</time>
      </trkpt>
      <trkpt lat="45.29274" lon="6.21288">
        <ele>1254.4</ele>
        <time>2021-12-17T07:37:53Z</time>
      </trkpt>
      <trkpt lat="45.29276" lon="6.21285">
        <ele>1255</ele>
        <time>2021-12-17T07:37:56Z</time>
      </trkpt>
      <trkpt lat="45.29276" lon="6.21284">
        <ele>1255.8</ele>
        <time>2021-12-17T07:37:58Z</time>
      </trkpt>
      <trkpt lat="45.29278" lon="6.21278">
        <ele>1256.6</ele>
        <time>2021-12-17T07:38:02Z</time>
      </trkpt>
      <trkpt lat="45.2928" lon="6.21278">
        <ele>1257</ele>
        <time>2021-12-17T07:38:03Z</time>
      </trkpt>
      <trkpt lat="45.29281" lon="6.21276">
        <ele>1257.4</ele>
        <time>2021-12-17T07:38:05Z</time>
      </trkpt>
      <trkpt lat="45.29282" lon="6.21273">
        <ele>1258</ele>
        <time>2021-12-17T07:38:08Z</time>
      </trkpt>
      <trkpt lat="45.29286" lon="6.21268">
        <ele>1259.2</ele>
        <time>2021-12-17T07:38:12Z</time>
      </trkpt>
      <trkpt lat="45.29289" lon="6.21262">
        <ele>1259.8</ele>
        <time>2021-12-17T07:38:16Z</time>
      </trkpt>
      <trkpt lat="45.29297" lon="6.21253">
        <ele>1259.8</ele>
        <time>2021-12-17T07:38:25Z</time>
      </trkpt>
      <trkpt lat="45.29301" lon="6.21247">
        <ele>1260</ele>
        <time>2021-12-17T07:38:31Z</time>
      </trkpt>
      <trkpt lat="45.29301" lon="6.21246">
        <ele>1260.2</ele>
        <time>2021-12-17T07:38:32Z</time>
      </trkpt>
      <trkpt lat="45.29302" lon="6.21244">
        <ele>1260.4</ele>
        <time>2021-12-17T07:38:33Z</time>
      </trkpt>
      <trkpt lat="45.29305" lon="6.21238">
        <ele>1261.4</ele>
        <time>2021-12-17T07:38:38Z</time>
      </trkpt>
      <trkpt lat="45.29305" lon="6.21237">
        <ele>1261.6</ele>
        <time>2021-12-17T07:38:39Z</time>
      </trkpt>
      <trkpt lat="45.29309" lon="6.2123">
        <ele>1262.4</ele>
        <time>2021-12-17T07:38:45Z</time>
      </trkpt>
      <trkpt lat="45.2931" lon="6.21229">
        <ele>1262.6</ele>
        <time>2021-12-17T07:38:46Z</time>
      </trkpt>
      <trkpt lat="45.29311" lon="6.21224">
        <ele>1263.8</ele>
        <time>2021-12-17T07:38:51Z</time>
      </trkpt>
      <trkpt lat="45.29311" lon="6.21222">
        <ele>1264</ele>
        <time>2021-12-17T07:38:52Z</time>
      </trkpt>
      <trkpt lat="45.29312" lon="6.2122">
        <ele>1264.8</ele>
        <time>2021-12-17T07:38:54Z</time>
      </trkpt>
      <trkpt lat="45.29312" lon="6.21216">
        <ele>1265.8</ele>
        <time>2021-12-17T07:38:58Z</time>
      </trkpt>
      <trkpt lat="45.29312" lon="6.21215">
        <ele>1266</ele>
        <time>2021-12-17T07:38:59Z</time>
      </trkpt>
      <trkpt lat="45.29312" lon="6.21209">
        <ele>1267</ele>
        <time>2021-12-17T07:39:04Z</time>
      </trkpt>
      <trkpt lat="45.29312" lon="6.21208">
        <ele>1267.2</ele>
        <time>2021-12-17T07:39:05Z</time>
      </trkpt>
      <trkpt lat="45.29313" lon="6.21206">
        <ele>1267.6</ele>
        <time>2021-12-17T07:39:07Z</time>
      </trkpt>
      <trkpt lat="45.29312" lon="6.21202">
        <ele>1268.2</ele>
        <time>2021-12-17T07:39:09Z</time>
      </trkpt>
      <trkpt lat="45.29311" lon="6.212">
        <ele>1268.6</ele>
        <time>2021-12-17T07:39:11Z</time>
      </trkpt>
      <trkpt lat="45.29311" lon="6.21199">
        <ele>1268.8</ele>
        <time>2021-12-17T07:39:12Z</time>
      </trkpt>
      <trkpt lat="45.29312" lon="6.21195">
        <ele>1269.4</ele>
        <time>2021-12-17T07:39:14Z</time>
      </trkpt>
      <trkpt lat="45.29311" lon="6.21191">
        <ele>1269.8</ele>
        <time>2021-12-17T07:39:16Z</time>
      </trkpt>
      <trkpt lat="45.29314" lon="6.21187">
        <ele>1270.6</ele>
        <time>2021-12-17T07:39:20Z</time>
      </trkpt>
      <trkpt lat="45.29314" lon="6.21185">
        <ele>1270.8</ele>
        <time>2021-12-17T07:39:21Z</time>
      </trkpt>
      <trkpt lat="45.29316" lon="6.21181">
        <ele>1271.6</ele>
        <time>2021-12-17T07:39:25Z</time>
      </trkpt>
      <trkpt lat="45.29316" lon="6.21179">
        <ele>1271.6</ele>
        <time>2021-12-17T07:39:26Z</time>
      </trkpt>
      <trkpt lat="45.29319" lon="6.21171">
        <ele>1272.6</ele>
        <time>2021-12-17T07:39:31Z</time>
      </trkpt>
      <trkpt lat="45.2932" lon="6.21168">
        <ele>1273.4</ele>
        <time>2021-12-17T07:39:34Z</time>
      </trkpt>
      <trkpt lat="45.29321" lon="6.21167">
        <ele>1273.8</ele>
        <time>2021-12-17T07:39:36Z</time>
      </trkpt>
      <trkpt lat="45.29323" lon="6.21159">
        <ele>1275</ele>
        <time>2021-12-17T07:39:42Z</time>
      </trkpt>
      <trkpt lat="45.29325" lon="6.21153">
        <ele>1275.6</ele>
        <time>2021-12-17T07:39:46Z</time>
      </trkpt>
      <trkpt lat="45.29325" lon="6.21151">
        <ele>1275.6</ele>
        <time>2021-12-17T07:39:47Z</time>
      </trkpt>
      <trkpt lat="45.29326" lon="6.21148">
        <ele>1275.8</ele>
        <time>2021-12-17T07:39:49Z</time>
      </trkpt>
      <trkpt lat="45.29327" lon="6.21147">
        <ele>1276</ele>
        <time>2021-12-17T07:39:50Z</time>
      </trkpt>
      <trkpt lat="45.29327" lon="6.21146">
        <ele>1276.2</ele>
        <time>2021-12-17T07:39:51Z</time>
      </trkpt>
      <trkpt lat="45.29325" lon="6.21139">
        <ele>1277.4</ele>
        <time>2021-12-17T07:39:56Z</time>
      </trkpt>
      <trkpt lat="45.29325" lon="6.21136">
        <ele>1277.6</ele>
        <time>2021-12-17T07:39:57Z</time>
      </trkpt>
      <trkpt lat="45.29325" lon="6.21131">
        <ele>1278.6</ele>
        <time>2021-12-17T07:40:01Z</time>
      </trkpt>
      <trkpt lat="45.29326" lon="6.21126">
        <ele>1279.4</ele>
        <time>2021-12-17T07:40:05Z</time>
      </trkpt>
      <trkpt lat="45.29327" lon="6.21125">
        <ele>1279.6</ele>
        <time>2021-12-17T07:40:06Z</time>
      </trkpt>
      <trkpt lat="45.29324" lon="6.2112">
        <ele>1280.4</ele>
        <time>2021-12-17T07:40:09Z</time>
      </trkpt>
      <trkpt lat="45.29323" lon="6.21119">
        <ele>1280.6</ele>
        <time>2021-12-17T07:40:10Z</time>
      </trkpt>
      <trkpt lat="45.29322" lon="6.21116">
        <ele>1281.6</ele>
        <time>2021-12-17T07:40:13Z</time>
      </trkpt>
      <trkpt lat="45.2932" lon="6.21113">
        <ele>1282.2</ele>
        <time>2021-12-17T07:40:15Z</time>
      </trkpt>
      <trkpt lat="45.2932" lon="6.21112">
        <ele>1282.8</ele>
        <time>2021-12-17T07:40:17Z</time>
      </trkpt>
      <trkpt lat="45.29318" lon="6.2111">
        <ele>1283.4</ele>
        <time>2021-12-17T07:40:20Z</time>
      </trkpt>
      <trkpt lat="45.29318" lon="6.21105">
        <ele>1283.8</ele>
        <time>2021-12-17T07:40:23Z</time>
      </trkpt>
      <trkpt lat="45.29317" lon="6.21102">
        <ele>1284.2</ele>
        <time>2021-12-17T07:40:26Z</time>
      </trkpt>
      <trkpt lat="45.29316" lon="6.21099">
        <ele>1285.2</ele>
        <time>2021-12-17T07:40:30Z</time>
      </trkpt>
      <trkpt lat="45.29316" lon="6.21097">
        <ele>1286</ele>
        <time>2021-12-17T07:40:32Z</time>
      </trkpt>
      <trkpt lat="45.29317" lon="6.21093">
        <ele>1286.4</ele>
        <time>2021-12-17T07:40:34Z</time>
      </trkpt>
      <trkpt lat="45.29316" lon="6.21088">
        <ele>1287</ele>
        <time>2021-12-17T07:40:37Z</time>
      </trkpt>
      <trkpt lat="45.29317" lon="6.21087">
        <ele>1287.6</ele>
        <time>2021-12-17T07:40:39Z</time>
      </trkpt>
      <trkpt lat="45.29317" lon="6.21083">
        <ele>1288.2</ele>
        <time>2021-12-17T07:40:42Z</time>
      </trkpt>
      <trkpt lat="45.29316" lon="6.21081">
        <ele>1288.6</ele>
        <time>2021-12-17T07:40:43Z</time>
      </trkpt>
      <trkpt lat="45.29317" lon="6.21077">
        <ele>1289.2</ele>
        <time>2021-12-17T07:40:47Z</time>
      </trkpt>
      <trkpt lat="45.29316" lon="6.21073">
        <ele>1289.6</ele>
        <time>2021-12-17T07:40:49Z</time>
      </trkpt>
      <trkpt lat="45.29316" lon="6.21071">
        <ele>1290</ele>
        <time>2021-12-17T07:40:51Z</time>
      </trkpt>
      <trkpt lat="45.29316" lon="6.2107">
        <ele>1290.8</ele>
        <time>2021-12-17T07:40:53Z</time>
      </trkpt>
      <trkpt lat="45.29316" lon="6.21068">
        <ele>1291</ele>
        <time>2021-12-17T07:40:55Z</time>
      </trkpt>
      <trkpt lat="45.29317" lon="6.21064">
        <ele>1292.4</ele>
        <time>2021-12-17T07:40:58Z</time>
      </trkpt>
      <trkpt lat="45.29318" lon="6.21059">
        <ele>1293.2</ele>
        <time>2021-12-17T07:41:01Z</time>
      </trkpt>
      <trkpt lat="45.29318" lon="6.21057">
        <ele>1293.4</ele>
        <time>2021-12-17T07:41:02Z</time>
      </trkpt>
      <trkpt lat="45.29317" lon="6.21048">
        <ele>1294.6</ele>
        <time>2021-12-17T07:41:08Z</time>
      </trkpt>
      <trkpt lat="45.29315" lon="6.2104">
        <ele>1295.8</ele>
        <time>2021-12-17T07:41:13Z</time>
      </trkpt>
      <trkpt lat="45.29314" lon="6.21036">
        <ele>1296.2</ele>
        <time>2021-12-17T07:41:15Z</time>
      </trkpt>
      <trkpt lat="45.29314" lon="6.21032">
        <ele>1296.8</ele>
        <time>2021-12-17T07:41:17Z</time>
      </trkpt>
      <trkpt lat="45.29315" lon="6.21024">
        <ele>1298</ele>
        <time>2021-12-17T07:41:22Z</time>
      </trkpt>
      <trkpt lat="45.29316" lon="6.21019">
        <ele>1299</ele>
        <time>2021-12-17T07:41:25Z</time>
      </trkpt>
      <trkpt lat="45.29317" lon="6.21013">
        <ele>1299.8</ele>
        <time>2021-12-17T07:41:29Z</time>
      </trkpt>
      <trkpt lat="45.29318" lon="6.21013">
        <ele>1300.2</ele>
        <time>2021-12-17T07:41:30Z</time>
      </trkpt>
      <trkpt lat="45.29317" lon="6.21007">
        <ele>1300.8</ele>
        <time>2021-12-17T07:41:34Z</time>
      </trkpt>
      <trkpt lat="45.29318" lon="6.21005">
        <ele>1301.2</ele>
        <time>2021-12-17T07:41:35Z</time>
      </trkpt>
      <trkpt lat="45.29321" lon="6.21001">
        <ele>1302.4</ele>
        <time>2021-12-17T07:41:39Z</time>
      </trkpt>
      <trkpt lat="45.29322" lon="6.21">
        <ele>1302.6</ele>
        <time>2021-12-17T07:41:40Z</time>
      </trkpt>
      <trkpt lat="45.29323" lon="6.20996">
        <ele>1303.4</ele>
        <time>2021-12-17T07:41:43Z</time>
      </trkpt>
      <trkpt lat="45.29324" lon="6.20992">
        <ele>1304.2</ele>
        <time>2021-12-17T07:41:46Z</time>
      </trkpt>
      <trkpt lat="45.29324" lon="6.20988">
        <ele>1304.6</ele>
        <time>2021-12-17T07:41:49Z</time>
      </trkpt>
      <trkpt lat="45.29326" lon="6.20984">
        <ele>1305.6</ele>
        <time>2021-12-17T07:41:52Z</time>
      </trkpt>
      <trkpt lat="45.29326" lon="6.20983">
        <ele>1305.8</ele>
        <time>2021-12-17T07:41:53Z</time>
      </trkpt>
      <trkpt lat="45.29325" lon="6.20981">
        <ele>1306.6</ele>
        <time>2021-12-17T07:41:56Z</time>
      </trkpt>
      <trkpt lat="45.29323" lon="6.20981">
        <ele>1306.8</ele>
        <time>2021-12-17T07:41:57Z</time>
      </trkpt>
      <trkpt lat="45.29327" lon="6.20977">
        <ele>1307.4</ele>
        <time>2021-12-17T07:42:07Z</time>
      </trkpt>
      <trkpt lat="45.29327" lon="6.20975">
        <ele>1307.6</ele>
        <time>2021-12-17T07:42:09Z</time>
      </trkpt>
      <trkpt lat="45.29328" lon="6.20975">
        <ele>1308.2</ele>
        <time>2021-12-17T07:42:11Z</time>
      </trkpt>
      <trkpt lat="45.29328" lon="6.20975">
        <ele>1308.8</ele>
        <time>2021-12-17T07:42:14Z</time>
      </trkpt>
      <trkpt lat="45.29327" lon="6.20976">
        <ele>1309.2</ele>
        <time>2021-12-17T07:42:16Z</time>
      </trkpt>
      <trkpt lat="45.29327" lon="6.20978">
        <ele>1309.8</ele>
        <time>2021-12-17T07:42:19Z</time>
      </trkpt>
      <trkpt lat="45.29325" lon="6.2098">
        <ele>1311.2</ele>
        <time>2021-12-17T07:42:23Z</time>
      </trkpt>
      <trkpt lat="45.29324" lon="6.2098">
        <ele>1311.4</ele>
        <time>2021-12-17T07:42:24Z</time>
      </trkpt>
      <trkpt lat="45.29324" lon="6.20979">
        <ele>1312.2</ele>
        <time>2021-12-17T07:42:29Z</time>
      </trkpt>
      <trkpt lat="45.29325" lon="6.20978">
        <ele>1313.4</ele>
        <time>2021-12-17T07:42:37Z</time>
      </trkpt>
      <trkpt lat="45.29326" lon="6.20969">
        <ele>1314.4</ele>
        <time>2021-12-17T07:42:41Z</time>
      </trkpt>
      <trkpt lat="45.2933" lon="6.2096">
        <ele>1315</ele>
        <time>2021-12-17T07:42:45Z</time>
      </trkpt>
      <trkpt lat="45.2933" lon="6.20956">
        <ele>1315.6</ele>
        <time>2021-12-17T07:42:48Z</time>
      </trkpt>
      <trkpt lat="45.2933" lon="6.20949">
        <ele>1316.4</ele>
        <time>2021-12-17T07:42:53Z</time>
      </trkpt>
      <trkpt lat="45.29331" lon="6.20949">
        <ele>1316.8</ele>
        <time>2021-12-17T07:42:54Z</time>
      </trkpt>
      <trkpt lat="45.29335" lon="6.20946">
        <ele>1317.8</ele>
        <time>2021-12-17T07:42:58Z</time>
      </trkpt>
      <trkpt lat="45.29336" lon="6.20945">
        <ele>1318</ele>
        <time>2021-12-17T07:42:59Z</time>
      </trkpt>
      <trkpt lat="45.29336" lon="6.2094">
        <ele>1319</ele>
        <time>2021-12-17T07:43:03Z</time>
      </trkpt>
      <trkpt lat="45.29336" lon="6.20939">
        <ele>1319.2</ele>
        <time>2021-12-17T07:43:04Z</time>
      </trkpt>
      <trkpt lat="45.29336" lon="6.20936">
        <ele>1320.4</ele>
        <time>2021-12-17T07:43:09Z</time>
      </trkpt>
      <trkpt lat="45.29339" lon="6.20933">
        <ele>1321.4</ele>
        <time>2021-12-17T07:43:13Z</time>
      </trkpt>
      <trkpt lat="45.29339" lon="6.2093">
        <ele>1322</ele>
        <time>2021-12-17T07:43:15Z</time>
      </trkpt>
      <trkpt lat="45.29338" lon="6.20927">
        <ele>1322.6</ele>
        <time>2021-12-17T07:43:17Z</time>
      </trkpt>
      <trkpt lat="45.29341" lon="6.20923">
        <ele>1323.6</ele>
        <time>2021-12-17T07:43:21Z</time>
      </trkpt>
      <trkpt lat="45.29342" lon="6.20923">
        <ele>1323.6</ele>
        <time>2021-12-17T07:43:22Z</time>
      </trkpt>
      <trkpt lat="45.29342" lon="6.20921">
        <ele>1324</ele>
        <time>2021-12-17T07:43:24Z</time>
      </trkpt>
      <trkpt lat="45.29343" lon="6.2092">
        <ele>1324.2</ele>
        <time>2021-12-17T07:43:25Z</time>
      </trkpt>
      <trkpt lat="45.29344" lon="6.20918">
        <ele>1324.8</ele>
        <time>2021-12-17T07:43:27Z</time>
      </trkpt>
      <trkpt lat="45.29343" lon="6.20917">
        <ele>1324.8</ele>
        <time>2021-12-17T07:43:28Z</time>
      </trkpt>
      <trkpt lat="45.29343" lon="6.20915">
        <ele>1325.2</ele>
        <time>2021-12-17T07:43:30Z</time>
      </trkpt>
      <trkpt lat="45.29343" lon="6.20911">
        <ele>1325.8</ele>
        <time>2021-12-17T07:43:33Z</time>
      </trkpt>
      <trkpt lat="45.29345" lon="6.20907">
        <ele>1326.4</ele>
        <time>2021-12-17T07:43:36Z</time>
      </trkpt>
      <trkpt lat="45.29345" lon="6.20905">
        <ele>1326.8</ele>
        <time>2021-12-17T07:43:38Z</time>
      </trkpt>
      <trkpt lat="45.29345" lon="6.20901">
        <ele>1328</ele>
        <time>2021-12-17T07:43:41Z</time>
      </trkpt>
      <trkpt lat="45.29347" lon="6.20891">
        <ele>1329</ele>
        <time>2021-12-17T07:43:48Z</time>
      </trkpt>
      <trkpt lat="45.29347" lon="6.2089">
        <ele>1329.2</ele>
        <time>2021-12-17T07:43:49Z</time>
      </trkpt>
      <trkpt lat="45.29351" lon="6.20887">
        <ele>1330.4</ele>
        <time>2021-12-17T07:43:54Z</time>
      </trkpt>
      <trkpt lat="45.29353" lon="6.20883">
        <ele>1331.2</ele>
        <time>2021-12-17T07:43:57Z</time>
      </trkpt>
      <trkpt lat="45.29353" lon="6.20882">
        <ele>1331.6</ele>
        <time>2021-12-17T07:43:58Z</time>
      </trkpt>
      <trkpt lat="45.29352" lon="6.20874">
        <ele>1332.6</ele>
        <time>2021-12-17T07:44:03Z</time>
      </trkpt>
      <trkpt lat="45.29352" lon="6.20872">
        <ele>1333</ele>
        <time>2021-12-17T07:44:04Z</time>
      </trkpt>
      <trkpt lat="45.29352" lon="6.20868">
        <ele>1333.8</ele>
        <time>2021-12-17T07:44:07Z</time>
      </trkpt>
      <trkpt lat="45.29353" lon="6.20865">
        <ele>1334.6</ele>
        <time>2021-12-17T07:44:10Z</time>
      </trkpt>
      <trkpt lat="45.29353" lon="6.20864">
        <ele>1334.8</ele>
        <time>2021-12-17T07:44:11Z</time>
      </trkpt>
      <trkpt lat="45.29354" lon="6.20861">
        <ele>1335.6</ele>
        <time>2021-12-17T07:44:14Z</time>
      </trkpt>
      <trkpt lat="45.29354" lon="6.20858">
        <ele>1335.8</ele>
        <time>2021-12-17T07:44:16Z</time>
      </trkpt>
      <trkpt lat="45.29353" lon="6.20853">
        <ele>1336.8</ele>
        <time>2021-12-17T07:44:20Z</time>
      </trkpt>
      <trkpt lat="45.29353" lon="6.20852">
        <ele>1337</ele>
        <time>2021-12-17T07:44:21Z</time>
      </trkpt>
      <trkpt lat="45.29352" lon="6.20849">
        <ele>1338</ele>
        <time>2021-12-17T07:44:25Z</time>
      </trkpt>
      <trkpt lat="45.29352" lon="6.20847">
        <ele>1338.4</ele>
        <time>2021-12-17T07:44:27Z</time>
      </trkpt>
      <trkpt lat="45.29355" lon="6.20842">
        <ele>1339.2</ele>
        <time>2021-12-17T07:44:30Z</time>
      </trkpt>
      <trkpt lat="45.29359" lon="6.20837">
        <ele>1340</ele>
        <time>2021-12-17T07:44:34Z</time>
      </trkpt>
      <trkpt lat="45.2936" lon="6.20836">
        <ele>1340.2</ele>
        <time>2021-12-17T07:44:35Z</time>
      </trkpt>
      <trkpt lat="45.29362" lon="6.20832">
        <ele>1341.4</ele>
        <time>2021-12-17T07:44:39Z</time>
      </trkpt>
      <trkpt lat="45.29363" lon="6.20824">
        <ele>1342</ele>
        <time>2021-12-17T07:44:43Z</time>
      </trkpt>
      <trkpt lat="45.29365" lon="6.20821">
        <ele>1342.4</ele>
        <time>2021-12-17T07:44:46Z</time>
      </trkpt>
      <trkpt lat="45.29367" lon="6.20817">
        <ele>1342.6</ele>
        <time>2021-12-17T07:44:49Z</time>
      </trkpt>
      <trkpt lat="45.29368" lon="6.2081">
        <ele>1343.6</ele>
        <time>2021-12-17T07:44:54Z</time>
      </trkpt>
      <trkpt lat="45.29367" lon="6.20803">
        <ele>1345</ele>
        <time>2021-12-17T07:44:59Z</time>
      </trkpt>
      <trkpt lat="45.29366" lon="6.20801">
        <ele>1345.4</ele>
        <time>2021-12-17T07:45:01Z</time>
      </trkpt>
      <trkpt lat="45.29367" lon="6.20798">
        <ele>1346</ele>
        <time>2021-12-17T07:45:04Z</time>
      </trkpt>
      <trkpt lat="45.29367" lon="6.20797">
        <ele>1346.8</ele>
        <time>2021-12-17T07:45:07Z</time>
      </trkpt>
      <trkpt lat="45.29366" lon="6.20796">
        <ele>1347.2</ele>
        <time>2021-12-17T07:45:08Z</time>
      </trkpt>
      <trkpt lat="45.29365" lon="6.20791">
        <ele>1347.6</ele>
        <time>2021-12-17T07:45:12Z</time>
      </trkpt>
      <trkpt lat="45.29365" lon="6.20785">
        <ele>1348.2</ele>
        <time>2021-12-17T07:45:15Z</time>
      </trkpt>
      <trkpt lat="45.29365" lon="6.20781">
        <ele>1348.8</ele>
        <time>2021-12-17T07:45:18Z</time>
      </trkpt>
      <trkpt lat="45.29365" lon="6.20777">
        <ele>1349.4</ele>
        <time>2021-12-17T07:45:21Z</time>
      </trkpt>
      <trkpt lat="45.29365" lon="6.20776">
        <ele>1349.6</ele>
        <time>2021-12-17T07:45:22Z</time>
      </trkpt>
      <trkpt lat="45.29366" lon="6.20773">
        <ele>1350.4</ele>
        <time>2021-12-17T07:45:25Z</time>
      </trkpt>
      <trkpt lat="45.29366" lon="6.2077">
        <ele>1350.6</ele>
        <time>2021-12-17T07:45:26Z</time>
      </trkpt>
      <trkpt lat="45.29366" lon="6.20767">
        <ele>1350.8</ele>
        <time>2021-12-17T07:45:27Z</time>
      </trkpt>
      <trkpt lat="45.29365" lon="6.20764">
        <ele>1351.4</ele>
        <time>2021-12-17T07:45:31Z</time>
      </trkpt>
      <trkpt lat="45.29364" lon="6.20763">
        <ele>1351.6</ele>
        <time>2021-12-17T07:45:32Z</time>
      </trkpt>
      <trkpt lat="45.29362" lon="6.20757">
        <ele>1352.6</ele>
        <time>2021-12-17T07:45:37Z</time>
      </trkpt>
      <trkpt lat="45.29361" lon="6.20754">
        <ele>1352.8</ele>
        <time>2021-12-17T07:45:39Z</time>
      </trkpt>
      <trkpt lat="45.29361" lon="6.20747">
        <ele>1353.6</ele>
        <time>2021-12-17T07:45:43Z</time>
      </trkpt>
      <trkpt lat="45.29361" lon="6.20746">
        <ele>1354</ele>
        <time>2021-12-17T07:45:44Z</time>
      </trkpt>
      <trkpt lat="45.2936" lon="6.20741">
        <ele>1354.8</ele>
        <time>2021-12-17T07:45:48Z</time>
      </trkpt>
      <trkpt lat="45.29359" lon="6.20739">
        <ele>1355</ele>
        <time>2021-12-17T07:45:50Z</time>
      </trkpt>
      <trkpt lat="45.29358" lon="6.20735">
        <ele>1355.8</ele>
        <time>2021-12-17T07:45:53Z</time>
      </trkpt>
      <trkpt lat="45.29359" lon="6.20732">
        <ele>1356.2</ele>
        <time>2021-12-17T07:45:56Z</time>
      </trkpt>
      <trkpt lat="45.29358" lon="6.20727">
        <ele>1356.8</ele>
        <time>2021-12-17T07:46:00Z</time>
      </trkpt>
      <trkpt lat="45.29357" lon="6.20724">
        <ele>1357.2</ele>
        <time>2021-12-17T07:46:02Z</time>
      </trkpt>
      <trkpt lat="45.29356" lon="6.20716">
        <ele>1357.8</ele>
        <time>2021-12-17T07:46:07Z</time>
      </trkpt>
      <trkpt lat="45.29356" lon="6.20714">
        <ele>1358</ele>
        <time>2021-12-17T07:46:08Z</time>
      </trkpt>
      <trkpt lat="45.29356" lon="6.20702">
        <ele>1358.2</ele>
        <time>2021-12-17T07:46:15Z</time>
      </trkpt>
      <trkpt lat="45.29356" lon="6.207">
        <ele>1358.4</ele>
        <time>2021-12-17T07:46:16Z</time>
      </trkpt>
      <trkpt lat="45.29356" lon="6.20691">
        <ele>1358.6</ele>
        <time>2021-12-17T07:46:20Z</time>
      </trkpt>
      <trkpt lat="45.29355" lon="6.20687">
        <ele>1358.8</ele>
        <time>2021-12-17T07:46:22Z</time>
      </trkpt>
      <trkpt lat="45.29356" lon="6.20685">
        <ele>1358.8</ele>
        <time>2021-12-17T07:46:23Z</time>
      </trkpt>
      <trkpt lat="45.29356" lon="6.20683">
        <ele>1358.8</ele>
        <time>2021-12-17T07:46:24Z</time>
      </trkpt>
      <trkpt lat="45.29356" lon="6.2068">
        <ele>1358.8</ele>
        <time>2021-12-17T07:46:26Z</time>
      </trkpt>
      <trkpt lat="45.29358" lon="6.20677">
        <ele>1359</ele>
        <time>2021-12-17T07:46:28Z</time>
      </trkpt>
      <trkpt lat="45.29359" lon="6.20668">
        <ele>1359.4</ele>
        <time>2021-12-17T07:46:34Z</time>
      </trkpt>
      <trkpt lat="45.2936" lon="6.20666">
        <ele>1359.4</ele>
        <time>2021-12-17T07:46:35Z</time>
      </trkpt>
      <trkpt lat="45.29363" lon="6.20653">
        <ele>1359.4</ele>
        <time>2021-12-17T07:46:41Z</time>
      </trkpt>
      <trkpt lat="45.29364" lon="6.20651">
        <ele>1359.4</ele>
        <time>2021-12-17T07:46:42Z</time>
      </trkpt>
      <trkpt lat="45.29365" lon="6.20647">
        <ele>1359.4</ele>
        <time>2021-12-17T07:46:44Z</time>
      </trkpt>
      <trkpt lat="45.29366" lon="6.20638">
        <ele>1359.6</ele>
        <time>2021-12-17T07:46:48Z</time>
      </trkpt>
      <trkpt lat="45.29367" lon="6.20636">
        <ele>1360</ele>
        <time>2021-12-17T07:46:50Z</time>
      </trkpt>
      <trkpt lat="45.29367" lon="6.20634">
        <ele>1360.2</ele>
        <time>2021-12-17T07:46:51Z</time>
      </trkpt>
      <trkpt lat="45.29367" lon="6.2063">
        <ele>1360.6</ele>
        <time>2021-12-17T07:46:54Z</time>
      </trkpt>
      <trkpt lat="45.29368" lon="6.20629">
        <ele>1360.8</ele>
        <time>2021-12-17T07:46:55Z</time>
      </trkpt>
      <trkpt lat="45.29368" lon="6.20627">
        <ele>1361.2</ele>
        <time>2021-12-17T07:46:56Z</time>
      </trkpt>
      <trkpt lat="45.29369" lon="6.2062">
        <ele>1362.2</ele>
        <time>2021-12-17T07:47:01Z</time>
      </trkpt>
      <trkpt lat="45.2937" lon="6.2061">
        <ele>1363.4</ele>
        <time>2021-12-17T07:47:07Z</time>
      </trkpt>
      <trkpt lat="45.29371" lon="6.20609">
        <ele>1363.6</ele>
        <time>2021-12-17T07:47:08Z</time>
      </trkpt>
      <trkpt lat="45.29373" lon="6.20606">
        <ele>1364</ele>
        <time>2021-12-17T07:47:11Z</time>
      </trkpt>
      <trkpt lat="45.29374" lon="6.20603">
        <ele>1364.4</ele>
        <time>2021-12-17T07:47:13Z</time>
      </trkpt>
      <trkpt lat="45.29374" lon="6.20602">
        <ele>1364.4</ele>
        <time>2021-12-17T07:47:14Z</time>
      </trkpt>
      <trkpt lat="45.29375" lon="6.20601">
        <ele>1364.4</ele>
        <time>2021-12-17T07:47:15Z</time>
      </trkpt>
      <trkpt lat="45.29379" lon="6.20598">
        <ele>1364.4</ele>
        <time>2021-12-17T07:47:18Z</time>
      </trkpt>
      <trkpt lat="45.29379" lon="6.20597">
        <ele>1364.8</ele>
        <time>2021-12-17T07:47:19Z</time>
      </trkpt>
      <trkpt lat="45.2938" lon="6.20594">
        <ele>1365.4</ele>
        <time>2021-12-17T07:47:22Z</time>
      </trkpt>
      <trkpt lat="45.29381" lon="6.2059">
        <ele>1366</ele>
        <time>2021-12-17T07:47:25Z</time>
      </trkpt>
      <trkpt lat="45.29381" lon="6.20585">
        <ele>1366.4</ele>
        <time>2021-12-17T07:47:28Z</time>
      </trkpt>
      <trkpt lat="45.2938" lon="6.20583">
        <ele>1366.6</ele>
        <time>2021-12-17T07:47:29Z</time>
      </trkpt>
      <trkpt lat="45.29381" lon="6.20581">
        <ele>1366.8</ele>
        <time>2021-12-17T07:47:31Z</time>
      </trkpt>
      <trkpt lat="45.29381" lon="6.20572">
        <ele>1367.8</ele>
        <time>2021-12-17T07:47:36Z</time>
      </trkpt>
      <trkpt lat="45.29382" lon="6.20564">
        <ele>1368.6</ele>
        <time>2021-12-17T07:47:41Z</time>
      </trkpt>
      <trkpt lat="45.29382" lon="6.20564">
        <ele>1368.8</ele>
        <time>2021-12-17T07:47:42Z</time>
      </trkpt>
      <trkpt lat="45.29383" lon="6.20561">
        <ele>1369.2</ele>
        <time>2021-12-17T07:47:44Z</time>
      </trkpt>
      <trkpt lat="45.29384" lon="6.20557">
        <ele>1369.6</ele>
        <time>2021-12-17T07:47:47Z</time>
      </trkpt>
      <trkpt lat="45.29385" lon="6.20555">
        <ele>1369.8</ele>
        <time>2021-12-17T07:47:49Z</time>
      </trkpt>
      <trkpt lat="45.29385" lon="6.20553">
        <ele>1370</ele>
        <time>2021-12-17T07:47:50Z</time>
      </trkpt>
      <trkpt lat="45.29385" lon="6.2055">
        <ele>1370.4</ele>
        <time>2021-12-17T07:47:52Z</time>
      </trkpt>
      <trkpt lat="45.29385" lon="6.20547">
        <ele>1370.8</ele>
        <time>2021-12-17T07:47:54Z</time>
      </trkpt>
      <trkpt lat="45.29386" lon="6.20545">
        <ele>1371</ele>
        <time>2021-12-17T07:47:55Z</time>
      </trkpt>
      <trkpt lat="45.29389" lon="6.2054">
        <ele>1371.4</ele>
        <time>2021-12-17T07:47:59Z</time>
      </trkpt>
      <trkpt lat="45.2939" lon="6.20539">
        <ele>1371.6</ele>
        <time>2021-12-17T07:48:00Z</time>
      </trkpt>
      <trkpt lat="45.29392" lon="6.20536">
        <ele>1372</ele>
        <time>2021-12-17T07:48:03Z</time>
      </trkpt>
      <trkpt lat="45.29393" lon="6.20534">
        <ele>1372.2</ele>
        <time>2021-12-17T07:48:04Z</time>
      </trkpt>
      <trkpt lat="45.29393" lon="6.20533">
        <ele>1372.4</ele>
        <time>2021-12-17T07:48:05Z</time>
      </trkpt>
      <trkpt lat="45.29394" lon="6.20524">
        <ele>1373.2</ele>
        <time>2021-12-17T07:48:10Z</time>
      </trkpt>
      <trkpt lat="45.29395" lon="6.20523">
        <ele>1373.2</ele>
        <time>2021-12-17T07:48:11Z</time>
      </trkpt>
      <trkpt lat="45.29396" lon="6.20512">
        <ele>1374</ele>
        <time>2021-12-17T07:48:18Z</time>
      </trkpt>
      <trkpt lat="45.29397" lon="6.20509">
        <ele>1374.2</ele>
        <time>2021-12-17T07:48:20Z</time>
      </trkpt>
      <trkpt lat="45.29399" lon="6.20499">
        <ele>1374.8</ele>
        <time>2021-12-17T07:48:26Z</time>
      </trkpt>
      <trkpt lat="45.29399" lon="6.20498">
        <ele>1375</ele>
        <time>2021-12-17T07:48:27Z</time>
      </trkpt>
      <trkpt lat="45.294" lon="6.20493">
        <ele>1375.4</ele>
        <time>2021-12-17T07:48:29Z</time>
      </trkpt>
      <trkpt lat="45.294" lon="6.20488">
        <ele>1375.6</ele>
        <time>2021-12-17T07:48:32Z</time>
      </trkpt>
      <trkpt lat="45.294" lon="6.20484">
        <ele>1376.2</ele>
        <time>2021-12-17T07:48:36Z</time>
      </trkpt>
      <trkpt lat="45.294" lon="6.20483">
        <ele>1376.6</ele>
        <time>2021-12-17T07:48:37Z</time>
      </trkpt>
      <trkpt lat="45.29399" lon="6.2048">
        <ele>1376.8</ele>
        <time>2021-12-17T07:48:39Z</time>
      </trkpt>
      <trkpt lat="45.294" lon="6.20476">
        <ele>1377.6</ele>
        <time>2021-12-17T07:48:44Z</time>
      </trkpt>
      <trkpt lat="45.294" lon="6.20475">
        <ele>1377.6</ele>
        <time>2021-12-17T07:48:45Z</time>
      </trkpt>
      <trkpt lat="45.29401" lon="6.20477">
        <ele>1377.6</ele>
        <time>2021-12-17T07:48:54Z</time>
      </trkpt>
      <trkpt lat="45.29402" lon="6.20475">
        <ele>1377.6</ele>
        <time>2021-12-17T07:49:24Z</time>
      </trkpt>
      <trkpt lat="45.29401" lon="6.20465">
        <ele>1377.6</ele>
        <time>2021-12-17T07:49:35Z</time>
      </trkpt>
      <trkpt lat="45.294" lon="6.20453">
        <ele>1378.6</ele>
        <time>2021-12-17T07:49:41Z</time>
      </trkpt>
      <trkpt lat="45.294" lon="6.20449">
        <ele>1379</ele>
        <time>2021-12-17T07:49:44Z</time>
      </trkpt>
      <trkpt lat="45.294" lon="6.20446">
        <ele>1380</ele>
        <time>2021-12-17T07:49:47Z</time>
      </trkpt>
      <trkpt lat="45.294" lon="6.20442">
        <ele>1380.6</ele>
        <time>2021-12-17T07:49:50Z</time>
      </trkpt>
      <trkpt lat="45.294" lon="6.20437">
        <ele>1381</ele>
        <time>2021-12-17T07:49:53Z</time>
      </trkpt>
      <trkpt lat="45.294" lon="6.20431">
        <ele>1382</ele>
        <time>2021-12-17T07:49:57Z</time>
      </trkpt>
      <trkpt lat="45.294" lon="6.2043">
        <ele>1382.2</ele>
        <time>2021-12-17T07:49:58Z</time>
      </trkpt>
      <trkpt lat="45.29401" lon="6.20423">
        <ele>1383.2</ele>
        <time>2021-12-17T07:50:03Z</time>
      </trkpt>
      <trkpt lat="45.294" lon="6.20416">
        <ele>1384.4</ele>
        <time>2021-12-17T07:50:08Z</time>
      </trkpt>
      <trkpt lat="45.29401" lon="6.20407">
        <ele>1385.4</ele>
        <time>2021-12-17T07:50:14Z</time>
      </trkpt>
      <trkpt lat="45.29402" lon="6.20403">
        <ele>1385.8</ele>
        <time>2021-12-17T07:50:17Z</time>
      </trkpt>
      <trkpt lat="45.29402" lon="6.204">
        <ele>1386</ele>
        <time>2021-12-17T07:50:19Z</time>
      </trkpt>
      <trkpt lat="45.29401" lon="6.20392">
        <ele>1386.2</ele>
        <time>2021-12-17T07:50:25Z</time>
      </trkpt>
      <trkpt lat="45.29395" lon="6.20373">
        <ele>1386.4</ele>
        <time>2021-12-17T07:50:36Z</time>
      </trkpt>
      <trkpt lat="45.29395" lon="6.20372">
        <ele>1386.4</ele>
        <time>2021-12-17T07:50:37Z</time>
      </trkpt>
      <trkpt lat="45.29393" lon="6.20357">
        <ele>1387</ele>
        <time>2021-12-17T07:50:46Z</time>
      </trkpt>
      <trkpt lat="45.29393" lon="6.20353">
        <ele>1387.6</ele>
        <time>2021-12-17T07:50:49Z</time>
      </trkpt>
      <trkpt lat="45.29393" lon="6.20344">
        <ele>1388.6</ele>
        <time>2021-12-17T07:50:54Z</time>
      </trkpt>
      <trkpt lat="45.29394" lon="6.20341">
        <ele>1389.2</ele>
        <time>2021-12-17T07:50:56Z</time>
      </trkpt>
      <trkpt lat="45.29395" lon="6.20337">
        <ele>1389.8</ele>
        <time>2021-12-17T07:50:59Z</time>
      </trkpt>
      <trkpt lat="45.29396" lon="6.20332">
        <ele>1390.4</ele>
        <time>2021-12-17T07:51:03Z</time>
      </trkpt>
      <trkpt lat="45.29396" lon="6.20325">
        <ele>1390.8</ele>
        <time>2021-12-17T07:51:07Z</time>
      </trkpt>
      <trkpt lat="45.29397" lon="6.20321">
        <ele>1391.4</ele>
        <time>2021-12-17T07:51:10Z</time>
      </trkpt>
      <trkpt lat="45.29398" lon="6.20317">
        <ele>1392</ele>
        <time>2021-12-17T07:51:13Z</time>
      </trkpt>
      <trkpt lat="45.29399" lon="6.20309">
        <ele>1392.4</ele>
        <time>2021-12-17T07:51:18Z</time>
      </trkpt>
      <trkpt lat="45.294" lon="6.20302">
        <ele>1393</ele>
        <time>2021-12-17T07:51:23Z</time>
      </trkpt>
      <trkpt lat="45.294" lon="6.20298">
        <ele>1393.8</ele>
        <time>2021-12-17T07:51:26Z</time>
      </trkpt>
      <trkpt lat="45.29402" lon="6.20294">
        <ele>1394</ele>
        <time>2021-12-17T07:51:29Z</time>
      </trkpt>
      <trkpt lat="45.29404" lon="6.20287">
        <ele>1394.8</ele>
        <time>2021-12-17T07:51:34Z</time>
      </trkpt>
      <trkpt lat="45.29405" lon="6.20287">
        <ele>1394.8</ele>
        <time>2021-12-17T07:51:35Z</time>
      </trkpt>
      <trkpt lat="45.29406" lon="6.20283">
        <ele>1395.2</ele>
        <time>2021-12-17T07:51:38Z</time>
      </trkpt>
      <trkpt lat="45.29406" lon="6.20281">
        <ele>1395.4</ele>
        <time>2021-12-17T07:51:39Z</time>
      </trkpt>
      <trkpt lat="45.29406" lon="6.20278">
        <ele>1395.8</ele>
        <time>2021-12-17T07:51:41Z</time>
      </trkpt>
      <trkpt lat="45.29407" lon="6.20274">
        <ele>1396.4</ele>
        <time>2021-12-17T07:51:44Z</time>
      </trkpt>
      <trkpt lat="45.29409" lon="6.20267">
        <ele>1397.4</ele>
        <time>2021-12-17T07:51:49Z</time>
      </trkpt>
      <trkpt lat="45.2941" lon="6.20267">
        <ele>1397.8</ele>
        <time>2021-12-17T07:51:50Z</time>
      </trkpt>
      <trkpt lat="45.29411" lon="6.20262">
        <ele>1398.4</ele>
        <time>2021-12-17T07:51:54Z</time>
      </trkpt>
      <trkpt lat="45.29413" lon="6.20258">
        <ele>1399.6</ele>
        <time>2021-12-17T07:51:58Z</time>
      </trkpt>
      <trkpt lat="45.29413" lon="6.20257">
        <ele>1400</ele>
        <time>2021-12-17T07:51:59Z</time>
      </trkpt>
      <trkpt lat="45.29414" lon="6.20254">
        <ele>1400.8</ele>
        <time>2021-12-17T07:52:02Z</time>
      </trkpt>
      <trkpt lat="45.29415" lon="6.2025">
        <ele>1401.4</ele>
        <time>2021-12-17T07:52:05Z</time>
      </trkpt>
      <trkpt lat="45.29415" lon="6.2025">
        <ele>1401.8</ele>
        <time>2021-12-17T07:52:06Z</time>
      </trkpt>
      <trkpt lat="45.29415" lon="6.20248">
        <ele>1402</ele>
        <time>2021-12-17T07:52:07Z</time>
      </trkpt>
      <trkpt lat="45.29417" lon="6.20243">
        <ele>1403.2</ele>
        <time>2021-12-17T07:52:12Z</time>
      </trkpt>
      <trkpt lat="45.29419" lon="6.20237">
        <ele>1404.2</ele>
        <time>2021-12-17T07:52:17Z</time>
      </trkpt>
      <trkpt lat="45.29421" lon="6.2023">
        <ele>1405.2</ele>
        <time>2021-12-17T07:52:21Z</time>
      </trkpt>
      <trkpt lat="45.29422" lon="6.2023">
        <ele>1405.4</ele>
        <time>2021-12-17T07:52:22Z</time>
      </trkpt>
      <trkpt lat="45.29424" lon="6.20223">
        <ele>1406.6</ele>
        <time>2021-12-17T07:52:27Z</time>
      </trkpt>
      <trkpt lat="45.29425" lon="6.20223">
        <ele>1407.2</ele>
        <time>2021-12-17T07:52:29Z</time>
      </trkpt>
      <trkpt lat="45.29426" lon="6.20219">
        <ele>1407.8</ele>
        <time>2021-12-17T07:52:31Z</time>
      </trkpt>
      <trkpt lat="45.29427" lon="6.20214">
        <ele>1408.6</ele>
        <time>2021-12-17T07:52:35Z</time>
      </trkpt>
      <trkpt lat="45.29427" lon="6.20212">
        <ele>1409</ele>
        <time>2021-12-17T07:52:37Z</time>
      </trkpt>
      <trkpt lat="45.29428" lon="6.20208">
        <ele>1409.8</ele>
        <time>2021-12-17T07:52:40Z</time>
      </trkpt>
      <trkpt lat="45.29428" lon="6.20206">
        <ele>1410.2</ele>
        <time>2021-12-17T07:52:42Z</time>
      </trkpt>
      <trkpt lat="45.29429" lon="6.20199">
        <ele>1411.4</ele>
        <time>2021-12-17T07:52:47Z</time>
      </trkpt>
      <trkpt lat="45.2943" lon="6.20195">
        <ele>1412</ele>
        <time>2021-12-17T07:52:51Z</time>
      </trkpt>
      <trkpt lat="45.29431" lon="6.20191">
        <ele>1412.6</ele>
        <time>2021-12-17T07:52:54Z</time>
      </trkpt>
      <trkpt lat="45.29431" lon="6.20185">
        <ele>1413.6</ele>
        <time>2021-12-17T07:52:58Z</time>
      </trkpt>
      <trkpt lat="45.29431" lon="6.20183">
        <ele>1413.6</ele>
        <time>2021-12-17T07:52:59Z</time>
      </trkpt>
      <trkpt lat="45.29433" lon="6.20176">
        <ele>1414.8</ele>
        <time>2021-12-17T07:53:04Z</time>
      </trkpt>
      <trkpt lat="45.29434" lon="6.20171">
        <ele>1415.8</ele>
        <time>2021-12-17T07:53:09Z</time>
      </trkpt>
      <trkpt lat="45.29435" lon="6.20167">
        <ele>1416.4</ele>
        <time>2021-12-17T07:53:12Z</time>
      </trkpt>
      <trkpt lat="45.29435" lon="6.20164">
        <ele>1417</ele>
        <time>2021-12-17T07:53:14Z</time>
      </trkpt>
      <trkpt lat="45.29436" lon="6.20157">
        <ele>1418</ele>
        <time>2021-12-17T07:53:20Z</time>
      </trkpt>
      <trkpt lat="45.29436" lon="6.20156">
        <ele>1418.2</ele>
        <time>2021-12-17T07:53:21Z</time>
      </trkpt>
      <trkpt lat="45.29438" lon="6.20152">
        <ele>1419</ele>
        <time>2021-12-17T07:53:24Z</time>
      </trkpt>
      <trkpt lat="45.2944" lon="6.20149">
        <ele>1419.4</ele>
        <time>2021-12-17T07:53:27Z</time>
      </trkpt>
      <trkpt lat="45.2944" lon="6.20148">
        <ele>1419.4</ele>
        <time>2021-12-17T07:53:28Z</time>
      </trkpt>
      <trkpt lat="45.29441" lon="6.20146">
        <ele>1420</ele>
        <time>2021-12-17T07:53:30Z</time>
      </trkpt>
      <trkpt lat="45.29443" lon="6.20141">
        <ele>1421</ele>
        <time>2021-12-17T07:53:34Z</time>
      </trkpt>
      <trkpt lat="45.29444" lon="6.2014">
        <ele>1421.2</ele>
        <time>2021-12-17T07:53:35Z</time>
      </trkpt>
      <trkpt lat="45.29446" lon="6.20134">
        <ele>1422.2</ele>
        <time>2021-12-17T07:53:40Z</time>
      </trkpt>
      <trkpt lat="45.29446" lon="6.20133">
        <ele>1422.2</ele>
        <time>2021-12-17T07:53:41Z</time>
      </trkpt>
      <trkpt lat="45.29446" lon="6.20131">
        <ele>1422.4</ele>
        <time>2021-12-17T07:53:42Z</time>
      </trkpt>
      <trkpt lat="45.29446" lon="6.20125">
        <ele>1423.2</ele>
        <time>2021-12-17T07:53:48Z</time>
      </trkpt>
      <trkpt lat="45.29446" lon="6.20122">
        <ele>1424.6</ele>
        <time>2021-12-17T07:53:52Z</time>
      </trkpt>
      <trkpt lat="45.29446" lon="6.20119">
        <ele>1425.6</ele>
        <time>2021-12-17T07:53:55Z</time>
      </trkpt>
      <trkpt lat="45.29446" lon="6.20118">
        <ele>1426</ele>
        <time>2021-12-17T07:53:56Z</time>
      </trkpt>
      <trkpt lat="45.29445" lon="6.20113">
        <ele>1427.4</ele>
        <time>2021-12-17T07:54:01Z</time>
      </trkpt>
      <trkpt lat="45.29445" lon="6.20112">
        <ele>1427.6</ele>
        <time>2021-12-17T07:54:02Z</time>
      </trkpt>
      <trkpt lat="45.29444" lon="6.2011">
        <ele>1428.4</ele>
        <time>2021-12-17T07:54:05Z</time>
      </trkpt>
      <trkpt lat="45.29445" lon="6.20104">
        <ele>1429.2</ele>
        <time>2021-12-17T07:54:09Z</time>
      </trkpt>
      <trkpt lat="45.29445" lon="6.20102">
        <ele>1429.6</ele>
        <time>2021-12-17T07:54:11Z</time>
      </trkpt>
      <trkpt lat="45.29446" lon="6.20097">
        <ele>1430.6</ele>
        <time>2021-12-17T07:54:15Z</time>
      </trkpt>
      <trkpt lat="45.29445" lon="6.20095">
        <ele>1431</ele>
        <time>2021-12-17T07:54:17Z</time>
      </trkpt>
      <trkpt lat="45.29445" lon="6.2009">
        <ele>1431.8</ele>
        <time>2021-12-17T07:54:21Z</time>
      </trkpt>
      <trkpt lat="45.29445" lon="6.20084">
        <ele>1432.4</ele>
        <time>2021-12-17T07:54:25Z</time>
      </trkpt>
      <trkpt lat="45.29446" lon="6.20082">
        <ele>1433</ele>
        <time>2021-12-17T07:54:27Z</time>
      </trkpt>
      <trkpt lat="45.29446" lon="6.20079">
        <ele>1434</ele>
        <time>2021-12-17T07:54:31Z</time>
      </trkpt>
      <trkpt lat="45.29446" lon="6.20078">
        <ele>1434.4</ele>
        <time>2021-12-17T07:54:32Z</time>
      </trkpt>
      <trkpt lat="45.29446" lon="6.20073">
        <ele>1435.6</ele>
        <time>2021-12-17T07:54:37Z</time>
      </trkpt>
      <trkpt lat="45.29449" lon="6.20066">
        <ele>1436.6</ele>
        <time>2021-12-17T07:54:43Z</time>
      </trkpt>
      <trkpt lat="45.2945" lon="6.20064">
        <ele>1437</ele>
        <time>2021-12-17T07:54:45Z</time>
      </trkpt>
      <trkpt lat="45.29454" lon="6.20058">
        <ele>1437.8</ele>
        <time>2021-12-17T07:54:51Z</time>
      </trkpt>
      <trkpt lat="45.29454" lon="6.20057">
        <ele>1438</ele>
        <time>2021-12-17T07:54:52Z</time>
      </trkpt>
      <trkpt lat="45.29456" lon="6.20051">
        <ele>1439</ele>
        <time>2021-12-17T07:54:57Z</time>
      </trkpt>
      <trkpt lat="45.29456" lon="6.20048">
        <ele>1439.4</ele>
        <time>2021-12-17T07:54:59Z</time>
      </trkpt>
      <trkpt lat="45.29457" lon="6.20045">
        <ele>1440</ele>
        <time>2021-12-17T07:55:02Z</time>
      </trkpt>
      <trkpt lat="45.29458" lon="6.2004">
        <ele>1440.8</ele>
        <time>2021-12-17T07:55:08Z</time>
      </trkpt>
      <trkpt lat="45.29457" lon="6.20038">
        <ele>1441.2</ele>
        <time>2021-12-17T07:55:10Z</time>
      </trkpt>
      <trkpt lat="45.29456" lon="6.20033">
        <ele>1442.6</ele>
        <time>2021-12-17T07:55:15Z</time>
      </trkpt>
      <trkpt lat="45.29457" lon="6.20026">
        <ele>1443.8</ele>
        <time>2021-12-17T07:55:20Z</time>
      </trkpt>
      <trkpt lat="45.29457" lon="6.2002">
        <ele>1444.8</ele>
        <time>2021-12-17T07:55:25Z</time>
      </trkpt>
      <trkpt lat="45.29457" lon="6.20018">
        <ele>1445.2</ele>
        <time>2021-12-17T07:55:26Z</time>
      </trkpt>
      <trkpt lat="45.29457" lon="6.20015">
        <ele>1446</ele>
        <time>2021-12-17T07:55:29Z</time>
      </trkpt>
      <trkpt lat="45.29457" lon="6.2001">
        <ele>1447</ele>
        <time>2021-12-17T07:55:34Z</time>
      </trkpt>
      <trkpt lat="45.29457" lon="6.20009">
        <ele>1447.2</ele>
        <time>2021-12-17T07:55:35Z</time>
      </trkpt>
      <trkpt lat="45.29457" lon="6.20006">
        <ele>1448.2</ele>
        <time>2021-12-17T07:55:38Z</time>
      </trkpt>
      <trkpt lat="45.29457" lon="6.2">
        <ele>1449.4</ele>
        <time>2021-12-17T07:55:43Z</time>
      </trkpt>
      <trkpt lat="45.29455" lon="6.1999">
        <ele>1450.6</ele>
        <time>2021-12-17T07:55:50Z</time>
      </trkpt>
      <trkpt lat="45.29456" lon="6.19981">
        <ele>1451.6</ele>
        <time>2021-12-17T07:55:56Z</time>
      </trkpt>
      <trkpt lat="45.29457" lon="6.1998">
        <ele>1451.8</ele>
        <time>2021-12-17T07:55:57Z</time>
      </trkpt>
      <trkpt lat="45.29459" lon="6.19974">
        <ele>1452.8</ele>
        <time>2021-12-17T07:56:02Z</time>
      </trkpt>
      <trkpt lat="45.29459" lon="6.19971">
        <ele>1453.8</ele>
        <time>2021-12-17T07:56:05Z</time>
      </trkpt>
      <trkpt lat="45.29461" lon="6.19965">
        <ele>1454.8</ele>
        <time>2021-12-17T07:56:10Z</time>
      </trkpt>
      <trkpt lat="45.29461" lon="6.19964">
        <ele>1455</ele>
        <time>2021-12-17T07:56:11Z</time>
      </trkpt>
      <trkpt lat="45.29462" lon="6.19959">
        <ele>1456.2</ele>
        <time>2021-12-17T07:56:16Z</time>
      </trkpt>
      <trkpt lat="45.29463" lon="6.19957">
        <ele>1456.8</ele>
        <time>2021-12-17T07:56:18Z</time>
      </trkpt>
      <trkpt lat="45.29463" lon="6.19954">
        <ele>1457.4</ele>
        <time>2021-12-17T07:56:20Z</time>
      </trkpt>
      <trkpt lat="45.29464" lon="6.19949">
        <ele>1458.6</ele>
        <time>2021-12-17T07:56:25Z</time>
      </trkpt>
      <trkpt lat="45.29464" lon="6.19949">
        <ele>1459</ele>
        <time>2021-12-17T07:56:26Z</time>
      </trkpt>
      <trkpt lat="45.29464" lon="6.19946">
        <ele>1460</ele>
        <time>2021-12-17T07:56:29Z</time>
      </trkpt>
      <trkpt lat="45.29465" lon="6.19937">
        <ele>1461</ele>
        <time>2021-12-17T07:56:36Z</time>
      </trkpt>
      <trkpt lat="45.29465" lon="6.1993">
        <ele>1462</ele>
        <time>2021-12-17T07:56:41Z</time>
      </trkpt>
      <trkpt lat="45.29466" lon="6.19923">
        <ele>1462.8</ele>
        <time>2021-12-17T07:56:45Z</time>
      </trkpt>
      <trkpt lat="45.29467" lon="6.19918">
        <ele>1463</ele>
        <time>2021-12-17T07:56:48Z</time>
      </trkpt>
      <trkpt lat="45.29469" lon="6.19911">
        <ele>1463.4</ele>
        <time>2021-12-17T07:56:52Z</time>
      </trkpt>
      <trkpt lat="45.2947" lon="6.19906">
        <ele>1463.6</ele>
        <time>2021-12-17T07:56:55Z</time>
      </trkpt>
      <trkpt lat="45.29474" lon="6.19898">
        <ele>1463.6</ele>
        <time>2021-12-17T07:57:00Z</time>
      </trkpt>
      <trkpt lat="45.29479" lon="6.19884">
        <ele>1464.2</ele>
        <time>2021-12-17T07:57:09Z</time>
      </trkpt>
      <trkpt lat="45.29485" lon="6.19874">
        <ele>1464.8</ele>
        <time>2021-12-17T07:57:17Z</time>
      </trkpt>
      <trkpt lat="45.29491" lon="6.19862">
        <ele>1465.2</ele>
        <time>2021-12-17T07:57:25Z</time>
      </trkpt>
      <trkpt lat="45.29492" lon="6.19862">
        <ele>1465.2</ele>
        <time>2021-12-17T07:57:26Z</time>
      </trkpt>
      <trkpt lat="45.29496" lon="6.19856">
        <ele>1465.4</ele>
        <time>2021-12-17T07:57:31Z</time>
      </trkpt>
      <trkpt lat="45.29498" lon="6.19854">
        <ele>1465.6</ele>
        <time>2021-12-17T07:57:33Z</time>
      </trkpt>
      <trkpt lat="45.29501" lon="6.19848">
        <ele>1466.2</ele>
        <time>2021-12-17T07:57:38Z</time>
      </trkpt>
      <trkpt lat="45.29502" lon="6.19843">
        <ele>1466.4</ele>
        <time>2021-12-17T07:57:41Z</time>
      </trkpt>
      <trkpt lat="45.29509" lon="6.19829">
        <ele>1467</ele>
        <time>2021-12-17T07:57:51Z</time>
      </trkpt>
      <trkpt lat="45.29511" lon="6.19826">
        <ele>1467.2</ele>
        <time>2021-12-17T07:57:54Z</time>
      </trkpt>
      <trkpt lat="45.29513" lon="6.19817">
        <ele>1467.6</ele>
        <time>2021-12-17T07:57:58Z</time>
      </trkpt>
      <trkpt lat="45.29517" lon="6.1981">
        <ele>1468.2</ele>
        <time>2021-12-17T07:58:03Z</time>
      </trkpt>
      <trkpt lat="45.29518" lon="6.19809">
        <ele>1468.2</ele>
        <time>2021-12-17T07:58:04Z</time>
      </trkpt>
      <trkpt lat="45.29519" lon="6.19808">
        <ele>1468.4</ele>
        <time>2021-12-17T07:58:05Z</time>
      </trkpt>
      <trkpt lat="45.2952" lon="6.19804">
        <ele>1469</ele>
        <time>2021-12-17T07:58:08Z</time>
      </trkpt>
      <trkpt lat="45.29521" lon="6.19802">
        <ele>1469.2</ele>
        <time>2021-12-17T07:58:09Z</time>
      </trkpt>
      <trkpt lat="45.29522" lon="6.19799">
        <ele>1469.4</ele>
        <time>2021-12-17T07:58:11Z</time>
      </trkpt>
      <trkpt lat="45.29528" lon="6.19794">
        <ele>1469.8</ele>
        <time>2021-12-17T07:58:17Z</time>
      </trkpt>
      <trkpt lat="45.29532" lon="6.19791">
        <ele>1470.6</ele>
        <time>2021-12-17T07:58:22Z</time>
      </trkpt>
      <trkpt lat="45.29533" lon="6.1979">
        <ele>1470.6</ele>
        <time>2021-12-17T07:58:23Z</time>
      </trkpt>
      <trkpt lat="45.29536" lon="6.19781">
        <ele>1471.6</ele>
        <time>2021-12-17T07:58:29Z</time>
      </trkpt>
      <trkpt lat="45.29536" lon="6.19778">
        <ele>1472</ele>
        <time>2021-12-17T07:58:31Z</time>
      </trkpt>
      <trkpt lat="45.29539" lon="6.19773">
        <ele>1472.8</ele>
        <time>2021-12-17T07:58:36Z</time>
      </trkpt>
      <trkpt lat="45.2954" lon="6.1977">
        <ele>1473.2</ele>
        <time>2021-12-17T07:58:38Z</time>
      </trkpt>
      <trkpt lat="45.29543" lon="6.19765">
        <ele>1474</ele>
        <time>2021-12-17T07:58:42Z</time>
      </trkpt>
      <trkpt lat="45.29544" lon="6.19764">
        <ele>1474.4</ele>
        <time>2021-12-17T07:58:44Z</time>
      </trkpt>
      <trkpt lat="45.29546" lon="6.19761">
        <ele>1475.2</ele>
        <time>2021-12-17T07:58:47Z</time>
      </trkpt>
      <trkpt lat="45.29546" lon="6.1976">
        <ele>1475.4</ele>
        <time>2021-12-17T07:58:48Z</time>
      </trkpt>
      <trkpt lat="45.29547" lon="6.19757">
        <ele>1476.4</ele>
        <time>2021-12-17T07:58:52Z</time>
      </trkpt>
      <trkpt lat="45.29547" lon="6.19755">
        <ele>1476.6</ele>
        <time>2021-12-17T07:58:53Z</time>
      </trkpt>
      <trkpt lat="45.29547" lon="6.19752">
        <ele>1477.4</ele>
        <time>2021-12-17T07:58:57Z</time>
      </trkpt>
      <trkpt lat="45.29548" lon="6.19749">
        <ele>1478.4</ele>
        <time>2021-12-17T07:59:00Z</time>
      </trkpt>
      <trkpt lat="45.29548" lon="6.19748">
        <ele>1478.6</ele>
        <time>2021-12-17T07:59:01Z</time>
      </trkpt>
      <trkpt lat="45.29551" lon="6.19743">
        <ele>1479.4</ele>
        <time>2021-12-17T07:59:06Z</time>
      </trkpt>
      <trkpt lat="45.29553" lon="6.19741">
        <ele>1479.6</ele>
        <time>2021-12-17T07:59:09Z</time>
      </trkpt>
      <trkpt lat="45.29559" lon="6.19732">
        <ele>1480.4</ele>
        <time>2021-12-17T07:59:16Z</time>
      </trkpt>
      <trkpt lat="45.29559" lon="6.19731">
        <ele>1480.8</ele>
        <time>2021-12-17T07:59:17Z</time>
      </trkpt>
      <trkpt lat="45.29562" lon="6.19725">
        <ele>1481.4</ele>
        <time>2021-12-17T07:59:22Z</time>
      </trkpt>
      <trkpt lat="45.29562" lon="6.19724">
        <ele>1481.4</ele>
        <time>2021-12-17T07:59:23Z</time>
      </trkpt>
      <trkpt lat="45.29563" lon="6.19722">
        <ele>1482</ele>
        <time>2021-12-17T07:59:25Z</time>
      </trkpt>
      <trkpt lat="45.29563" lon="6.19716">
        <ele>1483.2</ele>
        <time>2021-12-17T07:59:30Z</time>
      </trkpt>
      <trkpt lat="45.29563" lon="6.19715">
        <ele>1483.4</ele>
        <time>2021-12-17T07:59:31Z</time>
      </trkpt>
      <trkpt lat="45.29564" lon="6.19711">
        <ele>1484.2</ele>
        <time>2021-12-17T07:59:34Z</time>
      </trkpt>
      <trkpt lat="45.29565" lon="6.19706">
        <ele>1485.4</ele>
        <time>2021-12-17T07:59:38Z</time>
      </trkpt>
      <trkpt lat="45.29566" lon="6.19705">
        <ele>1485.4</ele>
        <time>2021-12-17T07:59:39Z</time>
      </trkpt>
      <trkpt lat="45.29567" lon="6.19699">
        <ele>1486.6</ele>
        <time>2021-12-17T07:59:45Z</time>
      </trkpt>
      <trkpt lat="45.29569" lon="6.19694">
        <ele>1487.4</ele>
        <time>2021-12-17T07:59:49Z</time>
      </trkpt>
      <trkpt lat="45.29569" lon="6.19693">
        <ele>1487.6</ele>
        <time>2021-12-17T07:59:50Z</time>
      </trkpt>
      <trkpt lat="45.2957" lon="6.19691">
        <ele>1488.2</ele>
        <time>2021-12-17T07:59:52Z</time>
      </trkpt>
      <trkpt lat="45.2957" lon="6.19689">
        <ele>1488.8</ele>
        <time>2021-12-17T07:59:54Z</time>
      </trkpt>
      <trkpt lat="45.29571" lon="6.19684">
        <ele>1489.4</ele>
        <time>2021-12-17T07:59:57Z</time>
      </trkpt>
      <trkpt lat="45.29571" lon="6.19682">
        <ele>1489.8</ele>
        <time>2021-12-17T07:59:59Z</time>
      </trkpt>
      <trkpt lat="45.29572" lon="6.19676">
        <ele>1491</ele>
        <time>2021-12-17T08:00:04Z</time>
      </trkpt>
      <trkpt lat="45.29571" lon="6.19674">
        <ele>1491.4</ele>
        <time>2021-12-17T08:00:06Z</time>
      </trkpt>
      <trkpt lat="45.29571" lon="6.19671">
        <ele>1492</ele>
        <time>2021-12-17T08:00:09Z</time>
      </trkpt>
      <trkpt lat="45.29572" lon="6.19667">
        <ele>1492.8</ele>
        <time>2021-12-17T08:00:12Z</time>
      </trkpt>
      <trkpt lat="45.29572" lon="6.19666">
        <ele>1493.4</ele>
        <time>2021-12-17T08:00:13Z</time>
      </trkpt>
      <trkpt lat="45.29572" lon="6.19662">
        <ele>1494.4</ele>
        <time>2021-12-17T08:00:17Z</time>
      </trkpt>
      <trkpt lat="45.29573" lon="6.1966">
        <ele>1494.8</ele>
        <time>2021-12-17T08:00:19Z</time>
      </trkpt>
      <trkpt lat="45.29573" lon="6.19655">
        <ele>1495.4</ele>
        <time>2021-12-17T08:00:23Z</time>
      </trkpt>
      <trkpt lat="45.29575" lon="6.19652">
        <ele>1495.6</ele>
        <time>2021-12-17T08:00:27Z</time>
      </trkpt>
      <trkpt lat="45.29584" lon="6.19642">
        <ele>1495.4</ele>
        <time>2021-12-17T08:00:35Z</time>
      </trkpt>
      <trkpt lat="45.29585" lon="6.1964">
        <ele>1495.4</ele>
        <time>2021-12-17T08:00:37Z</time>
      </trkpt>
      <trkpt lat="45.29588" lon="6.19636">
        <ele>1495.4</ele>
        <time>2021-12-17T08:00:40Z</time>
      </trkpt>
      <trkpt lat="45.29589" lon="6.19635">
        <ele>1495.4</ele>
        <time>2021-12-17T08:00:41Z</time>
      </trkpt>
      <trkpt lat="45.29594" lon="6.19629">
        <ele>1496.2</ele>
        <time>2021-12-17T08:00:46Z</time>
      </trkpt>
      <trkpt lat="45.29595" lon="6.19627">
        <ele>1496.4</ele>
        <time>2021-12-17T08:00:48Z</time>
      </trkpt>
      <trkpt lat="45.29596" lon="6.19626">
        <ele>1496.6</ele>
        <time>2021-12-17T08:00:49Z</time>
      </trkpt>
      <trkpt lat="45.29602" lon="6.19619">
        <ele>1497.4</ele>
        <time>2021-12-17T08:00:56Z</time>
      </trkpt>
      <trkpt lat="45.29604" lon="6.19616">
        <ele>1497.6</ele>
        <time>2021-12-17T08:00:59Z</time>
      </trkpt>
      <trkpt lat="45.29609" lon="6.1961">
        <ele>1498</ele>
        <time>2021-12-17T08:01:04Z</time>
      </trkpt>
      <trkpt lat="45.29617" lon="6.19597">
        <ele>1498.6</ele>
        <time>2021-12-17T08:01:13Z</time>
      </trkpt>
      <trkpt lat="45.29618" lon="6.19595">
        <ele>1498.6</ele>
        <time>2021-12-17T08:01:14Z</time>
      </trkpt>
      <trkpt lat="45.29624" lon="6.19588">
        <ele>1499.4</ele>
        <time>2021-12-17T08:01:20Z</time>
      </trkpt>
      <trkpt lat="45.29625" lon="6.19586">
        <ele>1499.4</ele>
        <time>2021-12-17T08:01:21Z</time>
      </trkpt>
      <trkpt lat="45.29628" lon="6.19582">
        <ele>1499.6</ele>
        <time>2021-12-17T08:01:25Z</time>
      </trkpt>
      <trkpt lat="45.29634" lon="6.19575">
        <ele>1500.4</ele>
        <time>2021-12-17T08:01:31Z</time>
      </trkpt>
      <trkpt lat="45.29637" lon="6.19572">
        <ele>1500.8</ele>
        <time>2021-12-17T08:01:34Z</time>
      </trkpt>
      <trkpt lat="45.29639" lon="6.19569">
        <ele>1501.4</ele>
        <time>2021-12-17T08:01:37Z</time>
      </trkpt>
      <trkpt lat="45.2964" lon="6.19566">
        <ele>1502</ele>
        <time>2021-12-17T08:01:39Z</time>
      </trkpt>
      <trkpt lat="45.29645" lon="6.19557">
        <ele>1503</ele>
        <time>2021-12-17T08:01:46Z</time>
      </trkpt>
      <trkpt lat="45.29646" lon="6.19556">
        <ele>1503</ele>
        <time>2021-12-17T08:01:47Z</time>
      </trkpt>
      <trkpt lat="45.29652" lon="6.1955">
        <ele>1503.4</ele>
        <time>2021-12-17T08:01:52Z</time>
      </trkpt>
      <trkpt lat="45.29656" lon="6.19542">
        <ele>1504</ele>
        <time>2021-12-17T08:01:58Z</time>
      </trkpt>
      <trkpt lat="45.29661" lon="6.19529">
        <ele>1505</ele>
        <time>2021-12-17T08:02:06Z</time>
      </trkpt>
      <trkpt lat="45.29662" lon="6.19528">
        <ele>1505</ele>
        <time>2021-12-17T08:02:07Z</time>
      </trkpt>
      <trkpt lat="45.29666" lon="6.19517">
        <ele>1505.8</ele>
        <time>2021-12-17T08:02:14Z</time>
      </trkpt>
      <trkpt lat="45.29668" lon="6.19513">
        <ele>1506.2</ele>
        <time>2021-12-17T08:02:17Z</time>
      </trkpt>
      <trkpt lat="45.29671" lon="6.19506">
        <ele>1506.8</ele>
        <time>2021-12-17T08:02:22Z</time>
      </trkpt>
      <trkpt lat="45.29673" lon="6.19499">
        <ele>1507.2</ele>
        <time>2021-12-17T08:02:26Z</time>
      </trkpt>
      <trkpt lat="45.29679" lon="6.19493">
        <ele>1507.6</ele>
        <time>2021-12-17T08:02:31Z</time>
      </trkpt>
      <trkpt lat="45.29683" lon="6.19486">
        <ele>1508.2</ele>
        <time>2021-12-17T08:02:36Z</time>
      </trkpt>
      <trkpt lat="45.29684" lon="6.19486">
        <ele>1508.2</ele>
        <time>2021-12-17T08:02:37Z</time>
      </trkpt>
      <trkpt lat="45.29688" lon="6.19478">
        <ele>1509</ele>
        <time>2021-12-17T08:02:43Z</time>
      </trkpt>
      <trkpt lat="45.29689" lon="6.19477">
        <ele>1509</ele>
        <time>2021-12-17T08:02:44Z</time>
      </trkpt>
      <trkpt lat="45.29689" lon="6.19477">
        <ele>1509.2</ele>
        <time>2021-12-17T08:02:45Z</time>
      </trkpt>
      <trkpt lat="45.29693" lon="6.19469">
        <ele>1510.4</ele>
        <time>2021-12-17T08:02:51Z</time>
      </trkpt>
      <trkpt lat="45.29695" lon="6.19463">
        <ele>1511.4</ele>
        <time>2021-12-17T08:02:55Z</time>
      </trkpt>
      <trkpt lat="45.29696" lon="6.19462">
        <ele>1511.6</ele>
        <time>2021-12-17T08:02:56Z</time>
      </trkpt>
      <trkpt lat="45.29702" lon="6.19455">
        <ele>1512.4</ele>
        <time>2021-12-17T08:03:03Z</time>
      </trkpt>
      <trkpt lat="45.29712" lon="6.19442">
        <ele>1512.2</ele>
        <time>2021-12-17T08:03:13Z</time>
      </trkpt>
      <trkpt lat="45.29716" lon="6.19436">
        <ele>1512.6</ele>
        <time>2021-12-17T08:03:17Z</time>
      </trkpt>
      <trkpt lat="45.2972" lon="6.19427">
        <ele>1513.2</ele>
        <time>2021-12-17T08:03:23Z</time>
      </trkpt>
      <trkpt lat="45.29723" lon="6.19424">
        <ele>1513.8</ele>
        <time>2021-12-17T08:03:27Z</time>
      </trkpt>
      <trkpt lat="45.29724" lon="6.19423">
        <ele>1513.8</ele>
        <time>2021-12-17T08:03:28Z</time>
      </trkpt>
      <trkpt lat="45.29726" lon="6.1942">
        <ele>1514</ele>
        <time>2021-12-17T08:03:30Z</time>
      </trkpt>
      <trkpt lat="45.29735" lon="6.19412">
        <ele>1514.6</ele>
        <time>2021-12-17T08:03:39Z</time>
      </trkpt>
      <trkpt lat="45.29745" lon="6.19404">
        <ele>1514.6</ele>
        <time>2021-12-17T08:03:45Z</time>
      </trkpt>
      <trkpt lat="45.29751" lon="6.19396">
        <ele>1514.6</ele>
        <time>2021-12-17T08:03:52Z</time>
      </trkpt>
      <trkpt lat="45.29752" lon="6.19395">
        <ele>1514.8</ele>
        <time>2021-12-17T08:03:53Z</time>
      </trkpt>
      <trkpt lat="45.29756" lon="6.1939">
        <ele>1515</ele>
        <time>2021-12-17T08:03:58Z</time>
      </trkpt>
      <trkpt lat="45.29757" lon="6.19388">
        <ele>1515.4</ele>
        <time>2021-12-17T08:04:00Z</time>
      </trkpt>
      <trkpt lat="45.29758" lon="6.19387">
        <ele>1515.6</ele>
        <time>2021-12-17T08:04:01Z</time>
      </trkpt>
      <trkpt lat="45.29759" lon="6.19384">
        <ele>1515.8</ele>
        <time>2021-12-17T08:04:03Z</time>
      </trkpt>
      <trkpt lat="45.29761" lon="6.19381">
        <ele>1516.2</ele>
        <time>2021-12-17T08:04:06Z</time>
      </trkpt>
      <trkpt lat="45.29764" lon="6.19377">
        <ele>1516.4</ele>
        <time>2021-12-17T08:04:09Z</time>
      </trkpt>
      <trkpt lat="45.29768" lon="6.19372">
        <ele>1516.4</ele>
        <time>2021-12-17T08:04:13Z</time>
      </trkpt>
      <trkpt lat="45.29772" lon="6.19368">
        <ele>1516.8</ele>
        <time>2021-12-17T08:04:17Z</time>
      </trkpt>
      <trkpt lat="45.29772" lon="6.19366">
        <ele>1517</ele>
        <time>2021-12-17T08:04:18Z</time>
      </trkpt>
      <trkpt lat="45.29773" lon="6.19365">
        <ele>1517</ele>
        <time>2021-12-17T08:04:19Z</time>
      </trkpt>
      <trkpt lat="45.29775" lon="6.19358">
        <ele>1518</ele>
        <time>2021-12-17T08:04:24Z</time>
      </trkpt>
      <trkpt lat="45.29779" lon="6.19354">
        <ele>1518.2</ele>
        <time>2021-12-17T08:04:27Z</time>
      </trkpt>
      <trkpt lat="45.29782" lon="6.19344">
        <ele>1518.2</ele>
        <time>2021-12-17T08:04:33Z</time>
      </trkpt>
      <trkpt lat="45.29783" lon="6.19343">
        <ele>1518.2</ele>
        <time>2021-12-17T08:04:34Z</time>
      </trkpt>
      <trkpt lat="45.29788" lon="6.19335">
        <ele>1518.6</ele>
        <time>2021-12-17T08:04:40Z</time>
      </trkpt>
      <trkpt lat="45.29796" lon="6.19319">
        <ele>1519.2</ele>
        <time>2021-12-17T08:04:51Z</time>
      </trkpt>
      <trkpt lat="45.29803" lon="6.19311">
        <ele>1519.6</ele>
        <time>2021-12-17T08:04:59Z</time>
      </trkpt>
      <trkpt lat="45.2981" lon="6.19294">
        <ele>1519.6</ele>
        <time>2021-12-17T08:05:09Z</time>
      </trkpt>
      <trkpt lat="45.29811" lon="6.19291">
        <ele>1519.8</ele>
        <time>2021-12-17T08:05:11Z</time>
      </trkpt>
      <trkpt lat="45.29814" lon="6.19287">
        <ele>1520.2</ele>
        <time>2021-12-17T08:05:15Z</time>
      </trkpt>
      <trkpt lat="45.29814" lon="6.19285">
        <ele>1520.2</ele>
        <time>2021-12-17T08:05:16Z</time>
      </trkpt>
      <trkpt lat="45.29817" lon="6.19277">
        <ele>1520.8</ele>
        <time>2021-12-17T08:05:22Z</time>
      </trkpt>
      <trkpt lat="45.29817" lon="6.19276">
        <ele>1521</ele>
        <time>2021-12-17T08:05:23Z</time>
      </trkpt>
      <trkpt lat="45.29817" lon="6.19275">
        <ele>1521.2</ele>
        <time>2021-12-17T08:05:24Z</time>
      </trkpt>
      <trkpt lat="45.29817" lon="6.19263">
        <ele>1522.2</ele>
        <time>2021-12-17T08:05:31Z</time>
      </trkpt>
      <trkpt lat="45.29817" lon="6.19256">
        <ele>1523.4</ele>
        <time>2021-12-17T08:05:36Z</time>
      </trkpt>
      <trkpt lat="45.29817" lon="6.19253">
        <ele>1524.2</ele>
        <time>2021-12-17T08:05:39Z</time>
      </trkpt>
      <trkpt lat="45.29817" lon="6.19252">
        <ele>1524.6</ele>
        <time>2021-12-17T08:05:40Z</time>
      </trkpt>
      <trkpt lat="45.29817" lon="6.19248">
        <ele>1525.8</ele>
        <time>2021-12-17T08:05:44Z</time>
      </trkpt>
      <trkpt lat="45.29816" lon="6.19246">
        <ele>1526.2</ele>
        <time>2021-12-17T08:05:46Z</time>
      </trkpt>
      <trkpt lat="45.29815" lon="6.19241">
        <ele>1527</ele>
        <time>2021-12-17T08:05:51Z</time>
      </trkpt>
      <trkpt lat="45.29816" lon="6.19236">
        <ele>1527.8</ele>
        <time>2021-12-17T08:05:56Z</time>
      </trkpt>
      <trkpt lat="45.29815" lon="6.19233">
        <ele>1528.2</ele>
        <time>2021-12-17T08:05:58Z</time>
      </trkpt>
      <trkpt lat="45.29815" lon="6.1923">
        <ele>1528.2</ele>
        <time>2021-12-17T08:06:00Z</time>
      </trkpt>
      <trkpt lat="45.29815" lon="6.19224">
        <ele>1529.4</ele>
        <time>2021-12-17T08:06:04Z</time>
      </trkpt>
      <trkpt lat="45.29815" lon="6.19222">
        <ele>1530</ele>
        <time>2021-12-17T08:06:06Z</time>
      </trkpt>
      <trkpt lat="45.29815" lon="6.19217">
        <ele>1530.4</ele>
        <time>2021-12-17T08:06:09Z</time>
      </trkpt>
      <trkpt lat="45.29818" lon="6.1921">
        <ele>1531.4</ele>
        <time>2021-12-17T08:06:15Z</time>
      </trkpt>
      <trkpt lat="45.29819" lon="6.19208">
        <ele>1531.6</ele>
        <time>2021-12-17T08:06:16Z</time>
      </trkpt>
      <trkpt lat="45.29824" lon="6.19196">
        <ele>1532.4</ele>
        <time>2021-12-17T08:06:25Z</time>
      </trkpt>
      <trkpt lat="45.29824" lon="6.19195">
        <ele>1532.6</ele>
        <time>2021-12-17T08:06:26Z</time>
      </trkpt>
      <trkpt lat="45.29826" lon="6.1919">
        <ele>1533.4</ele>
        <time>2021-12-17T08:06:31Z</time>
      </trkpt>
      <trkpt lat="45.29827" lon="6.19188">
        <ele>1533.6</ele>
        <time>2021-12-17T08:06:33Z</time>
      </trkpt>
      <trkpt lat="45.29828" lon="6.19185">
        <ele>1534.8</ele>
        <time>2021-12-17T08:06:36Z</time>
      </trkpt>
      <trkpt lat="45.29828" lon="6.19182">
        <ele>1535.6</ele>
        <time>2021-12-17T08:06:40Z</time>
      </trkpt>
      <trkpt lat="45.29828" lon="6.19182">
        <ele>1536.2</ele>
        <time>2021-12-17T08:06:41Z</time>
      </trkpt>
      <trkpt lat="45.29828" lon="6.19175">
        <ele>1537.2</ele>
        <time>2021-12-17T08:06:46Z</time>
      </trkpt>
      <trkpt lat="45.2983" lon="6.19169">
        <ele>1538.4</ele>
        <time>2021-12-17T08:06:52Z</time>
      </trkpt>
      <trkpt lat="45.2983" lon="6.19166">
        <ele>1539.2</ele>
        <time>2021-12-17T08:06:55Z</time>
      </trkpt>
      <trkpt lat="45.2983" lon="6.19163">
        <ele>1539.6</ele>
        <time>2021-12-17T08:06:57Z</time>
      </trkpt>
      <trkpt lat="45.29831" lon="6.19157">
        <ele>1540.8</ele>
        <time>2021-12-17T08:07:03Z</time>
      </trkpt>
      <trkpt lat="45.29831" lon="6.19156">
        <ele>1541</ele>
        <time>2021-12-17T08:07:04Z</time>
      </trkpt>
      <trkpt lat="45.29831" lon="6.19153">
        <ele>1542</ele>
        <time>2021-12-17T08:07:07Z</time>
      </trkpt>
      <trkpt lat="45.29834" lon="6.19145">
        <ele>1542.4</ele>
        <time>2021-12-17T08:07:13Z</time>
      </trkpt>
      <trkpt lat="45.29834" lon="6.19142">
        <ele>1542.4</ele>
        <time>2021-12-17T08:07:15Z</time>
      </trkpt>
      <trkpt lat="45.29835" lon="6.19139">
        <ele>1543.2</ele>
        <time>2021-12-17T08:07:18Z</time>
      </trkpt>
      <trkpt lat="45.29836" lon="6.19138">
        <ele>1543.4</ele>
        <time>2021-12-17T08:07:19Z</time>
      </trkpt>
      <trkpt lat="45.29835" lon="6.19131">
        <ele>1544.2</ele>
        <time>2021-12-17T08:07:25Z</time>
      </trkpt>
      <trkpt lat="45.29835" lon="6.19127">
        <ele>1544.6</ele>
        <time>2021-12-17T08:07:28Z</time>
      </trkpt>
      <trkpt lat="45.29836" lon="6.19122">
        <ele>1545.4</ele>
        <time>2021-12-17T08:07:33Z</time>
      </trkpt>
      <trkpt lat="45.29836" lon="6.19119">
        <ele>1545.8</ele>
        <time>2021-12-17T08:07:35Z</time>
      </trkpt>
      <trkpt lat="45.29838" lon="6.19115">
        <ele>1546.4</ele>
        <time>2021-12-17T08:07:38Z</time>
      </trkpt>
      <trkpt lat="45.29839" lon="6.19111">
        <ele>1547</ele>
        <time>2021-12-17T08:07:42Z</time>
      </trkpt>
      <trkpt lat="45.2984" lon="6.19105">
        <ele>1547.6</ele>
        <time>2021-12-17T08:07:46Z</time>
      </trkpt>
      <trkpt lat="45.29841" lon="6.19099">
        <ele>1548.4</ele>
        <time>2021-12-17T08:07:51Z</time>
      </trkpt>
      <trkpt lat="45.29841" lon="6.19098">
        <ele>1548.6</ele>
        <time>2021-12-17T08:07:52Z</time>
      </trkpt>
      <trkpt lat="45.29842" lon="6.19093">
        <ele>1549.6</ele>
        <time>2021-12-17T08:07:57Z</time>
      </trkpt>
      <trkpt lat="45.29843" lon="6.19091">
        <ele>1550</ele>
        <time>2021-12-17T08:07:59Z</time>
      </trkpt>
      <trkpt lat="45.29842" lon="6.19084">
        <ele>1550.6</ele>
        <time>2021-12-17T08:08:03Z</time>
      </trkpt>
      <trkpt lat="45.29843" lon="6.19079">
        <ele>1551.4</ele>
        <time>2021-12-17T08:08:07Z</time>
      </trkpt>
      <trkpt lat="45.29845" lon="6.19075">
        <ele>1551.8</ele>
        <time>2021-12-17T08:08:10Z</time>
      </trkpt>
      <trkpt lat="45.29845" lon="6.1907">
        <ele>1552.6</ele>
        <time>2021-12-17T08:08:14Z</time>
      </trkpt>
      <trkpt lat="45.29846" lon="6.19069">
        <ele>1552.8</ele>
        <time>2021-12-17T08:08:15Z</time>
      </trkpt>
      <trkpt lat="45.29846" lon="6.19064">
        <ele>1554</ele>
        <time>2021-12-17T08:08:19Z</time>
      </trkpt>
      <trkpt lat="45.29846" lon="6.19061">
        <ele>1554.4</ele>
        <time>2021-12-17T08:08:21Z</time>
      </trkpt>
      <trkpt lat="45.29846" lon="6.19059">
        <ele>1554.4</ele>
        <time>2021-12-17T08:08:22Z</time>
      </trkpt>
      <trkpt lat="45.29846" lon="6.19056">
        <ele>1555</ele>
        <time>2021-12-17T08:08:24Z</time>
      </trkpt>
      <trkpt lat="45.29847" lon="6.19053">
        <ele>1555.2</ele>
        <time>2021-12-17T08:08:26Z</time>
      </trkpt>
      <trkpt lat="45.29847" lon="6.19049">
        <ele>1555.6</ele>
        <time>2021-12-17T08:08:29Z</time>
      </trkpt>
      <trkpt lat="45.29848" lon="6.19047">
        <ele>1556</ele>
        <time>2021-12-17T08:08:31Z</time>
      </trkpt>
      <trkpt lat="45.29851" lon="6.19044">
        <ele>1556.2</ele>
        <time>2021-12-17T08:08:35Z</time>
      </trkpt>
      <trkpt lat="45.29858" lon="6.19038">
        <ele>1556.6</ele>
        <time>2021-12-17T08:08:43Z</time>
      </trkpt>
      <trkpt lat="45.29863" lon="6.19027">
        <ele>1557</ele>
        <time>2021-12-17T08:08:52Z</time>
      </trkpt>
      <trkpt lat="45.29864" lon="6.19026">
        <ele>1557</ele>
        <time>2021-12-17T08:08:53Z</time>
      </trkpt>
      <trkpt lat="45.29871" lon="6.1902">
        <ele>1556.8</ele>
        <time>2021-12-17T08:08:59Z</time>
      </trkpt>
      <trkpt lat="45.29874" lon="6.19012">
        <ele>1557</ele>
        <time>2021-12-17T08:09:06Z</time>
      </trkpt>
      <trkpt lat="45.2988" lon="6.19001">
        <ele>1557.6</ele>
        <time>2021-12-17T08:09:15Z</time>
      </trkpt>
      <trkpt lat="45.29885" lon="6.18992">
        <ele>1557.8</ele>
        <time>2021-12-17T08:09:22Z</time>
      </trkpt>
      <trkpt lat="45.29887" lon="6.1899">
        <ele>1557.8</ele>
        <time>2021-12-17T08:09:24Z</time>
      </trkpt>
      <trkpt lat="45.29889" lon="6.18987">
        <ele>1557.8</ele>
        <time>2021-12-17T08:09:27Z</time>
      </trkpt>
      <trkpt lat="45.2989" lon="6.18985">
        <ele>1558</ele>
        <time>2021-12-17T08:09:29Z</time>
      </trkpt>
      <trkpt lat="45.2989" lon="6.18984">
        <ele>1557.8</ele>
        <time>2021-12-17T08:09:30Z</time>
      </trkpt>
      <trkpt lat="45.29891" lon="6.18983">
        <ele>1558</ele>
        <time>2021-12-17T08:09:32Z</time>
      </trkpt>
      <trkpt lat="45.29894" lon="6.1898">
        <ele>1558.4</ele>
        <time>2021-12-17T08:09:36Z</time>
      </trkpt>
      <trkpt lat="45.29902" lon="6.18972">
        <ele>1558</ele>
        <time>2021-12-17T08:09:44Z</time>
      </trkpt>
      <trkpt lat="45.29906" lon="6.18964">
        <ele>1557.8</ele>
        <time>2021-12-17T08:09:51Z</time>
      </trkpt>
      <trkpt lat="45.2991" lon="6.18953">
        <ele>1559.2</ele>
        <time>2021-12-17T08:09:59Z</time>
      </trkpt>
      <trkpt lat="45.29908" lon="6.18948">
        <ele>1560.2</ele>
        <time>2021-12-17T08:10:04Z</time>
      </trkpt>
      <trkpt lat="45.29908" lon="6.18947">
        <ele>1560.6</ele>
        <time>2021-12-17T08:10:05Z</time>
      </trkpt>
      <trkpt lat="45.29908" lon="6.18943">
        <ele>1561.4</ele>
        <time>2021-12-17T08:10:08Z</time>
      </trkpt>
      <trkpt lat="45.29911" lon="6.18938">
        <ele>1561.4</ele>
        <time>2021-12-17T08:10:12Z</time>
      </trkpt>
      <trkpt lat="45.29914" lon="6.18932">
        <ele>1562.4</ele>
        <time>2021-12-17T08:10:18Z</time>
      </trkpt>
      <trkpt lat="45.29914" lon="6.18929">
        <ele>1563</ele>
        <time>2021-12-17T08:10:21Z</time>
      </trkpt>
      <trkpt lat="45.29915" lon="6.18922">
        <ele>1563.6</ele>
        <time>2021-12-17T08:10:25Z</time>
      </trkpt>
      <trkpt lat="45.29916" lon="6.1892">
        <ele>1564</ele>
        <time>2021-12-17T08:10:27Z</time>
      </trkpt>
      <trkpt lat="45.29917" lon="6.18918">
        <ele>1564.6</ele>
        <time>2021-12-17T08:10:32Z</time>
      </trkpt>
      <trkpt lat="45.29917" lon="6.18917">
        <ele>1564.6</ele>
        <time>2021-12-17T08:10:34Z</time>
      </trkpt>
      <trkpt lat="45.29918" lon="6.18918">
        <ele>1565.8</ele>
        <time>2021-12-17T08:10:57Z</time>
      </trkpt>
      <trkpt lat="45.29918" lon="6.18917">
        <ele>1566.8</ele>
        <time>2021-12-17T08:11:01Z</time>
      </trkpt>
      <trkpt lat="45.29918" lon="6.18916">
        <ele>1568</ele>
        <time>2021-12-17T08:11:04Z</time>
      </trkpt>
      <trkpt lat="45.2992" lon="6.18906">
        <ele>1568.8</ele>
        <time>2021-12-17T08:11:08Z</time>
      </trkpt>
      <trkpt lat="45.2992" lon="6.18901">
        <ele>1569.2</ele>
        <time>2021-12-17T08:11:10Z</time>
      </trkpt>
      <trkpt lat="45.29921" lon="6.18891">
        <ele>1570.4</ele>
        <time>2021-12-17T08:11:16Z</time>
      </trkpt>
      <trkpt lat="45.29921" lon="6.1889">
        <ele>1570.6</ele>
        <time>2021-12-17T08:11:17Z</time>
      </trkpt>
      <trkpt lat="45.2992" lon="6.18886">
        <ele>1571.6</ele>
        <time>2021-12-17T08:11:24Z</time>
      </trkpt>
      <trkpt lat="45.29919" lon="6.18884">
        <ele>1572.6</ele>
        <time>2021-12-17T08:11:28Z</time>
      </trkpt>
      <trkpt lat="45.29918" lon="6.18884">
        <ele>1573</ele>
        <time>2021-12-17T08:11:30Z</time>
      </trkpt>
      <trkpt lat="45.29916" lon="6.18884">
        <ele>1573.8</ele>
        <time>2021-12-17T08:11:33Z</time>
      </trkpt>
      <trkpt lat="45.29916" lon="6.18884">
        <ele>1574</ele>
        <time>2021-12-17T08:11:34Z</time>
      </trkpt>
      <trkpt lat="45.29914" lon="6.18884">
        <ele>1574.4</ele>
        <time>2021-12-17T08:11:36Z</time>
      </trkpt>
      <trkpt lat="45.29913" lon="6.18885">
        <ele>1575</ele>
        <time>2021-12-17T08:11:38Z</time>
      </trkpt>
      <trkpt lat="45.29911" lon="6.18884">
        <ele>1576</ele>
        <time>2021-12-17T08:11:43Z</time>
      </trkpt>
      <trkpt lat="45.29911" lon="6.18883">
        <ele>1576.2</ele>
        <time>2021-12-17T08:11:44Z</time>
      </trkpt>
      <trkpt lat="45.29915" lon="6.18873">
        <ele>1577.2</ele>
        <time>2021-12-17T08:11:52Z</time>
      </trkpt>
      <trkpt lat="45.29917" lon="6.18867">
        <ele>1578.2</ele>
        <time>2021-12-17T08:11:57Z</time>
      </trkpt>
      <trkpt lat="45.29919" lon="6.18864">
        <ele>1578.6</ele>
        <time>2021-12-17T08:11:59Z</time>
      </trkpt>
      <trkpt lat="45.29922" lon="6.1886">
        <ele>1579.6</ele>
        <time>2021-12-17T08:12:04Z</time>
      </trkpt>
      <trkpt lat="45.29922" lon="6.18858">
        <ele>1580</ele>
        <time>2021-12-17T08:12:06Z</time>
      </trkpt>
      <trkpt lat="45.29924" lon="6.18854">
        <ele>1580.6</ele>
        <time>2021-12-17T08:12:10Z</time>
      </trkpt>
      <trkpt lat="45.29926" lon="6.1885">
        <ele>1581.2</ele>
        <time>2021-12-17T08:12:14Z</time>
      </trkpt>
      <trkpt lat="45.29927" lon="6.18847">
        <ele>1581.8</ele>
        <time>2021-12-17T08:12:17Z</time>
      </trkpt>
      <trkpt lat="45.29928" lon="6.18846">
        <ele>1582</ele>
        <time>2021-12-17T08:12:18Z</time>
      </trkpt>
      <trkpt lat="45.29928" lon="6.18842">
        <ele>1582.8</ele>
        <time>2021-12-17T08:12:21Z</time>
      </trkpt>
      <trkpt lat="45.29929" lon="6.18841">
        <ele>1583</ele>
        <time>2021-12-17T08:12:22Z</time>
      </trkpt>
      <trkpt lat="45.29931" lon="6.18835">
        <ele>1584.2</ele>
        <time>2021-12-17T08:12:27Z</time>
      </trkpt>
      <trkpt lat="45.29932" lon="6.1883">
        <ele>1585</ele>
        <time>2021-12-17T08:12:31Z</time>
      </trkpt>
      <trkpt lat="45.29933" lon="6.1883">
        <ele>1585.2</ele>
        <time>2021-12-17T08:12:32Z</time>
      </trkpt>
      <trkpt lat="45.29936" lon="6.18825">
        <ele>1586.4</ele>
        <time>2021-12-17T08:12:38Z</time>
      </trkpt>
      <trkpt lat="45.29936" lon="6.18824">
        <ele>1587</ele>
        <time>2021-12-17T08:12:40Z</time>
      </trkpt>
      <trkpt lat="45.29937" lon="6.18823">
        <ele>1587.4</ele>
        <time>2021-12-17T08:12:41Z</time>
      </trkpt>
      <trkpt lat="45.29938" lon="6.18819">
        <ele>1588.6</ele>
        <time>2021-12-17T08:12:45Z</time>
      </trkpt>
      <trkpt lat="45.29939" lon="6.18817">
        <ele>1588.8</ele>
        <time>2021-12-17T08:12:47Z</time>
      </trkpt>
      <trkpt lat="45.2994" lon="6.18814">
        <ele>1589.6</ele>
        <time>2021-12-17T08:12:51Z</time>
      </trkpt>
      <trkpt lat="45.29942" lon="6.18813">
        <ele>1590.6</ele>
        <time>2021-12-17T08:12:54Z</time>
      </trkpt>
      <trkpt lat="45.29942" lon="6.18812">
        <ele>1590.8</ele>
        <time>2021-12-17T08:12:55Z</time>
      </trkpt>
      <trkpt lat="45.29943" lon="6.18808">
        <ele>1592</ele>
        <time>2021-12-17T08:13:00Z</time>
      </trkpt>
      <trkpt lat="45.29944" lon="6.18807">
        <ele>1592.4</ele>
        <time>2021-12-17T08:13:01Z</time>
      </trkpt>
      <trkpt lat="45.29945" lon="6.18805">
        <ele>1593.2</ele>
        <time>2021-12-17T08:13:04Z</time>
      </trkpt>
      <trkpt lat="45.29947" lon="6.18801">
        <ele>1594.2</ele>
        <time>2021-12-17T08:13:09Z</time>
      </trkpt>
      <trkpt lat="45.29948" lon="6.18798">
        <ele>1595.2</ele>
        <time>2021-12-17T08:13:13Z</time>
      </trkpt>
      <trkpt lat="45.29949" lon="6.18794">
        <ele>1595.6</ele>
        <time>2021-12-17T08:13:17Z</time>
      </trkpt>
      <trkpt lat="45.2995" lon="6.18793">
        <ele>1596.4</ele>
        <time>2021-12-17T08:13:19Z</time>
      </trkpt>
      <trkpt lat="45.29951" lon="6.1879">
        <ele>1597.6</ele>
        <time>2021-12-17T08:13:23Z</time>
      </trkpt>
      <trkpt lat="45.29952" lon="6.18788">
        <ele>1598.4</ele>
        <time>2021-12-17T08:13:27Z</time>
      </trkpt>
      <trkpt lat="45.29952" lon="6.18786">
        <ele>1598.6</ele>
        <time>2021-12-17T08:13:28Z</time>
      </trkpt>
      <trkpt lat="45.29953" lon="6.18783">
        <ele>1599.8</ele>
        <time>2021-12-17T08:13:32Z</time>
      </trkpt>
      <trkpt lat="45.29953" lon="6.18781">
        <ele>1600.4</ele>
        <time>2021-12-17T08:13:34Z</time>
      </trkpt>
      <trkpt lat="45.29954" lon="6.18779">
        <ele>1600.8</ele>
        <time>2021-12-17T08:13:37Z</time>
      </trkpt>
      <trkpt lat="45.29955" lon="6.18775">
        <ele>1601.6</ele>
        <time>2021-12-17T08:13:43Z</time>
      </trkpt>
      <trkpt lat="45.29955" lon="6.18773">
        <ele>1601.8</ele>
        <time>2021-12-17T08:13:45Z</time>
      </trkpt>
      <trkpt lat="45.29956" lon="6.18772">
        <ele>1602.6</ele>
        <time>2021-12-17T08:13:47Z</time>
      </trkpt>
      <trkpt lat="45.29956" lon="6.18771">
        <ele>1603</ele>
        <time>2021-12-17T08:13:48Z</time>
      </trkpt>
      <trkpt lat="45.29957" lon="6.18766">
        <ele>1604.4</ele>
        <time>2021-12-17T08:13:53Z</time>
      </trkpt>
      <trkpt lat="45.29959" lon="6.18764">
        <ele>1604.8</ele>
        <time>2021-12-17T08:13:55Z</time>
      </trkpt>
      <trkpt lat="45.29959" lon="6.18763">
        <ele>1605.2</ele>
        <time>2021-12-17T08:13:56Z</time>
      </trkpt>
      <trkpt lat="45.2996" lon="6.18762">
        <ele>1605.4</ele>
        <time>2021-12-17T08:13:57Z</time>
      </trkpt>
      <trkpt lat="45.29961" lon="6.18757">
        <ele>1606.6</ele>
        <time>2021-12-17T08:14:03Z</time>
      </trkpt>
      <trkpt lat="45.29962" lon="6.18754">
        <ele>1607.6</ele>
        <time>2021-12-17T08:14:06Z</time>
      </trkpt>
      <trkpt lat="45.29964" lon="6.1875">
        <ele>1608.4</ele>
        <time>2021-12-17T08:14:10Z</time>
      </trkpt>
      <trkpt lat="45.29964" lon="6.18747">
        <ele>1608.8</ele>
        <time>2021-12-17T08:14:13Z</time>
      </trkpt>
      <trkpt lat="45.29965" lon="6.18744">
        <ele>1609.8</ele>
        <time>2021-12-17T08:14:16Z</time>
      </trkpt>
      <trkpt lat="45.29966" lon="6.18742">
        <ele>1610.6</ele>
        <time>2021-12-17T08:14:19Z</time>
      </trkpt>
      <trkpt lat="45.29967" lon="6.1874">
        <ele>1610.8</ele>
        <time>2021-12-17T08:14:21Z</time>
      </trkpt>
      <trkpt lat="45.29969" lon="6.18734">
        <ele>1611.8</ele>
        <time>2021-12-17T08:14:27Z</time>
      </trkpt>
      <trkpt lat="45.2997" lon="6.18732">
        <ele>1612.4</ele>
        <time>2021-12-17T08:14:29Z</time>
      </trkpt>
      <trkpt lat="45.2997" lon="6.18731">
        <ele>1613</ele>
        <time>2021-12-17T08:14:30Z</time>
      </trkpt>
      <trkpt lat="45.2997" lon="6.18727">
        <ele>1613.8</ele>
        <time>2021-12-17T08:14:34Z</time>
      </trkpt>
      <trkpt lat="45.2997" lon="6.18726">
        <ele>1614</ele>
        <time>2021-12-17T08:14:35Z</time>
      </trkpt>
      <trkpt lat="45.29971" lon="6.18723">
        <ele>1615.4</ele>
        <time>2021-12-17T08:14:39Z</time>
      </trkpt>
      <trkpt lat="45.29971" lon="6.18721">
        <ele>1616</ele>
        <time>2021-12-17T08:14:41Z</time>
      </trkpt>
      <trkpt lat="45.29971" lon="6.18718">
        <ele>1616.6</ele>
        <time>2021-12-17T08:14:44Z</time>
      </trkpt>
      <trkpt lat="45.29973" lon="6.18714">
        <ele>1617.2</ele>
        <time>2021-12-17T08:14:49Z</time>
      </trkpt>
      <trkpt lat="45.29974" lon="6.18711">
        <ele>1617.6</ele>
        <time>2021-12-17T08:14:51Z</time>
      </trkpt>
      <trkpt lat="45.29974" lon="6.18709">
        <ele>1618.8</ele>
        <time>2021-12-17T08:14:54Z</time>
      </trkpt>
      <trkpt lat="45.29975" lon="6.18706">
        <ele>1619.6</ele>
        <time>2021-12-17T08:14:57Z</time>
      </trkpt>
      <trkpt lat="45.29975" lon="6.18704">
        <ele>1620</ele>
        <time>2021-12-17T08:14:59Z</time>
      </trkpt>
      <trkpt lat="45.29977" lon="6.18699">
        <ele>1621.2</ele>
        <time>2021-12-17T08:15:05Z</time>
      </trkpt>
      <trkpt lat="45.29978" lon="6.18695">
        <ele>1621.6</ele>
        <time>2021-12-17T08:15:08Z</time>
      </trkpt>
      <trkpt lat="45.29979" lon="6.18692">
        <ele>1622.2</ele>
        <time>2021-12-17T08:15:11Z</time>
      </trkpt>
      <trkpt lat="45.29979" lon="6.1869">
        <ele>1623.2</ele>
        <time>2021-12-17T08:15:14Z</time>
      </trkpt>
      <trkpt lat="45.29979" lon="6.18689">
        <ele>1623.4</ele>
        <time>2021-12-17T08:15:15Z</time>
      </trkpt>
      <trkpt lat="45.29981" lon="6.18683">
        <ele>1624.2</ele>
        <time>2021-12-17T08:15:21Z</time>
      </trkpt>
      <trkpt lat="45.29981" lon="6.18681">
        <ele>1624.4</ele>
        <time>2021-12-17T08:15:22Z</time>
      </trkpt>
      <trkpt lat="45.29981" lon="6.18675">
        <ele>1625.6</ele>
        <time>2021-12-17T08:15:26Z</time>
      </trkpt>
      <trkpt lat="45.29982" lon="6.18673">
        <ele>1625.8</ele>
        <time>2021-12-17T08:15:28Z</time>
      </trkpt>
      <trkpt lat="45.29983" lon="6.18666">
        <ele>1626.6</ele>
        <time>2021-12-17T08:15:34Z</time>
      </trkpt>
      <trkpt lat="45.29983" lon="6.18664">
        <ele>1627</ele>
        <time>2021-12-17T08:15:36Z</time>
      </trkpt>
      <trkpt lat="45.29983" lon="6.18662">
        <ele>1628</ele>
        <time>2021-12-17T08:15:39Z</time>
      </trkpt>
      <trkpt lat="45.29984" lon="6.18658">
        <ele>1629</ele>
        <time>2021-12-17T08:15:43Z</time>
      </trkpt>
      <trkpt lat="45.29984" lon="6.18657">
        <ele>1629.4</ele>
        <time>2021-12-17T08:15:44Z</time>
      </trkpt>
      <trkpt lat="45.29985" lon="6.18654">
        <ele>1630</ele>
        <time>2021-12-17T08:15:48Z</time>
      </trkpt>
      <trkpt lat="45.29986" lon="6.18652">
        <ele>1631</ele>
        <time>2021-12-17T08:15:51Z</time>
      </trkpt>
      <trkpt lat="45.29986" lon="6.18651">
        <ele>1631.2</ele>
        <time>2021-12-17T08:15:52Z</time>
      </trkpt>
      <trkpt lat="45.29985" lon="6.18644">
        <ele>1632.2</ele>
        <time>2021-12-17T08:15:59Z</time>
      </trkpt>
      <trkpt lat="45.29985" lon="6.18643">
        <ele>1632.4</ele>
        <time>2021-12-17T08:16:00Z</time>
      </trkpt>
      <trkpt lat="45.29986" lon="6.18641">
        <ele>1633.4</ele>
        <time>2021-12-17T08:16:03Z</time>
      </trkpt>
      <trkpt lat="45.29987" lon="6.18638">
        <ele>1634.6</ele>
        <time>2021-12-17T08:16:07Z</time>
      </trkpt>
      <trkpt lat="45.29988" lon="6.18635">
        <ele>1635.6</ele>
        <time>2021-12-17T08:16:11Z</time>
      </trkpt>
      <trkpt lat="45.29987" lon="6.18629">
        <ele>1636.6</ele>
        <time>2021-12-17T08:16:17Z</time>
      </trkpt>
      <trkpt lat="45.29987" lon="6.18628">
        <ele>1636.8</ele>
        <time>2021-12-17T08:16:18Z</time>
      </trkpt>
      <trkpt lat="45.29987" lon="6.18624">
        <ele>1637.8</ele>
        <time>2021-12-17T08:16:21Z</time>
      </trkpt>
      <trkpt lat="45.29987" lon="6.18619">
        <ele>1638.4</ele>
        <time>2021-12-17T08:16:25Z</time>
      </trkpt>
      <trkpt lat="45.29987" lon="6.18613">
        <ele>1638.8</ele>
        <time>2021-12-17T08:16:29Z</time>
      </trkpt>
      <trkpt lat="45.29987" lon="6.18608">
        <ele>1640</ele>
        <time>2021-12-17T08:16:34Z</time>
      </trkpt>
      <trkpt lat="45.29987" lon="6.18607">
        <ele>1640</ele>
        <time>2021-12-17T08:16:35Z</time>
      </trkpt>
      <trkpt lat="45.29987" lon="6.186">
        <ele>1641</ele>
        <time>2021-12-17T08:16:40Z</time>
      </trkpt>
      <trkpt lat="45.29988" lon="6.18598">
        <ele>1641.8</ele>
        <time>2021-12-17T08:16:43Z</time>
      </trkpt>
      <trkpt lat="45.29988" lon="6.18595">
        <ele>1642.2</ele>
        <time>2021-12-17T08:16:45Z</time>
      </trkpt>
      <trkpt lat="45.29987" lon="6.18588">
        <ele>1643.2</ele>
        <time>2021-12-17T08:16:51Z</time>
      </trkpt>
      <trkpt lat="45.29987" lon="6.18587">
        <ele>1643.4</ele>
        <time>2021-12-17T08:16:52Z</time>
      </trkpt>
      <trkpt lat="45.29987" lon="6.18584">
        <ele>1644.2</ele>
        <time>2021-12-17T08:16:55Z</time>
      </trkpt>
      <trkpt lat="45.29988" lon="6.18578">
        <ele>1645.4</ele>
        <time>2021-12-17T08:17:00Z</time>
      </trkpt>
      <trkpt lat="45.29988" lon="6.18575">
        <ele>1645.8</ele>
        <time>2021-12-17T08:17:02Z</time>
      </trkpt>
      <trkpt lat="45.29988" lon="6.18572">
        <ele>1646.4</ele>
        <time>2021-12-17T08:17:05Z</time>
      </trkpt>
      <trkpt lat="45.29987" lon="6.18566">
        <ele>1646.8</ele>
        <time>2021-12-17T08:17:09Z</time>
      </trkpt>
      <trkpt lat="45.29987" lon="6.18561">
        <ele>1647.6</ele>
        <time>2021-12-17T08:17:13Z</time>
      </trkpt>
      <trkpt lat="45.29987" lon="6.18556">
        <ele>1648.6</ele>
        <time>2021-12-17T08:17:17Z</time>
      </trkpt>
      <trkpt lat="45.29987" lon="6.18555">
        <ele>1648.8</ele>
        <time>2021-12-17T08:17:18Z</time>
      </trkpt>
      <trkpt lat="45.29989" lon="6.18548">
        <ele>1649.8</ele>
        <time>2021-12-17T08:17:23Z</time>
      </trkpt>
      <trkpt lat="45.29989" lon="6.18547">
        <ele>1650</ele>
        <time>2021-12-17T08:17:24Z</time>
      </trkpt>
      <trkpt lat="45.2999" lon="6.18544">
        <ele>1650.4</ele>
        <time>2021-12-17T08:17:26Z</time>
      </trkpt>
      <trkpt lat="45.29991" lon="6.1854">
        <ele>1651</ele>
        <time>2021-12-17T08:17:29Z</time>
      </trkpt>
      <trkpt lat="45.29993" lon="6.18533">
        <ele>1652</ele>
        <time>2021-12-17T08:17:35Z</time>
      </trkpt>
      <trkpt lat="45.29992" lon="6.18532">
        <ele>1652.2</ele>
        <time>2021-12-17T08:17:36Z</time>
      </trkpt>
      <trkpt lat="45.29993" lon="6.18525">
        <ele>1653.4</ele>
        <time>2021-12-17T08:17:42Z</time>
      </trkpt>
      <trkpt lat="45.29994" lon="6.18522">
        <ele>1653.6</ele>
        <time>2021-12-17T08:17:44Z</time>
      </trkpt>
      <trkpt lat="45.29995" lon="6.18519">
        <ele>1654.4</ele>
        <time>2021-12-17T08:17:47Z</time>
      </trkpt>
      <trkpt lat="45.29997" lon="6.18511">
        <ele>1655.4</ele>
        <time>2021-12-17T08:17:53Z</time>
      </trkpt>
      <trkpt lat="45.29999" lon="6.18503">
        <ele>1656.6</ele>
        <time>2021-12-17T08:18:00Z</time>
      </trkpt>
      <trkpt lat="45.3" lon="6.18498">
        <ele>1657.8</ele>
        <time>2021-12-17T08:18:04Z</time>
      </trkpt>
      <trkpt lat="45.30003" lon="6.18492">
        <ele>1659</ele>
        <time>2021-12-17T08:18:09Z</time>
      </trkpt>
      <trkpt lat="45.30003" lon="6.18491">
        <ele>1659.4</ele>
        <time>2021-12-17T08:18:10Z</time>
      </trkpt>
      <trkpt lat="45.30005" lon="6.18488">
        <ele>1660</ele>
        <time>2021-12-17T08:18:13Z</time>
      </trkpt>
      <trkpt lat="45.30006" lon="6.18482">
        <ele>1661.2</ele>
        <time>2021-12-17T08:18:18Z</time>
      </trkpt>
      <trkpt lat="45.30006" lon="6.18481">
        <ele>1661.4</ele>
        <time>2021-12-17T08:18:19Z</time>
      </trkpt>
      <trkpt lat="45.30007" lon="6.18478">
        <ele>1662.4</ele>
        <time>2021-12-17T08:18:22Z</time>
      </trkpt>
      <trkpt lat="45.30009" lon="6.18472">
        <ele>1663.4</ele>
        <time>2021-12-17T08:18:27Z</time>
      </trkpt>
      <trkpt lat="45.3001" lon="6.1847">
        <ele>1664.2</ele>
        <time>2021-12-17T08:18:30Z</time>
      </trkpt>
      <trkpt lat="45.30011" lon="6.18468">
        <ele>1664.8</ele>
        <time>2021-12-17T08:18:32Z</time>
      </trkpt>
      <trkpt lat="45.30012" lon="6.18466">
        <ele>1665.8</ele>
        <time>2021-12-17T08:18:35Z</time>
      </trkpt>
      <trkpt lat="45.30014" lon="6.18463">
        <ele>1667</ele>
        <time>2021-12-17T08:18:40Z</time>
      </trkpt>
      <trkpt lat="45.30016" lon="6.18461">
        <ele>1667.2</ele>
        <time>2021-12-17T08:18:42Z</time>
      </trkpt>
      <trkpt lat="45.30017" lon="6.18457">
        <ele>1668</ele>
        <time>2021-12-17T08:18:46Z</time>
      </trkpt>
      <trkpt lat="45.30018" lon="6.18454">
        <ele>1668.6</ele>
        <time>2021-12-17T08:18:49Z</time>
      </trkpt>
      <trkpt lat="45.3002" lon="6.18452">
        <ele>1669.2</ele>
        <time>2021-12-17T08:18:52Z</time>
      </trkpt>
      <trkpt lat="45.30023" lon="6.18449">
        <ele>1670.4</ele>
        <time>2021-12-17T08:18:57Z</time>
      </trkpt>
      <trkpt lat="45.30023" lon="6.18448">
        <ele>1670.4</ele>
        <time>2021-12-17T08:18:58Z</time>
      </trkpt>
      <trkpt lat="45.30025" lon="6.18445">
        <ele>1671.4</ele>
        <time>2021-12-17T08:19:01Z</time>
      </trkpt>
      <trkpt lat="45.30027" lon="6.18442">
        <ele>1672.2</ele>
        <time>2021-12-17T08:19:06Z</time>
      </trkpt>
      <trkpt lat="45.30028" lon="6.18441">
        <ele>1672.6</ele>
        <time>2021-12-17T08:19:07Z</time>
      </trkpt>
      <trkpt lat="45.3003" lon="6.18431">
        <ele>1673.4</ele>
        <time>2021-12-17T08:19:14Z</time>
      </trkpt>
      <trkpt lat="45.30031" lon="6.1843">
        <ele>1673.6</ele>
        <time>2021-12-17T08:19:15Z</time>
      </trkpt>
      <trkpt lat="45.30033" lon="6.18426">
        <ele>1674.8</ele>
        <time>2021-12-17T08:19:21Z</time>
      </trkpt>
      <trkpt lat="45.30033" lon="6.18424">
        <ele>1675</ele>
        <time>2021-12-17T08:19:31Z</time>
      </trkpt>
      <trkpt lat="45.30033" lon="6.18424">
        <ele>1675.4</ele>
        <time>2021-12-17T08:19:56Z</time>
      </trkpt>
      <trkpt lat="45.30037" lon="6.18426">
        <ele>1674.8</ele>
        <time>2021-12-17T08:20:20Z</time>
      </trkpt>
      <trkpt lat="45.30038" lon="6.18425">
        <ele>1674.8</ele>
        <time>2021-12-17T08:20:43Z</time>
      </trkpt>
      <trkpt lat="45.3004" lon="6.18412">
        <ele>1675.8</ele>
        <time>2021-12-17T08:20:51Z</time>
      </trkpt>
      <trkpt lat="45.30043" lon="6.18402">
        <ele>1676.8</ele>
        <time>2021-12-17T08:20:59Z</time>
      </trkpt>
      <trkpt lat="45.30043" lon="6.184">
        <ele>1677</ele>
        <time>2021-12-17T08:21:00Z</time>
      </trkpt>
      <trkpt lat="45.30046" lon="6.18392">
        <ele>1677.8</ele>
        <time>2021-12-17T08:21:06Z</time>
      </trkpt>
      <trkpt lat="45.30046" lon="6.1839">
        <ele>1677.8</ele>
        <time>2021-12-17T08:21:07Z</time>
      </trkpt>
      <trkpt lat="45.30053" lon="6.18374">
        <ele>1678.8</ele>
        <time>2021-12-17T08:21:18Z</time>
      </trkpt>
      <trkpt lat="45.30055" lon="6.18372">
        <ele>1679</ele>
        <time>2021-12-17T08:21:20Z</time>
      </trkpt>
      <trkpt lat="45.30058" lon="6.18367">
        <ele>1679</ele>
        <time>2021-12-17T08:21:24Z</time>
      </trkpt>
      <trkpt lat="45.3006" lon="6.18364">
        <ele>1679</ele>
        <time>2021-12-17T08:21:27Z</time>
      </trkpt>
      <trkpt lat="45.30068" lon="6.18359">
        <ele>1679.4</ele>
        <time>2021-12-17T08:21:35Z</time>
      </trkpt>
      <trkpt lat="45.30072" lon="6.18353">
        <ele>1679.6</ele>
        <time>2021-12-17T08:21:42Z</time>
      </trkpt>
      <trkpt lat="45.30072" lon="6.1835">
        <ele>1680</ele>
        <time>2021-12-17T08:21:45Z</time>
      </trkpt>
      <trkpt lat="45.30075" lon="6.18343">
        <ele>1680.8</ele>
        <time>2021-12-17T08:21:50Z</time>
      </trkpt>
      <trkpt lat="45.30076" lon="6.1834">
        <ele>1681</ele>
        <time>2021-12-17T08:21:52Z</time>
      </trkpt>
      <trkpt lat="45.30078" lon="6.18337">
        <ele>1681.4</ele>
        <time>2021-12-17T08:21:55Z</time>
      </trkpt>
      <trkpt lat="45.30079" lon="6.18334">
        <ele>1681.4</ele>
        <time>2021-12-17T08:21:57Z</time>
      </trkpt>
      <trkpt lat="45.30079" lon="6.18332">
        <ele>1681.4</ele>
        <time>2021-12-17T08:21:58Z</time>
      </trkpt>
      <trkpt lat="45.30081" lon="6.18325">
        <ele>1682.4</ele>
        <time>2021-12-17T08:22:03Z</time>
      </trkpt>
      <trkpt lat="45.30082" lon="6.18319">
        <ele>1683.4</ele>
        <time>2021-12-17T08:22:08Z</time>
      </trkpt>
      <trkpt lat="45.30084" lon="6.18311">
        <ele>1684.4</ele>
        <time>2021-12-17T08:22:14Z</time>
      </trkpt>
      <trkpt lat="45.30084" lon="6.18308">
        <ele>1685</ele>
        <time>2021-12-17T08:22:16Z</time>
      </trkpt>
      <trkpt lat="45.30086" lon="6.18304">
        <ele>1685.4</ele>
        <time>2021-12-17T08:22:19Z</time>
      </trkpt>
      <trkpt lat="45.30087" lon="6.18299">
        <ele>1686.6</ele>
        <time>2021-12-17T08:22:24Z</time>
      </trkpt>
      <trkpt lat="45.30089" lon="6.18295">
        <ele>1687.8</ele>
        <time>2021-12-17T08:22:28Z</time>
      </trkpt>
      <trkpt lat="45.3009" lon="6.18291">
        <ele>1688.8</ele>
        <time>2021-12-17T08:22:32Z</time>
      </trkpt>
      <trkpt lat="45.3009" lon="6.18289">
        <ele>1688.8</ele>
        <time>2021-12-17T08:22:33Z</time>
      </trkpt>
      <trkpt lat="45.30091" lon="6.18286">
        <ele>1689.8</ele>
        <time>2021-12-17T08:22:37Z</time>
      </trkpt>
      <trkpt lat="45.30092" lon="6.18284">
        <ele>1690.4</ele>
        <time>2021-12-17T08:22:40Z</time>
      </trkpt>
      <trkpt lat="45.30094" lon="6.18281">
        <ele>1691.2</ele>
        <time>2021-12-17T08:22:42Z</time>
      </trkpt>
      <trkpt lat="45.30098" lon="6.18277">
        <ele>1692.2</ele>
        <time>2021-12-17T08:22:47Z</time>
      </trkpt>
      <trkpt lat="45.30098" lon="6.18275">
        <ele>1692.6</ele>
        <time>2021-12-17T08:22:49Z</time>
      </trkpt>
      <trkpt lat="45.30098" lon="6.18273">
        <ele>1692.8</ele>
        <time>2021-12-17T08:22:50Z</time>
      </trkpt>
      <trkpt lat="45.30098" lon="6.18271">
        <ele>1693.2</ele>
        <time>2021-12-17T08:22:52Z</time>
      </trkpt>
      <trkpt lat="45.30098" lon="6.18264">
        <ele>1694.2</ele>
        <time>2021-12-17T08:22:57Z</time>
      </trkpt>
      <trkpt lat="45.301" lon="6.18255">
        <ele>1695</ele>
        <time>2021-12-17T08:23:03Z</time>
      </trkpt>
      <trkpt lat="45.30101" lon="6.18252">
        <ele>1695.4</ele>
        <time>2021-12-17T08:23:06Z</time>
      </trkpt>
      <trkpt lat="45.30103" lon="6.18246">
        <ele>1696.2</ele>
        <time>2021-12-17T08:23:10Z</time>
      </trkpt>
      <trkpt lat="45.30104" lon="6.18241">
        <ele>1696.4</ele>
        <time>2021-12-17T08:23:13Z</time>
      </trkpt>
      <trkpt lat="45.30104" lon="6.18235">
        <ele>1697.4</ele>
        <time>2021-12-17T08:23:17Z</time>
      </trkpt>
      <trkpt lat="45.30105" lon="6.18234">
        <ele>1697.8</ele>
        <time>2021-12-17T08:23:18Z</time>
      </trkpt>
      <trkpt lat="45.30106" lon="6.18231">
        <ele>1698.2</ele>
        <time>2021-12-17T08:23:20Z</time>
      </trkpt>
      <trkpt lat="45.30107" lon="6.18228">
        <ele>1698.6</ele>
        <time>2021-12-17T08:23:23Z</time>
      </trkpt>
      <trkpt lat="45.30108" lon="6.18227">
        <ele>1698.6</ele>
        <time>2021-12-17T08:23:24Z</time>
      </trkpt>
      <trkpt lat="45.30108" lon="6.18225">
        <ele>1699.2</ele>
        <time>2021-12-17T08:23:26Z</time>
      </trkpt>
      <trkpt lat="45.30109" lon="6.18221">
        <ele>1700</ele>
        <time>2021-12-17T08:23:29Z</time>
      </trkpt>
      <trkpt lat="45.3011" lon="6.18219">
        <ele>1700.4</ele>
        <time>2021-12-17T08:23:31Z</time>
      </trkpt>
      <trkpt lat="45.30114" lon="6.18215">
        <ele>1701.6</ele>
        <time>2021-12-17T08:23:36Z</time>
      </trkpt>
      <trkpt lat="45.30115" lon="6.1821">
        <ele>1703</ele>
        <time>2021-12-17T08:23:40Z</time>
      </trkpt>
      <trkpt lat="45.30116" lon="6.18205">
        <ele>1703.6</ele>
        <time>2021-12-17T08:23:44Z</time>
      </trkpt>
      <trkpt lat="45.30117" lon="6.18206">
        <ele>1703.6</ele>
        <time>2021-12-17T08:23:45Z</time>
      </trkpt>
      <trkpt lat="45.3012" lon="6.182">
        <ele>1703.8</ele>
        <time>2021-12-17T08:23:49Z</time>
      </trkpt>
      <trkpt lat="45.3012" lon="6.18198">
        <ele>1704.2</ele>
        <time>2021-12-17T08:23:50Z</time>
      </trkpt>
      <trkpt lat="45.30121" lon="6.18195">
        <ele>1705.2</ele>
        <time>2021-12-17T08:23:53Z</time>
      </trkpt>
      <trkpt lat="45.30122" lon="6.18193">
        <ele>1705.4</ele>
        <time>2021-12-17T08:23:54Z</time>
      </trkpt>
      <trkpt lat="45.30123" lon="6.18188">
        <ele>1706.4</ele>
        <time>2021-12-17T08:24:00Z</time>
      </trkpt>
      <trkpt lat="45.30124" lon="6.18186">
        <ele>1706.8</ele>
        <time>2021-12-17T08:24:01Z</time>
      </trkpt>
      <trkpt lat="45.30125" lon="6.18184">
        <ele>1707.6</ele>
        <time>2021-12-17T08:24:04Z</time>
      </trkpt>
      <trkpt lat="45.30126" lon="6.18182">
        <ele>1709</ele>
        <time>2021-12-17T08:24:07Z</time>
      </trkpt>
      <trkpt lat="45.30126" lon="6.18182">
        <ele>1709.2</ele>
        <time>2021-12-17T08:24:08Z</time>
      </trkpt>
      <trkpt lat="45.30128" lon="6.18176">
        <ele>1710</ele>
        <time>2021-12-17T08:24:13Z</time>
      </trkpt>
      <trkpt lat="45.3013" lon="6.18174">
        <ele>1710.4</ele>
        <time>2021-12-17T08:24:16Z</time>
      </trkpt>
      <trkpt lat="45.30131" lon="6.18171">
        <ele>1711</ele>
        <time>2021-12-17T08:24:18Z</time>
      </trkpt>
      <trkpt lat="45.30132" lon="6.18166">
        <ele>1712.2</ele>
        <time>2021-12-17T08:24:23Z</time>
      </trkpt>
      <trkpt lat="45.30133" lon="6.18163">
        <ele>1713.2</ele>
        <time>2021-12-17T08:24:26Z</time>
      </trkpt>
      <trkpt lat="45.30134" lon="6.18162">
        <ele>1713.6</ele>
        <time>2021-12-17T08:24:27Z</time>
      </trkpt>
      <trkpt lat="45.30134" lon="6.18157">
        <ele>1714.6</ele>
        <time>2021-12-17T08:24:32Z</time>
      </trkpt>
      <trkpt lat="45.30133" lon="6.18156">
        <ele>1714.8</ele>
        <time>2021-12-17T08:24:33Z</time>
      </trkpt>
      <trkpt lat="45.30135" lon="6.18149">
        <ele>1716</ele>
        <time>2021-12-17T08:24:39Z</time>
      </trkpt>
      <trkpt lat="45.30134" lon="6.18144">
        <ele>1717.2</ele>
        <time>2021-12-17T08:24:43Z</time>
      </trkpt>
      <trkpt lat="45.30137" lon="6.18141">
        <ele>1718.4</ele>
        <time>2021-12-17T08:24:48Z</time>
      </trkpt>
      <trkpt lat="45.30138" lon="6.18137">
        <ele>1719.6</ele>
        <time>2021-12-17T08:24:52Z</time>
      </trkpt>
      <trkpt lat="45.3014" lon="6.18132">
        <ele>1720.6</ele>
        <time>2021-12-17T08:24:56Z</time>
      </trkpt>
      <trkpt lat="45.30141" lon="6.1813">
        <ele>1720.8</ele>
        <time>2021-12-17T08:24:57Z</time>
      </trkpt>
      <trkpt lat="45.30143" lon="6.18121">
        <ele>1721.4</ele>
        <time>2021-12-17T08:25:05Z</time>
      </trkpt>
      <trkpt lat="45.30144" lon="6.1812">
        <ele>1721.8</ele>
        <time>2021-12-17T08:25:07Z</time>
      </trkpt>
      <trkpt lat="45.30144" lon="6.18117">
        <ele>1723</ele>
        <time>2021-12-17T08:25:10Z</time>
      </trkpt>
      <trkpt lat="45.30145" lon="6.18116">
        <ele>1723.2</ele>
        <time>2021-12-17T08:25:11Z</time>
      </trkpt>
      <trkpt lat="45.30146" lon="6.18111">
        <ele>1724</ele>
        <time>2021-12-17T08:25:15Z</time>
      </trkpt>
      <trkpt lat="45.30147" lon="6.18107">
        <ele>1724.6</ele>
        <time>2021-12-17T08:25:19Z</time>
      </trkpt>
      <trkpt lat="45.30148" lon="6.18103">
        <ele>1725.2</ele>
        <time>2021-12-17T08:25:23Z</time>
      </trkpt>
      <trkpt lat="45.30148" lon="6.18097">
        <ele>1725.8</ele>
        <time>2021-12-17T08:25:28Z</time>
      </trkpt>
      <trkpt lat="45.30147" lon="6.18096">
        <ele>1726.4</ele>
        <time>2021-12-17T08:25:30Z</time>
      </trkpt>
      <trkpt lat="45.30148" lon="6.18093">
        <ele>1727.4</ele>
        <time>2021-12-17T08:25:34Z</time>
      </trkpt>
      <trkpt lat="45.30148" lon="6.18091">
        <ele>1728</ele>
        <time>2021-12-17T08:25:36Z</time>
      </trkpt>
      <trkpt lat="45.30148" lon="6.18089">
        <ele>1728.6</ele>
        <time>2021-12-17T08:25:38Z</time>
      </trkpt>
      <trkpt lat="45.30149" lon="6.18085">
        <ele>1729.8</ele>
        <time>2021-12-17T08:25:42Z</time>
      </trkpt>
      <trkpt lat="45.3015" lon="6.18082">
        <ele>1730.8</ele>
        <time>2021-12-17T08:25:46Z</time>
      </trkpt>
      <trkpt lat="45.3015" lon="6.18081">
        <ele>1731.2</ele>
        <time>2021-12-17T08:25:47Z</time>
      </trkpt>
      <trkpt lat="45.3015" lon="6.18077">
        <ele>1732.4</ele>
        <time>2021-12-17T08:25:51Z</time>
      </trkpt>
      <trkpt lat="45.30149" lon="6.18072">
        <ele>1733</ele>
        <time>2021-12-17T08:25:54Z</time>
      </trkpt>
      <trkpt lat="45.3015" lon="6.18064">
        <ele>1733.2</ele>
        <time>2021-12-17T08:26:00Z</time>
      </trkpt>
      <trkpt lat="45.3015" lon="6.18058">
        <ele>1733.8</ele>
        <time>2021-12-17T08:26:05Z</time>
      </trkpt>
      <trkpt lat="45.3015" lon="6.18055">
        <ele>1734.2</ele>
        <time>2021-12-17T08:26:07Z</time>
      </trkpt>
      <trkpt lat="45.30149" lon="6.18053">
        <ele>1734.6</ele>
        <time>2021-12-17T08:26:09Z</time>
      </trkpt>
      <trkpt lat="45.30149" lon="6.18051">
        <ele>1734.8</ele>
        <time>2021-12-17T08:26:10Z</time>
      </trkpt>
      <trkpt lat="45.3015" lon="6.18044">
        <ele>1735.8</ele>
        <time>2021-12-17T08:26:16Z</time>
      </trkpt>
      <trkpt lat="45.3015" lon="6.18043">
        <ele>1736</ele>
        <time>2021-12-17T08:26:17Z</time>
      </trkpt>
      <trkpt lat="45.3015" lon="6.18036">
        <ele>1737</ele>
        <time>2021-12-17T08:26:22Z</time>
      </trkpt>
      <trkpt lat="45.30151" lon="6.18033">
        <ele>1737.8</ele>
        <time>2021-12-17T08:26:25Z</time>
      </trkpt>
      <trkpt lat="45.30151" lon="6.18031">
        <ele>1738.2</ele>
        <time>2021-12-17T08:26:27Z</time>
      </trkpt>
      <trkpt lat="45.30151" lon="6.18026">
        <ele>1739.4</ele>
        <time>2021-12-17T08:26:32Z</time>
      </trkpt>
      <trkpt lat="45.30153" lon="6.18014">
        <ele>1740.8</ele>
        <time>2021-12-17T08:26:41Z</time>
      </trkpt>
      <trkpt lat="45.30153" lon="6.18012">
        <ele>1741.2</ele>
        <time>2021-12-17T08:26:43Z</time>
      </trkpt>
      <trkpt lat="45.30154" lon="6.18007">
        <ele>1742</ele>
        <time>2021-12-17T08:26:46Z</time>
      </trkpt>
      <trkpt lat="45.30155" lon="6.18001">
        <ele>1743.4</ele>
        <time>2021-12-17T08:26:52Z</time>
      </trkpt>
      <trkpt lat="45.30155" lon="6.18">
        <ele>1743.8</ele>
        <time>2021-12-17T08:26:53Z</time>
      </trkpt>
      <trkpt lat="45.30155" lon="6.17996">
        <ele>1744.6</ele>
        <time>2021-12-17T08:26:57Z</time>
      </trkpt>
      <trkpt lat="45.30156" lon="6.17995">
        <ele>1745</ele>
        <time>2021-12-17T08:26:58Z</time>
      </trkpt>
      <trkpt lat="45.30156" lon="6.17992">
        <ele>1745.6</ele>
        <time>2021-12-17T08:27:01Z</time>
      </trkpt>
      <trkpt lat="45.30157" lon="6.17986">
        <ele>1746.8</ele>
        <time>2021-12-17T08:27:07Z</time>
      </trkpt>
      <trkpt lat="45.30158" lon="6.17985">
        <ele>1747</ele>
        <time>2021-12-17T08:27:08Z</time>
      </trkpt>
      <trkpt lat="45.30158" lon="6.17977">
        <ele>1748</ele>
        <time>2021-12-17T08:27:13Z</time>
      </trkpt>
      <trkpt lat="45.30159" lon="6.17975">
        <ele>1748.2</ele>
        <time>2021-12-17T08:27:15Z</time>
      </trkpt>
      <trkpt lat="45.30159" lon="6.17969">
        <ele>1749</ele>
        <time>2021-12-17T08:27:20Z</time>
      </trkpt>
      <trkpt lat="45.3016" lon="6.17964">
        <ele>1749.4</ele>
        <time>2021-12-17T08:27:24Z</time>
      </trkpt>
      <trkpt lat="45.3016" lon="6.17962">
        <ele>1750</ele>
        <time>2021-12-17T08:27:26Z</time>
      </trkpt>
      <trkpt lat="45.30161" lon="6.17959">
        <ele>1751</ele>
        <time>2021-12-17T08:27:29Z</time>
      </trkpt>
      <trkpt lat="45.30161" lon="6.17954">
        <ele>1752.2</ele>
        <time>2021-12-17T08:27:32Z</time>
      </trkpt>
      <trkpt lat="45.30161" lon="6.17948">
        <ele>1753.4</ele>
        <time>2021-12-17T08:27:37Z</time>
      </trkpt>
      <trkpt lat="45.30161" lon="6.17945">
        <ele>1753.8</ele>
        <time>2021-12-17T08:27:40Z</time>
      </trkpt>
      <trkpt lat="45.30162" lon="6.1794">
        <ele>1754.4</ele>
        <time>2021-12-17T08:27:45Z</time>
      </trkpt>
      <trkpt lat="45.30162" lon="6.17938">
        <ele>1754.8</ele>
        <time>2021-12-17T08:27:47Z</time>
      </trkpt>
      <trkpt lat="45.30162" lon="6.17934">
        <ele>1755.4</ele>
        <time>2021-12-17T08:27:50Z</time>
      </trkpt>
      <trkpt lat="45.30163" lon="6.17925">
        <ele>1756.2</ele>
        <time>2021-12-17T08:27:56Z</time>
      </trkpt>
      <trkpt lat="45.30164" lon="6.17921">
        <ele>1756.6</ele>
        <time>2021-12-17T08:27:58Z</time>
      </trkpt>
      <trkpt lat="45.30164" lon="6.17914">
        <ele>1757.8</ele>
        <time>2021-12-17T08:28:02Z</time>
      </trkpt>
      <trkpt lat="45.30164" lon="6.17909">
        <ele>1759</ele>
        <time>2021-12-17T08:28:07Z</time>
      </trkpt>
      <trkpt lat="45.30165" lon="6.17902">
        <ele>1760.2</ele>
        <time>2021-12-17T08:28:13Z</time>
      </trkpt>
      <trkpt lat="45.30165" lon="6.17901">
        <ele>1760.2</ele>
        <time>2021-12-17T08:28:14Z</time>
      </trkpt>
      <trkpt lat="45.30165" lon="6.17896">
        <ele>1761.2</ele>
        <time>2021-12-17T08:28:18Z</time>
      </trkpt>
      <trkpt lat="45.30165" lon="6.17893">
        <ele>1762</ele>
        <time>2021-12-17T08:28:21Z</time>
      </trkpt>
      <trkpt lat="45.30165" lon="6.17892">
        <ele>1762.4</ele>
        <time>2021-12-17T08:28:22Z</time>
      </trkpt>
      <trkpt lat="45.30165" lon="6.17888">
        <ele>1763.8</ele>
        <time>2021-12-17T08:28:26Z</time>
      </trkpt>
      <trkpt lat="45.30165" lon="6.17886">
        <ele>1765</ele>
        <time>2021-12-17T08:28:29Z</time>
      </trkpt>
      <trkpt lat="45.30166" lon="6.17882">
        <ele>1766</ele>
        <time>2021-12-17T08:28:33Z</time>
      </trkpt>
      <trkpt lat="45.30166" lon="6.1788">
        <ele>1767.2</ele>
        <time>2021-12-17T08:28:36Z</time>
      </trkpt>
      <trkpt lat="45.30166" lon="6.17877">
        <ele>1767.6</ele>
        <time>2021-12-17T08:28:38Z</time>
      </trkpt>
      <trkpt lat="45.30166" lon="6.17869">
        <ele>1768.2</ele>
        <time>2021-12-17T08:28:44Z</time>
      </trkpt>
      <trkpt lat="45.30167" lon="6.17864">
        <ele>1768.6</ele>
        <time>2021-12-17T08:28:47Z</time>
      </trkpt>
      <trkpt lat="45.30167" lon="6.17862">
        <ele>1769.2</ele>
        <time>2021-12-17T08:28:49Z</time>
      </trkpt>
      <trkpt lat="45.30168" lon="6.17861">
        <ele>1769.4</ele>
        <time>2021-12-17T08:28:50Z</time>
      </trkpt>
      <trkpt lat="45.3017" lon="6.17859">
        <ele>1770</ele>
        <time>2021-12-17T08:28:52Z</time>
      </trkpt>
      <trkpt lat="45.3017" lon="6.17856">
        <ele>1770.6</ele>
        <time>2021-12-17T08:28:55Z</time>
      </trkpt>
      <trkpt lat="45.3017" lon="6.17855">
        <ele>1771</ele>
        <time>2021-12-17T08:28:56Z</time>
      </trkpt>
      <trkpt lat="45.3017" lon="6.17852">
        <ele>1771.6</ele>
        <time>2021-12-17T08:28:58Z</time>
      </trkpt>
      <trkpt lat="45.3017" lon="6.17851">
        <ele>1772</ele>
        <time>2021-12-17T08:28:59Z</time>
      </trkpt>
      <trkpt lat="45.3017" lon="6.17849">
        <ele>1772.8</ele>
        <time>2021-12-17T08:29:01Z</time>
      </trkpt>
      <trkpt lat="45.30171" lon="6.17848">
        <ele>1773.2</ele>
        <time>2021-12-17T08:29:02Z</time>
      </trkpt>
      <trkpt lat="45.30171" lon="6.17847">
        <ele>1773.4</ele>
        <time>2021-12-17T08:29:03Z</time>
      </trkpt>
      <trkpt lat="45.30172" lon="6.17844">
        <ele>1773.8</ele>
        <time>2021-12-17T08:29:07Z</time>
      </trkpt>
      <trkpt lat="45.3017" lon="6.17839">
        <ele>1774.4</ele>
        <time>2021-12-17T08:29:11Z</time>
      </trkpt>
      <trkpt lat="45.30172" lon="6.17836">
        <ele>1775.2</ele>
        <time>2021-12-17T08:29:13Z</time>
      </trkpt>
      <trkpt lat="45.30171" lon="6.17829">
        <ele>1776.2</ele>
        <time>2021-12-17T08:29:17Z</time>
      </trkpt>
      <trkpt lat="45.30172" lon="6.17827">
        <ele>1776.6</ele>
        <time>2021-12-17T08:29:19Z</time>
      </trkpt>
      <trkpt lat="45.30172" lon="6.17823">
        <ele>1777.4</ele>
        <time>2021-12-17T08:29:24Z</time>
      </trkpt>
      <trkpt lat="45.30172" lon="6.17819">
        <ele>1778.6</ele>
        <time>2021-12-17T08:29:28Z</time>
      </trkpt>
      <trkpt lat="45.30173" lon="6.17818">
        <ele>1779.2</ele>
        <time>2021-12-17T08:29:31Z</time>
      </trkpt>
      <trkpt lat="45.30172" lon="6.17815">
        <ele>1779.6</ele>
        <time>2021-12-17T08:29:35Z</time>
      </trkpt>
      <trkpt lat="45.30173" lon="6.17814">
        <ele>1780.2</ele>
        <time>2021-12-17T08:29:38Z</time>
      </trkpt>
      <trkpt lat="45.30173" lon="6.17812">
        <ele>1780.6</ele>
        <time>2021-12-17T08:29:39Z</time>
      </trkpt>
      <trkpt lat="45.30173" lon="6.17808">
        <ele>1781.8</ele>
        <time>2021-12-17T08:29:42Z</time>
      </trkpt>
      <trkpt lat="45.30174" lon="6.17805">
        <ele>1782.6</ele>
        <time>2021-12-17T08:29:45Z</time>
      </trkpt>
      <trkpt lat="45.30174" lon="6.17801">
        <ele>1782.8</ele>
        <time>2021-12-17T08:29:49Z</time>
      </trkpt>
      <trkpt lat="45.30173" lon="6.17796">
        <ele>1783.8</ele>
        <time>2021-12-17T08:29:54Z</time>
      </trkpt>
      <trkpt lat="45.30173" lon="6.17795">
        <ele>1784</ele>
        <time>2021-12-17T08:29:55Z</time>
      </trkpt>
      <trkpt lat="45.30173" lon="6.17791">
        <ele>1785.2</ele>
        <time>2021-12-17T08:29:59Z</time>
      </trkpt>
      <trkpt lat="45.30173" lon="6.17789">
        <ele>1786.2</ele>
        <time>2021-12-17T08:30:02Z</time>
      </trkpt>
      <trkpt lat="45.30173" lon="6.17788">
        <ele>1786.6</ele>
        <time>2021-12-17T08:30:03Z</time>
      </trkpt>
      <trkpt lat="45.30172" lon="6.1778">
        <ele>1787.8</ele>
        <time>2021-12-17T08:30:10Z</time>
      </trkpt>
      <trkpt lat="45.30173" lon="6.17779">
        <ele>1788</ele>
        <time>2021-12-17T08:30:11Z</time>
      </trkpt>
      <trkpt lat="45.30173" lon="6.17774">
        <ele>1789.2</ele>
        <time>2021-12-17T08:30:15Z</time>
      </trkpt>
      <trkpt lat="45.30173" lon="6.17771">
        <ele>1790.2</ele>
        <time>2021-12-17T08:30:18Z</time>
      </trkpt>
      <trkpt lat="45.30173" lon="6.1777">
        <ele>1790.6</ele>
        <time>2021-12-17T08:30:20Z</time>
      </trkpt>
      <trkpt lat="45.30173" lon="6.17765">
        <ele>1791.8</ele>
        <time>2021-12-17T08:30:25Z</time>
      </trkpt>
      <trkpt lat="45.30172" lon="6.1776">
        <ele>1793</ele>
        <time>2021-12-17T08:30:29Z</time>
      </trkpt>
      <trkpt lat="45.30172" lon="6.17751">
        <ele>1793.6</ele>
        <time>2021-12-17T08:30:37Z</time>
      </trkpt>
      <trkpt lat="45.30172" lon="6.1775">
        <ele>1794.2</ele>
        <time>2021-12-17T08:30:39Z</time>
      </trkpt>
      <trkpt lat="45.30172" lon="6.17744">
        <ele>1795.4</ele>
        <time>2021-12-17T08:30:45Z</time>
      </trkpt>
      <trkpt lat="45.30172" lon="6.1774">
        <ele>1796.2</ele>
        <time>2021-12-17T08:30:49Z</time>
      </trkpt>
      <trkpt lat="45.30173" lon="6.17739">
        <ele>1796.6</ele>
        <time>2021-12-17T08:30:50Z</time>
      </trkpt>
      <trkpt lat="45.30173" lon="6.17734">
        <ele>1797.8</ele>
        <time>2021-12-17T08:30:55Z</time>
      </trkpt>
      <trkpt lat="45.30172" lon="6.17732">
        <ele>1798</ele>
        <time>2021-12-17T08:30:56Z</time>
      </trkpt>
      <trkpt lat="45.30172" lon="6.17726">
        <ele>1798.8</ele>
        <time>2021-12-17T08:31:02Z</time>
      </trkpt>
      <trkpt lat="45.30172" lon="6.17725">
        <ele>1799</ele>
        <time>2021-12-17T08:31:03Z</time>
      </trkpt>
      <trkpt lat="45.30172" lon="6.1772">
        <ele>1800</ele>
        <time>2021-12-17T08:31:08Z</time>
      </trkpt>
      <trkpt lat="45.30172" lon="6.17717">
        <ele>1800.8</ele>
        <time>2021-12-17T08:31:11Z</time>
      </trkpt>
      <trkpt lat="45.30172" lon="6.17715">
        <ele>1801</ele>
        <time>2021-12-17T08:31:12Z</time>
      </trkpt>
      <trkpt lat="45.30172" lon="6.17709">
        <ele>1802</ele>
        <time>2021-12-17T08:31:18Z</time>
      </trkpt>
      <trkpt lat="45.30172" lon="6.17708">
        <ele>1802.2</ele>
        <time>2021-12-17T08:31:19Z</time>
      </trkpt>
      <trkpt lat="45.30171" lon="6.17702">
        <ele>1803.2</ele>
        <time>2021-12-17T08:31:24Z</time>
      </trkpt>
      <trkpt lat="45.3017" lon="6.17696">
        <ele>1804.2</ele>
        <time>2021-12-17T08:31:30Z</time>
      </trkpt>
      <trkpt lat="45.3017" lon="6.17688">
        <ele>1805.4</ele>
        <time>2021-12-17T08:31:37Z</time>
      </trkpt>
      <trkpt lat="45.3017" lon="6.17683">
        <ele>1806.4</ele>
        <time>2021-12-17T08:31:41Z</time>
      </trkpt>
      <trkpt lat="45.3017" lon="6.17681">
        <ele>1806.8</ele>
        <time>2021-12-17T08:31:43Z</time>
      </trkpt>
      <trkpt lat="45.3017" lon="6.17672">
        <ele>1807.4</ele>
        <time>2021-12-17T08:31:50Z</time>
      </trkpt>
      <trkpt lat="45.3017" lon="6.17671">
        <ele>1807.6</ele>
        <time>2021-12-17T08:31:51Z</time>
      </trkpt>
      <trkpt lat="45.30169" lon="6.17668">
        <ele>1808.6</ele>
        <time>2021-12-17T08:31:54Z</time>
      </trkpt>
      <trkpt lat="45.3017" lon="6.1766">
        <ele>1809.8</ele>
        <time>2021-12-17T08:31:59Z</time>
      </trkpt>
      <trkpt lat="45.3017" lon="6.17652">
        <ele>1810.8</ele>
        <time>2021-12-17T08:32:08Z</time>
      </trkpt>
      <trkpt lat="45.3017" lon="6.17649">
        <ele>1812</ele>
        <time>2021-12-17T08:32:11Z</time>
      </trkpt>
      <trkpt lat="45.3017" lon="6.17644">
        <ele>1813.4</ele>
        <time>2021-12-17T08:32:15Z</time>
      </trkpt>
      <trkpt lat="45.3017" lon="6.17642">
        <ele>1814</ele>
        <time>2021-12-17T08:32:17Z</time>
      </trkpt>
      <trkpt lat="45.30171" lon="6.1764">
        <ele>1814.4</ele>
        <time>2021-12-17T08:32:20Z</time>
      </trkpt>
      <trkpt lat="45.30173" lon="6.17638">
        <ele>1815.2</ele>
        <time>2021-12-17T08:32:24Z</time>
      </trkpt>
      <trkpt lat="45.30173" lon="6.17637">
        <ele>1815.2</ele>
        <time>2021-12-17T08:32:25Z</time>
      </trkpt>
      <trkpt lat="45.30174" lon="6.17638">
        <ele>1815.6</ele>
        <time>2021-12-17T08:32:27Z</time>
      </trkpt>
      <trkpt lat="45.30173" lon="6.17637">
        <ele>1815.2</ele>
        <time>2021-12-17T08:32:40Z</time>
      </trkpt>
      <trkpt lat="45.30175" lon="6.1763">
        <ele>1816.6</ele>
        <time>2021-12-17T08:32:53Z</time>
      </trkpt>
      <trkpt lat="45.30177" lon="6.1762">
        <ele>1818</ele>
        <time>2021-12-17T08:33:00Z</time>
      </trkpt>
      <trkpt lat="45.30178" lon="6.17616">
        <ele>1819.2</ele>
        <time>2021-12-17T08:33:04Z</time>
      </trkpt>
      <trkpt lat="45.30178" lon="6.17614">
        <ele>1819.6</ele>
        <time>2021-12-17T08:33:07Z</time>
      </trkpt>
      <trkpt lat="45.30179" lon="6.17611">
        <ele>1820.4</ele>
        <time>2021-12-17T08:33:11Z</time>
      </trkpt>
      <trkpt lat="45.30179" lon="6.17609">
        <ele>1821</ele>
        <time>2021-12-17T08:33:13Z</time>
      </trkpt>
      <trkpt lat="45.30179" lon="6.17607">
        <ele>1821.6</ele>
        <time>2021-12-17T08:33:15Z</time>
      </trkpt>
      <trkpt lat="45.30178" lon="6.17604">
        <ele>1822.8</ele>
        <time>2021-12-17T08:33:19Z</time>
      </trkpt>
      <trkpt lat="45.3018" lon="6.17598">
        <ele>1824</ele>
        <time>2021-12-17T08:33:26Z</time>
      </trkpt>
      <trkpt lat="45.3018" lon="6.17593">
        <ele>1825.2</ele>
        <time>2021-12-17T08:33:31Z</time>
      </trkpt>
      <trkpt lat="45.3018" lon="6.17588">
        <ele>1826.4</ele>
        <time>2021-12-17T08:33:37Z</time>
      </trkpt>
      <trkpt lat="45.30179" lon="6.17586">
        <ele>1827.4</ele>
        <time>2021-12-17T08:33:41Z</time>
      </trkpt>
      <trkpt lat="45.3018" lon="6.1758">
        <ele>1828.2</ele>
        <time>2021-12-17T08:33:47Z</time>
      </trkpt>
      <trkpt lat="45.3018" lon="6.17579">
        <ele>1828.6</ele>
        <time>2021-12-17T08:33:48Z</time>
      </trkpt>
      <trkpt lat="45.3018" lon="6.17572">
        <ele>1829.8</ele>
        <time>2021-12-17T08:33:54Z</time>
      </trkpt>
      <trkpt lat="45.30178" lon="6.17568">
        <ele>1831</ele>
        <time>2021-12-17T08:33:59Z</time>
      </trkpt>
      <trkpt lat="45.30179" lon="6.17567">
        <ele>1831.2</ele>
        <time>2021-12-17T08:34:00Z</time>
      </trkpt>
      <trkpt lat="45.30178" lon="6.17562">
        <ele>1832.4</ele>
        <time>2021-12-17T08:34:06Z</time>
      </trkpt>
      <trkpt lat="45.30178" lon="6.17554">
        <ele>1833.4</ele>
        <time>2021-12-17T08:34:13Z</time>
      </trkpt>
      <trkpt lat="45.30178" lon="6.17553">
        <ele>1834</ele>
        <time>2021-12-17T08:34:14Z</time>
      </trkpt>
      <trkpt lat="45.30177" lon="6.17551">
        <ele>1834.6</ele>
        <time>2021-12-17T08:34:16Z</time>
      </trkpt>
      <trkpt lat="45.30177" lon="6.17546">
        <ele>1835.8</ele>
        <time>2021-12-17T08:34:21Z</time>
      </trkpt>
      <trkpt lat="45.30177" lon="6.17544">
        <ele>1836.6</ele>
        <time>2021-12-17T08:34:23Z</time>
      </trkpt>
      <trkpt lat="45.30177" lon="6.17542">
        <ele>1836.8</ele>
        <time>2021-12-17T08:34:24Z</time>
      </trkpt>
      <trkpt lat="45.30177" lon="6.17538">
        <ele>1837.8</ele>
        <time>2021-12-17T08:34:28Z</time>
      </trkpt>
      <trkpt lat="45.30176" lon="6.17536">
        <ele>1838.8</ele>
        <time>2021-12-17T08:34:31Z</time>
      </trkpt>
      <trkpt lat="45.30176" lon="6.17535">
        <ele>1839</ele>
        <time>2021-12-17T08:34:32Z</time>
      </trkpt>
      <trkpt lat="45.30174" lon="6.1753">
        <ele>1840.2</ele>
        <time>2021-12-17T08:34:38Z</time>
      </trkpt>
      <trkpt lat="45.30174" lon="6.17526">
        <ele>1841.4</ele>
        <time>2021-12-17T08:34:43Z</time>
      </trkpt>
      <trkpt lat="45.30174" lon="6.17525">
        <ele>1842</ele>
        <time>2021-12-17T08:34:44Z</time>
      </trkpt>
      <trkpt lat="45.30174" lon="6.17524">
        <ele>1842.6</ele>
        <time>2021-12-17T08:34:46Z</time>
      </trkpt>
      <trkpt lat="45.30173" lon="6.17519">
        <ele>1843.4</ele>
        <time>2021-12-17T08:34:51Z</time>
      </trkpt>
      <trkpt lat="45.30173" lon="6.17519">
        <ele>1843.8</ele>
        <time>2021-12-17T08:34:52Z</time>
      </trkpt>
      <trkpt lat="45.30172" lon="6.17515">
        <ele>1844.8</ele>
        <time>2021-12-17T08:34:57Z</time>
      </trkpt>
      <trkpt lat="45.30172" lon="6.17514">
        <ele>1845.6</ele>
        <time>2021-12-17T08:34:59Z</time>
      </trkpt>
      <trkpt lat="45.30172" lon="6.17513">
        <ele>1846</ele>
        <time>2021-12-17T08:35:00Z</time>
      </trkpt>
      <trkpt lat="45.30171" lon="6.17509">
        <ele>1847</ele>
        <time>2021-12-17T08:35:05Z</time>
      </trkpt>
      <trkpt lat="45.30171" lon="6.17507">
        <ele>1847.4</ele>
        <time>2021-12-17T08:35:08Z</time>
      </trkpt>
      <trkpt lat="45.30171" lon="6.17504">
        <ele>1848.4</ele>
        <time>2021-12-17T08:35:11Z</time>
      </trkpt>
      <trkpt lat="45.3017" lon="6.175">
        <ele>1849</ele>
        <time>2021-12-17T08:35:15Z</time>
      </trkpt>
      <trkpt lat="45.3017" lon="6.17499">
        <ele>1849.4</ele>
        <time>2021-12-17T08:35:17Z</time>
      </trkpt>
      <trkpt lat="45.30169" lon="6.17496">
        <ele>1850.2</ele>
        <time>2021-12-17T08:35:20Z</time>
      </trkpt>
      <trkpt lat="45.30169" lon="6.17493">
        <ele>1850.6</ele>
        <time>2021-12-17T08:35:22Z</time>
      </trkpt>
      <trkpt lat="45.30169" lon="6.1749">
        <ele>1851</ele>
        <time>2021-12-17T08:35:24Z</time>
      </trkpt>
      <trkpt lat="45.30169" lon="6.17487">
        <ele>1851.6</ele>
        <time>2021-12-17T08:35:27Z</time>
      </trkpt>
      <trkpt lat="45.30169" lon="6.17483">
        <ele>1852.6</ele>
        <time>2021-12-17T08:35:31Z</time>
      </trkpt>
      <trkpt lat="45.30169" lon="6.17482">
        <ele>1852.8</ele>
        <time>2021-12-17T08:35:32Z</time>
      </trkpt>
      <trkpt lat="45.30167" lon="6.17481">
        <ele>1853.2</ele>
        <time>2021-12-17T08:35:34Z</time>
      </trkpt>
      <trkpt lat="45.30167" lon="6.17479">
        <ele>1853.4</ele>
        <time>2021-12-17T08:35:36Z</time>
      </trkpt>
      <trkpt lat="45.30169" lon="6.17476">
        <ele>1854</ele>
        <time>2021-12-17T08:35:39Z</time>
      </trkpt>
      <trkpt lat="45.30168" lon="6.17475">
        <ele>1854.6</ele>
        <time>2021-12-17T08:35:42Z</time>
      </trkpt>
      <trkpt lat="45.30168" lon="6.17473">
        <ele>1855.2</ele>
        <time>2021-12-17T08:35:44Z</time>
      </trkpt>
      <trkpt lat="45.30167" lon="6.17469">
        <ele>1856.2</ele>
        <time>2021-12-17T08:35:48Z</time>
      </trkpt>
      <trkpt lat="45.30166" lon="6.17465">
        <ele>1857.2</ele>
        <time>2021-12-17T08:35:52Z</time>
      </trkpt>
      <trkpt lat="45.30166" lon="6.17465">
        <ele>1857.4</ele>
        <time>2021-12-17T08:35:53Z</time>
      </trkpt>
      <trkpt lat="45.30165" lon="6.1746">
        <ele>1858.4</ele>
        <time>2021-12-17T08:35:58Z</time>
      </trkpt>
      <trkpt lat="45.30165" lon="6.17458">
        <ele>1858.6</ele>
        <time>2021-12-17T08:36:00Z</time>
      </trkpt>
      <trkpt lat="45.30164" lon="6.17454">
        <ele>1859.4</ele>
        <time>2021-12-17T08:36:04Z</time>
      </trkpt>
      <trkpt lat="45.30164" lon="6.1745">
        <ele>1860.4</ele>
        <time>2021-12-17T08:36:08Z</time>
      </trkpt>
      <trkpt lat="45.30164" lon="6.17449">
        <ele>1860.6</ele>
        <time>2021-12-17T08:36:09Z</time>
      </trkpt>
      <trkpt lat="45.30164" lon="6.17448">
        <ele>1860.8</ele>
        <time>2021-12-17T08:36:10Z</time>
      </trkpt>
      <trkpt lat="45.30163" lon="6.17446">
        <ele>1861.8</ele>
        <time>2021-12-17T08:36:14Z</time>
      </trkpt>
      <trkpt lat="45.30162" lon="6.17442">
        <ele>1863</ele>
        <time>2021-12-17T08:36:19Z</time>
      </trkpt>
      <trkpt lat="45.30162" lon="6.17438">
        <ele>1864</ele>
        <time>2021-12-17T08:36:22Z</time>
      </trkpt>
      <trkpt lat="45.30162" lon="6.17437">
        <ele>1864</ele>
        <time>2021-12-17T08:36:23Z</time>
      </trkpt>
      <trkpt lat="45.30161" lon="6.17433">
        <ele>1865.2</ele>
        <time>2021-12-17T08:36:28Z</time>
      </trkpt>
      <trkpt lat="45.30161" lon="6.17431">
        <ele>1865.6</ele>
        <time>2021-12-17T08:36:30Z</time>
      </trkpt>
      <trkpt lat="45.30161" lon="6.17428">
        <ele>1866.4</ele>
        <time>2021-12-17T08:36:33Z</time>
      </trkpt>
      <trkpt lat="45.30163" lon="6.17423">
        <ele>1867.4</ele>
        <time>2021-12-17T08:36:38Z</time>
      </trkpt>
      <trkpt lat="45.30163" lon="6.17422">
        <ele>1867.6</ele>
        <time>2021-12-17T08:36:39Z</time>
      </trkpt>
      <trkpt lat="45.30163" lon="6.17414">
        <ele>1868.6</ele>
        <time>2021-12-17T08:36:44Z</time>
      </trkpt>
      <trkpt lat="45.30163" lon="6.17411">
        <ele>1869.6</ele>
        <time>2021-12-17T08:36:47Z</time>
      </trkpt>
      <trkpt lat="45.30163" lon="6.17411">
        <ele>1869.8</ele>
        <time>2021-12-17T08:36:48Z</time>
      </trkpt>
      <trkpt lat="45.30165" lon="6.17408">
        <ele>1871</ele>
        <time>2021-12-17T08:36:53Z</time>
      </trkpt>
      <trkpt lat="45.30165" lon="6.17402">
        <ele>1872</ele>
        <time>2021-12-17T08:36:58Z</time>
      </trkpt>
      <trkpt lat="45.30165" lon="6.17399">
        <ele>1872.8</ele>
        <time>2021-12-17T08:37:01Z</time>
      </trkpt>
      <trkpt lat="45.30165" lon="6.17398">
        <ele>1873.2</ele>
        <time>2021-12-17T08:37:02Z</time>
      </trkpt>
      <trkpt lat="45.30166" lon="6.17394">
        <ele>1874.4</ele>
        <time>2021-12-17T08:37:07Z</time>
      </trkpt>
      <trkpt lat="45.30167" lon="6.17391">
        <ele>1875.2</ele>
        <time>2021-12-17T08:37:10Z</time>
      </trkpt>
      <trkpt lat="45.30168" lon="6.1739">
        <ele>1875.4</ele>
        <time>2021-12-17T08:37:11Z</time>
      </trkpt>
      <trkpt lat="45.30168" lon="6.17385">
        <ele>1876.6</ele>
        <time>2021-12-17T08:37:16Z</time>
      </trkpt>
      <trkpt lat="45.30169" lon="6.17384">
        <ele>1877</ele>
        <time>2021-12-17T08:37:17Z</time>
      </trkpt>
      <trkpt lat="45.3017" lon="6.17383">
        <ele>1878</ele>
        <time>2021-12-17T08:37:20Z</time>
      </trkpt>
      <trkpt lat="45.3017" lon="6.17383">
        <ele>1878.4</ele>
        <time>2021-12-17T08:37:22Z</time>
      </trkpt>
      <trkpt lat="45.30168" lon="6.17385">
        <ele>1879</ele>
        <time>2021-12-17T08:37:25Z</time>
      </trkpt>
      <trkpt lat="45.30167" lon="6.17385">
        <ele>1879.6</ele>
        <time>2021-12-17T08:37:28Z</time>
      </trkpt>
      <trkpt lat="45.30165" lon="6.17384">
        <ele>1880.2</ele>
        <time>2021-12-17T08:37:31Z</time>
      </trkpt>
      <trkpt lat="45.30162" lon="6.17383">
        <ele>1881</ele>
        <time>2021-12-17T08:37:35Z</time>
      </trkpt>
      <trkpt lat="45.3016" lon="6.17383">
        <ele>1881.2</ele>
        <time>2021-12-17T08:37:37Z</time>
      </trkpt>
      <trkpt lat="45.30156" lon="6.17382">
        <ele>1882.6</ele>
        <time>2021-12-17T08:37:42Z</time>
      </trkpt>
      <trkpt lat="45.30154" lon="6.17382">
        <ele>1883.2</ele>
        <time>2021-12-17T08:37:45Z</time>
      </trkpt>
      <trkpt lat="45.3015" lon="6.17382">
        <ele>1883.6</ele>
        <time>2021-12-17T08:37:49Z</time>
      </trkpt>
      <trkpt lat="45.30148" lon="6.17381">
        <ele>1884.6</ele>
        <time>2021-12-17T08:37:52Z</time>
      </trkpt>
      <trkpt lat="45.30145" lon="6.1738">
        <ele>1885.8</ele>
        <time>2021-12-17T08:37:56Z</time>
      </trkpt>
      <trkpt lat="45.30142" lon="6.17378">
        <ele>1886.6</ele>
        <time>2021-12-17T08:38:00Z</time>
      </trkpt>
      <trkpt lat="45.30142" lon="6.17377">
        <ele>1886.8</ele>
        <time>2021-12-17T08:38:01Z</time>
      </trkpt>
      <trkpt lat="45.30138" lon="6.17375">
        <ele>1888</ele>
        <time>2021-12-17T08:38:06Z</time>
      </trkpt>
      <trkpt lat="45.30134" lon="6.17373">
        <ele>1889</ele>
        <time>2021-12-17T08:38:10Z</time>
      </trkpt>
      <trkpt lat="45.30131" lon="6.1737">
        <ele>1890.2</ele>
        <time>2021-12-17T08:38:15Z</time>
      </trkpt>
      <trkpt lat="45.3013" lon="6.1737">
        <ele>1890.6</ele>
        <time>2021-12-17T08:38:16Z</time>
      </trkpt>
      <trkpt lat="45.30127" lon="6.17369">
        <ele>1891.4</ele>
        <time>2021-12-17T08:38:19Z</time>
      </trkpt>
      <trkpt lat="45.30125" lon="6.17367">
        <ele>1892.4</ele>
        <time>2021-12-17T08:38:23Z</time>
      </trkpt>
      <trkpt lat="45.30122" lon="6.17367">
        <ele>1892.8</ele>
        <time>2021-12-17T08:38:26Z</time>
      </trkpt>
      <trkpt lat="45.30121" lon="6.17366">
        <ele>1893.4</ele>
        <time>2021-12-17T08:38:28Z</time>
      </trkpt>
      <trkpt lat="45.30118" lon="6.17365">
        <ele>1894.6</ele>
        <time>2021-12-17T08:38:32Z</time>
      </trkpt>
      <trkpt lat="45.30117" lon="6.17364">
        <ele>1894.6</ele>
        <time>2021-12-17T08:38:33Z</time>
      </trkpt>
      <trkpt lat="45.30118" lon="6.1736">
        <ele>1894.8</ele>
        <time>2021-12-17T08:38:38Z</time>
      </trkpt>
      <trkpt lat="45.30119" lon="6.17355">
        <ele>1895.6</ele>
        <time>2021-12-17T08:38:42Z</time>
      </trkpt>
      <trkpt lat="45.3012" lon="6.17351">
        <ele>1896.2</ele>
        <time>2021-12-17T08:38:46Z</time>
      </trkpt>
      <trkpt lat="45.3012" lon="6.17349">
        <ele>1896.6</ele>
        <time>2021-12-17T08:38:48Z</time>
      </trkpt>
      <trkpt lat="45.30121" lon="6.17346">
        <ele>1897.6</ele>
        <time>2021-12-17T08:38:51Z</time>
      </trkpt>
      <trkpt lat="45.30121" lon="6.17345">
        <ele>1898</ele>
        <time>2021-12-17T08:38:52Z</time>
      </trkpt>
      <trkpt lat="45.30124" lon="6.17342">
        <ele>1898.8</ele>
        <time>2021-12-17T08:38:56Z</time>
      </trkpt>
      <trkpt lat="45.30125" lon="6.17338">
        <ele>1899.8</ele>
        <time>2021-12-17T08:39:00Z</time>
      </trkpt>
      <trkpt lat="45.30126" lon="6.17337">
        <ele>1900.2</ele>
        <time>2021-12-17T08:39:01Z</time>
      </trkpt>
      <trkpt lat="45.30126" lon="6.17335">
        <ele>1900.8</ele>
        <time>2021-12-17T08:39:03Z</time>
      </trkpt>
      <trkpt lat="45.30126" lon="6.17333">
        <ele>1901</ele>
        <time>2021-12-17T08:39:04Z</time>
      </trkpt>
      <trkpt lat="45.30128" lon="6.17328">
        <ele>1902</ele>
        <time>2021-12-17T08:39:08Z</time>
      </trkpt>
      <trkpt lat="45.30129" lon="6.17327">
        <ele>1902.4</ele>
        <time>2021-12-17T08:39:09Z</time>
      </trkpt>
      <trkpt lat="45.30131" lon="6.17323">
        <ele>1903.8</ele>
        <time>2021-12-17T08:39:14Z</time>
      </trkpt>
      <trkpt lat="45.30132" lon="6.1732">
        <ele>1904.2</ele>
        <time>2021-12-17T08:39:16Z</time>
      </trkpt>
      <trkpt lat="45.30133" lon="6.17318">
        <ele>1904.8</ele>
        <time>2021-12-17T08:39:18Z</time>
      </trkpt>
      <trkpt lat="45.30135" lon="6.17313">
        <ele>1905.6</ele>
        <time>2021-12-17T08:39:23Z</time>
      </trkpt>
      <trkpt lat="45.30136" lon="6.17311">
        <ele>1906</ele>
        <time>2021-12-17T08:39:25Z</time>
      </trkpt>
      <trkpt lat="45.30138" lon="6.17306">
        <ele>1907.4</ele>
        <time>2021-12-17T08:39:30Z</time>
      </trkpt>
      <trkpt lat="45.30139" lon="6.17305">
        <ele>1907.6</ele>
        <time>2021-12-17T08:39:31Z</time>
      </trkpt>
      <trkpt lat="45.30139" lon="6.17303">
        <ele>1908</ele>
        <time>2021-12-17T08:39:33Z</time>
      </trkpt>
      <trkpt lat="45.30139" lon="6.17301">
        <ele>1908.4</ele>
        <time>2021-12-17T08:39:35Z</time>
      </trkpt>
      <trkpt lat="45.3014" lon="6.17299">
        <ele>1909.6</ele>
        <time>2021-12-17T08:39:39Z</time>
      </trkpt>
      <trkpt lat="45.3014" lon="6.17299">
        <ele>1909.8</ele>
        <time>2021-12-17T08:39:40Z</time>
      </trkpt>
      <trkpt lat="45.3014" lon="6.17298">
        <ele>1910.6</ele>
        <time>2021-12-17T08:39:44Z</time>
      </trkpt>
      <trkpt lat="45.30139" lon="6.17298">
        <ele>1911.4</ele>
        <time>2021-12-17T08:39:47Z</time>
      </trkpt>
      <trkpt lat="45.30137" lon="6.17299">
        <ele>1911.8</ele>
        <time>2021-12-17T08:39:49Z</time>
      </trkpt>
      <trkpt lat="45.30136" lon="6.17297">
        <ele>1912.8</ele>
        <time>2021-12-17T08:39:52Z</time>
      </trkpt>
      <trkpt lat="45.30136" lon="6.17297">
        <ele>1913</ele>
        <time>2021-12-17T08:39:53Z</time>
      </trkpt>
      <trkpt lat="45.30132" lon="6.17296">
        <ele>1914.2</ele>
        <time>2021-12-17T08:39:58Z</time>
      </trkpt>
      <trkpt lat="45.30129" lon="6.17295">
        <ele>1915.2</ele>
        <time>2021-12-17T08:40:03Z</time>
      </trkpt>
      <trkpt lat="45.30126" lon="6.17294">
        <ele>1915.6</ele>
        <time>2021-12-17T08:40:06Z</time>
      </trkpt>
      <trkpt lat="45.30124" lon="6.17293">
        <ele>1916.4</ele>
        <time>2021-12-17T08:40:09Z</time>
      </trkpt>
      <trkpt lat="45.30122" lon="6.17292">
        <ele>1917</ele>
        <time>2021-12-17T08:40:12Z</time>
      </trkpt>
      <trkpt lat="45.30122" lon="6.17292">
        <ele>1917.4</ele>
        <time>2021-12-17T08:40:13Z</time>
      </trkpt>
      <trkpt lat="45.30117" lon="6.17291">
        <ele>1918.6</ele>
        <time>2021-12-17T08:40:19Z</time>
      </trkpt>
      <trkpt lat="45.30114" lon="6.1729">
        <ele>1919.6</ele>
        <time>2021-12-17T08:40:23Z</time>
      </trkpt>
      <trkpt lat="45.30112" lon="6.1729">
        <ele>1920</ele>
        <time>2021-12-17T08:40:25Z</time>
      </trkpt>
      <trkpt lat="45.30111" lon="6.17289">
        <ele>1920</ele>
        <time>2021-12-17T08:40:26Z</time>
      </trkpt>
      <trkpt lat="45.3011" lon="6.17289">
        <ele>1920.8</ele>
        <time>2021-12-17T08:40:28Z</time>
      </trkpt>
      <trkpt lat="45.30108" lon="6.17288">
        <ele>1921.2</ele>
        <time>2021-12-17T08:40:31Z</time>
      </trkpt>
      <trkpt lat="45.30106" lon="6.17288">
        <ele>1921.8</ele>
        <time>2021-12-17T08:40:33Z</time>
      </trkpt>
      <trkpt lat="45.30103" lon="6.17286">
        <ele>1922.8</ele>
        <time>2021-12-17T08:40:38Z</time>
      </trkpt>
      <trkpt lat="45.30102" lon="6.17285">
        <ele>1923</ele>
        <time>2021-12-17T08:40:39Z</time>
      </trkpt>
      <trkpt lat="45.30099" lon="6.17285">
        <ele>1924</ele>
        <time>2021-12-17T08:40:42Z</time>
      </trkpt>
      <trkpt lat="45.30096" lon="6.17284">
        <ele>1925.4</ele>
        <time>2021-12-17T08:40:47Z</time>
      </trkpt>
      <trkpt lat="45.30095" lon="6.17283">
        <ele>1925.8</ele>
        <time>2021-12-17T08:40:48Z</time>
      </trkpt>
      <trkpt lat="45.30093" lon="6.17282">
        <ele>1926.6</ele>
        <time>2021-12-17T08:40:51Z</time>
      </trkpt>
      <trkpt lat="45.30091" lon="6.1728">
        <ele>1926.8</ele>
        <time>2021-12-17T08:40:55Z</time>
      </trkpt>
      <trkpt lat="45.30092" lon="6.17271">
        <ele>1927.2</ele>
        <time>2021-12-17T08:41:01Z</time>
      </trkpt>
      <trkpt lat="45.30092" lon="6.17269">
        <ele>1927.6</ele>
        <time>2021-12-17T08:41:02Z</time>
      </trkpt>
      <trkpt lat="45.30094" lon="6.17262">
        <ele>1928.2</ele>
        <time>2021-12-17T08:41:08Z</time>
      </trkpt>
      <trkpt lat="45.30094" lon="6.1726">
        <ele>1929</ele>
        <time>2021-12-17T08:41:10Z</time>
      </trkpt>
      <trkpt lat="45.30096" lon="6.17257">
        <ele>1930.2</ele>
        <time>2021-12-17T08:41:13Z</time>
      </trkpt>
      <trkpt lat="45.30096" lon="6.17255">
        <ele>1931.4</ele>
        <time>2021-12-17T08:41:16Z</time>
      </trkpt>
      <trkpt lat="45.30096" lon="6.17255">
        <ele>1932</ele>
        <time>2021-12-17T08:41:18Z</time>
      </trkpt>
      <trkpt lat="45.30095" lon="6.17256">
        <ele>1932.6</ele>
        <time>2021-12-17T08:41:21Z</time>
      </trkpt>
      <trkpt lat="45.30092" lon="6.17256">
        <ele>1933.8</ele>
        <time>2021-12-17T08:41:26Z</time>
      </trkpt>
      <trkpt lat="45.30089" lon="6.17255">
        <ele>1934.8</ele>
        <time>2021-12-17T08:41:30Z</time>
      </trkpt>
      <trkpt lat="45.30087" lon="6.17254">
        <ele>1935.8</ele>
        <time>2021-12-17T08:41:34Z</time>
      </trkpt>
      <trkpt lat="45.30084" lon="6.17253">
        <ele>1937.2</ele>
        <time>2021-12-17T08:41:39Z</time>
      </trkpt>
      <trkpt lat="45.30083" lon="6.17252">
        <ele>1937.4</ele>
        <time>2021-12-17T08:41:41Z</time>
      </trkpt>
      <trkpt lat="45.3008" lon="6.17251">
        <ele>1938.2</ele>
        <time>2021-12-17T08:41:45Z</time>
      </trkpt>
      <trkpt lat="45.30078" lon="6.1725">
        <ele>1939</ele>
        <time>2021-12-17T08:41:48Z</time>
      </trkpt>
      <trkpt lat="45.30078" lon="6.1725">
        <ele>1939.4</ele>
        <time>2021-12-17T08:41:49Z</time>
      </trkpt>
      <trkpt lat="45.30075" lon="6.17248">
        <ele>1940.4</ele>
        <time>2021-12-17T08:41:53Z</time>
      </trkpt>
      <trkpt lat="45.30075" lon="6.17247">
        <ele>1940.6</ele>
        <time>2021-12-17T08:41:54Z</time>
      </trkpt>
      <trkpt lat="45.30072" lon="6.17245">
        <ele>1942</ele>
        <time>2021-12-17T08:41:59Z</time>
      </trkpt>
      <trkpt lat="45.30071" lon="6.17244">
        <ele>1942.4</ele>
        <time>2021-12-17T08:42:02Z</time>
      </trkpt>
      <trkpt lat="45.30069" lon="6.17244">
        <ele>1943</ele>
        <time>2021-12-17T08:42:04Z</time>
      </trkpt>
      <trkpt lat="45.30068" lon="6.17242">
        <ele>1943.2</ele>
        <time>2021-12-17T08:42:08Z</time>
      </trkpt>
      <trkpt lat="45.30065" lon="6.17241">
        <ele>1944</ele>
        <time>2021-12-17T08:42:13Z</time>
      </trkpt>
      <trkpt lat="45.30063" lon="6.1724">
        <ele>1944.8</ele>
        <time>2021-12-17T08:42:15Z</time>
      </trkpt>
      <trkpt lat="45.30062" lon="6.1724">
        <ele>1945.2</ele>
        <time>2021-12-17T08:42:16Z</time>
      </trkpt>
      <trkpt lat="45.30059" lon="6.17238">
        <ele>1946.2</ele>
        <time>2021-12-17T08:42:22Z</time>
      </trkpt>
      <trkpt lat="45.30057" lon="6.17238">
        <ele>1947.2</ele>
        <time>2021-12-17T08:42:25Z</time>
      </trkpt>
      <trkpt lat="45.30055" lon="6.17237">
        <ele>1947.8</ele>
        <time>2021-12-17T08:42:29Z</time>
      </trkpt>
      <trkpt lat="45.30052" lon="6.17236">
        <ele>1948.4</ele>
        <time>2021-12-17T08:42:33Z</time>
      </trkpt>
      <trkpt lat="45.3005" lon="6.17234">
        <ele>1949</ele>
        <time>2021-12-17T08:42:37Z</time>
      </trkpt>
      <trkpt lat="45.30049" lon="6.17233">
        <ele>1949.8</ele>
        <time>2021-12-17T08:42:39Z</time>
      </trkpt>
      <trkpt lat="45.30046" lon="6.17232">
        <ele>1950.8</ele>
        <time>2021-12-17T08:42:43Z</time>
      </trkpt>
      <trkpt lat="45.30044" lon="6.17232">
        <ele>1951.2</ele>
        <time>2021-12-17T08:42:46Z</time>
      </trkpt>
      <trkpt lat="45.30044" lon="6.17232">
        <ele>1951.8</ele>
        <time>2021-12-17T08:42:47Z</time>
      </trkpt>
      <trkpt lat="45.30042" lon="6.17231">
        <ele>1953</ele>
        <time>2021-12-17T08:42:52Z</time>
      </trkpt>
      <trkpt lat="45.30041" lon="6.1723">
        <ele>1953.2</ele>
        <time>2021-12-17T08:42:53Z</time>
      </trkpt>
      <trkpt lat="45.30038" lon="6.17228">
        <ele>1954</ele>
        <time>2021-12-17T08:42:58Z</time>
      </trkpt>
      <trkpt lat="45.30038" lon="6.17226">
        <ele>1953.6</ele>
        <time>2021-12-17T08:43:01Z</time>
      </trkpt>
      <trkpt lat="45.30039" lon="6.17217">
        <ele>1953.8</ele>
        <time>2021-12-17T08:43:09Z</time>
      </trkpt>
      <trkpt lat="45.3004" lon="6.17212">
        <ele>1955.2</ele>
        <time>2021-12-17T08:43:14Z</time>
      </trkpt>
      <trkpt lat="45.30041" lon="6.17207">
        <ele>1955.4</ele>
        <time>2021-12-17T08:43:19Z</time>
      </trkpt>
      <trkpt lat="45.30042" lon="6.17205">
        <ele>1956.4</ele>
        <time>2021-12-17T08:43:21Z</time>
      </trkpt>
      <trkpt lat="45.30042" lon="6.17201">
        <ele>1957.4</ele>
        <time>2021-12-17T08:43:24Z</time>
      </trkpt>
      <trkpt lat="45.30043" lon="6.17197">
        <ele>1958.6</ele>
        <time>2021-12-17T08:43:29Z</time>
      </trkpt>
      <trkpt lat="45.30044" lon="6.17187">
        <ele>1959.8</ele>
        <time>2021-12-17T08:43:38Z</time>
      </trkpt>
      <trkpt lat="45.30044" lon="6.17186">
        <ele>1960</ele>
        <time>2021-12-17T08:43:39Z</time>
      </trkpt>
      <trkpt lat="45.30044" lon="6.17185">
        <ele>1960.4</ele>
        <time>2021-12-17T08:43:40Z</time>
      </trkpt>
      <trkpt lat="45.30045" lon="6.17183">
        <ele>1960.8</ele>
        <time>2021-12-17T08:43:42Z</time>
      </trkpt>
      <trkpt lat="45.30046" lon="6.17178">
        <ele>1962.2</ele>
        <time>2021-12-17T08:43:47Z</time>
      </trkpt>
      <trkpt lat="45.30047" lon="6.17176">
        <ele>1963.4</ele>
        <time>2021-12-17T08:43:50Z</time>
      </trkpt>
      <trkpt lat="45.30049" lon="6.17172">
        <ele>1964.6</ele>
        <time>2021-12-17T08:43:55Z</time>
      </trkpt>
      <trkpt lat="45.3005" lon="6.17169">
        <ele>1965.2</ele>
        <time>2021-12-17T08:43:58Z</time>
      </trkpt>
      <trkpt lat="45.30051" lon="6.17167">
        <ele>1965.8</ele>
        <time>2021-12-17T08:44:00Z</time>
      </trkpt>
      <trkpt lat="45.30051" lon="6.17167">
        <ele>1965.8</ele>
        <time>2021-12-17T08:44:01Z</time>
      </trkpt>
      <trkpt lat="45.30054" lon="6.17161">
        <ele>1966.8</ele>
        <time>2021-12-17T08:44:08Z</time>
      </trkpt>
      <trkpt lat="45.30056" lon="6.1716">
        <ele>1967</ele>
        <time>2021-12-17T08:44:10Z</time>
      </trkpt>
      <trkpt lat="45.30059" lon="6.17157">
        <ele>1967.8</ele>
        <time>2021-12-17T08:44:14Z</time>
      </trkpt>
      <trkpt lat="45.30062" lon="6.17155">
        <ele>1968.4</ele>
        <time>2021-12-17T08:44:19Z</time>
      </trkpt>
      <trkpt lat="45.30062" lon="6.17154">
        <ele>1969.6</ele>
        <time>2021-12-17T08:44:21Z</time>
      </trkpt>
      <trkpt lat="45.30062" lon="6.17155">
        <ele>1970.8</ele>
        <time>2021-12-17T08:44:23Z</time>
      </trkpt>
      <trkpt lat="45.30061" lon="6.17155">
        <ele>1971.4</ele>
        <time>2021-12-17T08:44:24Z</time>
      </trkpt>
      <trkpt lat="45.30059" lon="6.17154">
        <ele>1972.2</ele>
        <time>2021-12-17T08:44:27Z</time>
      </trkpt>
      <trkpt lat="45.30057" lon="6.17152">
        <ele>1972.8</ele>
        <time>2021-12-17T08:44:31Z</time>
      </trkpt>
      <trkpt lat="45.30057" lon="6.17152">
        <ele>1973.2</ele>
        <time>2021-12-17T08:44:32Z</time>
      </trkpt>
      <trkpt lat="45.30053" lon="6.1715">
        <ele>1974.2</ele>
        <time>2021-12-17T08:44:38Z</time>
      </trkpt>
      <trkpt lat="45.30052" lon="6.1715">
        <ele>1974.6</ele>
        <time>2021-12-17T08:44:40Z</time>
      </trkpt>
      <trkpt lat="45.30051" lon="6.17148">
        <ele>1975.2</ele>
        <time>2021-12-17T08:44:43Z</time>
      </trkpt>
      <trkpt lat="45.30049" lon="6.17147">
        <ele>1975.6</ele>
        <time>2021-12-17T08:44:46Z</time>
      </trkpt>
      <trkpt lat="45.30047" lon="6.17144">
        <ele>1976.4</ele>
        <time>2021-12-17T08:44:51Z</time>
      </trkpt>
      <trkpt lat="45.30046" lon="6.17144">
        <ele>1976.6</ele>
        <time>2021-12-17T08:44:52Z</time>
      </trkpt>
      <trkpt lat="45.30044" lon="6.17143">
        <ele>1977.6</ele>
        <time>2021-12-17T08:44:57Z</time>
      </trkpt>
      <trkpt lat="45.30043" lon="6.17142">
        <ele>1978</ele>
        <time>2021-12-17T08:44:59Z</time>
      </trkpt>
      <trkpt lat="45.3004" lon="6.17139">
        <ele>1978.6</ele>
        <time>2021-12-17T08:45:03Z</time>
      </trkpt>
      <trkpt lat="45.30038" lon="6.17139">
        <ele>1979.4</ele>
        <time>2021-12-17T08:45:07Z</time>
      </trkpt>
      <trkpt lat="45.30037" lon="6.17139">
        <ele>1979.8</ele>
        <time>2021-12-17T08:45:09Z</time>
      </trkpt>
      <trkpt lat="45.30034" lon="6.17138">
        <ele>1981</ele>
        <time>2021-12-17T08:45:13Z</time>
      </trkpt>
      <trkpt lat="45.30032" lon="6.17138">
        <ele>1981.4</ele>
        <time>2021-12-17T08:45:15Z</time>
      </trkpt>
      <trkpt lat="45.3003" lon="6.17137">
        <ele>1982</ele>
        <time>2021-12-17T08:45:18Z</time>
      </trkpt>
      <trkpt lat="45.3003" lon="6.17136">
        <ele>1982.2</ele>
        <time>2021-12-17T08:45:19Z</time>
      </trkpt>
      <trkpt lat="45.30028" lon="6.17136">
        <ele>1983</ele>
        <time>2021-12-17T08:45:23Z</time>
      </trkpt>
      <trkpt lat="45.30027" lon="6.17135">
        <ele>1983.4</ele>
        <time>2021-12-17T08:45:24Z</time>
      </trkpt>
      <trkpt lat="45.30026" lon="6.17135">
        <ele>1984.4</ele>
        <time>2021-12-17T08:45:27Z</time>
      </trkpt>
      <trkpt lat="45.30025" lon="6.17135">
        <ele>1984.8</ele>
        <time>2021-12-17T08:45:29Z</time>
      </trkpt>
      <trkpt lat="45.30023" lon="6.17134">
        <ele>1985.8</ele>
        <time>2021-12-17T08:45:32Z</time>
      </trkpt>
      <trkpt lat="45.3002" lon="6.17133">
        <ele>1986.8</ele>
        <time>2021-12-17T08:45:38Z</time>
      </trkpt>
      <trkpt lat="45.30019" lon="6.17133">
        <ele>1986.8</ele>
        <time>2021-12-17T08:45:39Z</time>
      </trkpt>
      <trkpt lat="45.30017" lon="6.17132">
        <ele>1988</ele>
        <time>2021-12-17T08:45:42Z</time>
      </trkpt>
      <trkpt lat="45.30015" lon="6.17132">
        <ele>1989</ele>
        <time>2021-12-17T08:45:45Z</time>
      </trkpt>
      <trkpt lat="45.30015" lon="6.17132">
        <ele>1989.2</ele>
        <time>2021-12-17T08:45:46Z</time>
      </trkpt>
      <trkpt lat="45.30013" lon="6.17129">
        <ele>1990</ele>
        <time>2021-12-17T08:45:51Z</time>
      </trkpt>
      <trkpt lat="45.30013" lon="6.17127">
        <ele>1989.6</ele>
        <time>2021-12-17T08:45:53Z</time>
      </trkpt>
      <trkpt lat="45.30013" lon="6.17127">
        <ele>1989</ele>
        <time>2021-12-17T08:45:54Z</time>
      </trkpt>
      <trkpt lat="45.30013" lon="6.17126">
        <ele>1989.6</ele>
        <time>2021-12-17T08:46:00Z</time>
      </trkpt>
      <trkpt lat="45.30014" lon="6.1712">
        <ele>1989.2</ele>
        <time>2021-12-17T08:46:07Z</time>
      </trkpt>
      <trkpt lat="45.30015" lon="6.17116">
        <ele>1990.2</ele>
        <time>2021-12-17T08:46:10Z</time>
      </trkpt>
      <trkpt lat="45.30016" lon="6.1711">
        <ele>1991.2</ele>
        <time>2021-12-17T08:46:15Z</time>
      </trkpt>
      <trkpt lat="45.30016" lon="6.17105">
        <ele>1992.2</ele>
        <time>2021-12-17T08:46:20Z</time>
      </trkpt>
      <trkpt lat="45.30017" lon="6.17102">
        <ele>1993</ele>
        <time>2021-12-17T08:46:24Z</time>
      </trkpt>
      <trkpt lat="45.30018" lon="6.17101">
        <ele>1993.2</ele>
        <time>2021-12-17T08:46:25Z</time>
      </trkpt>
      <trkpt lat="45.30019" lon="6.17096">
        <ele>1994.4</ele>
        <time>2021-12-17T08:46:30Z</time>
      </trkpt>
      <trkpt lat="45.3002" lon="6.17092">
        <ele>1995.4</ele>
        <time>2021-12-17T08:46:34Z</time>
      </trkpt>
      <trkpt lat="45.30021" lon="6.1709">
        <ele>1996</ele>
        <time>2021-12-17T08:46:36Z</time>
      </trkpt>
      <trkpt lat="45.30022" lon="6.17086">
        <ele>1996.6</ele>
        <time>2021-12-17T08:46:39Z</time>
      </trkpt>
      <trkpt lat="45.30023" lon="6.17084">
        <ele>1996.8</ele>
        <time>2021-12-17T08:46:41Z</time>
      </trkpt>
      <trkpt lat="45.30024" lon="6.1708">
        <ele>1997.8</ele>
        <time>2021-12-17T08:46:45Z</time>
      </trkpt>
      <trkpt lat="45.30025" lon="6.17077">
        <ele>1998.6</ele>
        <time>2021-12-17T08:46:49Z</time>
      </trkpt>
      <trkpt lat="45.30025" lon="6.17076">
        <ele>1998.8</ele>
        <time>2021-12-17T08:46:50Z</time>
      </trkpt>
      <trkpt lat="45.30026" lon="6.17071">
        <ele>2000</ele>
        <time>2021-12-17T08:46:56Z</time>
      </trkpt>
      <trkpt lat="45.30026" lon="6.1707">
        <ele>2000.6</ele>
        <time>2021-12-17T08:46:58Z</time>
      </trkpt>
      <trkpt lat="45.30027" lon="6.17068">
        <ele>2001.2</ele>
        <time>2021-12-17T08:47:00Z</time>
      </trkpt>
      <trkpt lat="45.30028" lon="6.17066">
        <ele>2002.4</ele>
        <time>2021-12-17T08:47:05Z</time>
      </trkpt>
      <trkpt lat="45.30029" lon="6.17066">
        <ele>2003</ele>
        <time>2021-12-17T08:47:06Z</time>
      </trkpt>
      <trkpt lat="45.30028" lon="6.17066">
        <ele>2003.8</ele>
        <time>2021-12-17T08:47:08Z</time>
      </trkpt>
      <trkpt lat="45.30026" lon="6.17065">
        <ele>2004.8</ele>
        <time>2021-12-17T08:47:12Z</time>
      </trkpt>
      <trkpt lat="45.30026" lon="6.17065">
        <ele>2005</ele>
        <time>2021-12-17T08:47:13Z</time>
      </trkpt>
      <trkpt lat="45.30023" lon="6.17064">
        <ele>2006</ele>
        <time>2021-12-17T08:47:18Z</time>
      </trkpt>
      <trkpt lat="45.30022" lon="6.17063">
        <ele>2006.4</ele>
        <time>2021-12-17T08:47:20Z</time>
      </trkpt>
      <trkpt lat="45.3002" lon="6.17061">
        <ele>2007.2</ele>
        <time>2021-12-17T08:47:24Z</time>
      </trkpt>
      <trkpt lat="45.30016" lon="6.17061">
        <ele>2008</ele>
        <time>2021-12-17T08:47:29Z</time>
      </trkpt>
      <trkpt lat="45.30015" lon="6.17061">
        <ele>2008.2</ele>
        <time>2021-12-17T08:47:31Z</time>
      </trkpt>
      <trkpt lat="45.30013" lon="6.17061">
        <ele>2009.2</ele>
        <time>2021-12-17T08:47:34Z</time>
      </trkpt>
      <trkpt lat="45.30013" lon="6.17061">
        <ele>2009.4</ele>
        <time>2021-12-17T08:47:35Z</time>
      </trkpt>
      <trkpt lat="45.30011" lon="6.17059">
        <ele>2010.4</ele>
        <time>2021-12-17T08:47:38Z</time>
      </trkpt>
      <trkpt lat="45.3001" lon="6.17056">
        <ele>2011.2</ele>
        <time>2021-12-17T08:47:42Z</time>
      </trkpt>
      <trkpt lat="45.30009" lon="6.17056">
        <ele>2011.6</ele>
        <time>2021-12-17T08:47:44Z</time>
      </trkpt>
      <trkpt lat="45.30005" lon="6.17054">
        <ele>2012.8</ele>
        <time>2021-12-17T08:47:49Z</time>
      </trkpt>
      <trkpt lat="45.30005" lon="6.17053">
        <ele>2013</ele>
        <time>2021-12-17T08:47:50Z</time>
      </trkpt>
      <trkpt lat="45.30006" lon="6.17043">
        <ele>2013.6</ele>
        <time>2021-12-17T08:47:58Z</time>
      </trkpt>
      <trkpt lat="45.30006" lon="6.17041">
        <ele>2013.8</ele>
        <time>2021-12-17T08:48:00Z</time>
      </trkpt>
      <trkpt lat="45.30005" lon="6.17038">
        <ele>2015</ele>
        <time>2021-12-17T08:48:05Z</time>
      </trkpt>
      <trkpt lat="45.30004" lon="6.17038">
        <ele>2015.2</ele>
        <time>2021-12-17T08:48:06Z</time>
      </trkpt>
      <trkpt lat="45.3" lon="6.17041">
        <ele>2016</ele>
        <time>2021-12-17T08:48:11Z</time>
      </trkpt>
      <trkpt lat="45.29999" lon="6.17042">
        <ele>2016.2</ele>
        <time>2021-12-17T08:48:13Z</time>
      </trkpt>
      <trkpt lat="45.29997" lon="6.17044">
        <ele>2017.2</ele>
        <time>2021-12-17T08:48:18Z</time>
      </trkpt>
      <trkpt lat="45.29997" lon="6.17044">
        <ele>2017.4</ele>
        <time>2021-12-17T08:48:19Z</time>
      </trkpt>
      <trkpt lat="45.29994" lon="6.17044">
        <ele>2018.4</ele>
        <time>2021-12-17T08:48:23Z</time>
      </trkpt>
      <trkpt lat="45.29993" lon="6.17044">
        <ele>2018.8</ele>
        <time>2021-12-17T08:48:25Z</time>
      </trkpt>
      <trkpt lat="45.29991" lon="6.17045">
        <ele>2019.4</ele>
        <time>2021-12-17T08:48:28Z</time>
      </trkpt>
      <trkpt lat="45.29987" lon="6.17048">
        <ele>2020.6</ele>
        <time>2021-12-17T08:48:33Z</time>
      </trkpt>
      <trkpt lat="45.29984" lon="6.17049">
        <ele>2021.6</ele>
        <time>2021-12-17T08:48:38Z</time>
      </trkpt>
      <trkpt lat="45.29983" lon="6.1705">
        <ele>2021.8</ele>
        <time>2021-12-17T08:48:39Z</time>
      </trkpt>
      <trkpt lat="45.29982" lon="6.17051">
        <ele>2022.4</ele>
        <time>2021-12-17T08:48:41Z</time>
      </trkpt>
      <trkpt lat="45.29982" lon="6.17051">
        <ele>2022.6</ele>
        <time>2021-12-17T08:48:42Z</time>
      </trkpt>
      <trkpt lat="45.29979" lon="6.17054">
        <ele>2024</ele>
        <time>2021-12-17T08:48:47Z</time>
      </trkpt>
      <trkpt lat="45.29977" lon="6.17056">
        <ele>2024.6</ele>
        <time>2021-12-17T08:48:49Z</time>
      </trkpt>
      <trkpt lat="45.29976" lon="6.17056">
        <ele>2025.2</ele>
        <time>2021-12-17T08:48:51Z</time>
      </trkpt>
      <trkpt lat="45.29973" lon="6.17058">
        <ele>2026.4</ele>
        <time>2021-12-17T08:48:55Z</time>
      </trkpt>
      <trkpt lat="45.29972" lon="6.17059">
        <ele>2027</ele>
        <time>2021-12-17T08:48:57Z</time>
      </trkpt>
      <trkpt lat="45.29971" lon="6.1706">
        <ele>2027.6</ele>
        <time>2021-12-17T08:49:00Z</time>
      </trkpt>
      <trkpt lat="45.2997" lon="6.17059">
        <ele>2028</ele>
        <time>2021-12-17T08:49:04Z</time>
      </trkpt>
      <trkpt lat="45.29969" lon="6.1706">
        <ele>2028.6</ele>
        <time>2021-12-17T08:49:06Z</time>
      </trkpt>
      <trkpt lat="45.29967" lon="6.1706">
        <ele>2029.6</ele>
        <time>2021-12-17T08:49:11Z</time>
      </trkpt>
      <trkpt lat="45.29967" lon="6.1706">
        <ele>2030</ele>
        <time>2021-12-17T08:49:13Z</time>
      </trkpt>
      <trkpt lat="45.29966" lon="6.1706">
        <ele>2030</ele>
        <time>2021-12-17T08:49:14Z</time>
      </trkpt>
      <trkpt lat="45.29964" lon="6.17062">
        <ele>2030.8</ele>
        <time>2021-12-17T08:49:17Z</time>
      </trkpt>
      <trkpt lat="45.29963" lon="6.17062">
        <ele>2031.6</ele>
        <time>2021-12-17T08:49:20Z</time>
      </trkpt>
      <trkpt lat="45.29963" lon="6.17063">
        <ele>2031.8</ele>
        <time>2021-12-17T08:49:21Z</time>
      </trkpt>
      <trkpt lat="45.29958" lon="6.17064">
        <ele>2033</ele>
        <time>2021-12-17T08:49:28Z</time>
      </trkpt>
      <trkpt lat="45.29957" lon="6.17064">
        <ele>2033.4</ele>
        <time>2021-12-17T08:49:29Z</time>
      </trkpt>
      <trkpt lat="45.29955" lon="6.17066">
        <ele>2034.2</ele>
        <time>2021-12-17T08:49:36Z</time>
      </trkpt>
      <trkpt lat="45.29954" lon="6.17067">
        <ele>2034.4</ele>
        <time>2021-12-17T08:49:37Z</time>
      </trkpt>
      <trkpt lat="45.29952" lon="6.17068">
        <ele>2035.4</ele>
        <time>2021-12-17T08:49:42Z</time>
      </trkpt>
      <trkpt lat="45.29948" lon="6.1707">
        <ele>2036.4</ele>
        <time>2021-12-17T08:49:47Z</time>
      </trkpt>
      <trkpt lat="45.29947" lon="6.17071">
        <ele>2036.6</ele>
        <time>2021-12-17T08:49:49Z</time>
      </trkpt>
      <trkpt lat="45.29946" lon="6.17071">
        <ele>2037.2</ele>
        <time>2021-12-17T08:49:51Z</time>
      </trkpt>
      <trkpt lat="45.29946" lon="6.17071">
        <ele>2037.6</ele>
        <time>2021-12-17T08:49:52Z</time>
      </trkpt>
      <trkpt lat="45.29944" lon="6.17071">
        <ele>2038.2</ele>
        <time>2021-12-17T08:49:55Z</time>
      </trkpt>
      <trkpt lat="45.29944" lon="6.1707">
        <ele>2037.8</ele>
        <time>2021-12-17T08:50:02Z</time>
      </trkpt>
      <trkpt lat="45.29945" lon="6.17063">
        <ele>2038.8</ele>
        <time>2021-12-17T08:50:11Z</time>
      </trkpt>
      <trkpt lat="45.29945" lon="6.17063">
        <ele>2039</ele>
        <time>2021-12-17T08:50:12Z</time>
      </trkpt>
      <trkpt lat="45.29946" lon="6.17058">
        <ele>2039.8</ele>
        <time>2021-12-17T08:50:17Z</time>
      </trkpt>
      <trkpt lat="45.29946" lon="6.17055">
        <ele>2040.4</ele>
        <time>2021-12-17T08:50:20Z</time>
      </trkpt>
      <trkpt lat="45.29947" lon="6.17051">
        <ele>2040.8</ele>
        <time>2021-12-17T08:50:24Z</time>
      </trkpt>
      <trkpt lat="45.29947" lon="6.17049">
        <ele>2042</ele>
        <time>2021-12-17T08:50:27Z</time>
      </trkpt>
      <trkpt lat="45.29948" lon="6.17048">
        <ele>2042.4</ele>
        <time>2021-12-17T08:50:28Z</time>
      </trkpt>
      <trkpt lat="45.29947" lon="6.17049">
        <ele>2043.2</ele>
        <time>2021-12-17T08:50:32Z</time>
      </trkpt>
      <trkpt lat="45.29947" lon="6.17049">
        <ele>2043.6</ele>
        <time>2021-12-17T08:50:34Z</time>
      </trkpt>
      <trkpt lat="45.29944" lon="6.1705">
        <ele>2044.2</ele>
        <time>2021-12-17T08:50:38Z</time>
      </trkpt>
      <trkpt lat="45.29943" lon="6.17051">
        <ele>2044.6</ele>
        <time>2021-12-17T08:50:40Z</time>
      </trkpt>
      <trkpt lat="45.29941" lon="6.17051">
        <ele>2045.4</ele>
        <time>2021-12-17T08:50:43Z</time>
      </trkpt>
      <trkpt lat="45.29939" lon="6.17051">
        <ele>2046.4</ele>
        <time>2021-12-17T08:50:47Z</time>
      </trkpt>
      <trkpt lat="45.29937" lon="6.17053">
        <ele>2047</ele>
        <time>2021-12-17T08:50:49Z</time>
      </trkpt>
      <trkpt lat="45.29935" lon="6.17053">
        <ele>2047.6</ele>
        <time>2021-12-17T08:50:52Z</time>
      </trkpt>
      <trkpt lat="45.29934" lon="6.17053">
        <ele>2048.2</ele>
        <time>2021-12-17T08:50:55Z</time>
      </trkpt>
      <trkpt lat="45.29935" lon="6.1705">
        <ele>2048.4</ele>
        <time>2021-12-17T08:51:01Z</time>
      </trkpt>
      <trkpt lat="45.29935" lon="6.17047">
        <ele>2048.6</ele>
        <time>2021-12-17T08:51:04Z</time>
      </trkpt>
      <trkpt lat="45.29936" lon="6.17043">
        <ele>2049.8</ele>
        <time>2021-12-17T08:51:09Z</time>
      </trkpt>
      <trkpt lat="45.29937" lon="6.17038">
        <ele>2050.8</ele>
        <time>2021-12-17T08:51:15Z</time>
      </trkpt>
      <trkpt lat="45.29937" lon="6.17034">
        <ele>2052</ele>
        <time>2021-12-17T08:51:18Z</time>
      </trkpt>
      <trkpt lat="45.29937" lon="6.17027">
        <ele>2053.2</ele>
        <time>2021-12-17T08:51:25Z</time>
      </trkpt>
      <trkpt lat="45.29938" lon="6.17023">
        <ele>2054.2</ele>
        <time>2021-12-17T08:51:29Z</time>
      </trkpt>
      <trkpt lat="45.29938" lon="6.17016">
        <ele>2055.4</ele>
        <time>2021-12-17T08:51:36Z</time>
      </trkpt>
      <trkpt lat="45.29939" lon="6.1701">
        <ele>2056.4</ele>
        <time>2021-12-17T08:51:42Z</time>
      </trkpt>
      <trkpt lat="45.29939" lon="6.17007">
        <ele>2057</ele>
        <time>2021-12-17T08:51:45Z</time>
      </trkpt>
      <trkpt lat="45.29939" lon="6.17005">
        <ele>2057.6</ele>
        <time>2021-12-17T08:51:47Z</time>
      </trkpt>
      <trkpt lat="45.2994" lon="6.16999">
        <ele>2058.6</ele>
        <time>2021-12-17T08:51:54Z</time>
      </trkpt>
      <trkpt lat="45.29941" lon="6.16988">
        <ele>2059.8</ele>
        <time>2021-12-17T08:52:03Z</time>
      </trkpt>
      <trkpt lat="45.29941" lon="6.16985">
        <ele>2060.4</ele>
        <time>2021-12-17T08:52:06Z</time>
      </trkpt>
      <trkpt lat="45.29942" lon="6.16982">
        <ele>2061</ele>
        <time>2021-12-17T08:52:09Z</time>
      </trkpt>
      <trkpt lat="45.29944" lon="6.16975">
        <ele>2062</ele>
        <time>2021-12-17T08:52:15Z</time>
      </trkpt>
      <trkpt lat="45.29944" lon="6.16973">
        <ele>2062.2</ele>
        <time>2021-12-17T08:52:17Z</time>
      </trkpt>
      <trkpt lat="45.29945" lon="6.16969">
        <ele>2063.2</ele>
        <time>2021-12-17T08:52:21Z</time>
      </trkpt>
      <trkpt lat="45.29947" lon="6.16965">
        <ele>2064.4</ele>
        <time>2021-12-17T08:52:25Z</time>
      </trkpt>
      <trkpt lat="45.29947" lon="6.16963">
        <ele>2064.8</ele>
        <time>2021-12-17T08:52:27Z</time>
      </trkpt>
      <trkpt lat="45.29948" lon="6.16961">
        <ele>2065.6</ele>
        <time>2021-12-17T08:52:30Z</time>
      </trkpt>
      <trkpt lat="45.29948" lon="6.16962">
        <ele>2066</ele>
        <time>2021-12-17T08:52:36Z</time>
      </trkpt>
      <trkpt lat="45.29948" lon="6.16964">
        <ele>2066.6</ele>
        <time>2021-12-17T08:52:41Z</time>
      </trkpt>
      <trkpt lat="45.29948" lon="6.16964">
        <ele>2066.6</ele>
        <time>2021-12-17T08:52:45Z</time>
      </trkpt>
      <trkpt lat="45.29948" lon="6.16964">
        <ele>2067.8</ele>
        <time>2021-12-17T08:52:53Z</time>
      </trkpt>
      <trkpt lat="45.29941" lon="6.16968">
        <ele>2069</ele>
        <time>2021-12-17T08:52:59Z</time>
      </trkpt>
      <trkpt lat="45.29937" lon="6.16969">
        <ele>2070</ele>
        <time>2021-12-17T08:53:03Z</time>
      </trkpt>
      <trkpt lat="45.29936" lon="6.16969">
        <ele>2070.4</ele>
        <time>2021-12-17T08:53:05Z</time>
      </trkpt>
      <trkpt lat="45.29935" lon="6.16969">
        <ele>2071.2</ele>
        <time>2021-12-17T08:53:08Z</time>
      </trkpt>
      <trkpt lat="45.29932" lon="6.1697">
        <ele>2072.2</ele>
        <time>2021-12-17T08:53:13Z</time>
      </trkpt>
      <trkpt lat="45.29931" lon="6.1697">
        <ele>2072.4</ele>
        <time>2021-12-17T08:53:14Z</time>
      </trkpt>
      <trkpt lat="45.29929" lon="6.16971">
        <ele>2073.6</ele>
        <time>2021-12-17T08:53:20Z</time>
      </trkpt>
      <trkpt lat="45.29928" lon="6.16972">
        <ele>2074</ele>
        <time>2021-12-17T08:53:23Z</time>
      </trkpt>
      <trkpt lat="45.29926" lon="6.16972">
        <ele>2074.6</ele>
        <time>2021-12-17T08:53:25Z</time>
      </trkpt>
      <trkpt lat="45.29926" lon="6.16973">
        <ele>2074.8</ele>
        <time>2021-12-17T08:53:26Z</time>
      </trkpt>
      <trkpt lat="45.29925" lon="6.16973">
        <ele>2075.2</ele>
        <time>2021-12-17T08:53:29Z</time>
      </trkpt>
      <trkpt lat="45.29925" lon="6.1697">
        <ele>2075</ele>
        <time>2021-12-17T08:53:35Z</time>
      </trkpt>
      <trkpt lat="45.29925" lon="6.16966">
        <ele>2075.8</ele>
        <time>2021-12-17T08:53:39Z</time>
      </trkpt>
      <trkpt lat="45.29925" lon="6.16962">
        <ele>2076.6</ele>
        <time>2021-12-17T08:53:43Z</time>
      </trkpt>
      <trkpt lat="45.29926" lon="6.16958">
        <ele>2077</ele>
        <time>2021-12-17T08:53:46Z</time>
      </trkpt>
      <trkpt lat="45.29926" lon="6.16954">
        <ele>2078</ele>
        <time>2021-12-17T08:53:50Z</time>
      </trkpt>
      <trkpt lat="45.29928" lon="6.16944">
        <ele>2079.2</ele>
        <time>2021-12-17T08:53:58Z</time>
      </trkpt>
      <trkpt lat="45.2993" lon="6.16938">
        <ele>2080.4</ele>
        <time>2021-12-17T08:54:04Z</time>
      </trkpt>
      <trkpt lat="45.29931" lon="6.16936">
        <ele>2080.4</ele>
        <time>2021-12-17T08:54:05Z</time>
      </trkpt>
      <trkpt lat="45.29932" lon="6.16933">
        <ele>2081.4</ele>
        <time>2021-12-17T08:54:09Z</time>
      </trkpt>
      <trkpt lat="45.29933" lon="6.16933">
        <ele>2082.2</ele>
        <time>2021-12-17T08:54:12Z</time>
      </trkpt>
      <trkpt lat="45.29933" lon="6.16934">
        <ele>2082.4</ele>
        <time>2021-12-17T08:54:14Z</time>
      </trkpt>
      <trkpt lat="45.29932" lon="6.16935">
        <ele>2083.6</ele>
        <time>2021-12-17T08:54:27Z</time>
      </trkpt>
      <trkpt lat="45.29929" lon="6.16935">
        <ele>2084.4</ele>
        <time>2021-12-17T08:54:30Z</time>
      </trkpt>
      <trkpt lat="45.29928" lon="6.16935">
        <ele>2084.6</ele>
        <time>2021-12-17T08:54:31Z</time>
      </trkpt>
      <trkpt lat="45.29921" lon="6.16936">
        <ele>2085.6</ele>
        <time>2021-12-17T08:54:37Z</time>
      </trkpt>
      <trkpt lat="45.2992" lon="6.16937">
        <ele>2086.2</ele>
        <time>2021-12-17T08:54:39Z</time>
      </trkpt>
      <trkpt lat="45.29919" lon="6.16938">
        <ele>2086.8</ele>
        <time>2021-12-17T08:54:41Z</time>
      </trkpt>
      <trkpt lat="45.29916" lon="6.16939">
        <ele>2087.8</ele>
        <time>2021-12-17T08:54:46Z</time>
      </trkpt>
      <trkpt lat="45.29916" lon="6.16939">
        <ele>2088.2</ele>
        <time>2021-12-17T08:54:47Z</time>
      </trkpt>
      <trkpt lat="45.29916" lon="6.16938">
        <ele>2088.6</ele>
        <time>2021-12-17T08:54:54Z</time>
      </trkpt>
      <trkpt lat="45.29916" lon="6.16936">
        <ele>2088.8</ele>
        <time>2021-12-17T08:54:56Z</time>
      </trkpt>
      <trkpt lat="45.29917" lon="6.16929">
        <ele>2089.8</ele>
        <time>2021-12-17T08:55:02Z</time>
      </trkpt>
      <trkpt lat="45.29917" lon="6.16928">
        <ele>2089.8</ele>
        <time>2021-12-17T08:55:03Z</time>
      </trkpt>
      <trkpt lat="45.29919" lon="6.16921">
        <ele>2091</ele>
        <time>2021-12-17T08:55:10Z</time>
      </trkpt>
      <trkpt lat="45.29919" lon="6.1692">
        <ele>2091.2</ele>
        <time>2021-12-17T08:55:11Z</time>
      </trkpt>
      <trkpt lat="45.2992" lon="6.16915">
        <ele>2092.2</ele>
        <time>2021-12-17T08:55:15Z</time>
      </trkpt>
      <trkpt lat="45.29921" lon="6.16912">
        <ele>2092.8</ele>
        <time>2021-12-17T08:55:18Z</time>
      </trkpt>
      <trkpt lat="45.29921" lon="6.1691">
        <ele>2093.4</ele>
        <time>2021-12-17T08:55:20Z</time>
      </trkpt>
      <trkpt lat="45.29923" lon="6.16906">
        <ele>2094.4</ele>
        <time>2021-12-17T08:55:25Z</time>
      </trkpt>
      <trkpt lat="45.29924" lon="6.16905">
        <ele>2094.6</ele>
        <time>2021-12-17T08:55:26Z</time>
      </trkpt>
      <trkpt lat="45.29925" lon="6.16904">
        <ele>2095.6</ele>
        <time>2021-12-17T08:55:29Z</time>
      </trkpt>
      <trkpt lat="45.29924" lon="6.16904">
        <ele>2096.6</ele>
        <time>2021-12-17T08:55:32Z</time>
      </trkpt>
      <trkpt lat="45.29923" lon="6.16904">
        <ele>2097.2</ele>
        <time>2021-12-17T08:55:34Z</time>
      </trkpt>
      <trkpt lat="45.29922" lon="6.16904">
        <ele>2097.8</ele>
        <time>2021-12-17T08:55:36Z</time>
      </trkpt>
      <trkpt lat="45.29918" lon="6.16904">
        <ele>2098.8</ele>
        <time>2021-12-17T08:55:42Z</time>
      </trkpt>
      <trkpt lat="45.29917" lon="6.16904">
        <ele>2099.2</ele>
        <time>2021-12-17T08:55:45Z</time>
      </trkpt>
      <trkpt lat="45.29915" lon="6.16904">
        <ele>2099.8</ele>
        <time>2021-12-17T08:55:47Z</time>
      </trkpt>
      <trkpt lat="45.29913" lon="6.16902">
        <ele>2100.4</ele>
        <time>2021-12-17T08:55:51Z</time>
      </trkpt>
      <trkpt lat="45.29912" lon="6.16903">
        <ele>2100.6</ele>
        <time>2021-12-17T08:55:52Z</time>
      </trkpt>
      <trkpt lat="45.29911" lon="6.16903">
        <ele>2101</ele>
        <time>2021-12-17T08:55:53Z</time>
      </trkpt>
      <trkpt lat="45.29909" lon="6.16903">
        <ele>2102</ele>
        <time>2021-12-17T08:55:58Z</time>
      </trkpt>
      <trkpt lat="45.29908" lon="6.16904">
        <ele>2102.2</ele>
        <time>2021-12-17T08:55:59Z</time>
      </trkpt>
      <trkpt lat="45.29908" lon="6.16903">
        <ele>2102.6</ele>
        <time>2021-12-17T08:56:05Z</time>
      </trkpt>
      <trkpt lat="45.2991" lon="6.16894">
        <ele>2103</ele>
        <time>2021-12-17T08:56:12Z</time>
      </trkpt>
      <trkpt lat="45.2991" lon="6.16893">
        <ele>2103.2</ele>
        <time>2021-12-17T08:56:13Z</time>
      </trkpt>
      <trkpt lat="45.29911" lon="6.16888">
        <ele>2104.4</ele>
        <time>2021-12-17T08:56:18Z</time>
      </trkpt>
      <trkpt lat="45.29911" lon="6.16888">
        <ele>2104.6</ele>
        <time>2021-12-17T08:56:19Z</time>
      </trkpt>
      <trkpt lat="45.29912" lon="6.16884">
        <ele>2105.6</ele>
        <time>2021-12-17T08:56:23Z</time>
      </trkpt>
      <trkpt lat="45.29912" lon="6.16881">
        <ele>2106.4</ele>
        <time>2021-12-17T08:56:26Z</time>
      </trkpt>
      <trkpt lat="45.29913" lon="6.16881">
        <ele>2106.6</ele>
        <time>2021-12-17T08:56:27Z</time>
      </trkpt>
      <trkpt lat="45.29914" lon="6.1688">
        <ele>2107.8</ele>
        <time>2021-12-17T08:56:30Z</time>
      </trkpt>
      <trkpt lat="45.29914" lon="6.1688">
        <ele>2108</ele>
        <time>2021-12-17T08:56:31Z</time>
      </trkpt>
      <trkpt lat="45.29914" lon="6.16881">
        <ele>2109</ele>
        <time>2021-12-17T08:56:35Z</time>
      </trkpt>
      <trkpt lat="45.29912" lon="6.1688">
        <ele>2110</ele>
        <time>2021-12-17T08:56:40Z</time>
      </trkpt>
      <trkpt lat="45.29911" lon="6.1688">
        <ele>2110</ele>
        <time>2021-12-17T08:56:41Z</time>
      </trkpt>
      <trkpt lat="45.29908" lon="6.1688">
        <ele>2111</ele>
        <time>2021-12-17T08:56:46Z</time>
      </trkpt>
      <trkpt lat="45.29907" lon="6.16881">
        <ele>2111.2</ele>
        <time>2021-12-17T08:56:47Z</time>
      </trkpt>
      <trkpt lat="45.29904" lon="6.16881">
        <ele>2112.2</ele>
        <time>2021-12-17T08:56:50Z</time>
      </trkpt>
      <trkpt lat="45.29903" lon="6.1688">
        <ele>2112.4</ele>
        <time>2021-12-17T08:56:53Z</time>
      </trkpt>
      <trkpt lat="45.299" lon="6.1688">
        <ele>2113.2</ele>
        <time>2021-12-17T08:56:58Z</time>
      </trkpt>
      <trkpt lat="45.29901" lon="6.16879">
        <ele>2113.4</ele>
        <time>2021-12-17T08:56:59Z</time>
      </trkpt>
      <trkpt lat="45.29903" lon="6.16871">
        <ele>2113.6</ele>
        <time>2021-12-17T08:57:06Z</time>
      </trkpt>
      <trkpt lat="45.29904" lon="6.16867">
        <ele>2114.4</ele>
        <time>2021-12-17T08:57:11Z</time>
      </trkpt>
      <trkpt lat="45.29905" lon="6.16864">
        <ele>2115.4</ele>
        <time>2021-12-17T08:57:14Z</time>
      </trkpt>
      <trkpt lat="45.29906" lon="6.16863">
        <ele>2116.4</ele>
        <time>2021-12-17T08:57:19Z</time>
      </trkpt>
      <trkpt lat="45.29905" lon="6.16864">
        <ele>2117.6</ele>
        <time>2021-12-17T08:57:22Z</time>
      </trkpt>
      <trkpt lat="45.29905" lon="6.16864">
        <ele>2118.2</ele>
        <time>2021-12-17T08:57:24Z</time>
      </trkpt>
      <trkpt lat="45.29903" lon="6.16864">
        <ele>2118.6</ele>
        <time>2021-12-17T08:57:28Z</time>
      </trkpt>
      <trkpt lat="45.29902" lon="6.16864">
        <ele>2118.8</ele>
        <time>2021-12-17T08:57:30Z</time>
      </trkpt>
      <trkpt lat="45.29899" lon="6.16864">
        <ele>2119.8</ele>
        <time>2021-12-17T08:57:34Z</time>
      </trkpt>
      <trkpt lat="45.29898" lon="6.16864">
        <ele>2120.4</ele>
        <time>2021-12-17T08:57:37Z</time>
      </trkpt>
      <trkpt lat="45.29897" lon="6.16862">
        <ele>2120.8</ele>
        <time>2021-12-17T08:57:39Z</time>
      </trkpt>
      <trkpt lat="45.29898" lon="6.1686">
        <ele>2121</ele>
        <time>2021-12-17T08:57:43Z</time>
      </trkpt>
      <trkpt lat="45.29898" lon="6.16859">
        <ele>2120.8</ele>
        <time>2021-12-17T08:57:49Z</time>
      </trkpt>
      <trkpt lat="45.29898" lon="6.16858">
        <ele>2120.8</ele>
        <time>2021-12-17T08:58:34Z</time>
      </trkpt>
      <trkpt lat="45.29904" lon="6.16857">
        <ele>2120.4</ele>
        <time>2021-12-17T08:59:10Z</time>
      </trkpt>
      <trkpt lat="45.29909" lon="6.16849">
        <ele>2122</ele>
        <time>2021-12-17T08:59:19Z</time>
      </trkpt>
      <trkpt lat="45.29906" lon="6.16848">
        <ele>2123.2</ele>
        <time>2021-12-17T08:59:23Z</time>
      </trkpt>
      <trkpt lat="45.29905" lon="6.16849">
        <ele>2123.8</ele>
        <time>2021-12-17T08:59:25Z</time>
      </trkpt>
      <trkpt lat="45.29903" lon="6.16848">
        <ele>2124.4</ele>
        <time>2021-12-17T08:59:27Z</time>
      </trkpt>
      <trkpt lat="45.299" lon="6.16846">
        <ele>2125.2</ele>
        <time>2021-12-17T08:59:31Z</time>
      </trkpt>
      <trkpt lat="45.29899" lon="6.16846">
        <ele>2125.6</ele>
        <time>2021-12-17T08:59:32Z</time>
      </trkpt>
      <trkpt lat="45.29897" lon="6.16844">
        <ele>2126.6</ele>
        <time>2021-12-17T08:59:37Z</time>
      </trkpt>
      <trkpt lat="45.29896" lon="6.16843">
        <ele>2127.2</ele>
        <time>2021-12-17T08:59:39Z</time>
      </trkpt>
      <trkpt lat="45.29893" lon="6.1684">
        <ele>2127.6</ele>
        <time>2021-12-17T08:59:45Z</time>
      </trkpt>
      <trkpt lat="45.29894" lon="6.16839">
        <ele>2127.6</ele>
        <time>2021-12-17T08:59:46Z</time>
      </trkpt>
      <trkpt lat="45.29896" lon="6.16834">
        <ele>2128.2</ele>
        <time>2021-12-17T08:59:53Z</time>
      </trkpt>
      <trkpt lat="45.29897" lon="6.16832">
        <ele>2128.8</ele>
        <time>2021-12-17T08:59:55Z</time>
      </trkpt>
      <trkpt lat="45.29898" lon="6.16828">
        <ele>2129.4</ele>
        <time>2021-12-17T08:59:58Z</time>
      </trkpt>
      <trkpt lat="45.29899" lon="6.16825">
        <ele>2130</ele>
        <time>2021-12-17T09:00:00Z</time>
      </trkpt>
      <trkpt lat="45.299" lon="6.16823">
        <ele>2130.4</ele>
        <time>2021-12-17T09:00:02Z</time>
      </trkpt>
      <trkpt lat="45.29901" lon="6.16819">
        <ele>2131</ele>
        <time>2021-12-17T09:00:05Z</time>
      </trkpt>
      <trkpt lat="45.29902" lon="6.16817">
        <ele>2131.4</ele>
        <time>2021-12-17T09:00:08Z</time>
      </trkpt>
      <trkpt lat="45.29902" lon="6.16815">
        <ele>2132.2</ele>
        <time>2021-12-17T09:00:10Z</time>
      </trkpt>
      <trkpt lat="45.29905" lon="6.16808">
        <ele>2133.2</ele>
        <time>2021-12-17T09:00:16Z</time>
      </trkpt>
      <trkpt lat="45.29905" lon="6.16808">
        <ele>2133.6</ele>
        <time>2021-12-17T09:00:17Z</time>
      </trkpt>
      <trkpt lat="45.29904" lon="6.16807">
        <ele>2134.8</ele>
        <time>2021-12-17T09:00:21Z</time>
      </trkpt>
      <trkpt lat="45.29904" lon="6.16807">
        <ele>2135.4</ele>
        <time>2021-12-17T09:00:22Z</time>
      </trkpt>
      <trkpt lat="45.29903" lon="6.16806">
        <ele>2135.8</ele>
        <time>2021-12-17T09:00:23Z</time>
      </trkpt>
      <trkpt lat="45.299" lon="6.16804">
        <ele>2136.8</ele>
        <time>2021-12-17T09:00:30Z</time>
      </trkpt>
      <trkpt lat="45.29897" lon="6.16805">
        <ele>2138</ele>
        <time>2021-12-17T09:00:35Z</time>
      </trkpt>
      <trkpt lat="45.29894" lon="6.16805">
        <ele>2138.4</ele>
        <time>2021-12-17T09:00:38Z</time>
      </trkpt>
      <trkpt lat="45.29892" lon="6.16806">
        <ele>2139</ele>
        <time>2021-12-17T09:00:42Z</time>
      </trkpt>
      <trkpt lat="45.29889" lon="6.16807">
        <ele>2140.2</ele>
        <time>2021-12-17T09:00:47Z</time>
      </trkpt>
      <trkpt lat="45.29888" lon="6.16807">
        <ele>2140.2</ele>
        <time>2021-12-17T09:00:48Z</time>
      </trkpt>
      <trkpt lat="45.29886" lon="6.16807">
        <ele>2141.2</ele>
        <time>2021-12-17T09:00:52Z</time>
      </trkpt>
      <trkpt lat="45.29882" lon="6.16808">
        <ele>2142.2</ele>
        <time>2021-12-17T09:00:56Z</time>
      </trkpt>
      <trkpt lat="45.29882" lon="6.16809">
        <ele>2142.2</ele>
        <time>2021-12-17T09:00:57Z</time>
      </trkpt>
      <trkpt lat="45.29878" lon="6.16807">
        <ele>2143.4</ele>
        <time>2021-12-17T09:01:03Z</time>
      </trkpt>
      <trkpt lat="45.29878" lon="6.16807">
        <ele>2143.4</ele>
        <time>2021-12-17T09:01:04Z</time>
      </trkpt>
      <trkpt lat="45.29879" lon="6.16798">
        <ele>2144.2</ele>
        <time>2021-12-17T09:01:12Z</time>
      </trkpt>
      <trkpt lat="45.29879" lon="6.16796">
        <ele>2144.6</ele>
        <time>2021-12-17T09:01:14Z</time>
      </trkpt>
      <trkpt lat="45.2988" lon="6.16791">
        <ele>2145.4</ele>
        <time>2021-12-17T09:01:19Z</time>
      </trkpt>
      <trkpt lat="45.2988" lon="6.16791">
        <ele>2145.6</ele>
        <time>2021-12-17T09:01:20Z</time>
      </trkpt>
      <trkpt lat="45.29881" lon="6.16788">
        <ele>2147</ele>
        <time>2021-12-17T09:01:24Z</time>
      </trkpt>
      <trkpt lat="45.29881" lon="6.16787">
        <ele>2147.2</ele>
        <time>2021-12-17T09:01:25Z</time>
      </trkpt>
      <trkpt lat="45.29883" lon="6.16784">
        <ele>2148.2</ele>
        <time>2021-12-17T09:01:30Z</time>
      </trkpt>
      <trkpt lat="45.29883" lon="6.16781">
        <ele>2149.4</ele>
        <time>2021-12-17T09:01:34Z</time>
      </trkpt>
      <trkpt lat="45.29884" lon="6.16775">
        <ele>2150.2</ele>
        <time>2021-12-17T09:01:39Z</time>
      </trkpt>
      <trkpt lat="45.29884" lon="6.16774">
        <ele>2150.4</ele>
        <time>2021-12-17T09:01:40Z</time>
      </trkpt>
      <trkpt lat="45.29885" lon="6.16768">
        <ele>2151</ele>
        <time>2021-12-17T09:01:44Z</time>
      </trkpt>
      <trkpt lat="45.29885" lon="6.16768">
        <ele>2151.8</ele>
        <time>2021-12-17T09:01:46Z</time>
      </trkpt>
      <trkpt lat="45.29883" lon="6.16767">
        <ele>2153</ele>
        <time>2021-12-17T09:01:49Z</time>
      </trkpt>
      <trkpt lat="45.29879" lon="6.16767">
        <ele>2154</ele>
        <time>2021-12-17T09:01:54Z</time>
      </trkpt>
      <trkpt lat="45.29877" lon="6.16768">
        <ele>2155</ele>
        <time>2021-12-17T09:01:57Z</time>
      </trkpt>
      <trkpt lat="45.29876" lon="6.16768">
        <ele>2155.2</ele>
        <time>2021-12-17T09:01:58Z</time>
      </trkpt>
      <trkpt lat="45.29874" lon="6.16767">
        <ele>2156.4</ele>
        <time>2021-12-17T09:02:02Z</time>
      </trkpt>
      <trkpt lat="45.29872" lon="6.16768">
        <ele>2157</ele>
        <time>2021-12-17T09:02:05Z</time>
      </trkpt>
      <trkpt lat="45.29871" lon="6.16768">
        <ele>2157.6</ele>
        <time>2021-12-17T09:02:07Z</time>
      </trkpt>
      <trkpt lat="45.29867" lon="6.16768">
        <ele>2158.8</ele>
        <time>2021-12-17T09:02:12Z</time>
      </trkpt>
      <trkpt lat="45.29867" lon="6.16769">
        <ele>2159</ele>
        <time>2021-12-17T09:02:13Z</time>
      </trkpt>
      <trkpt lat="45.29865" lon="6.16769">
        <ele>2159.4</ele>
        <time>2021-12-17T09:02:15Z</time>
      </trkpt>
      <trkpt lat="45.29864" lon="6.16769">
        <ele>2159.8</ele>
        <time>2021-12-17T09:02:18Z</time>
      </trkpt>
      <trkpt lat="45.29862" lon="6.1677">
        <ele>2160.2</ele>
        <time>2021-12-17T09:02:20Z</time>
      </trkpt>
      <trkpt lat="45.29861" lon="6.16771">
        <ele>2161</ele>
        <time>2021-12-17T09:02:23Z</time>
      </trkpt>
      <trkpt lat="45.29858" lon="6.16771">
        <ele>2161.6</ele>
        <time>2021-12-17T09:02:27Z</time>
      </trkpt>
      <trkpt lat="45.29858" lon="6.16769">
        <ele>2162.2</ele>
        <time>2021-12-17T09:02:30Z</time>
      </trkpt>
      <trkpt lat="45.29858" lon="6.16766">
        <ele>2162.6</ele>
        <time>2021-12-17T09:02:33Z</time>
      </trkpt>
      <trkpt lat="45.29858" lon="6.16761">
        <ele>2163.4</ele>
        <time>2021-12-17T09:02:37Z</time>
      </trkpt>
      <trkpt lat="45.29859" lon="6.16755">
        <ele>2164.4</ele>
        <time>2021-12-17T09:02:42Z</time>
      </trkpt>
      <trkpt lat="45.29859" lon="6.16754">
        <ele>2164.6</ele>
        <time>2021-12-17T09:02:43Z</time>
      </trkpt>
      <trkpt lat="45.2986" lon="6.16747">
        <ele>2165.6</ele>
        <time>2021-12-17T09:02:48Z</time>
      </trkpt>
      <trkpt lat="45.29861" lon="6.16743">
        <ele>2166.6</ele>
        <time>2021-12-17T09:02:52Z</time>
      </trkpt>
      <trkpt lat="45.29864" lon="6.16739">
        <ele>2167.8</ele>
        <time>2021-12-17T09:02:58Z</time>
      </trkpt>
      <trkpt lat="45.29864" lon="6.16739">
        <ele>2168.4</ele>
        <time>2021-12-17T09:02:59Z</time>
      </trkpt>
      <trkpt lat="45.29863" lon="6.1674">
        <ele>2169</ele>
        <time>2021-12-17T09:03:01Z</time>
      </trkpt>
      <trkpt lat="45.29862" lon="6.1674">
        <ele>2169.8</ele>
        <time>2021-12-17T09:03:03Z</time>
      </trkpt>
      <trkpt lat="45.29861" lon="6.1674">
        <ele>2170</ele>
        <time>2021-12-17T09:03:04Z</time>
      </trkpt>
      <trkpt lat="45.29859" lon="6.1674">
        <ele>2170.2</ele>
        <time>2021-12-17T09:03:06Z</time>
      </trkpt>
      <trkpt lat="45.29855" lon="6.16741">
        <ele>2171.2</ele>
        <time>2021-12-17T09:03:11Z</time>
      </trkpt>
      <trkpt lat="45.29854" lon="6.16741">
        <ele>2171.4</ele>
        <time>2021-12-17T09:03:12Z</time>
      </trkpt>
      <trkpt lat="45.29851" lon="6.16741">
        <ele>2172.2</ele>
        <time>2021-12-17T09:03:16Z</time>
      </trkpt>
      <trkpt lat="45.29848" lon="6.16743">
        <ele>2173.4</ele>
        <time>2021-12-17T09:03:21Z</time>
      </trkpt>
      <trkpt lat="45.29848" lon="6.1674">
        <ele>2173.8</ele>
        <time>2021-12-17T09:03:26Z</time>
      </trkpt>
      <trkpt lat="45.29849" lon="6.16735">
        <ele>2174</ele>
        <time>2021-12-17T09:03:31Z</time>
      </trkpt>
      <trkpt lat="45.2985" lon="6.16732">
        <ele>2174.4</ele>
        <time>2021-12-17T09:03:33Z</time>
      </trkpt>
      <trkpt lat="45.29852" lon="6.16726">
        <ele>2175.6</ele>
        <time>2021-12-17T09:03:40Z</time>
      </trkpt>
      <trkpt lat="45.29852" lon="6.16722">
        <ele>2176.8</ele>
        <time>2021-12-17T09:03:44Z</time>
      </trkpt>
      <trkpt lat="45.29852" lon="6.16721">
        <ele>2177.8</ele>
        <time>2021-12-17T09:03:48Z</time>
      </trkpt>
      <trkpt lat="45.29848" lon="6.16722">
        <ele>2179</ele>
        <time>2021-12-17T09:03:53Z</time>
      </trkpt>
      <trkpt lat="45.29846" lon="6.16723">
        <ele>2180</ele>
        <time>2021-12-17T09:03:57Z</time>
      </trkpt>
      <trkpt lat="45.29845" lon="6.16723">
        <ele>2180.2</ele>
        <time>2021-12-17T09:03:58Z</time>
      </trkpt>
      <trkpt lat="45.29843" lon="6.16724">
        <ele>2181.4</ele>
        <time>2021-12-17T09:04:03Z</time>
      </trkpt>
      <trkpt lat="45.29842" lon="6.16724">
        <ele>2181.8</ele>
        <time>2021-12-17T09:04:05Z</time>
      </trkpt>
      <trkpt lat="45.2984" lon="6.16725">
        <ele>2182.6</ele>
        <time>2021-12-17T09:04:08Z</time>
      </trkpt>
      <trkpt lat="45.2984" lon="6.16721">
        <ele>2183</ele>
        <time>2021-12-17T09:04:12Z</time>
      </trkpt>
      <trkpt lat="45.29842" lon="6.16712">
        <ele>2183.6</ele>
        <time>2021-12-17T09:04:20Z</time>
      </trkpt>
      <trkpt lat="45.29843" lon="6.16708">
        <ele>2184.6</ele>
        <time>2021-12-17T09:04:24Z</time>
      </trkpt>
      <trkpt lat="45.29844" lon="6.16701">
        <ele>2185.6</ele>
        <time>2021-12-17T09:04:30Z</time>
      </trkpt>
      <trkpt lat="45.29844" lon="6.167">
        <ele>2186</ele>
        <time>2021-12-17T09:04:31Z</time>
      </trkpt>
      <trkpt lat="45.29845" lon="6.16693">
        <ele>2186.6</ele>
        <time>2021-12-17T09:04:36Z</time>
      </trkpt>
      <trkpt lat="45.29845" lon="6.16692">
        <ele>2187.6</ele>
        <time>2021-12-17T09:04:38Z</time>
      </trkpt>
      <trkpt lat="45.29845" lon="6.16692">
        <ele>2188.2</ele>
        <time>2021-12-17T09:04:39Z</time>
      </trkpt>
      <trkpt lat="45.29843" lon="6.16693">
        <ele>2189.2</ele>
        <time>2021-12-17T09:04:43Z</time>
      </trkpt>
      <trkpt lat="45.29842" lon="6.16693">
        <ele>2189.4</ele>
        <time>2021-12-17T09:04:44Z</time>
      </trkpt>
      <trkpt lat="45.29838" lon="6.16695">
        <ele>2190.2</ele>
        <time>2021-12-17T09:04:49Z</time>
      </trkpt>
      <trkpt lat="45.29838" lon="6.16694">
        <ele>2190.4</ele>
        <time>2021-12-17T09:04:50Z</time>
      </trkpt>
      <trkpt lat="45.2984" lon="6.16686">
        <ele>2191.4</ele>
        <time>2021-12-17T09:04:58Z</time>
      </trkpt>
      <trkpt lat="45.29842" lon="6.16683">
        <ele>2192.6</ele>
        <time>2021-12-17T09:05:02Z</time>
      </trkpt>
      <trkpt lat="45.29842" lon="6.16682">
        <ele>2192.8</ele>
        <time>2021-12-17T09:05:03Z</time>
      </trkpt>
      <trkpt lat="45.29842" lon="6.16681">
        <ele>2193</ele>
        <time>2021-12-17T09:05:04Z</time>
      </trkpt>
      <trkpt lat="45.29843" lon="6.16677">
        <ele>2193.6</ele>
        <time>2021-12-17T09:05:07Z</time>
      </trkpt>
      <trkpt lat="45.29845" lon="6.16673">
        <ele>2194.8</ele>
        <time>2021-12-17T09:05:12Z</time>
      </trkpt>
      <trkpt lat="45.29845" lon="6.16672">
        <ele>2195.4</ele>
        <time>2021-12-17T09:05:13Z</time>
      </trkpt>
      <trkpt lat="45.29845" lon="6.16671">
        <ele>2196.2</ele>
        <time>2021-12-17T09:05:15Z</time>
      </trkpt>
      <trkpt lat="45.29844" lon="6.1667">
        <ele>2197.2</ele>
        <time>2021-12-17T09:05:18Z</time>
      </trkpt>
      <trkpt lat="45.29843" lon="6.16668">
        <ele>2198</ele>
        <time>2021-12-17T09:05:21Z</time>
      </trkpt>
      <trkpt lat="45.29842" lon="6.16669">
        <ele>2198.4</ele>
        <time>2021-12-17T09:05:22Z</time>
      </trkpt>
      <trkpt lat="45.29841" lon="6.16666">
        <ele>2199</ele>
        <time>2021-12-17T09:05:27Z</time>
      </trkpt>
      <trkpt lat="45.29841" lon="6.16661">
        <ele>2199.4</ele>
        <time>2021-12-17T09:05:32Z</time>
      </trkpt>
      <trkpt lat="45.29842" lon="6.1666">
        <ele>2199.6</ele>
        <time>2021-12-17T09:05:33Z</time>
      </trkpt>
      <trkpt lat="45.29844" lon="6.16655">
        <ele>2200.6</ele>
        <time>2021-12-17T09:05:36Z</time>
      </trkpt>
      <trkpt lat="45.29845" lon="6.1665">
        <ele>2201.8</ele>
        <time>2021-12-17T09:05:40Z</time>
      </trkpt>
      <trkpt lat="45.29845" lon="6.16649">
        <ele>2202</ele>
        <time>2021-12-17T09:05:41Z</time>
      </trkpt>
      <trkpt lat="45.29846" lon="6.16646">
        <ele>2203</ele>
        <time>2021-12-17T09:05:45Z</time>
      </trkpt>
      <trkpt lat="45.29846" lon="6.16642">
        <ele>2204.2</ele>
        <time>2021-12-17T09:05:49Z</time>
      </trkpt>
      <trkpt lat="45.29846" lon="6.1664">
        <ele>2204.8</ele>
        <time>2021-12-17T09:05:51Z</time>
      </trkpt>
      <trkpt lat="45.29846" lon="6.16639">
        <ele>2205.2</ele>
        <time>2021-12-17T09:05:53Z</time>
      </trkpt>
      <trkpt lat="45.29846" lon="6.16637">
        <ele>2205.6</ele>
        <time>2021-12-17T09:05:55Z</time>
      </trkpt>
      <trkpt lat="45.29846" lon="6.16634">
        <ele>2206.2</ele>
        <time>2021-12-17T09:05:59Z</time>
      </trkpt>
      <trkpt lat="45.29846" lon="6.16633">
        <ele>2206.6</ele>
        <time>2021-12-17T09:06:01Z</time>
      </trkpt>
      <trkpt lat="45.29846" lon="6.16631">
        <ele>2207.6</ele>
        <time>2021-12-17T09:06:04Z</time>
      </trkpt>
      <trkpt lat="45.29845" lon="6.16628">
        <ele>2208.4</ele>
        <time>2021-12-17T09:06:08Z</time>
      </trkpt>
      <trkpt lat="45.29844" lon="6.16627">
        <ele>2208.6</ele>
        <time>2021-12-17T09:06:09Z</time>
      </trkpt>
      <trkpt lat="45.29843" lon="6.16626">
        <ele>2209.6</ele>
        <time>2021-12-17T09:06:14Z</time>
      </trkpt>
      <trkpt lat="45.29843" lon="6.16626">
        <ele>2209.8</ele>
        <time>2021-12-17T09:06:15Z</time>
      </trkpt>
      <trkpt lat="45.29851" lon="6.16626">
        <ele>2210.8</ele>
        <time>2021-12-17T09:06:22Z</time>
      </trkpt>
      <trkpt lat="45.29852" lon="6.16626">
        <ele>2211</ele>
        <time>2021-12-17T09:06:23Z</time>
      </trkpt>
      <trkpt lat="45.29857" lon="6.16629">
        <ele>2211.8</ele>
        <time>2021-12-17T09:06:30Z</time>
      </trkpt>
      <trkpt lat="45.29858" lon="6.16629">
        <ele>2212</ele>
        <time>2021-12-17T09:06:31Z</time>
      </trkpt>
      <trkpt lat="45.29863" lon="6.16631">
        <ele>2213</ele>
        <time>2021-12-17T09:06:38Z</time>
      </trkpt>
      <trkpt lat="45.29864" lon="6.16631">
        <ele>2213.4</ele>
        <time>2021-12-17T09:06:40Z</time>
      </trkpt>
      <trkpt lat="45.29868" lon="6.16628">
        <ele>2214.2</ele>
        <time>2021-12-17T09:06:45Z</time>
      </trkpt>
      <trkpt lat="45.2987" lon="6.16624">
        <ele>2215</ele>
        <time>2021-12-17T09:06:50Z</time>
      </trkpt>
      <trkpt lat="45.2987" lon="6.16623">
        <ele>2215.4</ele>
        <time>2021-12-17T09:06:51Z</time>
      </trkpt>
      <trkpt lat="45.29869" lon="6.16619">
        <ele>2216.6</ele>
        <time>2021-12-17T09:06:55Z</time>
      </trkpt>
      <trkpt lat="45.29868" lon="6.16616">
        <ele>2217.4</ele>
        <time>2021-12-17T09:06:58Z</time>
      </trkpt>
      <trkpt lat="45.29868" lon="6.16615">
        <ele>2217.8</ele>
        <time>2021-12-17T09:06:59Z</time>
      </trkpt>
      <trkpt lat="45.2987" lon="6.16608">
        <ele>2218.8</ele>
        <time>2021-12-17T09:07:07Z</time>
      </trkpt>
      <trkpt lat="45.2987" lon="6.16607">
        <ele>2219.2</ele>
        <time>2021-12-17T09:07:08Z</time>
      </trkpt>
      <trkpt lat="45.2987" lon="6.16603">
        <ele>2220.2</ele>
        <time>2021-12-17T09:07:12Z</time>
      </trkpt>
      <trkpt lat="45.29869" lon="6.16599">
        <ele>2221.4</ele>
        <time>2021-12-17T09:07:16Z</time>
      </trkpt>
      <trkpt lat="45.29868" lon="6.16598">
        <ele>2221.6</ele>
        <time>2021-12-17T09:07:18Z</time>
      </trkpt>
      <trkpt lat="45.29868" lon="6.16596">
        <ele>2222.4</ele>
        <time>2021-12-17T09:07:39Z</time>
      </trkpt>
      <trkpt lat="45.29866" lon="6.16593">
        <ele>2223</ele>
        <time>2021-12-17T09:07:42Z</time>
      </trkpt>
      <trkpt lat="45.29864" lon="6.1659">
        <ele>2223.4</ele>
        <time>2021-12-17T09:07:45Z</time>
      </trkpt>
      <trkpt lat="45.29862" lon="6.16586">
        <ele>2224.4</ele>
        <time>2021-12-17T09:07:50Z</time>
      </trkpt>
      <trkpt lat="45.29862" lon="6.16585">
        <ele>2224.6</ele>
        <time>2021-12-17T09:07:51Z</time>
      </trkpt>
      <trkpt lat="45.2986" lon="6.1658">
        <ele>2225.8</ele>
        <time>2021-12-17T09:07:57Z</time>
      </trkpt>
      <trkpt lat="45.2986" lon="6.16577">
        <ele>2226.2</ele>
        <time>2021-12-17T09:07:59Z</time>
      </trkpt>
      <trkpt lat="45.29858" lon="6.16574">
        <ele>2226.8</ele>
        <time>2021-12-17T09:08:03Z</time>
      </trkpt>
      <trkpt lat="45.29855" lon="6.16566">
        <ele>2228</ele>
        <time>2021-12-17T09:08:11Z</time>
      </trkpt>
      <trkpt lat="45.29853" lon="6.16561">
        <ele>2229</ele>
        <time>2021-12-17T09:08:17Z</time>
      </trkpt>
      <trkpt lat="45.29852" lon="6.16557">
        <ele>2229.6</ele>
        <time>2021-12-17T09:08:21Z</time>
      </trkpt>
      <trkpt lat="45.29851" lon="6.16556">
        <ele>2230.2</ele>
        <time>2021-12-17T09:08:23Z</time>
      </trkpt>
      <trkpt lat="45.29849" lon="6.16551">
        <ele>2231.2</ele>
        <time>2021-12-17T09:08:28Z</time>
      </trkpt>
      <trkpt lat="45.29848" lon="6.16548">
        <ele>2231.8</ele>
        <time>2021-12-17T09:08:30Z</time>
      </trkpt>
      <trkpt lat="45.29846" lon="6.16541">
        <ele>2232.6</ele>
        <time>2021-12-17T09:08:36Z</time>
      </trkpt>
      <trkpt lat="45.29846" lon="6.1654">
        <ele>2233</ele>
        <time>2021-12-17T09:08:38Z</time>
      </trkpt>
      <trkpt lat="45.29845" lon="6.16537">
        <ele>2233.8</ele>
        <time>2021-12-17T09:08:41Z</time>
      </trkpt>
      <trkpt lat="45.29843" lon="6.16533">
        <ele>2234.8</ele>
        <time>2021-12-17T09:08:47Z</time>
      </trkpt>
      <trkpt lat="45.29842" lon="6.16533">
        <ele>2235</ele>
        <time>2021-12-17T09:08:48Z</time>
      </trkpt>
      <trkpt lat="45.2984" lon="6.1653">
        <ele>2236.2</ele>
        <time>2021-12-17T09:08:53Z</time>
      </trkpt>
      <trkpt lat="45.29838" lon="6.16525">
        <ele>2237.4</ele>
        <time>2021-12-17T09:08:58Z</time>
      </trkpt>
      <trkpt lat="45.29836" lon="6.16521">
        <ele>2238.4</ele>
        <time>2021-12-17T09:09:03Z</time>
      </trkpt>
      <trkpt lat="45.29835" lon="6.16518">
        <ele>2239</ele>
        <time>2021-12-17T09:09:06Z</time>
      </trkpt>
      <trkpt lat="45.29833" lon="6.16516">
        <ele>2239.6</ele>
        <time>2021-12-17T09:09:09Z</time>
      </trkpt>
      <trkpt lat="45.29831" lon="6.16516">
        <ele>2240.4</ele>
        <time>2021-12-17T09:09:12Z</time>
      </trkpt>
      <trkpt lat="45.2983" lon="6.16517">
        <ele>2240.8</ele>
        <time>2021-12-17T09:09:15Z</time>
      </trkpt>
      <trkpt lat="45.29828" lon="6.16519">
        <ele>2241.4</ele>
        <time>2021-12-17T09:09:18Z</time>
      </trkpt>
      <trkpt lat="45.29827" lon="6.16523">
        <ele>2242</ele>
        <time>2021-12-17T09:09:22Z</time>
      </trkpt>
      <trkpt lat="45.29827" lon="6.16526">
        <ele>2242.8</ele>
        <time>2021-12-17T09:09:25Z</time>
      </trkpt>
      <trkpt lat="45.29826" lon="6.16528">
        <ele>2243.2</ele>
        <time>2021-12-17T09:09:27Z</time>
      </trkpt>
      <trkpt lat="45.29824" lon="6.16533">
        <ele>2244.4</ele>
        <time>2021-12-17T09:09:33Z</time>
      </trkpt>
      <trkpt lat="45.29824" lon="6.16534">
        <ele>2244.4</ele>
        <time>2021-12-17T09:09:34Z</time>
      </trkpt>
      <trkpt lat="45.29821" lon="6.16538">
        <ele>2245.4</ele>
        <time>2021-12-17T09:09:39Z</time>
      </trkpt>
      <trkpt lat="45.29818" lon="6.16542">
        <ele>2246.4</ele>
        <time>2021-12-17T09:09:44Z</time>
      </trkpt>
      <trkpt lat="45.29818" lon="6.16542">
        <ele>2246.4</ele>
        <time>2021-12-17T09:09:45Z</time>
      </trkpt>
      <trkpt lat="45.29814" lon="6.16545">
        <ele>2247.6</ele>
        <time>2021-12-17T09:09:51Z</time>
      </trkpt>
      <trkpt lat="45.2981" lon="6.16547">
        <ele>2248.6</ele>
        <time>2021-12-17T09:09:56Z</time>
      </trkpt>
      <trkpt lat="45.2981" lon="6.16547">
        <ele>2248.8</ele>
        <time>2021-12-17T09:09:57Z</time>
      </trkpt>
      <trkpt lat="45.2981" lon="6.16544">
        <ele>2249.2</ele>
        <time>2021-12-17T09:10:02Z</time>
      </trkpt>
      <trkpt lat="45.29811" lon="6.16538">
        <ele>2249.8</ele>
        <time>2021-12-17T09:10:08Z</time>
      </trkpt>
      <trkpt lat="45.29811" lon="6.16536">
        <ele>2250.2</ele>
        <time>2021-12-17T09:10:10Z</time>
      </trkpt>
      <trkpt lat="45.29811" lon="6.16534">
        <ele>2251</ele>
        <time>2021-12-17T09:10:12Z</time>
      </trkpt>
      <trkpt lat="45.29812" lon="6.16529">
        <ele>2252.2</ele>
        <time>2021-12-17T09:10:18Z</time>
      </trkpt>
      <trkpt lat="45.29812" lon="6.16529">
        <ele>2252.8</ele>
        <time>2021-12-17T09:10:22Z</time>
      </trkpt>
      <trkpt lat="45.29812" lon="6.1653">
        <ele>2253.2</ele>
        <time>2021-12-17T09:10:25Z</time>
      </trkpt>
      <trkpt lat="45.2981" lon="6.16532">
        <ele>2253.6</ele>
        <time>2021-12-17T09:10:28Z</time>
      </trkpt>
      <trkpt lat="45.29807" lon="6.16535">
        <ele>2254.4</ele>
        <time>2021-12-17T09:10:32Z</time>
      </trkpt>
      <trkpt lat="45.29804" lon="6.16538">
        <ele>2255</ele>
        <time>2021-12-17T09:10:36Z</time>
      </trkpt>
      <trkpt lat="45.29801" lon="6.1654">
        <ele>2255.4</ele>
        <time>2021-12-17T09:10:39Z</time>
      </trkpt>
      <trkpt lat="45.29797" lon="6.16543">
        <ele>2256.6</ele>
        <time>2021-12-17T09:10:44Z</time>
      </trkpt>
      <trkpt lat="45.29794" lon="6.16544">
        <ele>2257.8</ele>
        <time>2021-12-17T09:10:49Z</time>
      </trkpt>
      <trkpt lat="45.29794" lon="6.16544">
        <ele>2257.8</ele>
        <time>2021-12-17T09:10:50Z</time>
      </trkpt>
      <trkpt lat="45.29794" lon="6.16533">
        <ele>2258.4</ele>
        <time>2021-12-17T09:10:58Z</time>
      </trkpt>
      <trkpt lat="45.29792" lon="6.16529">
        <ele>2259.2</ele>
        <time>2021-12-17T09:11:02Z</time>
      </trkpt>
      <trkpt lat="45.29791" lon="6.16528">
        <ele>2260</ele>
        <time>2021-12-17T09:11:05Z</time>
      </trkpt>
      <trkpt lat="45.2979" lon="6.16527">
        <ele>2260.4</ele>
        <time>2021-12-17T09:11:06Z</time>
      </trkpt>
      <trkpt lat="45.29788" lon="6.16525">
        <ele>2261.6</ele>
        <time>2021-12-17T09:11:10Z</time>
      </trkpt>
      <trkpt lat="45.29788" lon="6.16525">
        <ele>2262</ele>
        <time>2021-12-17T09:11:11Z</time>
      </trkpt>
      <trkpt lat="45.29786" lon="6.16524">
        <ele>2262.8</ele>
        <time>2021-12-17T09:11:14Z</time>
      </trkpt>
      <trkpt lat="45.29783" lon="6.16521">
        <ele>2263.8</ele>
        <time>2021-12-17T09:11:19Z</time>
      </trkpt>
      <trkpt lat="45.29782" lon="6.1652">
        <ele>2264</ele>
        <time>2021-12-17T09:11:20Z</time>
      </trkpt>
      <trkpt lat="45.29778" lon="6.16517">
        <ele>2265</ele>
        <time>2021-12-17T09:11:26Z</time>
      </trkpt>
      <trkpt lat="45.29778" lon="6.16516">
        <ele>2265.4</ele>
        <time>2021-12-17T09:11:27Z</time>
      </trkpt>
      <trkpt lat="45.29775" lon="6.16514">
        <ele>2266.4</ele>
        <time>2021-12-17T09:11:32Z</time>
      </trkpt>
      <trkpt lat="45.29774" lon="6.16513">
        <ele>2266.8</ele>
        <time>2021-12-17T09:11:33Z</time>
      </trkpt>
      <trkpt lat="45.29772" lon="6.16508">
        <ele>2267.8</ele>
        <time>2021-12-17T09:11:38Z</time>
      </trkpt>
      <trkpt lat="45.2977" lon="6.16506">
        <ele>2268.6</ele>
        <time>2021-12-17T09:11:41Z</time>
      </trkpt>
      <trkpt lat="45.29768" lon="6.16506">
        <ele>2269</ele>
        <time>2021-12-17T09:11:43Z</time>
      </trkpt>
      <trkpt lat="45.29766" lon="6.16508">
        <ele>2269.8</ele>
        <time>2021-12-17T09:11:48Z</time>
      </trkpt>
      <trkpt lat="45.29765" lon="6.16511">
        <ele>2270.2</ele>
        <time>2021-12-17T09:11:50Z</time>
      </trkpt>
      <trkpt lat="45.29762" lon="6.16513">
        <ele>2271.2</ele>
        <time>2021-12-17T09:11:55Z</time>
      </trkpt>
      <trkpt lat="45.29759" lon="6.16514">
        <ele>2272.2</ele>
        <time>2021-12-17T09:11:59Z</time>
      </trkpt>
      <trkpt lat="45.29757" lon="6.16513">
        <ele>2273</ele>
        <time>2021-12-17T09:12:02Z</time>
      </trkpt>
      <trkpt lat="45.29755" lon="6.16513">
        <ele>2273.2</ele>
        <time>2021-12-17T09:12:04Z</time>
      </trkpt>
      <trkpt lat="45.29752" lon="6.16511">
        <ele>2274.4</ele>
        <time>2021-12-17T09:12:10Z</time>
      </trkpt>
      <trkpt lat="45.29746" lon="6.16499">
        <ele>2275.4</ele>
        <time>2021-12-17T09:12:20Z</time>
      </trkpt>
      <trkpt lat="45.29746" lon="6.16498">
        <ele>2275.4</ele>
        <time>2021-12-17T09:12:21Z</time>
      </trkpt>
      <trkpt lat="45.29742" lon="6.16488">
        <ele>2276.2</ele>
        <time>2021-12-17T09:12:29Z</time>
      </trkpt>
      <trkpt lat="45.29742" lon="6.16487">
        <ele>2276.6</ele>
        <time>2021-12-17T09:12:31Z</time>
      </trkpt>
      <trkpt lat="45.2974" lon="6.16483">
        <ele>2277.6</ele>
        <time>2021-12-17T09:12:36Z</time>
      </trkpt>
      <trkpt lat="45.2974" lon="6.16482">
        <ele>2277.8</ele>
        <time>2021-12-17T09:12:37Z</time>
      </trkpt>
      <trkpt lat="45.29738" lon="6.16476">
        <ele>2279</ele>
        <time>2021-12-17T09:12:43Z</time>
      </trkpt>
      <trkpt lat="45.29739" lon="6.16474">
        <ele>2279.2</ele>
        <time>2021-12-17T09:12:45Z</time>
      </trkpt>
      <trkpt lat="45.29738" lon="6.16469">
        <ele>2279.6</ele>
        <time>2021-12-17T09:12:52Z</time>
      </trkpt>
      <trkpt lat="45.29738" lon="6.16467">
        <ele>2280.2</ele>
        <time>2021-12-17T09:12:56Z</time>
      </trkpt>
      <trkpt lat="45.29739" lon="6.16465">
        <ele>2280.6</ele>
        <time>2021-12-17T09:12:59Z</time>
      </trkpt>
      <trkpt lat="45.2974" lon="6.16461">
        <ele>2281.4</ele>
        <time>2021-12-17T09:13:03Z</time>
      </trkpt>
      <trkpt lat="45.2974" lon="6.16456">
        <ele>2282.4</ele>
        <time>2021-12-17T09:13:08Z</time>
      </trkpt>
      <trkpt lat="45.29739" lon="6.16455">
        <ele>2282.4</ele>
        <time>2021-12-17T09:13:09Z</time>
      </trkpt>
      <trkpt lat="45.29739" lon="6.16451">
        <ele>2283.6</ele>
        <time>2021-12-17T09:13:13Z</time>
      </trkpt>
      <trkpt lat="45.29739" lon="6.16448">
        <ele>2284.6</ele>
        <time>2021-12-17T09:13:16Z</time>
      </trkpt>
      <trkpt lat="45.29739" lon="6.16447">
        <ele>2284.8</ele>
        <time>2021-12-17T09:13:17Z</time>
      </trkpt>
      <trkpt lat="45.29739" lon="6.16444">
        <ele>2285.6</ele>
        <time>2021-12-17T09:13:20Z</time>
      </trkpt>
      <trkpt lat="45.29741" lon="6.16439">
        <ele>2286.8</ele>
        <time>2021-12-17T09:13:26Z</time>
      </trkpt>
      <trkpt lat="45.2974" lon="6.16439">
        <ele>2287.4</ele>
        <time>2021-12-17T09:13:28Z</time>
      </trkpt>
      <trkpt lat="45.29739" lon="6.16439">
        <ele>2287.8</ele>
        <time>2021-12-17T09:13:30Z</time>
      </trkpt>
      <trkpt lat="45.29738" lon="6.16439">
        <ele>2288.8</ele>
        <time>2021-12-17T09:13:34Z</time>
      </trkpt>
      <trkpt lat="45.29736" lon="6.16438">
        <ele>2289.2</ele>
        <time>2021-12-17T09:13:37Z</time>
      </trkpt>
      <trkpt lat="45.29735" lon="6.16437">
        <ele>2290</ele>
        <time>2021-12-17T09:13:40Z</time>
      </trkpt>
      <trkpt lat="45.29735" lon="6.16435">
        <ele>2290.4</ele>
        <time>2021-12-17T09:13:42Z</time>
      </trkpt>
      <trkpt lat="45.29736" lon="6.16429">
        <ele>2291</ele>
        <time>2021-12-17T09:13:48Z</time>
      </trkpt>
      <trkpt lat="45.29737" lon="6.16429">
        <ele>2291.4</ele>
        <time>2021-12-17T09:13:49Z</time>
      </trkpt>
      <trkpt lat="45.29736" lon="6.16428">
        <ele>2292.2</ele>
        <time>2021-12-17T09:13:51Z</time>
      </trkpt>
      <trkpt lat="45.29735" lon="6.16426">
        <ele>2293</ele>
        <time>2021-12-17T09:13:54Z</time>
      </trkpt>
      <trkpt lat="45.29734" lon="6.16425">
        <ele>2293.6</ele>
        <time>2021-12-17T09:13:56Z</time>
      </trkpt>
      <trkpt lat="45.29735" lon="6.16423">
        <ele>2294.6</ele>
        <time>2021-12-17T09:13:59Z</time>
      </trkpt>
      <trkpt lat="45.29735" lon="6.1642">
        <ele>2295</ele>
        <time>2021-12-17T09:14:02Z</time>
      </trkpt>
      <trkpt lat="45.29735" lon="6.16417">
        <ele>2295.6</ele>
        <time>2021-12-17T09:14:05Z</time>
      </trkpt>
      <trkpt lat="45.29735" lon="6.1641">
        <ele>2296.4</ele>
        <time>2021-12-17T09:14:11Z</time>
      </trkpt>
      <trkpt lat="45.29735" lon="6.16408">
        <ele>2296.8</ele>
        <time>2021-12-17T09:14:13Z</time>
      </trkpt>
      <trkpt lat="45.29736" lon="6.16404">
        <ele>2297.8</ele>
        <time>2021-12-17T09:14:18Z</time>
      </trkpt>
      <trkpt lat="45.29737" lon="6.16403">
        <ele>2298</ele>
        <time>2021-12-17T09:14:19Z</time>
      </trkpt>
      <trkpt lat="45.29739" lon="6.16398">
        <ele>2299</ele>
        <time>2021-12-17T09:14:25Z</time>
      </trkpt>
      <trkpt lat="45.29739" lon="6.16397">
        <ele>2299.2</ele>
        <time>2021-12-17T09:14:26Z</time>
      </trkpt>
      <trkpt lat="45.2974" lon="6.16394">
        <ele>2299.4</ele>
        <time>2021-12-17T09:14:28Z</time>
      </trkpt>
      <trkpt lat="45.29741" lon="6.16388">
        <ele>2300</ele>
        <time>2021-12-17T09:14:33Z</time>
      </trkpt>
      <trkpt lat="45.29741" lon="6.16387">
        <ele>2300</ele>
        <time>2021-12-17T09:14:34Z</time>
      </trkpt>
      <trkpt lat="45.29742" lon="6.16383">
        <ele>2301.2</ele>
        <time>2021-12-17T09:14:38Z</time>
      </trkpt>
      <trkpt lat="45.29742" lon="6.16382">
        <ele>2301.4</ele>
        <time>2021-12-17T09:14:39Z</time>
      </trkpt>
      <trkpt lat="45.29743" lon="6.16373">
        <ele>2302.4</ele>
        <time>2021-12-17T09:14:47Z</time>
      </trkpt>
      <trkpt lat="45.29742" lon="6.16372">
        <ele>2302.6</ele>
        <time>2021-12-17T09:14:48Z</time>
      </trkpt>
      <trkpt lat="45.29742" lon="6.16368">
        <ele>2303.8</ele>
        <time>2021-12-17T09:14:51Z</time>
      </trkpt>
      <trkpt lat="45.29742" lon="6.16364">
        <ele>2304.6</ele>
        <time>2021-12-17T09:14:55Z</time>
      </trkpt>
      <trkpt lat="45.29741" lon="6.16361">
        <ele>2304.8</ele>
        <time>2021-12-17T09:14:58Z</time>
      </trkpt>
      <trkpt lat="45.29741" lon="6.16357">
        <ele>2305.6</ele>
        <time>2021-12-17T09:15:02Z</time>
      </trkpt>
      <trkpt lat="45.29741" lon="6.16356">
        <ele>2306</ele>
        <time>2021-12-17T09:15:03Z</time>
      </trkpt>
      <trkpt lat="45.2974" lon="6.1635">
        <ele>2307</ele>
        <time>2021-12-17T09:15:09Z</time>
      </trkpt>
      <trkpt lat="45.2974" lon="6.16348">
        <ele>2307.4</ele>
        <time>2021-12-17T09:15:11Z</time>
      </trkpt>
      <trkpt lat="45.29739" lon="6.16344">
        <ele>2308</ele>
        <time>2021-12-17T09:15:14Z</time>
      </trkpt>
      <trkpt lat="45.29739" lon="6.16336">
        <ele>2309</ele>
        <time>2021-12-17T09:15:22Z</time>
      </trkpt>
      <trkpt lat="45.29738" lon="6.1633">
        <ele>2310.2</ele>
        <time>2021-12-17T09:15:28Z</time>
      </trkpt>
      <trkpt lat="45.29738" lon="6.16327">
        <ele>2311</ele>
        <time>2021-12-17T09:15:31Z</time>
      </trkpt>
      <trkpt lat="45.29737" lon="6.16326">
        <ele>2311.4</ele>
        <time>2021-12-17T09:15:33Z</time>
      </trkpt>
      <trkpt lat="45.29734" lon="6.16316">
        <ele>2312.6</ele>
        <time>2021-12-17T09:15:41Z</time>
      </trkpt>
      <trkpt lat="45.29733" lon="6.16308">
        <ele>2313.6</ele>
        <time>2021-12-17T09:15:48Z</time>
      </trkpt>
      <trkpt lat="45.29732" lon="6.16307">
        <ele>2314</ele>
        <time>2021-12-17T09:15:49Z</time>
      </trkpt>
      <trkpt lat="45.29731" lon="6.16304">
        <ele>2314.8</ele>
        <time>2021-12-17T09:15:52Z</time>
      </trkpt>
      <trkpt lat="45.2973" lon="6.16302">
        <ele>2315.6</ele>
        <time>2021-12-17T09:15:55Z</time>
      </trkpt>
      <trkpt lat="45.29729" lon="6.16301">
        <ele>2315.8</ele>
        <time>2021-12-17T09:15:57Z</time>
      </trkpt>
      <trkpt lat="45.29726" lon="6.163">
        <ele>2316.6</ele>
        <time>2021-12-17T09:16:01Z</time>
      </trkpt>
      <trkpt lat="45.29726" lon="6.163">
        <ele>2316.8</ele>
        <time>2021-12-17T09:16:02Z</time>
      </trkpt>
      <trkpt lat="45.29723" lon="6.16298">
        <ele>2318</ele>
        <time>2021-12-17T09:16:06Z</time>
      </trkpt>
      <trkpt lat="45.29722" lon="6.16297">
        <ele>2318.2</ele>
        <time>2021-12-17T09:16:07Z</time>
      </trkpt>
      <trkpt lat="45.29717" lon="6.16294">
        <ele>2319.2</ele>
        <time>2021-12-17T09:16:14Z</time>
      </trkpt>
      <trkpt lat="45.29715" lon="6.16294">
        <ele>2320.2</ele>
        <time>2021-12-17T09:16:17Z</time>
      </trkpt>
      <trkpt lat="45.29715" lon="6.16294">
        <ele>2320.4</ele>
        <time>2021-12-17T09:16:18Z</time>
      </trkpt>
      <trkpt lat="45.29712" lon="6.16295">
        <ele>2321.4</ele>
        <time>2021-12-17T09:16:23Z</time>
      </trkpt>
      <trkpt lat="45.29712" lon="6.16295">
        <ele>2321.4</ele>
        <time>2021-12-17T09:16:26Z</time>
      </trkpt>
      <trkpt lat="45.29713" lon="6.16289">
        <ele>2321.8</ele>
        <time>2021-12-17T09:16:35Z</time>
      </trkpt>
      <trkpt lat="45.29714" lon="6.16285">
        <ele>2322.2</ele>
        <time>2021-12-17T09:16:38Z</time>
      </trkpt>
      <trkpt lat="45.29714" lon="6.16284">
        <ele>2322.4</ele>
        <time>2021-12-17T09:16:39Z</time>
      </trkpt>
      <trkpt lat="45.29714" lon="6.16281">
        <ele>2322.8</ele>
        <time>2021-12-17T09:16:41Z</time>
      </trkpt>
      <trkpt lat="45.29716" lon="6.16277">
        <ele>2323.4</ele>
        <time>2021-12-17T09:16:44Z</time>
      </trkpt>
      <trkpt lat="45.29717" lon="6.16274">
        <ele>2324.6</ele>
        <time>2021-12-17T09:16:48Z</time>
      </trkpt>
      <trkpt lat="45.29717" lon="6.16273">
        <ele>2324.8</ele>
        <time>2021-12-17T09:16:49Z</time>
      </trkpt>
      <trkpt lat="45.29718" lon="6.16267">
        <ele>2326</ele>
        <time>2021-12-17T09:16:54Z</time>
      </trkpt>
      <trkpt lat="45.29719" lon="6.16264">
        <ele>2327</ele>
        <time>2021-12-17T09:16:58Z</time>
      </trkpt>
      <trkpt lat="45.29721" lon="6.16258">
        <ele>2328</ele>
        <time>2021-12-17T09:17:04Z</time>
      </trkpt>
      <trkpt lat="45.29722" lon="6.16254">
        <ele>2329</ele>
        <time>2021-12-17T09:17:09Z</time>
      </trkpt>
      <trkpt lat="45.29722" lon="6.16251">
        <ele>2330.2</ele>
        <time>2021-12-17T09:17:12Z</time>
      </trkpt>
      <trkpt lat="45.29723" lon="6.16248">
        <ele>2331.2</ele>
        <time>2021-12-17T09:17:16Z</time>
      </trkpt>
      <trkpt lat="45.29723" lon="6.16244">
        <ele>2332.2</ele>
        <time>2021-12-17T09:17:20Z</time>
      </trkpt>
      <trkpt lat="45.29725" lon="6.16241">
        <ele>2332.8</ele>
        <time>2021-12-17T09:17:24Z</time>
      </trkpt>
      <trkpt lat="45.29725" lon="6.16239">
        <ele>2333.2</ele>
        <time>2021-12-17T09:17:26Z</time>
      </trkpt>
      <trkpt lat="45.29726" lon="6.16234">
        <ele>2334</ele>
        <time>2021-12-17T09:17:31Z</time>
      </trkpt>
      <trkpt lat="45.29726" lon="6.16232">
        <ele>2334.4</ele>
        <time>2021-12-17T09:17:33Z</time>
      </trkpt>
      <trkpt lat="45.29727" lon="6.16227">
        <ele>2335.4</ele>
        <time>2021-12-17T09:17:38Z</time>
      </trkpt>
      <trkpt lat="45.29726" lon="6.16223">
        <ele>2336.6</ele>
        <time>2021-12-17T09:17:43Z</time>
      </trkpt>
      <trkpt lat="45.29727" lon="6.16219">
        <ele>2337.6</ele>
        <time>2021-12-17T09:17:47Z</time>
      </trkpt>
      <trkpt lat="45.29727" lon="6.16218">
        <ele>2337.8</ele>
        <time>2021-12-17T09:17:48Z</time>
      </trkpt>
      <trkpt lat="45.29728" lon="6.16213">
        <ele>2338.8</ele>
        <time>2021-12-17T09:17:54Z</time>
      </trkpt>
      <trkpt lat="45.29728" lon="6.16212">
        <ele>2339</ele>
        <time>2021-12-17T09:17:55Z</time>
      </trkpt>
      <trkpt lat="45.29729" lon="6.16209">
        <ele>2339.8</ele>
        <time>2021-12-17T09:17:59Z</time>
      </trkpt>
      <trkpt lat="45.2973" lon="6.16205">
        <ele>2340.8</ele>
        <time>2021-12-17T09:18:03Z</time>
      </trkpt>
      <trkpt lat="45.2973" lon="6.16204">
        <ele>2341</ele>
        <time>2021-12-17T09:18:04Z</time>
      </trkpt>
      <trkpt lat="45.29732" lon="6.16201">
        <ele>2342.2</ele>
        <time>2021-12-17T09:18:08Z</time>
      </trkpt>
      <trkpt lat="45.29732" lon="6.16199">
        <ele>2342.8</ele>
        <time>2021-12-17T09:18:10Z</time>
      </trkpt>
      <trkpt lat="45.29732" lon="6.16196">
        <ele>2343.4</ele>
        <time>2021-12-17T09:18:13Z</time>
      </trkpt>
      <trkpt lat="45.29733" lon="6.16192">
        <ele>2344.4</ele>
        <time>2021-12-17T09:18:18Z</time>
      </trkpt>
      <trkpt lat="45.29733" lon="6.16185">
        <ele>2345.4</ele>
        <time>2021-12-17T09:18:25Z</time>
      </trkpt>
      <trkpt lat="45.29733" lon="6.16184">
        <ele>2345.8</ele>
        <time>2021-12-17T09:18:26Z</time>
      </trkpt>
      <trkpt lat="45.29733" lon="6.1618">
        <ele>2346.6</ele>
        <time>2021-12-17T09:18:30Z</time>
      </trkpt>
      <trkpt lat="45.29734" lon="6.16177">
        <ele>2347.2</ele>
        <time>2021-12-17T09:18:33Z</time>
      </trkpt>
      <trkpt lat="45.29734" lon="6.16175">
        <ele>2347.6</ele>
        <time>2021-12-17T09:18:35Z</time>
      </trkpt>
      <trkpt lat="45.29735" lon="6.16174">
        <ele>2347.8</ele>
        <time>2021-12-17T09:18:36Z</time>
      </trkpt>
      <trkpt lat="45.29736" lon="6.1617">
        <ele>2348.8</ele>
        <time>2021-12-17T09:18:40Z</time>
      </trkpt>
      <trkpt lat="45.29736" lon="6.16166">
        <ele>2349.8</ele>
        <time>2021-12-17T09:18:44Z</time>
      </trkpt>
      <trkpt lat="45.29737" lon="6.16164">
        <ele>2350</ele>
        <time>2021-12-17T09:18:46Z</time>
      </trkpt>
      <trkpt lat="45.29737" lon="6.1616">
        <ele>2351.2</ele>
        <time>2021-12-17T09:18:51Z</time>
      </trkpt>
      <trkpt lat="45.29737" lon="6.1616">
        <ele>2351.4</ele>
        <time>2021-12-17T09:18:52Z</time>
      </trkpt>
      <trkpt lat="45.29738" lon="6.16156">
        <ele>2352.6</ele>
        <time>2021-12-17T09:18:56Z</time>
      </trkpt>
      <trkpt lat="45.29739" lon="6.16153">
        <ele>2353.6</ele>
        <time>2021-12-17T09:19:01Z</time>
      </trkpt>
      <trkpt lat="45.29739" lon="6.16148">
        <ele>2354.8</ele>
        <time>2021-12-17T09:19:06Z</time>
      </trkpt>
      <trkpt lat="45.29741" lon="6.16145">
        <ele>2355.8</ele>
        <time>2021-12-17T09:19:12Z</time>
      </trkpt>
      <trkpt lat="45.29741" lon="6.16146">
        <ele>2355.8</ele>
        <time>2021-12-17T09:19:14Z</time>
      </trkpt>
      <trkpt lat="45.2974" lon="6.16145">
        <ele>2355.8</ele>
        <time>2021-12-17T09:19:18Z</time>
      </trkpt>
      <trkpt lat="45.29745" lon="6.16149">
        <ele>2356.8</ele>
        <time>2021-12-17T09:20:10Z</time>
      </trkpt>
      <trkpt lat="45.29745" lon="6.16148">
        <ele>2358.2</ele>
        <time>2021-12-17T09:20:16Z</time>
      </trkpt>
      <trkpt lat="45.29745" lon="6.16146">
        <ele>2358.8</ele>
        <time>2021-12-17T09:20:20Z</time>
      </trkpt>
      <trkpt lat="45.29745" lon="6.16145">
        <ele>2359.2</ele>
        <time>2021-12-17T09:20:22Z</time>
      </trkpt>
      <trkpt lat="45.29746" lon="6.16141">
        <ele>2360.4</ele>
        <time>2021-12-17T09:20:27Z</time>
      </trkpt>
      <trkpt lat="45.29747" lon="6.16137">
        <ele>2361.6</ele>
        <time>2021-12-17T09:20:32Z</time>
      </trkpt>
      <trkpt lat="45.29747" lon="6.16132">
        <ele>2362.8</ele>
        <time>2021-12-17T09:20:38Z</time>
      </trkpt>
      <trkpt lat="45.29748" lon="6.16128">
        <ele>2363.8</ele>
        <time>2021-12-17T09:20:43Z</time>
      </trkpt>
      <trkpt lat="45.29748" lon="6.16124">
        <ele>2365</ele>
        <time>2021-12-17T09:20:48Z</time>
      </trkpt>
      <trkpt lat="45.2975" lon="6.1612">
        <ele>2366</ele>
        <time>2021-12-17T09:20:54Z</time>
      </trkpt>
      <trkpt lat="45.29751" lon="6.16113">
        <ele>2367.2</ele>
        <time>2021-12-17T09:21:04Z</time>
      </trkpt>
      <trkpt lat="45.29747" lon="6.16118">
        <ele>2367.8</ele>
        <time>2021-12-17T09:21:09Z</time>
      </trkpt>
      <trkpt lat="45.29743" lon="6.16122">
        <ele>2368.2</ele>
        <time>2021-12-17T09:21:14Z</time>
      </trkpt>
      <trkpt lat="45.29741" lon="6.16124">
        <ele>2368.6</ele>
        <time>2021-12-17T09:21:18Z</time>
      </trkpt>
      <trkpt lat="45.29738" lon="6.16127">
        <ele>2369.2</ele>
        <time>2021-12-17T09:21:22Z</time>
      </trkpt>
      <trkpt lat="45.29734" lon="6.16132">
        <ele>2369.8</ele>
        <time>2021-12-17T09:21:27Z</time>
      </trkpt>
      <trkpt lat="45.2973" lon="6.16135">
        <ele>2370.2</ele>
        <time>2021-12-17T09:21:32Z</time>
      </trkpt>
      <trkpt lat="45.29727" lon="6.16136">
        <ele>2370.6</ele>
        <time>2021-12-17T09:21:35Z</time>
      </trkpt>
      <trkpt lat="45.29724" lon="6.16136">
        <ele>2371.4</ele>
        <time>2021-12-17T09:21:39Z</time>
      </trkpt>
      <trkpt lat="45.29723" lon="6.16137">
        <ele>2371.8</ele>
        <time>2021-12-17T09:21:42Z</time>
      </trkpt>
      <trkpt lat="45.2972" lon="6.16138">
        <ele>2372.6</ele>
        <time>2021-12-17T09:21:46Z</time>
      </trkpt>
      <trkpt lat="45.29718" lon="6.16139">
        <ele>2373.2</ele>
        <time>2021-12-17T09:21:49Z</time>
      </trkpt>
      <trkpt lat="45.29717" lon="6.1614">
        <ele>2373.8</ele>
        <time>2021-12-17T09:21:51Z</time>
      </trkpt>
      <trkpt lat="45.29715" lon="6.16137">
        <ele>2374.8</ele>
        <time>2021-12-17T09:21:57Z</time>
      </trkpt>
      <trkpt lat="45.29716" lon="6.16128">
        <ele>2376</ele>
        <time>2021-12-17T09:22:05Z</time>
      </trkpt>
      <trkpt lat="45.29718" lon="6.16123">
        <ele>2377.2</ele>
        <time>2021-12-17T09:22:10Z</time>
      </trkpt>
      <trkpt lat="45.29719" lon="6.16119">
        <ele>2377.8</ele>
        <time>2021-12-17T09:22:14Z</time>
      </trkpt>
      <trkpt lat="45.29719" lon="6.16118">
        <ele>2378.2</ele>
        <time>2021-12-17T09:22:15Z</time>
      </trkpt>
      <trkpt lat="45.29718" lon="6.1611">
        <ele>2379.6</ele>
        <time>2021-12-17T09:22:22Z</time>
      </trkpt>
      <trkpt lat="45.29718" lon="6.16103">
        <ele>2380.6</ele>
        <time>2021-12-17T09:22:27Z</time>
      </trkpt>
      <trkpt lat="45.29719" lon="6.16097">
        <ele>2381.2</ele>
        <time>2021-12-17T09:22:31Z</time>
      </trkpt>
      <trkpt lat="45.29721" lon="6.16093">
        <ele>2381.8</ele>
        <time>2021-12-17T09:22:35Z</time>
      </trkpt>
      <trkpt lat="45.29721" lon="6.16091">
        <ele>2382.4</ele>
        <time>2021-12-17T09:22:37Z</time>
      </trkpt>
      <trkpt lat="45.29722" lon="6.16088">
        <ele>2382.8</ele>
        <time>2021-12-17T09:22:40Z</time>
      </trkpt>
      <trkpt lat="45.29723" lon="6.16083">
        <ele>2384</ele>
        <time>2021-12-17T09:22:45Z</time>
      </trkpt>
      <trkpt lat="45.29724" lon="6.16079">
        <ele>2385</ele>
        <time>2021-12-17T09:22:51Z</time>
      </trkpt>
      <trkpt lat="45.29724" lon="6.16078">
        <ele>2385.2</ele>
        <time>2021-12-17T09:22:52Z</time>
      </trkpt>
      <trkpt lat="45.29724" lon="6.16074">
        <ele>2386.2</ele>
        <time>2021-12-17T09:22:57Z</time>
      </trkpt>
      <trkpt lat="45.29725" lon="6.16072">
        <ele>2386.6</ele>
        <time>2021-12-17T09:22:59Z</time>
      </trkpt>
      <trkpt lat="45.29725" lon="6.16068">
        <ele>2387.6</ele>
        <time>2021-12-17T09:23:02Z</time>
      </trkpt>
      <trkpt lat="45.29724" lon="6.16063">
        <ele>2388.6</ele>
        <time>2021-12-17T09:23:07Z</time>
      </trkpt>
      <trkpt lat="45.29725" lon="6.16059">
        <ele>2389.6</ele>
        <time>2021-12-17T09:23:12Z</time>
      </trkpt>
      <trkpt lat="45.29727" lon="6.16056">
        <ele>2391</ele>
        <time>2021-12-17T09:23:17Z</time>
      </trkpt>
      <trkpt lat="45.29728" lon="6.16055">
        <ele>2391.2</ele>
        <time>2021-12-17T09:23:18Z</time>
      </trkpt>
      <trkpt lat="45.2973" lon="6.16052">
        <ele>2392.2</ele>
        <time>2021-12-17T09:23:23Z</time>
      </trkpt>
      <trkpt lat="45.29732" lon="6.16051">
        <ele>2393.2</ele>
        <time>2021-12-17T09:23:26Z</time>
      </trkpt>
      <trkpt lat="45.29733" lon="6.1605">
        <ele>2393.6</ele>
        <time>2021-12-17T09:23:28Z</time>
      </trkpt>
      <trkpt lat="45.29734" lon="6.16047">
        <ele>2394.4</ele>
        <time>2021-12-17T09:23:32Z</time>
      </trkpt>
      <trkpt lat="45.29736" lon="6.16044">
        <ele>2395.2</ele>
        <time>2021-12-17T09:23:36Z</time>
      </trkpt>
      <trkpt lat="45.29736" lon="6.16044">
        <ele>2395.4</ele>
        <time>2021-12-17T09:23:37Z</time>
      </trkpt>
      <trkpt lat="45.29739" lon="6.16038">
        <ele>2396.6</ele>
        <time>2021-12-17T09:23:43Z</time>
      </trkpt>
      <trkpt lat="45.2974" lon="6.16035">
        <ele>2397.4</ele>
        <time>2021-12-17T09:23:47Z</time>
      </trkpt>
      <trkpt lat="45.2974" lon="6.16034">
        <ele>2397.6</ele>
        <time>2021-12-17T09:23:48Z</time>
      </trkpt>
      <trkpt lat="45.29742" lon="6.1603">
        <ele>2398.8</ele>
        <time>2021-12-17T09:23:53Z</time>
      </trkpt>
      <trkpt lat="45.29743" lon="6.16028">
        <ele>2399</ele>
        <time>2021-12-17T09:23:55Z</time>
      </trkpt>
      <trkpt lat="45.29744" lon="6.16025">
        <ele>2400</ele>
        <time>2021-12-17T09:23:59Z</time>
      </trkpt>
      <trkpt lat="45.29746" lon="6.16021">
        <ele>2401</ele>
        <time>2021-12-17T09:24:04Z</time>
      </trkpt>
      <trkpt lat="45.29747" lon="6.16019">
        <ele>2401.6</ele>
        <time>2021-12-17T09:24:06Z</time>
      </trkpt>
      <trkpt lat="45.29748" lon="6.16017">
        <ele>2402.2</ele>
        <time>2021-12-17T09:24:09Z</time>
      </trkpt>
      <trkpt lat="45.29748" lon="6.16015">
        <ele>2403.2</ele>
        <time>2021-12-17T09:24:13Z</time>
      </trkpt>
      <trkpt lat="45.29748" lon="6.16015">
        <ele>2403.4</ele>
        <time>2021-12-17T09:24:14Z</time>
      </trkpt>
      <trkpt lat="45.29746" lon="6.16012">
        <ele>2404.4</ele>
        <time>2021-12-17T09:24:19Z</time>
      </trkpt>
      <trkpt lat="45.29745" lon="6.16011">
        <ele>2404.8</ele>
        <time>2021-12-17T09:24:21Z</time>
      </trkpt>
      <trkpt lat="45.29744" lon="6.16009">
        <ele>2405</ele>
        <time>2021-12-17T09:24:23Z</time>
      </trkpt>
      <trkpt lat="45.29743" lon="6.16006">
        <ele>2405.8</ele>
        <time>2021-12-17T09:24:26Z</time>
      </trkpt>
      <trkpt lat="45.29742" lon="6.16005">
        <ele>2406.2</ele>
        <time>2021-12-17T09:24:28Z</time>
      </trkpt>
      <trkpt lat="45.29741" lon="6.16003">
        <ele>2406.8</ele>
        <time>2021-12-17T09:24:30Z</time>
      </trkpt>
      <trkpt lat="45.29741" lon="6.15999">
        <ele>2407.2</ele>
        <time>2021-12-17T09:24:34Z</time>
      </trkpt>
      <trkpt lat="45.2974" lon="6.15997">
        <ele>2407.8</ele>
        <time>2021-12-17T09:24:36Z</time>
      </trkpt>
      <trkpt lat="45.29739" lon="6.15992">
        <ele>2408.8</ele>
        <time>2021-12-17T09:24:42Z</time>
      </trkpt>
      <trkpt lat="45.2974" lon="6.1599">
        <ele>2409</ele>
        <time>2021-12-17T09:24:43Z</time>
      </trkpt>
      <trkpt lat="45.29741" lon="6.15984">
        <ele>2410</ele>
        <time>2021-12-17T09:24:49Z</time>
      </trkpt>
      <trkpt lat="45.29743" lon="6.15982">
        <ele>2410.2</ele>
        <time>2021-12-17T09:24:52Z</time>
      </trkpt>
      <trkpt lat="45.2975" lon="6.15976">
        <ele>2411</ele>
        <time>2021-12-17T09:25:00Z</time>
      </trkpt>
      <trkpt lat="45.29753" lon="6.15972">
        <ele>2412</ele>
        <time>2021-12-17T09:25:05Z</time>
      </trkpt>
      <trkpt lat="45.29755" lon="6.15969">
        <ele>2412.4</ele>
        <time>2021-12-17T09:25:08Z</time>
      </trkpt>
      <trkpt lat="45.29757" lon="6.15966">
        <ele>2413.2</ele>
        <time>2021-12-17T09:25:12Z</time>
      </trkpt>
      <trkpt lat="45.2976" lon="6.15962">
        <ele>2414.4</ele>
        <time>2021-12-17T09:25:18Z</time>
      </trkpt>
      <trkpt lat="45.29758" lon="6.15958">
        <ele>2415.6</ele>
        <time>2021-12-17T09:25:24Z</time>
      </trkpt>
      <trkpt lat="45.29757" lon="6.15957">
        <ele>2415.6</ele>
        <time>2021-12-17T09:25:25Z</time>
      </trkpt>
      <trkpt lat="45.29756" lon="6.15953">
        <ele>2416.2</ele>
        <time>2021-12-17T09:25:28Z</time>
      </trkpt>
      <trkpt lat="45.29756" lon="6.15951">
        <ele>2416.6</ele>
        <time>2021-12-17T09:25:30Z</time>
      </trkpt>
      <trkpt lat="45.29756" lon="6.15949">
        <ele>2417</ele>
        <time>2021-12-17T09:25:32Z</time>
      </trkpt>
      <trkpt lat="45.29758" lon="6.15947">
        <ele>2417.6</ele>
        <time>2021-12-17T09:25:37Z</time>
      </trkpt>
      <trkpt lat="45.29758" lon="6.15947">
        <ele>2417.8</ele>
        <time>2021-12-17T09:25:38Z</time>
      </trkpt>
      <trkpt lat="45.29762" lon="6.15944">
        <ele>2418.8</ele>
        <time>2021-12-17T09:25:44Z</time>
      </trkpt>
      <trkpt lat="45.29763" lon="6.15941">
        <ele>2419.2</ele>
        <time>2021-12-17T09:25:47Z</time>
      </trkpt>
      <trkpt lat="45.29764" lon="6.15939">
        <ele>2420</ele>
        <time>2021-12-17T09:25:51Z</time>
      </trkpt>
      <trkpt lat="45.29763" lon="6.15936">
        <ele>2421</ele>
        <time>2021-12-17T09:25:55Z</time>
      </trkpt>
      <trkpt lat="45.29763" lon="6.15935">
        <ele>2421.2</ele>
        <time>2021-12-17T09:25:56Z</time>
      </trkpt>
      <trkpt lat="45.29762" lon="6.15932">
        <ele>2422</ele>
        <time>2021-12-17T09:25:59Z</time>
      </trkpt>
      <trkpt lat="45.29759" lon="6.15928">
        <ele>2423.2</ele>
        <time>2021-12-17T09:26:05Z</time>
      </trkpt>
      <trkpt lat="45.2976" lon="6.15924">
        <ele>2424.2</ele>
        <time>2021-12-17T09:26:09Z</time>
      </trkpt>
      <trkpt lat="45.29761" lon="6.15922">
        <ele>2424.8</ele>
        <time>2021-12-17T09:26:12Z</time>
      </trkpt>
      <trkpt lat="45.29762" lon="6.15921">
        <ele>2425.4</ele>
        <time>2021-12-17T09:26:15Z</time>
      </trkpt>
      <trkpt lat="45.29764" lon="6.15916">
        <ele>2426.6</ele>
        <time>2021-12-17T09:26:21Z</time>
      </trkpt>
      <trkpt lat="45.29773" lon="6.15909">
        <ele>2427.4</ele>
        <time>2021-12-17T09:26:32Z</time>
      </trkpt>
      <trkpt lat="45.29781" lon="6.15903">
        <ele>2427.2</ele>
        <time>2021-12-17T09:26:42Z</time>
      </trkpt>
      <trkpt lat="45.29789" lon="6.15901">
        <ele>2427.4</ele>
        <time>2021-12-17T09:26:50Z</time>
      </trkpt>
      <trkpt lat="45.29799" lon="6.15896">
        <ele>2426.4</ele>
        <time>2021-12-17T09:27:02Z</time>
      </trkpt>
      <trkpt lat="45.298" lon="6.15895">
        <ele>2426.4</ele>
        <time>2021-12-17T09:27:04Z</time>
      </trkpt>
      <trkpt lat="45.29803" lon="6.15891">
        <ele>2426.6</ele>
        <time>2021-12-17T09:27:09Z</time>
      </trkpt>
      <trkpt lat="45.2981" lon="6.15886">
        <ele>2427.6</ele>
        <time>2021-12-17T09:27:18Z</time>
      </trkpt>
      <trkpt lat="45.29816" lon="6.15878">
        <ele>2428.6</ele>
        <time>2021-12-17T09:27:26Z</time>
      </trkpt>
      <trkpt lat="45.29821" lon="6.15869">
        <ele>2428.6</ele>
        <time>2021-12-17T09:27:34Z</time>
      </trkpt>
      <trkpt lat="45.29822" lon="6.15867">
        <ele>2428.8</ele>
        <time>2021-12-17T09:27:36Z</time>
      </trkpt>
      <trkpt lat="45.29824" lon="6.15865">
        <ele>2429.8</ele>
        <time>2021-12-17T09:27:41Z</time>
      </trkpt>
      <trkpt lat="45.29825" lon="6.15864">
        <ele>2430.2</ele>
        <time>2021-12-17T09:27:42Z</time>
      </trkpt>
      <trkpt lat="45.29826" lon="6.15863">
        <ele>2431</ele>
        <time>2021-12-17T09:27:45Z</time>
      </trkpt>
      <trkpt lat="45.29828" lon="6.15859">
        <ele>2431.8</ele>
        <time>2021-12-17T09:27:50Z</time>
      </trkpt>
      <trkpt lat="45.29829" lon="6.15859">
        <ele>2432</ele>
        <time>2021-12-17T09:27:51Z</time>
      </trkpt>
      <trkpt lat="45.29833" lon="6.15857">
        <ele>2433.2</ele>
        <time>2021-12-17T09:27:56Z</time>
      </trkpt>
      <trkpt lat="45.29836" lon="6.15856">
        <ele>2433.8</ele>
        <time>2021-12-17T09:28:00Z</time>
      </trkpt>
      <trkpt lat="45.29838" lon="6.15854">
        <ele>2434.4</ele>
        <time>2021-12-17T09:28:04Z</time>
      </trkpt>
      <trkpt lat="45.29839" lon="6.15849">
        <ele>2435.6</ele>
        <time>2021-12-17T09:28:09Z</time>
      </trkpt>
      <trkpt lat="45.2984" lon="6.15844">
        <ele>2436.6</ele>
        <time>2021-12-17T09:28:15Z</time>
      </trkpt>
      <trkpt lat="45.2984" lon="6.15843">
        <ele>2436.8</ele>
        <time>2021-12-17T09:28:16Z</time>
      </trkpt>
      <trkpt lat="45.29841" lon="6.15839">
        <ele>2437.8</ele>
        <time>2021-12-17T09:28:21Z</time>
      </trkpt>
      <trkpt lat="45.2984" lon="6.15838">
        <ele>2438.4</ele>
        <time>2021-12-17T09:28:24Z</time>
      </trkpt>
      <trkpt lat="45.2984" lon="6.15834">
        <ele>2439</ele>
        <time>2021-12-17T09:28:28Z</time>
      </trkpt>
      <trkpt lat="45.2984" lon="6.15829">
        <ele>2440</ele>
        <time>2021-12-17T09:28:33Z</time>
      </trkpt>
      <trkpt lat="45.2984" lon="6.15827">
        <ele>2440.4</ele>
        <time>2021-12-17T09:28:35Z</time>
      </trkpt>
      <trkpt lat="45.2984" lon="6.15824">
        <ele>2440.8</ele>
        <time>2021-12-17T09:28:38Z</time>
      </trkpt>
      <trkpt lat="45.2984" lon="6.1582">
        <ele>2441</ele>
        <time>2021-12-17T09:28:41Z</time>
      </trkpt>
      <trkpt lat="45.29841" lon="6.15816">
        <ele>2441.2</ele>
        <time>2021-12-17T09:28:45Z</time>
      </trkpt>
      <trkpt lat="45.29842" lon="6.15807">
        <ele>2442.2</ele>
        <time>2021-12-17T09:28:53Z</time>
      </trkpt>
      <trkpt lat="45.29842" lon="6.15802">
        <ele>2442.6</ele>
        <time>2021-12-17T09:28:56Z</time>
      </trkpt>
      <trkpt lat="45.29844" lon="6.15795">
        <ele>2443.4</ele>
        <time>2021-12-17T09:29:02Z</time>
      </trkpt>
      <trkpt lat="45.29843" lon="6.1579">
        <ele>2443.8</ele>
        <time>2021-12-17T09:29:06Z</time>
      </trkpt>
      <trkpt lat="45.29842" lon="6.15782">
        <ele>2444.4</ele>
        <time>2021-12-17T09:29:13Z</time>
      </trkpt>
      <trkpt lat="45.29843" lon="6.15769">
        <ele>2445</ele>
        <time>2021-12-17T09:29:21Z</time>
      </trkpt>
      <trkpt lat="45.29844" lon="6.15763">
        <ele>2445.4</ele>
        <time>2021-12-17T09:29:25Z</time>
      </trkpt>
      <trkpt lat="45.29844" lon="6.15755">
        <ele>2446</ele>
        <time>2021-12-17T09:29:31Z</time>
      </trkpt>
      <trkpt lat="45.29844" lon="6.15752">
        <ele>2446.4</ele>
        <time>2021-12-17T09:29:34Z</time>
      </trkpt>
      <trkpt lat="45.29845" lon="6.15747">
        <ele>2447.4</ele>
        <time>2021-12-17T09:29:39Z</time>
      </trkpt>
      <trkpt lat="45.29845" lon="6.15745">
        <ele>2447.4</ele>
        <time>2021-12-17T09:29:40Z</time>
      </trkpt>
      <trkpt lat="45.29846" lon="6.15739">
        <ele>2448.6</ele>
        <time>2021-12-17T09:29:46Z</time>
      </trkpt>
      <trkpt lat="45.29846" lon="6.15736">
        <ele>2449</ele>
        <time>2021-12-17T09:29:48Z</time>
      </trkpt>
      <trkpt lat="45.29846" lon="6.15731">
        <ele>2449.6</ele>
        <time>2021-12-17T09:29:52Z</time>
      </trkpt>
      <trkpt lat="45.29847" lon="6.15724">
        <ele>2450.8</ele>
        <time>2021-12-17T09:29:59Z</time>
      </trkpt>
      <trkpt lat="45.29848" lon="6.15714">
        <ele>2452</ele>
        <time>2021-12-17T09:30:07Z</time>
      </trkpt>
      <trkpt lat="45.29848" lon="6.15711">
        <ele>2452.2</ele>
        <time>2021-12-17T09:30:09Z</time>
      </trkpt>
      <trkpt lat="45.29849" lon="6.15698">
        <ele>2452.6</ele>
        <time>2021-12-17T09:30:20Z</time>
      </trkpt>
      <trkpt lat="45.29849" lon="6.1569">
        <ele>2453</ele>
        <time>2021-12-17T09:30:27Z</time>
      </trkpt>
      <trkpt lat="45.29849" lon="6.15689">
        <ele>2453.2</ele>
        <time>2021-12-17T09:30:28Z</time>
      </trkpt>
      <trkpt lat="45.29849" lon="6.15682">
        <ele>2453.4</ele>
        <time>2021-12-17T09:30:32Z</time>
      </trkpt>
      <trkpt lat="45.29849" lon="6.15673">
        <ele>2454.2</ele>
        <time>2021-12-17T09:30:41Z</time>
      </trkpt>
      <trkpt lat="45.29849" lon="6.15672">
        <ele>2454.4</ele>
        <time>2021-12-17T09:30:42Z</time>
      </trkpt>
      <trkpt lat="45.29848" lon="6.15667">
        <ele>2455.2</ele>
        <time>2021-12-17T09:30:46Z</time>
      </trkpt>
      <trkpt lat="45.29847" lon="6.15662">
        <ele>2455.6</ele>
        <time>2021-12-17T09:30:50Z</time>
      </trkpt>
      <trkpt lat="45.29847" lon="6.15655">
        <ele>2456.2</ele>
        <time>2021-12-17T09:30:56Z</time>
      </trkpt>
      <trkpt lat="45.29848" lon="6.15649">
        <ele>2456.6</ele>
        <time>2021-12-17T09:31:00Z</time>
      </trkpt>
      <trkpt lat="45.29848" lon="6.15644">
        <ele>2457.2</ele>
        <time>2021-12-17T09:31:05Z</time>
      </trkpt>
      <trkpt lat="45.29848" lon="6.15643">
        <ele>2457.4</ele>
        <time>2021-12-17T09:31:06Z</time>
      </trkpt>
      <trkpt lat="45.2985" lon="6.15631">
        <ele>2457.8</ele>
        <time>2021-12-17T09:31:15Z</time>
      </trkpt>
      <trkpt lat="45.29849" lon="6.15618">
        <ele>2458</ele>
        <time>2021-12-17T09:31:23Z</time>
      </trkpt>
      <trkpt lat="45.29849" lon="6.15617">
        <ele>2458</ele>
        <time>2021-12-17T09:31:24Z</time>
      </trkpt>
      <trkpt lat="45.29851" lon="6.15611">
        <ele>2458.4</ele>
        <time>2021-12-17T09:31:29Z</time>
      </trkpt>
      <trkpt lat="45.29852" lon="6.15604">
        <ele>2459.4</ele>
        <time>2021-12-17T09:31:35Z</time>
      </trkpt>
      <trkpt lat="45.29853" lon="6.15602">
        <ele>2459.8</ele>
        <time>2021-12-17T09:31:37Z</time>
      </trkpt>
      <trkpt lat="45.29854" lon="6.15594">
        <ele>2460.4</ele>
        <time>2021-12-17T09:31:43Z</time>
      </trkpt>
      <trkpt lat="45.29854" lon="6.15591">
        <ele>2460.8</ele>
        <time>2021-12-17T09:31:46Z</time>
      </trkpt>
      <trkpt lat="45.29855" lon="6.15593">
        <ele>2461.4</ele>
        <time>2021-12-17T09:31:55Z</time>
      </trkpt>
      <trkpt lat="45.29857" lon="6.15594">
        <ele>2461.4</ele>
        <time>2021-12-17T09:32:07Z</time>
      </trkpt>
      <trkpt lat="45.29857" lon="6.15586">
        <ele>2462.2</ele>
        <time>2021-12-17T09:32:19Z</time>
      </trkpt>
      <trkpt lat="45.29858" lon="6.15577">
        <ele>2462.6</ele>
        <time>2021-12-17T09:32:25Z</time>
      </trkpt>
      <trkpt lat="45.29858" lon="6.15574">
        <ele>2462.6</ele>
        <time>2021-12-17T09:32:27Z</time>
      </trkpt>
      <trkpt lat="45.29858" lon="6.15568">
        <ele>2462.8</ele>
        <time>2021-12-17T09:32:32Z</time>
      </trkpt>
      <trkpt lat="45.29859" lon="6.15561">
        <ele>2463.2</ele>
        <time>2021-12-17T09:32:37Z</time>
      </trkpt>
      <trkpt lat="45.29859" lon="6.15558">
        <ele>2463.4</ele>
        <time>2021-12-17T09:32:39Z</time>
      </trkpt>
      <trkpt lat="45.29859" lon="6.15553">
        <ele>2463.6</ele>
        <time>2021-12-17T09:32:43Z</time>
      </trkpt>
      <trkpt lat="45.29859" lon="6.15547">
        <ele>2464</ele>
        <time>2021-12-17T09:32:47Z</time>
      </trkpt>
      <trkpt lat="45.2986" lon="6.15545">
        <ele>2464.6</ele>
        <time>2021-12-17T09:32:49Z</time>
      </trkpt>
      <trkpt lat="45.2986" lon="6.15539">
        <ele>2465.6</ele>
        <time>2021-12-17T09:32:54Z</time>
      </trkpt>
      <trkpt lat="45.2986" lon="6.15538">
        <ele>2465.8</ele>
        <time>2021-12-17T09:32:55Z</time>
      </trkpt>
      <trkpt lat="45.2986" lon="6.15533">
        <ele>2466.6</ele>
        <time>2021-12-17T09:33:01Z</time>
      </trkpt>
      <trkpt lat="45.29861" lon="6.15524">
        <ele>2467.6</ele>
        <time>2021-12-17T09:33:08Z</time>
      </trkpt>
      <trkpt lat="45.29863" lon="6.15516">
        <ele>2468.6</ele>
        <time>2021-12-17T09:33:14Z</time>
      </trkpt>
      <trkpt lat="45.29863" lon="6.15515">
        <ele>2468.8</ele>
        <time>2021-12-17T09:33:15Z</time>
      </trkpt>
      <trkpt lat="45.29861" lon="6.15507">
        <ele>2469.6</ele>
        <time>2021-12-17T09:33:22Z</time>
      </trkpt>
      <trkpt lat="45.29861" lon="6.15506">
        <ele>2470</ele>
        <time>2021-12-17T09:33:23Z</time>
      </trkpt>
      <trkpt lat="45.29861" lon="6.15497">
        <ele>2470.8</ele>
        <time>2021-12-17T09:33:30Z</time>
      </trkpt>
      <trkpt lat="45.29862" lon="6.15496">
        <ele>2471</ele>
        <time>2021-12-17T09:33:31Z</time>
      </trkpt>
      <trkpt lat="45.29862" lon="6.15489">
        <ele>2471.8</ele>
        <time>2021-12-17T09:33:36Z</time>
      </trkpt>
      <trkpt lat="45.29861" lon="6.15488">
        <ele>2472.2</ele>
        <time>2021-12-17T09:33:37Z</time>
      </trkpt>
      <trkpt lat="45.29862" lon="6.15481">
        <ele>2473.2</ele>
        <time>2021-12-17T09:33:43Z</time>
      </trkpt>
      <trkpt lat="45.29862" lon="6.15475">
        <ele>2474.2</ele>
        <time>2021-12-17T09:33:49Z</time>
      </trkpt>
      <trkpt lat="45.29862" lon="6.15472">
        <ele>2474.8</ele>
        <time>2021-12-17T09:33:52Z</time>
      </trkpt>
      <trkpt lat="45.29861" lon="6.1547">
        <ele>2475.2</ele>
        <time>2021-12-17T09:33:54Z</time>
      </trkpt>
      <trkpt lat="45.29861" lon="6.15465">
        <ele>2476.6</ele>
        <time>2021-12-17T09:33:59Z</time>
      </trkpt>
      <trkpt lat="45.2986" lon="6.15462">
        <ele>2477.2</ele>
        <time>2021-12-17T09:34:03Z</time>
      </trkpt>
      <trkpt lat="45.2986" lon="6.1546">
        <ele>2477.8</ele>
        <time>2021-12-17T09:34:05Z</time>
      </trkpt>
      <trkpt lat="45.29861" lon="6.15456">
        <ele>2479</ele>
        <time>2021-12-17T09:34:10Z</time>
      </trkpt>
      <trkpt lat="45.29862" lon="6.15454">
        <ele>2479.6</ele>
        <time>2021-12-17T09:34:12Z</time>
      </trkpt>
      <trkpt lat="45.29861" lon="6.15453">
        <ele>2480</ele>
        <time>2021-12-17T09:34:14Z</time>
      </trkpt>
      <trkpt lat="45.29861" lon="6.15449">
        <ele>2481.2</ele>
        <time>2021-12-17T09:34:19Z</time>
      </trkpt>
      <trkpt lat="45.29861" lon="6.15447">
        <ele>2482</ele>
        <time>2021-12-17T09:34:22Z</time>
      </trkpt>
      <trkpt lat="45.2986" lon="6.15446">
        <ele>2482.2</ele>
        <time>2021-12-17T09:34:23Z</time>
      </trkpt>
      <trkpt lat="45.29861" lon="6.15442">
        <ele>2483.4</ele>
        <time>2021-12-17T09:34:28Z</time>
      </trkpt>
      <trkpt lat="45.29861" lon="6.15441">
        <ele>2483.8</ele>
        <time>2021-12-17T09:34:30Z</time>
      </trkpt>
      <trkpt lat="45.2986" lon="6.1544">
        <ele>2484.4</ele>
        <time>2021-12-17T09:34:33Z</time>
      </trkpt>
      <trkpt lat="45.2986" lon="6.15435">
        <ele>2485.6</ele>
        <time>2021-12-17T09:34:38Z</time>
      </trkpt>
      <trkpt lat="45.2986" lon="6.15435">
        <ele>2485.8</ele>
        <time>2021-12-17T09:34:39Z</time>
      </trkpt>
      <trkpt lat="45.29859" lon="6.15433">
        <ele>2486.8</ele>
        <time>2021-12-17T09:34:43Z</time>
      </trkpt>
      <trkpt lat="45.29857" lon="6.15429">
        <ele>2487.8</ele>
        <time>2021-12-17T09:34:49Z</time>
      </trkpt>
      <trkpt lat="45.29857" lon="6.15428">
        <ele>2488</ele>
        <time>2021-12-17T09:34:50Z</time>
      </trkpt>
      <trkpt lat="45.29857" lon="6.15423">
        <ele>2489</ele>
        <time>2021-12-17T09:34:55Z</time>
      </trkpt>
      <trkpt lat="45.29856" lon="6.1542">
        <ele>2490</ele>
        <time>2021-12-17T09:34:59Z</time>
      </trkpt>
      <trkpt lat="45.29855" lon="6.1542">
        <ele>2490</ele>
        <time>2021-12-17T09:35:00Z</time>
      </trkpt>
      <trkpt lat="45.29854" lon="6.15414">
        <ele>2491</ele>
        <time>2021-12-17T09:35:06Z</time>
      </trkpt>
      <trkpt lat="45.29854" lon="6.15413">
        <ele>2491.2</ele>
        <time>2021-12-17T09:35:07Z</time>
      </trkpt>
      <trkpt lat="45.2985" lon="6.15408">
        <ele>2492.4</ele>
        <time>2021-12-17T09:35:14Z</time>
      </trkpt>
      <trkpt lat="45.29848" lon="6.15402">
        <ele>2493.6</ele>
        <time>2021-12-17T09:35:21Z</time>
      </trkpt>
      <trkpt lat="45.29848" lon="6.154">
        <ele>2494.2</ele>
        <time>2021-12-17T09:35:24Z</time>
      </trkpt>
      <trkpt lat="45.29848" lon="6.15398">
        <ele>2494.8</ele>
        <time>2021-12-17T09:35:26Z</time>
      </trkpt>
      <trkpt lat="45.29846" lon="6.15394">
        <ele>2495.8</ele>
        <time>2021-12-17T09:35:32Z</time>
      </trkpt>
      <trkpt lat="45.29845" lon="6.15393">
        <ele>2496</ele>
        <time>2021-12-17T09:35:33Z</time>
      </trkpt>
      <trkpt lat="45.29844" lon="6.1539">
        <ele>2496.8</ele>
        <time>2021-12-17T09:35:37Z</time>
      </trkpt>
      <trkpt lat="45.29844" lon="6.15387">
        <ele>2497.2</ele>
        <time>2021-12-17T09:35:41Z</time>
      </trkpt>
      <trkpt lat="45.29842" lon="6.15385">
        <ele>2498</ele>
        <time>2021-12-17T09:35:44Z</time>
      </trkpt>
      <trkpt lat="45.29841" lon="6.15381">
        <ele>2499</ele>
        <time>2021-12-17T09:35:49Z</time>
      </trkpt>
      <trkpt lat="45.29841" lon="6.1538">
        <ele>2499.2</ele>
        <time>2021-12-17T09:35:50Z</time>
      </trkpt>
      <trkpt lat="45.29839" lon="6.15378">
        <ele>2500.2</ele>
        <time>2021-12-17T09:35:54Z</time>
      </trkpt>
      <trkpt lat="45.29838" lon="6.15377">
        <ele>2500.6</ele>
        <time>2021-12-17T09:35:56Z</time>
      </trkpt>
      <trkpt lat="45.29837" lon="6.15376">
        <ele>2501.2</ele>
        <time>2021-12-17T09:35:59Z</time>
      </trkpt>
      <trkpt lat="45.29835" lon="6.15373">
        <ele>2502.2</ele>
        <time>2021-12-17T09:36:03Z</time>
      </trkpt>
      <trkpt lat="45.29834" lon="6.15372">
        <ele>2502.4</ele>
        <time>2021-12-17T09:36:04Z</time>
      </trkpt>
      <trkpt lat="45.29833" lon="6.15365">
        <ele>2503.4</ele>
        <time>2021-12-17T09:36:11Z</time>
      </trkpt>
      <trkpt lat="45.29832" lon="6.15363">
        <ele>2503.8</ele>
        <time>2021-12-17T09:36:14Z</time>
      </trkpt>
      <trkpt lat="45.29831" lon="6.1536">
        <ele>2504.2</ele>
        <time>2021-12-17T09:36:17Z</time>
      </trkpt>
      <trkpt lat="45.29831" lon="6.15357">
        <ele>2504.6</ele>
        <time>2021-12-17T09:36:20Z</time>
      </trkpt>
      <trkpt lat="45.2983" lon="6.1535">
        <ele>2505.4</ele>
        <time>2021-12-17T09:36:26Z</time>
      </trkpt>
      <trkpt lat="45.29829" lon="6.15346">
        <ele>2505.6</ele>
        <time>2021-12-17T09:36:29Z</time>
      </trkpt>
      <trkpt lat="45.29828" lon="6.1534">
        <ele>2505.8</ele>
        <time>2021-12-17T09:36:34Z</time>
      </trkpt>
      <trkpt lat="45.29828" lon="6.15339">
        <ele>2506</ele>
        <time>2021-12-17T09:36:35Z</time>
      </trkpt>
      <trkpt lat="45.29824" lon="6.15328">
        <ele>2506.6</ele>
        <time>2021-12-17T09:36:44Z</time>
      </trkpt>
      <trkpt lat="45.29824" lon="6.15326">
        <ele>2506.8</ele>
        <time>2021-12-17T09:36:46Z</time>
      </trkpt>
      <trkpt lat="45.29824" lon="6.15321">
        <ele>2507.4</ele>
        <time>2021-12-17T09:36:51Z</time>
      </trkpt>
      <trkpt lat="45.29824" lon="6.15318">
        <ele>2507.6</ele>
        <time>2021-12-17T09:36:53Z</time>
      </trkpt>
      <trkpt lat="45.29823" lon="6.15314">
        <ele>2507.6</ele>
        <time>2021-12-17T09:36:56Z</time>
      </trkpt>
      <trkpt lat="45.29825" lon="6.15308">
        <ele>2508</ele>
        <time>2021-12-17T09:37:00Z</time>
      </trkpt>
      <trkpt lat="45.29826" lon="6.15305">
        <ele>2508.8</ele>
        <time>2021-12-17T09:37:03Z</time>
      </trkpt>
      <trkpt lat="45.29829" lon="6.15298">
        <ele>2509.4</ele>
        <time>2021-12-17T09:37:08Z</time>
      </trkpt>
      <trkpt lat="45.2983" lon="6.15296">
        <ele>2509.8</ele>
        <time>2021-12-17T09:37:10Z</time>
      </trkpt>
      <trkpt lat="45.2983" lon="6.15293">
        <ele>2510</ele>
        <time>2021-12-17T09:37:12Z</time>
      </trkpt>
      <trkpt lat="45.29827" lon="6.15289">
        <ele>2510.8</ele>
        <time>2021-12-17T09:37:15Z</time>
      </trkpt>
      <trkpt lat="45.29827" lon="6.15288">
        <ele>2511</ele>
        <time>2021-12-17T09:37:16Z</time>
      </trkpt>
      <trkpt lat="45.29828" lon="6.1528">
        <ele>2512</ele>
        <time>2021-12-17T09:37:22Z</time>
      </trkpt>
      <trkpt lat="45.2983" lon="6.15274">
        <ele>2513.2</ele>
        <time>2021-12-17T09:37:27Z</time>
      </trkpt>
      <trkpt lat="45.2983" lon="6.15273">
        <ele>2513.8</ele>
        <time>2021-12-17T09:37:29Z</time>
      </trkpt>
      <trkpt lat="45.29831" lon="6.15272">
        <ele>2514.4</ele>
        <time>2021-12-17T09:37:31Z</time>
      </trkpt>
      <trkpt lat="45.29831" lon="6.15268">
        <ele>2515.4</ele>
        <time>2021-12-17T09:37:35Z</time>
      </trkpt>
      <trkpt lat="45.29832" lon="6.15266">
        <ele>2515.8</ele>
        <time>2021-12-17T09:37:37Z</time>
      </trkpt>
      <trkpt lat="45.29832" lon="6.15262">
        <ele>2516.4</ele>
        <time>2021-12-17T09:37:41Z</time>
      </trkpt>
      <trkpt lat="45.29832" lon="6.1526">
        <ele>2516.8</ele>
        <time>2021-12-17T09:37:43Z</time>
      </trkpt>
      <trkpt lat="45.29832" lon="6.15258">
        <ele>2517.6</ele>
        <time>2021-12-17T09:37:45Z</time>
      </trkpt>
      <trkpt lat="45.29833" lon="6.15256">
        <ele>2518.4</ele>
        <time>2021-12-17T09:37:48Z</time>
      </trkpt>
      <trkpt lat="45.29833" lon="6.15255">
        <ele>2518.6</ele>
        <time>2021-12-17T09:37:49Z</time>
      </trkpt>
      <trkpt lat="45.29833" lon="6.15254">
        <ele>2519.2</ele>
        <time>2021-12-17T09:37:51Z</time>
      </trkpt>
      <trkpt lat="45.29834" lon="6.15251">
        <ele>2519.8</ele>
        <time>2021-12-17T09:37:53Z</time>
      </trkpt>
      <trkpt lat="45.29834" lon="6.15249">
        <ele>2521</ele>
        <time>2021-12-17T09:37:57Z</time>
      </trkpt>
      <trkpt lat="45.29835" lon="6.15244">
        <ele>2522</ele>
        <time>2021-12-17T09:38:02Z</time>
      </trkpt>
      <trkpt lat="45.29837" lon="6.15242">
        <ele>2523</ele>
        <time>2021-12-17T09:38:05Z</time>
      </trkpt>
      <trkpt lat="45.29837" lon="6.15241">
        <ele>2523.2</ele>
        <time>2021-12-17T09:38:06Z</time>
      </trkpt>
      <trkpt lat="45.29838" lon="6.15237">
        <ele>2524.4</ele>
        <time>2021-12-17T09:38:11Z</time>
      </trkpt>
      <trkpt lat="45.29838" lon="6.15237">
        <ele>2524.6</ele>
        <time>2021-12-17T09:38:12Z</time>
      </trkpt>
      <trkpt lat="45.29838" lon="6.15233">
        <ele>2525.6</ele>
        <time>2021-12-17T09:38:17Z</time>
      </trkpt>
      <trkpt lat="45.29838" lon="6.15231">
        <ele>2526.4</ele>
        <time>2021-12-17T09:38:19Z</time>
      </trkpt>
      <trkpt lat="45.29839" lon="6.1523">
        <ele>2526.8</ele>
        <time>2021-12-17T09:38:21Z</time>
      </trkpt>
      <trkpt lat="45.2984" lon="6.15226">
        <ele>2527.8</ele>
        <time>2021-12-17T09:38:26Z</time>
      </trkpt>
      <trkpt lat="45.29839" lon="6.15223">
        <ele>2528.4</ele>
        <time>2021-12-17T09:38:30Z</time>
      </trkpt>
      <trkpt lat="45.2984" lon="6.15222">
        <ele>2528.8</ele>
        <time>2021-12-17T09:38:31Z</time>
      </trkpt>
      <trkpt lat="45.29839" lon="6.15218">
        <ele>2530.2</ele>
        <time>2021-12-17T09:38:36Z</time>
      </trkpt>
      <trkpt lat="45.2984" lon="6.15218">
        <ele>2531.2</ele>
        <time>2021-12-17T09:38:41Z</time>
      </trkpt>
      <trkpt lat="45.2984" lon="6.15216">
        <ele>2531.8</ele>
        <time>2021-12-17T09:38:44Z</time>
      </trkpt>
      <trkpt lat="45.2984" lon="6.15215">
        <ele>2532</ele>
        <time>2021-12-17T09:38:45Z</time>
      </trkpt>
      <trkpt lat="45.29841" lon="6.15213">
        <ele>2532.4</ele>
        <time>2021-12-17T09:38:47Z</time>
      </trkpt>
      <trkpt lat="45.29841" lon="6.15211">
        <ele>2533.4</ele>
        <time>2021-12-17T09:38:51Z</time>
      </trkpt>
      <trkpt lat="45.29841" lon="6.1521">
        <ele>2533.8</ele>
        <time>2021-12-17T09:38:53Z</time>
      </trkpt>
      <trkpt lat="45.29841" lon="6.15208">
        <ele>2534.4</ele>
        <time>2021-12-17T09:38:55Z</time>
      </trkpt>
      <trkpt lat="45.29841" lon="6.15204">
        <ele>2535.4</ele>
        <time>2021-12-17T09:39:00Z</time>
      </trkpt>
      <trkpt lat="45.29841" lon="6.15204">
        <ele>2535.4</ele>
        <time>2021-12-17T09:39:01Z</time>
      </trkpt>
      <trkpt lat="45.29841" lon="6.15198">
        <ele>2536.6</ele>
        <time>2021-12-17T09:39:07Z</time>
      </trkpt>
      <trkpt lat="45.29842" lon="6.15195">
        <ele>2537.6</ele>
        <time>2021-12-17T09:39:12Z</time>
      </trkpt>
      <trkpt lat="45.29842" lon="6.15195">
        <ele>2537.6</ele>
        <time>2021-12-17T09:39:13Z</time>
      </trkpt>
      <trkpt lat="45.2984" lon="6.15194">
        <ele>2537.8</ele>
        <time>2021-12-17T09:39:24Z</time>
      </trkpt>
      <trkpt lat="45.29842" lon="6.15194">
        <ele>2537.8</ele>
        <time>2021-12-17T09:39:38Z</time>
      </trkpt>
      <trkpt lat="45.29842" lon="6.15195">
        <ele>2538.6</ele>
        <time>2021-12-17T09:40:10Z</time>
      </trkpt>
      <trkpt lat="45.29842" lon="6.15187">
        <ele>2539.4</ele>
        <time>2021-12-17T09:40:15Z</time>
      </trkpt>
      <trkpt lat="45.29843" lon="6.15184">
        <ele>2539.6</ele>
        <time>2021-12-17T09:40:17Z</time>
      </trkpt>
      <trkpt lat="45.29842" lon="6.15176">
        <ele>2540.6</ele>
        <time>2021-12-17T09:40:23Z</time>
      </trkpt>
      <trkpt lat="45.29842" lon="6.1517">
        <ele>2541.2</ele>
        <time>2021-12-17T09:40:27Z</time>
      </trkpt>
      <trkpt lat="45.29842" lon="6.15164">
        <ele>2542</ele>
        <time>2021-12-17T09:40:32Z</time>
      </trkpt>
      <trkpt lat="45.29842" lon="6.15162">
        <ele>2542.2</ele>
        <time>2021-12-17T09:40:34Z</time>
      </trkpt>
      <trkpt lat="45.29842" lon="6.15158">
        <ele>2543.2</ele>
        <time>2021-12-17T09:40:38Z</time>
      </trkpt>
      <trkpt lat="45.29843" lon="6.15155">
        <ele>2543.4</ele>
        <time>2021-12-17T09:40:40Z</time>
      </trkpt>
      <trkpt lat="45.29843" lon="6.15155">
        <ele>2543.6</ele>
        <time>2021-12-17T09:40:41Z</time>
      </trkpt>
      <trkpt lat="45.29844" lon="6.15147">
        <ele>2544.2</ele>
        <time>2021-12-17T09:40:47Z</time>
      </trkpt>
      <trkpt lat="45.29844" lon="6.15145">
        <ele>2544.4</ele>
        <time>2021-12-17T09:40:48Z</time>
      </trkpt>
      <trkpt lat="45.29844" lon="6.15142">
        <ele>2545.2</ele>
        <time>2021-12-17T09:40:51Z</time>
      </trkpt>
      <trkpt lat="45.29844" lon="6.15138">
        <ele>2546</ele>
        <time>2021-12-17T09:40:54Z</time>
      </trkpt>
      <trkpt lat="45.29845" lon="6.15136">
        <ele>2546.4</ele>
        <time>2021-12-17T09:40:56Z</time>
      </trkpt>
      <trkpt lat="45.29845" lon="6.1513">
        <ele>2547.4</ele>
        <time>2021-12-17T09:41:02Z</time>
      </trkpt>
      <trkpt lat="45.29846" lon="6.15129">
        <ele>2547.6</ele>
        <time>2021-12-17T09:41:03Z</time>
      </trkpt>
      <trkpt lat="45.29847" lon="6.15124">
        <ele>2548.8</ele>
        <time>2021-12-17T09:41:07Z</time>
      </trkpt>
      <trkpt lat="45.29848" lon="6.15123">
        <ele>2548.8</ele>
        <time>2021-12-17T09:41:08Z</time>
      </trkpt>
      <trkpt lat="45.29849" lon="6.15118">
        <ele>2549.8</ele>
        <time>2021-12-17T09:41:13Z</time>
      </trkpt>
      <trkpt lat="45.29849" lon="6.15115">
        <ele>2550.6</ele>
        <time>2021-12-17T09:41:16Z</time>
      </trkpt>
      <trkpt lat="45.29849" lon="6.15114">
        <ele>2550.8</ele>
        <time>2021-12-17T09:41:17Z</time>
      </trkpt>
      <trkpt lat="45.2985" lon="6.15107">
        <ele>2551.8</ele>
        <time>2021-12-17T09:41:23Z</time>
      </trkpt>
      <trkpt lat="45.2985" lon="6.15103">
        <ele>2553</ele>
        <time>2021-12-17T09:41:27Z</time>
      </trkpt>
      <trkpt lat="45.29851" lon="6.151">
        <ele>2553.6</ele>
        <time>2021-12-17T09:41:30Z</time>
      </trkpt>
      <trkpt lat="45.29853" lon="6.15098">
        <ele>2554.2</ele>
        <time>2021-12-17T09:41:33Z</time>
      </trkpt>
      <trkpt lat="45.29854" lon="6.15096">
        <ele>2554.6</ele>
        <time>2021-12-17T09:41:36Z</time>
      </trkpt>
      <trkpt lat="45.29854" lon="6.15094">
        <ele>2555.2</ele>
        <time>2021-12-17T09:41:39Z</time>
      </trkpt>
      <trkpt lat="45.29854" lon="6.1509">
        <ele>2556.4</ele>
        <time>2021-12-17T09:41:43Z</time>
      </trkpt>
      <trkpt lat="45.29855" lon="6.15089">
        <ele>2556.4</ele>
        <time>2021-12-17T09:41:44Z</time>
      </trkpt>
      <trkpt lat="45.29857" lon="6.15083">
        <ele>2557.4</ele>
        <time>2021-12-17T09:41:48Z</time>
      </trkpt>
      <trkpt lat="45.29859" lon="6.15077">
        <ele>2558.6</ele>
        <time>2021-12-17T09:41:54Z</time>
      </trkpt>
      <trkpt lat="45.29861" lon="6.15074">
        <ele>2559.6</ele>
        <time>2021-12-17T09:41:57Z</time>
      </trkpt>
      <trkpt lat="45.29863" lon="6.15071">
        <ele>2560.2</ele>
        <time>2021-12-17T09:42:01Z</time>
      </trkpt>
      <trkpt lat="45.29863" lon="6.1507">
        <ele>2560.8</ele>
        <time>2021-12-17T09:42:03Z</time>
      </trkpt>
      <trkpt lat="45.29863" lon="6.15069">
        <ele>2561</ele>
        <time>2021-12-17T09:42:04Z</time>
      </trkpt>
      <trkpt lat="45.29865" lon="6.15066">
        <ele>2561.8</ele>
        <time>2021-12-17T09:42:08Z</time>
      </trkpt>
      <trkpt lat="45.29866" lon="6.15064">
        <ele>2562.4</ele>
        <time>2021-12-17T09:42:11Z</time>
      </trkpt>
      <trkpt lat="45.29866" lon="6.15062">
        <ele>2563</ele>
        <time>2021-12-17T09:42:13Z</time>
      </trkpt>
      <trkpt lat="45.29866" lon="6.15058">
        <ele>2563.8</ele>
        <time>2021-12-17T09:42:17Z</time>
      </trkpt>
      <trkpt lat="45.29866" lon="6.15058">
        <ele>2564</ele>
        <time>2021-12-17T09:42:18Z</time>
      </trkpt>
      <trkpt lat="45.29867" lon="6.15055">
        <ele>2565.2</ele>
        <time>2021-12-17T09:42:22Z</time>
      </trkpt>
      <trkpt lat="45.29868" lon="6.15052">
        <ele>2566.2</ele>
        <time>2021-12-17T09:42:25Z</time>
      </trkpt>
      <trkpt lat="45.29869" lon="6.1505">
        <ele>2567.2</ele>
        <time>2021-12-17T09:42:29Z</time>
      </trkpt>
      <trkpt lat="45.29869" lon="6.15048">
        <ele>2567.6</ele>
        <time>2021-12-17T09:42:31Z</time>
      </trkpt>
      <trkpt lat="45.2987" lon="6.15045">
        <ele>2568.6</ele>
        <time>2021-12-17T09:42:35Z</time>
      </trkpt>
      <trkpt lat="45.29871" lon="6.15043">
        <ele>2569.6</ele>
        <time>2021-12-17T09:42:40Z</time>
      </trkpt>
      <trkpt lat="45.29872" lon="6.15039">
        <ele>2570.6</ele>
        <time>2021-12-17T09:42:44Z</time>
      </trkpt>
      <trkpt lat="45.29873" lon="6.15038">
        <ele>2571</ele>
        <time>2021-12-17T09:42:45Z</time>
      </trkpt>
      <trkpt lat="45.29873" lon="6.15035">
        <ele>2571.8</ele>
        <time>2021-12-17T09:42:49Z</time>
      </trkpt>
      <trkpt lat="45.29874" lon="6.15033">
        <ele>2572.4</ele>
        <time>2021-12-17T09:42:51Z</time>
      </trkpt>
      <trkpt lat="45.29875" lon="6.1503">
        <ele>2573.2</ele>
        <time>2021-12-17T09:42:55Z</time>
      </trkpt>
      <trkpt lat="45.29876" lon="6.1503">
        <ele>2573.4</ele>
        <time>2021-12-17T09:42:56Z</time>
      </trkpt>
      <trkpt lat="45.29876" lon="6.15027">
        <ele>2574.2</ele>
        <time>2021-12-17T09:43:00Z</time>
      </trkpt>
      <trkpt lat="45.29877" lon="6.15024">
        <ele>2575.2</ele>
        <time>2021-12-17T09:43:05Z</time>
      </trkpt>
      <trkpt lat="45.29877" lon="6.15022">
        <ele>2575.8</ele>
        <time>2021-12-17T09:43:08Z</time>
      </trkpt>
      <trkpt lat="45.29878" lon="6.15021">
        <ele>2576.2</ele>
        <time>2021-12-17T09:43:10Z</time>
      </trkpt>
      <trkpt lat="45.29879" lon="6.15018">
        <ele>2577.4</ele>
        <time>2021-12-17T09:43:15Z</time>
      </trkpt>
      <trkpt lat="45.29879" lon="6.15016">
        <ele>2577.8</ele>
        <time>2021-12-17T09:43:17Z</time>
      </trkpt>
      <trkpt lat="45.2988" lon="6.15014">
        <ele>2578.6</ele>
        <time>2021-12-17T09:43:20Z</time>
      </trkpt>
      <trkpt lat="45.29881" lon="6.15011">
        <ele>2579.4</ele>
        <time>2021-12-17T09:43:24Z</time>
      </trkpt>
      <trkpt lat="45.29882" lon="6.1501">
        <ele>2579.6</ele>
        <time>2021-12-17T09:43:25Z</time>
      </trkpt>
      <trkpt lat="45.29884" lon="6.15006">
        <ele>2580.8</ele>
        <time>2021-12-17T09:43:32Z</time>
      </trkpt>
      <trkpt lat="45.29884" lon="6.15006">
        <ele>2581</ele>
        <time>2021-12-17T09:43:33Z</time>
      </trkpt>
      <trkpt lat="45.29885" lon="6.15006">
        <ele>2581</ele>
        <time>2021-12-17T09:43:34Z</time>
      </trkpt>
      <trkpt lat="45.29887" lon="6.15004">
        <ele>2582</ele>
        <time>2021-12-17T09:43:38Z</time>
      </trkpt>
      <trkpt lat="45.29889" lon="6.15003">
        <ele>2582.8</ele>
        <time>2021-12-17T09:43:42Z</time>
      </trkpt>
      <trkpt lat="45.29891" lon="6.15002">
        <ele>2583.2</ele>
        <time>2021-12-17T09:43:44Z</time>
      </trkpt>
      <trkpt lat="45.29894" lon="6.15002">
        <ele>2584.6</ele>
        <time>2021-12-17T09:43:50Z</time>
      </trkpt>
      <trkpt lat="45.29894" lon="6.15002">
        <ele>2584.8</ele>
        <time>2021-12-17T09:43:51Z</time>
      </trkpt>
      <trkpt lat="45.29897" lon="6.15">
        <ele>2585.8</ele>
        <time>2021-12-17T09:43:55Z</time>
      </trkpt>
      <trkpt lat="45.29898" lon="6.15">
        <ele>2586.8</ele>
        <time>2021-12-17T09:43:59Z</time>
      </trkpt>
      <trkpt lat="45.29898" lon="6.14999">
        <ele>2587</ele>
        <time>2021-12-17T09:44:00Z</time>
      </trkpt>
      <trkpt lat="45.29901" lon="6.14997">
        <ele>2588.2</ele>
        <time>2021-12-17T09:44:06Z</time>
      </trkpt>
      <trkpt lat="45.29903" lon="6.14995">
        <ele>2589.4</ele>
        <time>2021-12-17T09:44:10Z</time>
      </trkpt>
      <trkpt lat="45.29904" lon="6.14993">
        <ele>2590.4</ele>
        <time>2021-12-17T09:44:15Z</time>
      </trkpt>
      <trkpt lat="45.29904" lon="6.14992">
        <ele>2590.6</ele>
        <time>2021-12-17T09:44:17Z</time>
      </trkpt>
      <trkpt lat="45.29905" lon="6.14989">
        <ele>2591.4</ele>
        <time>2021-12-17T09:44:21Z</time>
      </trkpt>
      <trkpt lat="45.29906" lon="6.14987">
        <ele>2592.2</ele>
        <time>2021-12-17T09:44:24Z</time>
      </trkpt>
      <trkpt lat="45.29906" lon="6.14986">
        <ele>2592.6</ele>
        <time>2021-12-17T09:44:26Z</time>
      </trkpt>
      <trkpt lat="45.29908" lon="6.14982">
        <ele>2593.8</ele>
        <time>2021-12-17T09:44:32Z</time>
      </trkpt>
      <trkpt lat="45.29907" lon="6.14975">
        <ele>2594.8</ele>
        <time>2021-12-17T09:44:37Z</time>
      </trkpt>
      <trkpt lat="45.29907" lon="6.14975">
        <ele>2594.8</ele>
        <time>2021-12-17T09:44:38Z</time>
      </trkpt>
      <trkpt lat="45.2991" lon="6.14968">
        <ele>2596</ele>
        <time>2021-12-17T09:44:45Z</time>
      </trkpt>
      <trkpt lat="45.29911" lon="6.14966">
        <ele>2596.2</ele>
        <time>2021-12-17T09:44:47Z</time>
      </trkpt>
      <trkpt lat="45.29915" lon="6.14958">
        <ele>2597</ele>
        <time>2021-12-17T09:44:56Z</time>
      </trkpt>
      <trkpt lat="45.29915" lon="6.14957">
        <ele>2597</ele>
        <time>2021-12-17T09:44:57Z</time>
      </trkpt>
      <trkpt lat="45.29918" lon="6.14949">
        <ele>2598</ele>
        <time>2021-12-17T09:45:05Z</time>
      </trkpt>
      <trkpt lat="45.29918" lon="6.14941">
        <ele>2599.2</ele>
        <time>2021-12-17T09:45:13Z</time>
      </trkpt>
      <trkpt lat="45.29918" lon="6.1494">
        <ele>2599.4</ele>
        <time>2021-12-17T09:45:14Z</time>
      </trkpt>
      <trkpt lat="45.29919" lon="6.14935">
        <ele>2600.2</ele>
        <time>2021-12-17T09:45:20Z</time>
      </trkpt>
      <trkpt lat="45.29919" lon="6.14932">
        <ele>2600.4</ele>
        <time>2021-12-17T09:45:23Z</time>
      </trkpt>
      <trkpt lat="45.2992" lon="6.14926">
        <ele>2601.2</ele>
        <time>2021-12-17T09:45:29Z</time>
      </trkpt>
      <trkpt lat="45.2992" lon="6.14924">
        <ele>2601.4</ele>
        <time>2021-12-17T09:45:30Z</time>
      </trkpt>
      <trkpt lat="45.29921" lon="6.14916">
        <ele>2601.8</ele>
        <time>2021-12-17T09:45:37Z</time>
      </trkpt>
      <trkpt lat="45.29921" lon="6.14914">
        <ele>2601.8</ele>
        <time>2021-12-17T09:45:38Z</time>
      </trkpt>
      <trkpt lat="45.29922" lon="6.14907">
        <ele>2602</ele>
        <time>2021-12-17T09:45:43Z</time>
      </trkpt>
      <trkpt lat="45.29922" lon="6.14901">
        <ele>2602.2</ele>
        <time>2021-12-17T09:45:48Z</time>
      </trkpt>
      <trkpt lat="45.29923" lon="6.149">
        <ele>2602.4</ele>
        <time>2021-12-17T09:45:49Z</time>
      </trkpt>
      <trkpt lat="45.29923" lon="6.14899">
        <ele>2602.4</ele>
        <time>2021-12-17T09:45:50Z</time>
      </trkpt>
      <trkpt lat="45.29924" lon="6.1489">
        <ele>2602.6</ele>
        <time>2021-12-17T09:45:56Z</time>
      </trkpt>
      <trkpt lat="45.29924" lon="6.14883">
        <ele>2603</ele>
        <time>2021-12-17T09:46:02Z</time>
      </trkpt>
      <trkpt lat="45.29924" lon="6.14881">
        <ele>2603</ele>
        <time>2021-12-17T09:46:03Z</time>
      </trkpt>
      <trkpt lat="45.29923" lon="6.14879">
        <ele>2603.4</ele>
        <time>2021-12-17T09:46:05Z</time>
      </trkpt>
      <trkpt lat="45.29923" lon="6.14876">
        <ele>2603.8</ele>
        <time>2021-12-17T09:46:08Z</time>
      </trkpt>
      <trkpt lat="45.29923" lon="6.14874">
        <ele>2603.8</ele>
        <time>2021-12-17T09:46:09Z</time>
      </trkpt>
      <trkpt lat="45.29924" lon="6.1487">
        <ele>2604</ele>
        <time>2021-12-17T09:46:12Z</time>
      </trkpt>
      <trkpt lat="45.29924" lon="6.14868">
        <ele>2604.2</ele>
        <time>2021-12-17T09:46:14Z</time>
      </trkpt>
      <trkpt lat="45.29924" lon="6.14865">
        <ele>2604.4</ele>
        <time>2021-12-17T09:46:16Z</time>
      </trkpt>
      <trkpt lat="45.29925" lon="6.14864">
        <ele>2604.6</ele>
        <time>2021-12-17T09:46:17Z</time>
      </trkpt>
      <trkpt lat="45.29925" lon="6.14854">
        <ele>2605.6</ele>
        <time>2021-12-17T09:46:25Z</time>
      </trkpt>
      <trkpt lat="45.29925" lon="6.14845">
        <ele>2606.6</ele>
        <time>2021-12-17T09:46:33Z</time>
      </trkpt>
      <trkpt lat="45.29927" lon="6.14837">
        <ele>2607.8</ele>
        <time>2021-12-17T09:46:40Z</time>
      </trkpt>
      <trkpt lat="45.29928" lon="6.14836">
        <ele>2608</ele>
        <time>2021-12-17T09:46:41Z</time>
      </trkpt>
      <trkpt lat="45.2993" lon="6.14829">
        <ele>2609</ele>
        <time>2021-12-17T09:46:47Z</time>
      </trkpt>
      <trkpt lat="45.2993" lon="6.14828">
        <ele>2609.2</ele>
        <time>2021-12-17T09:46:48Z</time>
      </trkpt>
      <trkpt lat="45.29932" lon="6.14824">
        <ele>2610</ele>
        <time>2021-12-17T09:46:53Z</time>
      </trkpt>
      <trkpt lat="45.29933" lon="6.14821">
        <ele>2610.8</ele>
        <time>2021-12-17T09:46:57Z</time>
      </trkpt>
      <trkpt lat="45.29934" lon="6.14819">
        <ele>2611.2</ele>
        <time>2021-12-17T09:46:59Z</time>
      </trkpt>
      <trkpt lat="45.29938" lon="6.14813">
        <ele>2612.4</ele>
        <time>2021-12-17T09:47:07Z</time>
      </trkpt>
      <trkpt lat="45.29938" lon="6.14812">
        <ele>2612.4</ele>
        <time>2021-12-17T09:47:08Z</time>
      </trkpt>
      <trkpt lat="45.2994" lon="6.14807">
        <ele>2613.2</ele>
        <time>2021-12-17T09:47:12Z</time>
      </trkpt>
      <trkpt lat="45.29941" lon="6.14806">
        <ele>2613.4</ele>
        <time>2021-12-17T09:47:13Z</time>
      </trkpt>
      <trkpt lat="45.29942" lon="6.14805">
        <ele>2613.8</ele>
        <time>2021-12-17T09:47:15Z</time>
      </trkpt>
      <trkpt lat="45.29942" lon="6.14802">
        <ele>2614.6</ele>
        <time>2021-12-17T09:47:18Z</time>
      </trkpt>
      <trkpt lat="45.29945" lon="6.148">
        <ele>2615.2</ele>
        <time>2021-12-17T09:47:22Z</time>
      </trkpt>
      <trkpt lat="45.29945" lon="6.14799">
        <ele>2615.6</ele>
        <time>2021-12-17T09:47:24Z</time>
      </trkpt>
      <trkpt lat="45.29947" lon="6.14796">
        <ele>2617</ele>
        <time>2021-12-17T09:47:30Z</time>
      </trkpt>
      <trkpt lat="45.29948" lon="6.14793">
        <ele>2618</ele>
        <time>2021-12-17T09:47:36Z</time>
      </trkpt>
      <trkpt lat="45.29948" lon="6.14792">
        <ele>2618.2</ele>
        <time>2021-12-17T09:47:37Z</time>
      </trkpt>
      <trkpt lat="45.29951" lon="6.14787">
        <ele>2619</ele>
        <time>2021-12-17T09:47:42Z</time>
      </trkpt>
      <trkpt lat="45.29951" lon="6.14786">
        <ele>2619.2</ele>
        <time>2021-12-17T09:47:43Z</time>
      </trkpt>
      <trkpt lat="45.29952" lon="6.14783">
        <ele>2620</ele>
        <time>2021-12-17T09:47:49Z</time>
      </trkpt>
      <trkpt lat="45.29952" lon="6.14781">
        <ele>2620.2</ele>
        <time>2021-12-17T09:47:51Z</time>
      </trkpt>
      <trkpt lat="45.29952" lon="6.1478">
        <ele>2620.4</ele>
        <time>2021-12-17T09:47:52Z</time>
      </trkpt>
      <trkpt lat="45.29954" lon="6.14775">
        <ele>2621</ele>
        <time>2021-12-17T09:47:58Z</time>
      </trkpt>
      <trkpt lat="45.29954" lon="6.14774">
        <ele>2621</ele>
        <time>2021-12-17T09:47:59Z</time>
      </trkpt>
      <trkpt lat="45.29955" lon="6.14773">
        <ele>2621.4</ele>
        <time>2021-12-17T09:48:05Z</time>
      </trkpt>
      <trkpt lat="45.29954" lon="6.14774">
        <ele>2621.6</ele>
        <time>2021-12-17T09:48:12Z</time>
      </trkpt>
      <trkpt lat="45.29954" lon="6.14775">
        <ele>2621.4</ele>
        <time>2021-12-17T09:48:36Z</time>
      </trkpt>
      <trkpt lat="45.29955" lon="6.14776">
        <ele>2621.6</ele>
        <time>2021-12-17T09:49:22Z</time>
      </trkpt>
      <trkpt lat="45.29958" lon="6.14775">
        <ele>2621.8</ele>
        <time>2021-12-17T09:49:56Z</time>
      </trkpt>
      <trkpt lat="45.29955" lon="6.14775">
        <ele>2622.2</ele>
        <time>2021-12-17T09:50:14Z</time>
      </trkpt>
      <trkpt lat="45.29955" lon="6.14775">
        <ele>2623.2</ele>
        <time>2021-12-17T09:50:21Z</time>
      </trkpt>
      <trkpt lat="45.29955" lon="6.14775">
        <ele>2624.4</ele>
        <time>2021-12-17T09:50:26Z</time>
      </trkpt>
      <trkpt lat="45.29955" lon="6.14772">
        <ele>2625.4</ele>
        <time>2021-12-17T09:50:32Z</time>
      </trkpt>
      <trkpt lat="45.29955" lon="6.14764">
        <ele>2626.4</ele>
        <time>2021-12-17T09:50:39Z</time>
      </trkpt>
      <trkpt lat="45.2995" lon="6.14753">
        <ele>2627.2</ele>
        <time>2021-12-17T09:50:44Z</time>
      </trkpt>
      <trkpt lat="45.29949" lon="6.14747">
        <ele>2627.6</ele>
        <time>2021-12-17T09:50:47Z</time>
      </trkpt>
      <trkpt lat="45.29947" lon="6.14743">
        <ele>2628.2</ele>
        <time>2021-12-17T09:50:50Z</time>
      </trkpt>
      <trkpt lat="45.29947" lon="6.14741">
        <ele>2628.6</ele>
        <time>2021-12-17T09:50:53Z</time>
      </trkpt>
      <trkpt lat="45.29947" lon="6.14739">
        <ele>2629</ele>
        <time>2021-12-17T09:50:55Z</time>
      </trkpt>
      <trkpt lat="45.29945" lon="6.14736">
        <ele>2629.8</ele>
        <time>2021-12-17T09:50:59Z</time>
      </trkpt>
      <trkpt lat="45.29944" lon="6.14733">
        <ele>2630.2</ele>
        <time>2021-12-17T09:51:02Z</time>
      </trkpt>
      <trkpt lat="45.29942" lon="6.14731">
        <ele>2631</ele>
        <time>2021-12-17T09:51:06Z</time>
      </trkpt>
      <trkpt lat="45.29941" lon="6.14727">
        <ele>2632</ele>
        <time>2021-12-17T09:51:11Z</time>
      </trkpt>
      <trkpt lat="45.29938" lon="6.14721">
        <ele>2633.2</ele>
        <time>2021-12-17T09:51:17Z</time>
      </trkpt>
      <trkpt lat="45.29937" lon="6.14718">
        <ele>2633.4</ele>
        <time>2021-12-17T09:51:19Z</time>
      </trkpt>
      <trkpt lat="45.29936" lon="6.14713">
        <ele>2634.4</ele>
        <time>2021-12-17T09:51:24Z</time>
      </trkpt>
      <trkpt lat="45.29934" lon="6.14708">
        <ele>2634.8</ele>
        <time>2021-12-17T09:51:28Z</time>
      </trkpt>
      <trkpt lat="45.29933" lon="6.14705">
        <ele>2635.4</ele>
        <time>2021-12-17T09:51:31Z</time>
      </trkpt>
      <trkpt lat="45.2993" lon="6.14699">
        <ele>2636.6</ele>
        <time>2021-12-17T09:51:37Z</time>
      </trkpt>
      <trkpt lat="45.29929" lon="6.14693">
        <ele>2637.6</ele>
        <time>2021-12-17T09:51:42Z</time>
      </trkpt>
      <trkpt lat="45.2993" lon="6.14691">
        <ele>2638.2</ele>
        <time>2021-12-17T09:51:44Z</time>
      </trkpt>
      <trkpt lat="45.2993" lon="6.14688">
        <ele>2638.8</ele>
        <time>2021-12-17T09:51:47Z</time>
      </trkpt>
      <trkpt lat="45.29929" lon="6.14685">
        <ele>2639.2</ele>
        <time>2021-12-17T09:51:50Z</time>
      </trkpt>
      <trkpt lat="45.29928" lon="6.1468">
        <ele>2639.8</ele>
        <time>2021-12-17T09:51:55Z</time>
      </trkpt>
      <trkpt lat="45.29927" lon="6.14675">
        <ele>2640.6</ele>
        <time>2021-12-17T09:51:59Z</time>
      </trkpt>
      <trkpt lat="45.29926" lon="6.14671">
        <ele>2640.8</ele>
        <time>2021-12-17T09:52:02Z</time>
      </trkpt>
      <trkpt lat="45.29923" lon="6.14665">
        <ele>2641.4</ele>
        <time>2021-12-17T09:52:07Z</time>
      </trkpt>
      <trkpt lat="45.29921" lon="6.14662">
        <ele>2642</ele>
        <time>2021-12-17T09:52:11Z</time>
      </trkpt>
      <trkpt lat="45.2992" lon="6.14659">
        <ele>2642.4</ele>
        <time>2021-12-17T09:52:14Z</time>
      </trkpt>
      <trkpt lat="45.2992" lon="6.14659">
        <ele>2642.6</ele>
        <time>2021-12-17T09:52:15Z</time>
      </trkpt>
      <trkpt lat="45.29918" lon="6.14658">
        <ele>2643.2</ele>
        <time>2021-12-17T09:52:17Z</time>
      </trkpt>
      <trkpt lat="45.29915" lon="6.14654">
        <ele>2644.4</ele>
        <time>2021-12-17T09:52:22Z</time>
      </trkpt>
      <trkpt lat="45.29914" lon="6.1465">
        <ele>2645.4</ele>
        <time>2021-12-17T09:52:27Z</time>
      </trkpt>
      <trkpt lat="45.29912" lon="6.14647">
        <ele>2645.8</ele>
        <time>2021-12-17T09:52:31Z</time>
      </trkpt>
      <trkpt lat="45.2991" lon="6.14643">
        <ele>2646.4</ele>
        <time>2021-12-17T09:52:36Z</time>
      </trkpt>
      <trkpt lat="45.29909" lon="6.14642">
        <ele>2646.6</ele>
        <time>2021-12-17T09:52:37Z</time>
      </trkpt>
      <trkpt lat="45.29907" lon="6.14639">
        <ele>2647.4</ele>
        <time>2021-12-17T09:52:42Z</time>
      </trkpt>
      <trkpt lat="45.29906" lon="6.14636">
        <ele>2648</ele>
        <time>2021-12-17T09:52:45Z</time>
      </trkpt>
      <trkpt lat="45.29906" lon="6.14633">
        <ele>2648.6</ele>
        <time>2021-12-17T09:52:48Z</time>
      </trkpt>
      <trkpt lat="45.29904" lon="6.14629">
        <ele>2649.6</ele>
        <time>2021-12-17T09:52:53Z</time>
      </trkpt>
      <trkpt lat="45.29904" lon="6.14628">
        <ele>2649.8</ele>
        <time>2021-12-17T09:52:54Z</time>
      </trkpt>
      <trkpt lat="45.29902" lon="6.14622">
        <ele>2650.8</ele>
        <time>2021-12-17T09:53:00Z</time>
      </trkpt>
      <trkpt lat="45.29903" lon="6.14621">
        <ele>2650.8</ele>
        <time>2021-12-17T09:53:01Z</time>
      </trkpt>
      <trkpt lat="45.29904" lon="6.14617">
        <ele>2652</ele>
        <time>2021-12-17T09:53:05Z</time>
      </trkpt>
      <trkpt lat="45.29905" lon="6.14611">
        <ele>2653.2</ele>
        <time>2021-12-17T09:53:10Z</time>
      </trkpt>
      <trkpt lat="45.29906" lon="6.1461">
        <ele>2653.4</ele>
        <time>2021-12-17T09:53:11Z</time>
      </trkpt>
      <trkpt lat="45.2991" lon="6.14605">
        <ele>2654.2</ele>
        <time>2021-12-17T09:53:17Z</time>
      </trkpt>
      <trkpt lat="45.29912" lon="6.14602">
        <ele>2654.8</ele>
        <time>2021-12-17T09:53:20Z</time>
      </trkpt>
      <trkpt lat="45.29919" lon="6.14599">
        <ele>2655.2</ele>
        <time>2021-12-17T09:53:28Z</time>
      </trkpt>
      <trkpt lat="45.2993" lon="6.14597">
        <ele>2655.2</ele>
        <time>2021-12-17T09:53:39Z</time>
      </trkpt>
      <trkpt lat="45.2993" lon="6.14597">
        <ele>2655.2</ele>
        <time>2021-12-17T09:53:44Z</time>
      </trkpt>
      <trkpt lat="45.2993" lon="6.14597">
        <ele>2655.4</ele>
        <time>2021-12-17T09:53:45Z</time>
      </trkpt>
      <trkpt lat="45.2993" lon="6.14597">
        <ele>2655.4</ele>
        <time>2021-12-17T09:53:48Z</time>
      </trkpt>
      <trkpt lat="45.2993" lon="6.14601">
        <ele>2655.4</ele>
        <time>2021-12-17T09:54:29Z</time>
      </trkpt>
      <trkpt lat="45.2993" lon="6.14601">
        <ele>2655.4</ele>
        <time>2021-12-17T09:54:33Z</time>
      </trkpt>
      <trkpt lat="45.29924" lon="6.14603">
        <ele>2655</ele>
        <time>2021-12-17T09:54:49Z</time>
      </trkpt>
      <trkpt lat="45.2991" lon="6.14599">
        <ele>2655.4</ele>
        <time>2021-12-17T09:55:01Z</time>
      </trkpt>
      <trkpt lat="45.29908" lon="6.14597">
        <ele>2655.4</ele>
        <time>2021-12-17T09:55:03Z</time>
      </trkpt>
      <trkpt lat="45.299" lon="6.14587">
        <ele>2656</ele>
        <time>2021-12-17T09:55:12Z</time>
      </trkpt>
      <trkpt lat="45.29892" lon="6.14578">
        <ele>2656.4</ele>
        <time>2021-12-17T09:55:20Z</time>
      </trkpt>
      <trkpt lat="45.29889" lon="6.14576">
        <ele>2656.6</ele>
        <time>2021-12-17T09:55:23Z</time>
      </trkpt>
      <trkpt lat="45.29884" lon="6.14569">
        <ele>2657.4</ele>
        <time>2021-12-17T09:55:30Z</time>
      </trkpt>
      <trkpt lat="45.29883" lon="6.14568">
        <ele>2657.4</ele>
        <time>2021-12-17T09:55:31Z</time>
      </trkpt>
      <trkpt lat="45.2988" lon="6.14556">
        <ele>2657.2</ele>
        <time>2021-12-17T09:55:39Z</time>
      </trkpt>
      <trkpt lat="45.29879" lon="6.1455">
        <ele>2657</ele>
        <time>2021-12-17T09:55:42Z</time>
      </trkpt>
      <trkpt lat="45.29881" lon="6.14546">
        <ele>2656.2</ele>
        <time>2021-12-17T09:55:44Z</time>
      </trkpt>
      <trkpt lat="45.29876" lon="6.14537">
        <ele>2655.8</ele>
        <time>2021-12-17T09:55:51Z</time>
      </trkpt>
      <trkpt lat="45.29873" lon="6.14524">
        <ele>2655</ele>
        <time>2021-12-17T09:55:58Z</time>
      </trkpt>
      <trkpt lat="45.29872" lon="6.1452">
        <ele>2654.8</ele>
        <time>2021-12-17T09:56:00Z</time>
      </trkpt>
      <trkpt lat="45.29868" lon="6.14507">
        <ele>2654.2</ele>
        <time>2021-12-17T09:56:10Z</time>
      </trkpt>
      <trkpt lat="45.29867" lon="6.14506">
        <ele>2654</ele>
        <time>2021-12-17T09:56:11Z</time>
      </trkpt>
      <trkpt lat="45.2986" lon="6.145">
        <ele>2653</ele>
        <time>2021-12-17T09:56:21Z</time>
      </trkpt>
      <trkpt lat="45.29856" lon="6.14495">
        <ele>2651.8</ele>
        <time>2021-12-17T09:56:28Z</time>
      </trkpt>
      <trkpt lat="45.29855" lon="6.14494">
        <ele>2651.6</ele>
        <time>2021-12-17T09:56:30Z</time>
      </trkpt>
      <trkpt lat="45.2985" lon="6.14492">
        <ele>2650.6</ele>
        <time>2021-12-17T09:56:36Z</time>
      </trkpt>
      <trkpt lat="45.29849" lon="6.14491">
        <ele>2650.2</ele>
        <time>2021-12-17T09:56:39Z</time>
      </trkpt>
      <trkpt lat="45.29847" lon="6.1449">
        <ele>2649.6</ele>
        <time>2021-12-17T09:56:44Z</time>
      </trkpt>
      <trkpt lat="45.29844" lon="6.1449">
        <ele>2649</ele>
        <time>2021-12-17T09:56:47Z</time>
      </trkpt>
      <trkpt lat="45.29843" lon="6.14489">
        <ele>2648.4</ele>
        <time>2021-12-17T09:56:50Z</time>
      </trkpt>
      <trkpt lat="45.29841" lon="6.14489">
        <ele>2647.4</ele>
        <time>2021-12-17T09:56:55Z</time>
      </trkpt>
      <trkpt lat="45.2984" lon="6.14488">
        <ele>2647.4</ele>
        <time>2021-12-17T09:56:56Z</time>
      </trkpt>
      <trkpt lat="45.29836" lon="6.14489">
        <ele>2646.4</ele>
        <time>2021-12-17T09:57:02Z</time>
      </trkpt>
      <trkpt lat="45.29834" lon="6.14488">
        <ele>2645.4</ele>
        <time>2021-12-17T09:57:05Z</time>
      </trkpt>
      <trkpt lat="45.2983" lon="6.14488">
        <ele>2644.2</ele>
        <time>2021-12-17T09:57:10Z</time>
      </trkpt>
      <trkpt lat="45.29828" lon="6.14489">
        <ele>2643.6</ele>
        <time>2021-12-17T09:57:13Z</time>
      </trkpt>
      <trkpt lat="45.29826" lon="6.14489">
        <ele>2643.2</ele>
        <time>2021-12-17T09:57:15Z</time>
      </trkpt>
      <trkpt lat="45.2982" lon="6.14493">
        <ele>2642.2</ele>
        <time>2021-12-17T09:57:22Z</time>
      </trkpt>
      <trkpt lat="45.29815" lon="6.14495">
        <ele>2641.4</ele>
        <time>2021-12-17T09:57:28Z</time>
      </trkpt>
      <trkpt lat="45.29814" lon="6.14496">
        <ele>2641.2</ele>
        <time>2021-12-17T09:57:31Z</time>
      </trkpt>
      <trkpt lat="45.29813" lon="6.14497">
        <ele>2641.2</ele>
        <time>2021-12-17T09:57:32Z</time>
      </trkpt>
      <trkpt lat="45.29812" lon="6.14498">
        <ele>2641</ele>
        <time>2021-12-17T09:57:33Z</time>
      </trkpt>
      <trkpt lat="45.29806" lon="6.14499">
        <ele>2640.6</ele>
        <time>2021-12-17T09:57:38Z</time>
      </trkpt>
      <trkpt lat="45.29798" lon="6.145">
        <ele>2640.2</ele>
        <time>2021-12-17T09:57:46Z</time>
      </trkpt>
      <trkpt lat="45.29797" lon="6.145">
        <ele>2639.8</ele>
        <time>2021-12-17T09:57:47Z</time>
      </trkpt>
      <trkpt lat="45.2979" lon="6.14501">
        <ele>2638.6</ele>
        <time>2021-12-17T09:57:50Z</time>
      </trkpt>
      <trkpt lat="45.29786" lon="6.14501">
        <ele>2637.4</ele>
        <time>2021-12-17T09:57:52Z</time>
      </trkpt>
      <trkpt lat="45.29783" lon="6.14503">
        <ele>2636.6</ele>
        <time>2021-12-17T09:57:56Z</time>
      </trkpt>
      <trkpt lat="45.2978" lon="6.14503">
        <ele>2636.4</ele>
        <time>2021-12-17T09:58:02Z</time>
      </trkpt>
      <trkpt lat="45.2978" lon="6.14502">
        <ele>2636.4</ele>
        <time>2021-12-17T09:58:03Z</time>
      </trkpt>
      <trkpt lat="45.29775" lon="6.14503">
        <ele>2637</ele>
        <time>2021-12-17T09:58:10Z</time>
      </trkpt>
      <trkpt lat="45.29772" lon="6.14502">
        <ele>2637.6</ele>
        <time>2021-12-17T09:58:14Z</time>
      </trkpt>
      <trkpt lat="45.2977" lon="6.14502">
        <ele>2637.8</ele>
        <time>2021-12-17T09:58:16Z</time>
      </trkpt>
      <trkpt lat="45.29763" lon="6.14503">
        <ele>2638.6</ele>
        <time>2021-12-17T09:58:23Z</time>
      </trkpt>
      <trkpt lat="45.2976" lon="6.14503">
        <ele>2639</ele>
        <time>2021-12-17T09:58:26Z</time>
      </trkpt>
      <trkpt lat="45.29755" lon="6.14505">
        <ele>2639.8</ele>
        <time>2021-12-17T09:58:32Z</time>
      </trkpt>
      <trkpt lat="45.29752" lon="6.14505">
        <ele>2640.2</ele>
        <time>2021-12-17T09:58:35Z</time>
      </trkpt>
      <trkpt lat="45.2975" lon="6.14505">
        <ele>2640.8</ele>
        <time>2021-12-17T09:58:38Z</time>
      </trkpt>
      <trkpt lat="45.29748" lon="6.14505">
        <ele>2641.8</ele>
        <time>2021-12-17T09:58:41Z</time>
      </trkpt>
      <trkpt lat="45.29747" lon="6.14505">
        <ele>2642</ele>
        <time>2021-12-17T09:58:42Z</time>
      </trkpt>
      <trkpt lat="45.29746" lon="6.14505">
        <ele>2642.4</ele>
        <time>2021-12-17T09:58:43Z</time>
      </trkpt>
      <trkpt lat="45.2974" lon="6.14505">
        <ele>2643.4</ele>
        <time>2021-12-17T09:58:49Z</time>
      </trkpt>
      <trkpt lat="45.29737" lon="6.14507">
        <ele>2643.8</ele>
        <time>2021-12-17T09:58:53Z</time>
      </trkpt>
      <trkpt lat="45.29735" lon="6.14508">
        <ele>2644.4</ele>
        <time>2021-12-17T09:58:55Z</time>
      </trkpt>
      <trkpt lat="45.29734" lon="6.14505">
        <ele>2645</ele>
        <time>2021-12-17T09:59:00Z</time>
      </trkpt>
      <trkpt lat="45.29736" lon="6.14496">
        <ele>2645.4</ele>
        <time>2021-12-17T09:59:06Z</time>
      </trkpt>
      <trkpt lat="45.29737" lon="6.14491">
        <ele>2646.4</ele>
        <time>2021-12-17T09:59:10Z</time>
      </trkpt>
      <trkpt lat="45.29737" lon="6.14487">
        <ele>2647.2</ele>
        <time>2021-12-17T09:59:13Z</time>
      </trkpt>
      <trkpt lat="45.29738" lon="6.14485">
        <ele>2647.6</ele>
        <time>2021-12-17T09:59:15Z</time>
      </trkpt>
      <trkpt lat="45.29739" lon="6.14478">
        <ele>2648.4</ele>
        <time>2021-12-17T09:59:19Z</time>
      </trkpt>
      <trkpt lat="45.2974" lon="6.14476">
        <ele>2649</ele>
        <time>2021-12-17T09:59:21Z</time>
      </trkpt>
      <trkpt lat="45.29739" lon="6.14471">
        <ele>2649.8</ele>
        <time>2021-12-17T09:59:25Z</time>
      </trkpt>
      <trkpt lat="45.29739" lon="6.1447">
        <ele>2650.2</ele>
        <time>2021-12-17T09:59:26Z</time>
      </trkpt>
      <trkpt lat="45.29741" lon="6.14464">
        <ele>2651.4</ele>
        <time>2021-12-17T09:59:31Z</time>
      </trkpt>
      <trkpt lat="45.29741" lon="6.14463">
        <ele>2651.8</ele>
        <time>2021-12-17T09:59:32Z</time>
      </trkpt>
      <trkpt lat="45.29742" lon="6.1446">
        <ele>2652.6</ele>
        <time>2021-12-17T09:59:35Z</time>
      </trkpt>
      <trkpt lat="45.29746" lon="6.14453">
        <ele>2653.6</ele>
        <time>2021-12-17T09:59:41Z</time>
      </trkpt>
      <trkpt lat="45.29748" lon="6.1445">
        <ele>2654.8</ele>
        <time>2021-12-17T09:59:45Z</time>
      </trkpt>
      <trkpt lat="45.29751" lon="6.14445">
        <ele>2656</ele>
        <time>2021-12-17T09:59:51Z</time>
      </trkpt>
      <trkpt lat="45.29754" lon="6.1444">
        <ele>2657</ele>
        <time>2021-12-17T09:59:56Z</time>
      </trkpt>
      <trkpt lat="45.29756" lon="6.14437">
        <ele>2658.2</ele>
        <time>2021-12-17T10:00:00Z</time>
      </trkpt>
      <trkpt lat="45.29756" lon="6.14437">
        <ele>2658.4</ele>
        <time>2021-12-17T10:00:01Z</time>
      </trkpt>
      <trkpt lat="45.29757" lon="6.14444">
        <ele>2659</ele>
        <time>2021-12-17T10:00:08Z</time>
      </trkpt>
      <trkpt lat="45.29759" lon="6.14446">
        <ele>2659.2</ele>
        <time>2021-12-17T10:00:13Z</time>
      </trkpt>
      <trkpt lat="45.29758" lon="6.14446">
        <ele>2659.6</ele>
        <time>2021-12-17T10:00:17Z</time>
      </trkpt>
      <trkpt lat="45.29752" lon="6.14446">
        <ele>2660.4</ele>
        <time>2021-12-17T10:00:22Z</time>
      </trkpt>
      <trkpt lat="45.29745" lon="6.14447">
        <ele>2661.4</ele>
        <time>2021-12-17T10:00:28Z</time>
      </trkpt>
      <trkpt lat="45.29743" lon="6.14447">
        <ele>2661.6</ele>
        <time>2021-12-17T10:00:30Z</time>
      </trkpt>
      <trkpt lat="45.2974" lon="6.14448">
        <ele>2662.4</ele>
        <time>2021-12-17T10:00:33Z</time>
      </trkpt>
      <trkpt lat="45.29736" lon="6.14447">
        <ele>2663.6</ele>
        <time>2021-12-17T10:00:38Z</time>
      </trkpt>
      <trkpt lat="45.29735" lon="6.14448">
        <ele>2663.8</ele>
        <time>2021-12-17T10:00:39Z</time>
      </trkpt>
      <trkpt lat="45.29732" lon="6.14448">
        <ele>2664.8</ele>
        <time>2021-12-17T10:00:44Z</time>
      </trkpt>
      <trkpt lat="45.29731" lon="6.14448">
        <ele>2665.2</ele>
        <time>2021-12-17T10:00:46Z</time>
      </trkpt>
      <trkpt lat="45.29733" lon="6.14443">
        <ele>2666</ele>
        <time>2021-12-17T10:00:51Z</time>
      </trkpt>
      <trkpt lat="45.29734" lon="6.1444">
        <ele>2666.4</ele>
        <time>2021-12-17T10:00:53Z</time>
      </trkpt>
      <trkpt lat="45.29736" lon="6.14437">
        <ele>2667</ele>
        <time>2021-12-17T10:00:57Z</time>
      </trkpt>
      <trkpt lat="45.29736" lon="6.14434">
        <ele>2667.4</ele>
        <time>2021-12-17T10:00:59Z</time>
      </trkpt>
      <trkpt lat="45.29737" lon="6.14429">
        <ele>2668</ele>
        <time>2021-12-17T10:01:03Z</time>
      </trkpt>
      <trkpt lat="45.29737" lon="6.14425">
        <ele>2668.8</ele>
        <time>2021-12-17T10:01:06Z</time>
      </trkpt>
      <trkpt lat="45.29736" lon="6.14423">
        <ele>2669.2</ele>
        <time>2021-12-17T10:01:07Z</time>
      </trkpt>
      <trkpt lat="45.29737" lon="6.14417">
        <ele>2670.2</ele>
        <time>2021-12-17T10:01:12Z</time>
      </trkpt>
      <trkpt lat="45.29737" lon="6.14416">
        <ele>2670.4</ele>
        <time>2021-12-17T10:01:13Z</time>
      </trkpt>
      <trkpt lat="45.29737" lon="6.1441">
        <ele>2671.4</ele>
        <time>2021-12-17T10:01:18Z</time>
      </trkpt>
      <trkpt lat="45.29739" lon="6.14407">
        <ele>2672.2</ele>
        <time>2021-12-17T10:01:21Z</time>
      </trkpt>
      <trkpt lat="45.2974" lon="6.14403">
        <ele>2672.6</ele>
        <time>2021-12-17T10:01:23Z</time>
      </trkpt>
      <trkpt lat="45.29743" lon="6.14399">
        <ele>2673.2</ele>
        <time>2021-12-17T10:01:26Z</time>
      </trkpt>
      <trkpt lat="45.29744" lon="6.14397">
        <ele>2673.6</ele>
        <time>2021-12-17T10:01:28Z</time>
      </trkpt>
      <trkpt lat="45.29746" lon="6.14394">
        <ele>2674.6</ele>
        <time>2021-12-17T10:01:32Z</time>
      </trkpt>
      <trkpt lat="45.29749" lon="6.14393">
        <ele>2675.6</ele>
        <time>2021-12-17T10:01:36Z</time>
      </trkpt>
      <trkpt lat="45.2975" lon="6.14393">
        <ele>2676</ele>
        <time>2021-12-17T10:01:37Z</time>
      </trkpt>
      <trkpt lat="45.29751" lon="6.14392">
        <ele>2677</ele>
        <time>2021-12-17T10:01:41Z</time>
      </trkpt>
      <trkpt lat="45.29752" lon="6.14395">
        <ele>2677.2</ele>
        <time>2021-12-17T10:01:43Z</time>
      </trkpt>
      <trkpt lat="45.2975" lon="6.14396">
        <ele>2677.8</ele>
        <time>2021-12-17T10:01:52Z</time>
      </trkpt>
      <trkpt lat="45.29749" lon="6.14397">
        <ele>2678</ele>
        <time>2021-12-17T10:02:06Z</time>
      </trkpt>
      <trkpt lat="45.29749" lon="6.14397">
        <ele>2678</ele>
        <time>2021-12-17T10:02:13Z</time>
      </trkpt>
      <trkpt lat="45.29745" lon="6.14399">
        <ele>2679</ele>
        <time>2021-12-17T10:02:31Z</time>
      </trkpt>
      <trkpt lat="45.29742" lon="6.144">
        <ele>2679.4</ele>
        <time>2021-12-17T10:02:34Z</time>
      </trkpt>
      <trkpt lat="45.29739" lon="6.14401">
        <ele>2680.2</ele>
        <time>2021-12-17T10:02:37Z</time>
      </trkpt>
      <trkpt lat="45.29737" lon="6.14401">
        <ele>2680.4</ele>
        <time>2021-12-17T10:02:38Z</time>
      </trkpt>
      <trkpt lat="45.29733" lon="6.14402">
        <ele>2681.6</ele>
        <time>2021-12-17T10:02:44Z</time>
      </trkpt>
      <trkpt lat="45.29732" lon="6.14403">
        <ele>2682</ele>
        <time>2021-12-17T10:02:46Z</time>
      </trkpt>
      <trkpt lat="45.29729" lon="6.14403">
        <ele>2682.6</ele>
        <time>2021-12-17T10:02:49Z</time>
      </trkpt>
      <trkpt lat="45.29726" lon="6.14406">
        <ele>2683.6</ele>
        <time>2021-12-17T10:02:55Z</time>
      </trkpt>
      <trkpt lat="45.29726" lon="6.14407">
        <ele>2684</ele>
        <time>2021-12-17T10:02:57Z</time>
      </trkpt>
      <trkpt lat="45.29725" lon="6.14407">
        <ele>2684.8</ele>
        <time>2021-12-17T10:02:59Z</time>
      </trkpt>
      <trkpt lat="45.29721" lon="6.1441">
        <ele>2686</ele>
        <time>2021-12-17T10:03:05Z</time>
      </trkpt>
      <trkpt lat="45.29721" lon="6.14411">
        <ele>2686.4</ele>
        <time>2021-12-17T10:03:07Z</time>
      </trkpt>
      <trkpt lat="45.2972" lon="6.14411">
        <ele>2687</ele>
        <time>2021-12-17T10:03:09Z</time>
      </trkpt>
      <trkpt lat="45.29718" lon="6.14413">
        <ele>2688</ele>
        <time>2021-12-17T10:03:14Z</time>
      </trkpt>
      <trkpt lat="45.29716" lon="6.14415">
        <ele>2688.8</ele>
        <time>2021-12-17T10:03:18Z</time>
      </trkpt>
      <trkpt lat="45.29716" lon="6.14415">
        <ele>2689.2</ele>
        <time>2021-12-17T10:03:19Z</time>
      </trkpt>
      <trkpt lat="45.29712" lon="6.14417">
        <ele>2690.2</ele>
        <time>2021-12-17T10:03:25Z</time>
      </trkpt>
      <trkpt lat="45.2971" lon="6.14421">
        <ele>2691.2</ele>
        <time>2021-12-17T10:03:30Z</time>
      </trkpt>
      <trkpt lat="45.29708" lon="6.14421">
        <ele>2691.8</ele>
        <time>2021-12-17T10:03:32Z</time>
      </trkpt>
      <trkpt lat="45.29704" lon="6.14422">
        <ele>2692.6</ele>
        <time>2021-12-17T10:03:35Z</time>
      </trkpt>
      <trkpt lat="45.29701" lon="6.14422">
        <ele>2693.6</ele>
        <time>2021-12-17T10:03:40Z</time>
      </trkpt>
      <trkpt lat="45.29699" lon="6.14421">
        <ele>2694.6</ele>
        <time>2021-12-17T10:03:45Z</time>
      </trkpt>
      <trkpt lat="45.297" lon="6.14416">
        <ele>2694.8</ele>
        <time>2021-12-17T10:03:48Z</time>
      </trkpt>
      <trkpt lat="45.29701" lon="6.14412">
        <ele>2695.4</ele>
        <time>2021-12-17T10:03:51Z</time>
      </trkpt>
      <trkpt lat="45.29701" lon="6.14411">
        <ele>2695.8</ele>
        <time>2021-12-17T10:03:52Z</time>
      </trkpt>
      <trkpt lat="45.29701" lon="6.14406">
        <ele>2696.6</ele>
        <time>2021-12-17T10:03:56Z</time>
      </trkpt>
      <trkpt lat="45.297" lon="6.14405">
        <ele>2697</ele>
        <time>2021-12-17T10:03:57Z</time>
      </trkpt>
      <trkpt lat="45.29703" lon="6.14404">
        <ele>2698</ele>
        <time>2021-12-17T10:04:01Z</time>
      </trkpt>
      <trkpt lat="45.29703" lon="6.14403">
        <ele>2698</ele>
        <time>2021-12-17T10:04:02Z</time>
      </trkpt>
      <trkpt lat="45.29702" lon="6.14399">
        <ele>2699</ele>
        <time>2021-12-17T10:04:07Z</time>
      </trkpt>
      <trkpt lat="45.29702" lon="6.14396">
        <ele>2700</ele>
        <time>2021-12-17T10:04:11Z</time>
      </trkpt>
      <trkpt lat="45.29703" lon="6.14393">
        <ele>2701</ele>
        <time>2021-12-17T10:04:15Z</time>
      </trkpt>
      <trkpt lat="45.29702" lon="6.14392">
        <ele>2701.4</ele>
        <time>2021-12-17T10:04:16Z</time>
      </trkpt>
      <trkpt lat="45.297" lon="6.14387">
        <ele>2702.6</ele>
        <time>2021-12-17T10:04:22Z</time>
      </trkpt>
      <trkpt lat="45.29696" lon="6.14383">
        <ele>2703.6</ele>
        <time>2021-12-17T10:04:29Z</time>
      </trkpt>
      <trkpt lat="45.29696" lon="6.14382">
        <ele>2704.2</ele>
        <time>2021-12-17T10:04:31Z</time>
      </trkpt>
      <trkpt lat="45.29695" lon="6.1438">
        <ele>2704.6</ele>
        <time>2021-12-17T10:04:33Z</time>
      </trkpt>
      <trkpt lat="45.29694" lon="6.14378">
        <ele>2705.6</ele>
        <time>2021-12-17T10:04:36Z</time>
      </trkpt>
      <trkpt lat="45.29694" lon="6.14377">
        <ele>2705.8</ele>
        <time>2021-12-17T10:04:37Z</time>
      </trkpt>
      <trkpt lat="45.29693" lon="6.14373">
        <ele>2706.8</ele>
        <time>2021-12-17T10:04:41Z</time>
      </trkpt>
      <trkpt lat="45.29692" lon="6.14372">
        <ele>2707.4</ele>
        <time>2021-12-17T10:04:44Z</time>
      </trkpt>
      <trkpt lat="45.29693" lon="6.14372">
        <ele>2707.8</ele>
        <time>2021-12-17T10:04:49Z</time>
      </trkpt>
      <trkpt lat="45.2969" lon="6.14377">
        <ele>2708.6</ele>
        <time>2021-12-17T10:04:55Z</time>
      </trkpt>
      <trkpt lat="45.29689" lon="6.14378">
        <ele>2709</ele>
        <time>2021-12-17T10:04:57Z</time>
      </trkpt>
      <trkpt lat="45.29688" lon="6.14381">
        <ele>2709.6</ele>
        <time>2021-12-17T10:05:01Z</time>
      </trkpt>
      <trkpt lat="45.29687" lon="6.14383">
        <ele>2710</ele>
        <time>2021-12-17T10:05:04Z</time>
      </trkpt>
      <trkpt lat="45.29684" lon="6.14384">
        <ele>2710.8</ele>
        <time>2021-12-17T10:05:08Z</time>
      </trkpt>
      <trkpt lat="45.29683" lon="6.14386">
        <ele>2711.2</ele>
        <time>2021-12-17T10:05:10Z</time>
      </trkpt>
      <trkpt lat="45.2968" lon="6.14387">
        <ele>2712.2</ele>
        <time>2021-12-17T10:05:15Z</time>
      </trkpt>
      <trkpt lat="45.2968" lon="6.14388">
        <ele>2712.4</ele>
        <time>2021-12-17T10:05:16Z</time>
      </trkpt>
      <trkpt lat="45.29678" lon="6.14391">
        <ele>2713.6</ele>
        <time>2021-12-17T10:05:21Z</time>
      </trkpt>
      <trkpt lat="45.29676" lon="6.14393">
        <ele>2714.2</ele>
        <time>2021-12-17T10:05:25Z</time>
      </trkpt>
      <trkpt lat="45.29675" lon="6.14394">
        <ele>2714.8</ele>
        <time>2021-12-17T10:05:27Z</time>
      </trkpt>
      <trkpt lat="45.29672" lon="6.14396">
        <ele>2715.4</ele>
        <time>2021-12-17T10:05:31Z</time>
      </trkpt>
      <trkpt lat="45.29672" lon="6.14397">
        <ele>2715.8</ele>
        <time>2021-12-17T10:05:33Z</time>
      </trkpt>
      <trkpt lat="45.29668" lon="6.14399">
        <ele>2716.8</ele>
        <time>2021-12-17T10:05:38Z</time>
      </trkpt>
      <trkpt lat="45.29667" lon="6.14399">
        <ele>2717</ele>
        <time>2021-12-17T10:05:39Z</time>
      </trkpt>
      <trkpt lat="45.29664" lon="6.14402">
        <ele>2718.2</ele>
        <time>2021-12-17T10:05:44Z</time>
      </trkpt>
      <trkpt lat="45.29664" lon="6.14403">
        <ele>2718.4</ele>
        <time>2021-12-17T10:05:45Z</time>
      </trkpt>
      <trkpt lat="45.29662" lon="6.14406">
        <ele>2719.2</ele>
        <time>2021-12-17T10:05:50Z</time>
      </trkpt>
      <trkpt lat="45.29662" lon="6.14407">
        <ele>2719.4</ele>
        <time>2021-12-17T10:05:51Z</time>
      </trkpt>
      <trkpt lat="45.29659" lon="6.14405">
        <ele>2719.6</ele>
        <time>2021-12-17T10:05:58Z</time>
      </trkpt>
      <trkpt lat="45.2966" lon="6.14401">
        <ele>2720.2</ele>
        <time>2021-12-17T10:06:02Z</time>
      </trkpt>
      <trkpt lat="45.29659" lon="6.144">
        <ele>2720.6</ele>
        <time>2021-12-17T10:06:03Z</time>
      </trkpt>
      <trkpt lat="45.29656" lon="6.14395">
        <ele>2721.2</ele>
        <time>2021-12-17T10:06:07Z</time>
      </trkpt>
      <trkpt lat="45.29655" lon="6.14393">
        <ele>2721.6</ele>
        <time>2021-12-17T10:06:09Z</time>
      </trkpt>
      <trkpt lat="45.29656" lon="6.1439">
        <ele>2722.8</ele>
        <time>2021-12-17T10:06:13Z</time>
      </trkpt>
      <trkpt lat="45.29655" lon="6.14387">
        <ele>2723.2</ele>
        <time>2021-12-17T10:06:15Z</time>
      </trkpt>
      <trkpt lat="45.29655" lon="6.14385">
        <ele>2723.8</ele>
        <time>2021-12-17T10:06:18Z</time>
      </trkpt>
      <trkpt lat="45.29655" lon="6.14381">
        <ele>2724.4</ele>
        <time>2021-12-17T10:06:21Z</time>
      </trkpt>
      <trkpt lat="45.29655" lon="6.14378">
        <ele>2725.2</ele>
        <time>2021-12-17T10:06:24Z</time>
      </trkpt>
      <trkpt lat="45.29655" lon="6.14376">
        <ele>2726</ele>
        <time>2021-12-17T10:06:28Z</time>
      </trkpt>
      <trkpt lat="45.29655" lon="6.14376">
        <ele>2726.2</ele>
        <time>2021-12-17T10:06:29Z</time>
      </trkpt>
      <trkpt lat="45.29653" lon="6.14378">
        <ele>2726.8</ele>
        <time>2021-12-17T10:06:33Z</time>
      </trkpt>
      <trkpt lat="45.29653" lon="6.14381">
        <ele>2727.4</ele>
        <time>2021-12-17T10:06:36Z</time>
      </trkpt>
      <trkpt lat="45.29653" lon="6.14383">
        <ele>2728</ele>
        <time>2021-12-17T10:06:39Z</time>
      </trkpt>
      <trkpt lat="45.29651" lon="6.14385">
        <ele>2728.6</ele>
        <time>2021-12-17T10:06:42Z</time>
      </trkpt>
      <trkpt lat="45.29647" lon="6.1439">
        <ele>2729.6</ele>
        <time>2021-12-17T10:06:48Z</time>
      </trkpt>
      <trkpt lat="45.29647" lon="6.14391">
        <ele>2729.6</ele>
        <time>2021-12-17T10:06:49Z</time>
      </trkpt>
      <trkpt lat="45.29647" lon="6.14395">
        <ele>2730.8</ele>
        <time>2021-12-17T10:06:54Z</time>
      </trkpt>
      <trkpt lat="45.29647" lon="6.14396">
        <ele>2731</ele>
        <time>2021-12-17T10:06:55Z</time>
      </trkpt>
      <trkpt lat="45.29646" lon="6.14401">
        <ele>2732</ele>
        <time>2021-12-17T10:07:01Z</time>
      </trkpt>
      <trkpt lat="45.29646" lon="6.14401">
        <ele>2732.2</ele>
        <time>2021-12-17T10:07:02Z</time>
      </trkpt>
      <trkpt lat="45.29643" lon="6.14398">
        <ele>2732.6</ele>
        <time>2021-12-17T10:07:09Z</time>
      </trkpt>
      <trkpt lat="45.29643" lon="6.14396">
        <ele>2733.2</ele>
        <time>2021-12-17T10:07:11Z</time>
      </trkpt>
      <trkpt lat="45.29642" lon="6.14395">
        <ele>2734.2</ele>
        <time>2021-12-17T10:07:16Z</time>
      </trkpt>
      <trkpt lat="45.29642" lon="6.14393">
        <ele>2734.6</ele>
        <time>2021-12-17T10:07:18Z</time>
      </trkpt>
      <trkpt lat="45.2964" lon="6.1439">
        <ele>2735.4</ele>
        <time>2021-12-17T10:07:22Z</time>
      </trkpt>
      <trkpt lat="45.29638" lon="6.14385">
        <ele>2736.4</ele>
        <time>2021-12-17T10:07:26Z</time>
      </trkpt>
      <trkpt lat="45.29637" lon="6.14384">
        <ele>2736.4</ele>
        <time>2021-12-17T10:07:27Z</time>
      </trkpt>
      <trkpt lat="45.29634" lon="6.1438">
        <ele>2737.6</ele>
        <time>2021-12-17T10:07:31Z</time>
      </trkpt>
      <trkpt lat="45.29633" lon="6.14376">
        <ele>2738.2</ele>
        <time>2021-12-17T10:07:35Z</time>
      </trkpt>
      <trkpt lat="45.29632" lon="6.14374">
        <ele>2738.6</ele>
        <time>2021-12-17T10:07:37Z</time>
      </trkpt>
      <trkpt lat="45.29632" lon="6.14367">
        <ele>2739.4</ele>
        <time>2021-12-17T10:07:42Z</time>
      </trkpt>
      <trkpt lat="45.29632" lon="6.14365">
        <ele>2740</ele>
        <time>2021-12-17T10:07:44Z</time>
      </trkpt>
      <trkpt lat="45.29632" lon="6.14362">
        <ele>2740.6</ele>
        <time>2021-12-17T10:07:47Z</time>
      </trkpt>
      <trkpt lat="45.29633" lon="6.14358">
        <ele>2741</ele>
        <time>2021-12-17T10:07:49Z</time>
      </trkpt>
      <trkpt lat="45.29634" lon="6.14355">
        <ele>2742.2</ele>
        <time>2021-12-17T10:07:54Z</time>
      </trkpt>
      <trkpt lat="45.29634" lon="6.14357">
        <ele>2742.2</ele>
        <time>2021-12-17T10:07:55Z</time>
      </trkpt>
      <trkpt lat="45.29633" lon="6.14359">
        <ele>2742.8</ele>
        <time>2021-12-17T10:08:01Z</time>
      </trkpt>
      <trkpt lat="45.29633" lon="6.1436">
        <ele>2743.2</ele>
        <time>2021-12-17T10:08:02Z</time>
      </trkpt>
      <trkpt lat="45.29629" lon="6.14363">
        <ele>2744</ele>
        <time>2021-12-17T10:08:07Z</time>
      </trkpt>
      <trkpt lat="45.29629" lon="6.14363">
        <ele>2744.2</ele>
        <time>2021-12-17T10:08:08Z</time>
      </trkpt>
      <trkpt lat="45.29624" lon="6.14371">
        <ele>2745.4</ele>
        <time>2021-12-17T10:08:14Z</time>
      </trkpt>
      <trkpt lat="45.29622" lon="6.14374">
        <ele>2746.4</ele>
        <time>2021-12-17T10:08:19Z</time>
      </trkpt>
      <trkpt lat="45.2962" lon="6.14375">
        <ele>2747</ele>
        <time>2021-12-17T10:08:22Z</time>
      </trkpt>
      <trkpt lat="45.29621" lon="6.14376">
        <ele>2747.6</ele>
        <time>2021-12-17T10:08:25Z</time>
      </trkpt>
      <trkpt lat="45.2962" lon="6.14381">
        <ele>2748.6</ele>
        <time>2021-12-17T10:08:31Z</time>
      </trkpt>
      <trkpt lat="45.29617" lon="6.14385">
        <ele>2749.8</ele>
        <time>2021-12-17T10:08:37Z</time>
      </trkpt>
      <trkpt lat="45.29617" lon="6.14386">
        <ele>2750.2</ele>
        <time>2021-12-17T10:08:39Z</time>
      </trkpt>
      <trkpt lat="45.29616" lon="6.14386">
        <ele>2750.8</ele>
        <time>2021-12-17T10:08:43Z</time>
      </trkpt>
      <trkpt lat="45.29616" lon="6.14386">
        <ele>2751</ele>
        <time>2021-12-17T10:08:45Z</time>
      </trkpt>
      <trkpt lat="45.29614" lon="6.14379">
        <ele>2752</ele>
        <time>2021-12-17T10:08:54Z</time>
      </trkpt>
      <trkpt lat="45.29612" lon="6.14373">
        <ele>2753</ele>
        <time>2021-12-17T10:08:59Z</time>
      </trkpt>
      <trkpt lat="45.29611" lon="6.14369">
        <ele>2753.4</ele>
        <time>2021-12-17T10:09:02Z</time>
      </trkpt>
      <trkpt lat="45.2961" lon="6.14365">
        <ele>2754</ele>
        <time>2021-12-17T10:09:06Z</time>
      </trkpt>
      <trkpt lat="45.29608" lon="6.14361">
        <ele>2754.6</ele>
        <time>2021-12-17T10:09:10Z</time>
      </trkpt>
      <trkpt lat="45.29608" lon="6.14359">
        <ele>2755.2</ele>
        <time>2021-12-17T10:09:12Z</time>
      </trkpt>
      <trkpt lat="45.29607" lon="6.14355">
        <ele>2755.4</ele>
        <time>2021-12-17T10:09:16Z</time>
      </trkpt>
      <trkpt lat="45.29606" lon="6.14351">
        <ele>2756.4</ele>
        <time>2021-12-17T10:09:20Z</time>
      </trkpt>
      <trkpt lat="45.29603" lon="6.14349">
        <ele>2757.2</ele>
        <time>2021-12-17T10:09:24Z</time>
      </trkpt>
      <trkpt lat="45.29602" lon="6.1435">
        <ele>2757.6</ele>
        <time>2021-12-17T10:09:26Z</time>
      </trkpt>
      <trkpt lat="45.29598" lon="6.14348">
        <ele>2758.8</ele>
        <time>2021-12-17T10:09:31Z</time>
      </trkpt>
      <trkpt lat="45.29597" lon="6.14349">
        <ele>2759</ele>
        <time>2021-12-17T10:09:32Z</time>
      </trkpt>
      <trkpt lat="45.29594" lon="6.14349">
        <ele>2760</ele>
        <time>2021-12-17T10:09:36Z</time>
      </trkpt>
      <trkpt lat="45.29591" lon="6.14352">
        <ele>2760.8</ele>
        <time>2021-12-17T10:09:40Z</time>
      </trkpt>
      <trkpt lat="45.2959" lon="6.14351">
        <ele>2761</ele>
        <time>2021-12-17T10:09:43Z</time>
      </trkpt>
      <trkpt lat="45.29591" lon="6.14347">
        <ele>2761.2</ele>
        <time>2021-12-17T10:09:49Z</time>
      </trkpt>
      <trkpt lat="45.29591" lon="6.14346">
        <ele>2760.8</ele>
        <time>2021-12-17T10:10:00Z</time>
      </trkpt>
      <trkpt lat="45.29591" lon="6.14346">
        <ele>2760.8</ele>
        <time>2021-12-17T10:10:02Z</time>
      </trkpt>
      <trkpt lat="45.29591" lon="6.14345">
        <ele>2760.4</ele>
        <time>2021-12-17T10:10:18Z</time>
      </trkpt>
      <trkpt lat="45.29594" lon="6.14343">
        <ele>2760</ele>
        <time>2021-12-17T10:11:03Z</time>
      </trkpt>
      <trkpt lat="45.29589" lon="6.14346">
        <ele>2759.8</ele>
        <time>2021-12-17T10:11:44Z</time>
      </trkpt>
      <trkpt lat="45.29588" lon="6.14347">
        <ele>2759.8</ele>
        <time>2021-12-17T10:11:58Z</time>
      </trkpt>
      <trkpt lat="45.29589" lon="6.14347">
        <ele>2759.8</ele>
        <time>2021-12-17T10:12:10Z</time>
      </trkpt>
      <trkpt lat="45.29592" lon="6.14345">
        <ele>2759.8</ele>
        <time>2021-12-17T10:12:23Z</time>
      </trkpt>
      <trkpt lat="45.29592" lon="6.14344">
        <ele>2759.8</ele>
        <time>2021-12-17T10:12:38Z</time>
      </trkpt>
      <trkpt lat="45.29592" lon="6.14345">
        <ele>2759.8</ele>
        <time>2021-12-17T10:13:19Z</time>
      </trkpt>
      <trkpt lat="45.29592" lon="6.14345">
        <ele>2759.8</ele>
        <time>2021-12-17T10:14:18Z</time>
      </trkpt>
      <trkpt lat="45.29591" lon="6.14345">
        <ele>2759.8</ele>
        <time>2021-12-17T10:15:01Z</time>
      </trkpt>
      <trkpt lat="45.29589" lon="6.14337">
        <ele>2759.8</ele>
        <time>2021-12-17T10:15:17Z</time>
      </trkpt>
      <trkpt lat="45.29585" lon="6.1433">
        <ele>2760.2</ele>
        <time>2021-12-17T10:15:22Z</time>
      </trkpt>
      <trkpt lat="45.29582" lon="6.14333">
        <ele>2760.4</ele>
        <time>2021-12-17T10:15:32Z</time>
      </trkpt>
      <trkpt lat="45.29582" lon="6.14333">
        <ele>2760.4</ele>
        <time>2021-12-17T10:15:36Z</time>
      </trkpt>
      <trkpt lat="45.29583" lon="6.1433">
        <ele>2760</ele>
        <time>2021-12-17T10:16:00Z</time>
      </trkpt>
      <trkpt lat="45.29582" lon="6.1433">
        <ele>2759.8</ele>
        <time>2021-12-17T10:16:28Z</time>
      </trkpt>
      <trkpt lat="45.29584" lon="6.14327">
        <ele>2759.8</ele>
        <time>2021-12-17T10:16:46Z</time>
      </trkpt>
      <trkpt lat="45.29584" lon="6.14326">
        <ele>2759.8</ele>
        <time>2021-12-17T10:17:04Z</time>
      </trkpt>
      <trkpt lat="45.29584" lon="6.14327">
        <ele>2759.8</ele>
        <time>2021-12-17T10:17:25Z</time>
      </trkpt>
      <trkpt lat="45.29582" lon="6.1433">
        <ele>2759.8</ele>
        <time>2021-12-17T10:17:54Z</time>
      </trkpt>
      <trkpt lat="45.29584" lon="6.14326">
        <ele>2759.8</ele>
        <time>2021-12-17T10:18:18Z</time>
      </trkpt>
      <trkpt lat="45.29585" lon="6.14325">
        <ele>2759.8</ele>
        <time>2021-12-17T10:18:42Z</time>
      </trkpt>
      <trkpt lat="45.29584" lon="6.14326">
        <ele>2759.8</ele>
        <time>2021-12-17T10:19:06Z</time>
      </trkpt>
      <trkpt lat="45.29584" lon="6.14326">
        <ele>2759.8</ele>
        <time>2021-12-17T10:19:24Z</time>
      </trkpt>
      <trkpt lat="45.29584" lon="6.14327">
        <ele>2759.8</ele>
        <time>2021-12-17T10:20:12Z</time>
      </trkpt>
      <trkpt lat="45.2958" lon="6.14326">
        <ele>2759.8</ele>
        <time>2021-12-17T10:21:29Z</time>
      </trkpt>
      <trkpt lat="45.29579" lon="6.14326">
        <ele>2750.6</ele>
        <time>2021-12-17T10:21:30Z</time>
      </trkpt>
      <trkpt lat="45.29577" lon="6.14327">
        <ele>2750.6</ele>
        <time>2021-12-17T10:21:33Z</time>
      </trkpt>
      <trkpt lat="45.29575" lon="6.14329">
        <ele>2750.2</ele>
        <time>2021-12-17T10:21:34Z</time>
      </trkpt>
      <trkpt lat="45.2957" lon="6.14332">
        <ele>2748.6</ele>
        <time>2021-12-17T10:21:35Z</time>
      </trkpt>
      <trkpt lat="45.29568" lon="6.14333">
        <ele>2747</ele>
        <time>2021-12-17T10:21:36Z</time>
      </trkpt>
      <trkpt lat="45.29565" lon="6.14335">
        <ele>2745.8</ele>
        <time>2021-12-17T10:21:37Z</time>
      </trkpt>
      <trkpt lat="45.2956" lon="6.14336">
        <ele>2742.8</ele>
        <time>2021-12-17T10:21:38Z</time>
      </trkpt>
      <trkpt lat="45.29556" lon="6.14337">
        <ele>2740</ele>
        <time>2021-12-17T10:21:39Z</time>
      </trkpt>
      <trkpt lat="45.29553" lon="6.14338">
        <ele>2738.6</ele>
        <time>2021-12-17T10:21:40Z</time>
      </trkpt>
      <trkpt lat="45.2955" lon="6.1434">
        <ele>2736.6</ele>
        <time>2021-12-17T10:21:41Z</time>
      </trkpt>
      <trkpt lat="45.29547" lon="6.14341">
        <ele>2734</ele>
        <time>2021-12-17T10:21:42Z</time>
      </trkpt>
      <trkpt lat="45.29544" lon="6.1434">
        <ele>2731.6</ele>
        <time>2021-12-17T10:21:43Z</time>
      </trkpt>
      <trkpt lat="45.29542" lon="6.14339">
        <ele>2729.4</ele>
        <time>2021-12-17T10:21:44Z</time>
      </trkpt>
      <trkpt lat="45.29541" lon="6.14338">
        <ele>2728.4</ele>
        <time>2021-12-17T10:21:45Z</time>
      </trkpt>
      <trkpt lat="45.29537" lon="6.14337">
        <ele>2727</ele>
        <time>2021-12-17T10:21:47Z</time>
      </trkpt>
      <trkpt lat="45.29534" lon="6.14337">
        <ele>2725.6</ele>
        <time>2021-12-17T10:21:49Z</time>
      </trkpt>
      <trkpt lat="45.29534" lon="6.1434">
        <ele>2724.4</ele>
        <time>2021-12-17T10:21:50Z</time>
      </trkpt>
      <trkpt lat="45.29533" lon="6.14343">
        <ele>2722.6</ele>
        <time>2021-12-17T10:21:51Z</time>
      </trkpt>
      <trkpt lat="45.2953" lon="6.14344">
        <ele>2720</ele>
        <time>2021-12-17T10:21:52Z</time>
      </trkpt>
      <trkpt lat="45.29527" lon="6.14344">
        <ele>2718</ele>
        <time>2021-12-17T10:21:53Z</time>
      </trkpt>
      <trkpt lat="45.29525" lon="6.14345">
        <ele>2716.8</ele>
        <time>2021-12-17T10:21:54Z</time>
      </trkpt>
      <trkpt lat="45.29524" lon="6.1435">
        <ele>2715.4</ele>
        <time>2021-12-17T10:21:55Z</time>
      </trkpt>
      <trkpt lat="45.29523" lon="6.14357">
        <ele>2713.6</ele>
        <time>2021-12-17T10:21:56Z</time>
      </trkpt>
      <trkpt lat="45.29521" lon="6.14364">
        <ele>2712.2</ele>
        <time>2021-12-17T10:21:57Z</time>
      </trkpt>
      <trkpt lat="45.29518" lon="6.14369">
        <ele>2711</ele>
        <time>2021-12-17T10:21:58Z</time>
      </trkpt>
      <trkpt lat="45.29516" lon="6.14373">
        <ele>2710</ele>
        <time>2021-12-17T10:21:59Z</time>
      </trkpt>
      <trkpt lat="45.29513" lon="6.14377">
        <ele>2708.2</ele>
        <time>2021-12-17T10:22:01Z</time>
      </trkpt>
      <trkpt lat="45.29512" lon="6.14379">
        <ele>2707.6</ele>
        <time>2021-12-17T10:22:02Z</time>
      </trkpt>
      <trkpt lat="45.29508" lon="6.14383">
        <ele>2707</ele>
        <time>2021-12-17T10:22:04Z</time>
      </trkpt>
      <trkpt lat="45.29506" lon="6.14384">
        <ele>2706.2</ele>
        <time>2021-12-17T10:22:05Z</time>
      </trkpt>
      <trkpt lat="45.29503" lon="6.14382">
        <ele>2705.8</ele>
        <time>2021-12-17T10:22:06Z</time>
      </trkpt>
      <trkpt lat="45.29502" lon="6.14377">
        <ele>2704</ele>
        <time>2021-12-17T10:22:07Z</time>
      </trkpt>
      <trkpt lat="45.29503" lon="6.14371">
        <ele>2701.4</ele>
        <time>2021-12-17T10:22:08Z</time>
      </trkpt>
      <trkpt lat="45.29503" lon="6.14365">
        <ele>2699.4</ele>
        <time>2021-12-17T10:22:09Z</time>
      </trkpt>
      <trkpt lat="45.29505" lon="6.14359">
        <ele>2698.2</ele>
        <time>2021-12-17T10:22:10Z</time>
      </trkpt>
      <trkpt lat="45.29506" lon="6.14354">
        <ele>2696.8</ele>
        <time>2021-12-17T10:22:11Z</time>
      </trkpt>
      <trkpt lat="45.29507" lon="6.14347">
        <ele>2695.4</ele>
        <time>2021-12-17T10:22:13Z</time>
      </trkpt>
      <trkpt lat="45.29505" lon="6.1434">
        <ele>2694.2</ele>
        <time>2021-12-17T10:22:16Z</time>
      </trkpt>
      <trkpt lat="45.29501" lon="6.14347">
        <ele>2691.8</ele>
        <time>2021-12-17T10:22:18Z</time>
      </trkpt>
      <trkpt lat="45.29497" lon="6.14349">
        <ele>2691</ele>
        <time>2021-12-17T10:22:19Z</time>
      </trkpt>
      <trkpt lat="45.29493" lon="6.14346">
        <ele>2689.6</ele>
        <time>2021-12-17T10:22:20Z</time>
      </trkpt>
      <trkpt lat="45.2949" lon="6.14342">
        <ele>2687.6</ele>
        <time>2021-12-17T10:22:21Z</time>
      </trkpt>
      <trkpt lat="45.29489" lon="6.14338">
        <ele>2685.4</ele>
        <time>2021-12-17T10:22:22Z</time>
      </trkpt>
      <trkpt lat="45.29487" lon="6.14332">
        <ele>2684.2</ele>
        <time>2021-12-17T10:22:23Z</time>
      </trkpt>
      <trkpt lat="45.29485" lon="6.14328">
        <ele>2683</ele>
        <time>2021-12-17T10:22:24Z</time>
      </trkpt>
      <trkpt lat="45.29483" lon="6.14327">
        <ele>2682.2</ele>
        <time>2021-12-17T10:22:25Z</time>
      </trkpt>
      <trkpt lat="45.29481" lon="6.14328">
        <ele>2681</ele>
        <time>2021-12-17T10:22:26Z</time>
      </trkpt>
      <trkpt lat="45.29478" lon="6.14332">
        <ele>2680</ele>
        <time>2021-12-17T10:22:27Z</time>
      </trkpt>
      <trkpt lat="45.29473" lon="6.14332">
        <ele>2678.4</ele>
        <time>2021-12-17T10:22:28Z</time>
      </trkpt>
      <trkpt lat="45.2947" lon="6.14329">
        <ele>2676.4</ele>
        <time>2021-12-17T10:22:29Z</time>
      </trkpt>
      <trkpt lat="45.29467" lon="6.14325">
        <ele>2674.2</ele>
        <time>2021-12-17T10:22:30Z</time>
      </trkpt>
      <trkpt lat="45.29465" lon="6.14322">
        <ele>2673.2</ele>
        <time>2021-12-17T10:22:31Z</time>
      </trkpt>
      <trkpt lat="45.29461" lon="6.1432">
        <ele>2672.4</ele>
        <time>2021-12-17T10:22:32Z</time>
      </trkpt>
      <trkpt lat="45.29459" lon="6.14323">
        <ele>2672</ele>
        <time>2021-12-17T10:22:33Z</time>
      </trkpt>
      <trkpt lat="45.29457" lon="6.14327">
        <ele>2670.8</ele>
        <time>2021-12-17T10:22:34Z</time>
      </trkpt>
      <trkpt lat="45.29456" lon="6.14332">
        <ele>2669.8</ele>
        <time>2021-12-17T10:22:35Z</time>
      </trkpt>
      <trkpt lat="45.29454" lon="6.14337">
        <ele>2669.2</ele>
        <time>2021-12-17T10:22:36Z</time>
      </trkpt>
      <trkpt lat="45.2945" lon="6.14347">
        <ele>2668.2</ele>
        <time>2021-12-17T10:22:38Z</time>
      </trkpt>
      <trkpt lat="45.29443" lon="6.14371">
        <ele>2667</ele>
        <time>2021-12-17T10:22:43Z</time>
      </trkpt>
      <trkpt lat="45.29441" lon="6.14377">
        <ele>2666.4</ele>
        <time>2021-12-17T10:22:44Z</time>
      </trkpt>
      <trkpt lat="45.29441" lon="6.14382">
        <ele>2665.6</ele>
        <time>2021-12-17T10:22:45Z</time>
      </trkpt>
      <trkpt lat="45.29442" lon="6.14386">
        <ele>2664.8</ele>
        <time>2021-12-17T10:22:48Z</time>
      </trkpt>
      <trkpt lat="45.29441" lon="6.14387">
        <ele>2664.6</ele>
        <time>2021-12-17T10:22:53Z</time>
      </trkpt>
      <trkpt lat="45.29436" lon="6.14386">
        <ele>2663.8</ele>
        <time>2021-12-17T10:22:57Z</time>
      </trkpt>
      <trkpt lat="45.29433" lon="6.14381">
        <ele>2662.2</ele>
        <time>2021-12-17T10:22:58Z</time>
      </trkpt>
      <trkpt lat="45.29431" lon="6.14375">
        <ele>2660.4</ele>
        <time>2021-12-17T10:22:59Z</time>
      </trkpt>
      <trkpt lat="45.2943" lon="6.1437">
        <ele>2659.4</ele>
        <time>2021-12-17T10:23:00Z</time>
      </trkpt>
      <trkpt lat="45.29428" lon="6.14366">
        <ele>2658.8</ele>
        <time>2021-12-17T10:23:01Z</time>
      </trkpt>
      <trkpt lat="45.29426" lon="6.14354">
        <ele>2657.8</ele>
        <time>2021-12-17T10:23:04Z</time>
      </trkpt>
      <trkpt lat="45.29425" lon="6.14353">
        <ele>2657.4</ele>
        <time>2021-12-17T10:23:05Z</time>
      </trkpt>
      <trkpt lat="45.2942" lon="6.14353">
        <ele>2656</ele>
        <time>2021-12-17T10:23:07Z</time>
      </trkpt>
      <trkpt lat="45.29419" lon="6.14356">
        <ele>2655</ele>
        <time>2021-12-17T10:23:08Z</time>
      </trkpt>
      <trkpt lat="45.29417" lon="6.1436">
        <ele>2653.6</ele>
        <time>2021-12-17T10:23:10Z</time>
      </trkpt>
      <trkpt lat="45.29415" lon="6.1436">
        <ele>2653.2</ele>
        <time>2021-12-17T10:23:11Z</time>
      </trkpt>
      <trkpt lat="45.29412" lon="6.14358">
        <ele>2652.4</ele>
        <time>2021-12-17T10:23:12Z</time>
      </trkpt>
      <trkpt lat="45.2941" lon="6.14354">
        <ele>2651</ele>
        <time>2021-12-17T10:23:13Z</time>
      </trkpt>
      <trkpt lat="45.29408" lon="6.1435">
        <ele>2649.4</ele>
        <time>2021-12-17T10:23:14Z</time>
      </trkpt>
      <trkpt lat="45.29407" lon="6.14346">
        <ele>2648.6</ele>
        <time>2021-12-17T10:23:15Z</time>
      </trkpt>
      <trkpt lat="45.29405" lon="6.14345">
        <ele>2647.6</ele>
        <time>2021-12-17T10:23:16Z</time>
      </trkpt>
      <trkpt lat="45.29399" lon="6.14351">
        <ele>2646.6</ele>
        <time>2021-12-17T10:23:18Z</time>
      </trkpt>
      <trkpt lat="45.29394" lon="6.14352">
        <ele>2644.8</ele>
        <time>2021-12-17T10:23:19Z</time>
      </trkpt>
      <trkpt lat="45.2939" lon="6.14353">
        <ele>2643.4</ele>
        <time>2021-12-17T10:23:20Z</time>
      </trkpt>
      <trkpt lat="45.29385" lon="6.14355">
        <ele>2641.8</ele>
        <time>2021-12-17T10:23:21Z</time>
      </trkpt>
      <trkpt lat="45.29381" lon="6.14358">
        <ele>2640.4</ele>
        <time>2021-12-17T10:23:22Z</time>
      </trkpt>
      <trkpt lat="45.29376" lon="6.14361">
        <ele>2638.4</ele>
        <time>2021-12-17T10:23:23Z</time>
      </trkpt>
      <trkpt lat="45.29373" lon="6.14366">
        <ele>2637.2</ele>
        <time>2021-12-17T10:23:24Z</time>
      </trkpt>
      <trkpt lat="45.2937" lon="6.14371">
        <ele>2636.6</ele>
        <time>2021-12-17T10:23:25Z</time>
      </trkpt>
      <trkpt lat="45.29368" lon="6.14377">
        <ele>2636</ele>
        <time>2021-12-17T10:23:26Z</time>
      </trkpt>
      <trkpt lat="45.29364" lon="6.14389">
        <ele>2635.2</ele>
        <time>2021-12-17T10:23:28Z</time>
      </trkpt>
      <trkpt lat="45.29361" lon="6.14391">
        <ele>2634.6</ele>
        <time>2021-12-17T10:23:29Z</time>
      </trkpt>
      <trkpt lat="45.29358" lon="6.1439">
        <ele>2633.8</ele>
        <time>2021-12-17T10:23:30Z</time>
      </trkpt>
      <trkpt lat="45.29357" lon="6.14389">
        <ele>2633</ele>
        <time>2021-12-17T10:23:31Z</time>
      </trkpt>
      <trkpt lat="45.29357" lon="6.14388">
        <ele>2631.6</ele>
        <time>2021-12-17T10:23:33Z</time>
      </trkpt>
      <trkpt lat="45.29357" lon="6.14389">
        <ele>2631.2</ele>
        <time>2021-12-17T10:23:34Z</time>
      </trkpt>
      <trkpt lat="45.29357" lon="6.14392">
        <ele>2630.4</ele>
        <time>2021-12-17T10:23:35Z</time>
      </trkpt>
      <trkpt lat="45.29356" lon="6.14395">
        <ele>2630</ele>
        <time>2021-12-17T10:23:36Z</time>
      </trkpt>
      <trkpt lat="45.29353" lon="6.14404">
        <ele>2629.4</ele>
        <time>2021-12-17T10:23:38Z</time>
      </trkpt>
      <trkpt lat="45.29351" lon="6.14416">
        <ele>2628</ele>
        <time>2021-12-17T10:23:40Z</time>
      </trkpt>
      <trkpt lat="45.29351" lon="6.14423">
        <ele>2626.8</ele>
        <time>2021-12-17T10:23:42Z</time>
      </trkpt>
      <trkpt lat="45.29348" lon="6.14429">
        <ele>2626</ele>
        <time>2021-12-17T10:23:44Z</time>
      </trkpt>
      <trkpt lat="45.29345" lon="6.14428">
        <ele>2625.4</ele>
        <time>2021-12-17T10:23:45Z</time>
      </trkpt>
      <trkpt lat="45.29342" lon="6.14426">
        <ele>2624.2</ele>
        <time>2021-12-17T10:23:46Z</time>
      </trkpt>
      <trkpt lat="45.29339" lon="6.14423">
        <ele>2622.8</ele>
        <time>2021-12-17T10:23:47Z</time>
      </trkpt>
      <trkpt lat="45.29336" lon="6.14425">
        <ele>2620.8</ele>
        <time>2021-12-17T10:23:49Z</time>
      </trkpt>
      <trkpt lat="45.29333" lon="6.14427">
        <ele>2620.2</ele>
        <time>2021-12-17T10:23:50Z</time>
      </trkpt>
      <trkpt lat="45.29332" lon="6.14432">
        <ele>2619.2</ele>
        <time>2021-12-17T10:23:51Z</time>
      </trkpt>
      <trkpt lat="45.29322" lon="6.14441">
        <ele>2617.6</ele>
        <time>2021-12-17T10:23:53Z</time>
      </trkpt>
      <trkpt lat="45.29319" lon="6.1444">
        <ele>2616.4</ele>
        <time>2021-12-17T10:23:54Z</time>
      </trkpt>
      <trkpt lat="45.29317" lon="6.14438">
        <ele>2615</ele>
        <time>2021-12-17T10:23:55Z</time>
      </trkpt>
      <trkpt lat="45.29316" lon="6.14433">
        <ele>2613.8</ele>
        <time>2021-12-17T10:23:56Z</time>
      </trkpt>
      <trkpt lat="45.29315" lon="6.14423">
        <ele>2612.4</ele>
        <time>2021-12-17T10:23:58Z</time>
      </trkpt>
      <trkpt lat="45.29314" lon="6.14418">
        <ele>2611.2</ele>
        <time>2021-12-17T10:24:01Z</time>
      </trkpt>
      <trkpt lat="45.29312" lon="6.14416">
        <ele>2611</ele>
        <time>2021-12-17T10:24:02Z</time>
      </trkpt>
      <trkpt lat="45.2931" lon="6.14415">
        <ele>2610.6</ele>
        <time>2021-12-17T10:24:04Z</time>
      </trkpt>
      <trkpt lat="45.29307" lon="6.14415">
        <ele>2609.4</ele>
        <time>2021-12-17T10:24:05Z</time>
      </trkpt>
      <trkpt lat="45.29304" lon="6.14416">
        <ele>2608.2</ele>
        <time>2021-12-17T10:24:06Z</time>
      </trkpt>
      <trkpt lat="45.29298" lon="6.14423">
        <ele>2606.8</ele>
        <time>2021-12-17T10:24:08Z</time>
      </trkpt>
      <trkpt lat="45.29295" lon="6.14428">
        <ele>2605.8</ele>
        <time>2021-12-17T10:24:09Z</time>
      </trkpt>
      <trkpt lat="45.29291" lon="6.14431">
        <ele>2605</ele>
        <time>2021-12-17T10:24:10Z</time>
      </trkpt>
      <trkpt lat="45.29287" lon="6.1443">
        <ele>2604.2</ele>
        <time>2021-12-17T10:24:11Z</time>
      </trkpt>
      <trkpt lat="45.29284" lon="6.14426">
        <ele>2602.4</ele>
        <time>2021-12-17T10:24:12Z</time>
      </trkpt>
      <trkpt lat="45.29284" lon="6.1442">
        <ele>2601</ele>
        <time>2021-12-17T10:24:13Z</time>
      </trkpt>
      <trkpt lat="45.29284" lon="6.14416">
        <ele>2599.6</ele>
        <time>2021-12-17T10:24:14Z</time>
      </trkpt>
      <trkpt lat="45.29284" lon="6.14412">
        <ele>2598.6</ele>
        <time>2021-12-17T10:24:15Z</time>
      </trkpt>
      <trkpt lat="45.29283" lon="6.1441">
        <ele>2598.2</ele>
        <time>2021-12-17T10:24:16Z</time>
      </trkpt>
      <trkpt lat="45.29281" lon="6.1441">
        <ele>2596.8</ele>
        <time>2021-12-17T10:24:17Z</time>
      </trkpt>
      <trkpt lat="45.29279" lon="6.14409">
        <ele>2595.8</ele>
        <time>2021-12-17T10:24:18Z</time>
      </trkpt>
      <trkpt lat="45.29277" lon="6.14406">
        <ele>2594.8</ele>
        <time>2021-12-17T10:24:19Z</time>
      </trkpt>
      <trkpt lat="45.29275" lon="6.14402">
        <ele>2593.4</ele>
        <time>2021-12-17T10:24:20Z</time>
      </trkpt>
      <trkpt lat="45.29274" lon="6.144">
        <ele>2592.4</ele>
        <time>2021-12-17T10:24:21Z</time>
      </trkpt>
      <trkpt lat="45.29272" lon="6.144">
        <ele>2591.6</ele>
        <time>2021-12-17T10:24:22Z</time>
      </trkpt>
      <trkpt lat="45.2927" lon="6.14402">
        <ele>2591</ele>
        <time>2021-12-17T10:24:23Z</time>
      </trkpt>
      <trkpt lat="45.29269" lon="6.14405">
        <ele>2589.8</ele>
        <time>2021-12-17T10:24:24Z</time>
      </trkpt>
      <trkpt lat="45.29265" lon="6.14415">
        <ele>2588.2</ele>
        <time>2021-12-17T10:24:26Z</time>
      </trkpt>
      <trkpt lat="45.29265" lon="6.14422">
        <ele>2587</ele>
        <time>2021-12-17T10:24:28Z</time>
      </trkpt>
      <trkpt lat="45.29263" lon="6.14432">
        <ele>2586.4</ele>
        <time>2021-12-17T10:24:32Z</time>
      </trkpt>
      <trkpt lat="45.29263" lon="6.14436">
        <ele>2586</ele>
        <time>2021-12-17T10:24:33Z</time>
      </trkpt>
      <trkpt lat="45.29258" lon="6.14442">
        <ele>2585</ele>
        <time>2021-12-17T10:24:35Z</time>
      </trkpt>
      <trkpt lat="45.29254" lon="6.14442">
        <ele>2584</ele>
        <time>2021-12-17T10:24:36Z</time>
      </trkpt>
      <trkpt lat="45.29251" lon="6.1444">
        <ele>2582.6</ele>
        <time>2021-12-17T10:24:37Z</time>
      </trkpt>
      <trkpt lat="45.29249" lon="6.14439">
        <ele>2581</ele>
        <time>2021-12-17T10:24:38Z</time>
      </trkpt>
      <trkpt lat="45.29246" lon="6.1444">
        <ele>2579.8</ele>
        <time>2021-12-17T10:24:39Z</time>
      </trkpt>
      <trkpt lat="45.29245" lon="6.14444">
        <ele>2578.4</ele>
        <time>2021-12-17T10:24:40Z</time>
      </trkpt>
      <trkpt lat="45.29243" lon="6.14449">
        <ele>2577</ele>
        <time>2021-12-17T10:24:41Z</time>
      </trkpt>
      <trkpt lat="45.29242" lon="6.14452">
        <ele>2575</ele>
        <time>2021-12-17T10:24:42Z</time>
      </trkpt>
      <trkpt lat="45.2924" lon="6.14455">
        <ele>2573.4</ele>
        <time>2021-12-17T10:24:43Z</time>
      </trkpt>
      <trkpt lat="45.29238" lon="6.14459">
        <ele>2570.8</ele>
        <time>2021-12-17T10:24:45Z</time>
      </trkpt>
      <trkpt lat="45.29236" lon="6.1446">
        <ele>2569.8</ele>
        <time>2021-12-17T10:24:46Z</time>
      </trkpt>
      <trkpt lat="45.29234" lon="6.14461">
        <ele>2569.2</ele>
        <time>2021-12-17T10:24:47Z</time>
      </trkpt>
      <trkpt lat="45.29232" lon="6.14463">
        <ele>2568.8</ele>
        <time>2021-12-17T10:24:54Z</time>
      </trkpt>
      <trkpt lat="45.2923" lon="6.14464">
        <ele>2568.8</ele>
        <time>2021-12-17T10:25:23Z</time>
      </trkpt>
      <trkpt lat="45.29229" lon="6.14465">
        <ele>2568.8</ele>
        <time>2021-12-17T10:26:04Z</time>
      </trkpt>
      <trkpt lat="45.29227" lon="6.14466">
        <ele>2568.8</ele>
        <time>2021-12-17T10:26:33Z</time>
      </trkpt>
      <trkpt lat="45.29225" lon="6.14468">
        <ele>2568.8</ele>
        <time>2021-12-17T10:26:34Z</time>
      </trkpt>
      <trkpt lat="45.29218" lon="6.14464">
        <ele>2568.8</ele>
        <time>2021-12-17T10:26:36Z</time>
      </trkpt>
      <trkpt lat="45.29214" lon="6.14461">
        <ele>2568.8</ele>
        <time>2021-12-17T10:26:37Z</time>
      </trkpt>
      <trkpt lat="45.29211" lon="6.14459">
        <ele>2568.8</ele>
        <time>2021-12-17T10:26:38Z</time>
      </trkpt>
      <trkpt lat="45.29207" lon="6.1446">
        <ele>2568.2</ele>
        <time>2021-12-17T10:26:39Z</time>
      </trkpt>
      <trkpt lat="45.29202" lon="6.14462">
        <ele>2566.8</ele>
        <time>2021-12-17T10:26:40Z</time>
      </trkpt>
      <trkpt lat="45.29193" lon="6.14471">
        <ele>2565.4</ele>
        <time>2021-12-17T10:26:42Z</time>
      </trkpt>
      <trkpt lat="45.29189" lon="6.14476">
        <ele>2564.4</ele>
        <time>2021-12-17T10:26:43Z</time>
      </trkpt>
      <trkpt lat="45.29185" lon="6.14479">
        <ele>2563.8</ele>
        <time>2021-12-17T10:26:44Z</time>
      </trkpt>
      <trkpt lat="45.29182" lon="6.14482">
        <ele>2563.4</ele>
        <time>2021-12-17T10:26:45Z</time>
      </trkpt>
      <trkpt lat="45.29178" lon="6.14485">
        <ele>2563</ele>
        <time>2021-12-17T10:26:46Z</time>
      </trkpt>
      <trkpt lat="45.2917" lon="6.14493">
        <ele>2561.6</ele>
        <time>2021-12-17T10:26:49Z</time>
      </trkpt>
      <trkpt lat="45.29166" lon="6.1449">
        <ele>2560.8</ele>
        <time>2021-12-17T10:26:51Z</time>
      </trkpt>
      <trkpt lat="45.29166" lon="6.14485">
        <ele>2559.4</ele>
        <time>2021-12-17T10:26:52Z</time>
      </trkpt>
      <trkpt lat="45.29167" lon="6.14481">
        <ele>2557.6</ele>
        <time>2021-12-17T10:26:53Z</time>
      </trkpt>
      <trkpt lat="45.29168" lon="6.14478">
        <ele>2556.6</ele>
        <time>2021-12-17T10:26:54Z</time>
      </trkpt>
      <trkpt lat="45.29168" lon="6.14477">
        <ele>2556</ele>
        <time>2021-12-17T10:26:55Z</time>
      </trkpt>
      <trkpt lat="45.29165" lon="6.14476">
        <ele>2555</ele>
        <time>2021-12-17T10:26:56Z</time>
      </trkpt>
      <trkpt lat="45.29158" lon="6.14476">
        <ele>2552.4</ele>
        <time>2021-12-17T10:26:58Z</time>
      </trkpt>
      <trkpt lat="45.29153" lon="6.14478">
        <ele>2551.2</ele>
        <time>2021-12-17T10:26:59Z</time>
      </trkpt>
      <trkpt lat="45.29149" lon="6.14481">
        <ele>2550</ele>
        <time>2021-12-17T10:27:00Z</time>
      </trkpt>
      <trkpt lat="45.29146" lon="6.14483">
        <ele>2548.8</ele>
        <time>2021-12-17T10:27:01Z</time>
      </trkpt>
      <trkpt lat="45.2914" lon="6.14487">
        <ele>2547.2</ele>
        <time>2021-12-17T10:27:03Z</time>
      </trkpt>
      <trkpt lat="45.29137" lon="6.1449">
        <ele>2546.6</ele>
        <time>2021-12-17T10:27:04Z</time>
      </trkpt>
      <trkpt lat="45.29135" lon="6.14493">
        <ele>2546</ele>
        <time>2021-12-17T10:27:05Z</time>
      </trkpt>
      <trkpt lat="45.29132" lon="6.14498">
        <ele>2545</ele>
        <time>2021-12-17T10:27:08Z</time>
      </trkpt>
      <trkpt lat="45.2913" lon="6.14496">
        <ele>2544.8</ele>
        <time>2021-12-17T10:27:09Z</time>
      </trkpt>
      <trkpt lat="45.29127" lon="6.14486">
        <ele>2543.6</ele>
        <time>2021-12-17T10:27:11Z</time>
      </trkpt>
      <trkpt lat="45.29128" lon="6.14481">
        <ele>2541.8</ele>
        <time>2021-12-17T10:27:12Z</time>
      </trkpt>
      <trkpt lat="45.29127" lon="6.14475">
        <ele>2540.4</ele>
        <time>2021-12-17T10:27:14Z</time>
      </trkpt>
      <trkpt lat="45.29125" lon="6.14474">
        <ele>2539</ele>
        <time>2021-12-17T10:27:15Z</time>
      </trkpt>
      <trkpt lat="45.29121" lon="6.14475">
        <ele>2537.6</ele>
        <time>2021-12-17T10:27:16Z</time>
      </trkpt>
      <trkpt lat="45.29117" lon="6.14476">
        <ele>2536.6</ele>
        <time>2021-12-17T10:27:17Z</time>
      </trkpt>
      <trkpt lat="45.29112" lon="6.14478">
        <ele>2535</ele>
        <time>2021-12-17T10:27:18Z</time>
      </trkpt>
      <trkpt lat="45.29108" lon="6.14482">
        <ele>2533.4</ele>
        <time>2021-12-17T10:27:19Z</time>
      </trkpt>
      <trkpt lat="45.29104" lon="6.14486">
        <ele>2532</ele>
        <time>2021-12-17T10:27:20Z</time>
      </trkpt>
      <trkpt lat="45.29095" lon="6.14493">
        <ele>2530.2</ele>
        <time>2021-12-17T10:27:22Z</time>
      </trkpt>
      <trkpt lat="45.29091" lon="6.14497">
        <ele>2529.6</ele>
        <time>2021-12-17T10:27:23Z</time>
      </trkpt>
      <trkpt lat="45.29088" lon="6.145">
        <ele>2529.2</ele>
        <time>2021-12-17T10:27:24Z</time>
      </trkpt>
      <trkpt lat="45.29085" lon="6.14503">
        <ele>2527.8</ele>
        <time>2021-12-17T10:27:25Z</time>
      </trkpt>
      <trkpt lat="45.29078" lon="6.14507">
        <ele>2526.6</ele>
        <time>2021-12-17T10:27:27Z</time>
      </trkpt>
      <trkpt lat="45.29075" lon="6.1451">
        <ele>2525.6</ele>
        <time>2021-12-17T10:27:28Z</time>
      </trkpt>
      <trkpt lat="45.29072" lon="6.14512">
        <ele>2525.2</ele>
        <time>2021-12-17T10:27:29Z</time>
      </trkpt>
      <trkpt lat="45.29063" lon="6.14516">
        <ele>2524</ele>
        <time>2021-12-17T10:27:31Z</time>
      </trkpt>
      <trkpt lat="45.29054" lon="6.14515">
        <ele>2521.8</ele>
        <time>2021-12-17T10:27:33Z</time>
      </trkpt>
      <trkpt lat="45.29052" lon="6.14514">
        <ele>2520.6</ele>
        <time>2021-12-17T10:27:34Z</time>
      </trkpt>
      <trkpt lat="45.29051" lon="6.14513">
        <ele>2520</ele>
        <time>2021-12-17T10:27:35Z</time>
      </trkpt>
      <trkpt lat="45.29051" lon="6.14513">
        <ele>2519.6</ele>
        <time>2021-12-17T10:27:36Z</time>
      </trkpt>
      <trkpt lat="45.2905" lon="6.14513">
        <ele>2519.2</ele>
        <time>2021-12-17T10:27:42Z</time>
      </trkpt>
      <trkpt lat="45.29051" lon="6.14515">
        <ele>2518.4</ele>
        <time>2021-12-17T10:28:04Z</time>
      </trkpt>
      <trkpt lat="45.29048" lon="6.14516">
        <ele>2517.8</ele>
        <time>2021-12-17T10:28:05Z</time>
      </trkpt>
      <trkpt lat="45.29046" lon="6.14519">
        <ele>2516.8</ele>
        <time>2021-12-17T10:28:06Z</time>
      </trkpt>
      <trkpt lat="45.29045" lon="6.14523">
        <ele>2515.6</ele>
        <time>2021-12-17T10:28:07Z</time>
      </trkpt>
      <trkpt lat="45.29043" lon="6.14528">
        <ele>2514.6</ele>
        <time>2021-12-17T10:28:08Z</time>
      </trkpt>
      <trkpt lat="45.2904" lon="6.14533">
        <ele>2513.8</ele>
        <time>2021-12-17T10:28:09Z</time>
      </trkpt>
      <trkpt lat="45.29036" lon="6.14535">
        <ele>2512.8</ele>
        <time>2021-12-17T10:28:10Z</time>
      </trkpt>
      <trkpt lat="45.29031" lon="6.14534">
        <ele>2511.2</ele>
        <time>2021-12-17T10:28:11Z</time>
      </trkpt>
      <trkpt lat="45.29027" lon="6.1453">
        <ele>2509.8</ele>
        <time>2021-12-17T10:28:12Z</time>
      </trkpt>
      <trkpt lat="45.29021" lon="6.14527">
        <ele>2508.4</ele>
        <time>2021-12-17T10:28:14Z</time>
      </trkpt>
      <trkpt lat="45.2902" lon="6.1453">
        <ele>2507.8</ele>
        <time>2021-12-17T10:28:15Z</time>
      </trkpt>
      <trkpt lat="45.29019" lon="6.14534">
        <ele>2507</ele>
        <time>2021-12-17T10:28:16Z</time>
      </trkpt>
      <trkpt lat="45.29018" lon="6.14544">
        <ele>2505.8</ele>
        <time>2021-12-17T10:28:18Z</time>
      </trkpt>
      <trkpt lat="45.29015" lon="6.14546">
        <ele>2505</ele>
        <time>2021-12-17T10:28:19Z</time>
      </trkpt>
      <trkpt lat="45.29012" lon="6.14546">
        <ele>2503.8</ele>
        <time>2021-12-17T10:28:20Z</time>
      </trkpt>
      <trkpt lat="45.29011" lon="6.14543">
        <ele>2502.4</ele>
        <time>2021-12-17T10:28:21Z</time>
      </trkpt>
      <trkpt lat="45.29009" lon="6.1454">
        <ele>2501</ele>
        <time>2021-12-17T10:28:23Z</time>
      </trkpt>
      <trkpt lat="45.29009" lon="6.14539">
        <ele>2500.6</ele>
        <time>2021-12-17T10:28:24Z</time>
      </trkpt>
      <trkpt lat="45.29008" lon="6.14539">
        <ele>2500.2</ele>
        <time>2021-12-17T10:28:25Z</time>
      </trkpt>
      <trkpt lat="45.29005" lon="6.14547">
        <ele>2499</ele>
        <time>2021-12-17T10:28:27Z</time>
      </trkpt>
      <trkpt lat="45.29004" lon="6.14552">
        <ele>2497.8</ele>
        <time>2021-12-17T10:28:28Z</time>
      </trkpt>
      <trkpt lat="45.28999" lon="6.14559">
        <ele>2496</ele>
        <time>2021-12-17T10:28:30Z</time>
      </trkpt>
      <trkpt lat="45.28996" lon="6.1456">
        <ele>2495</ele>
        <time>2021-12-17T10:28:31Z</time>
      </trkpt>
      <trkpt lat="45.28988" lon="6.14565">
        <ele>2493.6</ele>
        <time>2021-12-17T10:28:33Z</time>
      </trkpt>
      <trkpt lat="45.28985" lon="6.14569">
        <ele>2491.8</ele>
        <time>2021-12-17T10:28:34Z</time>
      </trkpt>
      <trkpt lat="45.28982" lon="6.14573">
        <ele>2489.8</ele>
        <time>2021-12-17T10:28:35Z</time>
      </trkpt>
      <trkpt lat="45.28978" lon="6.14577">
        <ele>2487.8</ele>
        <time>2021-12-17T10:28:36Z</time>
      </trkpt>
      <trkpt lat="45.28973" lon="6.14582">
        <ele>2485.6</ele>
        <time>2021-12-17T10:28:37Z</time>
      </trkpt>
      <trkpt lat="45.28969" lon="6.14587">
        <ele>2483.6</ele>
        <time>2021-12-17T10:28:38Z</time>
      </trkpt>
      <trkpt lat="45.28964" lon="6.14592">
        <ele>2481.8</ele>
        <time>2021-12-17T10:28:39Z</time>
      </trkpt>
      <trkpt lat="45.2896" lon="6.14598">
        <ele>2478.8</ele>
        <time>2021-12-17T10:28:40Z</time>
      </trkpt>
      <trkpt lat="45.28957" lon="6.14605">
        <ele>2476.8</ele>
        <time>2021-12-17T10:28:41Z</time>
      </trkpt>
      <trkpt lat="45.28954" lon="6.14611">
        <ele>2474.2</ele>
        <time>2021-12-17T10:28:42Z</time>
      </trkpt>
      <trkpt lat="45.28953" lon="6.14613">
        <ele>2472.2</ele>
        <time>2021-12-17T10:28:43Z</time>
      </trkpt>
      <trkpt lat="45.28952" lon="6.14616">
        <ele>2471.2</ele>
        <time>2021-12-17T10:28:44Z</time>
      </trkpt>
      <trkpt lat="45.28951" lon="6.14618">
        <ele>2470.6</ele>
        <time>2021-12-17T10:28:45Z</time>
      </trkpt>
      <trkpt lat="45.2895" lon="6.1462">
        <ele>2470</ele>
        <time>2021-12-17T10:28:47Z</time>
      </trkpt>
      <trkpt lat="45.28949" lon="6.14622">
        <ele>2470</ele>
        <time>2021-12-17T10:28:57Z</time>
      </trkpt>
      <trkpt lat="45.28948" lon="6.14624">
        <ele>2470.2</ele>
        <time>2021-12-17T10:29:56Z</time>
      </trkpt>
      <trkpt lat="45.28947" lon="6.14627">
        <ele>2470.2</ele>
        <time>2021-12-17T10:30:28Z</time>
      </trkpt>
      <trkpt lat="45.28946" lon="6.14629">
        <ele>2470.2</ele>
        <time>2021-12-17T10:31:20Z</time>
      </trkpt>
      <trkpt lat="45.28945" lon="6.14631">
        <ele>2470.2</ele>
        <time>2021-12-17T10:31:54Z</time>
      </trkpt>
      <trkpt lat="45.28944" lon="6.14633">
        <ele>2470.2</ele>
        <time>2021-12-17T10:32:47Z</time>
      </trkpt>
      <trkpt lat="45.28943" lon="6.14635">
        <ele>2470.2</ele>
        <time>2021-12-17T10:32:48Z</time>
      </trkpt>
      <trkpt lat="45.28936" lon="6.1465">
        <ele>2470.2</ele>
        <time>2021-12-17T10:32:50Z</time>
      </trkpt>
      <trkpt lat="45.28932" lon="6.14657">
        <ele>2470.2</ele>
        <time>2021-12-17T10:32:51Z</time>
      </trkpt>
      <trkpt lat="45.28927" lon="6.14663">
        <ele>2468</ele>
        <time>2021-12-17T10:32:52Z</time>
      </trkpt>
      <trkpt lat="45.28923" lon="6.14669">
        <ele>2466.2</ele>
        <time>2021-12-17T10:32:53Z</time>
      </trkpt>
      <trkpt lat="45.28919" lon="6.14673">
        <ele>2464.2</ele>
        <time>2021-12-17T10:32:54Z</time>
      </trkpt>
      <trkpt lat="45.28914" lon="6.14676">
        <ele>2461.8</ele>
        <time>2021-12-17T10:32:55Z</time>
      </trkpt>
      <trkpt lat="45.28911" lon="6.14679">
        <ele>2459.8</ele>
        <time>2021-12-17T10:32:56Z</time>
      </trkpt>
      <trkpt lat="45.28909" lon="6.14685">
        <ele>2457.6</ele>
        <time>2021-12-17T10:32:57Z</time>
      </trkpt>
      <trkpt lat="45.28906" lon="6.1469">
        <ele>2455</ele>
        <time>2021-12-17T10:32:58Z</time>
      </trkpt>
      <trkpt lat="45.28902" lon="6.14697">
        <ele>2453.4</ele>
        <time>2021-12-17T10:32:59Z</time>
      </trkpt>
      <trkpt lat="45.28899" lon="6.14703">
        <ele>2450</ele>
        <time>2021-12-17T10:33:00Z</time>
      </trkpt>
      <trkpt lat="45.28894" lon="6.14705">
        <ele>2446.4</ele>
        <time>2021-12-17T10:33:01Z</time>
      </trkpt>
      <trkpt lat="45.28889" lon="6.14704">
        <ele>2443.8</ele>
        <time>2021-12-17T10:33:02Z</time>
      </trkpt>
      <trkpt lat="45.28885" lon="6.14705">
        <ele>2442.4</ele>
        <time>2021-12-17T10:33:03Z</time>
      </trkpt>
      <trkpt lat="45.28882" lon="6.14707">
        <ele>2441.2</ele>
        <time>2021-12-17T10:33:04Z</time>
      </trkpt>
      <trkpt lat="45.28877" lon="6.14711">
        <ele>2438.2</ele>
        <time>2021-12-17T10:33:05Z</time>
      </trkpt>
      <trkpt lat="45.28873" lon="6.14715">
        <ele>2435.2</ele>
        <time>2021-12-17T10:33:06Z</time>
      </trkpt>
      <trkpt lat="45.28869" lon="6.14718">
        <ele>2432.6</ele>
        <time>2021-12-17T10:33:07Z</time>
      </trkpt>
      <trkpt lat="45.28864" lon="6.14719">
        <ele>2431</ele>
        <time>2021-12-17T10:33:08Z</time>
      </trkpt>
      <trkpt lat="45.2886" lon="6.14719">
        <ele>2430</ele>
        <time>2021-12-17T10:33:09Z</time>
      </trkpt>
      <trkpt lat="45.28855" lon="6.14719">
        <ele>2428.8</ele>
        <time>2021-12-17T10:33:10Z</time>
      </trkpt>
      <trkpt lat="45.28851" lon="6.14719">
        <ele>2428.2</ele>
        <time>2021-12-17T10:33:11Z</time>
      </trkpt>
      <trkpt lat="45.28849" lon="6.14723">
        <ele>2427</ele>
        <time>2021-12-17T10:33:12Z</time>
      </trkpt>
      <trkpt lat="45.28846" lon="6.14729">
        <ele>2425.4</ele>
        <time>2021-12-17T10:33:13Z</time>
      </trkpt>
      <trkpt lat="45.28843" lon="6.14734">
        <ele>2423</ele>
        <time>2021-12-17T10:33:14Z</time>
      </trkpt>
      <trkpt lat="45.2884" lon="6.1474">
        <ele>2421.8</ele>
        <time>2021-12-17T10:33:15Z</time>
      </trkpt>
      <trkpt lat="45.28838" lon="6.14747">
        <ele>2419.2</ele>
        <time>2021-12-17T10:33:16Z</time>
      </trkpt>
      <trkpt lat="45.28835" lon="6.14754">
        <ele>2416.2</ele>
        <time>2021-12-17T10:33:17Z</time>
      </trkpt>
      <trkpt lat="45.2883" lon="6.14758">
        <ele>2413.2</ele>
        <time>2021-12-17T10:33:18Z</time>
      </trkpt>
      <trkpt lat="45.28827" lon="6.14761">
        <ele>2411.4</ele>
        <time>2021-12-17T10:33:19Z</time>
      </trkpt>
      <trkpt lat="45.28825" lon="6.14761">
        <ele>2410.4</ele>
        <time>2021-12-17T10:33:20Z</time>
      </trkpt>
      <trkpt lat="45.28826" lon="6.14761">
        <ele>2409.8</ele>
        <time>2021-12-17T10:33:21Z</time>
      </trkpt>
      <trkpt lat="45.28826" lon="6.14761">
        <ele>2409.6</ele>
        <time>2021-12-17T10:33:22Z</time>
      </trkpt>
      <trkpt lat="45.2883" lon="6.14761">
        <ele>2409.2</ele>
        <time>2021-12-17T10:33:28Z</time>
      </trkpt>
      <trkpt lat="45.28832" lon="6.14767">
        <ele>2407.6</ele>
        <time>2021-12-17T10:33:37Z</time>
      </trkpt>
      <trkpt lat="45.28831" lon="6.14772">
        <ele>2405.6</ele>
        <time>2021-12-17T10:33:38Z</time>
      </trkpt>
      <trkpt lat="45.2883" lon="6.14777">
        <ele>2403</ele>
        <time>2021-12-17T10:33:39Z</time>
      </trkpt>
      <trkpt lat="45.28829" lon="6.14783">
        <ele>2401.4</ele>
        <time>2021-12-17T10:33:40Z</time>
      </trkpt>
      <trkpt lat="45.28827" lon="6.14789">
        <ele>2398.4</ele>
        <time>2021-12-17T10:33:41Z</time>
      </trkpt>
      <trkpt lat="45.28824" lon="6.14793">
        <ele>2396.2</ele>
        <time>2021-12-17T10:33:42Z</time>
      </trkpt>
      <trkpt lat="45.28822" lon="6.14798">
        <ele>2394.6</ele>
        <time>2021-12-17T10:33:43Z</time>
      </trkpt>
      <trkpt lat="45.28821" lon="6.14803">
        <ele>2392</ele>
        <time>2021-12-17T10:33:44Z</time>
      </trkpt>
      <trkpt lat="45.28821" lon="6.14811">
        <ele>2389.6</ele>
        <time>2021-12-17T10:33:45Z</time>
      </trkpt>
      <trkpt lat="45.28821" lon="6.14818">
        <ele>2387.8</ele>
        <time>2021-12-17T10:33:46Z</time>
      </trkpt>
      <trkpt lat="45.28819" lon="6.14822">
        <ele>2386.6</ele>
        <time>2021-12-17T10:33:47Z</time>
      </trkpt>
      <trkpt lat="45.28814" lon="6.14824">
        <ele>2384</ele>
        <time>2021-12-17T10:33:48Z</time>
      </trkpt>
      <trkpt lat="45.2881" lon="6.14826">
        <ele>2382</ele>
        <time>2021-12-17T10:33:49Z</time>
      </trkpt>
      <trkpt lat="45.28808" lon="6.14833">
        <ele>2378.2</ele>
        <time>2021-12-17T10:33:50Z</time>
      </trkpt>
      <trkpt lat="45.28806" lon="6.14839">
        <ele>2374.8</ele>
        <time>2021-12-17T10:33:51Z</time>
      </trkpt>
      <trkpt lat="45.28802" lon="6.14843">
        <ele>2372.4</ele>
        <time>2021-12-17T10:33:52Z</time>
      </trkpt>
      <trkpt lat="45.28797" lon="6.14845">
        <ele>2369.4</ele>
        <time>2021-12-17T10:33:53Z</time>
      </trkpt>
      <trkpt lat="45.28793" lon="6.1485">
        <ele>2366.8</ele>
        <time>2021-12-17T10:33:54Z</time>
      </trkpt>
      <trkpt lat="45.2879" lon="6.14856">
        <ele>2364</ele>
        <time>2021-12-17T10:33:55Z</time>
      </trkpt>
      <trkpt lat="45.28786" lon="6.14861">
        <ele>2361</ele>
        <time>2021-12-17T10:33:56Z</time>
      </trkpt>
      <trkpt lat="45.28781" lon="6.14866">
        <ele>2358.4</ele>
        <time>2021-12-17T10:33:57Z</time>
      </trkpt>
      <trkpt lat="45.28777" lon="6.14872">
        <ele>2355.4</ele>
        <time>2021-12-17T10:33:58Z</time>
      </trkpt>
      <trkpt lat="45.28773" lon="6.14879">
        <ele>2352.2</ele>
        <time>2021-12-17T10:33:59Z</time>
      </trkpt>
      <trkpt lat="45.28774" lon="6.14886">
        <ele>2349.8</ele>
        <time>2021-12-17T10:34:00Z</time>
      </trkpt>
      <trkpt lat="45.28776" lon="6.14893">
        <ele>2348.6</ele>
        <time>2021-12-17T10:34:01Z</time>
      </trkpt>
      <trkpt lat="45.28779" lon="6.14897">
        <ele>2347.6</ele>
        <time>2021-12-17T10:34:02Z</time>
      </trkpt>
      <trkpt lat="45.28782" lon="6.149">
        <ele>2346.4</ele>
        <time>2021-12-17T10:34:03Z</time>
      </trkpt>
      <trkpt lat="45.28783" lon="6.14901">
        <ele>2345.8</ele>
        <time>2021-12-17T10:34:04Z</time>
      </trkpt>
      <trkpt lat="45.28785" lon="6.14902">
        <ele>2345.2</ele>
        <time>2021-12-17T10:34:05Z</time>
      </trkpt>
      <trkpt lat="45.28786" lon="6.14902">
        <ele>2345</ele>
        <time>2021-12-17T10:34:06Z</time>
      </trkpt>
      <trkpt lat="45.28789" lon="6.14907">
        <ele>2344.6</ele>
        <time>2021-12-17T10:34:13Z</time>
      </trkpt>
      <trkpt lat="45.28787" lon="6.14911">
        <ele>2344.2</ele>
        <time>2021-12-17T10:34:14Z</time>
      </trkpt>
      <trkpt lat="45.28784" lon="6.14914">
        <ele>2343.2</ele>
        <time>2021-12-17T10:34:15Z</time>
      </trkpt>
      <trkpt lat="45.28781" lon="6.14917">
        <ele>2341.2</ele>
        <time>2021-12-17T10:34:16Z</time>
      </trkpt>
      <trkpt lat="45.28778" lon="6.14922">
        <ele>2339.8</ele>
        <time>2021-12-17T10:34:17Z</time>
      </trkpt>
      <trkpt lat="45.28776" lon="6.14926">
        <ele>2336.6</ele>
        <time>2021-12-17T10:34:18Z</time>
      </trkpt>
      <trkpt lat="45.28773" lon="6.14932">
        <ele>2334</ele>
        <time>2021-12-17T10:34:19Z</time>
      </trkpt>
      <trkpt lat="45.28772" lon="6.14938">
        <ele>2332</ele>
        <time>2021-12-17T10:34:20Z</time>
      </trkpt>
      <trkpt lat="45.28769" lon="6.14943">
        <ele>2328.6</ele>
        <time>2021-12-17T10:34:21Z</time>
      </trkpt>
      <trkpt lat="45.28766" lon="6.14948">
        <ele>2325.8</ele>
        <time>2021-12-17T10:34:22Z</time>
      </trkpt>
      <trkpt lat="45.28765" lon="6.14954">
        <ele>2324.2</ele>
        <time>2021-12-17T10:34:23Z</time>
      </trkpt>
      <trkpt lat="45.28762" lon="6.14961">
        <ele>2320.4</ele>
        <time>2021-12-17T10:34:24Z</time>
      </trkpt>
      <trkpt lat="45.28759" lon="6.14966">
        <ele>2316.6</ele>
        <time>2021-12-17T10:34:25Z</time>
      </trkpt>
      <trkpt lat="45.28756" lon="6.14971">
        <ele>2313.8</ele>
        <time>2021-12-17T10:34:26Z</time>
      </trkpt>
      <trkpt lat="45.28754" lon="6.14977">
        <ele>2310.8</ele>
        <time>2021-12-17T10:34:27Z</time>
      </trkpt>
      <trkpt lat="45.28751" lon="6.14982">
        <ele>2307.4</ele>
        <time>2021-12-17T10:34:28Z</time>
      </trkpt>
      <trkpt lat="45.28747" lon="6.14988">
        <ele>2303.8</ele>
        <time>2021-12-17T10:34:29Z</time>
      </trkpt>
      <trkpt lat="45.28746" lon="6.14995">
        <ele>2301</ele>
        <time>2021-12-17T10:34:30Z</time>
      </trkpt>
      <trkpt lat="45.28744" lon="6.15002">
        <ele>2296.6</ele>
        <time>2021-12-17T10:34:31Z</time>
      </trkpt>
      <trkpt lat="45.2874" lon="6.15008">
        <ele>2293</ele>
        <time>2021-12-17T10:34:32Z</time>
      </trkpt>
      <trkpt lat="45.28736" lon="6.15014">
        <ele>2289.6</ele>
        <time>2021-12-17T10:34:33Z</time>
      </trkpt>
      <trkpt lat="45.28735" lon="6.15021">
        <ele>2287.2</ele>
        <time>2021-12-17T10:34:34Z</time>
      </trkpt>
      <trkpt lat="45.28734" lon="6.15029">
        <ele>2283.4</ele>
        <time>2021-12-17T10:34:35Z</time>
      </trkpt>
      <trkpt lat="45.28732" lon="6.15035">
        <ele>2280</ele>
        <time>2021-12-17T10:34:36Z</time>
      </trkpt>
      <trkpt lat="45.28729" lon="6.15038">
        <ele>2276.8</ele>
        <time>2021-12-17T10:34:37Z</time>
      </trkpt>
      <trkpt lat="45.28727" lon="6.15041">
        <ele>2274.8</ele>
        <time>2021-12-17T10:34:38Z</time>
      </trkpt>
      <trkpt lat="45.28726" lon="6.15046">
        <ele>2273.2</ele>
        <time>2021-12-17T10:34:39Z</time>
      </trkpt>
      <trkpt lat="45.28724" lon="6.15052">
        <ele>2270.4</ele>
        <time>2021-12-17T10:34:40Z</time>
      </trkpt>
      <trkpt lat="45.28718" lon="6.15056">
        <ele>2267.4</ele>
        <time>2021-12-17T10:34:41Z</time>
      </trkpt>
      <trkpt lat="45.28713" lon="6.15057">
        <ele>2264.6</ele>
        <time>2021-12-17T10:34:42Z</time>
      </trkpt>
      <trkpt lat="45.28708" lon="6.15058">
        <ele>2262.4</ele>
        <time>2021-12-17T10:34:43Z</time>
      </trkpt>
      <trkpt lat="45.28704" lon="6.1506">
        <ele>2261</ele>
        <time>2021-12-17T10:34:44Z</time>
      </trkpt>
      <trkpt lat="45.28702" lon="6.15064">
        <ele>2259.4</ele>
        <time>2021-12-17T10:34:45Z</time>
      </trkpt>
      <trkpt lat="45.28701" lon="6.15067">
        <ele>2257.4</ele>
        <time>2021-12-17T10:34:46Z</time>
      </trkpt>
      <trkpt lat="45.28701" lon="6.15068">
        <ele>2255.4</ele>
        <time>2021-12-17T10:34:47Z</time>
      </trkpt>
      <trkpt lat="45.28702" lon="6.15068">
        <ele>2254.4</ele>
        <time>2021-12-17T10:34:48Z</time>
      </trkpt>
      <trkpt lat="45.28704" lon="6.15068">
        <ele>2253.4</ele>
        <time>2021-12-17T10:34:51Z</time>
      </trkpt>
      <trkpt lat="45.28706" lon="6.15068">
        <ele>2253.4</ele>
        <time>2021-12-17T10:34:55Z</time>
      </trkpt>
      <trkpt lat="45.28707" lon="6.1507">
        <ele>2253</ele>
        <time>2021-12-17T10:35:04Z</time>
      </trkpt>
      <trkpt lat="45.28707" lon="6.1507">
        <ele>2252.4</ele>
        <time>2021-12-17T10:35:23Z</time>
      </trkpt>
      <trkpt lat="45.28708" lon="6.15071">
        <ele>2252.2</ele>
        <time>2021-12-17T10:35:35Z</time>
      </trkpt>
      <trkpt lat="45.2871" lon="6.15072">
        <ele>2251.6</ele>
        <time>2021-12-17T10:35:52Z</time>
      </trkpt>
      <trkpt lat="45.2871" lon="6.15072">
        <ele>2251.2</ele>
        <time>2021-12-17T10:35:54Z</time>
      </trkpt>
      <trkpt lat="45.2871" lon="6.15072">
        <ele>2250</ele>
        <time>2021-12-17T10:35:55Z</time>
      </trkpt>
      <trkpt lat="45.28707" lon="6.15074">
        <ele>2248.8</ele>
        <time>2021-12-17T10:35:56Z</time>
      </trkpt>
      <trkpt lat="45.28706" lon="6.15079">
        <ele>2247.6</ele>
        <time>2021-12-17T10:35:57Z</time>
      </trkpt>
      <trkpt lat="45.28705" lon="6.15084">
        <ele>2245.6</ele>
        <time>2021-12-17T10:35:58Z</time>
      </trkpt>
      <trkpt lat="45.28701" lon="6.15089">
        <ele>2243.8</ele>
        <time>2021-12-17T10:35:59Z</time>
      </trkpt>
      <trkpt lat="45.28698" lon="6.15095">
        <ele>2241.4</ele>
        <time>2021-12-17T10:36:00Z</time>
      </trkpt>
      <trkpt lat="45.28695" lon="6.15104">
        <ele>2239</ele>
        <time>2021-12-17T10:36:01Z</time>
      </trkpt>
      <trkpt lat="45.28692" lon="6.15111">
        <ele>2235.8</ele>
        <time>2021-12-17T10:36:02Z</time>
      </trkpt>
      <trkpt lat="45.28686" lon="6.15113">
        <ele>2232.6</ele>
        <time>2021-12-17T10:36:03Z</time>
      </trkpt>
      <trkpt lat="45.28679" lon="6.15113">
        <ele>2230.8</ele>
        <time>2021-12-17T10:36:04Z</time>
      </trkpt>
      <trkpt lat="45.28672" lon="6.15114">
        <ele>2229.4</ele>
        <time>2021-12-17T10:36:05Z</time>
      </trkpt>
      <trkpt lat="45.28662" lon="6.15114">
        <ele>2227.8</ele>
        <time>2021-12-17T10:36:07Z</time>
      </trkpt>
      <trkpt lat="45.28649" lon="6.15115">
        <ele>2226.6</ele>
        <time>2021-12-17T10:36:10Z</time>
      </trkpt>
      <trkpt lat="45.28644" lon="6.15115">
        <ele>2225.6</ele>
        <time>2021-12-17T10:36:11Z</time>
      </trkpt>
      <trkpt lat="45.28639" lon="6.15118">
        <ele>2224.8</ele>
        <time>2021-12-17T10:36:12Z</time>
      </trkpt>
      <trkpt lat="45.28636" lon="6.15123">
        <ele>2222.6</ele>
        <time>2021-12-17T10:36:13Z</time>
      </trkpt>
      <trkpt lat="45.28632" lon="6.15128">
        <ele>2220.8</ele>
        <time>2021-12-17T10:36:14Z</time>
      </trkpt>
      <trkpt lat="45.28626" lon="6.15133">
        <ele>2219.6</ele>
        <time>2021-12-17T10:36:15Z</time>
      </trkpt>
      <trkpt lat="45.28621" lon="6.15139">
        <ele>2218.4</ele>
        <time>2021-12-17T10:36:16Z</time>
      </trkpt>
      <trkpt lat="45.28615" lon="6.15143">
        <ele>2216</ele>
        <time>2021-12-17T10:36:17Z</time>
      </trkpt>
      <trkpt lat="45.28608" lon="6.15143">
        <ele>2214.8</ele>
        <time>2021-12-17T10:36:18Z</time>
      </trkpt>
      <trkpt lat="45.28601" lon="6.15145">
        <ele>2212.4</ele>
        <time>2021-12-17T10:36:19Z</time>
      </trkpt>
      <trkpt lat="45.28593" lon="6.15149">
        <ele>2210.8</ele>
        <time>2021-12-17T10:36:20Z</time>
      </trkpt>
      <trkpt lat="45.28586" lon="6.15153">
        <ele>2208</ele>
        <time>2021-12-17T10:36:21Z</time>
      </trkpt>
      <trkpt lat="45.28579" lon="6.15155">
        <ele>2206.2</ele>
        <time>2021-12-17T10:36:22Z</time>
      </trkpt>
      <trkpt lat="45.28572" lon="6.15156">
        <ele>2205</ele>
        <time>2021-12-17T10:36:23Z</time>
      </trkpt>
      <trkpt lat="45.28557" lon="6.1516">
        <ele>2203.8</ele>
        <time>2021-12-17T10:36:25Z</time>
      </trkpt>
      <trkpt lat="45.28549" lon="6.15161">
        <ele>2203.2</ele>
        <time>2021-12-17T10:36:28Z</time>
      </trkpt>
      <trkpt lat="45.28546" lon="6.15164">
        <ele>2202.8</ele>
        <time>2021-12-17T10:36:32Z</time>
      </trkpt>
      <trkpt lat="45.28546" lon="6.15166">
        <ele>2202.8</ele>
        <time>2021-12-17T10:36:36Z</time>
      </trkpt>
      <trkpt lat="45.28538" lon="6.15176">
        <ele>2201</ele>
        <time>2021-12-17T10:36:40Z</time>
      </trkpt>
      <trkpt lat="45.28534" lon="6.15181">
        <ele>2199.6</ele>
        <time>2021-12-17T10:36:41Z</time>
      </trkpt>
      <trkpt lat="45.28531" lon="6.15186">
        <ele>2196.8</ele>
        <time>2021-12-17T10:36:42Z</time>
      </trkpt>
      <trkpt lat="45.28527" lon="6.15192">
        <ele>2193.8</ele>
        <time>2021-12-17T10:36:43Z</time>
      </trkpt>
      <trkpt lat="45.28521" lon="6.15197">
        <ele>2191.2</ele>
        <time>2021-12-17T10:36:44Z</time>
      </trkpt>
      <trkpt lat="45.28517" lon="6.15205">
        <ele>2189.6</ele>
        <time>2021-12-17T10:36:45Z</time>
      </trkpt>
      <trkpt lat="45.28514" lon="6.15213">
        <ele>2186.6</ele>
        <time>2021-12-17T10:36:46Z</time>
      </trkpt>
      <trkpt lat="45.2851" lon="6.1522">
        <ele>2183.2</ele>
        <time>2021-12-17T10:36:47Z</time>
      </trkpt>
      <trkpt lat="45.28507" lon="6.15227">
        <ele>2180.8</ele>
        <time>2021-12-17T10:36:48Z</time>
      </trkpt>
      <trkpt lat="45.28502" lon="6.15235">
        <ele>2177.8</ele>
        <time>2021-12-17T10:36:49Z</time>
      </trkpt>
      <trkpt lat="45.28498" lon="6.15241">
        <ele>2174.4</ele>
        <time>2021-12-17T10:36:50Z</time>
      </trkpt>
      <trkpt lat="45.28493" lon="6.15245">
        <ele>2171.2</ele>
        <time>2021-12-17T10:36:51Z</time>
      </trkpt>
      <trkpt lat="45.28488" lon="6.15248">
        <ele>2169</ele>
        <time>2021-12-17T10:36:52Z</time>
      </trkpt>
      <trkpt lat="45.28484" lon="6.15252">
        <ele>2167.6</ele>
        <time>2021-12-17T10:36:53Z</time>
      </trkpt>
      <trkpt lat="45.2848" lon="6.15258">
        <ele>2165.8</ele>
        <time>2021-12-17T10:36:54Z</time>
      </trkpt>
      <trkpt lat="45.28474" lon="6.15262">
        <ele>2161.8</ele>
        <time>2021-12-17T10:36:55Z</time>
      </trkpt>
      <trkpt lat="45.2847" lon="6.15265">
        <ele>2159.8</ele>
        <time>2021-12-17T10:36:56Z</time>
      </trkpt>
      <trkpt lat="45.28466" lon="6.15268">
        <ele>2158.8</ele>
        <time>2021-12-17T10:36:57Z</time>
      </trkpt>
      <trkpt lat="45.28461" lon="6.15272">
        <ele>2157.6</ele>
        <time>2021-12-17T10:36:58Z</time>
      </trkpt>
      <trkpt lat="45.28457" lon="6.15278">
        <ele>2155.6</ele>
        <time>2021-12-17T10:36:59Z</time>
      </trkpt>
      <trkpt lat="45.28451" lon="6.15283">
        <ele>2153.6</ele>
        <time>2021-12-17T10:37:00Z</time>
      </trkpt>
      <trkpt lat="45.28447" lon="6.15289">
        <ele>2152.4</ele>
        <time>2021-12-17T10:37:01Z</time>
      </trkpt>
      <trkpt lat="45.28445" lon="6.15296">
        <ele>2150</ele>
        <time>2021-12-17T10:37:02Z</time>
      </trkpt>
      <trkpt lat="45.28443" lon="6.15303">
        <ele>2147.4</ele>
        <time>2021-12-17T10:37:03Z</time>
      </trkpt>
      <trkpt lat="45.28439" lon="6.15311">
        <ele>2145.4</ele>
        <time>2021-12-17T10:37:04Z</time>
      </trkpt>
      <trkpt lat="45.28437" lon="6.15319">
        <ele>2144</ele>
        <time>2021-12-17T10:37:05Z</time>
      </trkpt>
      <trkpt lat="45.28436" lon="6.15328">
        <ele>2141.6</ele>
        <time>2021-12-17T10:37:06Z</time>
      </trkpt>
      <trkpt lat="45.28434" lon="6.15335">
        <ele>2138.8</ele>
        <time>2021-12-17T10:37:07Z</time>
      </trkpt>
      <trkpt lat="45.28432" lon="6.15343">
        <ele>2136.2</ele>
        <time>2021-12-17T10:37:08Z</time>
      </trkpt>
      <trkpt lat="45.28431" lon="6.1535">
        <ele>2134.2</ele>
        <time>2021-12-17T10:37:09Z</time>
      </trkpt>
      <trkpt lat="45.28431" lon="6.15357">
        <ele>2131.2</ele>
        <time>2021-12-17T10:37:10Z</time>
      </trkpt>
      <trkpt lat="45.28432" lon="6.15365">
        <ele>2128.4</ele>
        <time>2021-12-17T10:37:11Z</time>
      </trkpt>
      <trkpt lat="45.28432" lon="6.15372">
        <ele>2126.8</ele>
        <time>2021-12-17T10:37:12Z</time>
      </trkpt>
      <trkpt lat="45.2843" lon="6.1538">
        <ele>2124.4</ele>
        <time>2021-12-17T10:37:13Z</time>
      </trkpt>
      <trkpt lat="45.28429" lon="6.15388">
        <ele>2123</ele>
        <time>2021-12-17T10:37:14Z</time>
      </trkpt>
      <trkpt lat="45.28429" lon="6.15396">
        <ele>2121</ele>
        <time>2021-12-17T10:37:15Z</time>
      </trkpt>
      <trkpt lat="45.28428" lon="6.15403">
        <ele>2119.2</ele>
        <time>2021-12-17T10:37:16Z</time>
      </trkpt>
      <trkpt lat="45.28426" lon="6.15406">
        <ele>2117.4</ele>
        <time>2021-12-17T10:37:17Z</time>
      </trkpt>
      <trkpt lat="45.28424" lon="6.15406">
        <ele>2115.8</ele>
        <time>2021-12-17T10:37:18Z</time>
      </trkpt>
      <trkpt lat="45.28424" lon="6.15404">
        <ele>2115</ele>
        <time>2021-12-17T10:37:19Z</time>
      </trkpt>
      <trkpt lat="45.28424" lon="6.15404">
        <ele>2114.6</ele>
        <time>2021-12-17T10:37:20Z</time>
      </trkpt>
      <trkpt lat="45.28425" lon="6.15403">
        <ele>2114.2</ele>
        <time>2021-12-17T10:37:23Z</time>
      </trkpt>
      <trkpt lat="45.28428" lon="6.15402">
        <ele>2114</ele>
        <time>2021-12-17T10:37:31Z</time>
      </trkpt>
      <trkpt lat="45.2843" lon="6.15402">
        <ele>2113.6</ele>
        <time>2021-12-17T10:37:50Z</time>
      </trkpt>
      <trkpt lat="45.28433" lon="6.154">
        <ele>2112.4</ele>
        <time>2021-12-17T10:38:32Z</time>
      </trkpt>
      <trkpt lat="45.28434" lon="6.15399">
        <ele>2112.4</ele>
        <time>2021-12-17T10:38:44Z</time>
      </trkpt>
      <trkpt lat="45.28437" lon="6.15401">
        <ele>2111.8</ele>
        <time>2021-12-17T10:39:17Z</time>
      </trkpt>
      <trkpt lat="45.28439" lon="6.154">
        <ele>2111.4</ele>
        <time>2021-12-17T10:39:32Z</time>
      </trkpt>
      <trkpt lat="45.28439" lon="6.154">
        <ele>2111.4</ele>
        <time>2021-12-17T10:39:38Z</time>
      </trkpt>
      <trkpt lat="45.28439" lon="6.154">
        <ele>2111.6</ele>
        <time>2021-12-17T10:39:58Z</time>
      </trkpt>
      <trkpt lat="45.28437" lon="6.154">
        <ele>2111.6</ele>
        <time>2021-12-17T10:40:30Z</time>
      </trkpt>
      <trkpt lat="45.28438" lon="6.15401">
        <ele>2111.6</ele>
        <time>2021-12-17T10:40:56Z</time>
      </trkpt>
      <trkpt lat="45.28436" lon="6.15393">
        <ele>2111.6</ele>
        <time>2021-12-17T10:41:25Z</time>
      </trkpt>
      <trkpt lat="45.28429" lon="6.15379">
        <ele>2112.6</ele>
        <time>2021-12-17T10:41:36Z</time>
      </trkpt>
      <trkpt lat="45.28428" lon="6.15377">
        <ele>2112.8</ele>
        <time>2021-12-17T10:41:38Z</time>
      </trkpt>
      <trkpt lat="45.28427" lon="6.15375">
        <ele>2113</ele>
        <time>2021-12-17T10:41:39Z</time>
      </trkpt>
      <trkpt lat="45.28425" lon="6.15371">
        <ele>2113.6</ele>
        <time>2021-12-17T10:41:43Z</time>
      </trkpt>
      <trkpt lat="45.28424" lon="6.15367">
        <ele>2114</ele>
        <time>2021-12-17T10:41:46Z</time>
      </trkpt>
      <trkpt lat="45.2842" lon="6.15358">
        <ele>2115</ele>
        <time>2021-12-17T10:41:53Z</time>
      </trkpt>
      <trkpt lat="45.28419" lon="6.15353">
        <ele>2115.4</ele>
        <time>2021-12-17T10:41:57Z</time>
      </trkpt>
      <trkpt lat="45.28418" lon="6.15348">
        <ele>2115.8</ele>
        <time>2021-12-17T10:42:01Z</time>
      </trkpt>
      <trkpt lat="45.28419" lon="6.15346">
        <ele>2116</ele>
        <time>2021-12-17T10:42:03Z</time>
      </trkpt>
      <trkpt lat="45.2842" lon="6.15344">
        <ele>2116.4</ele>
        <time>2021-12-17T10:42:05Z</time>
      </trkpt>
      <trkpt lat="45.28421" lon="6.15342">
        <ele>2117.2</ele>
        <time>2021-12-17T10:42:08Z</time>
      </trkpt>
      <trkpt lat="45.2842" lon="6.15338">
        <ele>2118</ele>
        <time>2021-12-17T10:42:11Z</time>
      </trkpt>
      <trkpt lat="45.2842" lon="6.15337">
        <ele>2118.2</ele>
        <time>2021-12-17T10:42:12Z</time>
      </trkpt>
      <trkpt lat="45.28418" lon="6.15333">
        <ele>2119.2</ele>
        <time>2021-12-17T10:42:17Z</time>
      </trkpt>
      <trkpt lat="45.28417" lon="6.15331">
        <ele>2119.6</ele>
        <time>2021-12-17T10:42:19Z</time>
      </trkpt>
      <trkpt lat="45.28416" lon="6.15329">
        <ele>2120.4</ele>
        <time>2021-12-17T10:42:22Z</time>
      </trkpt>
      <trkpt lat="45.28414" lon="6.15325">
        <ele>2121.6</ele>
        <time>2021-12-17T10:42:28Z</time>
      </trkpt>
      <trkpt lat="45.28411" lon="6.15325">
        <ele>2122.8</ele>
        <time>2021-12-17T10:42:32Z</time>
      </trkpt>
      <trkpt lat="45.28408" lon="6.15325">
        <ele>2123.2</ele>
        <time>2021-12-17T10:42:35Z</time>
      </trkpt>
      <trkpt lat="45.28405" lon="6.15326">
        <ele>2124</ele>
        <time>2021-12-17T10:42:39Z</time>
      </trkpt>
      <trkpt lat="45.284" lon="6.15326">
        <ele>2125</ele>
        <time>2021-12-17T10:42:45Z</time>
      </trkpt>
      <trkpt lat="45.28399" lon="6.15319">
        <ele>2125.6</ele>
        <time>2021-12-17T10:42:51Z</time>
      </trkpt>
      <trkpt lat="45.28399" lon="6.15315">
        <ele>2126.2</ele>
        <time>2021-12-17T10:42:54Z</time>
      </trkpt>
      <trkpt lat="45.284" lon="6.15306">
        <ele>2127.2</ele>
        <time>2021-12-17T10:43:01Z</time>
      </trkpt>
      <trkpt lat="45.284" lon="6.15305">
        <ele>2127.4</ele>
        <time>2021-12-17T10:43:02Z</time>
      </trkpt>
      <trkpt lat="45.28401" lon="6.15296">
        <ele>2128.2</ele>
        <time>2021-12-17T10:43:10Z</time>
      </trkpt>
      <trkpt lat="45.28402" lon="6.15295">
        <ele>2128.6</ele>
        <time>2021-12-17T10:43:11Z</time>
      </trkpt>
      <trkpt lat="45.28404" lon="6.15289">
        <ele>2129.6</ele>
        <time>2021-12-17T10:43:16Z</time>
      </trkpt>
      <trkpt lat="45.28404" lon="6.15288">
        <ele>2129.6</ele>
        <time>2021-12-17T10:43:17Z</time>
      </trkpt>
      <trkpt lat="45.28404" lon="6.15285">
        <ele>2131</ele>
        <time>2021-12-17T10:43:22Z</time>
      </trkpt>
      <trkpt lat="45.28403" lon="6.15284">
        <ele>2131.2</ele>
        <time>2021-12-17T10:43:23Z</time>
      </trkpt>
      <trkpt lat="45.28401" lon="6.15285">
        <ele>2132</ele>
        <time>2021-12-17T10:43:28Z</time>
      </trkpt>
      <trkpt lat="45.284" lon="6.15285">
        <ele>2132.6</ele>
        <time>2021-12-17T10:43:29Z</time>
      </trkpt>
      <trkpt lat="45.28398" lon="6.15287">
        <ele>2133.2</ele>
        <time>2021-12-17T10:43:32Z</time>
      </trkpt>
      <trkpt lat="45.28393" lon="6.15288">
        <ele>2134</ele>
        <time>2021-12-17T10:43:36Z</time>
      </trkpt>
      <trkpt lat="45.28392" lon="6.15289">
        <ele>2134.2</ele>
        <time>2021-12-17T10:43:37Z</time>
      </trkpt>
      <trkpt lat="45.28388" lon="6.15287">
        <ele>2135.2</ele>
        <time>2021-12-17T10:43:42Z</time>
      </trkpt>
      <trkpt lat="45.28383" lon="6.15283">
        <ele>2136.2</ele>
        <time>2021-12-17T10:43:47Z</time>
      </trkpt>
      <trkpt lat="45.28382" lon="6.15282">
        <ele>2136.4</ele>
        <time>2021-12-17T10:43:48Z</time>
      </trkpt>
      <trkpt lat="45.28375" lon="6.15276">
        <ele>2137.2</ele>
        <time>2021-12-17T10:43:57Z</time>
      </trkpt>
      <trkpt lat="45.28373" lon="6.15272">
        <ele>2137.4</ele>
        <time>2021-12-17T10:44:00Z</time>
      </trkpt>
      <trkpt lat="45.28369" lon="6.15266">
        <ele>2137.8</ele>
        <time>2021-12-17T10:44:05Z</time>
      </trkpt>
      <trkpt lat="45.28368" lon="6.15265">
        <ele>2138.4</ele>
        <time>2021-12-17T10:44:07Z</time>
      </trkpt>
      <trkpt lat="45.28364" lon="6.15262">
        <ele>2139.8</ele>
        <time>2021-12-17T10:44:12Z</time>
      </trkpt>
      <trkpt lat="45.28362" lon="6.1526">
        <ele>2140.4</ele>
        <time>2021-12-17T10:44:15Z</time>
      </trkpt>
      <trkpt lat="45.28353" lon="6.15254">
        <ele>2141</ele>
        <time>2021-12-17T10:44:25Z</time>
      </trkpt>
      <trkpt lat="45.28346" lon="6.15248">
        <ele>2142.2</ele>
        <time>2021-12-17T10:44:33Z</time>
      </trkpt>
      <trkpt lat="45.28345" lon="6.15247">
        <ele>2142.8</ele>
        <time>2021-12-17T10:44:35Z</time>
      </trkpt>
      <trkpt lat="45.28342" lon="6.15246">
        <ele>2143.2</ele>
        <time>2021-12-17T10:44:38Z</time>
      </trkpt>
      <trkpt lat="45.28338" lon="6.15239">
        <ele>2144.4</ele>
        <time>2021-12-17T10:44:44Z</time>
      </trkpt>
      <trkpt lat="45.28334" lon="6.15234">
        <ele>2145.4</ele>
        <time>2021-12-17T10:44:50Z</time>
      </trkpt>
      <trkpt lat="45.28333" lon="6.15231">
        <ele>2145.8</ele>
        <time>2021-12-17T10:44:53Z</time>
      </trkpt>
      <trkpt lat="45.28331" lon="6.15228">
        <ele>2146.4</ele>
        <time>2021-12-17T10:44:56Z</time>
      </trkpt>
      <trkpt lat="45.28328" lon="6.15222">
        <ele>2147.2</ele>
        <time>2021-12-17T10:45:01Z</time>
      </trkpt>
      <trkpt lat="45.28327" lon="6.15221">
        <ele>2147.4</ele>
        <time>2021-12-17T10:45:02Z</time>
      </trkpt>
      <trkpt lat="45.28326" lon="6.1522">
        <ele>2147.8</ele>
        <time>2021-12-17T10:45:04Z</time>
      </trkpt>
      <trkpt lat="45.28324" lon="6.15217">
        <ele>2148.4</ele>
        <time>2021-12-17T10:45:07Z</time>
      </trkpt>
      <trkpt lat="45.28323" lon="6.15216">
        <ele>2148.6</ele>
        <time>2021-12-17T10:45:08Z</time>
      </trkpt>
      <trkpt lat="45.2832" lon="6.15211">
        <ele>2149.6</ele>
        <time>2021-12-17T10:45:14Z</time>
      </trkpt>
      <trkpt lat="45.28319" lon="6.1521">
        <ele>2150</ele>
        <time>2021-12-17T10:45:15Z</time>
      </trkpt>
      <trkpt lat="45.28316" lon="6.15203">
        <ele>2150.8</ele>
        <time>2021-12-17T10:45:21Z</time>
      </trkpt>
      <trkpt lat="45.28314" lon="6.15201">
        <ele>2151</ele>
        <time>2021-12-17T10:45:23Z</time>
      </trkpt>
      <trkpt lat="45.28314" lon="6.15201">
        <ele>2151.4</ele>
        <time>2021-12-17T10:45:24Z</time>
      </trkpt>
      <trkpt lat="45.28312" lon="6.15198">
        <ele>2151.8</ele>
        <time>2021-12-17T10:45:27Z</time>
      </trkpt>
      <trkpt lat="45.28309" lon="6.15192">
        <ele>2152.2</ele>
        <time>2021-12-17T10:45:32Z</time>
      </trkpt>
      <trkpt lat="45.28308" lon="6.15189">
        <ele>2152.6</ele>
        <time>2021-12-17T10:45:34Z</time>
      </trkpt>
      <trkpt lat="45.28306" lon="6.15186">
        <ele>2152.8</ele>
        <time>2021-12-17T10:45:36Z</time>
      </trkpt>
      <trkpt lat="45.28302" lon="6.15182">
        <ele>2153.4</ele>
        <time>2021-12-17T10:45:41Z</time>
      </trkpt>
      <trkpt lat="45.283" lon="6.1518">
        <ele>2154</ele>
        <time>2021-12-17T10:45:44Z</time>
      </trkpt>
      <trkpt lat="45.28295" lon="6.15178">
        <ele>2154.8</ele>
        <time>2021-12-17T10:45:50Z</time>
      </trkpt>
      <trkpt lat="45.28294" lon="6.15178">
        <ele>2155</ele>
        <time>2021-12-17T10:45:51Z</time>
      </trkpt>
      <trkpt lat="45.28292" lon="6.15178">
        <ele>2155.4</ele>
        <time>2021-12-17T10:45:53Z</time>
      </trkpt>
      <trkpt lat="45.28287" lon="6.15176">
        <ele>2155.8</ele>
        <time>2021-12-17T10:45:58Z</time>
      </trkpt>
      <trkpt lat="45.28285" lon="6.15175">
        <ele>2156.2</ele>
        <time>2021-12-17T10:46:00Z</time>
      </trkpt>
      <trkpt lat="45.2828" lon="6.15175">
        <ele>2157.4</ele>
        <time>2021-12-17T10:46:06Z</time>
      </trkpt>
      <trkpt lat="45.28272" lon="6.15176">
        <ele>2158.4</ele>
        <time>2021-12-17T10:46:14Z</time>
      </trkpt>
      <trkpt lat="45.28271" lon="6.15176">
        <ele>2158.6</ele>
        <time>2021-12-17T10:46:15Z</time>
      </trkpt>
      <trkpt lat="45.2827" lon="6.15175">
        <ele>2158.8</ele>
        <time>2021-12-17T10:46:17Z</time>
      </trkpt>
      <trkpt lat="45.28268" lon="6.15174">
        <ele>2159</ele>
        <time>2021-12-17T10:46:19Z</time>
      </trkpt>
      <trkpt lat="45.28268" lon="6.1517">
        <ele>2159.4</ele>
        <time>2021-12-17T10:46:21Z</time>
      </trkpt>
      <trkpt lat="45.28268" lon="6.15169">
        <ele>2159.4</ele>
        <time>2021-12-17T10:46:22Z</time>
      </trkpt>
      <trkpt lat="45.28269" lon="6.15168">
        <ele>2159.6</ele>
        <time>2021-12-17T10:46:23Z</time>
      </trkpt>
      <trkpt lat="45.2827" lon="6.15164">
        <ele>2160.4</ele>
        <time>2021-12-17T10:46:26Z</time>
      </trkpt>
      <trkpt lat="45.28271" lon="6.15161">
        <ele>2160.8</ele>
        <time>2021-12-17T10:46:28Z</time>
      </trkpt>
      <trkpt lat="45.28272" lon="6.15157">
        <ele>2161.2</ele>
        <time>2021-12-17T10:46:30Z</time>
      </trkpt>
      <trkpt lat="45.28273" lon="6.15155">
        <ele>2161.4</ele>
        <time>2021-12-17T10:46:32Z</time>
      </trkpt>
      <trkpt lat="45.28273" lon="6.15152">
        <ele>2161.8</ele>
        <time>2021-12-17T10:46:34Z</time>
      </trkpt>
      <trkpt lat="45.28274" lon="6.15151">
        <ele>2162</ele>
        <time>2021-12-17T10:46:35Z</time>
      </trkpt>
      <trkpt lat="45.28274" lon="6.1515">
        <ele>2162.4</ele>
        <time>2021-12-17T10:46:36Z</time>
      </trkpt>
      <trkpt lat="45.28274" lon="6.15148">
        <ele>2162.6</ele>
        <time>2021-12-17T10:46:37Z</time>
      </trkpt>
      <trkpt lat="45.28275" lon="6.15144">
        <ele>2163.2</ele>
        <time>2021-12-17T10:46:40Z</time>
      </trkpt>
      <trkpt lat="45.28275" lon="6.15143">
        <ele>2163.2</ele>
        <time>2021-12-17T10:46:41Z</time>
      </trkpt>
      <trkpt lat="45.28277" lon="6.15138">
        <ele>2164.2</ele>
        <time>2021-12-17T10:46:45Z</time>
      </trkpt>
      <trkpt lat="45.28276" lon="6.15136">
        <ele>2165.2</ele>
        <time>2021-12-17T10:46:48Z</time>
      </trkpt>
      <trkpt lat="45.28276" lon="6.15137">
        <ele>2165.4</ele>
        <time>2021-12-17T10:46:49Z</time>
      </trkpt>
      <trkpt lat="45.28276" lon="6.1514">
        <ele>2166.2</ele>
        <time>2021-12-17T10:46:51Z</time>
      </trkpt>
      <trkpt lat="45.28275" lon="6.1514">
        <ele>2166.4</ele>
        <time>2021-12-17T10:46:52Z</time>
      </trkpt>
      <trkpt lat="45.28274" lon="6.15133">
        <ele>2166.6</ele>
        <time>2021-12-17T10:46:56Z</time>
      </trkpt>
      <trkpt lat="45.28276" lon="6.15129">
        <ele>2166.6</ele>
        <time>2021-12-17T10:46:59Z</time>
      </trkpt>
      <trkpt lat="45.28277" lon="6.15126">
        <ele>2167</ele>
        <time>2021-12-17T10:47:01Z</time>
      </trkpt>
      <trkpt lat="45.28277" lon="6.15124">
        <ele>2167</ele>
        <time>2021-12-17T10:47:02Z</time>
      </trkpt>
      <trkpt lat="45.28277" lon="6.15123">
        <ele>2167.4</ele>
        <time>2021-12-17T10:47:03Z</time>
      </trkpt>
      <trkpt lat="45.28278" lon="6.15117">
        <ele>2168.2</ele>
        <time>2021-12-17T10:47:07Z</time>
      </trkpt>
      <trkpt lat="45.28278" lon="6.15115">
        <ele>2168.6</ele>
        <time>2021-12-17T10:47:08Z</time>
      </trkpt>
      <trkpt lat="45.28279" lon="6.15115">
        <ele>2168.8</ele>
        <time>2021-12-17T10:47:09Z</time>
      </trkpt>
      <trkpt lat="45.28282" lon="6.1511">
        <ele>2169.8</ele>
        <time>2021-12-17T10:47:14Z</time>
      </trkpt>
      <trkpt lat="45.28282" lon="6.15107">
        <ele>2170.4</ele>
        <time>2021-12-17T10:47:17Z</time>
      </trkpt>
      <trkpt lat="45.28283" lon="6.15104">
        <ele>2171</ele>
        <time>2021-12-17T10:47:20Z</time>
      </trkpt>
      <trkpt lat="45.28282" lon="6.15102">
        <ele>2171.4</ele>
        <time>2021-12-17T10:47:22Z</time>
      </trkpt>
      <trkpt lat="45.28282" lon="6.15101">
        <ele>2171.8</ele>
        <time>2021-12-17T10:47:24Z</time>
      </trkpt>
      <trkpt lat="45.28282" lon="6.151">
        <ele>2172.2</ele>
        <time>2021-12-17T10:47:25Z</time>
      </trkpt>
      <trkpt lat="45.28279" lon="6.15099">
        <ele>2173.6</ele>
        <time>2021-12-17T10:47:29Z</time>
      </trkpt>
      <trkpt lat="45.28276" lon="6.15099">
        <ele>2174.4</ele>
        <time>2021-12-17T10:47:33Z</time>
      </trkpt>
      <trkpt lat="45.28275" lon="6.15101">
        <ele>2174.6</ele>
        <time>2021-12-17T10:47:35Z</time>
      </trkpt>
      <trkpt lat="45.28272" lon="6.15101">
        <ele>2175</ele>
        <time>2021-12-17T10:47:40Z</time>
      </trkpt>
      <trkpt lat="45.28271" lon="6.15101">
        <ele>2175.2</ele>
        <time>2021-12-17T10:47:42Z</time>
      </trkpt>
      <trkpt lat="45.28264" lon="6.15101">
        <ele>2175.6</ele>
        <time>2021-12-17T10:47:49Z</time>
      </trkpt>
      <trkpt lat="45.28263" lon="6.15101">
        <ele>2175.8</ele>
        <time>2021-12-17T10:47:50Z</time>
      </trkpt>
      <trkpt lat="45.28258" lon="6.15101">
        <ele>2176.6</ele>
        <time>2021-12-17T10:47:55Z</time>
      </trkpt>
      <trkpt lat="45.28257" lon="6.15101">
        <ele>2176.8</ele>
        <time>2021-12-17T10:47:56Z</time>
      </trkpt>
      <trkpt lat="45.28255" lon="6.151">
        <ele>2177</ele>
        <time>2021-12-17T10:47:58Z</time>
      </trkpt>
      <trkpt lat="45.28255" lon="6.15099">
        <ele>2177.2</ele>
        <time>2021-12-17T10:47:59Z</time>
      </trkpt>
      <trkpt lat="45.28255" lon="6.15095">
        <ele>2178</ele>
        <time>2021-12-17T10:48:02Z</time>
      </trkpt>
      <trkpt lat="45.28255" lon="6.15091">
        <ele>2178.2</ele>
        <time>2021-12-17T10:48:04Z</time>
      </trkpt>
      <trkpt lat="45.28256" lon="6.15086">
        <ele>2179</ele>
        <time>2021-12-17T10:48:08Z</time>
      </trkpt>
      <trkpt lat="45.28257" lon="6.1508">
        <ele>2180.2</ele>
        <time>2021-12-17T10:48:13Z</time>
      </trkpt>
      <trkpt lat="45.28257" lon="6.15071">
        <ele>2181.4</ele>
        <time>2021-12-17T10:48:20Z</time>
      </trkpt>
      <trkpt lat="45.28256" lon="6.15068">
        <ele>2181.6</ele>
        <time>2021-12-17T10:48:21Z</time>
      </trkpt>
      <trkpt lat="45.28256" lon="6.15058">
        <ele>2182.4</ele>
        <time>2021-12-17T10:48:28Z</time>
      </trkpt>
      <trkpt lat="45.28256" lon="6.15056">
        <ele>2183</ele>
        <time>2021-12-17T10:48:31Z</time>
      </trkpt>
      <trkpt lat="45.28256" lon="6.15054">
        <ele>2183.8</ele>
        <time>2021-12-17T10:48:33Z</time>
      </trkpt>
      <trkpt lat="45.28256" lon="6.1505">
        <ele>2184.8</ele>
        <time>2021-12-17T10:48:37Z</time>
      </trkpt>
      <trkpt lat="45.28256" lon="6.15049">
        <ele>2185.4</ele>
        <time>2021-12-17T10:48:39Z</time>
      </trkpt>
      <trkpt lat="45.28256" lon="6.15047">
        <ele>2186</ele>
        <time>2021-12-17T10:48:41Z</time>
      </trkpt>
      <trkpt lat="45.28256" lon="6.15043">
        <ele>2187</ele>
        <time>2021-12-17T10:48:46Z</time>
      </trkpt>
      <trkpt lat="45.28256" lon="6.15044">
        <ele>2187.6</ele>
        <time>2021-12-17T10:48:48Z</time>
      </trkpt>
      <trkpt lat="45.28255" lon="6.15045">
        <ele>2188</ele>
        <time>2021-12-17T10:48:49Z</time>
      </trkpt>
      <trkpt lat="45.2825" lon="6.15049">
        <ele>2189.2</ele>
        <time>2021-12-17T10:48:54Z</time>
      </trkpt>
      <trkpt lat="45.28248" lon="6.1505">
        <ele>2189.6</ele>
        <time>2021-12-17T10:48:56Z</time>
      </trkpt>
      <trkpt lat="45.28246" lon="6.15051">
        <ele>2190.2</ele>
        <time>2021-12-17T10:48:59Z</time>
      </trkpt>
      <trkpt lat="45.28243" lon="6.15053">
        <ele>2190.8</ele>
        <time>2021-12-17T10:49:03Z</time>
      </trkpt>
      <trkpt lat="45.28241" lon="6.15054">
        <ele>2191</ele>
        <time>2021-12-17T10:49:05Z</time>
      </trkpt>
      <trkpt lat="45.28237" lon="6.15056">
        <ele>2191.4</ele>
        <time>2021-12-17T10:49:08Z</time>
      </trkpt>
      <trkpt lat="45.28235" lon="6.15057">
        <ele>2192</ele>
        <time>2021-12-17T10:49:10Z</time>
      </trkpt>
      <trkpt lat="45.28232" lon="6.15059">
        <ele>2192.4</ele>
        <time>2021-12-17T10:49:13Z</time>
      </trkpt>
      <trkpt lat="45.28229" lon="6.15063">
        <ele>2193.4</ele>
        <time>2021-12-17T10:49:18Z</time>
      </trkpt>
      <trkpt lat="45.28229" lon="6.15064">
        <ele>2193.6</ele>
        <time>2021-12-17T10:49:19Z</time>
      </trkpt>
      <trkpt lat="45.28223" lon="6.15068">
        <ele>2194.6</ele>
        <time>2021-12-17T10:49:24Z</time>
      </trkpt>
      <trkpt lat="45.28221" lon="6.15068">
        <ele>2194.6</ele>
        <time>2021-12-17T10:49:25Z</time>
      </trkpt>
      <trkpt lat="45.28221" lon="6.15068">
        <ele>2194.8</ele>
        <time>2021-12-17T10:49:26Z</time>
      </trkpt>
      <trkpt lat="45.28223" lon="6.1506">
        <ele>2195.4</ele>
        <time>2021-12-17T10:49:31Z</time>
      </trkpt>
      <trkpt lat="45.28222" lon="6.15058">
        <ele>2195.6</ele>
        <time>2021-12-17T10:49:32Z</time>
      </trkpt>
      <trkpt lat="45.28221" lon="6.15053">
        <ele>2196.4</ele>
        <time>2021-12-17T10:49:36Z</time>
      </trkpt>
      <trkpt lat="45.28221" lon="6.15051">
        <ele>2196.6</ele>
        <time>2021-12-17T10:49:38Z</time>
      </trkpt>
      <trkpt lat="45.28222" lon="6.15044">
        <ele>2197.4</ele>
        <time>2021-12-17T10:49:42Z</time>
      </trkpt>
      <trkpt lat="45.28222" lon="6.15041">
        <ele>2197.8</ele>
        <time>2021-12-17T10:49:44Z</time>
      </trkpt>
      <trkpt lat="45.28222" lon="6.15035">
        <ele>2198.8</ele>
        <time>2021-12-17T10:49:49Z</time>
      </trkpt>
      <trkpt lat="45.28225" lon="6.15024">
        <ele>2199.8</ele>
        <time>2021-12-17T10:49:55Z</time>
      </trkpt>
      <trkpt lat="45.28225" lon="6.15021">
        <ele>2200</ele>
        <time>2021-12-17T10:49:57Z</time>
      </trkpt>
      <trkpt lat="45.28225" lon="6.15017">
        <ele>2201</ele>
        <time>2021-12-17T10:50:01Z</time>
      </trkpt>
      <trkpt lat="45.28226" lon="6.15014">
        <ele>2201.6</ele>
        <time>2021-12-17T10:50:03Z</time>
      </trkpt>
      <trkpt lat="45.28224" lon="6.1501">
        <ele>2202</ele>
        <time>2021-12-17T10:50:05Z</time>
      </trkpt>
      <trkpt lat="45.28226" lon="6.15003">
        <ele>2203.2</ele>
        <time>2021-12-17T10:50:09Z</time>
      </trkpt>
      <trkpt lat="45.28226" lon="6.15002">
        <ele>2203.2</ele>
        <time>2021-12-17T10:50:10Z</time>
      </trkpt>
      <trkpt lat="45.28227" lon="6.15">
        <ele>2203.4</ele>
        <time>2021-12-17T10:50:12Z</time>
      </trkpt>
      <trkpt lat="45.28227" lon="6.15002">
        <ele>2204.2</ele>
        <time>2021-12-17T10:50:15Z</time>
      </trkpt>
      <trkpt lat="45.28226" lon="6.15003">
        <ele>2204.6</ele>
        <time>2021-12-17T10:50:16Z</time>
      </trkpt>
      <trkpt lat="45.28224" lon="6.15005">
        <ele>2205.2</ele>
        <time>2021-12-17T10:50:18Z</time>
      </trkpt>
      <trkpt lat="45.2822" lon="6.15008">
        <ele>2206</ele>
        <time>2021-12-17T10:50:22Z</time>
      </trkpt>
      <trkpt lat="45.28219" lon="6.1501">
        <ele>2206.4</ele>
        <time>2021-12-17T10:50:24Z</time>
      </trkpt>
      <trkpt lat="45.28215" lon="6.15015">
        <ele>2207.4</ele>
        <time>2021-12-17T10:50:30Z</time>
      </trkpt>
      <trkpt lat="45.28215" lon="6.15017">
        <ele>2208</ele>
        <time>2021-12-17T10:50:33Z</time>
      </trkpt>
      <trkpt lat="45.28211" lon="6.15018">
        <ele>2208.4</ele>
        <time>2021-12-17T10:50:35Z</time>
      </trkpt>
      <trkpt lat="45.28209" lon="6.15019">
        <ele>2208.8</ele>
        <time>2021-12-17T10:50:36Z</time>
      </trkpt>
      <trkpt lat="45.28205" lon="6.15023">
        <ele>2209.6</ele>
        <time>2021-12-17T10:50:41Z</time>
      </trkpt>
      <trkpt lat="45.28202" lon="6.15024">
        <ele>2210.4</ele>
        <time>2021-12-17T10:50:45Z</time>
      </trkpt>
      <trkpt lat="45.28199" lon="6.15017">
        <ele>2210.8</ele>
        <time>2021-12-17T10:50:51Z</time>
      </trkpt>
      <trkpt lat="45.28199" lon="6.15011">
        <ele>2211.6</ele>
        <time>2021-12-17T10:50:56Z</time>
      </trkpt>
      <trkpt lat="45.28199" lon="6.15008">
        <ele>2211.8</ele>
        <time>2021-12-17T10:50:58Z</time>
      </trkpt>
      <trkpt lat="45.28198" lon="6.15001">
        <ele>2213</ele>
        <time>2021-12-17T10:51:03Z</time>
      </trkpt>
      <trkpt lat="45.28199" lon="6.14999">
        <ele>2213.2</ele>
        <time>2021-12-17T10:51:04Z</time>
      </trkpt>
      <trkpt lat="45.28199" lon="6.14992">
        <ele>2214.2</ele>
        <time>2021-12-17T10:51:09Z</time>
      </trkpt>
      <trkpt lat="45.28201" lon="6.14988">
        <ele>2214.4</ele>
        <time>2021-12-17T10:51:11Z</time>
      </trkpt>
      <trkpt lat="45.28202" lon="6.14981">
        <ele>2215.2</ele>
        <time>2021-12-17T10:51:17Z</time>
      </trkpt>
      <trkpt lat="45.28203" lon="6.14978">
        <ele>2215.4</ele>
        <time>2021-12-17T10:51:19Z</time>
      </trkpt>
      <trkpt lat="45.28205" lon="6.14981">
        <ele>2216.2</ele>
        <time>2021-12-17T10:51:22Z</time>
      </trkpt>
      <trkpt lat="45.28209" lon="6.14981">
        <ele>2216.4</ele>
        <time>2021-12-17T10:51:25Z</time>
      </trkpt>
      <trkpt lat="45.2821" lon="6.14974">
        <ele>2217</ele>
        <time>2021-12-17T10:51:34Z</time>
      </trkpt>
      <trkpt lat="45.28211" lon="6.14972">
        <ele>2217.4</ele>
        <time>2021-12-17T10:51:36Z</time>
      </trkpt>
      <trkpt lat="45.28211" lon="6.14971">
        <ele>2217.4</ele>
        <time>2021-12-17T10:51:37Z</time>
      </trkpt>
      <trkpt lat="45.28214" lon="6.14968">
        <ele>2217.8</ele>
        <time>2021-12-17T10:51:40Z</time>
      </trkpt>
      <trkpt lat="45.28214" lon="6.14961">
        <ele>2218.6</ele>
        <time>2021-12-17T10:51:43Z</time>
      </trkpt>
      <trkpt lat="45.28216" lon="6.14955">
        <ele>2219.6</ele>
        <time>2021-12-17T10:51:48Z</time>
      </trkpt>
      <trkpt lat="45.28216" lon="6.14955">
        <ele>2219.6</ele>
        <time>2021-12-17T10:51:49Z</time>
      </trkpt>
      <trkpt lat="45.28217" lon="6.14955">
        <ele>2220</ele>
        <time>2021-12-17T10:51:54Z</time>
      </trkpt>
      <trkpt lat="45.28219" lon="6.14957">
        <ele>2220.4</ele>
        <time>2021-12-17T10:52:01Z</time>
      </trkpt>
      <trkpt lat="45.28219" lon="6.1496">
        <ele>2220.6</ele>
        <time>2021-12-17T10:52:03Z</time>
      </trkpt>
      <trkpt lat="45.28218" lon="6.1496">
        <ele>2220.6</ele>
        <time>2021-12-17T10:52:08Z</time>
      </trkpt>
      <trkpt lat="45.28218" lon="6.1496">
        <ele>2220.2</ele>
        <time>2021-12-17T10:52:11Z</time>
      </trkpt>
      <trkpt lat="45.28218" lon="6.1496">
        <ele>2219.6</ele>
        <time>2021-12-17T10:52:16Z</time>
      </trkpt>
      <trkpt lat="45.28218" lon="6.1496">
        <ele>2220.8</ele>
        <time>2021-12-17T10:52:26Z</time>
      </trkpt>
      <trkpt lat="45.28218" lon="6.1496">
        <ele>2220.6</ele>
        <time>2021-12-17T10:52:34Z</time>
      </trkpt>
      <trkpt lat="45.28214" lon="6.1496">
        <ele>2219.8</ele>
        <time>2021-12-17T10:53:14Z</time>
      </trkpt>
      <trkpt lat="45.28216" lon="6.1496">
        <ele>2221</ele>
        <time>2021-12-17T10:53:27Z</time>
      </trkpt>
      <trkpt lat="45.28214" lon="6.14957">
        <ele>2221</ele>
        <time>2021-12-17T10:53:57Z</time>
      </trkpt>
      <trkpt lat="45.28212" lon="6.14955">
        <ele>2221</ele>
        <time>2021-12-17T10:53:59Z</time>
      </trkpt>
      <trkpt lat="45.28211" lon="6.14951">
        <ele>2220.6</ele>
        <time>2021-12-17T10:54:02Z</time>
      </trkpt>
      <trkpt lat="45.28212" lon="6.1495">
        <ele>2220.4</ele>
        <time>2021-12-17T10:54:03Z</time>
      </trkpt>
      <trkpt lat="45.28212" lon="6.14946">
        <ele>2219.8</ele>
        <time>2021-12-17T10:54:05Z</time>
      </trkpt>
      <trkpt lat="45.28213" lon="6.14941">
        <ele>2220.2</ele>
        <time>2021-12-17T10:54:09Z</time>
      </trkpt>
      <trkpt lat="45.28212" lon="6.14938">
        <ele>2221</ele>
        <time>2021-12-17T10:54:13Z</time>
      </trkpt>
      <trkpt lat="45.2821" lon="6.14937">
        <ele>2221.4</ele>
        <time>2021-12-17T10:54:15Z</time>
      </trkpt>
      <trkpt lat="45.28208" lon="6.14938">
        <ele>2222</ele>
        <time>2021-12-17T10:54:17Z</time>
      </trkpt>
      <trkpt lat="45.28204" lon="6.14939">
        <ele>2222.6</ele>
        <time>2021-12-17T10:54:20Z</time>
      </trkpt>
      <trkpt lat="45.28203" lon="6.14939">
        <ele>2222.8</ele>
        <time>2021-12-17T10:54:21Z</time>
      </trkpt>
      <trkpt lat="45.28201" lon="6.1494">
        <ele>2223</ele>
        <time>2021-12-17T10:54:22Z</time>
      </trkpt>
      <trkpt lat="45.28193" lon="6.14943">
        <ele>2224.2</ele>
        <time>2021-12-17T10:54:28Z</time>
      </trkpt>
      <trkpt lat="45.28194" lon="6.14939">
        <ele>2224.8</ele>
        <time>2021-12-17T10:54:31Z</time>
      </trkpt>
      <trkpt lat="45.28194" lon="6.14936">
        <ele>2225.2</ele>
        <time>2021-12-17T10:54:33Z</time>
      </trkpt>
      <trkpt lat="45.28196" lon="6.14929">
        <ele>2225.4</ele>
        <time>2021-12-17T10:54:38Z</time>
      </trkpt>
      <trkpt lat="45.28198" lon="6.14922">
        <ele>2226.2</ele>
        <time>2021-12-17T10:54:42Z</time>
      </trkpt>
      <trkpt lat="45.282" lon="6.14916">
        <ele>2226.8</ele>
        <time>2021-12-17T10:54:45Z</time>
      </trkpt>
      <trkpt lat="45.28202" lon="6.1491">
        <ele>2227.2</ele>
        <time>2021-12-17T10:54:49Z</time>
      </trkpt>
      <trkpt lat="45.28205" lon="6.14907">
        <ele>2227.8</ele>
        <time>2021-12-17T10:54:53Z</time>
      </trkpt>
      <trkpt lat="45.28208" lon="6.14905">
        <ele>2228.6</ele>
        <time>2021-12-17T10:54:56Z</time>
      </trkpt>
      <trkpt lat="45.2821" lon="6.14903">
        <ele>2229.2</ele>
        <time>2021-12-17T10:54:59Z</time>
      </trkpt>
      <trkpt lat="45.28212" lon="6.149">
        <ele>2229.8</ele>
        <time>2021-12-17T10:55:02Z</time>
      </trkpt>
      <trkpt lat="45.28214" lon="6.14899">
        <ele>2230.8</ele>
        <time>2021-12-17T10:55:06Z</time>
      </trkpt>
      <trkpt lat="45.28213" lon="6.14894">
        <ele>2232</ele>
        <time>2021-12-17T10:55:11Z</time>
      </trkpt>
      <trkpt lat="45.28212" lon="6.14894">
        <ele>2232.2</ele>
        <time>2021-12-17T10:55:12Z</time>
      </trkpt>
      <trkpt lat="45.28209" lon="6.14897">
        <ele>2233</ele>
        <time>2021-12-17T10:55:16Z</time>
      </trkpt>
      <trkpt lat="45.28207" lon="6.14897">
        <ele>2233.6</ele>
        <time>2021-12-17T10:55:19Z</time>
      </trkpt>
      <trkpt lat="45.28206" lon="6.14896">
        <ele>2233.8</ele>
        <time>2021-12-17T10:55:20Z</time>
      </trkpt>
      <trkpt lat="45.28204" lon="6.14896">
        <ele>2234.2</ele>
        <time>2021-12-17T10:55:22Z</time>
      </trkpt>
      <trkpt lat="45.28202" lon="6.14896">
        <ele>2234.4</ele>
        <time>2021-12-17T10:55:24Z</time>
      </trkpt>
      <trkpt lat="45.28198" lon="6.14895">
        <ele>2235.2</ele>
        <time>2021-12-17T10:55:28Z</time>
      </trkpt>
      <trkpt lat="45.28196" lon="6.14892">
        <ele>2236</ele>
        <time>2021-12-17T10:55:32Z</time>
      </trkpt>
      <trkpt lat="45.28194" lon="6.14892">
        <ele>2236.4</ele>
        <time>2021-12-17T10:55:34Z</time>
      </trkpt>
      <trkpt lat="45.2819" lon="6.14891">
        <ele>2237.4</ele>
        <time>2021-12-17T10:55:40Z</time>
      </trkpt>
      <trkpt lat="45.28186" lon="6.1489">
        <ele>2238.6</ele>
        <time>2021-12-17T10:55:45Z</time>
      </trkpt>
      <trkpt lat="45.28186" lon="6.14888">
        <ele>2238.8</ele>
        <time>2021-12-17T10:55:47Z</time>
      </trkpt>
      <trkpt lat="45.28188" lon="6.1488">
        <ele>2239.6</ele>
        <time>2021-12-17T10:55:52Z</time>
      </trkpt>
      <trkpt lat="45.28188" lon="6.14879">
        <ele>2239.8</ele>
        <time>2021-12-17T10:55:53Z</time>
      </trkpt>
      <trkpt lat="45.28189" lon="6.14878">
        <ele>2240.2</ele>
        <time>2021-12-17T10:55:54Z</time>
      </trkpt>
      <trkpt lat="45.28195" lon="6.14869">
        <ele>2240.8</ele>
        <time>2021-12-17T10:56:01Z</time>
      </trkpt>
      <trkpt lat="45.28197" lon="6.14866">
        <ele>2241.4</ele>
        <time>2021-12-17T10:56:05Z</time>
      </trkpt>
      <trkpt lat="45.28198" lon="6.14861">
        <ele>2242</ele>
        <time>2021-12-17T10:56:08Z</time>
      </trkpt>
      <trkpt lat="45.28198" lon="6.14856">
        <ele>2243.2</ele>
        <time>2021-12-17T10:56:11Z</time>
      </trkpt>
      <trkpt lat="45.28199" lon="6.14853">
        <ele>2243.4</ele>
        <time>2021-12-17T10:56:12Z</time>
      </trkpt>
      <trkpt lat="45.282" lon="6.1485">
        <ele>2243.8</ele>
        <time>2021-12-17T10:56:14Z</time>
      </trkpt>
      <trkpt lat="45.282" lon="6.14846">
        <ele>2244</ele>
        <time>2021-12-17T10:56:16Z</time>
      </trkpt>
      <trkpt lat="45.28202" lon="6.14845">
        <ele>2244.2</ele>
        <time>2021-12-17T10:56:18Z</time>
      </trkpt>
      <trkpt lat="45.28203" lon="6.14844">
        <ele>2244.4</ele>
        <time>2021-12-17T10:56:19Z</time>
      </trkpt>
      <trkpt lat="45.28205" lon="6.14841">
        <ele>2244.6</ele>
        <time>2021-12-17T10:56:20Z</time>
      </trkpt>
      <trkpt lat="45.28206" lon="6.14837">
        <ele>2245.4</ele>
        <time>2021-12-17T10:56:23Z</time>
      </trkpt>
      <trkpt lat="45.28207" lon="6.14834">
        <ele>2245.4</ele>
        <time>2021-12-17T10:56:25Z</time>
      </trkpt>
      <trkpt lat="45.28208" lon="6.14827">
        <ele>2246.8</ele>
        <time>2021-12-17T10:56:31Z</time>
      </trkpt>
      <trkpt lat="45.28208" lon="6.14822">
        <ele>2247.8</ele>
        <time>2021-12-17T10:56:35Z</time>
      </trkpt>
      <trkpt lat="45.28208" lon="6.1482">
        <ele>2248.2</ele>
        <time>2021-12-17T10:56:37Z</time>
      </trkpt>
      <trkpt lat="45.28208" lon="6.14814">
        <ele>2249</ele>
        <time>2021-12-17T10:56:41Z</time>
      </trkpt>
      <trkpt lat="45.28209" lon="6.14808">
        <ele>2249.8</ele>
        <time>2021-12-17T10:56:46Z</time>
      </trkpt>
      <trkpt lat="45.28211" lon="6.14803">
        <ele>2250.4</ele>
        <time>2021-12-17T10:56:49Z</time>
      </trkpt>
      <trkpt lat="45.28212" lon="6.14798">
        <ele>2251.2</ele>
        <time>2021-12-17T10:56:53Z</time>
      </trkpt>
      <trkpt lat="45.28213" lon="6.14797">
        <ele>2251.4</ele>
        <time>2021-12-17T10:56:54Z</time>
      </trkpt>
      <trkpt lat="45.28214" lon="6.14794">
        <ele>2252</ele>
        <time>2021-12-17T10:56:59Z</time>
      </trkpt>
      <trkpt lat="45.28214" lon="6.14793">
        <ele>2252.4</ele>
        <time>2021-12-17T10:57:00Z</time>
      </trkpt>
      <trkpt lat="45.28217" lon="6.14788">
        <ele>2253.6</ele>
        <time>2021-12-17T10:57:05Z</time>
      </trkpt>
      <trkpt lat="45.2822" lon="6.14786">
        <ele>2254.2</ele>
        <time>2021-12-17T10:57:08Z</time>
      </trkpt>
      <trkpt lat="45.2822" lon="6.14784">
        <ele>2254.6</ele>
        <time>2021-12-17T10:57:10Z</time>
      </trkpt>
      <trkpt lat="45.28222" lon="6.14779">
        <ele>2256</ele>
        <time>2021-12-17T10:57:15Z</time>
      </trkpt>
      <trkpt lat="45.28222" lon="6.14774">
        <ele>2257.2</ele>
        <time>2021-12-17T10:57:18Z</time>
      </trkpt>
      <trkpt lat="45.28221" lon="6.14774">
        <ele>2257.2</ele>
        <time>2021-12-17T10:57:19Z</time>
      </trkpt>
      <trkpt lat="45.28221" lon="6.14776">
        <ele>2257.8</ele>
        <time>2021-12-17T10:57:21Z</time>
      </trkpt>
      <trkpt lat="45.28221" lon="6.14776">
        <ele>2258.4</ele>
        <time>2021-12-17T10:57:22Z</time>
      </trkpt>
      <trkpt lat="45.28218" lon="6.14778">
        <ele>2259.4</ele>
        <time>2021-12-17T10:57:26Z</time>
      </trkpt>
      <trkpt lat="45.28216" lon="6.14779">
        <ele>2260</ele>
        <time>2021-12-17T10:57:29Z</time>
      </trkpt>
      <trkpt lat="45.28211" lon="6.14781">
        <ele>2260.6</ele>
        <time>2021-12-17T10:57:35Z</time>
      </trkpt>
      <trkpt lat="45.28211" lon="6.14781">
        <ele>2260.8</ele>
        <time>2021-12-17T10:57:36Z</time>
      </trkpt>
      <trkpt lat="45.28208" lon="6.14782">
        <ele>2261.4</ele>
        <time>2021-12-17T10:57:39Z</time>
      </trkpt>
      <trkpt lat="45.28208" lon="6.14784">
        <ele>2261.8</ele>
        <time>2021-12-17T10:57:41Z</time>
      </trkpt>
      <trkpt lat="45.28207" lon="6.14785">
        <ele>2262.2</ele>
        <time>2021-12-17T10:57:42Z</time>
      </trkpt>
      <trkpt lat="45.28201" lon="6.1479">
        <ele>2262.8</ele>
        <time>2021-12-17T10:57:47Z</time>
      </trkpt>
      <trkpt lat="45.28195" lon="6.14793">
        <ele>2263.4</ele>
        <time>2021-12-17T10:57:50Z</time>
      </trkpt>
      <trkpt lat="45.28195" lon="6.14794">
        <ele>2264.2</ele>
        <time>2021-12-17T10:57:54Z</time>
      </trkpt>
      <trkpt lat="45.28192" lon="6.14795">
        <ele>2264.8</ele>
        <time>2021-12-17T10:57:57Z</time>
      </trkpt>
      <trkpt lat="45.2819" lon="6.14795">
        <ele>2265.4</ele>
        <time>2021-12-17T10:57:59Z</time>
      </trkpt>
      <trkpt lat="45.28185" lon="6.14797">
        <ele>2266</ele>
        <time>2021-12-17T10:58:04Z</time>
      </trkpt>
      <trkpt lat="45.28182" lon="6.14798">
        <ele>2266.4</ele>
        <time>2021-12-17T10:58:06Z</time>
      </trkpt>
      <trkpt lat="45.28178" lon="6.14801">
        <ele>2267</ele>
        <time>2021-12-17T10:58:11Z</time>
      </trkpt>
      <trkpt lat="45.28179" lon="6.14797">
        <ele>2267.4</ele>
        <time>2021-12-17T10:58:14Z</time>
      </trkpt>
      <trkpt lat="45.2818" lon="6.14794">
        <ele>2267.6</ele>
        <time>2021-12-17T10:58:16Z</time>
      </trkpt>
      <trkpt lat="45.28182" lon="6.14782">
        <ele>2268.6</ele>
        <time>2021-12-17T10:58:23Z</time>
      </trkpt>
      <trkpt lat="45.28184" lon="6.14773">
        <ele>2269.6</ele>
        <time>2021-12-17T10:58:29Z</time>
      </trkpt>
      <trkpt lat="45.28186" lon="6.14769">
        <ele>2270.6</ele>
        <time>2021-12-17T10:58:33Z</time>
      </trkpt>
      <trkpt lat="45.28187" lon="6.14765">
        <ele>2271.2</ele>
        <time>2021-12-17T10:58:35Z</time>
      </trkpt>
      <trkpt lat="45.28189" lon="6.14761">
        <ele>2272</ele>
        <time>2021-12-17T10:58:39Z</time>
      </trkpt>
      <trkpt lat="45.2819" lon="6.14759">
        <ele>2272.2</ele>
        <time>2021-12-17T10:58:41Z</time>
      </trkpt>
      <trkpt lat="45.2819" lon="6.14757">
        <ele>2273</ele>
        <time>2021-12-17T10:58:43Z</time>
      </trkpt>
      <trkpt lat="45.28189" lon="6.14751">
        <ele>2274</ele>
        <time>2021-12-17T10:58:47Z</time>
      </trkpt>
      <trkpt lat="45.28193" lon="6.14745">
        <ele>2275.2</ele>
        <time>2021-12-17T10:58:54Z</time>
      </trkpt>
      <trkpt lat="45.28194" lon="6.14744">
        <ele>2275.2</ele>
        <time>2021-12-17T10:58:55Z</time>
      </trkpt>
      <trkpt lat="45.28193" lon="6.1474">
        <ele>2276.2</ele>
        <time>2021-12-17T10:58:59Z</time>
      </trkpt>
      <trkpt lat="45.28193" lon="6.14739">
        <ele>2276.4</ele>
        <time>2021-12-17T10:59:00Z</time>
      </trkpt>
      <trkpt lat="45.28196" lon="6.14734">
        <ele>2277.4</ele>
        <time>2021-12-17T10:59:05Z</time>
      </trkpt>
      <trkpt lat="45.28198" lon="6.14732">
        <ele>2278.4</ele>
        <time>2021-12-17T10:59:08Z</time>
      </trkpt>
      <trkpt lat="45.28199" lon="6.14733">
        <ele>2278.6</ele>
        <time>2021-12-17T10:59:09Z</time>
      </trkpt>
      <trkpt lat="45.28198" lon="6.14736">
        <ele>2279.2</ele>
        <time>2021-12-17T10:59:12Z</time>
      </trkpt>
      <trkpt lat="45.28196" lon="6.14739">
        <ele>2279.6</ele>
        <time>2021-12-17T10:59:14Z</time>
      </trkpt>
      <trkpt lat="45.28192" lon="6.14743">
        <ele>2280.2</ele>
        <time>2021-12-17T10:59:18Z</time>
      </trkpt>
      <trkpt lat="45.28188" lon="6.14746">
        <ele>2280.8</ele>
        <time>2021-12-17T10:59:22Z</time>
      </trkpt>
      <trkpt lat="45.28186" lon="6.14749">
        <ele>2281.6</ele>
        <time>2021-12-17T10:59:25Z</time>
      </trkpt>
      <trkpt lat="45.28185" lon="6.1475">
        <ele>2281.6</ele>
        <time>2021-12-17T10:59:26Z</time>
      </trkpt>
      <trkpt lat="45.28184" lon="6.1475">
        <ele>2281.8</ele>
        <time>2021-12-17T10:59:27Z</time>
      </trkpt>
      <trkpt lat="45.28178" lon="6.14752">
        <ele>2282.6</ele>
        <time>2021-12-17T10:59:33Z</time>
      </trkpt>
      <trkpt lat="45.28176" lon="6.14754">
        <ele>2282.8</ele>
        <time>2021-12-17T10:59:35Z</time>
      </trkpt>
      <trkpt lat="45.28174" lon="6.14755">
        <ele>2283.2</ele>
        <time>2021-12-17T10:59:37Z</time>
      </trkpt>
      <trkpt lat="45.28168" lon="6.14757">
        <ele>2283.8</ele>
        <time>2021-12-17T10:59:41Z</time>
      </trkpt>
      <trkpt lat="45.28167" lon="6.14757">
        <ele>2284</ele>
        <time>2021-12-17T10:59:42Z</time>
      </trkpt>
      <trkpt lat="45.28166" lon="6.14758">
        <ele>2284.2</ele>
        <time>2021-12-17T10:59:43Z</time>
      </trkpt>
      <trkpt lat="45.28163" lon="6.14759">
        <ele>2284.8</ele>
        <time>2021-12-17T10:59:47Z</time>
      </trkpt>
      <trkpt lat="45.28161" lon="6.1476">
        <ele>2285.2</ele>
        <time>2021-12-17T10:59:49Z</time>
      </trkpt>
      <trkpt lat="45.28158" lon="6.14762">
        <ele>2286</ele>
        <time>2021-12-17T10:59:53Z</time>
      </trkpt>
      <trkpt lat="45.28156" lon="6.14764">
        <ele>2286.4</ele>
        <time>2021-12-17T10:59:55Z</time>
      </trkpt>
      <trkpt lat="45.28155" lon="6.14761">
        <ele>2287</ele>
        <time>2021-12-17T10:59:59Z</time>
      </trkpt>
      <trkpt lat="45.28157" lon="6.14755">
        <ele>2287.6</ele>
        <time>2021-12-17T11:00:04Z</time>
      </trkpt>
      <trkpt lat="45.28157" lon="6.14753">
        <ele>2287.8</ele>
        <time>2021-12-17T11:00:05Z</time>
      </trkpt>
      <trkpt lat="45.28157" lon="6.1474">
        <ele>2288.6</ele>
        <time>2021-12-17T11:00:11Z</time>
      </trkpt>
      <trkpt lat="45.28161" lon="6.14734">
        <ele>2289.8</ele>
        <time>2021-12-17T11:00:16Z</time>
      </trkpt>
      <trkpt lat="45.28162" lon="6.14728">
        <ele>2290.6</ele>
        <time>2021-12-17T11:00:20Z</time>
      </trkpt>
      <trkpt lat="45.28163" lon="6.14728">
        <ele>2291</ele>
        <time>2021-12-17T11:00:21Z</time>
      </trkpt>
      <trkpt lat="45.28167" lon="6.14722">
        <ele>2292</ele>
        <time>2021-12-17T11:00:26Z</time>
      </trkpt>
      <trkpt lat="45.28169" lon="6.1472">
        <ele>2292.6</ele>
        <time>2021-12-17T11:00:29Z</time>
      </trkpt>
      <trkpt lat="45.28169" lon="6.14718">
        <ele>2293</ele>
        <time>2021-12-17T11:00:30Z</time>
      </trkpt>
      <trkpt lat="45.2817" lon="6.1472">
        <ele>2293.8</ele>
        <time>2021-12-17T11:00:35Z</time>
      </trkpt>
      <trkpt lat="45.28167" lon="6.14723">
        <ele>2294.2</ele>
        <time>2021-12-17T11:00:38Z</time>
      </trkpt>
      <trkpt lat="45.28165" lon="6.14724">
        <ele>2295</ele>
        <time>2021-12-17T11:00:41Z</time>
      </trkpt>
      <trkpt lat="45.28162" lon="6.14725">
        <ele>2295.6</ele>
        <time>2021-12-17T11:00:44Z</time>
      </trkpt>
      <trkpt lat="45.28157" lon="6.14729">
        <ele>2296.4</ele>
        <time>2021-12-17T11:00:49Z</time>
      </trkpt>
      <trkpt lat="45.28157" lon="6.14728">
        <ele>2296.6</ele>
        <time>2021-12-17T11:00:50Z</time>
      </trkpt>
      <trkpt lat="45.2816" lon="6.14723">
        <ele>2297.2</ele>
        <time>2021-12-17T11:00:54Z</time>
      </trkpt>
      <trkpt lat="45.28162" lon="6.14719">
        <ele>2297.8</ele>
        <time>2021-12-17T11:00:57Z</time>
      </trkpt>
      <trkpt lat="45.28164" lon="6.14715">
        <ele>2298.4</ele>
        <time>2021-12-17T11:01:01Z</time>
      </trkpt>
      <trkpt lat="45.28165" lon="6.14713">
        <ele>2298.8</ele>
        <time>2021-12-17T11:01:03Z</time>
      </trkpt>
      <trkpt lat="45.28168" lon="6.14707">
        <ele>2299.8</ele>
        <time>2021-12-17T11:01:08Z</time>
      </trkpt>
      <trkpt lat="45.28168" lon="6.14706">
        <ele>2300.2</ele>
        <time>2021-12-17T11:01:09Z</time>
      </trkpt>
      <trkpt lat="45.28169" lon="6.14701">
        <ele>2301</ele>
        <time>2021-12-17T11:01:13Z</time>
      </trkpt>
      <trkpt lat="45.28173" lon="6.14693">
        <ele>2302</ele>
        <time>2021-12-17T11:01:19Z</time>
      </trkpt>
      <trkpt lat="45.28173" lon="6.14692">
        <ele>2302</ele>
        <time>2021-12-17T11:01:20Z</time>
      </trkpt>
      <trkpt lat="45.28173" lon="6.1469">
        <ele>2303.2</ele>
        <time>2021-12-17T11:01:24Z</time>
      </trkpt>
      <trkpt lat="45.28174" lon="6.14691">
        <ele>2303.4</ele>
        <time>2021-12-17T11:01:26Z</time>
      </trkpt>
      <trkpt lat="45.28172" lon="6.14693">
        <ele>2304.4</ele>
        <time>2021-12-17T11:01:31Z</time>
      </trkpt>
      <trkpt lat="45.28168" lon="6.14697">
        <ele>2305.4</ele>
        <time>2021-12-17T11:01:36Z</time>
      </trkpt>
      <trkpt lat="45.28167" lon="6.14697">
        <ele>2305.6</ele>
        <time>2021-12-17T11:01:37Z</time>
      </trkpt>
      <trkpt lat="45.28164" lon="6.14699">
        <ele>2306.4</ele>
        <time>2021-12-17T11:01:40Z</time>
      </trkpt>
      <trkpt lat="45.2816" lon="6.14701">
        <ele>2307.4</ele>
        <time>2021-12-17T11:01:44Z</time>
      </trkpt>
      <trkpt lat="45.28159" lon="6.14701">
        <ele>2307.6</ele>
        <time>2021-12-17T11:01:45Z</time>
      </trkpt>
      <trkpt lat="45.28156" lon="6.14701">
        <ele>2308.6</ele>
        <time>2021-12-17T11:01:50Z</time>
      </trkpt>
      <trkpt lat="45.28157" lon="6.147">
        <ele>2308.8</ele>
        <time>2021-12-17T11:01:51Z</time>
      </trkpt>
      <trkpt lat="45.2816" lon="6.14692">
        <ele>2309.8</ele>
        <time>2021-12-17T11:01:57Z</time>
      </trkpt>
      <trkpt lat="45.28162" lon="6.14687">
        <ele>2311</ele>
        <time>2021-12-17T11:02:02Z</time>
      </trkpt>
      <trkpt lat="45.28164" lon="6.14685">
        <ele>2311.8</ele>
        <time>2021-12-17T11:02:04Z</time>
      </trkpt>
      <trkpt lat="45.28164" lon="6.14683">
        <ele>2312</ele>
        <time>2021-12-17T11:02:05Z</time>
      </trkpt>
      <trkpt lat="45.28164" lon="6.14682">
        <ele>2313</ele>
        <time>2021-12-17T11:02:11Z</time>
      </trkpt>
      <trkpt lat="45.2816" lon="6.14685">
        <ele>2314.2</ele>
        <time>2021-12-17T11:02:17Z</time>
      </trkpt>
      <trkpt lat="45.28159" lon="6.14686">
        <ele>2314.6</ele>
        <time>2021-12-17T11:02:19Z</time>
      </trkpt>
      <trkpt lat="45.28156" lon="6.14688">
        <ele>2315.4</ele>
        <time>2021-12-17T11:02:23Z</time>
      </trkpt>
      <trkpt lat="45.28154" lon="6.14689">
        <ele>2316</ele>
        <time>2021-12-17T11:02:26Z</time>
      </trkpt>
      <trkpt lat="45.28153" lon="6.14691">
        <ele>2316.8</ele>
        <time>2021-12-17T11:02:28Z</time>
      </trkpt>
      <trkpt lat="45.28151" lon="6.14689">
        <ele>2317.6</ele>
        <time>2021-12-17T11:02:33Z</time>
      </trkpt>
      <trkpt lat="45.28152" lon="6.14689">
        <ele>2317.8</ele>
        <time>2021-12-17T11:02:34Z</time>
      </trkpt>
      <trkpt lat="45.28152" lon="6.14681">
        <ele>2318.6</ele>
        <time>2021-12-17T11:02:39Z</time>
      </trkpt>
      <trkpt lat="45.28152" lon="6.14679">
        <ele>2318.8</ele>
        <time>2021-12-17T11:02:40Z</time>
      </trkpt>
      <trkpt lat="45.28153" lon="6.14671">
        <ele>2320</ele>
        <time>2021-12-17T11:02:45Z</time>
      </trkpt>
      <trkpt lat="45.28154" lon="6.1467">
        <ele>2320.2</ele>
        <time>2021-12-17T11:02:46Z</time>
      </trkpt>
      <trkpt lat="45.28158" lon="6.14664">
        <ele>2321</ele>
        <time>2021-12-17T11:02:51Z</time>
      </trkpt>
      <trkpt lat="45.28159" lon="6.14664">
        <ele>2321.4</ele>
        <time>2021-12-17T11:02:52Z</time>
      </trkpt>
      <trkpt lat="45.28159" lon="6.14661">
        <ele>2322.2</ele>
        <time>2021-12-17T11:02:55Z</time>
      </trkpt>
      <trkpt lat="45.28159" lon="6.14659">
        <ele>2322.6</ele>
        <time>2021-12-17T11:02:57Z</time>
      </trkpt>
      <trkpt lat="45.2816" lon="6.14656">
        <ele>2323.6</ele>
        <time>2021-12-17T11:03:00Z</time>
      </trkpt>
      <trkpt lat="45.28161" lon="6.14655">
        <ele>2324.4</ele>
        <time>2021-12-17T11:03:03Z</time>
      </trkpt>
      <trkpt lat="45.2816" lon="6.14656">
        <ele>2324.6</ele>
        <time>2021-12-17T11:03:04Z</time>
      </trkpt>
      <trkpt lat="45.28159" lon="6.14662">
        <ele>2325.6</ele>
        <time>2021-12-17T11:03:09Z</time>
      </trkpt>
      <trkpt lat="45.28153" lon="6.14666">
        <ele>2327</ele>
        <time>2021-12-17T11:03:15Z</time>
      </trkpt>
      <trkpt lat="45.28152" lon="6.14666">
        <ele>2327.2</ele>
        <time>2021-12-17T11:03:16Z</time>
      </trkpt>
      <trkpt lat="45.28151" lon="6.14667">
        <ele>2327.4</ele>
        <time>2021-12-17T11:03:17Z</time>
      </trkpt>
      <trkpt lat="45.28151" lon="6.14666">
        <ele>2328</ele>
        <time>2021-12-17T11:03:20Z</time>
      </trkpt>
      <trkpt lat="45.28153" lon="6.14664">
        <ele>2328</ele>
        <time>2021-12-17T11:03:21Z</time>
      </trkpt>
      <trkpt lat="45.28157" lon="6.14652">
        <ele>2329.2</ele>
        <time>2021-12-17T11:03:29Z</time>
      </trkpt>
      <trkpt lat="45.28158" lon="6.14647">
        <ele>2330.4</ele>
        <time>2021-12-17T11:03:33Z</time>
      </trkpt>
      <trkpt lat="45.2816" lon="6.14642">
        <ele>2331.2</ele>
        <time>2021-12-17T11:03:37Z</time>
      </trkpt>
      <trkpt lat="45.2816" lon="6.1464">
        <ele>2331.8</ele>
        <time>2021-12-17T11:03:38Z</time>
      </trkpt>
      <trkpt lat="45.28161" lon="6.14635">
        <ele>2332.8</ele>
        <time>2021-12-17T11:03:43Z</time>
      </trkpt>
      <trkpt lat="45.28161" lon="6.14634">
        <ele>2332.8</ele>
        <time>2021-12-17T11:03:44Z</time>
      </trkpt>
      <trkpt lat="45.28162" lon="6.14626">
        <ele>2333.8</ele>
        <time>2021-12-17T11:03:49Z</time>
      </trkpt>
      <trkpt lat="45.28163" lon="6.1462">
        <ele>2334.8</ele>
        <time>2021-12-17T11:03:52Z</time>
      </trkpt>
      <trkpt lat="45.28164" lon="6.14618">
        <ele>2335</ele>
        <time>2021-12-17T11:03:53Z</time>
      </trkpt>
      <trkpt lat="45.28168" lon="6.14616">
        <ele>2336</ele>
        <time>2021-12-17T11:03:58Z</time>
      </trkpt>
      <trkpt lat="45.2817" lon="6.14613">
        <ele>2337.2</ele>
        <time>2021-12-17T11:04:02Z</time>
      </trkpt>
      <trkpt lat="45.28172" lon="6.14612">
        <ele>2337.6</ele>
        <time>2021-12-17T11:04:04Z</time>
      </trkpt>
      <trkpt lat="45.28173" lon="6.1461">
        <ele>2338.4</ele>
        <time>2021-12-17T11:04:06Z</time>
      </trkpt>
      <trkpt lat="45.28175" lon="6.14607">
        <ele>2339</ele>
        <time>2021-12-17T11:04:10Z</time>
      </trkpt>
      <trkpt lat="45.28176" lon="6.14605">
        <ele>2339.6</ele>
        <time>2021-12-17T11:04:12Z</time>
      </trkpt>
      <trkpt lat="45.2818" lon="6.14601">
        <ele>2340.6</ele>
        <time>2021-12-17T11:04:17Z</time>
      </trkpt>
      <trkpt lat="45.28178" lon="6.14599">
        <ele>2340.8</ele>
        <time>2021-12-17T11:04:18Z</time>
      </trkpt>
      <trkpt lat="45.2818" lon="6.14597">
        <ele>2341.4</ele>
        <time>2021-12-17T11:04:20Z</time>
      </trkpt>
      <trkpt lat="45.2818" lon="6.14596">
        <ele>2342.2</ele>
        <time>2021-12-17T11:04:22Z</time>
      </trkpt>
      <trkpt lat="45.2818" lon="6.14598">
        <ele>2342.6</ele>
        <time>2021-12-17T11:04:23Z</time>
      </trkpt>
      <trkpt lat="45.28179" lon="6.14601">
        <ele>2343.2</ele>
        <time>2021-12-17T11:04:25Z</time>
      </trkpt>
      <trkpt lat="45.28177" lon="6.14604">
        <ele>2344.2</ele>
        <time>2021-12-17T11:04:29Z</time>
      </trkpt>
      <trkpt lat="45.28176" lon="6.14605">
        <ele>2344.4</ele>
        <time>2021-12-17T11:04:30Z</time>
      </trkpt>
      <trkpt lat="45.28173" lon="6.14607">
        <ele>2345.6</ele>
        <time>2021-12-17T11:04:34Z</time>
      </trkpt>
      <trkpt lat="45.28172" lon="6.14608">
        <ele>2346.2</ele>
        <time>2021-12-17T11:04:36Z</time>
      </trkpt>
      <trkpt lat="45.28169" lon="6.14612">
        <ele>2346.4</ele>
        <time>2021-12-17T11:04:39Z</time>
      </trkpt>
      <trkpt lat="45.28168" lon="6.14614">
        <ele>2346.6</ele>
        <time>2021-12-17T11:04:40Z</time>
      </trkpt>
      <trkpt lat="45.28163" lon="6.1462">
        <ele>2347.8</ele>
        <time>2021-12-17T11:04:47Z</time>
      </trkpt>
      <trkpt lat="45.28162" lon="6.14621">
        <ele>2348</ele>
        <time>2021-12-17T11:04:48Z</time>
      </trkpt>
      <trkpt lat="45.28162" lon="6.14618">
        <ele>2348.4</ele>
        <time>2021-12-17T11:04:52Z</time>
      </trkpt>
      <trkpt lat="45.28163" lon="6.1461">
        <ele>2349</ele>
        <time>2021-12-17T11:04:56Z</time>
      </trkpt>
      <trkpt lat="45.28165" lon="6.14604">
        <ele>2349.6</ele>
        <time>2021-12-17T11:05:00Z</time>
      </trkpt>
      <trkpt lat="45.28165" lon="6.146">
        <ele>2350</ele>
        <time>2021-12-17T11:05:02Z</time>
      </trkpt>
      <trkpt lat="45.28167" lon="6.14592">
        <ele>2350.8</ele>
        <time>2021-12-17T11:05:08Z</time>
      </trkpt>
      <trkpt lat="45.28167" lon="6.14591">
        <ele>2351.4</ele>
        <time>2021-12-17T11:05:09Z</time>
      </trkpt>
      <trkpt lat="45.28167" lon="6.14584">
        <ele>2352.4</ele>
        <time>2021-12-17T11:05:14Z</time>
      </trkpt>
      <trkpt lat="45.28168" lon="6.14583">
        <ele>2353.2</ele>
        <time>2021-12-17T11:05:16Z</time>
      </trkpt>
      <trkpt lat="45.28169" lon="6.14584">
        <ele>2353.6</ele>
        <time>2021-12-17T11:05:17Z</time>
      </trkpt>
      <trkpt lat="45.28169" lon="6.14588">
        <ele>2354.8</ele>
        <time>2021-12-17T11:05:21Z</time>
      </trkpt>
      <trkpt lat="45.28166" lon="6.1459">
        <ele>2356</ele>
        <time>2021-12-17T11:05:26Z</time>
      </trkpt>
      <trkpt lat="45.28165" lon="6.14591">
        <ele>2356.4</ele>
        <time>2021-12-17T11:05:27Z</time>
      </trkpt>
      <trkpt lat="45.28163" lon="6.14593">
        <ele>2357</ele>
        <time>2021-12-17T11:05:29Z</time>
      </trkpt>
      <trkpt lat="45.28157" lon="6.14598">
        <ele>2358.2</ele>
        <time>2021-12-17T11:05:34Z</time>
      </trkpt>
      <trkpt lat="45.28153" lon="6.14599">
        <ele>2359</ele>
        <time>2021-12-17T11:05:41Z</time>
      </trkpt>
      <trkpt lat="45.28153" lon="6.14598">
        <ele>2359.2</ele>
        <time>2021-12-17T11:05:43Z</time>
      </trkpt>
      <trkpt lat="45.28153" lon="6.14593">
        <ele>2359.8</ele>
        <time>2021-12-17T11:05:47Z</time>
      </trkpt>
      <trkpt lat="45.28153" lon="6.14592">
        <ele>2360.4</ele>
        <time>2021-12-17T11:05:48Z</time>
      </trkpt>
      <trkpt lat="45.28153" lon="6.14582">
        <ele>2361.4</ele>
        <time>2021-12-17T11:05:54Z</time>
      </trkpt>
      <trkpt lat="45.28151" lon="6.14583">
        <ele>2362.6</ele>
        <time>2021-12-17T11:05:59Z</time>
      </trkpt>
      <trkpt lat="45.28151" lon="6.14584">
        <ele>2362.8</ele>
        <time>2021-12-17T11:06:00Z</time>
      </trkpt>
      <trkpt lat="45.28148" lon="6.14588">
        <ele>2363.8</ele>
        <time>2021-12-17T11:06:04Z</time>
      </trkpt>
      <trkpt lat="45.28147" lon="6.14589">
        <ele>2364.2</ele>
        <time>2021-12-17T11:06:06Z</time>
      </trkpt>
      <trkpt lat="45.28146" lon="6.14592">
        <ele>2365</ele>
        <time>2021-12-17T11:06:09Z</time>
      </trkpt>
      <trkpt lat="45.28142" lon="6.14594">
        <ele>2365.8</ele>
        <time>2021-12-17T11:06:13Z</time>
      </trkpt>
      <trkpt lat="45.28142" lon="6.14593">
        <ele>2366</ele>
        <time>2021-12-17T11:06:14Z</time>
      </trkpt>
      <trkpt lat="45.28141" lon="6.14584">
        <ele>2366.8</ele>
        <time>2021-12-17T11:06:19Z</time>
      </trkpt>
      <trkpt lat="45.28142" lon="6.14581">
        <ele>2367</ele>
        <time>2021-12-17T11:06:22Z</time>
      </trkpt>
      <trkpt lat="45.28142" lon="6.14575">
        <ele>2367.8</ele>
        <time>2021-12-17T11:06:25Z</time>
      </trkpt>
      <trkpt lat="45.28142" lon="6.14573">
        <ele>2368.2</ele>
        <time>2021-12-17T11:06:26Z</time>
      </trkpt>
      <trkpt lat="45.28142" lon="6.14561">
        <ele>2369.2</ele>
        <time>2021-12-17T11:06:32Z</time>
      </trkpt>
      <trkpt lat="45.28145" lon="6.14555">
        <ele>2370.6</ele>
        <time>2021-12-17T11:06:37Z</time>
      </trkpt>
      <trkpt lat="45.28148" lon="6.14553">
        <ele>2371.6</ele>
        <time>2021-12-17T11:06:40Z</time>
      </trkpt>
      <trkpt lat="45.28149" lon="6.14552">
        <ele>2371.8</ele>
        <time>2021-12-17T11:06:41Z</time>
      </trkpt>
      <trkpt lat="45.2815" lon="6.14547">
        <ele>2372.6</ele>
        <time>2021-12-17T11:06:46Z</time>
      </trkpt>
      <trkpt lat="45.28149" lon="6.14548">
        <ele>2373</ele>
        <time>2021-12-17T11:06:47Z</time>
      </trkpt>
      <trkpt lat="45.28148" lon="6.14553">
        <ele>2373.4</ele>
        <time>2021-12-17T11:06:50Z</time>
      </trkpt>
      <trkpt lat="45.28146" lon="6.14554">
        <ele>2374.2</ele>
        <time>2021-12-17T11:06:52Z</time>
      </trkpt>
      <trkpt lat="45.28143" lon="6.14555">
        <ele>2375</ele>
        <time>2021-12-17T11:06:55Z</time>
      </trkpt>
      <trkpt lat="45.28142" lon="6.14555">
        <ele>2375.2</ele>
        <time>2021-12-17T11:06:56Z</time>
      </trkpt>
      <trkpt lat="45.28138" lon="6.1456">
        <ele>2376.2</ele>
        <time>2021-12-17T11:07:02Z</time>
      </trkpt>
      <trkpt lat="45.28137" lon="6.14562">
        <ele>2376.4</ele>
        <time>2021-12-17T11:07:03Z</time>
      </trkpt>
      <trkpt lat="45.28136" lon="6.14562">
        <ele>2376.6</ele>
        <time>2021-12-17T11:07:04Z</time>
      </trkpt>
      <trkpt lat="45.28135" lon="6.14563">
        <ele>2377</ele>
        <time>2021-12-17T11:07:05Z</time>
      </trkpt>
      <trkpt lat="45.28135" lon="6.14561">
        <ele>2377.4</ele>
        <time>2021-12-17T11:07:07Z</time>
      </trkpt>
      <trkpt lat="45.28136" lon="6.14558">
        <ele>2377.8</ele>
        <time>2021-12-17T11:07:09Z</time>
      </trkpt>
      <trkpt lat="45.2814" lon="6.14551">
        <ele>2378.6</ele>
        <time>2021-12-17T11:07:14Z</time>
      </trkpt>
      <trkpt lat="45.2814" lon="6.14546">
        <ele>2379</ele>
        <time>2021-12-17T11:07:17Z</time>
      </trkpt>
      <trkpt lat="45.28141" lon="6.14542">
        <ele>2379.6</ele>
        <time>2021-12-17T11:07:20Z</time>
      </trkpt>
      <trkpt lat="45.28144" lon="6.14539">
        <ele>2380.6</ele>
        <time>2021-12-17T11:07:23Z</time>
      </trkpt>
      <trkpt lat="45.28145" lon="6.14538">
        <ele>2380.6</ele>
        <time>2021-12-17T11:07:24Z</time>
      </trkpt>
      <trkpt lat="45.28148" lon="6.14534">
        <ele>2381.6</ele>
        <time>2021-12-17T11:07:28Z</time>
      </trkpt>
      <trkpt lat="45.28149" lon="6.14533">
        <ele>2382</ele>
        <time>2021-12-17T11:07:30Z</time>
      </trkpt>
      <trkpt lat="45.28151" lon="6.14532">
        <ele>2382.8</ele>
        <time>2021-12-17T11:07:33Z</time>
      </trkpt>
      <trkpt lat="45.28155" lon="6.14528">
        <ele>2384</ele>
        <time>2021-12-17T11:07:38Z</time>
      </trkpt>
      <trkpt lat="45.28158" lon="6.14526">
        <ele>2385</ele>
        <time>2021-12-17T11:07:42Z</time>
      </trkpt>
      <trkpt lat="45.2816" lon="6.14525">
        <ele>2385.6</ele>
        <time>2021-12-17T11:07:45Z</time>
      </trkpt>
      <trkpt lat="45.28164" lon="6.14524">
        <ele>2386.2</ele>
        <time>2021-12-17T11:07:48Z</time>
      </trkpt>
      <trkpt lat="45.28168" lon="6.14523">
        <ele>2387.6</ele>
        <time>2021-12-17T11:07:52Z</time>
      </trkpt>
      <trkpt lat="45.2817" lon="6.14523">
        <ele>2388.2</ele>
        <time>2021-12-17T11:07:54Z</time>
      </trkpt>
      <trkpt lat="45.28172" lon="6.14521">
        <ele>2388.6</ele>
        <time>2021-12-17T11:07:57Z</time>
      </trkpt>
      <trkpt lat="45.28173" lon="6.14521">
        <ele>2389</ele>
        <time>2021-12-17T11:07:59Z</time>
      </trkpt>
      <trkpt lat="45.28175" lon="6.14519">
        <ele>2389.6</ele>
        <time>2021-12-17T11:08:02Z</time>
      </trkpt>
      <trkpt lat="45.28176" lon="6.14518">
        <ele>2390</ele>
        <time>2021-12-17T11:08:03Z</time>
      </trkpt>
      <trkpt lat="45.28177" lon="6.14518">
        <ele>2390.8</ele>
        <time>2021-12-17T11:08:06Z</time>
      </trkpt>
      <trkpt lat="45.28178" lon="6.14518">
        <ele>2390.8</ele>
        <time>2021-12-17T11:08:07Z</time>
      </trkpt>
      <trkpt lat="45.28179" lon="6.14518">
        <ele>2392</ele>
        <time>2021-12-17T11:08:11Z</time>
      </trkpt>
      <trkpt lat="45.28181" lon="6.14516">
        <ele>2393.2</ele>
        <time>2021-12-17T11:08:16Z</time>
      </trkpt>
      <trkpt lat="45.28181" lon="6.14516">
        <ele>2393.4</ele>
        <time>2021-12-17T11:08:17Z</time>
      </trkpt>
      <trkpt lat="45.28181" lon="6.14518">
        <ele>2394.4</ele>
        <time>2021-12-17T11:08:19Z</time>
      </trkpt>
      <trkpt lat="45.28177" lon="6.14517">
        <ele>2395.2</ele>
        <time>2021-12-17T11:08:23Z</time>
      </trkpt>
      <trkpt lat="45.28176" lon="6.14516">
        <ele>2395.6</ele>
        <time>2021-12-17T11:08:25Z</time>
      </trkpt>
      <trkpt lat="45.28175" lon="6.14515">
        <ele>2396</ele>
        <time>2021-12-17T11:08:26Z</time>
      </trkpt>
      <trkpt lat="45.28174" lon="6.14515">
        <ele>2396.2</ele>
        <time>2021-12-17T11:08:28Z</time>
      </trkpt>
      <trkpt lat="45.28173" lon="6.14513">
        <ele>2396.8</ele>
        <time>2021-12-17T11:08:30Z</time>
      </trkpt>
      <trkpt lat="45.2817" lon="6.14508">
        <ele>2397.4</ele>
        <time>2021-12-17T11:08:36Z</time>
      </trkpt>
      <trkpt lat="45.28167" lon="6.14501">
        <ele>2397.8</ele>
        <time>2021-12-17T11:08:42Z</time>
      </trkpt>
      <trkpt lat="45.28166" lon="6.14497">
        <ele>2399</ele>
        <time>2021-12-17T11:08:46Z</time>
      </trkpt>
      <trkpt lat="45.28165" lon="6.14487">
        <ele>2400</ele>
        <time>2021-12-17T11:08:53Z</time>
      </trkpt>
      <trkpt lat="45.28165" lon="6.14485">
        <ele>2400.4</ele>
        <time>2021-12-17T11:08:54Z</time>
      </trkpt>
      <trkpt lat="45.28164" lon="6.14481">
        <ele>2401</ele>
        <time>2021-12-17T11:08:58Z</time>
      </trkpt>
      <trkpt lat="45.28163" lon="6.14477">
        <ele>2401.4</ele>
        <time>2021-12-17T11:09:01Z</time>
      </trkpt>
      <trkpt lat="45.28161" lon="6.14471">
        <ele>2401.6</ele>
        <time>2021-12-17T11:09:07Z</time>
      </trkpt>
      <trkpt lat="45.2816" lon="6.14466">
        <ele>2402</ele>
        <time>2021-12-17T11:09:11Z</time>
      </trkpt>
      <trkpt lat="45.28158" lon="6.1446">
        <ele>2402</ele>
        <time>2021-12-17T11:09:15Z</time>
      </trkpt>
      <trkpt lat="45.28155" lon="6.14444">
        <ele>2401.8</ele>
        <time>2021-12-17T11:09:24Z</time>
      </trkpt>
      <trkpt lat="45.28151" lon="6.14431">
        <ele>2402.8</ele>
        <time>2021-12-17T11:09:34Z</time>
      </trkpt>
      <trkpt lat="45.2815" lon="6.14429">
        <ele>2403.2</ele>
        <time>2021-12-17T11:09:36Z</time>
      </trkpt>
      <trkpt lat="45.28149" lon="6.14423">
        <ele>2404.2</ele>
        <time>2021-12-17T11:09:41Z</time>
      </trkpt>
      <trkpt lat="45.28148" lon="6.14421">
        <ele>2404.2</ele>
        <time>2021-12-17T11:09:42Z</time>
      </trkpt>
      <trkpt lat="45.28147" lon="6.14419">
        <ele>2404.6</ele>
        <time>2021-12-17T11:09:44Z</time>
      </trkpt>
      <trkpt lat="45.28146" lon="6.14416">
        <ele>2405.4</ele>
        <time>2021-12-17T11:09:47Z</time>
      </trkpt>
      <trkpt lat="45.28144" lon="6.14409">
        <ele>2405.6</ele>
        <time>2021-12-17T11:09:52Z</time>
      </trkpt>
      <trkpt lat="45.28139" lon="6.14397">
        <ele>2406.6</ele>
        <time>2021-12-17T11:10:02Z</time>
      </trkpt>
      <trkpt lat="45.28136" lon="6.1439">
        <ele>2407.6</ele>
        <time>2021-12-17T11:10:08Z</time>
      </trkpt>
      <trkpt lat="45.28136" lon="6.14386">
        <ele>2408</ele>
        <time>2021-12-17T11:10:10Z</time>
      </trkpt>
      <trkpt lat="45.28133" lon="6.14379">
        <ele>2408.6</ele>
        <time>2021-12-17T11:10:15Z</time>
      </trkpt>
      <trkpt lat="45.28131" lon="6.14374">
        <ele>2409.4</ele>
        <time>2021-12-17T11:10:19Z</time>
      </trkpt>
      <trkpt lat="45.28131" lon="6.14373">
        <ele>2409.6</ele>
        <time>2021-12-17T11:10:20Z</time>
      </trkpt>
      <trkpt lat="45.28131" lon="6.14372">
        <ele>2409.6</ele>
        <time>2021-12-17T11:10:21Z</time>
      </trkpt>
      <trkpt lat="45.2813" lon="6.14366">
        <ele>2410.6</ele>
        <time>2021-12-17T11:10:24Z</time>
      </trkpt>
      <trkpt lat="45.2813" lon="6.14365">
        <ele>2410.8</ele>
        <time>2021-12-17T11:10:25Z</time>
      </trkpt>
      <trkpt lat="45.28132" lon="6.14359">
        <ele>2411.8</ele>
        <time>2021-12-17T11:10:29Z</time>
      </trkpt>
      <trkpt lat="45.28131" lon="6.14357">
        <ele>2412.8</ele>
        <time>2021-12-17T11:10:32Z</time>
      </trkpt>
      <trkpt lat="45.2813" lon="6.14356">
        <ele>2413</ele>
        <time>2021-12-17T11:10:33Z</time>
      </trkpt>
      <trkpt lat="45.28128" lon="6.14355">
        <ele>2414.2</ele>
        <time>2021-12-17T11:10:37Z</time>
      </trkpt>
      <trkpt lat="45.28127" lon="6.14354">
        <ele>2415</ele>
        <time>2021-12-17T11:10:40Z</time>
      </trkpt>
      <trkpt lat="45.28127" lon="6.14353">
        <ele>2415.4</ele>
        <time>2021-12-17T11:10:41Z</time>
      </trkpt>
      <trkpt lat="45.28123" lon="6.14348">
        <ele>2416.8</ele>
        <time>2021-12-17T11:10:48Z</time>
      </trkpt>
      <trkpt lat="45.28119" lon="6.1434">
        <ele>2417</ele>
        <time>2021-12-17T11:10:55Z</time>
      </trkpt>
      <trkpt lat="45.28119" lon="6.14338">
        <ele>2417.4</ele>
        <time>2021-12-17T11:10:56Z</time>
      </trkpt>
      <trkpt lat="45.28119" lon="6.14325">
        <ele>2417.8</ele>
        <time>2021-12-17T11:11:02Z</time>
      </trkpt>
      <trkpt lat="45.28119" lon="6.14322">
        <ele>2418.4</ele>
        <time>2021-12-17T11:11:04Z</time>
      </trkpt>
      <trkpt lat="45.28119" lon="6.14318">
        <ele>2419</ele>
        <time>2021-12-17T11:11:07Z</time>
      </trkpt>
      <trkpt lat="45.28119" lon="6.14313">
        <ele>2420</ele>
        <time>2021-12-17T11:11:11Z</time>
      </trkpt>
      <trkpt lat="45.28119" lon="6.14312">
        <ele>2420.6</ele>
        <time>2021-12-17T11:11:13Z</time>
      </trkpt>
      <trkpt lat="45.28118" lon="6.14307">
        <ele>2421.2</ele>
        <time>2021-12-17T11:11:17Z</time>
      </trkpt>
      <trkpt lat="45.28117" lon="6.143">
        <ele>2421.6</ele>
        <time>2021-12-17T11:11:21Z</time>
      </trkpt>
      <trkpt lat="45.28118" lon="6.14297">
        <ele>2422.6</ele>
        <time>2021-12-17T11:11:23Z</time>
      </trkpt>
      <trkpt lat="45.28118" lon="6.14286">
        <ele>2423.4</ele>
        <time>2021-12-17T11:11:29Z</time>
      </trkpt>
      <trkpt lat="45.28118" lon="6.14283">
        <ele>2423.4</ele>
        <time>2021-12-17T11:11:31Z</time>
      </trkpt>
      <trkpt lat="45.28119" lon="6.14281">
        <ele>2423.6</ele>
        <time>2021-12-17T11:11:33Z</time>
      </trkpt>
      <trkpt lat="45.2812" lon="6.14274">
        <ele>2425</ele>
        <time>2021-12-17T11:11:39Z</time>
      </trkpt>
      <trkpt lat="45.28119" lon="6.14269">
        <ele>2425.6</ele>
        <time>2021-12-17T11:11:42Z</time>
      </trkpt>
      <trkpt lat="45.2812" lon="6.14267">
        <ele>2426.2</ele>
        <time>2021-12-17T11:11:44Z</time>
      </trkpt>
      <trkpt lat="45.28122" lon="6.14258">
        <ele>2427.2</ele>
        <time>2021-12-17T11:11:50Z</time>
      </trkpt>
      <trkpt lat="45.2812" lon="6.14254">
        <ele>2428.6</ele>
        <time>2021-12-17T11:11:56Z</time>
      </trkpt>
      <trkpt lat="45.28115" lon="6.14257">
        <ele>2429.6</ele>
        <time>2021-12-17T11:12:01Z</time>
      </trkpt>
      <trkpt lat="45.28115" lon="6.14256">
        <ele>2429.8</ele>
        <time>2021-12-17T11:12:02Z</time>
      </trkpt>
      <trkpt lat="45.28114" lon="6.14254">
        <ele>2430</ele>
        <time>2021-12-17T11:12:03Z</time>
      </trkpt>
      <trkpt lat="45.28115" lon="6.14252">
        <ele>2430.2</ele>
        <time>2021-12-17T11:12:04Z</time>
      </trkpt>
      <trkpt lat="45.28117" lon="6.14248">
        <ele>2430.8</ele>
        <time>2021-12-17T11:12:07Z</time>
      </trkpt>
      <trkpt lat="45.28118" lon="6.14246">
        <ele>2431</ele>
        <time>2021-12-17T11:12:08Z</time>
      </trkpt>
      <trkpt lat="45.28121" lon="6.14242">
        <ele>2432</ele>
        <time>2021-12-17T11:12:12Z</time>
      </trkpt>
      <trkpt lat="45.28123" lon="6.1424">
        <ele>2432.4</ele>
        <time>2021-12-17T11:12:15Z</time>
      </trkpt>
      <trkpt lat="45.28125" lon="6.14237">
        <ele>2433</ele>
        <time>2021-12-17T11:12:17Z</time>
      </trkpt>
      <trkpt lat="45.28129" lon="6.14234">
        <ele>2434</ele>
        <time>2021-12-17T11:12:21Z</time>
      </trkpt>
      <trkpt lat="45.2813" lon="6.14234">
        <ele>2434.2</ele>
        <time>2021-12-17T11:12:22Z</time>
      </trkpt>
      <trkpt lat="45.28132" lon="6.14231">
        <ele>2435.4</ele>
        <time>2021-12-17T11:12:27Z</time>
      </trkpt>
      <trkpt lat="45.28132" lon="6.14232">
        <ele>2436.4</ele>
        <time>2021-12-17T11:12:30Z</time>
      </trkpt>
      <trkpt lat="45.28129" lon="6.14232">
        <ele>2437.6</ele>
        <time>2021-12-17T11:12:34Z</time>
      </trkpt>
      <trkpt lat="45.28125" lon="6.1423">
        <ele>2438.8</ele>
        <time>2021-12-17T11:12:40Z</time>
      </trkpt>
      <trkpt lat="45.28125" lon="6.1423">
        <ele>2439</ele>
        <time>2021-12-17T11:12:41Z</time>
      </trkpt>
      <trkpt lat="45.28122" lon="6.1423">
        <ele>2439.6</ele>
        <time>2021-12-17T11:12:44Z</time>
      </trkpt>
      <trkpt lat="45.2812" lon="6.14231">
        <ele>2440</ele>
        <time>2021-12-17T11:12:46Z</time>
      </trkpt>
      <trkpt lat="45.28119" lon="6.14231">
        <ele>2440.2</ele>
        <time>2021-12-17T11:12:47Z</time>
      </trkpt>
      <trkpt lat="45.28114" lon="6.14233">
        <ele>2441.2</ele>
        <time>2021-12-17T11:12:52Z</time>
      </trkpt>
      <trkpt lat="45.28112" lon="6.14234">
        <ele>2441.8</ele>
        <time>2021-12-17T11:12:54Z</time>
      </trkpt>
      <trkpt lat="45.28109" lon="6.14233">
        <ele>2442.2</ele>
        <time>2021-12-17T11:12:57Z</time>
      </trkpt>
      <trkpt lat="45.28109" lon="6.1423">
        <ele>2442.4</ele>
        <time>2021-12-17T11:12:59Z</time>
      </trkpt>
      <trkpt lat="45.28113" lon="6.14223">
        <ele>2443.2</ele>
        <time>2021-12-17T11:13:04Z</time>
      </trkpt>
      <trkpt lat="45.28113" lon="6.14222">
        <ele>2443.4</ele>
        <time>2021-12-17T11:13:05Z</time>
      </trkpt>
      <trkpt lat="45.28119" lon="6.14213">
        <ele>2444.4</ele>
        <time>2021-12-17T11:13:11Z</time>
      </trkpt>
      <trkpt lat="45.28123" lon="6.14209">
        <ele>2445.6</ele>
        <time>2021-12-17T11:13:17Z</time>
      </trkpt>
      <trkpt lat="45.28123" lon="6.14208">
        <ele>2445.8</ele>
        <time>2021-12-17T11:13:18Z</time>
      </trkpt>
      <trkpt lat="45.28128" lon="6.14206">
        <ele>2446.6</ele>
        <time>2021-12-17T11:13:24Z</time>
      </trkpt>
      <trkpt lat="45.28128" lon="6.14205">
        <ele>2446.8</ele>
        <time>2021-12-17T11:13:25Z</time>
      </trkpt>
      <trkpt lat="45.28129" lon="6.14205">
        <ele>2447.8</ele>
        <time>2021-12-17T11:13:28Z</time>
      </trkpt>
      <trkpt lat="45.28128" lon="6.14208">
        <ele>2448.4</ele>
        <time>2021-12-17T11:13:31Z</time>
      </trkpt>
      <trkpt lat="45.28127" lon="6.14208">
        <ele>2448.8</ele>
        <time>2021-12-17T11:13:34Z</time>
      </trkpt>
      <trkpt lat="45.28124" lon="6.14207">
        <ele>2449.4</ele>
        <time>2021-12-17T11:13:37Z</time>
      </trkpt>
      <trkpt lat="45.28122" lon="6.14207">
        <ele>2450</ele>
        <time>2021-12-17T11:13:40Z</time>
      </trkpt>
      <trkpt lat="45.28119" lon="6.14207">
        <ele>2450.6</ele>
        <time>2021-12-17T11:13:43Z</time>
      </trkpt>
      <trkpt lat="45.28117" lon="6.14208">
        <ele>2451.2</ele>
        <time>2021-12-17T11:13:46Z</time>
      </trkpt>
      <trkpt lat="45.28114" lon="6.14205">
        <ele>2452.2</ele>
        <time>2021-12-17T11:13:52Z</time>
      </trkpt>
      <trkpt lat="45.28109" lon="6.14203">
        <ele>2453.2</ele>
        <time>2021-12-17T11:13:59Z</time>
      </trkpt>
      <trkpt lat="45.2811" lon="6.14201">
        <ele>2453.4</ele>
        <time>2021-12-17T11:14:00Z</time>
      </trkpt>
      <trkpt lat="45.28112" lon="6.14196">
        <ele>2454</ele>
        <time>2021-12-17T11:14:05Z</time>
      </trkpt>
      <trkpt lat="45.28114" lon="6.14194">
        <ele>2454.6</ele>
        <time>2021-12-17T11:14:07Z</time>
      </trkpt>
      <trkpt lat="45.28117" lon="6.1419">
        <ele>2455.8</ele>
        <time>2021-12-17T11:14:11Z</time>
      </trkpt>
      <trkpt lat="45.2812" lon="6.14187">
        <ele>2456.2</ele>
        <time>2021-12-17T11:14:14Z</time>
      </trkpt>
      <trkpt lat="45.28119" lon="6.14188">
        <ele>2456.6</ele>
        <time>2021-12-17T11:14:18Z</time>
      </trkpt>
      <trkpt lat="45.28119" lon="6.14188">
        <ele>2456.8</ele>
        <time>2021-12-17T11:14:19Z</time>
      </trkpt>
      <trkpt lat="45.28118" lon="6.14189">
        <ele>2457</ele>
        <time>2021-12-17T11:14:20Z</time>
      </trkpt>
      <trkpt lat="45.28114" lon="6.14189">
        <ele>2457.8</ele>
        <time>2021-12-17T11:14:25Z</time>
      </trkpt>
      <trkpt lat="45.28113" lon="6.14189">
        <ele>2458</ele>
        <time>2021-12-17T11:14:26Z</time>
      </trkpt>
      <trkpt lat="45.2811" lon="6.14186">
        <ele>2459</ele>
        <time>2021-12-17T11:14:31Z</time>
      </trkpt>
      <trkpt lat="45.28107" lon="6.14184">
        <ele>2460.2</ele>
        <time>2021-12-17T11:14:36Z</time>
      </trkpt>
      <trkpt lat="45.28107" lon="6.14183">
        <ele>2460.4</ele>
        <time>2021-12-17T11:14:37Z</time>
      </trkpt>
      <trkpt lat="45.28109" lon="6.14181">
        <ele>2461.4</ele>
        <time>2021-12-17T11:14:42Z</time>
      </trkpt>
      <trkpt lat="45.28109" lon="6.1418">
        <ele>2461.6</ele>
        <time>2021-12-17T11:14:43Z</time>
      </trkpt>
      <trkpt lat="45.2811" lon="6.1418">
        <ele>2461.8</ele>
        <time>2021-12-17T11:14:44Z</time>
      </trkpt>
      <trkpt lat="45.28112" lon="6.14178">
        <ele>2462.4</ele>
        <time>2021-12-17T11:14:47Z</time>
      </trkpt>
      <trkpt lat="45.28114" lon="6.14176">
        <ele>2462.8</ele>
        <time>2021-12-17T11:14:50Z</time>
      </trkpt>
      <trkpt lat="45.28113" lon="6.14178">
        <ele>2463.4</ele>
        <time>2021-12-17T11:14:54Z</time>
      </trkpt>
      <trkpt lat="45.28113" lon="6.14178">
        <ele>2463.6</ele>
        <time>2021-12-17T11:14:55Z</time>
      </trkpt>
      <trkpt lat="45.28107" lon="6.14176">
        <ele>2464.8</ele>
        <time>2021-12-17T11:15:02Z</time>
      </trkpt>
      <trkpt lat="45.28103" lon="6.14176">
        <ele>2465.8</ele>
        <time>2021-12-17T11:15:07Z</time>
      </trkpt>
      <trkpt lat="45.28102" lon="6.14176">
        <ele>2466.2</ele>
        <time>2021-12-17T11:15:08Z</time>
      </trkpt>
      <trkpt lat="45.28099" lon="6.14177">
        <ele>2466.8</ele>
        <time>2021-12-17T11:15:12Z</time>
      </trkpt>
      <trkpt lat="45.28098" lon="6.14178">
        <ele>2467.2</ele>
        <time>2021-12-17T11:15:14Z</time>
      </trkpt>
      <trkpt lat="45.28096" lon="6.14178">
        <ele>2468</ele>
        <time>2021-12-17T11:15:17Z</time>
      </trkpt>
      <trkpt lat="45.28094" lon="6.14178">
        <ele>2468.8</ele>
        <time>2021-12-17T11:15:20Z</time>
      </trkpt>
      <trkpt lat="45.28093" lon="6.14179">
        <ele>2469.2</ele>
        <time>2021-12-17T11:15:21Z</time>
      </trkpt>
      <trkpt lat="45.2809" lon="6.14179">
        <ele>2470.4</ele>
        <time>2021-12-17T11:15:26Z</time>
      </trkpt>
      <trkpt lat="45.28086" lon="6.14179">
        <ele>2471.4</ele>
        <time>2021-12-17T11:15:31Z</time>
      </trkpt>
      <trkpt lat="45.28084" lon="6.14177">
        <ele>2472</ele>
        <time>2021-12-17T11:15:34Z</time>
      </trkpt>
      <trkpt lat="45.28083" lon="6.14176">
        <ele>2472.4</ele>
        <time>2021-12-17T11:15:36Z</time>
      </trkpt>
      <trkpt lat="45.28081" lon="6.1417">
        <ele>2473.2</ele>
        <time>2021-12-17T11:15:41Z</time>
      </trkpt>
      <trkpt lat="45.28081" lon="6.14168">
        <ele>2473.6</ele>
        <time>2021-12-17T11:15:43Z</time>
      </trkpt>
      <trkpt lat="45.28081" lon="6.14164">
        <ele>2474.2</ele>
        <time>2021-12-17T11:15:47Z</time>
      </trkpt>
      <trkpt lat="45.2808" lon="6.14165">
        <ele>2474.6</ele>
        <time>2021-12-17T11:15:54Z</time>
      </trkpt>
      <trkpt lat="45.2808" lon="6.14164">
        <ele>2474.4</ele>
        <time>2021-12-17T11:15:58Z</time>
      </trkpt>
      <trkpt lat="45.2808" lon="6.14163">
        <ele>2474.4</ele>
        <time>2021-12-17T11:15:59Z</time>
      </trkpt>
      <trkpt lat="45.28081" lon="6.14163">
        <ele>2474.4</ele>
        <time>2021-12-17T11:16:06Z</time>
      </trkpt>
      <trkpt lat="45.28082" lon="6.14161">
        <ele>2474.2</ele>
        <time>2021-12-17T11:16:30Z</time>
      </trkpt>
      <trkpt lat="45.28083" lon="6.1416">
        <ele>2473.8</ele>
        <time>2021-12-17T11:17:28Z</time>
      </trkpt>
      <trkpt lat="45.28085" lon="6.1416">
        <ele>2473.8</ele>
        <time>2021-12-17T11:20:36Z</time>
      </trkpt>
      <trkpt lat="45.28081" lon="6.14155">
        <ele>2473.8</ele>
        <time>2021-12-17T11:20:47Z</time>
      </trkpt>
      <trkpt lat="45.28078" lon="6.14144">
        <ele>2473.8</ele>
        <time>2021-12-17T11:20:55Z</time>
      </trkpt>
      <trkpt lat="45.28078" lon="6.14142">
        <ele>2477.6</ele>
        <time>2021-12-17T11:20:57Z</time>
      </trkpt>
      <trkpt lat="45.28078" lon="6.14136">
        <ele>2477.8</ele>
        <time>2021-12-17T11:21:02Z</time>
      </trkpt>
      <trkpt lat="45.28078" lon="6.14133">
        <ele>2478.6</ele>
        <time>2021-12-17T11:21:05Z</time>
      </trkpt>
      <trkpt lat="45.28077" lon="6.14127">
        <ele>2479.6</ele>
        <time>2021-12-17T11:21:10Z</time>
      </trkpt>
      <trkpt lat="45.28076" lon="6.14127">
        <ele>2479.8</ele>
        <time>2021-12-17T11:21:11Z</time>
      </trkpt>
      <trkpt lat="45.28072" lon="6.14123">
        <ele>2480.8</ele>
        <time>2021-12-17T11:21:17Z</time>
      </trkpt>
      <trkpt lat="45.28071" lon="6.14122">
        <ele>2480.8</ele>
        <time>2021-12-17T11:21:18Z</time>
      </trkpt>
      <trkpt lat="45.28066" lon="6.14112">
        <ele>2481.2</ele>
        <time>2021-12-17T11:21:25Z</time>
      </trkpt>
      <trkpt lat="45.28065" lon="6.1411">
        <ele>2481.2</ele>
        <time>2021-12-17T11:21:26Z</time>
      </trkpt>
      <trkpt lat="45.28059" lon="6.14094">
        <ele>2481.2</ele>
        <time>2021-12-17T11:21:36Z</time>
      </trkpt>
      <trkpt lat="45.2805" lon="6.14081">
        <ele>2481.4</ele>
        <time>2021-12-17T11:21:47Z</time>
      </trkpt>
      <trkpt lat="45.28042" lon="6.14066">
        <ele>2480.4</ele>
        <time>2021-12-17T11:21:56Z</time>
      </trkpt>
      <trkpt lat="45.2804" lon="6.14054">
        <ele>2481.4</ele>
        <time>2021-12-17T11:22:03Z</time>
      </trkpt>
      <trkpt lat="45.28034" lon="6.14041">
        <ele>2481.4</ele>
        <time>2021-12-17T11:22:12Z</time>
      </trkpt>
      <trkpt lat="45.28024" lon="6.14034">
        <ele>2481.4</ele>
        <time>2021-12-17T11:22:20Z</time>
      </trkpt>
      <trkpt lat="45.28021" lon="6.14035">
        <ele>2481.6</ele>
        <time>2021-12-17T11:22:22Z</time>
      </trkpt>
      <trkpt lat="45.2802" lon="6.14036">
        <ele>2482</ele>
        <time>2021-12-17T11:22:23Z</time>
      </trkpt>
      <trkpt lat="45.28019" lon="6.14036">
        <ele>2482.2</ele>
        <time>2021-12-17T11:22:25Z</time>
      </trkpt>
      <trkpt lat="45.28015" lon="6.14038">
        <ele>2483</ele>
        <time>2021-12-17T11:22:29Z</time>
      </trkpt>
      <trkpt lat="45.28013" lon="6.14038">
        <ele>2483.8</ele>
        <time>2021-12-17T11:22:31Z</time>
      </trkpt>
      <trkpt lat="45.28011" lon="6.1404">
        <ele>2484.2</ele>
        <time>2021-12-17T11:22:34Z</time>
      </trkpt>
      <trkpt lat="45.28009" lon="6.14043">
        <ele>2484.8</ele>
        <time>2021-12-17T11:22:37Z</time>
      </trkpt>
      <trkpt lat="45.28007" lon="6.14044">
        <ele>2485.4</ele>
        <time>2021-12-17T11:22:39Z</time>
      </trkpt>
      <trkpt lat="45.28003" lon="6.1405">
        <ele>2486.6</ele>
        <time>2021-12-17T11:22:45Z</time>
      </trkpt>
      <trkpt lat="45.28002" lon="6.14052">
        <ele>2486.8</ele>
        <time>2021-12-17T11:22:46Z</time>
      </trkpt>
      <trkpt lat="45.27999" lon="6.14054">
        <ele>2487.6</ele>
        <time>2021-12-17T11:22:49Z</time>
      </trkpt>
      <trkpt lat="45.27998" lon="6.14055">
        <ele>2488.2</ele>
        <time>2021-12-17T11:22:52Z</time>
      </trkpt>
      <trkpt lat="45.27996" lon="6.14056">
        <ele>2488.6</ele>
        <time>2021-12-17T11:22:54Z</time>
      </trkpt>
      <trkpt lat="45.27993" lon="6.14058">
        <ele>2489.6</ele>
        <time>2021-12-17T11:23:00Z</time>
      </trkpt>
      <trkpt lat="45.27993" lon="6.14057">
        <ele>2489.6</ele>
        <time>2021-12-17T11:23:01Z</time>
      </trkpt>
      <trkpt lat="45.27993" lon="6.14047">
        <ele>2490</ele>
        <time>2021-12-17T11:23:06Z</time>
      </trkpt>
      <trkpt lat="45.27993" lon="6.14041">
        <ele>2490.6</ele>
        <time>2021-12-17T11:23:08Z</time>
      </trkpt>
      <trkpt lat="45.27991" lon="6.14033">
        <ele>2491.8</ele>
        <time>2021-12-17T11:23:13Z</time>
      </trkpt>
      <trkpt lat="45.27991" lon="6.14031">
        <ele>2492.2</ele>
        <time>2021-12-17T11:23:15Z</time>
      </trkpt>
      <trkpt lat="45.27991" lon="6.14028">
        <ele>2492.4</ele>
        <time>2021-12-17T11:23:17Z</time>
      </trkpt>
      <trkpt lat="45.2799" lon="6.14026">
        <ele>2492.8</ele>
        <time>2021-12-17T11:23:19Z</time>
      </trkpt>
      <trkpt lat="45.2799" lon="6.14025">
        <ele>2492.8</ele>
        <time>2021-12-17T11:23:20Z</time>
      </trkpt>
      <trkpt lat="45.27988" lon="6.14017">
        <ele>2493.8</ele>
        <time>2021-12-17T11:23:26Z</time>
      </trkpt>
      <trkpt lat="45.27988" lon="6.14012">
        <ele>2495.2</ele>
        <time>2021-12-17T11:23:31Z</time>
      </trkpt>
      <trkpt lat="45.27988" lon="6.1401">
        <ele>2495.4</ele>
        <time>2021-12-17T11:23:33Z</time>
      </trkpt>
      <trkpt lat="45.27986" lon="6.14002">
        <ele>2496.2</ele>
        <time>2021-12-17T11:23:39Z</time>
      </trkpt>
      <trkpt lat="45.27985" lon="6.13999">
        <ele>2497</ele>
        <time>2021-12-17T11:23:42Z</time>
      </trkpt>
      <trkpt lat="45.27985" lon="6.13996">
        <ele>2497.2</ele>
        <time>2021-12-17T11:23:45Z</time>
      </trkpt>
      <trkpt lat="45.27984" lon="6.13989">
        <ele>2497.6</ele>
        <time>2021-12-17T11:23:49Z</time>
      </trkpt>
      <trkpt lat="45.27984" lon="6.13986">
        <ele>2498.4</ele>
        <time>2021-12-17T11:23:51Z</time>
      </trkpt>
      <trkpt lat="45.27983" lon="6.13979">
        <ele>2499.6</ele>
        <time>2021-12-17T11:23:56Z</time>
      </trkpt>
      <trkpt lat="45.27983" lon="6.13977">
        <ele>2499.8</ele>
        <time>2021-12-17T11:23:57Z</time>
      </trkpt>
      <trkpt lat="45.27982" lon="6.13973">
        <ele>2500.6</ele>
        <time>2021-12-17T11:24:00Z</time>
      </trkpt>
      <trkpt lat="45.27982" lon="6.13967">
        <ele>2501.2</ele>
        <time>2021-12-17T11:24:04Z</time>
      </trkpt>
      <trkpt lat="45.27982" lon="6.13965">
        <ele>2501.6</ele>
        <time>2021-12-17T11:24:06Z</time>
      </trkpt>
      <trkpt lat="45.27982" lon="6.13962">
        <ele>2502.6</ele>
        <time>2021-12-17T11:24:09Z</time>
      </trkpt>
      <trkpt lat="45.27983" lon="6.13958">
        <ele>2503.2</ele>
        <time>2021-12-17T11:24:12Z</time>
      </trkpt>
      <trkpt lat="45.27983" lon="6.13957">
        <ele>2503.4</ele>
        <time>2021-12-17T11:24:13Z</time>
      </trkpt>
      <trkpt lat="45.27983" lon="6.13955">
        <ele>2504</ele>
        <time>2021-12-17T11:24:15Z</time>
      </trkpt>
      <trkpt lat="45.27983" lon="6.1395">
        <ele>2505</ele>
        <time>2021-12-17T11:24:19Z</time>
      </trkpt>
      <trkpt lat="45.27983" lon="6.13946">
        <ele>2506</ele>
        <time>2021-12-17T11:24:24Z</time>
      </trkpt>
      <trkpt lat="45.27983" lon="6.13946">
        <ele>2506.4</ele>
        <time>2021-12-17T11:24:25Z</time>
      </trkpt>
      <trkpt lat="45.27982" lon="6.1395">
        <ele>2507.2</ele>
        <time>2021-12-17T11:24:30Z</time>
      </trkpt>
      <trkpt lat="45.27982" lon="6.13951">
        <ele>2507.6</ele>
        <time>2021-12-17T11:24:31Z</time>
      </trkpt>
      <trkpt lat="45.27981" lon="6.13954">
        <ele>2508.2</ele>
        <time>2021-12-17T11:24:34Z</time>
      </trkpt>
      <trkpt lat="45.27981" lon="6.13956">
        <ele>2508.6</ele>
        <time>2021-12-17T11:24:36Z</time>
      </trkpt>
      <trkpt lat="45.2798" lon="6.13964">
        <ele>2509.4</ele>
        <time>2021-12-17T11:24:41Z</time>
      </trkpt>
      <trkpt lat="45.27979" lon="6.13964">
        <ele>2510</ele>
        <time>2021-12-17T11:24:44Z</time>
      </trkpt>
      <trkpt lat="45.27979" lon="6.1396">
        <ele>2510.4</ele>
        <time>2021-12-17T11:24:47Z</time>
      </trkpt>
      <trkpt lat="45.27978" lon="6.13955">
        <ele>2510.8</ele>
        <time>2021-12-17T11:24:51Z</time>
      </trkpt>
      <trkpt lat="45.27977" lon="6.1395">
        <ele>2511.4</ele>
        <time>2021-12-17T11:24:54Z</time>
      </trkpt>
      <trkpt lat="45.27977" lon="6.13945">
        <ele>2512.6</ele>
        <time>2021-12-17T11:24:58Z</time>
      </trkpt>
      <trkpt lat="45.27976" lon="6.13936">
        <ele>2513.6</ele>
        <time>2021-12-17T11:25:05Z</time>
      </trkpt>
      <trkpt lat="45.27976" lon="6.13933">
        <ele>2514</ele>
        <time>2021-12-17T11:25:07Z</time>
      </trkpt>
      <trkpt lat="45.27975" lon="6.13927">
        <ele>2514.8</ele>
        <time>2021-12-17T11:25:12Z</time>
      </trkpt>
      <trkpt lat="45.27975" lon="6.13925">
        <ele>2515</ele>
        <time>2021-12-17T11:25:14Z</time>
      </trkpt>
      <trkpt lat="45.27974" lon="6.13916">
        <ele>2516</ele>
        <time>2021-12-17T11:25:20Z</time>
      </trkpt>
      <trkpt lat="45.27973" lon="6.13913">
        <ele>2516.4</ele>
        <time>2021-12-17T11:25:22Z</time>
      </trkpt>
      <trkpt lat="45.27973" lon="6.13909">
        <ele>2517</ele>
        <time>2021-12-17T11:25:26Z</time>
      </trkpt>
      <trkpt lat="45.27973" lon="6.13905">
        <ele>2517.2</ele>
        <time>2021-12-17T11:25:29Z</time>
      </trkpt>
      <trkpt lat="45.27973" lon="6.13898">
        <ele>2518.2</ele>
        <time>2021-12-17T11:25:34Z</time>
      </trkpt>
      <trkpt lat="45.27972" lon="6.13894">
        <ele>2518.6</ele>
        <time>2021-12-17T11:25:37Z</time>
      </trkpt>
      <trkpt lat="45.27972" lon="6.13893">
        <ele>2519</ele>
        <time>2021-12-17T11:25:38Z</time>
      </trkpt>
      <trkpt lat="45.27972" lon="6.13891">
        <ele>2519.2</ele>
        <time>2021-12-17T11:25:39Z</time>
      </trkpt>
      <trkpt lat="45.27973" lon="6.13883">
        <ele>2520.2</ele>
        <time>2021-12-17T11:25:45Z</time>
      </trkpt>
      <trkpt lat="45.27973" lon="6.1388">
        <ele>2520.6</ele>
        <time>2021-12-17T11:25:47Z</time>
      </trkpt>
      <trkpt lat="45.27974" lon="6.13877">
        <ele>2521</ele>
        <time>2021-12-17T11:25:49Z</time>
      </trkpt>
      <trkpt lat="45.27974" lon="6.13872">
        <ele>2521.2</ele>
        <time>2021-12-17T11:25:52Z</time>
      </trkpt>
      <trkpt lat="45.27975" lon="6.13868">
        <ele>2521.6</ele>
        <time>2021-12-17T11:25:55Z</time>
      </trkpt>
      <trkpt lat="45.27975" lon="6.13861">
        <ele>2522.2</ele>
        <time>2021-12-17T11:26:00Z</time>
      </trkpt>
      <trkpt lat="45.27975" lon="6.1386">
        <ele>2522.6</ele>
        <time>2021-12-17T11:26:01Z</time>
      </trkpt>
      <trkpt lat="45.27976" lon="6.13857">
        <ele>2523</ele>
        <time>2021-12-17T11:26:03Z</time>
      </trkpt>
      <trkpt lat="45.27976" lon="6.13854">
        <ele>2523.4</ele>
        <time>2021-12-17T11:26:05Z</time>
      </trkpt>
      <trkpt lat="45.27976" lon="6.13849">
        <ele>2524.2</ele>
        <time>2021-12-17T11:26:08Z</time>
      </trkpt>
      <trkpt lat="45.27976" lon="6.13848">
        <ele>2524.4</ele>
        <time>2021-12-17T11:26:09Z</time>
      </trkpt>
      <trkpt lat="45.27976" lon="6.13847">
        <ele>2524.4</ele>
        <time>2021-12-17T11:26:10Z</time>
      </trkpt>
      <trkpt lat="45.27976" lon="6.13846">
        <ele>2524.8</ele>
        <time>2021-12-17T11:26:11Z</time>
      </trkpt>
      <trkpt lat="45.27976" lon="6.13845">
        <ele>2525</ele>
        <time>2021-12-17T11:26:12Z</time>
      </trkpt>
      <trkpt lat="45.27976" lon="6.13841">
        <ele>2525.6</ele>
        <time>2021-12-17T11:26:14Z</time>
      </trkpt>
      <trkpt lat="45.27976" lon="6.1384">
        <ele>2525.8</ele>
        <time>2021-12-17T11:26:15Z</time>
      </trkpt>
      <trkpt lat="45.27978" lon="6.13833">
        <ele>2526.8</ele>
        <time>2021-12-17T11:26:21Z</time>
      </trkpt>
      <trkpt lat="45.2798" lon="6.13827">
        <ele>2527.8</ele>
        <time>2021-12-17T11:26:27Z</time>
      </trkpt>
      <trkpt lat="45.27981" lon="6.13825">
        <ele>2527.8</ele>
        <time>2021-12-17T11:26:28Z</time>
      </trkpt>
      <trkpt lat="45.27982" lon="6.13822">
        <ele>2528.4</ele>
        <time>2021-12-17T11:26:31Z</time>
      </trkpt>
      <trkpt lat="45.27983" lon="6.13821">
        <ele>2528.6</ele>
        <time>2021-12-17T11:26:32Z</time>
      </trkpt>
      <trkpt lat="45.27983" lon="6.1382">
        <ele>2529</ele>
        <time>2021-12-17T11:26:33Z</time>
      </trkpt>
      <trkpt lat="45.27987" lon="6.13812">
        <ele>2530</ele>
        <time>2021-12-17T11:26:39Z</time>
      </trkpt>
      <trkpt lat="45.27988" lon="6.13811">
        <ele>2530.2</ele>
        <time>2021-12-17T11:26:40Z</time>
      </trkpt>
      <trkpt lat="45.27989" lon="6.13808">
        <ele>2531.6</ele>
        <time>2021-12-17T11:26:45Z</time>
      </trkpt>
      <trkpt lat="45.27987" lon="6.13811">
        <ele>2532.8</ele>
        <time>2021-12-17T11:26:51Z</time>
      </trkpt>
      <trkpt lat="45.27983" lon="6.13813">
        <ele>2533.8</ele>
        <time>2021-12-17T11:26:57Z</time>
      </trkpt>
      <trkpt lat="45.2798" lon="6.13815">
        <ele>2534.8</ele>
        <time>2021-12-17T11:27:01Z</time>
      </trkpt>
      <trkpt lat="45.27978" lon="6.13817">
        <ele>2535.4</ele>
        <time>2021-12-17T11:27:04Z</time>
      </trkpt>
      <trkpt lat="45.27975" lon="6.13818">
        <ele>2536</ele>
        <time>2021-12-17T11:27:07Z</time>
      </trkpt>
      <trkpt lat="45.27972" lon="6.13822">
        <ele>2536.6</ele>
        <time>2021-12-17T11:27:12Z</time>
      </trkpt>
      <trkpt lat="45.27971" lon="6.13824">
        <ele>2537.2</ele>
        <time>2021-12-17T11:27:14Z</time>
      </trkpt>
      <trkpt lat="45.27968" lon="6.13828">
        <ele>2538</ele>
        <time>2021-12-17T11:27:20Z</time>
      </trkpt>
      <trkpt lat="45.27968" lon="6.13828">
        <ele>2538.2</ele>
        <time>2021-12-17T11:27:21Z</time>
      </trkpt>
      <trkpt lat="45.27966" lon="6.13832">
        <ele>2538.6</ele>
        <time>2021-12-17T11:27:27Z</time>
      </trkpt>
      <trkpt lat="45.27964" lon="6.13829">
        <ele>2538.8</ele>
        <time>2021-12-17T11:27:34Z</time>
      </trkpt>
      <trkpt lat="45.27966" lon="6.13826">
        <ele>2539</ele>
        <time>2021-12-17T11:27:41Z</time>
      </trkpt>
      <trkpt lat="45.27966" lon="6.13825">
        <ele>2539.4</ele>
        <time>2021-12-17T11:27:55Z</time>
      </trkpt>
      <trkpt lat="45.27968" lon="6.13817">
        <ele>2540.4</ele>
        <time>2021-12-17T11:27:59Z</time>
      </trkpt>
      <trkpt lat="45.27971" lon="6.13804">
        <ele>2541.6</ele>
        <time>2021-12-17T11:28:05Z</time>
      </trkpt>
      <trkpt lat="45.27971" lon="6.13802">
        <ele>2542</ele>
        <time>2021-12-17T11:28:07Z</time>
      </trkpt>
      <trkpt lat="45.27972" lon="6.13798">
        <ele>2542.6</ele>
        <time>2021-12-17T11:28:10Z</time>
      </trkpt>
      <trkpt lat="45.27974" lon="6.13794">
        <ele>2543.2</ele>
        <time>2021-12-17T11:28:13Z</time>
      </trkpt>
      <trkpt lat="45.27974" lon="6.13793">
        <ele>2543.2</ele>
        <time>2021-12-17T11:28:14Z</time>
      </trkpt>
      <trkpt lat="45.27976" lon="6.13791">
        <ele>2544</ele>
        <time>2021-12-17T11:28:16Z</time>
      </trkpt>
      <trkpt lat="45.27977" lon="6.13787">
        <ele>2545.2</ele>
        <time>2021-12-17T11:28:21Z</time>
      </trkpt>
      <trkpt lat="45.2798" lon="6.13783">
        <ele>2546.2</ele>
        <time>2021-12-17T11:28:26Z</time>
      </trkpt>
      <trkpt lat="45.27981" lon="6.1378">
        <ele>2547.2</ele>
        <time>2021-12-17T11:28:29Z</time>
      </trkpt>
      <trkpt lat="45.27982" lon="6.1378">
        <ele>2547.4</ele>
        <time>2021-12-17T11:28:30Z</time>
      </trkpt>
      <trkpt lat="45.27984" lon="6.13777">
        <ele>2548.4</ele>
        <time>2021-12-17T11:28:35Z</time>
      </trkpt>
      <trkpt lat="45.27985" lon="6.13776">
        <ele>2548.6</ele>
        <time>2021-12-17T11:28:36Z</time>
      </trkpt>
      <trkpt lat="45.27985" lon="6.13774">
        <ele>2549.4</ele>
        <time>2021-12-17T11:28:39Z</time>
      </trkpt>
      <trkpt lat="45.27983" lon="6.13774">
        <ele>2550.6</ele>
        <time>2021-12-17T11:28:43Z</time>
      </trkpt>
      <trkpt lat="45.27981" lon="6.13773">
        <ele>2551.8</ele>
        <time>2021-12-17T11:28:47Z</time>
      </trkpt>
      <trkpt lat="45.27981" lon="6.13773">
        <ele>2552</ele>
        <time>2021-12-17T11:28:48Z</time>
      </trkpt>
      <trkpt lat="45.2798" lon="6.13773">
        <ele>2552.2</ele>
        <time>2021-12-17T11:28:49Z</time>
      </trkpt>
      <trkpt lat="45.27977" lon="6.13773">
        <ele>2552.8</ele>
        <time>2021-12-17T11:28:52Z</time>
      </trkpt>
      <trkpt lat="45.27975" lon="6.13773">
        <ele>2553.4</ele>
        <time>2021-12-17T11:28:56Z</time>
      </trkpt>
      <trkpt lat="45.27973" lon="6.13772">
        <ele>2554</ele>
        <time>2021-12-17T11:28:58Z</time>
      </trkpt>
      <trkpt lat="45.27969" lon="6.13772">
        <ele>2555</ele>
        <time>2021-12-17T11:29:03Z</time>
      </trkpt>
      <trkpt lat="45.27968" lon="6.13771">
        <ele>2555.2</ele>
        <time>2021-12-17T11:29:04Z</time>
      </trkpt>
      <trkpt lat="45.27965" lon="6.13772">
        <ele>2556.4</ele>
        <time>2021-12-17T11:29:09Z</time>
      </trkpt>
      <trkpt lat="45.27964" lon="6.13772">
        <ele>2556.6</ele>
        <time>2021-12-17T11:29:10Z</time>
      </trkpt>
      <trkpt lat="45.27961" lon="6.13774">
        <ele>2557.6</ele>
        <time>2021-12-17T11:29:15Z</time>
      </trkpt>
      <trkpt lat="45.27961" lon="6.13774">
        <ele>2557.8</ele>
        <time>2021-12-17T11:29:16Z</time>
      </trkpt>
      <trkpt lat="45.27958" lon="6.13776">
        <ele>2558.6</ele>
        <time>2021-12-17T11:29:20Z</time>
      </trkpt>
      <trkpt lat="45.27958" lon="6.13775">
        <ele>2559</ele>
        <time>2021-12-17T11:29:21Z</time>
      </trkpt>
      <trkpt lat="45.27955" lon="6.13777">
        <ele>2559.6</ele>
        <time>2021-12-17T11:29:24Z</time>
      </trkpt>
      <trkpt lat="45.27955" lon="6.13778">
        <ele>2559.8</ele>
        <time>2021-12-17T11:29:25Z</time>
      </trkpt>
      <trkpt lat="45.27954" lon="6.1378">
        <ele>2560.4</ele>
        <time>2021-12-17T11:29:27Z</time>
      </trkpt>
      <trkpt lat="45.27953" lon="6.1378">
        <ele>2560.8</ele>
        <time>2021-12-17T11:29:29Z</time>
      </trkpt>
      <trkpt lat="45.27951" lon="6.13781">
        <ele>2560.8</ele>
        <time>2021-12-17T11:29:30Z</time>
      </trkpt>
      <trkpt lat="45.27948" lon="6.13784">
        <ele>2562</ele>
        <time>2021-12-17T11:29:35Z</time>
      </trkpt>
      <trkpt lat="45.27946" lon="6.13785">
        <ele>2562.2</ele>
        <time>2021-12-17T11:29:37Z</time>
      </trkpt>
      <trkpt lat="45.27943" lon="6.13787">
        <ele>2563</ele>
        <time>2021-12-17T11:29:43Z</time>
      </trkpt>
      <trkpt lat="45.27942" lon="6.13787">
        <ele>2563.2</ele>
        <time>2021-12-17T11:29:44Z</time>
      </trkpt>
      <trkpt lat="45.27942" lon="6.13786">
        <ele>2563.2</ele>
        <time>2021-12-17T11:29:45Z</time>
      </trkpt>
      <trkpt lat="45.27942" lon="6.13781">
        <ele>2564</ele>
        <time>2021-12-17T11:29:50Z</time>
      </trkpt>
      <trkpt lat="45.27942" lon="6.13773">
        <ele>2565</ele>
        <time>2021-12-17T11:29:56Z</time>
      </trkpt>
      <trkpt lat="45.27942" lon="6.13771">
        <ele>2565.2</ele>
        <time>2021-12-17T11:29:57Z</time>
      </trkpt>
      <trkpt lat="45.27942" lon="6.13767">
        <ele>2566.4</ele>
        <time>2021-12-17T11:30:01Z</time>
      </trkpt>
      <trkpt lat="45.2794" lon="6.13763">
        <ele>2567.6</ele>
        <time>2021-12-17T11:30:06Z</time>
      </trkpt>
      <trkpt lat="45.2794" lon="6.1376">
        <ele>2568.4</ele>
        <time>2021-12-17T11:30:10Z</time>
      </trkpt>
      <trkpt lat="45.27941" lon="6.13758">
        <ele>2568.8</ele>
        <time>2021-12-17T11:30:12Z</time>
      </trkpt>
      <trkpt lat="45.2794" lon="6.13758">
        <ele>2570</ele>
        <time>2021-12-17T11:30:16Z</time>
      </trkpt>
      <trkpt lat="45.2794" lon="6.13759">
        <ele>2570.4</ele>
        <time>2021-12-17T11:30:18Z</time>
      </trkpt>
      <trkpt lat="45.27937" lon="6.13762">
        <ele>2571.2</ele>
        <time>2021-12-17T11:30:22Z</time>
      </trkpt>
      <trkpt lat="45.27936" lon="6.13763">
        <ele>2571.6</ele>
        <time>2021-12-17T11:30:24Z</time>
      </trkpt>
      <trkpt lat="45.27934" lon="6.13764">
        <ele>2572.4</ele>
        <time>2021-12-17T11:30:27Z</time>
      </trkpt>
      <trkpt lat="45.27932" lon="6.13767">
        <ele>2573</ele>
        <time>2021-12-17T11:30:31Z</time>
      </trkpt>
      <trkpt lat="45.27931" lon="6.13769">
        <ele>2573.6</ele>
        <time>2021-12-17T11:30:33Z</time>
      </trkpt>
      <trkpt lat="45.27928" lon="6.13774">
        <ele>2574.8</ele>
        <time>2021-12-17T11:30:39Z</time>
      </trkpt>
      <trkpt lat="45.27927" lon="6.13775">
        <ele>2574.8</ele>
        <time>2021-12-17T11:30:40Z</time>
      </trkpt>
      <trkpt lat="45.27925" lon="6.13772">
        <ele>2575.8</ele>
        <time>2021-12-17T11:30:46Z</time>
      </trkpt>
      <trkpt lat="45.27925" lon="6.13765">
        <ele>2576.8</ele>
        <time>2021-12-17T11:30:52Z</time>
      </trkpt>
      <trkpt lat="45.27925" lon="6.13762">
        <ele>2577.2</ele>
        <time>2021-12-17T11:30:54Z</time>
      </trkpt>
      <trkpt lat="45.27924" lon="6.13761">
        <ele>2577.4</ele>
        <time>2021-12-17T11:30:55Z</time>
      </trkpt>
      <trkpt lat="45.27924" lon="6.13758">
        <ele>2577.8</ele>
        <time>2021-12-17T11:30:57Z</time>
      </trkpt>
      <trkpt lat="45.27924" lon="6.13756">
        <ele>2578</ele>
        <time>2021-12-17T11:30:58Z</time>
      </trkpt>
      <trkpt lat="45.27923" lon="6.13752">
        <ele>2578.4</ele>
        <time>2021-12-17T11:31:01Z</time>
      </trkpt>
      <trkpt lat="45.27922" lon="6.1375">
        <ele>2578.6</ele>
        <time>2021-12-17T11:31:03Z</time>
      </trkpt>
      <trkpt lat="45.27922" lon="6.13747">
        <ele>2579.2</ele>
        <time>2021-12-17T11:31:05Z</time>
      </trkpt>
      <trkpt lat="45.27923" lon="6.13744">
        <ele>2580</ele>
        <time>2021-12-17T11:31:08Z</time>
      </trkpt>
      <trkpt lat="45.27922" lon="6.13742">
        <ele>2580.4</ele>
        <time>2021-12-17T11:31:10Z</time>
      </trkpt>
      <trkpt lat="45.27922" lon="6.13743">
        <ele>2581.4</ele>
        <time>2021-12-17T11:31:14Z</time>
      </trkpt>
      <trkpt lat="45.27922" lon="6.13744">
        <ele>2581.4</ele>
        <time>2021-12-17T11:31:15Z</time>
      </trkpt>
      <trkpt lat="45.27919" lon="6.13748">
        <ele>2582.4</ele>
        <time>2021-12-17T11:31:20Z</time>
      </trkpt>
      <trkpt lat="45.27918" lon="6.13749">
        <ele>2582.6</ele>
        <time>2021-12-17T11:31:21Z</time>
      </trkpt>
      <trkpt lat="45.27915" lon="6.13754">
        <ele>2583.8</ele>
        <time>2021-12-17T11:31:26Z</time>
      </trkpt>
      <trkpt lat="45.27913" lon="6.13758">
        <ele>2584.8</ele>
        <time>2021-12-17T11:31:32Z</time>
      </trkpt>
      <trkpt lat="45.27911" lon="6.1375">
        <ele>2586</ele>
        <time>2021-12-17T11:31:39Z</time>
      </trkpt>
      <trkpt lat="45.2791" lon="6.13741">
        <ele>2586.8</ele>
        <time>2021-12-17T11:31:45Z</time>
      </trkpt>
      <trkpt lat="45.2791" lon="6.1374">
        <ele>2587</ele>
        <time>2021-12-17T11:31:46Z</time>
      </trkpt>
      <trkpt lat="45.2791" lon="6.13739">
        <ele>2587.4</ele>
        <time>2021-12-17T11:31:47Z</time>
      </trkpt>
      <trkpt lat="45.27911" lon="6.13735">
        <ele>2588.2</ele>
        <time>2021-12-17T11:31:50Z</time>
      </trkpt>
      <trkpt lat="45.27911" lon="6.13729">
        <ele>2588.6</ele>
        <time>2021-12-17T11:31:54Z</time>
      </trkpt>
      <trkpt lat="45.27912" lon="6.13728">
        <ele>2589.2</ele>
        <time>2021-12-17T11:31:57Z</time>
      </trkpt>
      <trkpt lat="45.27911" lon="6.13728">
        <ele>2589.2</ele>
        <time>2021-12-17T11:31:59Z</time>
      </trkpt>
      <trkpt lat="45.27908" lon="6.1373">
        <ele>2590.4</ele>
        <time>2021-12-17T11:32:04Z</time>
      </trkpt>
      <trkpt lat="45.27907" lon="6.1373">
        <ele>2590.6</ele>
        <time>2021-12-17T11:32:05Z</time>
      </trkpt>
      <trkpt lat="45.27904" lon="6.13734">
        <ele>2591.6</ele>
        <time>2021-12-17T11:32:09Z</time>
      </trkpt>
      <trkpt lat="45.27901" lon="6.13739">
        <ele>2592.6</ele>
        <time>2021-12-17T11:32:14Z</time>
      </trkpt>
      <trkpt lat="45.27902" lon="6.1374">
        <ele>2592.8</ele>
        <time>2021-12-17T11:32:15Z</time>
      </trkpt>
      <trkpt lat="45.27902" lon="6.13742">
        <ele>2593.6</ele>
        <time>2021-12-17T11:32:22Z</time>
      </trkpt>
      <trkpt lat="45.27902" lon="6.13741">
        <ele>2594</ele>
        <time>2021-12-17T11:32:28Z</time>
      </trkpt>
      <trkpt lat="45.279" lon="6.13734">
        <ele>2595</ele>
        <time>2021-12-17T11:32:35Z</time>
      </trkpt>
      <trkpt lat="45.279" lon="6.13732">
        <ele>2595.2</ele>
        <time>2021-12-17T11:32:36Z</time>
      </trkpt>
      <trkpt lat="45.27899" lon="6.13724">
        <ele>2596.2</ele>
        <time>2021-12-17T11:32:43Z</time>
      </trkpt>
      <trkpt lat="45.27899" lon="6.13723">
        <ele>2596.4</ele>
        <time>2021-12-17T11:32:44Z</time>
      </trkpt>
      <trkpt lat="45.27898" lon="6.13719">
        <ele>2597.4</ele>
        <time>2021-12-17T11:32:48Z</time>
      </trkpt>
      <trkpt lat="45.27899" lon="6.13717">
        <ele>2597.6</ele>
        <time>2021-12-17T11:32:50Z</time>
      </trkpt>
      <trkpt lat="45.279" lon="6.13715">
        <ele>2598.6</ele>
        <time>2021-12-17T11:32:53Z</time>
      </trkpt>
      <trkpt lat="45.279" lon="6.13714">
        <ele>2598.8</ele>
        <time>2021-12-17T11:32:54Z</time>
      </trkpt>
      <trkpt lat="45.27901" lon="6.13708">
        <ele>2599.6</ele>
        <time>2021-12-17T11:33:00Z</time>
      </trkpt>
      <trkpt lat="45.27902" lon="6.13708">
        <ele>2599.8</ele>
        <time>2021-12-17T11:33:01Z</time>
      </trkpt>
      <trkpt lat="45.279" lon="6.1371">
        <ele>2600.6</ele>
        <time>2021-12-17T11:33:05Z</time>
      </trkpt>
      <trkpt lat="45.27898" lon="6.1371">
        <ele>2601.2</ele>
        <time>2021-12-17T11:33:09Z</time>
      </trkpt>
      <trkpt lat="45.27897" lon="6.13711">
        <ele>2602</ele>
        <time>2021-12-17T11:33:12Z</time>
      </trkpt>
      <trkpt lat="45.27896" lon="6.13713">
        <ele>2602.2</ele>
        <time>2021-12-17T11:33:13Z</time>
      </trkpt>
      <trkpt lat="45.27894" lon="6.13715">
        <ele>2603.2</ele>
        <time>2021-12-17T11:33:18Z</time>
      </trkpt>
      <trkpt lat="45.27894" lon="6.13715">
        <ele>2603.2</ele>
        <time>2021-12-17T11:33:19Z</time>
      </trkpt>
      <trkpt lat="45.27893" lon="6.13713">
        <ele>2604</ele>
        <time>2021-12-17T11:33:24Z</time>
      </trkpt>
      <trkpt lat="45.27893" lon="6.13709">
        <ele>2604.4</ele>
        <time>2021-12-17T11:33:28Z</time>
      </trkpt>
      <trkpt lat="45.27893" lon="6.13704">
        <ele>2605.4</ele>
        <time>2021-12-17T11:33:34Z</time>
      </trkpt>
      <trkpt lat="45.27893" lon="6.13704">
        <ele>2605.8</ele>
        <time>2021-12-17T11:33:35Z</time>
      </trkpt>
      <trkpt lat="45.27893" lon="6.13699">
        <ele>2606.8</ele>
        <time>2021-12-17T11:33:40Z</time>
      </trkpt>
      <trkpt lat="45.27893" lon="6.13696">
        <ele>2607.2</ele>
        <time>2021-12-17T11:33:42Z</time>
      </trkpt>
      <trkpt lat="45.27894" lon="6.13692">
        <ele>2607.8</ele>
        <time>2021-12-17T11:33:46Z</time>
      </trkpt>
      <trkpt lat="45.27895" lon="6.13691">
        <ele>2608.4</ele>
        <time>2021-12-17T11:33:48Z</time>
      </trkpt>
      <trkpt lat="45.27895" lon="6.13689">
        <ele>2609</ele>
        <time>2021-12-17T11:33:50Z</time>
      </trkpt>
      <trkpt lat="45.27896" lon="6.13682">
        <ele>2610</ele>
        <time>2021-12-17T11:33:57Z</time>
      </trkpt>
      <trkpt lat="45.27896" lon="6.13681">
        <ele>2610.2</ele>
        <time>2021-12-17T11:33:58Z</time>
      </trkpt>
      <trkpt lat="45.27896" lon="6.13674">
        <ele>2611.4</ele>
        <time>2021-12-17T11:34:04Z</time>
      </trkpt>
      <trkpt lat="45.27896" lon="6.13672">
        <ele>2611.6</ele>
        <time>2021-12-17T11:34:06Z</time>
      </trkpt>
      <trkpt lat="45.27897" lon="6.13665">
        <ele>2612.6</ele>
        <time>2021-12-17T11:34:11Z</time>
      </trkpt>
      <trkpt lat="45.27896" lon="6.13662">
        <ele>2613.2</ele>
        <time>2021-12-17T11:34:14Z</time>
      </trkpt>
      <trkpt lat="45.27896" lon="6.13659">
        <ele>2613.8</ele>
        <time>2021-12-17T11:34:17Z</time>
      </trkpt>
      <trkpt lat="45.27896" lon="6.13653">
        <ele>2614.8</ele>
        <time>2021-12-17T11:34:22Z</time>
      </trkpt>
      <trkpt lat="45.27897" lon="6.13652">
        <ele>2615</ele>
        <time>2021-12-17T11:34:23Z</time>
      </trkpt>
      <trkpt lat="45.27896" lon="6.13653">
        <ele>2615.6</ele>
        <time>2021-12-17T11:34:28Z</time>
      </trkpt>
      <trkpt lat="45.27895" lon="6.13655">
        <ele>2616.2</ele>
        <time>2021-12-17T11:34:30Z</time>
      </trkpt>
      <trkpt lat="45.27894" lon="6.13656">
        <ele>2616.8</ele>
        <time>2021-12-17T11:34:33Z</time>
      </trkpt>
      <trkpt lat="45.27892" lon="6.13658">
        <ele>2617.4</ele>
        <time>2021-12-17T11:34:36Z</time>
      </trkpt>
      <trkpt lat="45.2789" lon="6.13662">
        <ele>2618.4</ele>
        <time>2021-12-17T11:34:40Z</time>
      </trkpt>
      <trkpt lat="45.27888" lon="6.13665">
        <ele>2619.6</ele>
        <time>2021-12-17T11:34:45Z</time>
      </trkpt>
      <trkpt lat="45.27888" lon="6.13662">
        <ele>2619.8</ele>
        <time>2021-12-17T11:34:48Z</time>
      </trkpt>
      <trkpt lat="45.27887" lon="6.13656">
        <ele>2620.6</ele>
        <time>2021-12-17T11:34:53Z</time>
      </trkpt>
      <trkpt lat="45.27886" lon="6.13652">
        <ele>2620.8</ele>
        <time>2021-12-17T11:34:56Z</time>
      </trkpt>
      <trkpt lat="45.27886" lon="6.13648">
        <ele>2621.6</ele>
        <time>2021-12-17T11:34:59Z</time>
      </trkpt>
      <trkpt lat="45.27886" lon="6.13641">
        <ele>2622.6</ele>
        <time>2021-12-17T11:35:05Z</time>
      </trkpt>
      <trkpt lat="45.27887" lon="6.13637">
        <ele>2623.8</ele>
        <time>2021-12-17T11:35:09Z</time>
      </trkpt>
      <trkpt lat="45.27889" lon="6.13635">
        <ele>2624.2</ele>
        <time>2021-12-17T11:35:12Z</time>
      </trkpt>
      <trkpt lat="45.27889" lon="6.13635">
        <ele>2624.8</ele>
        <time>2021-12-17T11:35:16Z</time>
      </trkpt>
      <trkpt lat="45.27889" lon="6.13635">
        <ele>2625</ele>
        <time>2021-12-17T11:35:18Z</time>
      </trkpt>
      <trkpt lat="45.27887" lon="6.13636">
        <ele>2626</ele>
        <time>2021-12-17T11:35:22Z</time>
      </trkpt>
      <trkpt lat="45.27884" lon="6.13635">
        <ele>2626.4</ele>
        <time>2021-12-17T11:35:25Z</time>
      </trkpt>
      <trkpt lat="45.27883" lon="6.13636">
        <ele>2627</ele>
        <time>2021-12-17T11:35:27Z</time>
      </trkpt>
      <trkpt lat="45.2788" lon="6.13638">
        <ele>2628.2</ele>
        <time>2021-12-17T11:35:32Z</time>
      </trkpt>
      <trkpt lat="45.27878" lon="6.13639">
        <ele>2629.2</ele>
        <time>2021-12-17T11:35:36Z</time>
      </trkpt>
      <trkpt lat="45.27878" lon="6.13637">
        <ele>2629.8</ele>
        <time>2021-12-17T11:35:38Z</time>
      </trkpt>
      <trkpt lat="45.27878" lon="6.13629">
        <ele>2630.4</ele>
        <time>2021-12-17T11:35:44Z</time>
      </trkpt>
      <trkpt lat="45.27878" lon="6.13624">
        <ele>2631.6</ele>
        <time>2021-12-17T11:35:48Z</time>
      </trkpt>
      <trkpt lat="45.2788" lon="6.1362">
        <ele>2632.2</ele>
        <time>2021-12-17T11:35:51Z</time>
      </trkpt>
      <trkpt lat="45.27882" lon="6.13618">
        <ele>2632.6</ele>
        <time>2021-12-17T11:35:53Z</time>
      </trkpt>
      <trkpt lat="45.27884" lon="6.13616">
        <ele>2633.4</ele>
        <time>2021-12-17T11:35:58Z</time>
      </trkpt>
      <trkpt lat="45.27884" lon="6.13617">
        <ele>2633.6</ele>
        <time>2021-12-17T11:36:01Z</time>
      </trkpt>
      <trkpt lat="45.27881" lon="6.13616">
        <ele>2634.4</ele>
        <time>2021-12-17T11:36:05Z</time>
      </trkpt>
      <trkpt lat="45.2788" lon="6.13616">
        <ele>2634.8</ele>
        <time>2021-12-17T11:36:07Z</time>
      </trkpt>
      <trkpt lat="45.27874" lon="6.13616">
        <ele>2636</ele>
        <time>2021-12-17T11:36:14Z</time>
      </trkpt>
      <trkpt lat="45.27871" lon="6.13616">
        <ele>2637.2</ele>
        <time>2021-12-17T11:36:19Z</time>
      </trkpt>
      <trkpt lat="45.2787" lon="6.13617">
        <ele>2637.4</ele>
        <time>2021-12-17T11:36:21Z</time>
      </trkpt>
      <trkpt lat="45.2787" lon="6.13619">
        <ele>2638.2</ele>
        <time>2021-12-17T11:36:23Z</time>
      </trkpt>
      <trkpt lat="45.27868" lon="6.13618">
        <ele>2639.2</ele>
        <time>2021-12-17T11:36:28Z</time>
      </trkpt>
      <trkpt lat="45.27868" lon="6.13615">
        <ele>2639.4</ele>
        <time>2021-12-17T11:36:30Z</time>
      </trkpt>
      <trkpt lat="45.27867" lon="6.13611">
        <ele>2639.8</ele>
        <time>2021-12-17T11:36:33Z</time>
      </trkpt>
      <trkpt lat="45.27868" lon="6.13606">
        <ele>2640.4</ele>
        <time>2021-12-17T11:36:37Z</time>
      </trkpt>
      <trkpt lat="45.27869" lon="6.13604">
        <ele>2640.6</ele>
        <time>2021-12-17T11:36:39Z</time>
      </trkpt>
      <trkpt lat="45.2787" lon="6.13602">
        <ele>2641</ele>
        <time>2021-12-17T11:36:41Z</time>
      </trkpt>
      <trkpt lat="45.2787" lon="6.13602">
        <ele>2641.6</ele>
        <time>2021-12-17T11:36:46Z</time>
      </trkpt>
      <trkpt lat="45.27866" lon="6.13602">
        <ele>2642.6</ele>
        <time>2021-12-17T11:36:52Z</time>
      </trkpt>
      <trkpt lat="45.27865" lon="6.13602">
        <ele>2643</ele>
        <time>2021-12-17T11:36:53Z</time>
      </trkpt>
      <trkpt lat="45.27862" lon="6.13602">
        <ele>2644.2</ele>
        <time>2021-12-17T11:36:58Z</time>
      </trkpt>
      <trkpt lat="45.2786" lon="6.13603">
        <ele>2644.6</ele>
        <time>2021-12-17T11:37:00Z</time>
      </trkpt>
      <trkpt lat="45.2786" lon="6.13606">
        <ele>2645.4</ele>
        <time>2021-12-17T11:37:04Z</time>
      </trkpt>
      <trkpt lat="45.27859" lon="6.13608">
        <ele>2645.8</ele>
        <time>2021-12-17T11:37:06Z</time>
      </trkpt>
      <trkpt lat="45.27857" lon="6.13608">
        <ele>2646.4</ele>
        <time>2021-12-17T11:37:12Z</time>
      </trkpt>
      <trkpt lat="45.27856" lon="6.13607">
        <ele>2646.6</ele>
        <time>2021-12-17T11:37:13Z</time>
      </trkpt>
      <trkpt lat="45.27855" lon="6.13601">
        <ele>2647.6</ele>
        <time>2021-12-17T11:37:18Z</time>
      </trkpt>
      <trkpt lat="45.27855" lon="6.13598">
        <ele>2648.2</ele>
        <time>2021-12-17T11:37:21Z</time>
      </trkpt>
      <trkpt lat="45.27856" lon="6.13594">
        <ele>2648.6</ele>
        <time>2021-12-17T11:37:24Z</time>
      </trkpt>
      <trkpt lat="45.27857" lon="6.1359">
        <ele>2649.6</ele>
        <time>2021-12-17T11:37:30Z</time>
      </trkpt>
      <trkpt lat="45.27857" lon="6.13591">
        <ele>2649.8</ele>
        <time>2021-12-17T11:37:32Z</time>
      </trkpt>
      <trkpt lat="45.27854" lon="6.1359">
        <ele>2650.8</ele>
        <time>2021-12-17T11:37:36Z</time>
      </trkpt>
      <trkpt lat="45.27853" lon="6.1359">
        <ele>2650.8</ele>
        <time>2021-12-17T11:37:37Z</time>
      </trkpt>
      <trkpt lat="45.27851" lon="6.13591">
        <ele>2651.6</ele>
        <time>2021-12-17T11:37:41Z</time>
      </trkpt>
      <trkpt lat="45.2785" lon="6.13592">
        <ele>2651.8</ele>
        <time>2021-12-17T11:37:42Z</time>
      </trkpt>
      <trkpt lat="45.27847" lon="6.13592">
        <ele>2653</ele>
        <time>2021-12-17T11:37:49Z</time>
      </trkpt>
      <trkpt lat="45.27847" lon="6.13587">
        <ele>2654</ele>
        <time>2021-12-17T11:37:55Z</time>
      </trkpt>
      <trkpt lat="45.27848" lon="6.13583">
        <ele>2654.4</ele>
        <time>2021-12-17T11:37:58Z</time>
      </trkpt>
      <trkpt lat="45.27848" lon="6.13578">
        <ele>2655.2</ele>
        <time>2021-12-17T11:38:02Z</time>
      </trkpt>
      <trkpt lat="45.2785" lon="6.13573">
        <ele>2656.2</ele>
        <time>2021-12-17T11:38:07Z</time>
      </trkpt>
      <trkpt lat="45.2785" lon="6.13572">
        <ele>2656.4</ele>
        <time>2021-12-17T11:38:08Z</time>
      </trkpt>
      <trkpt lat="45.27852" lon="6.13568">
        <ele>2657.6</ele>
        <time>2021-12-17T11:38:12Z</time>
      </trkpt>
      <trkpt lat="45.27855" lon="6.1356">
        <ele>2658.6</ele>
        <time>2021-12-17T11:38:17Z</time>
      </trkpt>
      <trkpt lat="45.27855" lon="6.13559">
        <ele>2659</ele>
        <time>2021-12-17T11:38:18Z</time>
      </trkpt>
      <trkpt lat="45.27853" lon="6.13558">
        <ele>2659.8</ele>
        <time>2021-12-17T11:38:22Z</time>
      </trkpt>
      <trkpt lat="45.27853" lon="6.13557">
        <ele>2660.2</ele>
        <time>2021-12-17T11:38:24Z</time>
      </trkpt>
      <trkpt lat="45.27853" lon="6.13554">
        <ele>2661</ele>
        <time>2021-12-17T11:38:27Z</time>
      </trkpt>
      <trkpt lat="45.27851" lon="6.1355">
        <ele>2661.8</ele>
        <time>2021-12-17T11:38:31Z</time>
      </trkpt>
      <trkpt lat="45.27851" lon="6.13547">
        <ele>2662</ele>
        <time>2021-12-17T11:38:33Z</time>
      </trkpt>
      <trkpt lat="45.27852" lon="6.13541">
        <ele>2663.4</ele>
        <time>2021-12-17T11:38:38Z</time>
      </trkpt>
      <trkpt lat="45.27854" lon="6.13536">
        <ele>2664.2</ele>
        <time>2021-12-17T11:38:43Z</time>
      </trkpt>
      <trkpt lat="45.27854" lon="6.13535">
        <ele>2664.4</ele>
        <time>2021-12-17T11:38:44Z</time>
      </trkpt>
      <trkpt lat="45.27855" lon="6.1353">
        <ele>2665.6</ele>
        <time>2021-12-17T11:38:48Z</time>
      </trkpt>
      <trkpt lat="45.27856" lon="6.13528">
        <ele>2666.2</ele>
        <time>2021-12-17T11:38:51Z</time>
      </trkpt>
      <trkpt lat="45.27857" lon="6.13525">
        <ele>2666.8</ele>
        <time>2021-12-17T11:38:55Z</time>
      </trkpt>
      <trkpt lat="45.27858" lon="6.13522">
        <ele>2667.4</ele>
        <time>2021-12-17T11:38:58Z</time>
      </trkpt>
      <trkpt lat="45.27859" lon="6.13519">
        <ele>2667.8</ele>
        <time>2021-12-17T11:39:00Z</time>
      </trkpt>
      <trkpt lat="45.2786" lon="6.13513">
        <ele>2668.8</ele>
        <time>2021-12-17T11:39:05Z</time>
      </trkpt>
      <trkpt lat="45.27861" lon="6.13512">
        <ele>2669</ele>
        <time>2021-12-17T11:39:06Z</time>
      </trkpt>
      <trkpt lat="45.27862" lon="6.13507">
        <ele>2670</ele>
        <time>2021-12-17T11:39:10Z</time>
      </trkpt>
      <trkpt lat="45.27862" lon="6.13506">
        <ele>2670.4</ele>
        <time>2021-12-17T11:39:12Z</time>
      </trkpt>
      <trkpt lat="45.27863" lon="6.13501">
        <ele>2671.2</ele>
        <time>2021-12-17T11:39:16Z</time>
      </trkpt>
      <trkpt lat="45.27863" lon="6.13499">
        <ele>2672</ele>
        <time>2021-12-17T11:39:19Z</time>
      </trkpt>
      <trkpt lat="45.27863" lon="6.13497">
        <ele>2672.2</ele>
        <time>2021-12-17T11:39:21Z</time>
      </trkpt>
      <trkpt lat="45.27864" lon="6.13493">
        <ele>2673.4</ele>
        <time>2021-12-17T11:39:25Z</time>
      </trkpt>
      <trkpt lat="45.27863" lon="6.13492">
        <ele>2674</ele>
        <time>2021-12-17T11:39:27Z</time>
      </trkpt>
      <trkpt lat="45.27861" lon="6.13491">
        <ele>2674.6</ele>
        <time>2021-12-17T11:39:31Z</time>
      </trkpt>
      <trkpt lat="45.27859" lon="6.13489">
        <ele>2675.6</ele>
        <time>2021-12-17T11:39:34Z</time>
      </trkpt>
      <trkpt lat="45.27858" lon="6.13488">
        <ele>2675.8</ele>
        <time>2021-12-17T11:39:35Z</time>
      </trkpt>
      <trkpt lat="45.27856" lon="6.13487">
        <ele>2676.4</ele>
        <time>2021-12-17T11:39:38Z</time>
      </trkpt>
      <trkpt lat="45.27854" lon="6.13487">
        <ele>2676.8</ele>
        <time>2021-12-17T11:39:40Z</time>
      </trkpt>
      <trkpt lat="45.27853" lon="6.13487">
        <ele>2677.2</ele>
        <time>2021-12-17T11:39:42Z</time>
      </trkpt>
      <trkpt lat="45.2785" lon="6.13488">
        <ele>2677.8</ele>
        <time>2021-12-17T11:39:46Z</time>
      </trkpt>
      <trkpt lat="45.27848" lon="6.13489">
        <ele>2678.2</ele>
        <time>2021-12-17T11:39:49Z</time>
      </trkpt>
      <trkpt lat="45.27845" lon="6.1349">
        <ele>2679</ele>
        <time>2021-12-17T11:39:53Z</time>
      </trkpt>
      <trkpt lat="45.27844" lon="6.1349">
        <ele>2679.8</ele>
        <time>2021-12-17T11:39:56Z</time>
      </trkpt>
      <trkpt lat="45.27843" lon="6.1349">
        <ele>2680.2</ele>
        <time>2021-12-17T11:39:57Z</time>
      </trkpt>
      <trkpt lat="45.27841" lon="6.1349">
        <ele>2681.2</ele>
        <time>2021-12-17T11:40:00Z</time>
      </trkpt>
      <trkpt lat="45.27838" lon="6.1349">
        <ele>2682.2</ele>
        <time>2021-12-17T11:40:04Z</time>
      </trkpt>
      <trkpt lat="45.27837" lon="6.13489">
        <ele>2682.4</ele>
        <time>2021-12-17T11:40:05Z</time>
      </trkpt>
      <trkpt lat="45.27834" lon="6.13487">
        <ele>2683.6</ele>
        <time>2021-12-17T11:40:10Z</time>
      </trkpt>
      <trkpt lat="45.27832" lon="6.13487">
        <ele>2684.2</ele>
        <time>2021-12-17T11:40:12Z</time>
      </trkpt>
      <trkpt lat="45.2783" lon="6.13486">
        <ele>2684.8</ele>
        <time>2021-12-17T11:40:15Z</time>
      </trkpt>
      <trkpt lat="45.27828" lon="6.13485">
        <ele>2685.6</ele>
        <time>2021-12-17T11:40:18Z</time>
      </trkpt>
      <trkpt lat="45.27827" lon="6.13484">
        <ele>2685.8</ele>
        <time>2021-12-17T11:40:19Z</time>
      </trkpt>
      <trkpt lat="45.27824" lon="6.13482">
        <ele>2687</ele>
        <time>2021-12-17T11:40:23Z</time>
      </trkpt>
      <trkpt lat="45.27823" lon="6.13481">
        <ele>2687</ele>
        <time>2021-12-17T11:40:24Z</time>
      </trkpt>
      <trkpt lat="45.27821" lon="6.13479">
        <ele>2687.4</ele>
        <time>2021-12-17T11:40:26Z</time>
      </trkpt>
      <trkpt lat="45.27818" lon="6.13476">
        <ele>2688.2</ele>
        <time>2021-12-17T11:40:30Z</time>
      </trkpt>
      <trkpt lat="45.27817" lon="6.13475">
        <ele>2688.4</ele>
        <time>2021-12-17T11:40:31Z</time>
      </trkpt>
      <trkpt lat="45.27816" lon="6.13474">
        <ele>2689</ele>
        <time>2021-12-17T11:40:33Z</time>
      </trkpt>
      <trkpt lat="45.27815" lon="6.13473">
        <ele>2689.4</ele>
        <time>2021-12-17T11:40:34Z</time>
      </trkpt>
      <trkpt lat="45.27813" lon="6.13466">
        <ele>2690.4</ele>
        <time>2021-12-17T11:40:40Z</time>
      </trkpt>
      <trkpt lat="45.27813" lon="6.13464">
        <ele>2690.4</ele>
        <time>2021-12-17T11:40:41Z</time>
      </trkpt>
      <trkpt lat="45.27811" lon="6.13461">
        <ele>2691.6</ele>
        <time>2021-12-17T11:40:45Z</time>
      </trkpt>
      <trkpt lat="45.27809" lon="6.13457">
        <ele>2692.4</ele>
        <time>2021-12-17T11:40:49Z</time>
      </trkpt>
      <trkpt lat="45.27808" lon="6.13456">
        <ele>2692.6</ele>
        <time>2021-12-17T11:40:50Z</time>
      </trkpt>
      <trkpt lat="45.27806" lon="6.13451">
        <ele>2693.8</ele>
        <time>2021-12-17T11:40:55Z</time>
      </trkpt>
      <trkpt lat="45.27806" lon="6.13449">
        <ele>2694</ele>
        <time>2021-12-17T11:40:56Z</time>
      </trkpt>
      <trkpt lat="45.27806" lon="6.13446">
        <ele>2695.2</ele>
        <time>2021-12-17T11:40:59Z</time>
      </trkpt>
      <trkpt lat="45.27805" lon="6.13443">
        <ele>2696</ele>
        <time>2021-12-17T11:41:02Z</time>
      </trkpt>
      <trkpt lat="45.27805" lon="6.13442">
        <ele>2696.2</ele>
        <time>2021-12-17T11:41:03Z</time>
      </trkpt>
      <trkpt lat="45.27804" lon="6.13436">
        <ele>2697.2</ele>
        <time>2021-12-17T11:41:08Z</time>
      </trkpt>
      <trkpt lat="45.27803" lon="6.13431">
        <ele>2698.4</ele>
        <time>2021-12-17T11:41:12Z</time>
      </trkpt>
      <trkpt lat="45.27802" lon="6.13426">
        <ele>2699.4</ele>
        <time>2021-12-17T11:41:16Z</time>
      </trkpt>
      <trkpt lat="45.27799" lon="6.13417">
        <ele>2700.6</ele>
        <time>2021-12-17T11:41:23Z</time>
      </trkpt>
      <trkpt lat="45.27798" lon="6.13412">
        <ele>2701</ele>
        <time>2021-12-17T11:41:27Z</time>
      </trkpt>
      <trkpt lat="45.27798" lon="6.13408">
        <ele>2701.4</ele>
        <time>2021-12-17T11:41:30Z</time>
      </trkpt>
      <trkpt lat="45.27799" lon="6.13407">
        <ele>2701.6</ele>
        <time>2021-12-17T11:41:31Z</time>
      </trkpt>
      <trkpt lat="45.27799" lon="6.13401">
        <ele>2702.8</ele>
        <time>2021-12-17T11:41:36Z</time>
      </trkpt>
      <trkpt lat="45.27799" lon="6.13398">
        <ele>2703</ele>
        <time>2021-12-17T11:41:38Z</time>
      </trkpt>
      <trkpt lat="45.278" lon="6.13394">
        <ele>2703.8</ele>
        <time>2021-12-17T11:41:41Z</time>
      </trkpt>
      <trkpt lat="45.27801" lon="6.13389">
        <ele>2704.8</ele>
        <time>2021-12-17T11:41:45Z</time>
      </trkpt>
      <trkpt lat="45.27802" lon="6.13388">
        <ele>2705</ele>
        <time>2021-12-17T11:41:46Z</time>
      </trkpt>
      <trkpt lat="45.27803" lon="6.13383">
        <ele>2705.8</ele>
        <time>2021-12-17T11:41:50Z</time>
      </trkpt>
      <trkpt lat="45.27805" lon="6.13376">
        <ele>2706.8</ele>
        <time>2021-12-17T11:41:55Z</time>
      </trkpt>
      <trkpt lat="45.27808" lon="6.1337">
        <ele>2707.8</ele>
        <time>2021-12-17T11:42:00Z</time>
      </trkpt>
      <trkpt lat="45.27809" lon="6.13367">
        <ele>2708.2</ele>
        <time>2021-12-17T11:42:02Z</time>
      </trkpt>
      <trkpt lat="45.27812" lon="6.13363">
        <ele>2709</ele>
        <time>2021-12-17T11:42:06Z</time>
      </trkpt>
      <trkpt lat="45.27814" lon="6.13361">
        <ele>2710</ele>
        <time>2021-12-17T11:42:09Z</time>
      </trkpt>
      <trkpt lat="45.27816" lon="6.13358">
        <ele>2711</ele>
        <time>2021-12-17T11:42:12Z</time>
      </trkpt>
      <trkpt lat="45.27817" lon="6.13357">
        <ele>2711.4</ele>
        <time>2021-12-17T11:42:13Z</time>
      </trkpt>
      <trkpt lat="45.27822" lon="6.13349">
        <ele>2712.6</ele>
        <time>2021-12-17T11:42:20Z</time>
      </trkpt>
      <trkpt lat="45.27825" lon="6.13345">
        <ele>2713.8</ele>
        <time>2021-12-17T11:42:24Z</time>
      </trkpt>
      <trkpt lat="45.27827" lon="6.13344">
        <ele>2714.6</ele>
        <time>2021-12-17T11:42:27Z</time>
      </trkpt>
      <trkpt lat="45.27827" lon="6.13342">
        <ele>2714.8</ele>
        <time>2021-12-17T11:42:32Z</time>
      </trkpt>
      <trkpt lat="45.27827" lon="6.13342">
        <ele>2715</ele>
        <time>2021-12-17T11:42:33Z</time>
      </trkpt>
      <trkpt lat="45.27823" lon="6.13342">
        <ele>2716.2</ele>
        <time>2021-12-17T11:42:39Z</time>
      </trkpt>
      <trkpt lat="45.27823" lon="6.13342">
        <ele>2716.4</ele>
        <time>2021-12-17T11:42:40Z</time>
      </trkpt>
      <trkpt lat="45.2782" lon="6.13344">
        <ele>2717.4</ele>
        <time>2021-12-17T11:42:44Z</time>
      </trkpt>
      <trkpt lat="45.27817" lon="6.13344">
        <ele>2718.2</ele>
        <time>2021-12-17T11:42:47Z</time>
      </trkpt>
      <trkpt lat="45.27817" lon="6.13343">
        <ele>2718.4</ele>
        <time>2021-12-17T11:42:48Z</time>
      </trkpt>
      <trkpt lat="45.27813" lon="6.13343">
        <ele>2719.6</ele>
        <time>2021-12-17T11:42:52Z</time>
      </trkpt>
      <trkpt lat="45.27812" lon="6.13342">
        <ele>2720</ele>
        <time>2021-12-17T11:42:54Z</time>
      </trkpt>
      <trkpt lat="45.27811" lon="6.13342">
        <ele>2720.2</ele>
        <time>2021-12-17T11:42:55Z</time>
      </trkpt>
      <trkpt lat="45.2781" lon="6.13341">
        <ele>2721</ele>
        <time>2021-12-17T11:42:57Z</time>
      </trkpt>
      <trkpt lat="45.27807" lon="6.13339">
        <ele>2722</ele>
        <time>2021-12-17T11:43:01Z</time>
      </trkpt>
      <trkpt lat="45.27803" lon="6.13338">
        <ele>2723.2</ele>
        <time>2021-12-17T11:43:07Z</time>
      </trkpt>
      <trkpt lat="45.27802" lon="6.13338">
        <ele>2723.4</ele>
        <time>2021-12-17T11:43:08Z</time>
      </trkpt>
      <trkpt lat="45.27799" lon="6.13338">
        <ele>2724.6</ele>
        <time>2021-12-17T11:43:11Z</time>
      </trkpt>
      <trkpt lat="45.27797" lon="6.13338">
        <ele>2725.6</ele>
        <time>2021-12-17T11:43:14Z</time>
      </trkpt>
      <trkpt lat="45.27796" lon="6.13336">
        <ele>2726.4</ele>
        <time>2021-12-17T11:43:17Z</time>
      </trkpt>
      <trkpt lat="45.27795" lon="6.13333">
        <ele>2727.2</ele>
        <time>2021-12-17T11:43:20Z</time>
      </trkpt>
      <trkpt lat="45.27795" lon="6.1333">
        <ele>2728.2</ele>
        <time>2021-12-17T11:43:22Z</time>
      </trkpt>
      <trkpt lat="45.27795" lon="6.13328">
        <ele>2729</ele>
        <time>2021-12-17T11:43:24Z</time>
      </trkpt>
      <trkpt lat="45.27796" lon="6.13326">
        <ele>2729.8</ele>
        <time>2021-12-17T11:43:25Z</time>
      </trkpt>
      <trkpt lat="45.27796" lon="6.13322">
        <ele>2731.6</ele>
        <time>2021-12-17T11:43:28Z</time>
      </trkpt>
      <trkpt lat="45.27797" lon="6.13319">
        <ele>2732.6</ele>
        <time>2021-12-17T11:43:32Z</time>
      </trkpt>
      <trkpt lat="45.27797" lon="6.13318">
        <ele>2732.8</ele>
        <time>2021-12-17T11:43:33Z</time>
      </trkpt>
      <trkpt lat="45.27798" lon="6.13318">
        <ele>2732.6</ele>
        <time>2021-12-17T11:43:36Z</time>
      </trkpt>
      <trkpt lat="45.27802" lon="6.13316">
        <ele>2733.6</ele>
        <time>2021-12-17T11:43:45Z</time>
      </trkpt>
      <trkpt lat="45.27809" lon="6.13312">
        <ele>2733.2</ele>
        <time>2021-12-17T11:43:51Z</time>
      </trkpt>
      <trkpt lat="45.27809" lon="6.13311">
        <ele>2732.6</ele>
        <time>2021-12-17T11:43:52Z</time>
      </trkpt>
      <trkpt lat="45.27809" lon="6.13311">
        <ele>2732</ele>
        <time>2021-12-17T11:43:57Z</time>
      </trkpt>
      <trkpt lat="45.27809" lon="6.13313">
        <ele>2732.2</ele>
        <time>2021-12-17T11:44:06Z</time>
      </trkpt>
      <trkpt lat="45.27809" lon="6.13313">
        <ele>2731.4</ele>
        <time>2021-12-17T11:44:16Z</time>
      </trkpt>
      <trkpt lat="45.27809" lon="6.13312">
        <ele>2730.4</ele>
        <time>2021-12-17T11:44:20Z</time>
      </trkpt>
      <trkpt lat="45.2781" lon="6.13312">
        <ele>2729.2</ele>
        <time>2021-12-17T11:45:08Z</time>
      </trkpt>
      <trkpt lat="45.2781" lon="6.13312">
        <ele>2728.2</ele>
        <time>2021-12-17T11:45:11Z</time>
      </trkpt>
      <trkpt lat="45.2781" lon="6.13312">
        <ele>2729.4</ele>
        <time>2021-12-17T11:45:14Z</time>
      </trkpt>
      <trkpt lat="45.27809" lon="6.13312">
        <ele>2731</ele>
        <time>2021-12-17T11:45:16Z</time>
      </trkpt>
      <trkpt lat="45.2781" lon="6.13312">
        <ele>2730.8</ele>
        <time>2021-12-17T11:46:03Z</time>
      </trkpt>
      <trkpt lat="45.2781" lon="6.13312">
        <ele>2732</ele>
        <time>2021-12-17T11:46:10Z</time>
      </trkpt>
      <trkpt lat="45.27811" lon="6.13312">
        <ele>2731</ele>
        <time>2021-12-17T11:46:17Z</time>
      </trkpt>
      <trkpt lat="45.27812" lon="6.13312">
        <ele>2729.8</ele>
        <time>2021-12-17T11:46:20Z</time>
      </trkpt>
      <trkpt lat="45.27814" lon="6.13312">
        <ele>2730.8</ele>
        <time>2021-12-17T11:46:37Z</time>
      </trkpt>
      <trkpt lat="45.27814" lon="6.13312">
        <ele>2729.8</ele>
        <time>2021-12-17T11:46:44Z</time>
      </trkpt>
      <trkpt lat="45.27814" lon="6.13312">
        <ele>2728.4</ele>
        <time>2021-12-17T11:46:46Z</time>
      </trkpt>
      <trkpt lat="45.27813" lon="6.1331">
        <ele>2729.6</ele>
        <time>2021-12-17T11:47:02Z</time>
      </trkpt>
      <trkpt lat="45.27813" lon="6.1331">
        <ele>2728.4</ele>
        <time>2021-12-17T11:47:05Z</time>
      </trkpt>
      <trkpt lat="45.27814" lon="6.13311">
        <ele>2730.2</ele>
        <time>2021-12-17T11:47:28Z</time>
      </trkpt>
      <trkpt lat="45.27814" lon="6.13311">
        <ele>2731.4</ele>
        <time>2021-12-17T11:47:41Z</time>
      </trkpt>
      <trkpt lat="45.27814" lon="6.13311">
        <ele>2730.4</ele>
        <time>2021-12-17T11:47:58Z</time>
      </trkpt>
      <trkpt lat="45.27814" lon="6.13311">
        <ele>2730.2</ele>
        <time>2021-12-17T11:48:03Z</time>
      </trkpt>
      <trkpt lat="45.27814" lon="6.13311">
        <ele>2731.6</ele>
        <time>2021-12-17T11:48:14Z</time>
      </trkpt>
      <trkpt lat="45.27813" lon="6.13311">
        <ele>2732.6</ele>
        <time>2021-12-17T11:48:26Z</time>
      </trkpt>
      <trkpt lat="45.27813" lon="6.13311">
        <ele>2730.8</ele>
        <time>2021-12-17T11:48:31Z</time>
      </trkpt>
      <trkpt lat="45.27813" lon="6.13311">
        <ele>2729.8</ele>
        <time>2021-12-17T11:48:32Z</time>
      </trkpt>
      <trkpt lat="45.27813" lon="6.13311">
        <ele>2728.6</ele>
        <time>2021-12-17T11:48:35Z</time>
      </trkpt>
      <trkpt lat="45.27818" lon="6.1332">
        <ele>2727.8</ele>
        <time>2021-12-17T11:48:38Z</time>
      </trkpt>
      <trkpt lat="45.27819" lon="6.13323">
        <ele>2726</ele>
        <time>2021-12-17T11:48:39Z</time>
      </trkpt>
      <trkpt lat="45.27821" lon="6.13327">
        <ele>2724.4</ele>
        <time>2021-12-17T11:48:41Z</time>
      </trkpt>
      <trkpt lat="45.27821" lon="6.13328">
        <ele>2723.8</ele>
        <time>2021-12-17T11:48:42Z</time>
      </trkpt>
      <trkpt lat="45.2782" lon="6.13329">
        <ele>2723.2</ele>
        <time>2021-12-17T11:48:46Z</time>
      </trkpt>
      <trkpt lat="45.27821" lon="6.13335">
        <ele>2722</ele>
        <time>2021-12-17T11:48:51Z</time>
      </trkpt>
      <trkpt lat="45.27813" lon="6.13347">
        <ele>2719.6</ele>
        <time>2021-12-17T11:48:53Z</time>
      </trkpt>
      <trkpt lat="45.27809" lon="6.13353">
        <ele>2718</ele>
        <time>2021-12-17T11:48:54Z</time>
      </trkpt>
      <trkpt lat="45.27805" lon="6.13359">
        <ele>2716.2</ele>
        <time>2021-12-17T11:48:55Z</time>
      </trkpt>
      <trkpt lat="45.27802" lon="6.13364">
        <ele>2715.2</ele>
        <time>2021-12-17T11:48:56Z</time>
      </trkpt>
      <trkpt lat="45.27803" lon="6.13376">
        <ele>2711.8</ele>
        <time>2021-12-17T11:48:58Z</time>
      </trkpt>
      <trkpt lat="45.27805" lon="6.13385">
        <ele>2708.6</ele>
        <time>2021-12-17T11:48:59Z</time>
      </trkpt>
      <trkpt lat="45.27808" lon="6.13394">
        <ele>2705</ele>
        <time>2021-12-17T11:49:00Z</time>
      </trkpt>
      <trkpt lat="45.27813" lon="6.13404">
        <ele>2702.2</ele>
        <time>2021-12-17T11:49:01Z</time>
      </trkpt>
      <trkpt lat="45.27816" lon="6.13415">
        <ele>2698.6</ele>
        <time>2021-12-17T11:49:02Z</time>
      </trkpt>
      <trkpt lat="45.27817" lon="6.13426">
        <ele>2697</ele>
        <time>2021-12-17T11:49:03Z</time>
      </trkpt>
      <trkpt lat="45.27817" lon="6.13437">
        <ele>2695.4</ele>
        <time>2021-12-17T11:49:04Z</time>
      </trkpt>
      <trkpt lat="45.27815" lon="6.1347">
        <ele>2694</ele>
        <time>2021-12-17T11:49:07Z</time>
      </trkpt>
      <trkpt lat="45.27815" lon="6.13487">
        <ele>2692.8</ele>
        <time>2021-12-17T11:49:09Z</time>
      </trkpt>
      <trkpt lat="45.27817" lon="6.13497">
        <ele>2691.6</ele>
        <time>2021-12-17T11:49:11Z</time>
      </trkpt>
      <trkpt lat="45.27818" lon="6.13501">
        <ele>2691.4</ele>
        <time>2021-12-17T11:49:12Z</time>
      </trkpt>
      <trkpt lat="45.27821" lon="6.13505">
        <ele>2690.8</ele>
        <time>2021-12-17T11:49:14Z</time>
      </trkpt>
      <trkpt lat="45.27826" lon="6.13507">
        <ele>2689.4</ele>
        <time>2021-12-17T11:49:15Z</time>
      </trkpt>
      <trkpt lat="45.2783" lon="6.1351">
        <ele>2686.8</ele>
        <time>2021-12-17T11:49:16Z</time>
      </trkpt>
      <trkpt lat="45.27834" lon="6.13514">
        <ele>2684</ele>
        <time>2021-12-17T11:49:17Z</time>
      </trkpt>
      <trkpt lat="45.27839" lon="6.13516">
        <ele>2682.4</ele>
        <time>2021-12-17T11:49:18Z</time>
      </trkpt>
      <trkpt lat="45.27843" lon="6.13522">
        <ele>2679.8</ele>
        <time>2021-12-17T11:49:19Z</time>
      </trkpt>
      <trkpt lat="45.27843" lon="6.13529">
        <ele>2676.4</ele>
        <time>2021-12-17T11:49:20Z</time>
      </trkpt>
      <trkpt lat="45.27843" lon="6.13536">
        <ele>2674.6</ele>
        <time>2021-12-17T11:49:21Z</time>
      </trkpt>
      <trkpt lat="45.27844" lon="6.13543">
        <ele>2671.8</ele>
        <time>2021-12-17T11:49:22Z</time>
      </trkpt>
      <trkpt lat="45.27846" lon="6.1355">
        <ele>2669.6</ele>
        <time>2021-12-17T11:49:23Z</time>
      </trkpt>
      <trkpt lat="45.27846" lon="6.13558">
        <ele>2666.4</ele>
        <time>2021-12-17T11:49:24Z</time>
      </trkpt>
      <trkpt lat="45.27845" lon="6.13563">
        <ele>2664</ele>
        <time>2021-12-17T11:49:25Z</time>
      </trkpt>
      <trkpt lat="45.27843" lon="6.13568">
        <ele>2662.6</ele>
        <time>2021-12-17T11:49:26Z</time>
      </trkpt>
      <trkpt lat="45.27841" lon="6.13572">
        <ele>2661.6</ele>
        <time>2021-12-17T11:49:27Z</time>
      </trkpt>
      <trkpt lat="45.27839" lon="6.13576">
        <ele>2660.4</ele>
        <time>2021-12-17T11:49:29Z</time>
      </trkpt>
      <trkpt lat="45.27841" lon="6.13576">
        <ele>2660</ele>
        <time>2021-12-17T11:49:31Z</time>
      </trkpt>
      <trkpt lat="45.27843" lon="6.13577">
        <ele>2659.8</ele>
        <time>2021-12-17T11:49:34Z</time>
      </trkpt>
      <trkpt lat="45.27843" lon="6.13578">
        <ele>2659.8</ele>
        <time>2021-12-17T11:49:36Z</time>
      </trkpt>
      <trkpt lat="45.27843" lon="6.13579">
        <ele>2659.6</ele>
        <time>2021-12-17T11:49:47Z</time>
      </trkpt>
      <trkpt lat="45.27843" lon="6.13582">
        <ele>2659.4</ele>
        <time>2021-12-17T11:49:50Z</time>
      </trkpt>
      <trkpt lat="45.27844" lon="6.1359">
        <ele>2658.2</ele>
        <time>2021-12-17T11:49:52Z</time>
      </trkpt>
      <trkpt lat="45.27848" lon="6.13591">
        <ele>2657</ele>
        <time>2021-12-17T11:49:53Z</time>
      </trkpt>
      <trkpt lat="45.27853" lon="6.13589">
        <ele>2655.6</ele>
        <time>2021-12-17T11:49:54Z</time>
      </trkpt>
      <trkpt lat="45.27856" lon="6.13588">
        <ele>2653.8</ele>
        <time>2021-12-17T11:49:55Z</time>
      </trkpt>
      <trkpt lat="45.2786" lon="6.13588">
        <ele>2652.4</ele>
        <time>2021-12-17T11:49:56Z</time>
      </trkpt>
      <trkpt lat="45.27866" lon="6.13589">
        <ele>2651.2</ele>
        <time>2021-12-17T11:49:58Z</time>
      </trkpt>
      <trkpt lat="45.27869" lon="6.13589">
        <ele>2650.8</ele>
        <time>2021-12-17T11:49:59Z</time>
      </trkpt>
      <trkpt lat="45.27873" lon="6.13588">
        <ele>2650</ele>
        <time>2021-12-17T11:50:01Z</time>
      </trkpt>
      <trkpt lat="45.27879" lon="6.13585">
        <ele>2648.8</ele>
        <time>2021-12-17T11:50:04Z</time>
      </trkpt>
      <trkpt lat="45.27883" lon="6.13582">
        <ele>2647.8</ele>
        <time>2021-12-17T11:50:08Z</time>
      </trkpt>
      <trkpt lat="45.27885" lon="6.13584">
        <ele>2647.8</ele>
        <time>2021-12-17T11:50:09Z</time>
      </trkpt>
      <trkpt lat="45.27885" lon="6.13592">
        <ele>2646.2</ele>
        <time>2021-12-17T11:50:11Z</time>
      </trkpt>
      <trkpt lat="45.27885" lon="6.13597">
        <ele>2645</ele>
        <time>2021-12-17T11:50:12Z</time>
      </trkpt>
      <trkpt lat="45.27887" lon="6.13599">
        <ele>2643.4</ele>
        <time>2021-12-17T11:50:13Z</time>
      </trkpt>
      <trkpt lat="45.27891" lon="6.136">
        <ele>2641.8</ele>
        <time>2021-12-17T11:50:14Z</time>
      </trkpt>
      <trkpt lat="45.27893" lon="6.13603">
        <ele>2639.8</ele>
        <time>2021-12-17T11:50:15Z</time>
      </trkpt>
      <trkpt lat="45.27894" lon="6.13606">
        <ele>2637.4</ele>
        <time>2021-12-17T11:50:16Z</time>
      </trkpt>
      <trkpt lat="45.27896" lon="6.13608">
        <ele>2635.6</ele>
        <time>2021-12-17T11:50:17Z</time>
      </trkpt>
      <trkpt lat="45.27898" lon="6.13607">
        <ele>2633.8</ele>
        <time>2021-12-17T11:50:18Z</time>
      </trkpt>
      <trkpt lat="45.279" lon="6.13605">
        <ele>2631.8</ele>
        <time>2021-12-17T11:50:19Z</time>
      </trkpt>
      <trkpt lat="45.27903" lon="6.13604">
        <ele>2630.4</ele>
        <time>2021-12-17T11:50:20Z</time>
      </trkpt>
      <trkpt lat="45.27906" lon="6.13606">
        <ele>2628.8</ele>
        <time>2021-12-17T11:50:21Z</time>
      </trkpt>
      <trkpt lat="45.27909" lon="6.13607">
        <ele>2626.8</ele>
        <time>2021-12-17T11:50:22Z</time>
      </trkpt>
      <trkpt lat="45.27911" lon="6.13608">
        <ele>2624.8</ele>
        <time>2021-12-17T11:50:23Z</time>
      </trkpt>
      <trkpt lat="45.27914" lon="6.13607">
        <ele>2622.6</ele>
        <time>2021-12-17T11:50:24Z</time>
      </trkpt>
      <trkpt lat="45.27917" lon="6.13609">
        <ele>2620.6</ele>
        <time>2021-12-17T11:50:25Z</time>
      </trkpt>
      <trkpt lat="45.27919" lon="6.13611">
        <ele>2618.6</ele>
        <time>2021-12-17T11:50:26Z</time>
      </trkpt>
      <trkpt lat="45.27921" lon="6.13612">
        <ele>2616.6</ele>
        <time>2021-12-17T11:50:27Z</time>
      </trkpt>
      <trkpt lat="45.27922" lon="6.13612">
        <ele>2614.8</ele>
        <time>2021-12-17T11:50:28Z</time>
      </trkpt>
      <trkpt lat="45.27924" lon="6.1361">
        <ele>2613</ele>
        <time>2021-12-17T11:50:29Z</time>
      </trkpt>
      <trkpt lat="45.27925" lon="6.13608">
        <ele>2611.6</ele>
        <time>2021-12-17T11:50:30Z</time>
      </trkpt>
      <trkpt lat="45.27928" lon="6.13606">
        <ele>2610</ele>
        <time>2021-12-17T11:50:32Z</time>
      </trkpt>
      <trkpt lat="45.27931" lon="6.1361">
        <ele>2608.4</ele>
        <time>2021-12-17T11:50:34Z</time>
      </trkpt>
      <trkpt lat="45.27933" lon="6.13611">
        <ele>2607</ele>
        <time>2021-12-17T11:50:35Z</time>
      </trkpt>
      <trkpt lat="45.27935" lon="6.1361">
        <ele>2605.8</ele>
        <time>2021-12-17T11:50:36Z</time>
      </trkpt>
      <trkpt lat="45.27937" lon="6.13608">
        <ele>2604</ele>
        <time>2021-12-17T11:50:37Z</time>
      </trkpt>
      <trkpt lat="45.27941" lon="6.13606">
        <ele>2602.2</ele>
        <time>2021-12-17T11:50:38Z</time>
      </trkpt>
      <trkpt lat="45.27945" lon="6.13607">
        <ele>2601.2</ele>
        <time>2021-12-17T11:50:39Z</time>
      </trkpt>
      <trkpt lat="45.27948" lon="6.13611">
        <ele>2599.4</ele>
        <time>2021-12-17T11:50:40Z</time>
      </trkpt>
      <trkpt lat="45.27949" lon="6.13618">
        <ele>2596.4</ele>
        <time>2021-12-17T11:50:41Z</time>
      </trkpt>
      <trkpt lat="45.27948" lon="6.13624">
        <ele>2594</ele>
        <time>2021-12-17T11:50:42Z</time>
      </trkpt>
      <trkpt lat="45.27946" lon="6.13629">
        <ele>2591.8</ele>
        <time>2021-12-17T11:50:43Z</time>
      </trkpt>
      <trkpt lat="45.27944" lon="6.13634">
        <ele>2590.8</ele>
        <time>2021-12-17T11:50:44Z</time>
      </trkpt>
      <trkpt lat="45.27939" lon="6.13647">
        <ele>2589.2</ele>
        <time>2021-12-17T11:50:46Z</time>
      </trkpt>
      <trkpt lat="45.27935" lon="6.13662">
        <ele>2588</ele>
        <time>2021-12-17T11:50:48Z</time>
      </trkpt>
      <trkpt lat="45.27933" lon="6.13669">
        <ele>2586.6</ele>
        <time>2021-12-17T11:50:49Z</time>
      </trkpt>
      <trkpt lat="45.27932" lon="6.13676">
        <ele>2585.4</ele>
        <time>2021-12-17T11:50:50Z</time>
      </trkpt>
      <trkpt lat="45.27931" lon="6.13683">
        <ele>2584.4</ele>
        <time>2021-12-17T11:50:51Z</time>
      </trkpt>
      <trkpt lat="45.27929" lon="6.1369">
        <ele>2583.8</ele>
        <time>2021-12-17T11:50:52Z</time>
      </trkpt>
      <trkpt lat="45.27927" lon="6.13702">
        <ele>2582.6</ele>
        <time>2021-12-17T11:50:54Z</time>
      </trkpt>
      <trkpt lat="45.27926" lon="6.13713">
        <ele>2581.8</ele>
        <time>2021-12-17T11:50:56Z</time>
      </trkpt>
      <trkpt lat="45.27924" lon="6.1372">
        <ele>2581.2</ele>
        <time>2021-12-17T11:50:57Z</time>
      </trkpt>
      <trkpt lat="45.27923" lon="6.13734">
        <ele>2580</ele>
        <time>2021-12-17T11:50:59Z</time>
      </trkpt>
      <trkpt lat="45.27922" lon="6.13749">
        <ele>2578.2</ele>
        <time>2021-12-17T11:51:01Z</time>
      </trkpt>
      <trkpt lat="45.27921" lon="6.13757">
        <ele>2577.2</ele>
        <time>2021-12-17T11:51:02Z</time>
      </trkpt>
      <trkpt lat="45.2792" lon="6.13763">
        <ele>2576.4</ele>
        <time>2021-12-17T11:51:03Z</time>
      </trkpt>
      <trkpt lat="45.27918" lon="6.13776">
        <ele>2575.4</ele>
        <time>2021-12-17T11:51:06Z</time>
      </trkpt>
      <trkpt lat="45.27917" lon="6.1378">
        <ele>2575.2</ele>
        <time>2021-12-17T11:51:07Z</time>
      </trkpt>
      <trkpt lat="45.27918" lon="6.13789">
        <ele>2573.8</ele>
        <time>2021-12-17T11:51:10Z</time>
      </trkpt>
      <trkpt lat="45.27922" lon="6.1379">
        <ele>2572.8</ele>
        <time>2021-12-17T11:51:11Z</time>
      </trkpt>
      <trkpt lat="45.27926" lon="6.13788">
        <ele>2570.8</ele>
        <time>2021-12-17T11:51:12Z</time>
      </trkpt>
      <trkpt lat="45.2793" lon="6.13791">
        <ele>2569</ele>
        <time>2021-12-17T11:51:13Z</time>
      </trkpt>
      <trkpt lat="45.27933" lon="6.13797">
        <ele>2566.8</ele>
        <time>2021-12-17T11:51:14Z</time>
      </trkpt>
      <trkpt lat="45.27934" lon="6.13806">
        <ele>2563.6</ele>
        <time>2021-12-17T11:51:15Z</time>
      </trkpt>
      <trkpt lat="45.27933" lon="6.13817">
        <ele>2560.8</ele>
        <time>2021-12-17T11:51:16Z</time>
      </trkpt>
      <trkpt lat="45.27933" lon="6.13826">
        <ele>2559.4</ele>
        <time>2021-12-17T11:51:17Z</time>
      </trkpt>
      <trkpt lat="45.27935" lon="6.13833">
        <ele>2557.4</ele>
        <time>2021-12-17T11:51:18Z</time>
      </trkpt>
      <trkpt lat="45.27939" lon="6.13834">
        <ele>2555.8</ele>
        <time>2021-12-17T11:51:19Z</time>
      </trkpt>
      <trkpt lat="45.27944" lon="6.13835">
        <ele>2553.4</ele>
        <time>2021-12-17T11:51:20Z</time>
      </trkpt>
      <trkpt lat="45.27948" lon="6.1384">
        <ele>2550.4</ele>
        <time>2021-12-17T11:51:21Z</time>
      </trkpt>
      <trkpt lat="45.27951" lon="6.13848">
        <ele>2546.6</ele>
        <time>2021-12-17T11:51:22Z</time>
      </trkpt>
      <trkpt lat="45.27951" lon="6.13856">
        <ele>2543.6</ele>
        <time>2021-12-17T11:51:23Z</time>
      </trkpt>
      <trkpt lat="45.27951" lon="6.13864">
        <ele>2541.6</ele>
        <time>2021-12-17T11:51:24Z</time>
      </trkpt>
      <trkpt lat="45.27951" lon="6.13868">
        <ele>2540.4</ele>
        <time>2021-12-17T11:51:25Z</time>
      </trkpt>
      <trkpt lat="45.2795" lon="6.13872">
        <ele>2539.4</ele>
        <time>2021-12-17T11:51:26Z</time>
      </trkpt>
      <trkpt lat="45.27949" lon="6.13876">
        <ele>2539</ele>
        <time>2021-12-17T11:51:27Z</time>
      </trkpt>
      <trkpt lat="45.27948" lon="6.13881">
        <ele>2538.4</ele>
        <time>2021-12-17T11:51:28Z</time>
      </trkpt>
      <trkpt lat="45.27947" lon="6.13889">
        <ele>2537.4</ele>
        <time>2021-12-17T11:51:29Z</time>
      </trkpt>
      <trkpt lat="45.27947" lon="6.13907">
        <ele>2536</ele>
        <time>2021-12-17T11:51:31Z</time>
      </trkpt>
      <trkpt lat="45.27948" lon="6.13922">
        <ele>2534.6</ele>
        <time>2021-12-17T11:51:33Z</time>
      </trkpt>
      <trkpt lat="45.2795" lon="6.13934">
        <ele>2532.2</ele>
        <time>2021-12-17T11:51:35Z</time>
      </trkpt>
      <trkpt lat="45.2795" lon="6.13941">
        <ele>2531</ele>
        <time>2021-12-17T11:51:36Z</time>
      </trkpt>
      <trkpt lat="45.27954" lon="6.13945">
        <ele>2529.2</ele>
        <time>2021-12-17T11:51:38Z</time>
      </trkpt>
      <trkpt lat="45.27957" lon="6.13949">
        <ele>2527.4</ele>
        <time>2021-12-17T11:51:39Z</time>
      </trkpt>
      <trkpt lat="45.27958" lon="6.13954">
        <ele>2524.8</ele>
        <time>2021-12-17T11:51:40Z</time>
      </trkpt>
      <trkpt lat="45.27958" lon="6.13961">
        <ele>2522.6</ele>
        <time>2021-12-17T11:51:41Z</time>
      </trkpt>
      <trkpt lat="45.27959" lon="6.13965">
        <ele>2521.2</ele>
        <time>2021-12-17T11:51:42Z</time>
      </trkpt>
      <trkpt lat="45.27962" lon="6.13964">
        <ele>2519.2</ele>
        <time>2021-12-17T11:51:43Z</time>
      </trkpt>
      <trkpt lat="45.27966" lon="6.13963">
        <ele>2516.8</ele>
        <time>2021-12-17T11:51:44Z</time>
      </trkpt>
      <trkpt lat="45.27971" lon="6.13963">
        <ele>2514.6</ele>
        <time>2021-12-17T11:51:45Z</time>
      </trkpt>
      <trkpt lat="45.27974" lon="6.13968">
        <ele>2512.4</ele>
        <time>2021-12-17T11:51:46Z</time>
      </trkpt>
      <trkpt lat="45.27976" lon="6.13977">
        <ele>2509.8</ele>
        <time>2021-12-17T11:51:47Z</time>
      </trkpt>
      <trkpt lat="45.27976" lon="6.13986">
        <ele>2506.4</ele>
        <time>2021-12-17T11:51:48Z</time>
      </trkpt>
      <trkpt lat="45.27975" lon="6.13996">
        <ele>2504</ele>
        <time>2021-12-17T11:51:49Z</time>
      </trkpt>
      <trkpt lat="45.27973" lon="6.14004">
        <ele>2502.8</ele>
        <time>2021-12-17T11:51:50Z</time>
      </trkpt>
      <trkpt lat="45.27973" lon="6.14017">
        <ele>2501.4</ele>
        <time>2021-12-17T11:51:52Z</time>
      </trkpt>
      <trkpt lat="45.27974" lon="6.14022">
        <ele>2501</ele>
        <time>2021-12-17T11:51:53Z</time>
      </trkpt>
      <trkpt lat="45.27975" lon="6.1403">
        <ele>2500.4</ele>
        <time>2021-12-17T11:51:55Z</time>
      </trkpt>
      <trkpt lat="45.27975" lon="6.14036">
        <ele>2499.2</ele>
        <time>2021-12-17T11:51:58Z</time>
      </trkpt>
      <trkpt lat="45.27976" lon="6.14037">
        <ele>2498.8</ele>
        <time>2021-12-17T11:52:03Z</time>
      </trkpt>
      <trkpt lat="45.27976" lon="6.14046">
        <ele>2497.4</ele>
        <time>2021-12-17T11:52:07Z</time>
      </trkpt>
      <trkpt lat="45.27971" lon="6.14057">
        <ele>2496.2</ele>
        <time>2021-12-17T11:52:09Z</time>
      </trkpt>
      <trkpt lat="45.2797" lon="6.14062">
        <ele>2495</ele>
        <time>2021-12-17T11:52:10Z</time>
      </trkpt>
      <trkpt lat="45.27969" lon="6.14071">
        <ele>2493.6</ele>
        <time>2021-12-17T11:52:12Z</time>
      </trkpt>
      <trkpt lat="45.2797" lon="6.14075">
        <ele>2493</ele>
        <time>2021-12-17T11:52:13Z</time>
      </trkpt>
      <trkpt lat="45.27973" lon="6.14078">
        <ele>2491.6</ele>
        <time>2021-12-17T11:52:14Z</time>
      </trkpt>
      <trkpt lat="45.27977" lon="6.14083">
        <ele>2489.6</ele>
        <time>2021-12-17T11:52:15Z</time>
      </trkpt>
      <trkpt lat="45.27979" lon="6.14091">
        <ele>2487.2</ele>
        <time>2021-12-17T11:52:16Z</time>
      </trkpt>
      <trkpt lat="45.27979" lon="6.14097">
        <ele>2484</ele>
        <time>2021-12-17T11:52:17Z</time>
      </trkpt>
      <trkpt lat="45.27979" lon="6.14103">
        <ele>2482.2</ele>
        <time>2021-12-17T11:52:18Z</time>
      </trkpt>
      <trkpt lat="45.27979" lon="6.14111">
        <ele>2480.6</ele>
        <time>2021-12-17T11:52:20Z</time>
      </trkpt>
      <trkpt lat="45.27977" lon="6.14122">
        <ele>2479.4</ele>
        <time>2021-12-17T11:52:23Z</time>
      </trkpt>
      <trkpt lat="45.27976" lon="6.14128">
        <ele>2478.6</ele>
        <time>2021-12-17T11:52:25Z</time>
      </trkpt>
      <trkpt lat="45.27975" lon="6.14131">
        <ele>2478.4</ele>
        <time>2021-12-17T11:52:26Z</time>
      </trkpt>
      <trkpt lat="45.27976" lon="6.14141">
        <ele>2477</ele>
        <time>2021-12-17T11:52:29Z</time>
      </trkpt>
      <trkpt lat="45.27976" lon="6.14146">
        <ele>2476.4</ele>
        <time>2021-12-17T11:52:31Z</time>
      </trkpt>
      <trkpt lat="45.27973" lon="6.1415">
        <ele>2475.8</ele>
        <time>2021-12-17T11:52:33Z</time>
      </trkpt>
      <trkpt lat="45.27972" lon="6.14152">
        <ele>2475.4</ele>
        <time>2021-12-17T11:52:36Z</time>
      </trkpt>
      <trkpt lat="45.27968" lon="6.14157">
        <ele>2474.6</ele>
        <time>2021-12-17T11:52:42Z</time>
      </trkpt>
      <trkpt lat="45.27965" lon="6.14165">
        <ele>2472.6</ele>
        <time>2021-12-17T11:52:44Z</time>
      </trkpt>
      <trkpt lat="45.27965" lon="6.1417">
        <ele>2470.8</ele>
        <time>2021-12-17T11:52:45Z</time>
      </trkpt>
      <trkpt lat="45.27963" lon="6.14176">
        <ele>2468</ele>
        <time>2021-12-17T11:52:46Z</time>
      </trkpt>
      <trkpt lat="45.2796" lon="6.1418">
        <ele>2465.2</ele>
        <time>2021-12-17T11:52:47Z</time>
      </trkpt>
      <trkpt lat="45.27957" lon="6.14184">
        <ele>2463.4</ele>
        <time>2021-12-17T11:52:48Z</time>
      </trkpt>
      <trkpt lat="45.27955" lon="6.14188">
        <ele>2462.2</ele>
        <time>2021-12-17T11:52:49Z</time>
      </trkpt>
      <trkpt lat="45.27951" lon="6.14194">
        <ele>2460.4</ele>
        <time>2021-12-17T11:52:51Z</time>
      </trkpt>
      <trkpt lat="45.27946" lon="6.142">
        <ele>2459</ele>
        <time>2021-12-17T11:52:53Z</time>
      </trkpt>
      <trkpt lat="45.27941" lon="6.14206">
        <ele>2457.6</ele>
        <time>2021-12-17T11:52:56Z</time>
      </trkpt>
      <trkpt lat="45.27941" lon="6.14208">
        <ele>2457.2</ele>
        <time>2021-12-17T11:52:57Z</time>
      </trkpt>
      <trkpt lat="45.27944" lon="6.14208">
        <ele>2456</ele>
        <time>2021-12-17T11:52:58Z</time>
      </trkpt>
      <trkpt lat="45.27947" lon="6.1421">
        <ele>2454.2</ele>
        <time>2021-12-17T11:52:59Z</time>
      </trkpt>
      <trkpt lat="45.27949" lon="6.14214">
        <ele>2453</ele>
        <time>2021-12-17T11:53:00Z</time>
      </trkpt>
      <trkpt lat="45.27948" lon="6.14219">
        <ele>2451</ele>
        <time>2021-12-17T11:53:01Z</time>
      </trkpt>
      <trkpt lat="45.27945" lon="6.14221">
        <ele>2448.4</ele>
        <time>2021-12-17T11:53:02Z</time>
      </trkpt>
      <trkpt lat="45.27941" lon="6.14223">
        <ele>2446.8</ele>
        <time>2021-12-17T11:53:03Z</time>
      </trkpt>
      <trkpt lat="45.27937" lon="6.14224">
        <ele>2445.8</ele>
        <time>2021-12-17T11:53:04Z</time>
      </trkpt>
      <trkpt lat="45.27934" lon="6.14225">
        <ele>2444.6</ele>
        <time>2021-12-17T11:53:05Z</time>
      </trkpt>
      <trkpt lat="45.27932" lon="6.14231">
        <ele>2443</ele>
        <time>2021-12-17T11:53:07Z</time>
      </trkpt>
      <trkpt lat="45.27934" lon="6.14234">
        <ele>2442.2</ele>
        <time>2021-12-17T11:53:08Z</time>
      </trkpt>
      <trkpt lat="45.27937" lon="6.14236">
        <ele>2440.8</ele>
        <time>2021-12-17T11:53:09Z</time>
      </trkpt>
      <trkpt lat="45.2794" lon="6.1424">
        <ele>2439.6</ele>
        <time>2021-12-17T11:53:10Z</time>
      </trkpt>
      <trkpt lat="45.27943" lon="6.14246">
        <ele>2438.6</ele>
        <time>2021-12-17T11:53:11Z</time>
      </trkpt>
      <trkpt lat="45.27945" lon="6.14254">
        <ele>2437.2</ele>
        <time>2021-12-17T11:53:12Z</time>
      </trkpt>
      <trkpt lat="45.27944" lon="6.14268">
        <ele>2435.8</ele>
        <time>2021-12-17T11:53:14Z</time>
      </trkpt>
      <trkpt lat="45.27941" lon="6.14275">
        <ele>2434.8</ele>
        <time>2021-12-17T11:53:16Z</time>
      </trkpt>
      <trkpt lat="45.27938" lon="6.14277">
        <ele>2434.6</ele>
        <time>2021-12-17T11:53:17Z</time>
      </trkpt>
      <trkpt lat="45.27922" lon="6.14287">
        <ele>2433.2</ele>
        <time>2021-12-17T11:53:22Z</time>
      </trkpt>
      <trkpt lat="45.27916" lon="6.14289">
        <ele>2432.4</ele>
        <time>2021-12-17T11:53:23Z</time>
      </trkpt>
      <trkpt lat="45.27911" lon="6.14288">
        <ele>2431.4</ele>
        <time>2021-12-17T11:53:24Z</time>
      </trkpt>
      <trkpt lat="45.27906" lon="6.14289">
        <ele>2430.2</ele>
        <time>2021-12-17T11:53:25Z</time>
      </trkpt>
      <trkpt lat="45.27902" lon="6.14292">
        <ele>2429.2</ele>
        <time>2021-12-17T11:53:26Z</time>
      </trkpt>
      <trkpt lat="45.27898" lon="6.14296">
        <ele>2428.2</ele>
        <time>2021-12-17T11:53:27Z</time>
      </trkpt>
      <trkpt lat="45.27892" lon="6.14298">
        <ele>2427</ele>
        <time>2021-12-17T11:53:28Z</time>
      </trkpt>
      <trkpt lat="45.27887" lon="6.14299">
        <ele>2425.8</ele>
        <time>2021-12-17T11:53:29Z</time>
      </trkpt>
      <trkpt lat="45.27881" lon="6.143">
        <ele>2424.8</ele>
        <time>2021-12-17T11:53:30Z</time>
      </trkpt>
      <trkpt lat="45.27877" lon="6.14303">
        <ele>2423.8</ele>
        <time>2021-12-17T11:53:31Z</time>
      </trkpt>
      <trkpt lat="45.27872" lon="6.14306">
        <ele>2422.6</ele>
        <time>2021-12-17T11:53:32Z</time>
      </trkpt>
      <trkpt lat="45.27867" lon="6.14305">
        <ele>2421.4</ele>
        <time>2021-12-17T11:53:33Z</time>
      </trkpt>
      <trkpt lat="45.27863" lon="6.14302">
        <ele>2420.2</ele>
        <time>2021-12-17T11:53:34Z</time>
      </trkpt>
      <trkpt lat="45.2786" lon="6.14299">
        <ele>2419.4</ele>
        <time>2021-12-17T11:53:35Z</time>
      </trkpt>
      <trkpt lat="45.27856" lon="6.14297">
        <ele>2417.2</ele>
        <time>2021-12-17T11:53:36Z</time>
      </trkpt>
      <trkpt lat="45.27851" lon="6.14296">
        <ele>2415.4</ele>
        <time>2021-12-17T11:53:37Z</time>
      </trkpt>
      <trkpt lat="45.27847" lon="6.14293">
        <ele>2413.8</ele>
        <time>2021-12-17T11:53:38Z</time>
      </trkpt>
      <trkpt lat="45.27843" lon="6.14289">
        <ele>2412.2</ele>
        <time>2021-12-17T11:53:39Z</time>
      </trkpt>
      <trkpt lat="45.2784" lon="6.14288">
        <ele>2410.6</ele>
        <time>2021-12-17T11:53:40Z</time>
      </trkpt>
      <trkpt lat="45.27839" lon="6.14288">
        <ele>2409.4</ele>
        <time>2021-12-17T11:53:41Z</time>
      </trkpt>
      <trkpt lat="45.27839" lon="6.14289">
        <ele>2408.4</ele>
        <time>2021-12-17T11:53:42Z</time>
      </trkpt>
      <trkpt lat="45.27838" lon="6.1429">
        <ele>2407.8</ele>
        <time>2021-12-17T11:53:43Z</time>
      </trkpt>
      <trkpt lat="45.27839" lon="6.14294">
        <ele>2407.2</ele>
        <time>2021-12-17T11:53:48Z</time>
      </trkpt>
      <trkpt lat="45.27831" lon="6.143">
        <ele>2406.8</ele>
        <time>2021-12-17T11:53:56Z</time>
      </trkpt>
      <trkpt lat="45.27826" lon="6.143">
        <ele>2405.4</ele>
        <time>2021-12-17T11:53:57Z</time>
      </trkpt>
      <trkpt lat="45.2782" lon="6.14301">
        <ele>2404</ele>
        <time>2021-12-17T11:53:59Z</time>
      </trkpt>
      <trkpt lat="45.27819" lon="6.14302">
        <ele>2403.4</ele>
        <time>2021-12-17T11:54:00Z</time>
      </trkpt>
      <trkpt lat="45.27818" lon="6.14304">
        <ele>2402.6</ele>
        <time>2021-12-17T11:54:01Z</time>
      </trkpt>
      <trkpt lat="45.27818" lon="6.1431">
        <ele>2401.4</ele>
        <time>2021-12-17T11:54:02Z</time>
      </trkpt>
      <trkpt lat="45.27819" lon="6.14316">
        <ele>2399.8</ele>
        <time>2021-12-17T11:54:03Z</time>
      </trkpt>
      <trkpt lat="45.27818" lon="6.14321">
        <ele>2397.4</ele>
        <time>2021-12-17T11:54:04Z</time>
      </trkpt>
      <trkpt lat="45.27815" lon="6.14324">
        <ele>2395</ele>
        <time>2021-12-17T11:54:05Z</time>
      </trkpt>
      <trkpt lat="45.27812" lon="6.14327">
        <ele>2393.2</ele>
        <time>2021-12-17T11:54:06Z</time>
      </trkpt>
      <trkpt lat="45.27808" lon="6.14331">
        <ele>2391</ele>
        <time>2021-12-17T11:54:07Z</time>
      </trkpt>
      <trkpt lat="45.27804" lon="6.14333">
        <ele>2388.8</ele>
        <time>2021-12-17T11:54:08Z</time>
      </trkpt>
      <trkpt lat="45.27801" lon="6.14336">
        <ele>2386.4</ele>
        <time>2021-12-17T11:54:09Z</time>
      </trkpt>
      <trkpt lat="45.27798" lon="6.1434">
        <ele>2384</ele>
        <time>2021-12-17T11:54:10Z</time>
      </trkpt>
      <trkpt lat="45.27794" lon="6.14342">
        <ele>2382</ele>
        <time>2021-12-17T11:54:11Z</time>
      </trkpt>
      <trkpt lat="45.27792" lon="6.14346">
        <ele>2379.8</ele>
        <time>2021-12-17T11:54:12Z</time>
      </trkpt>
      <trkpt lat="45.27789" lon="6.14351">
        <ele>2377.8</ele>
        <time>2021-12-17T11:54:13Z</time>
      </trkpt>
      <trkpt lat="45.27787" lon="6.14353">
        <ele>2376</ele>
        <time>2021-12-17T11:54:14Z</time>
      </trkpt>
      <trkpt lat="45.27784" lon="6.14355">
        <ele>2373.8</ele>
        <time>2021-12-17T11:54:15Z</time>
      </trkpt>
      <trkpt lat="45.27781" lon="6.14359">
        <ele>2371.8</ele>
        <time>2021-12-17T11:54:16Z</time>
      </trkpt>
      <trkpt lat="45.27777" lon="6.1436">
        <ele>2370.2</ele>
        <time>2021-12-17T11:54:17Z</time>
      </trkpt>
      <trkpt lat="45.27774" lon="6.14362">
        <ele>2368</ele>
        <time>2021-12-17T11:54:18Z</time>
      </trkpt>
      <trkpt lat="45.2777" lon="6.14364">
        <ele>2365.4</ele>
        <time>2021-12-17T11:54:19Z</time>
      </trkpt>
      <trkpt lat="45.27766" lon="6.14363">
        <ele>2363.2</ele>
        <time>2021-12-17T11:54:20Z</time>
      </trkpt>
      <trkpt lat="45.27762" lon="6.14363">
        <ele>2361.2</ele>
        <time>2021-12-17T11:54:21Z</time>
      </trkpt>
      <trkpt lat="45.27758" lon="6.14364">
        <ele>2358.8</ele>
        <time>2021-12-17T11:54:22Z</time>
      </trkpt>
      <trkpt lat="45.27756" lon="6.14364">
        <ele>2356.8</ele>
        <time>2021-12-17T11:54:23Z</time>
      </trkpt>
      <trkpt lat="45.27752" lon="6.14363">
        <ele>2355</ele>
        <time>2021-12-17T11:54:24Z</time>
      </trkpt>
      <trkpt lat="45.2775" lon="6.14366">
        <ele>2353</ele>
        <time>2021-12-17T11:54:25Z</time>
      </trkpt>
      <trkpt lat="45.27748" lon="6.1437">
        <ele>2351</ele>
        <time>2021-12-17T11:54:26Z</time>
      </trkpt>
      <trkpt lat="45.27745" lon="6.14375">
        <ele>2349.8</ele>
        <time>2021-12-17T11:54:27Z</time>
      </trkpt>
      <trkpt lat="45.27742" lon="6.14383">
        <ele>2348.6</ele>
        <time>2021-12-17T11:54:28Z</time>
      </trkpt>
      <trkpt lat="45.27739" lon="6.14391">
        <ele>2347.4</ele>
        <time>2021-12-17T11:54:29Z</time>
      </trkpt>
      <trkpt lat="45.27737" lon="6.14397">
        <ele>2345.4</ele>
        <time>2021-12-17T11:54:30Z</time>
      </trkpt>
      <trkpt lat="45.27736" lon="6.144">
        <ele>2344.4</ele>
        <time>2021-12-17T11:54:31Z</time>
      </trkpt>
      <trkpt lat="45.27738" lon="6.144">
        <ele>2343.2</ele>
        <time>2021-12-17T11:54:34Z</time>
      </trkpt>
      <trkpt lat="45.27738" lon="6.14404">
        <ele>2342.8</ele>
        <time>2021-12-17T11:54:42Z</time>
      </trkpt>
      <trkpt lat="45.27734" lon="6.14401">
        <ele>2341.8</ele>
        <time>2021-12-17T11:54:43Z</time>
      </trkpt>
      <trkpt lat="45.2773" lon="6.14397">
        <ele>2339.8</ele>
        <time>2021-12-17T11:54:44Z</time>
      </trkpt>
      <trkpt lat="45.27728" lon="6.14394">
        <ele>2338.4</ele>
        <time>2021-12-17T11:54:45Z</time>
      </trkpt>
      <trkpt lat="45.27726" lon="6.14392">
        <ele>2337.4</ele>
        <time>2021-12-17T11:54:46Z</time>
      </trkpt>
      <trkpt lat="45.27724" lon="6.14394">
        <ele>2336</ele>
        <time>2021-12-17T11:54:47Z</time>
      </trkpt>
      <trkpt lat="45.27723" lon="6.14396">
        <ele>2334.6</ele>
        <time>2021-12-17T11:54:48Z</time>
      </trkpt>
      <trkpt lat="45.27723" lon="6.144">
        <ele>2333.4</ele>
        <time>2021-12-17T11:54:49Z</time>
      </trkpt>
      <trkpt lat="45.27722" lon="6.14406">
        <ele>2332.2</ele>
        <time>2021-12-17T11:54:51Z</time>
      </trkpt>
      <trkpt lat="45.27721" lon="6.14407">
        <ele>2332</ele>
        <time>2021-12-17T11:54:52Z</time>
      </trkpt>
      <trkpt lat="45.27719" lon="6.14407">
        <ele>2331.4</ele>
        <time>2021-12-17T11:54:53Z</time>
      </trkpt>
      <trkpt lat="45.27716" lon="6.14405">
        <ele>2330.6</ele>
        <time>2021-12-17T11:54:54Z</time>
      </trkpt>
      <trkpt lat="45.27714" lon="6.14403">
        <ele>2328.6</ele>
        <time>2021-12-17T11:54:55Z</time>
      </trkpt>
      <trkpt lat="45.27712" lon="6.14402">
        <ele>2327.6</ele>
        <time>2021-12-17T11:54:56Z</time>
      </trkpt>
      <trkpt lat="45.27711" lon="6.14405">
        <ele>2326.6</ele>
        <time>2021-12-17T11:54:57Z</time>
      </trkpt>
      <trkpt lat="45.27709" lon="6.14409">
        <ele>2324.4</ele>
        <time>2021-12-17T11:54:58Z</time>
      </trkpt>
      <trkpt lat="45.27708" lon="6.14414">
        <ele>2322.2</ele>
        <time>2021-12-17T11:54:59Z</time>
      </trkpt>
      <trkpt lat="45.27706" lon="6.14418">
        <ele>2321</ele>
        <time>2021-12-17T11:55:00Z</time>
      </trkpt>
      <trkpt lat="45.277" lon="6.14427">
        <ele>2319.6</ele>
        <time>2021-12-17T11:55:02Z</time>
      </trkpt>
      <trkpt lat="45.27697" lon="6.1443">
        <ele>2318.6</ele>
        <time>2021-12-17T11:55:03Z</time>
      </trkpt>
      <trkpt lat="45.27694" lon="6.14432">
        <ele>2318.2</ele>
        <time>2021-12-17T11:55:04Z</time>
      </trkpt>
      <trkpt lat="45.27689" lon="6.14435">
        <ele>2317.8</ele>
        <time>2021-12-17T11:55:06Z</time>
      </trkpt>
      <trkpt lat="45.27688" lon="6.14433">
        <ele>2317.2</ele>
        <time>2021-12-17T11:55:08Z</time>
      </trkpt>
      <trkpt lat="45.27687" lon="6.1443">
        <ele>2317</ele>
        <time>2021-12-17T11:55:09Z</time>
      </trkpt>
      <trkpt lat="45.27687" lon="6.14426">
        <ele>2315.4</ele>
        <time>2021-12-17T11:55:19Z</time>
      </trkpt>
      <trkpt lat="45.27686" lon="6.14423">
        <ele>2312.8</ele>
        <time>2021-12-17T11:55:20Z</time>
      </trkpt>
      <trkpt lat="45.27686" lon="6.14416">
        <ele>2310.4</ele>
        <time>2021-12-17T11:55:21Z</time>
      </trkpt>
      <trkpt lat="45.27684" lon="6.14414">
        <ele>2308.8</ele>
        <time>2021-12-17T11:55:22Z</time>
      </trkpt>
      <trkpt lat="45.27679" lon="6.14414">
        <ele>2306.4</ele>
        <time>2021-12-17T11:55:23Z</time>
      </trkpt>
      <trkpt lat="45.27675" lon="6.14411">
        <ele>2304.2</ele>
        <time>2021-12-17T11:55:24Z</time>
      </trkpt>
      <trkpt lat="45.27672" lon="6.14408">
        <ele>2302</ele>
        <time>2021-12-17T11:55:25Z</time>
      </trkpt>
      <trkpt lat="45.27669" lon="6.14407">
        <ele>2300.6</ele>
        <time>2021-12-17T11:55:26Z</time>
      </trkpt>
      <trkpt lat="45.27665" lon="6.14407">
        <ele>2297.4</ele>
        <time>2021-12-17T11:55:27Z</time>
      </trkpt>
      <trkpt lat="45.27661" lon="6.14408">
        <ele>2295</ele>
        <time>2021-12-17T11:55:28Z</time>
      </trkpt>
      <trkpt lat="45.27656" lon="6.14409">
        <ele>2293.2</ele>
        <time>2021-12-17T11:55:29Z</time>
      </trkpt>
      <trkpt lat="45.27652" lon="6.1441">
        <ele>2292</ele>
        <time>2021-12-17T11:55:30Z</time>
      </trkpt>
      <trkpt lat="45.27649" lon="6.14412">
        <ele>2290.8</ele>
        <time>2021-12-17T11:55:31Z</time>
      </trkpt>
      <trkpt lat="45.27643" lon="6.14417">
        <ele>2289.4</ele>
        <time>2021-12-17T11:55:33Z</time>
      </trkpt>
      <trkpt lat="45.27638" lon="6.14424">
        <ele>2287.6</ele>
        <time>2021-12-17T11:55:35Z</time>
      </trkpt>
      <trkpt lat="45.27634" lon="6.14425">
        <ele>2287.2</ele>
        <time>2021-12-17T11:55:36Z</time>
      </trkpt>
      <trkpt lat="45.27631" lon="6.14421">
        <ele>2286.2</ele>
        <time>2021-12-17T11:55:37Z</time>
      </trkpt>
      <trkpt lat="45.27628" lon="6.14419">
        <ele>2283.8</ele>
        <time>2021-12-17T11:55:38Z</time>
      </trkpt>
      <trkpt lat="45.27625" lon="6.14417">
        <ele>2282.4</ele>
        <time>2021-12-17T11:55:39Z</time>
      </trkpt>
      <trkpt lat="45.2762" lon="6.14415">
        <ele>2279.2</ele>
        <time>2021-12-17T11:55:40Z</time>
      </trkpt>
      <trkpt lat="45.27615" lon="6.1441">
        <ele>2276</ele>
        <time>2021-12-17T11:55:41Z</time>
      </trkpt>
      <trkpt lat="45.2761" lon="6.14406">
        <ele>2271.8</ele>
        <time>2021-12-17T11:55:42Z</time>
      </trkpt>
      <trkpt lat="45.27605" lon="6.14405">
        <ele>2269</ele>
        <time>2021-12-17T11:55:43Z</time>
      </trkpt>
      <trkpt lat="45.27598" lon="6.14403">
        <ele>2265.8</ele>
        <time>2021-12-17T11:55:44Z</time>
      </trkpt>
      <trkpt lat="45.27593" lon="6.144">
        <ele>2262.6</ele>
        <time>2021-12-17T11:55:45Z</time>
      </trkpt>
      <trkpt lat="45.27588" lon="6.144">
        <ele>2260.2</ele>
        <time>2021-12-17T11:55:46Z</time>
      </trkpt>
      <trkpt lat="45.27585" lon="6.14404">
        <ele>2258.6</ele>
        <time>2021-12-17T11:55:47Z</time>
      </trkpt>
      <trkpt lat="45.27582" lon="6.14411">
        <ele>2256.8</ele>
        <time>2021-12-17T11:55:48Z</time>
      </trkpt>
      <trkpt lat="45.27578" lon="6.14415">
        <ele>2254.8</ele>
        <time>2021-12-17T11:55:49Z</time>
      </trkpt>
      <trkpt lat="45.27575" lon="6.14414">
        <ele>2252.8</ele>
        <time>2021-12-17T11:55:50Z</time>
      </trkpt>
      <trkpt lat="45.27573" lon="6.14411">
        <ele>2251.2</ele>
        <time>2021-12-17T11:55:51Z</time>
      </trkpt>
      <trkpt lat="45.27567" lon="6.14401">
        <ele>2249.2</ele>
        <time>2021-12-17T11:55:53Z</time>
      </trkpt>
      <trkpt lat="45.27563" lon="6.14397">
        <ele>2248.6</ele>
        <time>2021-12-17T11:55:54Z</time>
      </trkpt>
      <trkpt lat="45.27553" lon="6.1439">
        <ele>2247.8</ele>
        <time>2021-12-17T11:55:56Z</time>
      </trkpt>
      <trkpt lat="45.27549" lon="6.14388">
        <ele>2246.6</ele>
        <time>2021-12-17T11:55:57Z</time>
      </trkpt>
      <trkpt lat="45.27546" lon="6.14391">
        <ele>2245.2</ele>
        <time>2021-12-17T11:55:58Z</time>
      </trkpt>
      <trkpt lat="45.27546" lon="6.14395">
        <ele>2244</ele>
        <time>2021-12-17T11:55:59Z</time>
      </trkpt>
      <trkpt lat="45.27545" lon="6.14398">
        <ele>2243.6</ele>
        <time>2021-12-17T11:56:00Z</time>
      </trkpt>
      <trkpt lat="45.27545" lon="6.14402">
        <ele>2243</ele>
        <time>2021-12-17T11:56:03Z</time>
      </trkpt>
      <trkpt lat="45.27544" lon="6.14405">
        <ele>2242.8</ele>
        <time>2021-12-17T11:56:11Z</time>
      </trkpt>
      <trkpt lat="45.27543" lon="6.14409">
        <ele>2241.6</ele>
        <time>2021-12-17T11:56:22Z</time>
      </trkpt>
      <trkpt lat="45.27543" lon="6.14412">
        <ele>2240.4</ele>
        <time>2021-12-17T11:56:23Z</time>
      </trkpt>
      <trkpt lat="45.2754" lon="6.14419">
        <ele>2239.2</ele>
        <time>2021-12-17T11:56:24Z</time>
      </trkpt>
      <trkpt lat="45.27535" lon="6.14423">
        <ele>2238</ele>
        <time>2021-12-17T11:56:25Z</time>
      </trkpt>
      <trkpt lat="45.27531" lon="6.14425">
        <ele>2237</ele>
        <time>2021-12-17T11:56:26Z</time>
      </trkpt>
      <trkpt lat="45.27527" lon="6.14429">
        <ele>2236</ele>
        <time>2021-12-17T11:56:27Z</time>
      </trkpt>
      <trkpt lat="45.27524" lon="6.14436">
        <ele>2234.8</ele>
        <time>2021-12-17T11:56:28Z</time>
      </trkpt>
      <trkpt lat="45.27521" lon="6.14444">
        <ele>2232.8</ele>
        <time>2021-12-17T11:56:29Z</time>
      </trkpt>
      <trkpt lat="45.27518" lon="6.14451">
        <ele>2230.8</ele>
        <time>2021-12-17T11:56:30Z</time>
      </trkpt>
      <trkpt lat="45.27516" lon="6.14459">
        <ele>2229.6</ele>
        <time>2021-12-17T11:56:31Z</time>
      </trkpt>
      <trkpt lat="45.27512" lon="6.14467">
        <ele>2227.2</ele>
        <time>2021-12-17T11:56:32Z</time>
      </trkpt>
      <trkpt lat="45.27508" lon="6.14475">
        <ele>2223.2</ele>
        <time>2021-12-17T11:56:33Z</time>
      </trkpt>
      <trkpt lat="45.27502" lon="6.14482">
        <ele>2220</ele>
        <time>2021-12-17T11:56:34Z</time>
      </trkpt>
      <trkpt lat="45.27496" lon="6.14489">
        <ele>2218.2</ele>
        <time>2021-12-17T11:56:35Z</time>
      </trkpt>
      <trkpt lat="45.27491" lon="6.14496">
        <ele>2215.6</ele>
        <time>2021-12-17T11:56:36Z</time>
      </trkpt>
      <trkpt lat="45.27486" lon="6.14503">
        <ele>2213.6</ele>
        <time>2021-12-17T11:56:37Z</time>
      </trkpt>
      <trkpt lat="45.27483" lon="6.14511">
        <ele>2211.2</ele>
        <time>2021-12-17T11:56:38Z</time>
      </trkpt>
      <trkpt lat="45.27481" lon="6.14521">
        <ele>2208.4</ele>
        <time>2021-12-17T11:56:39Z</time>
      </trkpt>
      <trkpt lat="45.27479" lon="6.14531">
        <ele>2206.8</ele>
        <time>2021-12-17T11:56:40Z</time>
      </trkpt>
      <trkpt lat="45.27477" lon="6.14541">
        <ele>2204.2</ele>
        <time>2021-12-17T11:56:41Z</time>
      </trkpt>
      <trkpt lat="45.27473" lon="6.14549">
        <ele>2201.6</ele>
        <time>2021-12-17T11:56:42Z</time>
      </trkpt>
      <trkpt lat="45.2747" lon="6.14555">
        <ele>2200</ele>
        <time>2021-12-17T11:56:43Z</time>
      </trkpt>
      <trkpt lat="45.27463" lon="6.14569">
        <ele>2196.4</ele>
        <time>2021-12-17T11:56:45Z</time>
      </trkpt>
      <trkpt lat="45.2746" lon="6.14574">
        <ele>2194.2</ele>
        <time>2021-12-17T11:56:46Z</time>
      </trkpt>
      <trkpt lat="45.27456" lon="6.14579">
        <ele>2193</ele>
        <time>2021-12-17T11:56:47Z</time>
      </trkpt>
      <trkpt lat="45.27452" lon="6.14583">
        <ele>2190.4</ele>
        <time>2021-12-17T11:56:48Z</time>
      </trkpt>
      <trkpt lat="45.27448" lon="6.14587">
        <ele>2187.2</ele>
        <time>2021-12-17T11:56:49Z</time>
      </trkpt>
      <trkpt lat="45.27444" lon="6.14592">
        <ele>2185.6</ele>
        <time>2021-12-17T11:56:50Z</time>
      </trkpt>
      <trkpt lat="45.27444" lon="6.14601">
        <ele>2182.6</ele>
        <time>2021-12-17T11:56:51Z</time>
      </trkpt>
      <trkpt lat="45.27446" lon="6.14611">
        <ele>2179.2</ele>
        <time>2021-12-17T11:56:52Z</time>
      </trkpt>
      <trkpt lat="45.27448" lon="6.14622">
        <ele>2176.8</ele>
        <time>2021-12-17T11:56:53Z</time>
      </trkpt>
      <trkpt lat="45.27447" lon="6.14632">
        <ele>2174.2</ele>
        <time>2021-12-17T11:56:54Z</time>
      </trkpt>
      <trkpt lat="45.27443" lon="6.1464">
        <ele>2170.8</ele>
        <time>2021-12-17T11:56:55Z</time>
      </trkpt>
      <trkpt lat="45.27437" lon="6.14646">
        <ele>2168.2</ele>
        <time>2021-12-17T11:56:56Z</time>
      </trkpt>
      <trkpt lat="45.27434" lon="6.14653">
        <ele>2165.4</ele>
        <time>2021-12-17T11:56:57Z</time>
      </trkpt>
      <trkpt lat="45.27434" lon="6.14662">
        <ele>2163.6</ele>
        <time>2021-12-17T11:56:58Z</time>
      </trkpt>
      <trkpt lat="45.27432" lon="6.14671">
        <ele>2161.4</ele>
        <time>2021-12-17T11:56:59Z</time>
      </trkpt>
      <trkpt lat="45.2743" lon="6.14679">
        <ele>2159.4</ele>
        <time>2021-12-17T11:57:00Z</time>
      </trkpt>
      <trkpt lat="45.27429" lon="6.14687">
        <ele>2158.2</ele>
        <time>2021-12-17T11:57:01Z</time>
      </trkpt>
      <trkpt lat="45.2743" lon="6.14697">
        <ele>2156.8</ele>
        <time>2021-12-17T11:57:02Z</time>
      </trkpt>
      <trkpt lat="45.27432" lon="6.14707">
        <ele>2155</ele>
        <time>2021-12-17T11:57:03Z</time>
      </trkpt>
      <trkpt lat="45.27434" lon="6.14719">
        <ele>2153.6</ele>
        <time>2021-12-17T11:57:04Z</time>
      </trkpt>
      <trkpt lat="45.27435" lon="6.14731">
        <ele>2152</ele>
        <time>2021-12-17T11:57:05Z</time>
      </trkpt>
      <trkpt lat="45.27433" lon="6.14742">
        <ele>2148.8</ele>
        <time>2021-12-17T11:57:06Z</time>
      </trkpt>
      <trkpt lat="45.27429" lon="6.14752">
        <ele>2146.6</ele>
        <time>2021-12-17T11:57:07Z</time>
      </trkpt>
      <trkpt lat="45.27426" lon="6.1476">
        <ele>2144.8</ele>
        <time>2021-12-17T11:57:08Z</time>
      </trkpt>
      <trkpt lat="45.27425" lon="6.14769">
        <ele>2143.2</ele>
        <time>2021-12-17T11:57:09Z</time>
      </trkpt>
      <trkpt lat="45.27424" lon="6.1478">
        <ele>2141.6</ele>
        <time>2021-12-17T11:57:10Z</time>
      </trkpt>
      <trkpt lat="45.27423" lon="6.14791">
        <ele>2140.6</ele>
        <time>2021-12-17T11:57:11Z</time>
      </trkpt>
      <trkpt lat="45.2742" lon="6.148">
        <ele>2138.4</ele>
        <time>2021-12-17T11:57:12Z</time>
      </trkpt>
      <trkpt lat="45.27416" lon="6.14808">
        <ele>2136.8</ele>
        <time>2021-12-17T11:57:13Z</time>
      </trkpt>
      <trkpt lat="45.27412" lon="6.14817">
        <ele>2135.4</ele>
        <time>2021-12-17T11:57:14Z</time>
      </trkpt>
      <trkpt lat="45.27407" lon="6.14834">
        <ele>2134</ele>
        <time>2021-12-17T11:57:16Z</time>
      </trkpt>
      <trkpt lat="45.27406" lon="6.14842">
        <ele>2133.6</ele>
        <time>2021-12-17T11:57:17Z</time>
      </trkpt>
      <trkpt lat="45.27405" lon="6.14849">
        <ele>2133.2</ele>
        <time>2021-12-17T11:57:18Z</time>
      </trkpt>
      <trkpt lat="45.27404" lon="6.14857">
        <ele>2132.8</ele>
        <time>2021-12-17T11:57:19Z</time>
      </trkpt>
      <trkpt lat="45.27403" lon="6.14865">
        <ele>2132.2</ele>
        <time>2021-12-17T11:57:20Z</time>
      </trkpt>
      <trkpt lat="45.27401" lon="6.14873">
        <ele>2131.6</ele>
        <time>2021-12-17T11:57:21Z</time>
      </trkpt>
      <trkpt lat="45.27398" lon="6.14889">
        <ele>2130.4</ele>
        <time>2021-12-17T11:57:23Z</time>
      </trkpt>
      <trkpt lat="45.27396" lon="6.14895">
        <ele>2130</ele>
        <time>2021-12-17T11:57:24Z</time>
      </trkpt>
      <trkpt lat="45.27396" lon="6.14902">
        <ele>2129.4</ele>
        <time>2021-12-17T11:57:25Z</time>
      </trkpt>
      <trkpt lat="45.27394" lon="6.14914">
        <ele>2127.6</ele>
        <time>2021-12-17T11:57:27Z</time>
      </trkpt>
      <trkpt lat="45.27393" lon="6.14924">
        <ele>2126.2</ele>
        <time>2021-12-17T11:57:29Z</time>
      </trkpt>
      <trkpt lat="45.2739" lon="6.14932">
        <ele>2125</ele>
        <time>2021-12-17T11:57:31Z</time>
      </trkpt>
      <trkpt lat="45.27385" lon="6.14952">
        <ele>2124</ele>
        <time>2021-12-17T11:57:35Z</time>
      </trkpt>
      <trkpt lat="45.27384" lon="6.14957">
        <ele>2123.6</ele>
        <time>2021-12-17T11:57:36Z</time>
      </trkpt>
      <trkpt lat="45.27381" lon="6.14963">
        <ele>2123</ele>
        <time>2021-12-17T11:57:39Z</time>
      </trkpt>
      <trkpt lat="45.27381" lon="6.14966">
        <ele>2122.8</ele>
        <time>2021-12-17T11:57:40Z</time>
      </trkpt>
      <trkpt lat="45.27381" lon="6.14969">
        <ele>2122.8</ele>
        <time>2021-12-17T11:57:48Z</time>
      </trkpt>
      <trkpt lat="45.2738" lon="6.14972">
        <ele>2122</ele>
        <time>2021-12-17T11:57:56Z</time>
      </trkpt>
      <trkpt lat="45.2738" lon="6.14974">
        <ele>2121.8</ele>
        <time>2021-12-17T11:57:57Z</time>
      </trkpt>
      <trkpt lat="45.27377" lon="6.14981">
        <ele>2120.4</ele>
        <time>2021-12-17T11:57:58Z</time>
      </trkpt>
      <trkpt lat="45.27375" lon="6.14989">
        <ele>2119.6</ele>
        <time>2021-12-17T11:57:59Z</time>
      </trkpt>
      <trkpt lat="45.27373" lon="6.14997">
        <ele>2118</ele>
        <time>2021-12-17T11:58:00Z</time>
      </trkpt>
      <trkpt lat="45.27371" lon="6.15004">
        <ele>2116.6</ele>
        <time>2021-12-17T11:58:01Z</time>
      </trkpt>
      <trkpt lat="45.27367" lon="6.15011">
        <ele>2115.6</ele>
        <time>2021-12-17T11:58:02Z</time>
      </trkpt>
      <trkpt lat="45.27363" lon="6.15016">
        <ele>2115</ele>
        <time>2021-12-17T11:58:03Z</time>
      </trkpt>
      <trkpt lat="45.27359" lon="6.15021">
        <ele>2114.4</ele>
        <time>2021-12-17T11:58:04Z</time>
      </trkpt>
      <trkpt lat="45.27351" lon="6.1503">
        <ele>2113.2</ele>
        <time>2021-12-17T11:58:06Z</time>
      </trkpt>
      <trkpt lat="45.27343" lon="6.15039">
        <ele>2112</ele>
        <time>2021-12-17T11:58:08Z</time>
      </trkpt>
      <trkpt lat="45.27339" lon="6.15049">
        <ele>2110.8</ele>
        <time>2021-12-17T11:58:10Z</time>
      </trkpt>
      <trkpt lat="45.27338" lon="6.15055">
        <ele>2109.8</ele>
        <time>2021-12-17T11:58:11Z</time>
      </trkpt>
      <trkpt lat="45.27335" lon="6.1506">
        <ele>2107</ele>
        <time>2021-12-17T11:58:12Z</time>
      </trkpt>
      <trkpt lat="45.27331" lon="6.15064">
        <ele>2104.6</ele>
        <time>2021-12-17T11:58:13Z</time>
      </trkpt>
      <trkpt lat="45.27327" lon="6.15067">
        <ele>2102.4</ele>
        <time>2021-12-17T11:58:14Z</time>
      </trkpt>
      <trkpt lat="45.27324" lon="6.15068">
        <ele>2101.2</ele>
        <time>2021-12-17T11:58:15Z</time>
      </trkpt>
      <trkpt lat="45.27321" lon="6.15068">
        <ele>2100.4</ele>
        <time>2021-12-17T11:58:16Z</time>
      </trkpt>
      <trkpt lat="45.27317" lon="6.15068">
        <ele>2100</ele>
        <time>2021-12-17T11:58:17Z</time>
      </trkpt>
      <trkpt lat="45.27308" lon="6.15076">
        <ele>2097.8</ele>
        <time>2021-12-17T11:58:19Z</time>
      </trkpt>
      <trkpt lat="45.27305" lon="6.15082">
        <ele>2097</ele>
        <time>2021-12-17T11:58:20Z</time>
      </trkpt>
      <trkpt lat="45.27302" lon="6.15089">
        <ele>2096.6</ele>
        <time>2021-12-17T11:58:21Z</time>
      </trkpt>
      <trkpt lat="45.27302" lon="6.15098">
        <ele>2095.4</ele>
        <time>2021-12-17T11:58:22Z</time>
      </trkpt>
      <trkpt lat="45.27303" lon="6.15108">
        <ele>2093.8</ele>
        <time>2021-12-17T11:58:23Z</time>
      </trkpt>
      <trkpt lat="45.27303" lon="6.15118">
        <ele>2091.4</ele>
        <time>2021-12-17T11:58:24Z</time>
      </trkpt>
      <trkpt lat="45.27306" lon="6.15129">
        <ele>2090</ele>
        <time>2021-12-17T11:58:25Z</time>
      </trkpt>
      <trkpt lat="45.27307" lon="6.15139">
        <ele>2087.8</ele>
        <time>2021-12-17T11:58:26Z</time>
      </trkpt>
      <trkpt lat="45.2731" lon="6.15149">
        <ele>2086</ele>
        <time>2021-12-17T11:58:27Z</time>
      </trkpt>
      <trkpt lat="45.27313" lon="6.1516">
        <ele>2084.2</ele>
        <time>2021-12-17T11:58:28Z</time>
      </trkpt>
      <trkpt lat="45.27316" lon="6.15171">
        <ele>2081.6</ele>
        <time>2021-12-17T11:58:29Z</time>
      </trkpt>
      <trkpt lat="45.27317" lon="6.15182">
        <ele>2080.4</ele>
        <time>2021-12-17T11:58:30Z</time>
      </trkpt>
      <trkpt lat="45.27319" lon="6.15194">
        <ele>2078.2</ele>
        <time>2021-12-17T11:58:31Z</time>
      </trkpt>
      <trkpt lat="45.27321" lon="6.15205">
        <ele>2076.4</ele>
        <time>2021-12-17T11:58:32Z</time>
      </trkpt>
      <trkpt lat="45.27322" lon="6.15216">
        <ele>2073.4</ele>
        <time>2021-12-17T11:58:33Z</time>
      </trkpt>
      <trkpt lat="45.27322" lon="6.15227">
        <ele>2071.6</ele>
        <time>2021-12-17T11:58:34Z</time>
      </trkpt>
      <trkpt lat="45.27322" lon="6.15237">
        <ele>2070</ele>
        <time>2021-12-17T11:58:35Z</time>
      </trkpt>
      <trkpt lat="45.27323" lon="6.15247">
        <ele>2068.2</ele>
        <time>2021-12-17T11:58:36Z</time>
      </trkpt>
      <trkpt lat="45.27324" lon="6.15258">
        <ele>2066.6</ele>
        <time>2021-12-17T11:58:37Z</time>
      </trkpt>
      <trkpt lat="45.27324" lon="6.15269">
        <ele>2064.8</ele>
        <time>2021-12-17T11:58:38Z</time>
      </trkpt>
      <trkpt lat="45.27325" lon="6.1528">
        <ele>2063.6</ele>
        <time>2021-12-17T11:58:39Z</time>
      </trkpt>
      <trkpt lat="45.27328" lon="6.15288">
        <ele>2061.8</ele>
        <time>2021-12-17T11:58:40Z</time>
      </trkpt>
      <trkpt lat="45.2733" lon="6.15295">
        <ele>2059.8</ele>
        <time>2021-12-17T11:58:41Z</time>
      </trkpt>
      <trkpt lat="45.27333" lon="6.15302">
        <ele>2058.2</ele>
        <time>2021-12-17T11:58:42Z</time>
      </trkpt>
      <trkpt lat="45.27337" lon="6.15309">
        <ele>2056.6</ele>
        <time>2021-12-17T11:58:43Z</time>
      </trkpt>
      <trkpt lat="45.27342" lon="6.15315">
        <ele>2055</ele>
        <time>2021-12-17T11:58:44Z</time>
      </trkpt>
      <trkpt lat="45.27346" lon="6.15322">
        <ele>2052.8</ele>
        <time>2021-12-17T11:58:45Z</time>
      </trkpt>
      <trkpt lat="45.27349" lon="6.15332">
        <ele>2051.2</ele>
        <time>2021-12-17T11:58:46Z</time>
      </trkpt>
      <trkpt lat="45.27354" lon="6.15341">
        <ele>2049.4</ele>
        <time>2021-12-17T11:58:47Z</time>
      </trkpt>
      <trkpt lat="45.2736" lon="6.15351">
        <ele>2046.8</ele>
        <time>2021-12-17T11:58:48Z</time>
      </trkpt>
      <trkpt lat="45.27362" lon="6.15361">
        <ele>2043.8</ele>
        <time>2021-12-17T11:58:49Z</time>
      </trkpt>
      <trkpt lat="45.27361" lon="6.15371">
        <ele>2042</ele>
        <time>2021-12-17T11:58:50Z</time>
      </trkpt>
      <trkpt lat="45.2736" lon="6.15381">
        <ele>2040.2</ele>
        <time>2021-12-17T11:58:51Z</time>
      </trkpt>
      <trkpt lat="45.27359" lon="6.15402">
        <ele>2038.4</ele>
        <time>2021-12-17T11:58:53Z</time>
      </trkpt>
      <trkpt lat="45.27358" lon="6.15413">
        <ele>2038</ele>
        <time>2021-12-17T11:58:54Z</time>
      </trkpt>
      <trkpt lat="45.27356" lon="6.15424">
        <ele>2035</ele>
        <time>2021-12-17T11:58:55Z</time>
      </trkpt>
      <trkpt lat="45.27354" lon="6.15433">
        <ele>2033.4</ele>
        <time>2021-12-17T11:58:56Z</time>
      </trkpt>
      <trkpt lat="45.27354" lon="6.15442">
        <ele>2032</ele>
        <time>2021-12-17T11:58:57Z</time>
      </trkpt>
      <trkpt lat="45.27355" lon="6.15452">
        <ele>2031</ele>
        <time>2021-12-17T11:58:58Z</time>
      </trkpt>
      <trkpt lat="45.27357" lon="6.15461">
        <ele>2029.8</ele>
        <time>2021-12-17T11:58:59Z</time>
      </trkpt>
      <trkpt lat="45.27359" lon="6.15472">
        <ele>2028.2</ele>
        <time>2021-12-17T11:59:00Z</time>
      </trkpt>
      <trkpt lat="45.2736" lon="6.15484">
        <ele>2027</ele>
        <time>2021-12-17T11:59:01Z</time>
      </trkpt>
      <trkpt lat="45.27359" lon="6.15495">
        <ele>2025.2</ele>
        <time>2021-12-17T11:59:02Z</time>
      </trkpt>
      <trkpt lat="45.27356" lon="6.15504">
        <ele>2023.6</ele>
        <time>2021-12-17T11:59:03Z</time>
      </trkpt>
      <trkpt lat="45.27353" lon="6.15514">
        <ele>2022.2</ele>
        <time>2021-12-17T11:59:04Z</time>
      </trkpt>
      <trkpt lat="45.2735" lon="6.15524">
        <ele>2021</ele>
        <time>2021-12-17T11:59:05Z</time>
      </trkpt>
      <trkpt lat="45.27344" lon="6.15542">
        <ele>2019.8</ele>
        <time>2021-12-17T11:59:07Z</time>
      </trkpt>
      <trkpt lat="45.27342" lon="6.15551">
        <ele>2017.6</ele>
        <time>2021-12-17T11:59:08Z</time>
      </trkpt>
      <trkpt lat="45.2734" lon="6.1556">
        <ele>2015.4</ele>
        <time>2021-12-17T11:59:09Z</time>
      </trkpt>
      <trkpt lat="45.27339" lon="6.1557">
        <ele>2014.2</ele>
        <time>2021-12-17T11:59:10Z</time>
      </trkpt>
      <trkpt lat="45.27337" lon="6.15587">
        <ele>2012.8</ele>
        <time>2021-12-17T11:59:12Z</time>
      </trkpt>
      <trkpt lat="45.27333" lon="6.15604">
        <ele>2011.2</ele>
        <time>2021-12-17T11:59:14Z</time>
      </trkpt>
      <trkpt lat="45.27331" lon="6.15613">
        <ele>2010.6</ele>
        <time>2021-12-17T11:59:15Z</time>
      </trkpt>
      <trkpt lat="45.27327" lon="6.15632">
        <ele>2009.4</ele>
        <time>2021-12-17T11:59:17Z</time>
      </trkpt>
      <trkpt lat="45.27324" lon="6.15652">
        <ele>2007.8</ele>
        <time>2021-12-17T11:59:19Z</time>
      </trkpt>
      <trkpt lat="45.27323" lon="6.15662">
        <ele>2006.4</ele>
        <time>2021-12-17T11:59:20Z</time>
      </trkpt>
      <trkpt lat="45.27322" lon="6.15683">
        <ele>2004.4</ele>
        <time>2021-12-17T11:59:22Z</time>
      </trkpt>
      <trkpt lat="45.27326" lon="6.1569">
        <ele>2002.4</ele>
        <time>2021-12-17T11:59:23Z</time>
      </trkpt>
      <trkpt lat="45.27329" lon="6.15697">
        <ele>1999.2</ele>
        <time>2021-12-17T11:59:24Z</time>
      </trkpt>
      <trkpt lat="45.27331" lon="6.15706">
        <ele>1996.4</ele>
        <time>2021-12-17T11:59:25Z</time>
      </trkpt>
      <trkpt lat="45.27333" lon="6.15713">
        <ele>1994.6</ele>
        <time>2021-12-17T11:59:26Z</time>
      </trkpt>
      <trkpt lat="45.27336" lon="6.15721">
        <ele>1992.4</ele>
        <time>2021-12-17T11:59:27Z</time>
      </trkpt>
      <trkpt lat="45.2734" lon="6.1573">
        <ele>1989.8</ele>
        <time>2021-12-17T11:59:28Z</time>
      </trkpt>
      <trkpt lat="45.27343" lon="6.15739">
        <ele>1987.4</ele>
        <time>2021-12-17T11:59:29Z</time>
      </trkpt>
      <trkpt lat="45.27348" lon="6.15746">
        <ele>1985.4</ele>
        <time>2021-12-17T11:59:30Z</time>
      </trkpt>
      <trkpt lat="45.27356" lon="6.15751">
        <ele>1982.4</ele>
        <time>2021-12-17T11:59:31Z</time>
      </trkpt>
      <trkpt lat="45.27362" lon="6.1576">
        <ele>1978.2</ele>
        <time>2021-12-17T11:59:32Z</time>
      </trkpt>
      <trkpt lat="45.27366" lon="6.15771">
        <ele>1974.8</ele>
        <time>2021-12-17T11:59:33Z</time>
      </trkpt>
      <trkpt lat="45.27368" lon="6.15782">
        <ele>1972.4</ele>
        <time>2021-12-17T11:59:34Z</time>
      </trkpt>
      <trkpt lat="45.27369" lon="6.15794">
        <ele>1970</ele>
        <time>2021-12-17T11:59:35Z</time>
      </trkpt>
      <trkpt lat="45.27373" lon="6.15805">
        <ele>1968</ele>
        <time>2021-12-17T11:59:36Z</time>
      </trkpt>
      <trkpt lat="45.27377" lon="6.15815">
        <ele>1966.4</ele>
        <time>2021-12-17T11:59:37Z</time>
      </trkpt>
      <trkpt lat="45.27384" lon="6.15823">
        <ele>1964.4</ele>
        <time>2021-12-17T11:59:38Z</time>
      </trkpt>
      <trkpt lat="45.27388" lon="6.15832">
        <ele>1961</ele>
        <time>2021-12-17T11:59:39Z</time>
      </trkpt>
      <trkpt lat="45.27391" lon="6.15843">
        <ele>1958.2</ele>
        <time>2021-12-17T11:59:40Z</time>
      </trkpt>
      <trkpt lat="45.27392" lon="6.15853">
        <ele>1956.8</ele>
        <time>2021-12-17T11:59:41Z</time>
      </trkpt>
      <trkpt lat="45.27395" lon="6.15863">
        <ele>1955.6</ele>
        <time>2021-12-17T11:59:42Z</time>
      </trkpt>
      <trkpt lat="45.274" lon="6.15871">
        <ele>1955</ele>
        <time>2021-12-17T11:59:43Z</time>
      </trkpt>
      <trkpt lat="45.27405" lon="6.1588">
        <ele>1953</ele>
        <time>2021-12-17T11:59:44Z</time>
      </trkpt>
      <trkpt lat="45.27408" lon="6.1589">
        <ele>1951</ele>
        <time>2021-12-17T11:59:45Z</time>
      </trkpt>
      <trkpt lat="45.27411" lon="6.159">
        <ele>1949.8</ele>
        <time>2021-12-17T11:59:46Z</time>
      </trkpt>
      <trkpt lat="45.27414" lon="6.1591">
        <ele>1948.4</ele>
        <time>2021-12-17T11:59:47Z</time>
      </trkpt>
      <trkpt lat="45.2742" lon="6.15928">
        <ele>1947</ele>
        <time>2021-12-17T11:59:49Z</time>
      </trkpt>
      <trkpt lat="45.27424" lon="6.15936">
        <ele>1946.6</ele>
        <time>2021-12-17T11:59:50Z</time>
      </trkpt>
      <trkpt lat="45.27429" lon="6.15943">
        <ele>1945.6</ele>
        <time>2021-12-17T11:59:51Z</time>
      </trkpt>
      <trkpt lat="45.2744" lon="6.15957">
        <ele>1944</ele>
        <time>2021-12-17T11:59:53Z</time>
      </trkpt>
      <trkpt lat="45.2745" lon="6.15972">
        <ele>1942.6</ele>
        <time>2021-12-17T11:59:55Z</time>
      </trkpt>
      <trkpt lat="45.27454" lon="6.15979">
        <ele>1942</ele>
        <time>2021-12-17T11:59:56Z</time>
      </trkpt>
      <trkpt lat="45.27457" lon="6.15986">
        <ele>1941</ele>
        <time>2021-12-17T11:59:57Z</time>
      </trkpt>
      <trkpt lat="45.27463" lon="6.16">
        <ele>1939.6</ele>
        <time>2021-12-17T11:59:59Z</time>
      </trkpt>
      <trkpt lat="45.27469" lon="6.16014">
        <ele>1938.2</ele>
        <time>2021-12-17T12:00:01Z</time>
      </trkpt>
      <trkpt lat="45.27472" lon="6.16021">
        <ele>1937.6</ele>
        <time>2021-12-17T12:00:02Z</time>
      </trkpt>
      <trkpt lat="45.27475" lon="6.16029">
        <ele>1937</ele>
        <time>2021-12-17T12:00:03Z</time>
      </trkpt>
      <trkpt lat="45.27482" lon="6.16045">
        <ele>1935.2</ele>
        <time>2021-12-17T12:00:05Z</time>
      </trkpt>
      <trkpt lat="45.27487" lon="6.16062">
        <ele>1933.6</ele>
        <time>2021-12-17T12:00:07Z</time>
      </trkpt>
      <trkpt lat="45.2749" lon="6.16071">
        <ele>1932.4</ele>
        <time>2021-12-17T12:00:08Z</time>
      </trkpt>
      <trkpt lat="45.27493" lon="6.16081">
        <ele>1931.2</ele>
        <time>2021-12-17T12:00:09Z</time>
      </trkpt>
      <trkpt lat="45.27499" lon="6.16099">
        <ele>1929.8</ele>
        <time>2021-12-17T12:00:11Z</time>
      </trkpt>
      <trkpt lat="45.27504" lon="6.16105">
        <ele>1929</ele>
        <time>2021-12-17T12:00:12Z</time>
      </trkpt>
      <trkpt lat="45.27511" lon="6.16109">
        <ele>1927</ele>
        <time>2021-12-17T12:00:13Z</time>
      </trkpt>
      <trkpt lat="45.27519" lon="6.16115">
        <ele>1924.2</ele>
        <time>2021-12-17T12:00:14Z</time>
      </trkpt>
      <trkpt lat="45.27525" lon="6.16123">
        <ele>1921</ele>
        <time>2021-12-17T12:00:15Z</time>
      </trkpt>
      <trkpt lat="45.27529" lon="6.16131">
        <ele>1919.2</ele>
        <time>2021-12-17T12:00:16Z</time>
      </trkpt>
      <trkpt lat="45.27533" lon="6.16138">
        <ele>1917.8</ele>
        <time>2021-12-17T12:00:17Z</time>
      </trkpt>
      <trkpt lat="45.27539" lon="6.16143">
        <ele>1916</ele>
        <time>2021-12-17T12:00:18Z</time>
      </trkpt>
      <trkpt lat="45.27544" lon="6.1615">
        <ele>1914</ele>
        <time>2021-12-17T12:00:19Z</time>
      </trkpt>
      <trkpt lat="45.27549" lon="6.16159">
        <ele>1911.4</ele>
        <time>2021-12-17T12:00:20Z</time>
      </trkpt>
      <trkpt lat="45.27551" lon="6.16169">
        <ele>1909.4</ele>
        <time>2021-12-17T12:00:21Z</time>
      </trkpt>
      <trkpt lat="45.27553" lon="6.16178">
        <ele>1908.2</ele>
        <time>2021-12-17T12:00:22Z</time>
      </trkpt>
      <trkpt lat="45.27556" lon="6.16196">
        <ele>1906.2</ele>
        <time>2021-12-17T12:00:24Z</time>
      </trkpt>
      <trkpt lat="45.27559" lon="6.16215">
        <ele>1904.6</ele>
        <time>2021-12-17T12:00:26Z</time>
      </trkpt>
      <trkpt lat="45.27562" lon="6.16225">
        <ele>1903.8</ele>
        <time>2021-12-17T12:00:27Z</time>
      </trkpt>
      <trkpt lat="45.27566" lon="6.16235">
        <ele>1902.8</ele>
        <time>2021-12-17T12:00:28Z</time>
      </trkpt>
      <trkpt lat="45.27571" lon="6.16245">
        <ele>1900.8</ele>
        <time>2021-12-17T12:00:29Z</time>
      </trkpt>
      <trkpt lat="45.27577" lon="6.16256">
        <ele>1899</ele>
        <time>2021-12-17T12:00:30Z</time>
      </trkpt>
      <trkpt lat="45.27584" lon="6.16266">
        <ele>1897.4</ele>
        <time>2021-12-17T12:00:31Z</time>
      </trkpt>
      <trkpt lat="45.27592" lon="6.16277">
        <ele>1896.4</ele>
        <time>2021-12-17T12:00:32Z</time>
      </trkpt>
      <trkpt lat="45.27599" lon="6.16288">
        <ele>1894.4</ele>
        <time>2021-12-17T12:00:33Z</time>
      </trkpt>
      <trkpt lat="45.27607" lon="6.16297">
        <ele>1891.8</ele>
        <time>2021-12-17T12:00:34Z</time>
      </trkpt>
      <trkpt lat="45.27615" lon="6.16302">
        <ele>1888.8</ele>
        <time>2021-12-17T12:00:35Z</time>
      </trkpt>
      <trkpt lat="45.27624" lon="6.16306">
        <ele>1887.2</ele>
        <time>2021-12-17T12:00:36Z</time>
      </trkpt>
      <trkpt lat="45.27629" lon="6.16311">
        <ele>1885.4</ele>
        <time>2021-12-17T12:00:37Z</time>
      </trkpt>
      <trkpt lat="45.27634" lon="6.16317">
        <ele>1884</ele>
        <time>2021-12-17T12:00:38Z</time>
      </trkpt>
      <trkpt lat="45.27638" lon="6.16323">
        <ele>1883</ele>
        <time>2021-12-17T12:00:39Z</time>
      </trkpt>
      <trkpt lat="45.27642" lon="6.16329">
        <ele>1882.6</ele>
        <time>2021-12-17T12:00:40Z</time>
      </trkpt>
      <trkpt lat="45.27644" lon="6.16334">
        <ele>1882</ele>
        <time>2021-12-17T12:00:41Z</time>
      </trkpt>
      <trkpt lat="45.27645" lon="6.16336">
        <ele>1881.8</ele>
        <time>2021-12-17T12:00:42Z</time>
      </trkpt>
      <trkpt lat="45.27645" lon="6.16338">
        <ele>1881.8</ele>
        <time>2021-12-17T12:00:43Z</time>
      </trkpt>
      <trkpt lat="45.27645" lon="6.16339">
        <ele>1881.6</ele>
        <time>2021-12-17T12:00:44Z</time>
      </trkpt>
      <trkpt lat="45.27645" lon="6.16339">
        <ele>1881.4</ele>
        <time>2021-12-17T12:00:45Z</time>
      </trkpt>
      <trkpt lat="45.27642" lon="6.16341">
        <ele>1881</ele>
        <time>2021-12-17T12:00:58Z</time>
      </trkpt>
      <trkpt lat="45.27644" lon="6.16359">
        <ele>1880.2</ele>
        <time>2021-12-17T12:01:01Z</time>
      </trkpt>
      <trkpt lat="45.27647" lon="6.16391">
        <ele>1878.6</ele>
        <time>2021-12-17T12:01:04Z</time>
      </trkpt>
      <trkpt lat="45.27648" lon="6.16403">
        <ele>1877.2</ele>
        <time>2021-12-17T12:01:05Z</time>
      </trkpt>
      <trkpt lat="45.2765" lon="6.16414">
        <ele>1875.8</ele>
        <time>2021-12-17T12:01:06Z</time>
      </trkpt>
      <trkpt lat="45.27652" lon="6.16424">
        <ele>1874</ele>
        <time>2021-12-17T12:01:07Z</time>
      </trkpt>
      <trkpt lat="45.27655" lon="6.16433">
        <ele>1872.2</ele>
        <time>2021-12-17T12:01:08Z</time>
      </trkpt>
      <trkpt lat="45.27657" lon="6.16441">
        <ele>1871.4</ele>
        <time>2021-12-17T12:01:09Z</time>
      </trkpt>
      <trkpt lat="45.2766" lon="6.16449">
        <ele>1870.6</ele>
        <time>2021-12-17T12:01:10Z</time>
      </trkpt>
      <trkpt lat="45.27665" lon="6.16464">
        <ele>1869.2</ele>
        <time>2021-12-17T12:01:12Z</time>
      </trkpt>
      <trkpt lat="45.27669" lon="6.16478">
        <ele>1867.8</ele>
        <time>2021-12-17T12:01:14Z</time>
      </trkpt>
      <trkpt lat="45.27673" lon="6.16489">
        <ele>1866</ele>
        <time>2021-12-17T12:01:16Z</time>
      </trkpt>
      <trkpt lat="45.27677" lon="6.16502">
        <ele>1864.6</ele>
        <time>2021-12-17T12:01:18Z</time>
      </trkpt>
      <trkpt lat="45.27682" lon="6.16515">
        <ele>1862.2</ele>
        <time>2021-12-17T12:01:20Z</time>
      </trkpt>
      <trkpt lat="45.27685" lon="6.1652">
        <ele>1861.2</ele>
        <time>2021-12-17T12:01:21Z</time>
      </trkpt>
      <trkpt lat="45.27689" lon="6.16519">
        <ele>1859</ele>
        <time>2021-12-17T12:01:22Z</time>
      </trkpt>
      <trkpt lat="45.27694" lon="6.16517">
        <ele>1855.8</ele>
        <time>2021-12-17T12:01:23Z</time>
      </trkpt>
      <trkpt lat="45.277" lon="6.16519">
        <ele>1852.6</ele>
        <time>2021-12-17T12:01:24Z</time>
      </trkpt>
      <trkpt lat="45.27704" lon="6.1652">
        <ele>1850</ele>
        <time>2021-12-17T12:01:25Z</time>
      </trkpt>
      <trkpt lat="45.27708" lon="6.16518">
        <ele>1846.6</ele>
        <time>2021-12-17T12:01:26Z</time>
      </trkpt>
      <trkpt lat="45.27714" lon="6.16516">
        <ele>1843.6</ele>
        <time>2021-12-17T12:01:27Z</time>
      </trkpt>
      <trkpt lat="45.2772" lon="6.16515">
        <ele>1840.2</ele>
        <time>2021-12-17T12:01:28Z</time>
      </trkpt>
      <trkpt lat="45.27726" lon="6.16512">
        <ele>1837.6</ele>
        <time>2021-12-17T12:01:29Z</time>
      </trkpt>
      <trkpt lat="45.27732" lon="6.16507">
        <ele>1834.4</ele>
        <time>2021-12-17T12:01:30Z</time>
      </trkpt>
      <trkpt lat="45.27738" lon="6.16502">
        <ele>1831.8</ele>
        <time>2021-12-17T12:01:31Z</time>
      </trkpt>
      <trkpt lat="45.27745" lon="6.16501">
        <ele>1828.8</ele>
        <time>2021-12-17T12:01:32Z</time>
      </trkpt>
      <trkpt lat="45.27753" lon="6.16498">
        <ele>1826.4</ele>
        <time>2021-12-17T12:01:33Z</time>
      </trkpt>
      <trkpt lat="45.27759" lon="6.16495">
        <ele>1822.8</ele>
        <time>2021-12-17T12:01:34Z</time>
      </trkpt>
      <trkpt lat="45.27765" lon="6.16493">
        <ele>1819.8</ele>
        <time>2021-12-17T12:01:35Z</time>
      </trkpt>
      <trkpt lat="45.2777" lon="6.1649">
        <ele>1817.6</ele>
        <time>2021-12-17T12:01:36Z</time>
      </trkpt>
      <trkpt lat="45.27774" lon="6.16483">
        <ele>1815.2</ele>
        <time>2021-12-17T12:01:37Z</time>
      </trkpt>
      <trkpt lat="45.27776" lon="6.16474">
        <ele>1812.6</ele>
        <time>2021-12-17T12:01:38Z</time>
      </trkpt>
      <trkpt lat="45.27779" lon="6.16466">
        <ele>1811</ele>
        <time>2021-12-17T12:01:39Z</time>
      </trkpt>
      <trkpt lat="45.27784" lon="6.16462">
        <ele>1809.2</ele>
        <time>2021-12-17T12:01:40Z</time>
      </trkpt>
      <trkpt lat="45.27789" lon="6.16464">
        <ele>1806.6</ele>
        <time>2021-12-17T12:01:41Z</time>
      </trkpt>
      <trkpt lat="45.27794" lon="6.1647">
        <ele>1804.6</ele>
        <time>2021-12-17T12:01:42Z</time>
      </trkpt>
      <trkpt lat="45.278" lon="6.16474">
        <ele>1803</ele>
        <time>2021-12-17T12:01:43Z</time>
      </trkpt>
      <trkpt lat="45.27805" lon="6.16473">
        <ele>1801.2</ele>
        <time>2021-12-17T12:01:44Z</time>
      </trkpt>
      <trkpt lat="45.27809" lon="6.16468">
        <ele>1799.6</ele>
        <time>2021-12-17T12:01:45Z</time>
      </trkpt>
      <trkpt lat="45.27814" lon="6.16461">
        <ele>1797.8</ele>
        <time>2021-12-17T12:01:46Z</time>
      </trkpt>
      <trkpt lat="45.27818" lon="6.16459">
        <ele>1796</ele>
        <time>2021-12-17T12:01:47Z</time>
      </trkpt>
      <trkpt lat="45.27823" lon="6.16462">
        <ele>1794.8</ele>
        <time>2021-12-17T12:01:48Z</time>
      </trkpt>
      <trkpt lat="45.27827" lon="6.16468">
        <ele>1793.6</ele>
        <time>2021-12-17T12:01:49Z</time>
      </trkpt>
      <trkpt lat="45.27831" lon="6.16472">
        <ele>1792.4</ele>
        <time>2021-12-17T12:01:50Z</time>
      </trkpt>
      <trkpt lat="45.27836" lon="6.16472">
        <ele>1791</ele>
        <time>2021-12-17T12:01:51Z</time>
      </trkpt>
      <trkpt lat="45.2784" lon="6.16468">
        <ele>1789</ele>
        <time>2021-12-17T12:01:52Z</time>
      </trkpt>
      <trkpt lat="45.27844" lon="6.16464">
        <ele>1787.8</ele>
        <time>2021-12-17T12:01:53Z</time>
      </trkpt>
      <trkpt lat="45.27848" lon="6.16461">
        <ele>1786.8</ele>
        <time>2021-12-17T12:01:54Z</time>
      </trkpt>
      <trkpt lat="45.27852" lon="6.16462">
        <ele>1785.4</ele>
        <time>2021-12-17T12:01:55Z</time>
      </trkpt>
      <trkpt lat="45.27854" lon="6.16465">
        <ele>1784.6</ele>
        <time>2021-12-17T12:01:56Z</time>
      </trkpt>
      <trkpt lat="45.27855" lon="6.1647">
        <ele>1784</ele>
        <time>2021-12-17T12:01:57Z</time>
      </trkpt>
      <trkpt lat="45.27861" lon="6.16476">
        <ele>1782.4</ele>
        <time>2021-12-17T12:01:59Z</time>
      </trkpt>
      <trkpt lat="45.27865" lon="6.1648">
        <ele>1781.4</ele>
        <time>2021-12-17T12:02:00Z</time>
      </trkpt>
      <trkpt lat="45.27868" lon="6.16484">
        <ele>1780.8</ele>
        <time>2021-12-17T12:02:01Z</time>
      </trkpt>
      <trkpt lat="45.27869" lon="6.16489">
        <ele>1779.6</ele>
        <time>2021-12-17T12:02:02Z</time>
      </trkpt>
      <trkpt lat="45.2787" lon="6.16495">
        <ele>1778.8</ele>
        <time>2021-12-17T12:02:03Z</time>
      </trkpt>
      <trkpt lat="45.27871" lon="6.16502">
        <ele>1778.4</ele>
        <time>2021-12-17T12:02:04Z</time>
      </trkpt>
      <trkpt lat="45.27873" lon="6.16516">
        <ele>1777.2</ele>
        <time>2021-12-17T12:02:06Z</time>
      </trkpt>
      <trkpt lat="45.27873" lon="6.16531">
        <ele>1775.6</ele>
        <time>2021-12-17T12:02:08Z</time>
      </trkpt>
      <trkpt lat="45.27876" lon="6.16547">
        <ele>1774.4</ele>
        <time>2021-12-17T12:02:10Z</time>
      </trkpt>
      <trkpt lat="45.27877" lon="6.16557">
        <ele>1773.2</ele>
        <time>2021-12-17T12:02:11Z</time>
      </trkpt>
      <trkpt lat="45.27876" lon="6.16567">
        <ele>1771.4</ele>
        <time>2021-12-17T12:02:12Z</time>
      </trkpt>
      <trkpt lat="45.27875" lon="6.16577">
        <ele>1770.4</ele>
        <time>2021-12-17T12:02:13Z</time>
      </trkpt>
      <trkpt lat="45.27875" lon="6.16587">
        <ele>1769.8</ele>
        <time>2021-12-17T12:02:14Z</time>
      </trkpt>
      <trkpt lat="45.27874" lon="6.16597">
        <ele>1769</ele>
        <time>2021-12-17T12:02:15Z</time>
      </trkpt>
      <trkpt lat="45.27875" lon="6.16606">
        <ele>1768</ele>
        <time>2021-12-17T12:02:16Z</time>
      </trkpt>
      <trkpt lat="45.27879" lon="6.16624">
        <ele>1766.6</ele>
        <time>2021-12-17T12:02:18Z</time>
      </trkpt>
      <trkpt lat="45.2788" lon="6.16632">
        <ele>1764</ele>
        <time>2021-12-17T12:02:19Z</time>
      </trkpt>
      <trkpt lat="45.27881" lon="6.16641">
        <ele>1762.6</ele>
        <time>2021-12-17T12:02:20Z</time>
      </trkpt>
      <trkpt lat="45.27883" lon="6.16653">
        <ele>1760.6</ele>
        <time>2021-12-17T12:02:22Z</time>
      </trkpt>
      <trkpt lat="45.27887" lon="6.16655">
        <ele>1759.8</ele>
        <time>2021-12-17T12:02:23Z</time>
      </trkpt>
      <trkpt lat="45.27892" lon="6.16657">
        <ele>1759</ele>
        <time>2021-12-17T12:02:24Z</time>
      </trkpt>
      <trkpt lat="45.27895" lon="6.16661">
        <ele>1758.2</ele>
        <time>2021-12-17T12:02:25Z</time>
      </trkpt>
      <trkpt lat="45.27896" lon="6.16665">
        <ele>1757.2</ele>
        <time>2021-12-17T12:02:26Z</time>
      </trkpt>
      <trkpt lat="45.27899" lon="6.16666">
        <ele>1756.4</ele>
        <time>2021-12-17T12:02:27Z</time>
      </trkpt>
      <trkpt lat="45.27902" lon="6.16667">
        <ele>1755.6</ele>
        <time>2021-12-17T12:02:28Z</time>
      </trkpt>
      <trkpt lat="45.27907" lon="6.16669">
        <ele>1754.2</ele>
        <time>2021-12-17T12:02:30Z</time>
      </trkpt>
      <trkpt lat="45.27912" lon="6.16674">
        <ele>1753</ele>
        <time>2021-12-17T12:02:32Z</time>
      </trkpt>
      <trkpt lat="45.27917" lon="6.16683">
        <ele>1751.4</ele>
        <time>2021-12-17T12:02:34Z</time>
      </trkpt>
      <trkpt lat="45.27922" lon="6.16692">
        <ele>1750</ele>
        <time>2021-12-17T12:02:36Z</time>
      </trkpt>
      <trkpt lat="45.27925" lon="6.16698">
        <ele>1749.4</ele>
        <time>2021-12-17T12:02:37Z</time>
      </trkpt>
      <trkpt lat="45.27929" lon="6.16703">
        <ele>1748.8</ele>
        <time>2021-12-17T12:02:38Z</time>
      </trkpt>
      <trkpt lat="45.27937" lon="6.16712">
        <ele>1747.2</ele>
        <time>2021-12-17T12:02:40Z</time>
      </trkpt>
      <trkpt lat="45.2794" lon="6.16717">
        <ele>1746.8</ele>
        <time>2021-12-17T12:02:41Z</time>
      </trkpt>
      <trkpt lat="45.2794" lon="6.16728">
        <ele>1746</ele>
        <time>2021-12-17T12:02:43Z</time>
      </trkpt>
      <trkpt lat="45.2794" lon="6.16734">
        <ele>1745.6</ele>
        <time>2021-12-17T12:02:44Z</time>
      </trkpt>
      <trkpt lat="45.2794" lon="6.16739">
        <ele>1745.4</ele>
        <time>2021-12-17T12:02:45Z</time>
      </trkpt>
      <trkpt lat="45.27946" lon="6.16748">
        <ele>1745</ele>
        <time>2021-12-17T12:02:47Z</time>
      </trkpt>
      <trkpt lat="45.27954" lon="6.1676">
        <ele>1743.6</ele>
        <time>2021-12-17T12:02:49Z</time>
      </trkpt>
      <trkpt lat="45.27958" lon="6.16767">
        <ele>1743</ele>
        <time>2021-12-17T12:02:50Z</time>
      </trkpt>
      <trkpt lat="45.2796" lon="6.16775">
        <ele>1742</ele>
        <time>2021-12-17T12:02:51Z</time>
      </trkpt>
      <trkpt lat="45.27964" lon="6.16791">
        <ele>1740.6</ele>
        <time>2021-12-17T12:02:53Z</time>
      </trkpt>
      <trkpt lat="45.27964" lon="6.168">
        <ele>1740</ele>
        <time>2021-12-17T12:02:54Z</time>
      </trkpt>
      <trkpt lat="45.27963" lon="6.16808">
        <ele>1739.6</ele>
        <time>2021-12-17T12:02:55Z</time>
      </trkpt>
      <trkpt lat="45.27963" lon="6.16822">
        <ele>1738.6</ele>
        <time>2021-12-17T12:02:57Z</time>
      </trkpt>
      <trkpt lat="45.27964" lon="6.16828">
        <ele>1738.4</ele>
        <time>2021-12-17T12:02:58Z</time>
      </trkpt>
      <trkpt lat="45.27968" lon="6.16833">
        <ele>1737.8</ele>
        <time>2021-12-17T12:02:59Z</time>
      </trkpt>
      <trkpt lat="45.27975" lon="6.16844">
        <ele>1736.6</ele>
        <time>2021-12-17T12:03:01Z</time>
      </trkpt>
      <trkpt lat="45.27977" lon="6.16855">
        <ele>1735.8</ele>
        <time>2021-12-17T12:03:03Z</time>
      </trkpt>
      <trkpt lat="45.27978" lon="6.1686">
        <ele>1735.6</ele>
        <time>2021-12-17T12:03:04Z</time>
      </trkpt>
      <trkpt lat="45.27979" lon="6.16864">
        <ele>1735.6</ele>
        <time>2021-12-17T12:03:05Z</time>
      </trkpt>
      <trkpt lat="45.27984" lon="6.16877">
        <ele>1735.4</ele>
        <time>2021-12-17T12:03:09Z</time>
      </trkpt>
      <trkpt lat="45.27987" lon="6.16882">
        <ele>1735.4</ele>
        <time>2021-12-17T12:03:13Z</time>
      </trkpt>
      <trkpt lat="45.2799" lon="6.16888">
        <ele>1736</ele>
        <time>2021-12-17T12:03:21Z</time>
      </trkpt>
      <trkpt lat="45.27994" lon="6.16895">
        <ele>1736.6</ele>
        <time>2021-12-17T12:03:31Z</time>
      </trkpt>
      <trkpt lat="45.27994" lon="6.16895">
        <ele>1736.6</ele>
        <time>2021-12-17T12:03:32Z</time>
      </trkpt>
      <trkpt lat="45.27996" lon="6.16899">
        <ele>1737</ele>
        <time>2021-12-17T12:03:38Z</time>
      </trkpt>
      <trkpt lat="45.27997" lon="6.16905">
        <ele>1737</ele>
        <time>2021-12-17T12:03:44Z</time>
      </trkpt>
      <trkpt lat="45.28" lon="6.16914">
        <ele>1736.8</ele>
        <time>2021-12-17T12:03:50Z</time>
      </trkpt>
      <trkpt lat="45.28" lon="6.16933">
        <ele>1736.2</ele>
        <time>2021-12-17T12:03:56Z</time>
      </trkpt>
      <trkpt lat="45.28" lon="6.16948">
        <ele>1735.4</ele>
        <time>2021-12-17T12:03:59Z</time>
      </trkpt>
      <trkpt lat="45.28001" lon="6.16962">
        <ele>1734.8</ele>
        <time>2021-12-17T12:04:01Z</time>
      </trkpt>
      <trkpt lat="45.28001" lon="6.16969">
        <ele>1733.8</ele>
        <time>2021-12-17T12:04:02Z</time>
      </trkpt>
      <trkpt lat="45.28001" lon="6.16982">
        <ele>1733.2</ele>
        <time>2021-12-17T12:04:04Z</time>
      </trkpt>
      <trkpt lat="45.28003" lon="6.16988">
        <ele>1732.8</ele>
        <time>2021-12-17T12:04:05Z</time>
      </trkpt>
      <trkpt lat="45.28005" lon="6.16995">
        <ele>1732.6</ele>
        <time>2021-12-17T12:04:06Z</time>
      </trkpt>
      <trkpt lat="45.28012" lon="6.17014">
        <ele>1731.6</ele>
        <time>2021-12-17T12:04:09Z</time>
      </trkpt>
      <trkpt lat="45.28015" lon="6.17019">
        <ele>1731.4</ele>
        <time>2021-12-17T12:04:10Z</time>
      </trkpt>
      <trkpt lat="45.28018" lon="6.17029">
        <ele>1730.6</ele>
        <time>2021-12-17T12:04:12Z</time>
      </trkpt>
      <trkpt lat="45.28019" lon="6.17035">
        <ele>1730.4</ele>
        <time>2021-12-17T12:04:13Z</time>
      </trkpt>
      <trkpt lat="45.2802" lon="6.1704">
        <ele>1730.2</ele>
        <time>2021-12-17T12:04:14Z</time>
      </trkpt>
      <trkpt lat="45.2802" lon="6.17064">
        <ele>1729.2</ele>
        <time>2021-12-17T12:04:17Z</time>
      </trkpt>
      <trkpt lat="45.2802" lon="6.17073">
        <ele>1728.6</ele>
        <time>2021-12-17T12:04:18Z</time>
      </trkpt>
      <trkpt lat="45.28019" lon="6.17093">
        <ele>1728</ele>
        <time>2021-12-17T12:04:20Z</time>
      </trkpt>
      <trkpt lat="45.28019" lon="6.17102">
        <ele>1727.4</ele>
        <time>2021-12-17T12:04:21Z</time>
      </trkpt>
      <trkpt lat="45.28019" lon="6.17112">
        <ele>1726.6</ele>
        <time>2021-12-17T12:04:22Z</time>
      </trkpt>
      <trkpt lat="45.28019" lon="6.17121">
        <ele>1726.2</ele>
        <time>2021-12-17T12:04:23Z</time>
      </trkpt>
      <trkpt lat="45.28019" lon="6.1713">
        <ele>1725.4</ele>
        <time>2021-12-17T12:04:24Z</time>
      </trkpt>
      <trkpt lat="45.28017" lon="6.17146">
        <ele>1724.2</ele>
        <time>2021-12-17T12:04:26Z</time>
      </trkpt>
      <trkpt lat="45.28016" lon="6.17154">
        <ele>1723.8</ele>
        <time>2021-12-17T12:04:27Z</time>
      </trkpt>
      <trkpt lat="45.28014" lon="6.17163">
        <ele>1722.8</ele>
        <time>2021-12-17T12:04:28Z</time>
      </trkpt>
      <trkpt lat="45.28011" lon="6.17183">
        <ele>1720.2</ele>
        <time>2021-12-17T12:04:30Z</time>
      </trkpt>
      <trkpt lat="45.2801" lon="6.17194">
        <ele>1719</ele>
        <time>2021-12-17T12:04:31Z</time>
      </trkpt>
      <trkpt lat="45.28009" lon="6.17204">
        <ele>1718.2</ele>
        <time>2021-12-17T12:04:32Z</time>
      </trkpt>
      <trkpt lat="45.28009" lon="6.17215">
        <ele>1717.8</ele>
        <time>2021-12-17T12:04:33Z</time>
      </trkpt>
      <trkpt lat="45.28008" lon="6.17234">
        <ele>1717</ele>
        <time>2021-12-17T12:04:35Z</time>
      </trkpt>
      <trkpt lat="45.28009" lon="6.17253">
        <ele>1716.6</ele>
        <time>2021-12-17T12:04:37Z</time>
      </trkpt>
      <trkpt lat="45.2801" lon="6.17263">
        <ele>1716.2</ele>
        <time>2021-12-17T12:04:38Z</time>
      </trkpt>
      <trkpt lat="45.28011" lon="6.17272">
        <ele>1715.4</ele>
        <time>2021-12-17T12:04:39Z</time>
      </trkpt>
      <trkpt lat="45.28013" lon="6.1729">
        <ele>1713.8</ele>
        <time>2021-12-17T12:04:41Z</time>
      </trkpt>
      <trkpt lat="45.28014" lon="6.17299">
        <ele>1713</ele>
        <time>2021-12-17T12:04:42Z</time>
      </trkpt>
      <trkpt lat="45.28016" lon="6.17308">
        <ele>1712.4</ele>
        <time>2021-12-17T12:04:43Z</time>
      </trkpt>
      <trkpt lat="45.28016" lon="6.17316">
        <ele>1710.6</ele>
        <time>2021-12-17T12:04:44Z</time>
      </trkpt>
      <trkpt lat="45.28013" lon="6.17321">
        <ele>1709</ele>
        <time>2021-12-17T12:04:45Z</time>
      </trkpt>
      <trkpt lat="45.28011" lon="6.17326">
        <ele>1708</ele>
        <time>2021-12-17T12:04:46Z</time>
      </trkpt>
      <trkpt lat="45.2801" lon="6.17331">
        <ele>1706.2</ele>
        <time>2021-12-17T12:04:47Z</time>
      </trkpt>
      <trkpt lat="45.28012" lon="6.17345">
        <ele>1704.6</ele>
        <time>2021-12-17T12:04:49Z</time>
      </trkpt>
      <trkpt lat="45.28014" lon="6.17352">
        <ele>1703.2</ele>
        <time>2021-12-17T12:04:50Z</time>
      </trkpt>
      <trkpt lat="45.28015" lon="6.17359">
        <ele>1702.2</ele>
        <time>2021-12-17T12:04:51Z</time>
      </trkpt>
      <trkpt lat="45.28012" lon="6.17374">
        <ele>1699.6</ele>
        <time>2021-12-17T12:04:53Z</time>
      </trkpt>
      <trkpt lat="45.28011" lon="6.17384">
        <ele>1697.8</ele>
        <time>2021-12-17T12:04:54Z</time>
      </trkpt>
      <trkpt lat="45.28011" lon="6.17395">
        <ele>1696</ele>
        <time>2021-12-17T12:04:55Z</time>
      </trkpt>
      <trkpt lat="45.28013" lon="6.17407">
        <ele>1695</ele>
        <time>2021-12-17T12:04:56Z</time>
      </trkpt>
      <trkpt lat="45.28015" lon="6.17419">
        <ele>1694.4</ele>
        <time>2021-12-17T12:04:57Z</time>
      </trkpt>
      <trkpt lat="45.28017" lon="6.17431">
        <ele>1692.6</ele>
        <time>2021-12-17T12:04:58Z</time>
      </trkpt>
      <trkpt lat="45.28018" lon="6.17443">
        <ele>1691.6</ele>
        <time>2021-12-17T12:04:59Z</time>
      </trkpt>
      <trkpt lat="45.28019" lon="6.17455">
        <ele>1689.6</ele>
        <time>2021-12-17T12:05:00Z</time>
      </trkpt>
      <trkpt lat="45.28021" lon="6.17466">
        <ele>1688.4</ele>
        <time>2021-12-17T12:05:01Z</time>
      </trkpt>
      <trkpt lat="45.28024" lon="6.17489">
        <ele>1687.2</ele>
        <time>2021-12-17T12:05:03Z</time>
      </trkpt>
      <trkpt lat="45.28024" lon="6.175">
        <ele>1686.8</ele>
        <time>2021-12-17T12:05:04Z</time>
      </trkpt>
      <trkpt lat="45.28024" lon="6.1751">
        <ele>1686.2</ele>
        <time>2021-12-17T12:05:05Z</time>
      </trkpt>
      <trkpt lat="45.28024" lon="6.17521">
        <ele>1685</ele>
        <time>2021-12-17T12:05:06Z</time>
      </trkpt>
      <trkpt lat="45.28024" lon="6.17543">
        <ele>1682.8</ele>
        <time>2021-12-17T12:05:08Z</time>
      </trkpt>
      <trkpt lat="45.28024" lon="6.17554">
        <ele>1681.4</ele>
        <time>2021-12-17T12:05:09Z</time>
      </trkpt>
      <trkpt lat="45.28024" lon="6.17565">
        <ele>1679.8</ele>
        <time>2021-12-17T12:05:10Z</time>
      </trkpt>
      <trkpt lat="45.28022" lon="6.17576">
        <ele>1678.2</ele>
        <time>2021-12-17T12:05:11Z</time>
      </trkpt>
      <trkpt lat="45.2802" lon="6.17585">
        <ele>1676.6</ele>
        <time>2021-12-17T12:05:12Z</time>
      </trkpt>
      <trkpt lat="45.28018" lon="6.17594">
        <ele>1675.4</ele>
        <time>2021-12-17T12:05:13Z</time>
      </trkpt>
      <trkpt lat="45.28017" lon="6.17601">
        <ele>1674.4</ele>
        <time>2021-12-17T12:05:14Z</time>
      </trkpt>
      <trkpt lat="45.28017" lon="6.17609">
        <ele>1673.8</ele>
        <time>2021-12-17T12:05:15Z</time>
      </trkpt>
      <trkpt lat="45.28018" lon="6.17616">
        <ele>1673.2</ele>
        <time>2021-12-17T12:05:16Z</time>
      </trkpt>
      <trkpt lat="45.28017" lon="6.17622">
        <ele>1672.4</ele>
        <time>2021-12-17T12:05:17Z</time>
      </trkpt>
      <trkpt lat="45.28014" lon="6.17638">
        <ele>1671.2</ele>
        <time>2021-12-17T12:05:20Z</time>
      </trkpt>
      <trkpt lat="45.28012" lon="6.17649">
        <ele>1669.8</ele>
        <time>2021-12-17T12:05:22Z</time>
      </trkpt>
      <trkpt lat="45.28011" lon="6.17662">
        <ele>1668</ele>
        <time>2021-12-17T12:05:24Z</time>
      </trkpt>
      <trkpt lat="45.2801" lon="6.1767">
        <ele>1667.4</ele>
        <time>2021-12-17T12:05:25Z</time>
      </trkpt>
      <trkpt lat="45.2801" lon="6.17678">
        <ele>1666.8</ele>
        <time>2021-12-17T12:05:26Z</time>
      </trkpt>
      <trkpt lat="45.2801" lon="6.17695">
        <ele>1665</ele>
        <time>2021-12-17T12:05:28Z</time>
      </trkpt>
      <trkpt lat="45.28011" lon="6.17711">
        <ele>1663.8</ele>
        <time>2021-12-17T12:05:30Z</time>
      </trkpt>
      <trkpt lat="45.28013" lon="6.1773">
        <ele>1662.8</ele>
        <time>2021-12-17T12:05:32Z</time>
      </trkpt>
      <trkpt lat="45.28013" lon="6.1774">
        <ele>1661.6</ele>
        <time>2021-12-17T12:05:33Z</time>
      </trkpt>
      <trkpt lat="45.28013" lon="6.1775">
        <ele>1660.6</ele>
        <time>2021-12-17T12:05:34Z</time>
      </trkpt>
      <trkpt lat="45.28013" lon="6.1776">
        <ele>1659.4</ele>
        <time>2021-12-17T12:05:35Z</time>
      </trkpt>
      <trkpt lat="45.2801" lon="6.17781">
        <ele>1657.8</ele>
        <time>2021-12-17T12:05:37Z</time>
      </trkpt>
      <trkpt lat="45.28007" lon="6.1779">
        <ele>1655.8</ele>
        <time>2021-12-17T12:05:38Z</time>
      </trkpt>
      <trkpt lat="45.28003" lon="6.17799">
        <ele>1653.6</ele>
        <time>2021-12-17T12:05:39Z</time>
      </trkpt>
      <trkpt lat="45.28001" lon="6.17809">
        <ele>1652</ele>
        <time>2021-12-17T12:05:40Z</time>
      </trkpt>
      <trkpt lat="45.28" lon="6.1782">
        <ele>1651.2</ele>
        <time>2021-12-17T12:05:41Z</time>
      </trkpt>
      <trkpt lat="45.27998" lon="6.1783">
        <ele>1649.8</ele>
        <time>2021-12-17T12:05:42Z</time>
      </trkpt>
      <trkpt lat="45.27996" lon="6.17841">
        <ele>1647.8</ele>
        <time>2021-12-17T12:05:43Z</time>
      </trkpt>
      <trkpt lat="45.27994" lon="6.1785">
        <ele>1646.6</ele>
        <time>2021-12-17T12:05:44Z</time>
      </trkpt>
      <trkpt lat="45.27993" lon="6.1786">
        <ele>1645.4</ele>
        <time>2021-12-17T12:05:45Z</time>
      </trkpt>
      <trkpt lat="45.27993" lon="6.17869">
        <ele>1644.2</ele>
        <time>2021-12-17T12:05:46Z</time>
      </trkpt>
      <trkpt lat="45.27992" lon="6.17886">
        <ele>1642.8</ele>
        <time>2021-12-17T12:05:48Z</time>
      </trkpt>
      <trkpt lat="45.2799" lon="6.17895">
        <ele>1642</ele>
        <time>2021-12-17T12:05:49Z</time>
      </trkpt>
      <trkpt lat="45.27987" lon="6.17903">
        <ele>1641.6</ele>
        <time>2021-12-17T12:05:50Z</time>
      </trkpt>
      <trkpt lat="45.27982" lon="6.17922">
        <ele>1639.2</ele>
        <time>2021-12-17T12:05:52Z</time>
      </trkpt>
      <trkpt lat="45.2798" lon="6.17932">
        <ele>1638</ele>
        <time>2021-12-17T12:05:53Z</time>
      </trkpt>
      <trkpt lat="45.27979" lon="6.17942">
        <ele>1637.2</ele>
        <time>2021-12-17T12:05:54Z</time>
      </trkpt>
      <trkpt lat="45.27979" lon="6.17952">
        <ele>1635.6</ele>
        <time>2021-12-17T12:05:55Z</time>
      </trkpt>
      <trkpt lat="45.2798" lon="6.1797">
        <ele>1633.4</ele>
        <time>2021-12-17T12:05:57Z</time>
      </trkpt>
      <trkpt lat="45.27981" lon="6.17978">
        <ele>1632.8</ele>
        <time>2021-12-17T12:05:58Z</time>
      </trkpt>
      <trkpt lat="45.27982" lon="6.17985">
        <ele>1632.4</ele>
        <time>2021-12-17T12:05:59Z</time>
      </trkpt>
      <trkpt lat="45.27981" lon="6.17998">
        <ele>1631.6</ele>
        <time>2021-12-17T12:06:01Z</time>
      </trkpt>
      <trkpt lat="45.2798" lon="6.18005">
        <ele>1631</ele>
        <time>2021-12-17T12:06:02Z</time>
      </trkpt>
      <trkpt lat="45.27979" lon="6.18012">
        <ele>1629.8</ele>
        <time>2021-12-17T12:06:03Z</time>
      </trkpt>
      <trkpt lat="45.27979" lon="6.1802">
        <ele>1628.8</ele>
        <time>2021-12-17T12:06:04Z</time>
      </trkpt>
      <trkpt lat="45.2798" lon="6.18027">
        <ele>1628</ele>
        <time>2021-12-17T12:06:05Z</time>
      </trkpt>
      <trkpt lat="45.27982" lon="6.18034">
        <ele>1627.2</ele>
        <time>2021-12-17T12:06:06Z</time>
      </trkpt>
      <trkpt lat="45.27984" lon="6.1804">
        <ele>1626.2</ele>
        <time>2021-12-17T12:06:07Z</time>
      </trkpt>
      <trkpt lat="45.27987" lon="6.18053">
        <ele>1625</ele>
        <time>2021-12-17T12:06:09Z</time>
      </trkpt>
      <trkpt lat="45.27989" lon="6.18068">
        <ele>1623.8</ele>
        <time>2021-12-17T12:06:11Z</time>
      </trkpt>
      <trkpt lat="45.27989" lon="6.18076">
        <ele>1623</ele>
        <time>2021-12-17T12:06:12Z</time>
      </trkpt>
      <trkpt lat="45.2799" lon="6.18085">
        <ele>1622.2</ele>
        <time>2021-12-17T12:06:13Z</time>
      </trkpt>
      <trkpt lat="45.2799" lon="6.18094">
        <ele>1621.2</ele>
        <time>2021-12-17T12:06:14Z</time>
      </trkpt>
      <trkpt lat="45.27989" lon="6.18104">
        <ele>1620</ele>
        <time>2021-12-17T12:06:15Z</time>
      </trkpt>
      <trkpt lat="45.27987" lon="6.18114">
        <ele>1618.2</ele>
        <time>2021-12-17T12:06:16Z</time>
      </trkpt>
      <trkpt lat="45.27987" lon="6.18122">
        <ele>1616.6</ele>
        <time>2021-12-17T12:06:17Z</time>
      </trkpt>
      <trkpt lat="45.27986" lon="6.18132">
        <ele>1615</ele>
        <time>2021-12-17T12:06:18Z</time>
      </trkpt>
      <trkpt lat="45.27986" lon="6.18139">
        <ele>1614.2</ele>
        <time>2021-12-17T12:06:19Z</time>
      </trkpt>
      <trkpt lat="45.27984" lon="6.18146">
        <ele>1613.6</ele>
        <time>2021-12-17T12:06:20Z</time>
      </trkpt>
      <trkpt lat="45.27982" lon="6.18152">
        <ele>1613.2</ele>
        <time>2021-12-17T12:06:21Z</time>
      </trkpt>
      <trkpt lat="45.27979" lon="6.18167">
        <ele>1611.6</ele>
        <time>2021-12-17T12:06:23Z</time>
      </trkpt>
      <trkpt lat="45.27979" lon="6.18176">
        <ele>1610.2</ele>
        <time>2021-12-17T12:06:24Z</time>
      </trkpt>
      <trkpt lat="45.27981" lon="6.18184">
        <ele>1608.8</ele>
        <time>2021-12-17T12:06:25Z</time>
      </trkpt>
      <trkpt lat="45.27985" lon="6.18198">
        <ele>1606.6</ele>
        <time>2021-12-17T12:06:27Z</time>
      </trkpt>
      <trkpt lat="45.27988" lon="6.18206">
        <ele>1605.6</ele>
        <time>2021-12-17T12:06:28Z</time>
      </trkpt>
      <trkpt lat="45.2799" lon="6.18211">
        <ele>1605</ele>
        <time>2021-12-17T12:06:29Z</time>
      </trkpt>
      <trkpt lat="45.27996" lon="6.1822">
        <ele>1603.6</ele>
        <time>2021-12-17T12:06:31Z</time>
      </trkpt>
      <trkpt lat="45.27998" lon="6.18226">
        <ele>1602.8</ele>
        <time>2021-12-17T12:06:32Z</time>
      </trkpt>
      <trkpt lat="45.28" lon="6.18233">
        <ele>1602</ele>
        <time>2021-12-17T12:06:33Z</time>
      </trkpt>
      <trkpt lat="45.28001" lon="6.18238">
        <ele>1601.6</ele>
        <time>2021-12-17T12:06:34Z</time>
      </trkpt>
      <trkpt lat="45.28002" lon="6.18243">
        <ele>1601.2</ele>
        <time>2021-12-17T12:06:35Z</time>
      </trkpt>
      <trkpt lat="45.28002" lon="6.18248">
        <ele>1601</ele>
        <time>2021-12-17T12:06:36Z</time>
      </trkpt>
      <trkpt lat="45.28" lon="6.18261">
        <ele>1600.4</ele>
        <time>2021-12-17T12:06:38Z</time>
      </trkpt>
      <trkpt lat="45.27999" lon="6.18267">
        <ele>1599.8</ele>
        <time>2021-12-17T12:06:39Z</time>
      </trkpt>
      <trkpt lat="45.27998" lon="6.18273">
        <ele>1599.6</ele>
        <time>2021-12-17T12:06:40Z</time>
      </trkpt>
      <trkpt lat="45.27993" lon="6.18286">
        <ele>1599.4</ele>
        <time>2021-12-17T12:06:43Z</time>
      </trkpt>
      <trkpt lat="45.27983" lon="6.18301">
        <ele>1598.8</ele>
        <time>2021-12-17T12:06:49Z</time>
      </trkpt>
      <trkpt lat="45.27981" lon="6.18302">
        <ele>1598.8</ele>
        <time>2021-12-17T12:06:50Z</time>
      </trkpt>
      <trkpt lat="45.27973" lon="6.18318">
        <ele>1597.8</ele>
        <time>2021-12-17T12:06:55Z</time>
      </trkpt>
      <trkpt lat="45.27972" lon="6.18321">
        <ele>1597.8</ele>
        <time>2021-12-17T12:06:56Z</time>
      </trkpt>
      <trkpt lat="45.27964" lon="6.18338">
        <ele>1596.6</ele>
        <time>2021-12-17T12:07:00Z</time>
      </trkpt>
      <trkpt lat="45.27962" lon="6.18343">
        <ele>1596</ele>
        <time>2021-12-17T12:07:01Z</time>
      </trkpt>
      <trkpt lat="45.2796" lon="6.18349">
        <ele>1595.2</ele>
        <time>2021-12-17T12:07:02Z</time>
      </trkpt>
      <trkpt lat="45.27956" lon="6.1836">
        <ele>1594</ele>
        <time>2021-12-17T12:07:04Z</time>
      </trkpt>
      <trkpt lat="45.27956" lon="6.18365">
        <ele>1592.8</ele>
        <time>2021-12-17T12:07:05Z</time>
      </trkpt>
      <trkpt lat="45.27955" lon="6.18372">
        <ele>1592</ele>
        <time>2021-12-17T12:07:06Z</time>
      </trkpt>
      <trkpt lat="45.27953" lon="6.18377">
        <ele>1591.2</ele>
        <time>2021-12-17T12:07:07Z</time>
      </trkpt>
      <trkpt lat="45.27948" lon="6.18387">
        <ele>1589.8</ele>
        <time>2021-12-17T12:07:09Z</time>
      </trkpt>
      <trkpt lat="45.27946" lon="6.18392">
        <ele>1588.2</ele>
        <time>2021-12-17T12:07:10Z</time>
      </trkpt>
      <trkpt lat="45.27945" lon="6.18398">
        <ele>1587.2</ele>
        <time>2021-12-17T12:07:11Z</time>
      </trkpt>
      <trkpt lat="45.27946" lon="6.18399">
        <ele>1586.8</ele>
        <time>2021-12-17T12:07:12Z</time>
      </trkpt>
      <trkpt lat="45.27947" lon="6.184">
        <ele>1586.2</ele>
        <time>2021-12-17T12:07:16Z</time>
      </trkpt>
      <trkpt lat="45.27944" lon="6.18404">
        <ele>1586.2</ele>
        <time>2021-12-17T12:07:20Z</time>
      </trkpt>
      <trkpt lat="45.27942" lon="6.18407">
        <ele>1585.6</ele>
        <time>2021-12-17T12:07:22Z</time>
      </trkpt>
      <trkpt lat="45.27942" lon="6.18408">
        <ele>1585</ele>
        <time>2021-12-17T12:07:23Z</time>
      </trkpt>
      <trkpt lat="45.27943" lon="6.18408">
        <ele>1584.2</ele>
        <time>2021-12-17T12:07:24Z</time>
      </trkpt>
      <trkpt lat="45.27944" lon="6.18408">
        <ele>1583.8</ele>
        <time>2021-12-17T12:07:25Z</time>
      </trkpt>
      <trkpt lat="45.27949" lon="6.18407">
        <ele>1583.2</ele>
        <time>2021-12-17T12:07:28Z</time>
      </trkpt>
      <trkpt lat="45.27951" lon="6.18407">
        <ele>1582.2</ele>
        <time>2021-12-17T12:07:29Z</time>
      </trkpt>
      <trkpt lat="45.27953" lon="6.18409">
        <ele>1581.6</ele>
        <time>2021-12-17T12:07:30Z</time>
      </trkpt>
      <trkpt lat="45.27955" lon="6.18412">
        <ele>1581</ele>
        <time>2021-12-17T12:07:31Z</time>
      </trkpt>
      <trkpt lat="45.27957" lon="6.18415">
        <ele>1580.4</ele>
        <time>2021-12-17T12:07:32Z</time>
      </trkpt>
      <trkpt lat="45.27958" lon="6.18424">
        <ele>1579.2</ele>
        <time>2021-12-17T12:07:34Z</time>
      </trkpt>
      <trkpt lat="45.27958" lon="6.1843">
        <ele>1578.8</ele>
        <time>2021-12-17T12:07:35Z</time>
      </trkpt>
      <trkpt lat="45.27956" lon="6.18437">
        <ele>1578.2</ele>
        <time>2021-12-17T12:07:36Z</time>
      </trkpt>
      <trkpt lat="45.27952" lon="6.18448">
        <ele>1577.2</ele>
        <time>2021-12-17T12:07:38Z</time>
      </trkpt>
      <trkpt lat="45.27951" lon="6.18453">
        <ele>1577</ele>
        <time>2021-12-17T12:07:39Z</time>
      </trkpt>
      <trkpt lat="45.27946" lon="6.18469">
        <ele>1576.2</ele>
        <time>2021-12-17T12:07:43Z</time>
      </trkpt>
      <trkpt lat="45.27944" lon="6.18479">
        <ele>1575.6</ele>
        <time>2021-12-17T12:07:45Z</time>
      </trkpt>
      <trkpt lat="45.27943" lon="6.18488">
        <ele>1574.8</ele>
        <time>2021-12-17T12:07:47Z</time>
      </trkpt>
      <trkpt lat="45.27943" lon="6.18492">
        <ele>1574.4</ele>
        <time>2021-12-17T12:07:49Z</time>
      </trkpt>
      <trkpt lat="45.27943" lon="6.18493">
        <ele>1574.4</ele>
        <time>2021-12-17T12:07:51Z</time>
      </trkpt>
      <trkpt lat="45.27935" lon="6.18489">
        <ele>1571.2</ele>
        <time>2021-12-17T12:07:56Z</time>
      </trkpt>
      <trkpt lat="45.27934" lon="6.18484">
        <ele>1569.8</ele>
        <time>2021-12-17T12:07:57Z</time>
      </trkpt>
      <trkpt lat="45.27933" lon="6.18474">
        <ele>1568</ele>
        <time>2021-12-17T12:07:59Z</time>
      </trkpt>
      <trkpt lat="45.27931" lon="6.18465">
        <ele>1567</ele>
        <time>2021-12-17T12:08:01Z</time>
      </trkpt>
      <trkpt lat="45.27929" lon="6.18464">
        <ele>1566.2</ele>
        <time>2021-12-17T12:08:03Z</time>
      </trkpt>
      <trkpt lat="45.27927" lon="6.18464">
        <ele>1566</ele>
        <time>2021-12-17T12:08:04Z</time>
      </trkpt>
      <trkpt lat="45.27918" lon="6.18467">
        <ele>1564.4</ele>
        <time>2021-12-17T12:08:07Z</time>
      </trkpt>
      <trkpt lat="45.27916" lon="6.18471">
        <ele>1563.6</ele>
        <time>2021-12-17T12:08:08Z</time>
      </trkpt>
      <trkpt lat="45.27917" lon="6.18476">
        <ele>1562.8</ele>
        <time>2021-12-17T12:08:09Z</time>
      </trkpt>
      <trkpt lat="45.27916" lon="6.18482">
        <ele>1561.6</ele>
        <time>2021-12-17T12:08:10Z</time>
      </trkpt>
      <trkpt lat="45.27914" lon="6.18487">
        <ele>1561</ele>
        <time>2021-12-17T12:08:11Z</time>
      </trkpt>
      <trkpt lat="45.27911" lon="6.18489">
        <ele>1560</ele>
        <time>2021-12-17T12:08:12Z</time>
      </trkpt>
      <trkpt lat="45.27908" lon="6.1849">
        <ele>1559</ele>
        <time>2021-12-17T12:08:13Z</time>
      </trkpt>
      <trkpt lat="45.27905" lon="6.18491">
        <ele>1558.2</ele>
        <time>2021-12-17T12:08:14Z</time>
      </trkpt>
      <trkpt lat="45.27903" lon="6.18494">
        <ele>1557.2</ele>
        <time>2021-12-17T12:08:15Z</time>
      </trkpt>
      <trkpt lat="45.27901" lon="6.18498">
        <ele>1556.2</ele>
        <time>2021-12-17T12:08:16Z</time>
      </trkpt>
      <trkpt lat="45.27896" lon="6.18505">
        <ele>1554.4</ele>
        <time>2021-12-17T12:08:18Z</time>
      </trkpt>
      <trkpt lat="45.27892" lon="6.18515">
        <ele>1552.4</ele>
        <time>2021-12-17T12:08:20Z</time>
      </trkpt>
      <trkpt lat="45.27892" lon="6.18521">
        <ele>1551.2</ele>
        <time>2021-12-17T12:08:21Z</time>
      </trkpt>
      <trkpt lat="45.27893" lon="6.18526">
        <ele>1550</ele>
        <time>2021-12-17T12:08:22Z</time>
      </trkpt>
      <trkpt lat="45.27895" lon="6.18538">
        <ele>1548</ele>
        <time>2021-12-17T12:08:24Z</time>
      </trkpt>
      <trkpt lat="45.27898" lon="6.18543">
        <ele>1547.2</ele>
        <time>2021-12-17T12:08:25Z</time>
      </trkpt>
      <trkpt lat="45.27899" lon="6.18547">
        <ele>1546.4</ele>
        <time>2021-12-17T12:08:26Z</time>
      </trkpt>
      <trkpt lat="45.27902" lon="6.18557">
        <ele>1545</ele>
        <time>2021-12-17T12:08:28Z</time>
      </trkpt>
      <trkpt lat="45.27903" lon="6.18562">
        <ele>1544.4</ele>
        <time>2021-12-17T12:08:29Z</time>
      </trkpt>
      <trkpt lat="45.27904" lon="6.18568">
        <ele>1543.8</ele>
        <time>2021-12-17T12:08:30Z</time>
      </trkpt>
      <trkpt lat="45.27904" lon="6.18582">
        <ele>1542.4</ele>
        <time>2021-12-17T12:08:32Z</time>
      </trkpt>
      <trkpt lat="45.27903" lon="6.18592">
        <ele>1541.2</ele>
        <time>2021-12-17T12:08:33Z</time>
      </trkpt>
      <trkpt lat="45.27902" lon="6.18603">
        <ele>1539.8</ele>
        <time>2021-12-17T12:08:34Z</time>
      </trkpt>
      <trkpt lat="45.27901" lon="6.18614">
        <ele>1538.6</ele>
        <time>2021-12-17T12:08:35Z</time>
      </trkpt>
      <trkpt lat="45.279" lon="6.18626">
        <ele>1537.2</ele>
        <time>2021-12-17T12:08:36Z</time>
      </trkpt>
      <trkpt lat="45.27899" lon="6.18637">
        <ele>1536.4</ele>
        <time>2021-12-17T12:08:37Z</time>
      </trkpt>
      <trkpt lat="45.27898" lon="6.18649">
        <ele>1535.4</ele>
        <time>2021-12-17T12:08:38Z</time>
      </trkpt>
      <trkpt lat="45.27897" lon="6.18661">
        <ele>1533.2</ele>
        <time>2021-12-17T12:08:39Z</time>
      </trkpt>
      <trkpt lat="45.27897" lon="6.18673">
        <ele>1531.8</ele>
        <time>2021-12-17T12:08:40Z</time>
      </trkpt>
      <trkpt lat="45.27896" lon="6.18684">
        <ele>1530.8</ele>
        <time>2021-12-17T12:08:41Z</time>
      </trkpt>
      <trkpt lat="45.27896" lon="6.18695">
        <ele>1530</ele>
        <time>2021-12-17T12:08:42Z</time>
      </trkpt>
      <trkpt lat="45.27897" lon="6.18706">
        <ele>1529</ele>
        <time>2021-12-17T12:08:43Z</time>
      </trkpt>
      <trkpt lat="45.27897" lon="6.18717">
        <ele>1528.4</ele>
        <time>2021-12-17T12:08:44Z</time>
      </trkpt>
      <trkpt lat="45.27899" lon="6.18729">
        <ele>1527.6</ele>
        <time>2021-12-17T12:08:45Z</time>
      </trkpt>
      <trkpt lat="45.27902" lon="6.1874">
        <ele>1525.8</ele>
        <time>2021-12-17T12:08:46Z</time>
      </trkpt>
      <trkpt lat="45.27904" lon="6.18751">
        <ele>1524.6</ele>
        <time>2021-12-17T12:08:47Z</time>
      </trkpt>
      <trkpt lat="45.27907" lon="6.18762">
        <ele>1523.4</ele>
        <time>2021-12-17T12:08:48Z</time>
      </trkpt>
      <trkpt lat="45.27907" lon="6.18773">
        <ele>1522.6</ele>
        <time>2021-12-17T12:08:49Z</time>
      </trkpt>
      <trkpt lat="45.27907" lon="6.18784">
        <ele>1522</ele>
        <time>2021-12-17T12:08:50Z</time>
      </trkpt>
      <trkpt lat="45.27906" lon="6.18795">
        <ele>1521</ele>
        <time>2021-12-17T12:08:51Z</time>
      </trkpt>
      <trkpt lat="45.27904" lon="6.18805">
        <ele>1520.6</ele>
        <time>2021-12-17T12:08:52Z</time>
      </trkpt>
      <trkpt lat="45.279" lon="6.18814">
        <ele>1520.2</ele>
        <time>2021-12-17T12:08:53Z</time>
      </trkpt>
      <trkpt lat="45.27896" lon="6.18822">
        <ele>1520</ele>
        <time>2021-12-17T12:08:54Z</time>
      </trkpt>
      <trkpt lat="45.2789" lon="6.18829">
        <ele>1519.4</ele>
        <time>2021-12-17T12:08:55Z</time>
      </trkpt>
      <trkpt lat="45.27885" lon="6.18837">
        <ele>1519.2</ele>
        <time>2021-12-17T12:08:56Z</time>
      </trkpt>
      <trkpt lat="45.27877" lon="6.18855">
        <ele>1518.2</ele>
        <time>2021-12-17T12:08:58Z</time>
      </trkpt>
      <trkpt lat="45.27873" lon="6.18863">
        <ele>1517.8</ele>
        <time>2021-12-17T12:08:59Z</time>
      </trkpt>
      <trkpt lat="45.27865" lon="6.18878">
        <ele>1517.2</ele>
        <time>2021-12-17T12:09:01Z</time>
      </trkpt>
      <trkpt lat="45.27859" lon="6.18895">
        <ele>1515.8</ele>
        <time>2021-12-17T12:09:03Z</time>
      </trkpt>
      <trkpt lat="45.27852" lon="6.18913">
        <ele>1513.8</ele>
        <time>2021-12-17T12:09:05Z</time>
      </trkpt>
      <trkpt lat="45.2785" lon="6.18923">
        <ele>1513</ele>
        <time>2021-12-17T12:09:06Z</time>
      </trkpt>
      <trkpt lat="45.27848" lon="6.18933">
        <ele>1511.8</ele>
        <time>2021-12-17T12:09:07Z</time>
      </trkpt>
      <trkpt lat="45.27846" lon="6.18944">
        <ele>1510.4</ele>
        <time>2021-12-17T12:09:08Z</time>
      </trkpt>
      <trkpt lat="45.27846" lon="6.18953">
        <ele>1509.2</ele>
        <time>2021-12-17T12:09:09Z</time>
      </trkpt>
      <trkpt lat="45.27846" lon="6.18961">
        <ele>1508.2</ele>
        <time>2021-12-17T12:09:10Z</time>
      </trkpt>
      <trkpt lat="45.27845" lon="6.18968">
        <ele>1507.4</ele>
        <time>2021-12-17T12:09:11Z</time>
      </trkpt>
      <trkpt lat="45.27843" lon="6.18973">
        <ele>1506.4</ele>
        <time>2021-12-17T12:09:12Z</time>
      </trkpt>
      <trkpt lat="45.27839" lon="6.18976">
        <ele>1505.2</ele>
        <time>2021-12-17T12:09:13Z</time>
      </trkpt>
      <trkpt lat="45.27835" lon="6.18982">
        <ele>1503</ele>
        <time>2021-12-17T12:09:15Z</time>
      </trkpt>
      <trkpt lat="45.27835" lon="6.18985">
        <ele>1502.2</ele>
        <time>2021-12-17T12:09:16Z</time>
      </trkpt>
      <trkpt lat="45.27835" lon="6.18989">
        <ele>1501.6</ele>
        <time>2021-12-17T12:09:17Z</time>
      </trkpt>
      <trkpt lat="45.27835" lon="6.18998">
        <ele>1499.4</ele>
        <time>2021-12-17T12:09:19Z</time>
      </trkpt>
      <trkpt lat="45.27835" lon="6.19">
        <ele>1498.4</ele>
        <time>2021-12-17T12:09:20Z</time>
      </trkpt>
      <trkpt lat="45.27835" lon="6.19">
        <ele>1497.8</ele>
        <time>2021-12-17T12:09:21Z</time>
      </trkpt>
      <trkpt lat="45.27837" lon="6.19002">
        <ele>1496.8</ele>
        <time>2021-12-17T12:09:24Z</time>
      </trkpt>
      <trkpt lat="45.27838" lon="6.19003">
        <ele>1496.6</ele>
        <time>2021-12-17T12:09:25Z</time>
      </trkpt>
      <trkpt lat="45.27842" lon="6.19013">
        <ele>1495.2</ele>
        <time>2021-12-17T12:09:28Z</time>
      </trkpt>
      <trkpt lat="45.27842" lon="6.19018">
        <ele>1494.8</ele>
        <time>2021-12-17T12:09:29Z</time>
      </trkpt>
      <trkpt lat="45.27841" lon="6.19032">
        <ele>1494.2</ele>
        <time>2021-12-17T12:09:31Z</time>
      </trkpt>
      <trkpt lat="45.27839" lon="6.19045">
        <ele>1493</ele>
        <time>2021-12-17T12:09:33Z</time>
      </trkpt>
      <trkpt lat="45.27839" lon="6.19051">
        <ele>1492.6</ele>
        <time>2021-12-17T12:09:34Z</time>
      </trkpt>
      <trkpt lat="45.27842" lon="6.19061">
        <ele>1491.8</ele>
        <time>2021-12-17T12:09:36Z</time>
      </trkpt>
      <trkpt lat="45.27849" lon="6.19077">
        <ele>1490.6</ele>
        <time>2021-12-17T12:09:39Z</time>
      </trkpt>
      <trkpt lat="45.27856" lon="6.19093">
        <ele>1489.8</ele>
        <time>2021-12-17T12:09:42Z</time>
      </trkpt>
      <trkpt lat="45.27859" lon="6.19098">
        <ele>1489.6</ele>
        <time>2021-12-17T12:09:44Z</time>
      </trkpt>
      <trkpt lat="45.2786" lon="6.191">
        <ele>1489.6</ele>
        <time>2021-12-17T12:09:46Z</time>
      </trkpt>
      <trkpt lat="45.27861" lon="6.19105">
        <ele>1489.6</ele>
        <time>2021-12-17T12:09:50Z</time>
      </trkpt>
      <trkpt lat="45.27862" lon="6.1911">
        <ele>1489.6</ele>
        <time>2021-12-17T12:09:52Z</time>
      </trkpt>
      <trkpt lat="45.27863" lon="6.19114">
        <ele>1489.2</ele>
        <time>2021-12-17T12:09:53Z</time>
      </trkpt>
      <trkpt lat="45.27866" lon="6.19132">
        <ele>1488</ele>
        <time>2021-12-17T12:09:57Z</time>
      </trkpt>
      <trkpt lat="45.27868" lon="6.19141">
        <ele>1487</ele>
        <time>2021-12-17T12:09:59Z</time>
      </trkpt>
      <trkpt lat="45.27871" lon="6.19146">
        <ele>1486.2</ele>
        <time>2021-12-17T12:10:02Z</time>
      </trkpt>
      <trkpt lat="45.27871" lon="6.19146">
        <ele>1486.2</ele>
        <time>2021-12-17T12:10:08Z</time>
      </trkpt>
      <trkpt lat="45.27869" lon="6.1915">
        <ele>1486</ele>
        <time>2021-12-17T12:10:11Z</time>
      </trkpt>
      <trkpt lat="45.27868" lon="6.19151">
        <ele>1485.8</ele>
        <time>2021-12-17T12:10:12Z</time>
      </trkpt>
      <trkpt lat="45.27866" lon="6.19151">
        <ele>1485.2</ele>
        <time>2021-12-17T12:10:13Z</time>
      </trkpt>
      <trkpt lat="45.27866" lon="6.19154">
        <ele>1484.6</ele>
        <time>2021-12-17T12:10:14Z</time>
      </trkpt>
      <trkpt lat="45.27867" lon="6.19156">
        <ele>1483.4</ele>
        <time>2021-12-17T12:10:15Z</time>
      </trkpt>
      <trkpt lat="45.2787" lon="6.19158">
        <ele>1482.4</ele>
        <time>2021-12-17T12:10:16Z</time>
      </trkpt>
      <trkpt lat="45.27874" lon="6.1916">
        <ele>1481.8</ele>
        <time>2021-12-17T12:10:17Z</time>
      </trkpt>
      <trkpt lat="45.27878" lon="6.19165">
        <ele>1480.8</ele>
        <time>2021-12-17T12:10:18Z</time>
      </trkpt>
      <trkpt lat="45.27881" lon="6.1917">
        <ele>1479.6</ele>
        <time>2021-12-17T12:10:19Z</time>
      </trkpt>
      <trkpt lat="45.27881" lon="6.19181">
        <ele>1478.8</ele>
        <time>2021-12-17T12:10:21Z</time>
      </trkpt>
      <trkpt lat="45.27879" lon="6.19188">
        <ele>1478.4</ele>
        <time>2021-12-17T12:10:22Z</time>
      </trkpt>
      <trkpt lat="45.27876" lon="6.1921">
        <ele>1477.8</ele>
        <time>2021-12-17T12:10:27Z</time>
      </trkpt>
      <trkpt lat="45.27879" lon="6.19219">
        <ele>1477.2</ele>
        <time>2021-12-17T12:10:29Z</time>
      </trkpt>
      <trkpt lat="45.27883" lon="6.19238">
        <ele>1476.2</ele>
        <time>2021-12-17T12:10:32Z</time>
      </trkpt>
      <trkpt lat="45.27888" lon="6.19258">
        <ele>1474.8</ele>
        <time>2021-12-17T12:10:35Z</time>
      </trkpt>
      <trkpt lat="45.27893" lon="6.19272">
        <ele>1473.6</ele>
        <time>2021-12-17T12:10:37Z</time>
      </trkpt>
      <trkpt lat="45.27896" lon="6.19279">
        <ele>1473</ele>
        <time>2021-12-17T12:10:38Z</time>
      </trkpt>
      <trkpt lat="45.27899" lon="6.19285">
        <ele>1472</ele>
        <time>2021-12-17T12:10:39Z</time>
      </trkpt>
      <trkpt lat="45.27902" lon="6.1929">
        <ele>1471.4</ele>
        <time>2021-12-17T12:10:40Z</time>
      </trkpt>
      <trkpt lat="45.27905" lon="6.19295">
        <ele>1470.8</ele>
        <time>2021-12-17T12:10:41Z</time>
      </trkpt>
      <trkpt lat="45.27913" lon="6.19303">
        <ele>1469.6</ele>
        <time>2021-12-17T12:10:43Z</time>
      </trkpt>
      <trkpt lat="45.27916" lon="6.19307">
        <ele>1469.2</ele>
        <time>2021-12-17T12:10:44Z</time>
      </trkpt>
      <trkpt lat="45.27925" lon="6.19316">
        <ele>1467.8</ele>
        <time>2021-12-17T12:10:46Z</time>
      </trkpt>
      <trkpt lat="45.27935" lon="6.19321">
        <ele>1466.8</ele>
        <time>2021-12-17T12:10:48Z</time>
      </trkpt>
      <trkpt lat="45.27938" lon="6.19323">
        <ele>1466.4</ele>
        <time>2021-12-17T12:10:49Z</time>
      </trkpt>
      <trkpt lat="45.27944" lon="6.19328">
        <ele>1465.8</ele>
        <time>2021-12-17T12:10:51Z</time>
      </trkpt>
      <trkpt lat="45.27948" lon="6.19334">
        <ele>1465.2</ele>
        <time>2021-12-17T12:10:53Z</time>
      </trkpt>
      <trkpt lat="45.2795" lon="6.19348">
        <ele>1464.6</ele>
        <time>2021-12-17T12:10:56Z</time>
      </trkpt>
      <trkpt lat="45.2795" lon="6.19354">
        <ele>1464.4</ele>
        <time>2021-12-17T12:10:57Z</time>
      </trkpt>
      <trkpt lat="45.27953" lon="6.19366">
        <ele>1463</ele>
        <time>2021-12-17T12:10:59Z</time>
      </trkpt>
      <trkpt lat="45.27958" lon="6.1938">
        <ele>1461</ele>
        <time>2021-12-17T12:11:01Z</time>
      </trkpt>
      <trkpt lat="45.27961" lon="6.19387">
        <ele>1459.8</ele>
        <time>2021-12-17T12:11:02Z</time>
      </trkpt>
      <trkpt lat="45.27968" lon="6.19401">
        <ele>1458.2</ele>
        <time>2021-12-17T12:11:04Z</time>
      </trkpt>
      <trkpt lat="45.27971" lon="6.19409">
        <ele>1457.6</ele>
        <time>2021-12-17T12:11:05Z</time>
      </trkpt>
      <trkpt lat="45.27973" lon="6.19421">
        <ele>1456.2</ele>
        <time>2021-12-17T12:11:06Z</time>
      </trkpt>
      <trkpt lat="45.27975" lon="6.19431">
        <ele>1455</ele>
        <time>2021-12-17T12:11:07Z</time>
      </trkpt>
      <trkpt lat="45.27977" lon="6.19442">
        <ele>1453.8</ele>
        <time>2021-12-17T12:11:08Z</time>
      </trkpt>
      <trkpt lat="45.27982" lon="6.19465">
        <ele>1452.2</ele>
        <time>2021-12-17T12:11:10Z</time>
      </trkpt>
      <trkpt lat="45.27983" lon="6.19474">
        <ele>1451.8</ele>
        <time>2021-12-17T12:11:11Z</time>
      </trkpt>
      <trkpt lat="45.27985" lon="6.19489">
        <ele>1451</ele>
        <time>2021-12-17T12:11:12Z</time>
      </trkpt>
      <trkpt lat="45.27986" lon="6.195">
        <ele>1449.6</ele>
        <time>2021-12-17T12:11:13Z</time>
      </trkpt>
      <trkpt lat="45.27991" lon="6.19521">
        <ele>1448.2</ele>
        <time>2021-12-17T12:11:15Z</time>
      </trkpt>
      <trkpt lat="45.27994" lon="6.19532">
        <ele>1447.2</ele>
        <time>2021-12-17T12:11:16Z</time>
      </trkpt>
      <trkpt lat="45.27998" lon="6.19541">
        <ele>1446.4</ele>
        <time>2021-12-17T12:11:17Z</time>
      </trkpt>
      <trkpt lat="45.2801" lon="6.19562">
        <ele>1444.8</ele>
        <time>2021-12-17T12:11:20Z</time>
      </trkpt>
      <trkpt lat="45.28014" lon="6.19566">
        <ele>1444.4</ele>
        <time>2021-12-17T12:11:21Z</time>
      </trkpt>
      <trkpt lat="45.28021" lon="6.19572">
        <ele>1443.2</ele>
        <time>2021-12-17T12:11:23Z</time>
      </trkpt>
      <trkpt lat="45.28025" lon="6.19583">
        <ele>1442.4</ele>
        <time>2021-12-17T12:11:25Z</time>
      </trkpt>
      <trkpt lat="45.28026" lon="6.19589">
        <ele>1442</ele>
        <time>2021-12-17T12:11:26Z</time>
      </trkpt>
      <trkpt lat="45.28027" lon="6.19593">
        <ele>1441.4</ele>
        <time>2021-12-17T12:11:27Z</time>
      </trkpt>
      <trkpt lat="45.28029" lon="6.19598">
        <ele>1441</ele>
        <time>2021-12-17T12:11:28Z</time>
      </trkpt>
      <trkpt lat="45.28032" lon="6.19603">
        <ele>1440.4</ele>
        <time>2021-12-17T12:11:29Z</time>
      </trkpt>
      <trkpt lat="45.28034" lon="6.19608">
        <ele>1439.8</ele>
        <time>2021-12-17T12:11:30Z</time>
      </trkpt>
      <trkpt lat="45.28036" lon="6.19612">
        <ele>1439</ele>
        <time>2021-12-17T12:11:31Z</time>
      </trkpt>
      <trkpt lat="45.28038" lon="6.19618">
        <ele>1438.6</ele>
        <time>2021-12-17T12:11:32Z</time>
      </trkpt>
      <trkpt lat="45.28038" lon="6.19623">
        <ele>1438</ele>
        <time>2021-12-17T12:11:33Z</time>
      </trkpt>
      <trkpt lat="45.28039" lon="6.19629">
        <ele>1437.4</ele>
        <time>2021-12-17T12:11:34Z</time>
      </trkpt>
      <trkpt lat="45.2804" lon="6.19636">
        <ele>1435.8</ele>
        <time>2021-12-17T12:11:35Z</time>
      </trkpt>
      <trkpt lat="45.2804" lon="6.19646">
        <ele>1434.2</ele>
        <time>2021-12-17T12:11:36Z</time>
      </trkpt>
      <trkpt lat="45.28041" lon="6.19655">
        <ele>1432.2</ele>
        <time>2021-12-17T12:11:37Z</time>
      </trkpt>
      <trkpt lat="45.28043" lon="6.19669">
        <ele>1430.2</ele>
        <time>2021-12-17T12:11:38Z</time>
      </trkpt>
      <trkpt lat="45.28045" lon="6.19679">
        <ele>1428</ele>
        <time>2021-12-17T12:11:39Z</time>
      </trkpt>
      <trkpt lat="45.28048" lon="6.19688">
        <ele>1426.6</ele>
        <time>2021-12-17T12:11:40Z</time>
      </trkpt>
      <trkpt lat="45.28053" lon="6.197">
        <ele>1425</ele>
        <time>2021-12-17T12:11:42Z</time>
      </trkpt>
      <trkpt lat="45.28057" lon="6.19707">
        <ele>1424.4</ele>
        <time>2021-12-17T12:11:45Z</time>
      </trkpt>
      <trkpt lat="45.2806" lon="6.19712">
        <ele>1424.2</ele>
        <time>2021-12-17T12:11:50Z</time>
      </trkpt>
      <trkpt lat="45.28061" lon="6.19713">
        <ele>1424</ele>
        <time>2021-12-17T12:11:51Z</time>
      </trkpt>
      <trkpt lat="45.28061" lon="6.19714">
        <ele>1424.2</ele>
        <time>2021-12-17T12:11:53Z</time>
      </trkpt>
      <trkpt lat="45.28062" lon="6.19715">
        <ele>1424</ele>
        <time>2021-12-17T12:12:00Z</time>
      </trkpt>
      <trkpt lat="45.28062" lon="6.19715">
        <ele>1424</ele>
        <time>2021-12-17T12:12:02Z</time>
      </trkpt>
      <trkpt lat="45.28063" lon="6.19714">
        <ele>1423.8</ele>
        <time>2021-12-17T12:12:31Z</time>
      </trkpt>
      <trkpt lat="45.28065" lon="6.19716">
        <ele>1423.8</ele>
        <time>2021-12-17T12:12:34Z</time>
      </trkpt>
      <trkpt lat="45.28069" lon="6.19723">
        <ele>1423.8</ele>
        <time>2021-12-17T12:12:42Z</time>
      </trkpt>
      <trkpt lat="45.28071" lon="6.19727">
        <ele>1423.8</ele>
        <time>2021-12-17T12:12:48Z</time>
      </trkpt>
      <trkpt lat="45.28073" lon="6.19729">
        <ele>1423.6</ele>
        <time>2021-12-17T12:12:50Z</time>
      </trkpt>
      <trkpt lat="45.28076" lon="6.19731">
        <ele>1423.2</ele>
        <time>2021-12-17T12:12:54Z</time>
      </trkpt>
      <trkpt lat="45.28081" lon="6.19737">
        <ele>1422.8</ele>
        <time>2021-12-17T12:12:58Z</time>
      </trkpt>
      <trkpt lat="45.28082" lon="6.19739">
        <ele>1422.8</ele>
        <time>2021-12-17T12:12:59Z</time>
      </trkpt>
      <trkpt lat="45.28086" lon="6.1975">
        <ele>1422.6</ele>
        <time>2021-12-17T12:13:04Z</time>
      </trkpt>
      <trkpt lat="45.28088" lon="6.19755">
        <ele>1422.6</ele>
        <time>2021-12-17T12:13:06Z</time>
      </trkpt>
      <trkpt lat="45.28089" lon="6.19766">
        <ele>1422.6</ele>
        <time>2021-12-17T12:13:10Z</time>
      </trkpt>
      <trkpt lat="45.2809" lon="6.19778">
        <ele>1422.6</ele>
        <time>2021-12-17T12:13:14Z</time>
      </trkpt>
      <trkpt lat="45.2809" lon="6.19781">
        <ele>1422.6</ele>
        <time>2021-12-17T12:13:15Z</time>
      </trkpt>
      <trkpt lat="45.28087" lon="6.19792">
        <ele>1422.2</ele>
        <time>2021-12-17T12:13:18Z</time>
      </trkpt>
      <trkpt lat="45.28087" lon="6.19803">
        <ele>1421.4</ele>
        <time>2021-12-17T12:13:20Z</time>
      </trkpt>
      <trkpt lat="45.28088" lon="6.19814">
        <ele>1421</ele>
        <time>2021-12-17T12:13:22Z</time>
      </trkpt>
      <trkpt lat="45.28088" lon="6.1982">
        <ele>1420.6</ele>
        <time>2021-12-17T12:13:23Z</time>
      </trkpt>
      <trkpt lat="45.28089" lon="6.19826">
        <ele>1420.4</ele>
        <time>2021-12-17T12:13:24Z</time>
      </trkpt>
      <trkpt lat="45.28093" lon="6.19839">
        <ele>1419.8</ele>
        <time>2021-12-17T12:13:27Z</time>
      </trkpt>
      <trkpt lat="45.28099" lon="6.19854">
        <ele>1419.4</ele>
        <time>2021-12-17T12:13:31Z</time>
      </trkpt>
      <trkpt lat="45.28101" lon="6.19859">
        <ele>1419.4</ele>
        <time>2021-12-17T12:13:33Z</time>
      </trkpt>
      <trkpt lat="45.28104" lon="6.19863">
        <ele>1419.4</ele>
        <time>2021-12-17T12:13:35Z</time>
      </trkpt>
      <trkpt lat="45.28107" lon="6.19866">
        <ele>1419</ele>
        <time>2021-12-17T12:13:38Z</time>
      </trkpt>
      <trkpt lat="45.28114" lon="6.19866">
        <ele>1418.8</ele>
        <time>2021-12-17T12:13:44Z</time>
      </trkpt>
      <trkpt lat="45.28118" lon="6.19871">
        <ele>1418.6</ele>
        <time>2021-12-17T12:13:50Z</time>
      </trkpt>
      <trkpt lat="45.28119" lon="6.19874">
        <ele>1418.4</ele>
        <time>2021-12-17T12:13:51Z</time>
      </trkpt>
      <trkpt lat="45.28117" lon="6.19881">
        <ele>1417.4</ele>
        <time>2021-12-17T12:13:54Z</time>
      </trkpt>
      <trkpt lat="45.28116" lon="6.19884">
        <ele>1417.2</ele>
        <time>2021-12-17T12:13:55Z</time>
      </trkpt>
      <trkpt lat="45.28112" lon="6.1989">
        <ele>1416</ele>
        <time>2021-12-17T12:13:59Z</time>
      </trkpt>
      <trkpt lat="45.28111" lon="6.19894">
        <ele>1415.8</ele>
        <time>2021-12-17T12:14:00Z</time>
      </trkpt>
      <trkpt lat="45.28108" lon="6.19908">
        <ele>1415</ele>
        <time>2021-12-17T12:14:03Z</time>
      </trkpt>
      <trkpt lat="45.28107" lon="6.19912">
        <ele>1414.8</ele>
        <time>2021-12-17T12:14:04Z</time>
      </trkpt>
      <trkpt lat="45.28107" lon="6.1992">
        <ele>1414.4</ele>
        <time>2021-12-17T12:14:06Z</time>
      </trkpt>
      <trkpt lat="45.28108" lon="6.19926">
        <ele>1413.8</ele>
        <time>2021-12-17T12:14:07Z</time>
      </trkpt>
      <trkpt lat="45.28107" lon="6.19932">
        <ele>1413.2</ele>
        <time>2021-12-17T12:14:08Z</time>
      </trkpt>
      <trkpt lat="45.28108" lon="6.19941">
        <ele>1412.4</ele>
        <time>2021-12-17T12:14:09Z</time>
      </trkpt>
      <trkpt lat="45.28109" lon="6.19948">
        <ele>1411.4</ele>
        <time>2021-12-17T12:14:10Z</time>
      </trkpt>
      <trkpt lat="45.28109" lon="6.19957">
        <ele>1410.6</ele>
        <time>2021-12-17T12:14:11Z</time>
      </trkpt>
      <trkpt lat="45.2811" lon="6.19965">
        <ele>1409.6</ele>
        <time>2021-12-17T12:14:12Z</time>
      </trkpt>
      <trkpt lat="45.28112" lon="6.19971">
        <ele>1408.2</ele>
        <time>2021-12-17T12:14:13Z</time>
      </trkpt>
      <trkpt lat="45.28115" lon="6.19977">
        <ele>1407.4</ele>
        <time>2021-12-17T12:14:14Z</time>
      </trkpt>
      <trkpt lat="45.28116" lon="6.19982">
        <ele>1406.8</ele>
        <time>2021-12-17T12:14:15Z</time>
      </trkpt>
      <trkpt lat="45.28117" lon="6.19987">
        <ele>1406.2</ele>
        <time>2021-12-17T12:14:16Z</time>
      </trkpt>
      <trkpt lat="45.28113" lon="6.19993">
        <ele>1404.8</ele>
        <time>2021-12-17T12:14:18Z</time>
      </trkpt>
      <trkpt lat="45.28109" lon="6.19996">
        <ele>1404.2</ele>
        <time>2021-12-17T12:14:19Z</time>
      </trkpt>
      <trkpt lat="45.28108" lon="6.19999">
        <ele>1403</ele>
        <time>2021-12-17T12:14:20Z</time>
      </trkpt>
      <trkpt lat="45.28108" lon="6.20002">
        <ele>1401.6</ele>
        <time>2021-12-17T12:14:21Z</time>
      </trkpt>
      <trkpt lat="45.28109" lon="6.20006">
        <ele>1400.6</ele>
        <time>2021-12-17T12:14:22Z</time>
      </trkpt>
      <trkpt lat="45.2811" lon="6.20009">
        <ele>1400</ele>
        <time>2021-12-17T12:14:23Z</time>
      </trkpt>
      <trkpt lat="45.28114" lon="6.20021">
        <ele>1398.6</ele>
        <time>2021-12-17T12:14:26Z</time>
      </trkpt>
      <trkpt lat="45.28117" lon="6.2003">
        <ele>1397.4</ele>
        <time>2021-12-17T12:14:28Z</time>
      </trkpt>
      <trkpt lat="45.28119" lon="6.20035">
        <ele>1396.6</ele>
        <time>2021-12-17T12:14:29Z</time>
      </trkpt>
      <trkpt lat="45.28122" lon="6.20039">
        <ele>1396</ele>
        <time>2021-12-17T12:14:30Z</time>
      </trkpt>
      <trkpt lat="45.28127" lon="6.20054">
        <ele>1394.8</ele>
        <time>2021-12-17T12:14:34Z</time>
      </trkpt>
      <trkpt lat="45.2813" lon="6.20061">
        <ele>1393.8</ele>
        <time>2021-12-17T12:14:36Z</time>
      </trkpt>
      <trkpt lat="45.28132" lon="6.20069">
        <ele>1392.6</ele>
        <time>2021-12-17T12:14:38Z</time>
      </trkpt>
      <trkpt lat="45.28135" lon="6.20076">
        <ele>1391.6</ele>
        <time>2021-12-17T12:14:40Z</time>
      </trkpt>
      <trkpt lat="45.28137" lon="6.20078">
        <ele>1390.4</ele>
        <time>2021-12-17T12:14:41Z</time>
      </trkpt>
      <trkpt lat="45.28139" lon="6.20079">
        <ele>1389.8</ele>
        <time>2021-12-17T12:14:42Z</time>
      </trkpt>
      <trkpt lat="45.28141" lon="6.20082">
        <ele>1389.4</ele>
        <time>2021-12-17T12:14:43Z</time>
      </trkpt>
      <trkpt lat="45.28147" lon="6.20091">
        <ele>1388.2</ele>
        <time>2021-12-17T12:14:45Z</time>
      </trkpt>
      <trkpt lat="45.28148" lon="6.20097">
        <ele>1387.4</ele>
        <time>2021-12-17T12:14:46Z</time>
      </trkpt>
      <trkpt lat="45.2815" lon="6.20104">
        <ele>1386.6</ele>
        <time>2021-12-17T12:14:47Z</time>
      </trkpt>
      <trkpt lat="45.28153" lon="6.2011">
        <ele>1384.6</ele>
        <time>2021-12-17T12:14:48Z</time>
      </trkpt>
      <trkpt lat="45.28157" lon="6.20115">
        <ele>1383.4</ele>
        <time>2021-12-17T12:14:49Z</time>
      </trkpt>
      <trkpt lat="45.2816" lon="6.20119">
        <ele>1382.4</ele>
        <time>2021-12-17T12:14:50Z</time>
      </trkpt>
      <trkpt lat="45.28164" lon="6.20122">
        <ele>1381.8</ele>
        <time>2021-12-17T12:14:51Z</time>
      </trkpt>
      <trkpt lat="45.28166" lon="6.20124">
        <ele>1381.2</ele>
        <time>2021-12-17T12:14:52Z</time>
      </trkpt>
      <trkpt lat="45.28169" lon="6.20125">
        <ele>1380.6</ele>
        <time>2021-12-17T12:14:53Z</time>
      </trkpt>
      <trkpt lat="45.28172" lon="6.20126">
        <ele>1380.4</ele>
        <time>2021-12-17T12:14:54Z</time>
      </trkpt>
      <trkpt lat="45.28178" lon="6.20129">
        <ele>1379</ele>
        <time>2021-12-17T12:14:56Z</time>
      </trkpt>
      <trkpt lat="45.28185" lon="6.20135">
        <ele>1377.6</ele>
        <time>2021-12-17T12:14:58Z</time>
      </trkpt>
      <trkpt lat="45.28189" lon="6.20138">
        <ele>1377</ele>
        <time>2021-12-17T12:14:59Z</time>
      </trkpt>
      <trkpt lat="45.28192" lon="6.20142">
        <ele>1376.4</ele>
        <time>2021-12-17T12:15:00Z</time>
      </trkpt>
      <trkpt lat="45.28196" lon="6.20147">
        <ele>1375.2</ele>
        <time>2021-12-17T12:15:01Z</time>
      </trkpt>
      <trkpt lat="45.282" lon="6.20153">
        <ele>1374</ele>
        <time>2021-12-17T12:15:02Z</time>
      </trkpt>
      <trkpt lat="45.28205" lon="6.20165">
        <ele>1372.8</ele>
        <time>2021-12-17T12:15:04Z</time>
      </trkpt>
      <trkpt lat="45.28208" lon="6.20173">
        <ele>1371.2</ele>
        <time>2021-12-17T12:15:06Z</time>
      </trkpt>
      <trkpt lat="45.28209" lon="6.20176">
        <ele>1371</ele>
        <time>2021-12-17T12:15:07Z</time>
      </trkpt>
      <trkpt lat="45.2821" lon="6.20179">
        <ele>1370.2</ele>
        <time>2021-12-17T12:15:08Z</time>
      </trkpt>
      <trkpt lat="45.28212" lon="6.20184">
        <ele>1368.8</ele>
        <time>2021-12-17T12:15:10Z</time>
      </trkpt>
      <trkpt lat="45.28216" lon="6.20197">
        <ele>1367.2</ele>
        <time>2021-12-17T12:15:13Z</time>
      </trkpt>
      <trkpt lat="45.2822" lon="6.20206">
        <ele>1365.6</ele>
        <time>2021-12-17T12:15:15Z</time>
      </trkpt>
      <trkpt lat="45.28224" lon="6.20216">
        <ele>1364.2</ele>
        <time>2021-12-17T12:15:17Z</time>
      </trkpt>
      <trkpt lat="45.28227" lon="6.20227">
        <ele>1363.2</ele>
        <time>2021-12-17T12:15:19Z</time>
      </trkpt>
      <trkpt lat="45.2823" lon="6.20238">
        <ele>1362.4</ele>
        <time>2021-12-17T12:15:21Z</time>
      </trkpt>
      <trkpt lat="45.28232" lon="6.20243">
        <ele>1361.8</ele>
        <time>2021-12-17T12:15:22Z</time>
      </trkpt>
      <trkpt lat="45.28234" lon="6.20254">
        <ele>1360.4</ele>
        <time>2021-12-17T12:15:25Z</time>
      </trkpt>
      <trkpt lat="45.28235" lon="6.20257">
        <ele>1360.2</ele>
        <time>2021-12-17T12:15:26Z</time>
      </trkpt>
      <trkpt lat="45.28238" lon="6.20265">
        <ele>1359.2</ele>
        <time>2021-12-17T12:15:28Z</time>
      </trkpt>
      <trkpt lat="45.28242" lon="6.20273">
        <ele>1358.2</ele>
        <time>2021-12-17T12:15:30Z</time>
      </trkpt>
      <trkpt lat="45.28243" lon="6.20277">
        <ele>1357.6</ele>
        <time>2021-12-17T12:15:31Z</time>
      </trkpt>
      <trkpt lat="45.28244" lon="6.20281">
        <ele>1357.2</ele>
        <time>2021-12-17T12:15:32Z</time>
      </trkpt>
      <trkpt lat="45.28246" lon="6.20291">
        <ele>1355.8</ele>
        <time>2021-12-17T12:15:34Z</time>
      </trkpt>
      <trkpt lat="45.28249" lon="6.20301">
        <ele>1353.6</ele>
        <time>2021-12-17T12:15:36Z</time>
      </trkpt>
      <trkpt lat="45.28253" lon="6.2031">
        <ele>1352</ele>
        <time>2021-12-17T12:15:38Z</time>
      </trkpt>
      <trkpt lat="45.28258" lon="6.20318">
        <ele>1350.6</ele>
        <time>2021-12-17T12:15:40Z</time>
      </trkpt>
      <trkpt lat="45.28265" lon="6.20321">
        <ele>1349.2</ele>
        <time>2021-12-17T12:15:42Z</time>
      </trkpt>
      <trkpt lat="45.28269" lon="6.20318">
        <ele>1348.4</ele>
        <time>2021-12-17T12:15:45Z</time>
      </trkpt>
      <trkpt lat="45.28276" lon="6.20316">
        <ele>1348.2</ele>
        <time>2021-12-17T12:15:51Z</time>
      </trkpt>
      <trkpt lat="45.28277" lon="6.20316">
        <ele>1348</ele>
        <time>2021-12-17T12:15:52Z</time>
      </trkpt>
      <trkpt lat="45.2828" lon="6.20319">
        <ele>1348</ele>
        <time>2021-12-17T12:15:55Z</time>
      </trkpt>
      <trkpt lat="45.28281" lon="6.20322">
        <ele>1348</ele>
        <time>2021-12-17T12:15:57Z</time>
      </trkpt>
      <trkpt lat="45.28282" lon="6.20339">
        <ele>1346.6</ele>
        <time>2021-12-17T12:16:03Z</time>
      </trkpt>
      <trkpt lat="45.28282" lon="6.20343">
        <ele>1346</ele>
        <time>2021-12-17T12:16:04Z</time>
      </trkpt>
      <trkpt lat="45.28283" lon="6.20347">
        <ele>1345.2</ele>
        <time>2021-12-17T12:16:05Z</time>
      </trkpt>
      <trkpt lat="45.28285" lon="6.20353">
        <ele>1344.2</ele>
        <time>2021-12-17T12:16:07Z</time>
      </trkpt>
      <trkpt lat="45.28287" lon="6.20354">
        <ele>1343.6</ele>
        <time>2021-12-17T12:16:08Z</time>
      </trkpt>
      <trkpt lat="45.28291" lon="6.20357">
        <ele>1342.8</ele>
        <time>2021-12-17T12:16:10Z</time>
      </trkpt>
      <trkpt lat="45.283" lon="6.20356">
        <ele>1341.6</ele>
        <time>2021-12-17T12:16:13Z</time>
      </trkpt>
      <trkpt lat="45.28307" lon="6.20352">
        <ele>1340.4</ele>
        <time>2021-12-17T12:16:16Z</time>
      </trkpt>
      <trkpt lat="45.28309" lon="6.20352">
        <ele>1340</ele>
        <time>2021-12-17T12:16:18Z</time>
      </trkpt>
      <trkpt lat="45.28311" lon="6.20354">
        <ele>1339.6</ele>
        <time>2021-12-17T12:16:27Z</time>
      </trkpt>
      <trkpt lat="45.28311" lon="6.20355">
        <ele>1339.4</ele>
        <time>2021-12-17T12:16:30Z</time>
      </trkpt>
      <trkpt lat="45.28311" lon="6.20356">
        <ele>1338.8</ele>
        <time>2021-12-17T12:16:37Z</time>
      </trkpt>
      <trkpt lat="45.28314" lon="6.20358">
        <ele>1338.2</ele>
        <time>2021-12-17T12:17:09Z</time>
      </trkpt>
      <trkpt lat="45.28316" lon="6.20363">
        <ele>1338.2</ele>
        <time>2021-12-17T12:17:30Z</time>
      </trkpt>
      <trkpt lat="45.28312" lon="6.20377">
        <ele>1337</ele>
        <time>2021-12-17T12:17:40Z</time>
      </trkpt>
      <trkpt lat="45.28308" lon="6.20388">
        <ele>1335.6</ele>
        <time>2021-12-17T12:17:42Z</time>
      </trkpt>
      <trkpt lat="45.28306" lon="6.20399">
        <ele>1334</ele>
        <time>2021-12-17T12:17:44Z</time>
      </trkpt>
      <trkpt lat="45.28306" lon="6.20404">
        <ele>1333.2</ele>
        <time>2021-12-17T12:17:45Z</time>
      </trkpt>
      <trkpt lat="45.28306" lon="6.20408">
        <ele>1332.6</ele>
        <time>2021-12-17T12:17:46Z</time>
      </trkpt>
      <trkpt lat="45.28307" lon="6.20414">
        <ele>1331.2</ele>
        <time>2021-12-17T12:17:48Z</time>
      </trkpt>
      <trkpt lat="45.28308" lon="6.20421">
        <ele>1330.2</ele>
        <time>2021-12-17T12:17:50Z</time>
      </trkpt>
      <trkpt lat="45.28312" lon="6.20429">
        <ele>1329</ele>
        <time>2021-12-17T12:17:53Z</time>
      </trkpt>
      <trkpt lat="45.28315" lon="6.20436">
        <ele>1328.2</ele>
        <time>2021-12-17T12:17:55Z</time>
      </trkpt>
      <trkpt lat="45.28317" lon="6.20441">
        <ele>1327.8</ele>
        <time>2021-12-17T12:17:56Z</time>
      </trkpt>
      <trkpt lat="45.28319" lon="6.20448">
        <ele>1327</ele>
        <time>2021-12-17T12:17:57Z</time>
      </trkpt>
      <trkpt lat="45.28319" lon="6.20453">
        <ele>1326.6</ele>
        <time>2021-12-17T12:17:58Z</time>
      </trkpt>
      <trkpt lat="45.2832" lon="6.20459">
        <ele>1326</ele>
        <time>2021-12-17T12:17:59Z</time>
      </trkpt>
      <trkpt lat="45.2832" lon="6.20464">
        <ele>1325.4</ele>
        <time>2021-12-17T12:18:00Z</time>
      </trkpt>
      <trkpt lat="45.28323" lon="6.20475">
        <ele>1324.2</ele>
        <time>2021-12-17T12:18:02Z</time>
      </trkpt>
      <trkpt lat="45.28329" lon="6.20495">
        <ele>1322.6</ele>
        <time>2021-12-17T12:18:05Z</time>
      </trkpt>
      <trkpt lat="45.28331" lon="6.205">
        <ele>1322</ele>
        <time>2021-12-17T12:18:06Z</time>
      </trkpt>
      <trkpt lat="45.28334" lon="6.20508">
        <ele>1321</ele>
        <time>2021-12-17T12:18:07Z</time>
      </trkpt>
      <trkpt lat="45.28336" lon="6.20513">
        <ele>1320.4</ele>
        <time>2021-12-17T12:18:08Z</time>
      </trkpt>
      <trkpt lat="45.28337" lon="6.20517">
        <ele>1320</ele>
        <time>2021-12-17T12:18:09Z</time>
      </trkpt>
      <trkpt lat="45.28341" lon="6.20533">
        <ele>1318.8</ele>
        <time>2021-12-17T12:18:12Z</time>
      </trkpt>
      <trkpt lat="45.28343" lon="6.20544">
        <ele>1318</ele>
        <time>2021-12-17T12:18:14Z</time>
      </trkpt>
      <trkpt lat="45.28344" lon="6.20549">
        <ele>1317.4</ele>
        <time>2021-12-17T12:18:15Z</time>
      </trkpt>
      <trkpt lat="45.28347" lon="6.20564">
        <ele>1316.2</ele>
        <time>2021-12-17T12:18:19Z</time>
      </trkpt>
      <trkpt lat="45.28349" lon="6.20579">
        <ele>1315</ele>
        <time>2021-12-17T12:18:23Z</time>
      </trkpt>
      <trkpt lat="45.2835" lon="6.20582">
        <ele>1314.8</ele>
        <time>2021-12-17T12:18:24Z</time>
      </trkpt>
      <trkpt lat="45.28353" lon="6.20589">
        <ele>1314</ele>
        <time>2021-12-17T12:18:27Z</time>
      </trkpt>
      <trkpt lat="45.28357" lon="6.20597">
        <ele>1312.4</ele>
        <time>2021-12-17T12:18:30Z</time>
      </trkpt>
      <trkpt lat="45.28359" lon="6.206">
        <ele>1312</ele>
        <time>2021-12-17T12:18:31Z</time>
      </trkpt>
      <trkpt lat="45.28359" lon="6.20603">
        <ele>1311.2</ele>
        <time>2021-12-17T12:18:32Z</time>
      </trkpt>
      <trkpt lat="45.2836" lon="6.20608">
        <ele>1310.2</ele>
        <time>2021-12-17T12:18:34Z</time>
      </trkpt>
      <trkpt lat="45.28358" lon="6.2061">
        <ele>1309.6</ele>
        <time>2021-12-17T12:18:35Z</time>
      </trkpt>
      <trkpt lat="45.28355" lon="6.20613">
        <ele>1308.4</ele>
        <time>2021-12-17T12:18:37Z</time>
      </trkpt>
      <trkpt lat="45.28353" lon="6.20617">
        <ele>1307.2</ele>
        <time>2021-12-17T12:18:39Z</time>
      </trkpt>
      <trkpt lat="45.28352" lon="6.20621">
        <ele>1306.4</ele>
        <time>2021-12-17T12:18:41Z</time>
      </trkpt>
      <trkpt lat="45.28351" lon="6.20626">
        <ele>1306.2</ele>
        <time>2021-12-17T12:18:43Z</time>
      </trkpt>
      <trkpt lat="45.2835" lon="6.20628">
        <ele>1305.6</ele>
        <time>2021-12-17T12:18:44Z</time>
      </trkpt>
      <trkpt lat="45.28348" lon="6.20628">
        <ele>1304.6</ele>
        <time>2021-12-17T12:18:45Z</time>
      </trkpt>
      <trkpt lat="45.28344" lon="6.20628">
        <ele>1303.4</ele>
        <time>2021-12-17T12:18:47Z</time>
      </trkpt>
      <trkpt lat="45.28342" lon="6.20634">
        <ele>1301.8</ele>
        <time>2021-12-17T12:18:49Z</time>
      </trkpt>
      <trkpt lat="45.28338" lon="6.20639">
        <ele>1300</ele>
        <time>2021-12-17T12:18:51Z</time>
      </trkpt>
      <trkpt lat="45.28336" lon="6.20638">
        <ele>1298.8</ele>
        <time>2021-12-17T12:18:52Z</time>
      </trkpt>
      <trkpt lat="45.28333" lon="6.20637">
        <ele>1297.4</ele>
        <time>2021-12-17T12:18:54Z</time>
      </trkpt>
      <trkpt lat="45.28332" lon="6.2064">
        <ele>1296</ele>
        <time>2021-12-17T12:18:56Z</time>
      </trkpt>
      <trkpt lat="45.2833" lon="6.2065">
        <ele>1294.8</ele>
        <time>2021-12-17T12:18:59Z</time>
      </trkpt>
      <trkpt lat="45.2833" lon="6.20661">
        <ele>1293.6</ele>
        <time>2021-12-17T12:19:01Z</time>
      </trkpt>
      <trkpt lat="45.28329" lon="6.20672">
        <ele>1291.6</ele>
        <time>2021-12-17T12:19:03Z</time>
      </trkpt>
      <trkpt lat="45.2833" lon="6.20686">
        <ele>1290</ele>
        <time>2021-12-17T12:19:05Z</time>
      </trkpt>
      <trkpt lat="45.28328" lon="6.2069">
        <ele>1289</ele>
        <time>2021-12-17T12:19:06Z</time>
      </trkpt>
      <trkpt lat="45.28325" lon="6.20692">
        <ele>1287.8</ele>
        <time>2021-12-17T12:19:07Z</time>
      </trkpt>
      <trkpt lat="45.28323" lon="6.20693">
        <ele>1286.8</ele>
        <time>2021-12-17T12:19:08Z</time>
      </trkpt>
      <trkpt lat="45.28321" lon="6.20693">
        <ele>1286.2</ele>
        <time>2021-12-17T12:19:09Z</time>
      </trkpt>
      <trkpt lat="45.2832" lon="6.20694">
        <ele>1285</ele>
        <time>2021-12-17T12:19:10Z</time>
      </trkpt>
      <trkpt lat="45.28319" lon="6.20694">
        <ele>1283.8</ele>
        <time>2021-12-17T12:19:12Z</time>
      </trkpt>
      <trkpt lat="45.28314" lon="6.20701">
        <ele>1282.2</ele>
        <time>2021-12-17T12:19:16Z</time>
      </trkpt>
      <trkpt lat="45.28313" lon="6.20706">
        <ele>1281</ele>
        <time>2021-12-17T12:19:17Z</time>
      </trkpt>
      <trkpt lat="45.28313" lon="6.20711">
        <ele>1279.6</ele>
        <time>2021-12-17T12:19:18Z</time>
      </trkpt>
      <trkpt lat="45.28313" lon="6.20714">
        <ele>1278.6</ele>
        <time>2021-12-17T12:19:19Z</time>
      </trkpt>
      <trkpt lat="45.28314" lon="6.20717">
        <ele>1277.8</ele>
        <time>2021-12-17T12:19:20Z</time>
      </trkpt>
      <trkpt lat="45.28315" lon="6.20719">
        <ele>1277.4</ele>
        <time>2021-12-17T12:19:21Z</time>
      </trkpt>
      <trkpt lat="45.28314" lon="6.20727">
        <ele>1276.4</ele>
        <time>2021-12-17T12:19:24Z</time>
      </trkpt>
      <trkpt lat="45.28315" lon="6.20729">
        <ele>1276</ele>
        <time>2021-12-17T12:19:25Z</time>
      </trkpt>
      <trkpt lat="45.28316" lon="6.20732">
        <ele>1275.2</ele>
        <time>2021-12-17T12:19:26Z</time>
      </trkpt>
      <trkpt lat="45.28318" lon="6.20742">
        <ele>1273.8</ele>
        <time>2021-12-17T12:19:28Z</time>
      </trkpt>
      <trkpt lat="45.28318" lon="6.20753">
        <ele>1272.4</ele>
        <time>2021-12-17T12:19:30Z</time>
      </trkpt>
      <trkpt lat="45.28319" lon="6.20755">
        <ele>1270.6</ele>
        <time>2021-12-17T12:19:31Z</time>
      </trkpt>
      <trkpt lat="45.2832" lon="6.20757">
        <ele>1269</ele>
        <time>2021-12-17T12:19:32Z</time>
      </trkpt>
      <trkpt lat="45.28321" lon="6.20758">
        <ele>1268.2</ele>
        <time>2021-12-17T12:19:33Z</time>
      </trkpt>
      <trkpt lat="45.28321" lon="6.20758">
        <ele>1267.8</ele>
        <time>2021-12-17T12:19:34Z</time>
      </trkpt>
      <trkpt lat="45.28322" lon="6.2076">
        <ele>1267.2</ele>
        <time>2021-12-17T12:19:37Z</time>
      </trkpt>
      <trkpt lat="45.28321" lon="6.20762">
        <ele>1266.6</ele>
        <time>2021-12-17T12:19:38Z</time>
      </trkpt>
      <trkpt lat="45.28322" lon="6.20764">
        <ele>1265.6</ele>
        <time>2021-12-17T12:19:42Z</time>
      </trkpt>
      <trkpt lat="45.28324" lon="6.2077">
        <ele>1265</ele>
        <time>2021-12-17T12:19:48Z</time>
      </trkpt>
      <trkpt lat="45.28327" lon="6.2077">
        <ele>1264.6</ele>
        <time>2021-12-17T12:19:53Z</time>
      </trkpt>
      <trkpt lat="45.28327" lon="6.20772">
        <ele>1264.2</ele>
        <time>2021-12-17T12:19:59Z</time>
      </trkpt>
      <trkpt lat="45.28328" lon="6.20775">
        <ele>1263.6</ele>
        <time>2021-12-17T12:20:05Z</time>
      </trkpt>
      <trkpt lat="45.28326" lon="6.20788">
        <ele>1262</ele>
        <time>2021-12-17T12:20:08Z</time>
      </trkpt>
      <trkpt lat="45.28323" lon="6.2079">
        <ele>1261.2</ele>
        <time>2021-12-17T12:20:09Z</time>
      </trkpt>
      <trkpt lat="45.28321" lon="6.20792">
        <ele>1260.2</ele>
        <time>2021-12-17T12:20:10Z</time>
      </trkpt>
      <trkpt lat="45.2832" lon="6.20796">
        <ele>1258.8</ele>
        <time>2021-12-17T12:20:11Z</time>
      </trkpt>
      <trkpt lat="45.2832" lon="6.208">
        <ele>1257.8</ele>
        <time>2021-12-17T12:20:12Z</time>
      </trkpt>
      <trkpt lat="45.28322" lon="6.20804">
        <ele>1256.6</ele>
        <time>2021-12-17T12:20:13Z</time>
      </trkpt>
      <trkpt lat="45.28324" lon="6.20816">
        <ele>1254.8</ele>
        <time>2021-12-17T12:20:15Z</time>
      </trkpt>
      <trkpt lat="45.28323" lon="6.20826">
        <ele>1252.6</ele>
        <time>2021-12-17T12:20:17Z</time>
      </trkpt>
      <trkpt lat="45.28321" lon="6.20837">
        <ele>1250</ele>
        <time>2021-12-17T12:20:19Z</time>
      </trkpt>
      <trkpt lat="45.28321" lon="6.20842">
        <ele>1249</ele>
        <time>2021-12-17T12:20:20Z</time>
      </trkpt>
      <trkpt lat="45.28322" lon="6.20847">
        <ele>1248</ele>
        <time>2021-12-17T12:20:21Z</time>
      </trkpt>
      <trkpt lat="45.28323" lon="6.20853">
        <ele>1246.8</ele>
        <time>2021-12-17T12:20:22Z</time>
      </trkpt>
      <trkpt lat="45.28323" lon="6.20868">
        <ele>1245.4</ele>
        <time>2021-12-17T12:20:24Z</time>
      </trkpt>
      <trkpt lat="45.28322" lon="6.20877">
        <ele>1244.2</ele>
        <time>2021-12-17T12:20:25Z</time>
      </trkpt>
      <trkpt lat="45.28322" lon="6.20891">
        <ele>1242</ele>
        <time>2021-12-17T12:20:27Z</time>
      </trkpt>
      <trkpt lat="45.28322" lon="6.20897">
        <ele>1240.6</ele>
        <time>2021-12-17T12:20:28Z</time>
      </trkpt>
      <trkpt lat="45.28321" lon="6.20903">
        <ele>1239.4</ele>
        <time>2021-12-17T12:20:29Z</time>
      </trkpt>
      <trkpt lat="45.2832" lon="6.2091">
        <ele>1238.6</ele>
        <time>2021-12-17T12:20:30Z</time>
      </trkpt>
      <trkpt lat="45.28321" lon="6.20916">
        <ele>1237.8</ele>
        <time>2021-12-17T12:20:31Z</time>
      </trkpt>
      <trkpt lat="45.28322" lon="6.2092">
        <ele>1237.2</ele>
        <time>2021-12-17T12:20:32Z</time>
      </trkpt>
      <trkpt lat="45.28323" lon="6.20928">
        <ele>1236.4</ele>
        <time>2021-12-17T12:20:33Z</time>
      </trkpt>
      <trkpt lat="45.28323" lon="6.20935">
        <ele>1235.6</ele>
        <time>2021-12-17T12:20:34Z</time>
      </trkpt>
      <trkpt lat="45.28322" lon="6.20941">
        <ele>1234.2</ele>
        <time>2021-12-17T12:20:35Z</time>
      </trkpt>
      <trkpt lat="45.28321" lon="6.20948">
        <ele>1233.6</ele>
        <time>2021-12-17T12:20:36Z</time>
      </trkpt>
      <trkpt lat="45.28321" lon="6.20954">
        <ele>1232.6</ele>
        <time>2021-12-17T12:20:37Z</time>
      </trkpt>
      <trkpt lat="45.2832" lon="6.2096">
        <ele>1231.4</ele>
        <time>2021-12-17T12:20:38Z</time>
      </trkpt>
      <trkpt lat="45.28317" lon="6.20969">
        <ele>1229.6</ele>
        <time>2021-12-17T12:20:40Z</time>
      </trkpt>
      <trkpt lat="45.28317" lon="6.20974">
        <ele>1228.6</ele>
        <time>2021-12-17T12:20:41Z</time>
      </trkpt>
      <trkpt lat="45.28317" lon="6.20978">
        <ele>1227.8</ele>
        <time>2021-12-17T12:20:42Z</time>
      </trkpt>
      <trkpt lat="45.28318" lon="6.20981">
        <ele>1227.4</ele>
        <time>2021-12-17T12:20:43Z</time>
      </trkpt>
      <trkpt lat="45.28321" lon="6.20988">
        <ele>1227</ele>
        <time>2021-12-17T12:20:45Z</time>
      </trkpt>
      <trkpt lat="45.28325" lon="6.20995">
        <ele>1226.4</ele>
        <time>2021-12-17T12:20:47Z</time>
      </trkpt>
      <trkpt lat="45.28329" lon="6.21005">
        <ele>1225</ele>
        <time>2021-12-17T12:20:49Z</time>
      </trkpt>
      <trkpt lat="45.2833" lon="6.2101">
        <ele>1224.4</ele>
        <time>2021-12-17T12:20:50Z</time>
      </trkpt>
      <trkpt lat="45.28333" lon="6.21015">
        <ele>1223.8</ele>
        <time>2021-12-17T12:20:51Z</time>
      </trkpt>
      <trkpt lat="45.2834" lon="6.21024">
        <ele>1222.4</ele>
        <time>2021-12-17T12:20:54Z</time>
      </trkpt>
      <trkpt lat="45.28345" lon="6.21029">
        <ele>1222</ele>
        <time>2021-12-17T12:20:56Z</time>
      </trkpt>
      <trkpt lat="45.2835" lon="6.21031">
        <ele>1221.8</ele>
        <time>2021-12-17T12:21:01Z</time>
      </trkpt>
      <trkpt lat="45.28351" lon="6.21029">
        <ele>1221.4</ele>
        <time>2021-12-17T12:21:08Z</time>
      </trkpt>
      <trkpt lat="45.28351" lon="6.21029">
        <ele>1221.4</ele>
        <time>2021-12-17T12:21:09Z</time>
      </trkpt>
      <trkpt lat="45.28351" lon="6.21028">
        <ele>1221.4</ele>
        <time>2021-12-17T12:21:19Z</time>
      </trkpt>
      <trkpt lat="45.28351" lon="6.21029">
        <ele>1221.4</ele>
        <time>2021-12-17T12:21:28Z</time>
      </trkpt>
      <trkpt lat="45.28351" lon="6.21027">
        <ele>1220.4</ele>
        <time>2021-12-17T12:21:49Z</time>
      </trkpt>
      <trkpt lat="45.28352" lon="6.21027">
        <ele>1220.4</ele>
        <time>2021-12-17T12:21:53Z</time>
      </trkpt>
      <trkpt lat="45.28353" lon="6.21026">
        <ele>1220.8</ele>
        <time>2021-12-17T12:22:10Z</time>
      </trkpt>
      <trkpt lat="45.28359" lon="6.2103">
        <ele>1220.2</ele>
        <time>2021-12-17T12:22:47Z</time>
      </trkpt>
      <trkpt lat="45.28364" lon="6.21032">
        <ele>1220.4</ele>
        <time>2021-12-17T12:22:51Z</time>
      </trkpt>
      <trkpt lat="45.28368" lon="6.21035">
        <ele>1220.6</ele>
        <time>2021-12-17T12:22:56Z</time>
      </trkpt>
      <trkpt lat="45.28374" lon="6.21039">
        <ele>1220.4</ele>
        <time>2021-12-17T12:23:03Z</time>
      </trkpt>
      <trkpt lat="45.28384" lon="6.21044">
        <ele>1220</ele>
        <time>2021-12-17T12:23:12Z</time>
      </trkpt>
      <trkpt lat="45.28393" lon="6.21051">
        <ele>1219.8</ele>
        <time>2021-12-17T12:23:21Z</time>
      </trkpt>
      <trkpt lat="45.28394" lon="6.21052">
        <ele>1219.8</ele>
        <time>2021-12-17T12:23:22Z</time>
      </trkpt>
      <trkpt lat="45.28398" lon="6.21058">
        <ele>1219.6</ele>
        <time>2021-12-17T12:23:29Z</time>
      </trkpt>
      <trkpt lat="45.28404" lon="6.21062">
        <ele>1219.8</ele>
        <time>2021-12-17T12:23:35Z</time>
      </trkpt>
      <trkpt lat="45.28405" lon="6.21062">
        <ele>1219.8</ele>
        <time>2021-12-17T12:23:36Z</time>
      </trkpt>
      <trkpt lat="45.28408" lon="6.21063">
        <ele>1219.8</ele>
        <time>2021-12-17T12:23:38Z</time>
      </trkpt>
      <trkpt lat="45.2841" lon="6.21067">
        <ele>1219.8</ele>
        <time>2021-12-17T12:23:41Z</time>
      </trkpt>
      <trkpt lat="45.28413" lon="6.21072">
        <ele>1219.6</ele>
        <time>2021-12-17T12:23:44Z</time>
      </trkpt>
      <trkpt lat="45.28418" lon="6.21073">
        <ele>1219.2</ele>
        <time>2021-12-17T12:23:48Z</time>
      </trkpt>
      <trkpt lat="45.28425" lon="6.21078">
        <ele>1218.2</ele>
        <time>2021-12-17T12:23:55Z</time>
      </trkpt>
      <trkpt lat="45.28426" lon="6.21079">
        <ele>1218</ele>
        <time>2021-12-17T12:23:56Z</time>
      </trkpt>
      <trkpt lat="45.28431" lon="6.21075">
        <ele>1217.6</ele>
        <time>2021-12-17T12:24:00Z</time>
      </trkpt>
      <trkpt lat="45.28433" lon="6.21073">
        <ele>1217.2</ele>
        <time>2021-12-17T12:24:02Z</time>
      </trkpt>
      <trkpt lat="45.28434" lon="6.21072">
        <ele>1217.2</ele>
        <time>2021-12-17T12:24:03Z</time>
      </trkpt>
      <trkpt lat="45.28435" lon="6.21071">
        <ele>1217</ele>
        <time>2021-12-17T12:24:04Z</time>
      </trkpt>
      <trkpt lat="45.2844" lon="6.21068">
        <ele>1217</ele>
        <time>2021-12-17T12:24:09Z</time>
      </trkpt>
      <trkpt lat="45.28444" lon="6.21066">
        <ele>1216</ele>
        <time>2021-12-17T12:24:13Z</time>
      </trkpt>
      <trkpt lat="45.28451" lon="6.21062">
        <ele>1215.6</ele>
        <time>2021-12-17T12:24:19Z</time>
      </trkpt>
      <trkpt lat="45.28461" lon="6.21064">
        <ele>1215</ele>
        <time>2021-12-17T12:24:26Z</time>
      </trkpt>
      <trkpt lat="45.28462" lon="6.21065">
        <ele>1215</ele>
        <time>2021-12-17T12:24:27Z</time>
      </trkpt>
      <trkpt lat="45.28466" lon="6.2107">
        <ele>1214</ele>
        <time>2021-12-17T12:24:33Z</time>
      </trkpt>
      <trkpt lat="45.28469" lon="6.21073">
        <ele>1213.6</ele>
        <time>2021-12-17T12:24:36Z</time>
      </trkpt>
      <trkpt lat="45.28475" lon="6.2108">
        <ele>1212.8</ele>
        <time>2021-12-17T12:24:43Z</time>
      </trkpt>
      <trkpt lat="45.28477" lon="6.21082">
        <ele>1212.4</ele>
        <time>2021-12-17T12:24:45Z</time>
      </trkpt>
      <trkpt lat="45.28478" lon="6.21083">
        <ele>1212.2</ele>
        <time>2021-12-17T12:24:46Z</time>
      </trkpt>
      <trkpt lat="45.28483" lon="6.21086">
        <ele>1211.8</ele>
        <time>2021-12-17T12:24:49Z</time>
      </trkpt>
      <trkpt lat="45.28486" lon="6.21088">
        <ele>1211.6</ele>
        <time>2021-12-17T12:24:51Z</time>
      </trkpt>
      <trkpt lat="45.28494" lon="6.21095">
        <ele>1210.8</ele>
        <time>2021-12-17T12:24:59Z</time>
      </trkpt>
      <trkpt lat="45.28495" lon="6.21096">
        <ele>1210.6</ele>
        <time>2021-12-17T12:25:00Z</time>
      </trkpt>
      <trkpt lat="45.28505" lon="6.21102">
        <ele>1209.8</ele>
        <time>2021-12-17T12:25:09Z</time>
      </trkpt>
      <trkpt lat="45.28507" lon="6.21102">
        <ele>1209.6</ele>
        <time>2021-12-17T12:25:10Z</time>
      </trkpt>
      <trkpt lat="45.28515" lon="6.21107">
        <ele>1208.6</ele>
        <time>2021-12-17T12:25:17Z</time>
      </trkpt>
      <trkpt lat="45.2852" lon="6.2111">
        <ele>1208</ele>
        <time>2021-12-17T12:25:22Z</time>
      </trkpt>
      <trkpt lat="45.28525" lon="6.21114">
        <ele>1207.4</ele>
        <time>2021-12-17T12:25:26Z</time>
      </trkpt>
      <trkpt lat="45.2853" lon="6.21121">
        <ele>1206.8</ele>
        <time>2021-12-17T12:25:32Z</time>
      </trkpt>
      <trkpt lat="45.28533" lon="6.21123">
        <ele>1206.4</ele>
        <time>2021-12-17T12:25:34Z</time>
      </trkpt>
      <trkpt lat="45.28534" lon="6.21124">
        <ele>1206.2</ele>
        <time>2021-12-17T12:25:35Z</time>
      </trkpt>
      <trkpt lat="45.28543" lon="6.21133">
        <ele>1205.2</ele>
        <time>2021-12-17T12:25:42Z</time>
      </trkpt>
      <trkpt lat="45.28545" lon="6.21136">
        <ele>1205</ele>
        <time>2021-12-17T12:25:44Z</time>
      </trkpt>
      <trkpt lat="45.28547" lon="6.21138">
        <ele>1204.6</ele>
        <time>2021-12-17T12:25:46Z</time>
      </trkpt>
      <trkpt lat="45.28549" lon="6.2114">
        <ele>1204.2</ele>
        <time>2021-12-17T12:25:48Z</time>
      </trkpt>
      <trkpt lat="45.2855" lon="6.21141">
        <ele>1204.2</ele>
        <time>2021-12-17T12:25:49Z</time>
      </trkpt>
      <trkpt lat="45.28557" lon="6.21147">
        <ele>1203</ele>
        <time>2021-12-17T12:25:55Z</time>
      </trkpt>
      <trkpt lat="45.2856" lon="6.21148">
        <ele>1202.6</ele>
        <time>2021-12-17T12:25:58Z</time>
      </trkpt>
      <trkpt lat="45.28565" lon="6.21149">
        <ele>1202</ele>
        <time>2021-12-17T12:26:03Z</time>
      </trkpt>
      <trkpt lat="45.28568" lon="6.21149">
        <ele>1201.8</ele>
        <time>2021-12-17T12:26:06Z</time>
      </trkpt>
      <trkpt lat="45.28575" lon="6.21152">
        <ele>1200.8</ele>
        <time>2021-12-17T12:26:11Z</time>
      </trkpt>
      <trkpt lat="45.28577" lon="6.21152">
        <ele>1200.4</ele>
        <time>2021-12-17T12:26:13Z</time>
      </trkpt>
      <trkpt lat="45.28583" lon="6.21156">
        <ele>1199.6</ele>
        <time>2021-12-17T12:26:19Z</time>
      </trkpt>
      <trkpt lat="45.28585" lon="6.21158">
        <ele>1199.4</ele>
        <time>2021-12-17T12:26:21Z</time>
      </trkpt>
      <trkpt lat="45.28592" lon="6.21165">
        <ele>1198.6</ele>
        <time>2021-12-17T12:26:29Z</time>
      </trkpt>
      <trkpt lat="45.28596" lon="6.21168">
        <ele>1198.2</ele>
        <time>2021-12-17T12:26:33Z</time>
      </trkpt>
      <trkpt lat="45.28604" lon="6.21176">
        <ele>1197.4</ele>
        <time>2021-12-17T12:26:41Z</time>
      </trkpt>
      <trkpt lat="45.28615" lon="6.21184">
        <ele>1196.4</ele>
        <time>2021-12-17T12:26:50Z</time>
      </trkpt>
      <trkpt lat="45.28616" lon="6.21185">
        <ele>1196.2</ele>
        <time>2021-12-17T12:26:51Z</time>
      </trkpt>
      <trkpt lat="45.28626" lon="6.21192">
        <ele>1195.4</ele>
        <time>2021-12-17T12:26:59Z</time>
      </trkpt>
      <trkpt lat="45.28628" lon="6.21195">
        <ele>1195.2</ele>
        <time>2021-12-17T12:27:01Z</time>
      </trkpt>
      <trkpt lat="45.28634" lon="6.21201">
        <ele>1195</ele>
        <time>2021-12-17T12:27:07Z</time>
      </trkpt>
      <trkpt lat="45.28642" lon="6.21208">
        <ele>1194.4</ele>
        <time>2021-12-17T12:27:15Z</time>
      </trkpt>
      <trkpt lat="45.28643" lon="6.21209">
        <ele>1194.2</ele>
        <time>2021-12-17T12:27:16Z</time>
      </trkpt>
      <trkpt lat="45.2865" lon="6.21216">
        <ele>1193.2</ele>
        <time>2021-12-17T12:27:23Z</time>
      </trkpt>
      <trkpt lat="45.28651" lon="6.21217">
        <ele>1193.2</ele>
        <time>2021-12-17T12:27:24Z</time>
      </trkpt>
      <trkpt lat="45.28663" lon="6.21224">
        <ele>1192.2</ele>
        <time>2021-12-17T12:27:34Z</time>
      </trkpt>
      <trkpt lat="45.28667" lon="6.21227">
        <ele>1192</ele>
        <time>2021-12-17T12:27:37Z</time>
      </trkpt>
      <trkpt lat="45.28672" lon="6.21232">
        <ele>1191.6</ele>
        <time>2021-12-17T12:27:42Z</time>
      </trkpt>
      <trkpt lat="45.28679" lon="6.21242">
        <ele>1191</ele>
        <time>2021-12-17T12:27:50Z</time>
      </trkpt>
      <trkpt lat="45.28681" lon="6.21244">
        <ele>1190.8</ele>
        <time>2021-12-17T12:27:52Z</time>
      </trkpt>
      <trkpt lat="45.28689" lon="6.21251">
        <ele>1190.4</ele>
        <time>2021-12-17T12:27:58Z</time>
      </trkpt>
      <trkpt lat="45.28696" lon="6.21255">
        <ele>1190</ele>
        <time>2021-12-17T12:28:04Z</time>
      </trkpt>
      <trkpt lat="45.28699" lon="6.21257">
        <ele>1189.6</ele>
        <time>2021-12-17T12:28:07Z</time>
      </trkpt>
      <trkpt lat="45.28713" lon="6.21261">
        <ele>1188.8</ele>
        <time>2021-12-17T12:28:17Z</time>
      </trkpt>
      <trkpt lat="45.28714" lon="6.21262">
        <ele>1188.8</ele>
        <time>2021-12-17T12:28:18Z</time>
      </trkpt>
      <trkpt lat="45.28722" lon="6.2127">
        <ele>1188.4</ele>
        <time>2021-12-17T12:28:26Z</time>
      </trkpt>
      <trkpt lat="45.28723" lon="6.21272">
        <ele>1188.4</ele>
        <time>2021-12-17T12:28:27Z</time>
      </trkpt>
      <trkpt lat="45.28731" lon="6.21284">
        <ele>1187.8</ele>
        <time>2021-12-17T12:28:36Z</time>
      </trkpt>
      <trkpt lat="45.28734" lon="6.21287">
        <ele>1187.6</ele>
        <time>2021-12-17T12:28:39Z</time>
      </trkpt>
      <trkpt lat="45.28736" lon="6.21292">
        <ele>1187.4</ele>
        <time>2021-12-17T12:28:42Z</time>
      </trkpt>
      <trkpt lat="45.28737" lon="6.21293">
        <ele>1187.4</ele>
        <time>2021-12-17T12:28:43Z</time>
      </trkpt>
      <trkpt lat="45.2874" lon="6.21297">
        <ele>1187</ele>
        <time>2021-12-17T12:28:47Z</time>
      </trkpt>
      <trkpt lat="45.2875" lon="6.21308">
        <ele>1186.6</ele>
        <time>2021-12-17T12:28:55Z</time>
      </trkpt>
      <trkpt lat="45.28752" lon="6.21312">
        <ele>1186.4</ele>
        <time>2021-12-17T12:28:58Z</time>
      </trkpt>
      <trkpt lat="45.28762" lon="6.21323">
        <ele>1186</ele>
        <time>2021-12-17T12:29:08Z</time>
      </trkpt>
      <trkpt lat="45.28769" lon="6.21333">
        <ele>1185.6</ele>
        <time>2021-12-17T12:29:16Z</time>
      </trkpt>
      <trkpt lat="45.2877" lon="6.21335">
        <ele>1185.6</ele>
        <time>2021-12-17T12:29:17Z</time>
      </trkpt>
      <trkpt lat="45.28777" lon="6.21345">
        <ele>1185.4</ele>
        <time>2021-12-17T12:29:24Z</time>
      </trkpt>
      <trkpt lat="45.28787" lon="6.21352">
        <ele>1184.8</ele>
        <time>2021-12-17T12:29:32Z</time>
      </trkpt>
      <trkpt lat="45.28793" lon="6.21357">
        <ele>1184.6</ele>
        <time>2021-12-17T12:29:37Z</time>
      </trkpt>
      <trkpt lat="45.28795" lon="6.21362">
        <ele>1184.4</ele>
        <time>2021-12-17T12:29:40Z</time>
      </trkpt>
      <trkpt lat="45.28806" lon="6.21373">
        <ele>1183.6</ele>
        <time>2021-12-17T12:29:50Z</time>
      </trkpt>
      <trkpt lat="45.28807" lon="6.21374">
        <ele>1183.6</ele>
        <time>2021-12-17T12:29:51Z</time>
      </trkpt>
      <trkpt lat="45.28816" lon="6.21383">
        <ele>1182.6</ele>
        <time>2021-12-17T12:30:00Z</time>
      </trkpt>
      <trkpt lat="45.28817" lon="6.21384">
        <ele>1182.6</ele>
        <time>2021-12-17T12:30:01Z</time>
      </trkpt>
      <trkpt lat="45.28823" lon="6.21391">
        <ele>1182.2</ele>
        <time>2021-12-17T12:30:07Z</time>
      </trkpt>
      <trkpt lat="45.28824" lon="6.21394">
        <ele>1182</ele>
        <time>2021-12-17T12:30:09Z</time>
      </trkpt>
      <trkpt lat="45.28825" lon="6.21396">
        <ele>1181.8</ele>
        <time>2021-12-17T12:30:11Z</time>
      </trkpt>
      <trkpt lat="45.28827" lon="6.21398">
        <ele>1181.6</ele>
        <time>2021-12-17T12:30:13Z</time>
      </trkpt>
      <trkpt lat="45.28828" lon="6.21399">
        <ele>1181.4</ele>
        <time>2021-12-17T12:30:14Z</time>
      </trkpt>
      <trkpt lat="45.28835" lon="6.21407">
        <ele>1181.2</ele>
        <time>2021-12-17T12:30:21Z</time>
      </trkpt>
      <trkpt lat="45.28844" lon="6.21418">
        <ele>1180.4</ele>
        <time>2021-12-17T12:30:29Z</time>
      </trkpt>
      <trkpt lat="45.28853" lon="6.21429">
        <ele>1179.6</ele>
        <time>2021-12-17T12:30:38Z</time>
      </trkpt>
      <trkpt lat="45.28856" lon="6.21437">
        <ele>1179.4</ele>
        <time>2021-12-17T12:30:43Z</time>
      </trkpt>
      <trkpt lat="45.28856" lon="6.21439">
        <ele>1179.4</ele>
        <time>2021-12-17T12:30:44Z</time>
      </trkpt>
      <trkpt lat="45.28856" lon="6.21442">
        <ele>1179.2</ele>
        <time>2021-12-17T12:30:46Z</time>
      </trkpt>
      <trkpt lat="45.28857" lon="6.21449">
        <ele>1178.4</ele>
        <time>2021-12-17T12:30:50Z</time>
      </trkpt>
      <trkpt lat="45.28859" lon="6.21454">
        <ele>1177.8</ele>
        <time>2021-12-17T12:30:53Z</time>
      </trkpt>
      <trkpt lat="45.2886" lon="6.21457">
        <ele>1177.6</ele>
        <time>2021-12-17T12:30:55Z</time>
      </trkpt>
      <trkpt lat="45.28863" lon="6.21462">
        <ele>1177.2</ele>
        <time>2021-12-17T12:30:59Z</time>
      </trkpt>
      <trkpt lat="45.28864" lon="6.21463">
        <ele>1177</ele>
        <time>2021-12-17T12:31:00Z</time>
      </trkpt>
      <trkpt lat="45.28869" lon="6.21469">
        <ele>1176.2</ele>
        <time>2021-12-17T12:31:05Z</time>
      </trkpt>
      <trkpt lat="45.28877" lon="6.21475">
        <ele>1175.6</ele>
        <time>2021-12-17T12:31:12Z</time>
      </trkpt>
      <trkpt lat="45.2888" lon="6.21477">
        <ele>1175.2</ele>
        <time>2021-12-17T12:31:14Z</time>
      </trkpt>
      <trkpt lat="45.28888" lon="6.21487">
        <ele>1174.4</ele>
        <time>2021-12-17T12:31:22Z</time>
      </trkpt>
      <trkpt lat="45.2889" lon="6.21491">
        <ele>1174</ele>
        <time>2021-12-17T12:31:25Z</time>
      </trkpt>
      <trkpt lat="45.28893" lon="6.21496">
        <ele>1173.4</ele>
        <time>2021-12-17T12:31:29Z</time>
      </trkpt>
      <trkpt lat="45.28896" lon="6.215">
        <ele>1173</ele>
        <time>2021-12-17T12:31:32Z</time>
      </trkpt>
      <trkpt lat="45.28901" lon="6.21509">
        <ele>1172.6</ele>
        <time>2021-12-17T12:31:38Z</time>
      </trkpt>
      <trkpt lat="45.28902" lon="6.21513">
        <ele>1172.2</ele>
        <time>2021-12-17T12:31:40Z</time>
      </trkpt>
      <trkpt lat="45.28902" lon="6.21514">
        <ele>1172</ele>
        <time>2021-12-17T12:31:41Z</time>
      </trkpt>
      <trkpt lat="45.28905" lon="6.2152">
        <ele>1171.6</ele>
        <time>2021-12-17T12:31:44Z</time>
      </trkpt>
      <trkpt lat="45.2891" lon="6.21527">
        <ele>1171</ele>
        <time>2021-12-17T12:31:49Z</time>
      </trkpt>
      <trkpt lat="45.28913" lon="6.21535">
        <ele>1170.4</ele>
        <time>2021-12-17T12:31:54Z</time>
      </trkpt>
      <trkpt lat="45.28915" lon="6.21539">
        <ele>1169.8</ele>
        <time>2021-12-17T12:31:57Z</time>
      </trkpt>
      <trkpt lat="45.2892" lon="6.2155">
        <ele>1169.2</ele>
        <time>2021-12-17T12:32:04Z</time>
      </trkpt>
      <trkpt lat="45.28922" lon="6.21554">
        <ele>1168.8</ele>
        <time>2021-12-17T12:32:06Z</time>
      </trkpt>
      <trkpt lat="45.28927" lon="6.21565">
        <ele>1167.6</ele>
        <time>2021-12-17T12:32:12Z</time>
      </trkpt>
      <trkpt lat="45.28929" lon="6.21571">
        <ele>1167.2</ele>
        <time>2021-12-17T12:32:15Z</time>
      </trkpt>
      <trkpt lat="45.28934" lon="6.21582">
        <ele>1166.6</ele>
        <time>2021-12-17T12:32:21Z</time>
      </trkpt>
      <trkpt lat="45.28935" lon="6.21583">
        <ele>1166.4</ele>
        <time>2021-12-17T12:32:22Z</time>
      </trkpt>
      <trkpt lat="45.28941" lon="6.21594">
        <ele>1165.6</ele>
        <time>2021-12-17T12:32:28Z</time>
      </trkpt>
      <trkpt lat="45.28945" lon="6.216">
        <ele>1165.2</ele>
        <time>2021-12-17T12:32:32Z</time>
      </trkpt>
      <trkpt lat="45.28947" lon="6.21605">
        <ele>1164.4</ele>
        <time>2021-12-17T12:32:36Z</time>
      </trkpt>
      <trkpt lat="45.28947" lon="6.21607">
        <ele>1164.4</ele>
        <time>2021-12-17T12:32:37Z</time>
      </trkpt>
      <trkpt lat="45.28949" lon="6.21611">
        <ele>1163.8</ele>
        <time>2021-12-17T12:32:40Z</time>
      </trkpt>
      <trkpt lat="45.2895" lon="6.21615">
        <ele>1163.4</ele>
        <time>2021-12-17T12:32:42Z</time>
      </trkpt>
      <trkpt lat="45.28956" lon="6.21625">
        <ele>1163</ele>
        <time>2021-12-17T12:32:49Z</time>
      </trkpt>
      <trkpt lat="45.2896" lon="6.21633">
        <ele>1162.4</ele>
        <time>2021-12-17T12:32:55Z</time>
      </trkpt>
      <trkpt lat="45.28965" lon="6.21638">
        <ele>1161.6</ele>
        <time>2021-12-17T12:33:00Z</time>
      </trkpt>
      <trkpt lat="45.28968" lon="6.2164">
        <ele>1161.2</ele>
        <time>2021-12-17T12:33:02Z</time>
      </trkpt>
      <trkpt lat="45.28977" lon="6.21647">
        <ele>1160.6</ele>
        <time>2021-12-17T12:33:10Z</time>
      </trkpt>
      <trkpt lat="45.28978" lon="6.2165">
        <ele>1160.2</ele>
        <time>2021-12-17T12:33:12Z</time>
      </trkpt>
      <trkpt lat="45.28979" lon="6.21651">
        <ele>1160.2</ele>
        <time>2021-12-17T12:33:13Z</time>
      </trkpt>
      <trkpt lat="45.28979" lon="6.21652">
        <ele>1160</ele>
        <time>2021-12-17T12:33:14Z</time>
      </trkpt>
      <trkpt lat="45.28983" lon="6.2166">
        <ele>1159.2</ele>
        <time>2021-12-17T12:33:20Z</time>
      </trkpt>
      <trkpt lat="45.28983" lon="6.21661">
        <ele>1159.2</ele>
        <time>2021-12-17T12:33:21Z</time>
      </trkpt>
      <trkpt lat="45.28985" lon="6.21666">
        <ele>1158.4</ele>
        <time>2021-12-17T12:33:24Z</time>
      </trkpt>
      <trkpt lat="45.28986" lon="6.21667">
        <ele>1158.2</ele>
        <time>2021-12-17T12:33:25Z</time>
      </trkpt>
      <trkpt lat="45.28988" lon="6.2167">
        <ele>1157.6</ele>
        <time>2021-12-17T12:33:27Z</time>
      </trkpt>
      <trkpt lat="45.2899" lon="6.21672">
        <ele>1157.4</ele>
        <time>2021-12-17T12:33:29Z</time>
      </trkpt>
      <trkpt lat="45.2899" lon="6.21674">
        <ele>1157</ele>
        <time>2021-12-17T12:33:30Z</time>
      </trkpt>
      <trkpt lat="45.28991" lon="6.21677">
        <ele>1156.6</ele>
        <time>2021-12-17T12:33:32Z</time>
      </trkpt>
      <trkpt lat="45.2899" lon="6.21684">
        <ele>1156</ele>
        <time>2021-12-17T12:33:36Z</time>
      </trkpt>
      <trkpt lat="45.28989" lon="6.21691">
        <ele>1155.2</ele>
        <time>2021-12-17T12:33:40Z</time>
      </trkpt>
      <trkpt lat="45.28989" lon="6.21693">
        <ele>1155</ele>
        <time>2021-12-17T12:33:41Z</time>
      </trkpt>
      <trkpt lat="45.2899" lon="6.21695">
        <ele>1154.8</ele>
        <time>2021-12-17T12:33:42Z</time>
      </trkpt>
      <trkpt lat="45.28992" lon="6.21701">
        <ele>1154.2</ele>
        <time>2021-12-17T12:33:46Z</time>
      </trkpt>
      <trkpt lat="45.28992" lon="6.21702">
        <ele>1154.2</ele>
        <time>2021-12-17T12:33:47Z</time>
      </trkpt>
      <trkpt lat="45.28997" lon="6.21706">
        <ele>1153.8</ele>
        <time>2021-12-17T12:33:51Z</time>
      </trkpt>
      <trkpt lat="45.28998" lon="6.21711">
        <ele>1153.6</ele>
        <time>2021-12-17T12:33:53Z</time>
      </trkpt>
      <trkpt lat="45.28999" lon="6.21714">
        <ele>1153.2</ele>
        <time>2021-12-17T12:33:55Z</time>
      </trkpt>
      <trkpt lat="45.29" lon="6.21715">
        <ele>1153</ele>
        <time>2021-12-17T12:33:56Z</time>
      </trkpt>
    </trkseg>
  </trk>
</gpx>